<?xml version="1.0" encoding="UTF-8" standalone="no" ?>
<gpx xmlns="http://www.topografix.com/GPX/1/1" xmlns:xsi="http://www.w3.org/2001/XMLSchema-instance" xsi:schemaLocation="http://www.topografix.com/GPX/1/1 http://www.topografix.com/GPX/1/1/gpx.xsd" version="1.1" creator="VisuGPX - https://www.visugpx.com">
  <metadata>
    <name>Entrainement Handbike L\'Isle-sur-le-Doubs 49km/350d </name>
    <desc><![CDATA[Entrainement Handbike L\'Isle-sur-le-Doubs 49km/350d ]]></desc>
  </metadata>
  <trk>
    <name><![CDATA[Entrainement Handbike L\'Isle-sur-le-Doubs 49km/350d _1]]></name>
    <trkseg>
      <trkpt lat="47.44366" lon="6.59171">
        <ele>321</ele>
        <time>2015-07-08T08:06:46.000Z</time>
      </trkpt>
      <trkpt lat="47.44368" lon="6.59168">
        <ele>321</ele>
        <time>2015-07-08T08:06:47.000Z</time>
      </trkpt>
      <trkpt lat="47.4437" lon="6.59164">
        <ele>321</ele>
        <time>2015-07-08T08:06:48.000Z</time>
      </trkpt>
      <trkpt lat="47.44373" lon="6.5916">
        <ele>321</ele>
        <time>2015-07-08T08:06:49.000Z</time>
      </trkpt>
      <trkpt lat="47.44376" lon="6.59156">
        <ele>320</ele>
        <time>2015-07-08T08:06:50.000Z</time>
      </trkpt>
      <trkpt lat="47.44378" lon="6.59151">
        <ele>320</ele>
        <time>2015-07-08T08:06:51.000Z</time>
      </trkpt>
      <trkpt lat="47.44382" lon="6.59146">
        <ele>320</ele>
        <time>2015-07-08T08:06:52.000Z</time>
      </trkpt>
      <trkpt lat="47.44385" lon="6.5914">
        <ele>320</ele>
        <time>2015-07-08T08:06:53.000Z</time>
      </trkpt>
      <trkpt lat="47.44389" lon="6.59134">
        <ele>319</ele>
        <time>2015-07-08T08:06:54.000Z</time>
      </trkpt>
      <trkpt lat="47.44393" lon="6.59127">
        <ele>319</ele>
        <time>2015-07-08T08:06:55.000Z</time>
      </trkpt>
      <trkpt lat="47.44396" lon="6.5912">
        <ele>319</ele>
        <time>2015-07-08T08:06:56.000Z</time>
      </trkpt>
      <trkpt lat="47.444" lon="6.59113">
        <ele>319</ele>
        <time>2015-07-08T08:06:57.000Z</time>
      </trkpt>
      <trkpt lat="47.44404" lon="6.59106">
        <ele>319</ele>
        <time>2015-07-08T08:06:58.000Z</time>
      </trkpt>
      <trkpt lat="47.44408" lon="6.59098">
        <ele>319</ele>
        <time>2015-07-08T08:06:59.000Z</time>
      </trkpt>
      <trkpt lat="47.44412" lon="6.59091">
        <ele>318</ele>
        <time>2015-07-08T08:07:00.000Z</time>
      </trkpt>
      <trkpt lat="47.44416" lon="6.59084">
        <ele>318</ele>
        <time>2015-07-08T08:07:01.000Z</time>
      </trkpt>
      <trkpt lat="47.44419" lon="6.59078">
        <ele>318</ele>
        <time>2015-07-08T08:07:02.000Z</time>
      </trkpt>
      <trkpt lat="47.44423" lon="6.59071">
        <ele>318</ele>
        <time>2015-07-08T08:07:03.000Z</time>
      </trkpt>
      <trkpt lat="47.44427" lon="6.59064">
        <ele>318</ele>
        <time>2015-07-08T08:07:04.000Z</time>
      </trkpt>
      <trkpt lat="47.4443" lon="6.59057">
        <ele>317</ele>
        <time>2015-07-08T08:07:05.000Z</time>
      </trkpt>
      <trkpt lat="47.44433" lon="6.5905">
        <ele>317</ele>
        <time>2015-07-08T08:07:06.000Z</time>
      </trkpt>
      <trkpt lat="47.44437" lon="6.59042">
        <ele>317</ele>
        <time>2015-07-08T08:07:07.000Z</time>
      </trkpt>
      <trkpt lat="47.4444" lon="6.59035">
        <ele>317</ele>
        <time>2015-07-08T08:07:08.000Z</time>
      </trkpt>
      <trkpt lat="47.44443" lon="6.59028">
        <ele>316</ele>
        <time>2015-07-08T08:07:09.000Z</time>
      </trkpt>
      <trkpt lat="47.44446" lon="6.5902">
        <ele>316</ele>
        <time>2015-07-08T08:07:10.000Z</time>
      </trkpt>
      <trkpt lat="47.4445" lon="6.59013">
        <ele>316</ele>
        <time>2015-07-08T08:07:11.000Z</time>
      </trkpt>
      <trkpt lat="47.44453" lon="6.59005">
        <ele>315</ele>
        <time>2015-07-08T08:07:12.000Z</time>
      </trkpt>
      <trkpt lat="47.44457" lon="6.58997">
        <ele>315</ele>
        <time>2015-07-08T08:07:13.000Z</time>
      </trkpt>
      <trkpt lat="47.44462" lon="6.58989">
        <ele>315</ele>
        <time>2015-07-08T08:07:14.000Z</time>
      </trkpt>
      <trkpt lat="47.44468" lon="6.58981">
        <ele>314</ele>
        <time>2015-07-08T08:07:15.000Z</time>
      </trkpt>
      <trkpt lat="47.44474" lon="6.58974">
        <ele>314</ele>
        <time>2015-07-08T08:07:16.000Z</time>
      </trkpt>
      <trkpt lat="47.44482" lon="6.58968">
        <ele>314</ele>
        <time>2015-07-08T08:07:17.000Z</time>
      </trkpt>
      <trkpt lat="47.44489" lon="6.58962">
        <ele>313</ele>
        <time>2015-07-08T08:07:18.000Z</time>
      </trkpt>
      <trkpt lat="47.44497" lon="6.58958">
        <ele>313</ele>
        <time>2015-07-08T08:07:19.000Z</time>
      </trkpt>
      <trkpt lat="47.44506" lon="6.58953">
        <ele>313</ele>
        <time>2015-07-08T08:07:20.000Z</time>
      </trkpt>
      <trkpt lat="47.44514" lon="6.58949">
        <ele>312</ele>
        <time>2015-07-08T08:07:21.000Z</time>
      </trkpt>
      <trkpt lat="47.44523" lon="6.58945">
        <ele>312</ele>
        <time>2015-07-08T08:07:22.000Z</time>
      </trkpt>
      <trkpt lat="47.44531" lon="6.58941">
        <ele>312</ele>
        <time>2015-07-08T08:07:23.000Z</time>
      </trkpt>
      <trkpt lat="47.44539" lon="6.58935">
        <ele>312</ele>
        <time>2015-07-08T08:07:24.000Z</time>
      </trkpt>
      <trkpt lat="47.44546" lon="6.58928">
        <ele>311</ele>
        <time>2015-07-08T08:07:25.000Z</time>
      </trkpt>
      <trkpt lat="47.44553" lon="6.58921">
        <ele>311</ele>
        <time>2015-07-08T08:07:26.000Z</time>
      </trkpt>
      <trkpt lat="47.4456" lon="6.58914">
        <ele>311</ele>
        <time>2015-07-08T08:07:27.000Z</time>
      </trkpt>
      <trkpt lat="47.44567" lon="6.58906">
        <ele>311</ele>
        <time>2015-07-08T08:07:28.000Z</time>
      </trkpt>
      <trkpt lat="47.44573" lon="6.58897">
        <ele>311</ele>
        <time>2015-07-08T08:07:29.000Z</time>
      </trkpt>
      <trkpt lat="47.44578" lon="6.58888">
        <ele>311</ele>
        <time>2015-07-08T08:07:30.000Z</time>
      </trkpt>
      <trkpt lat="47.44584" lon="6.58878">
        <ele>311</ele>
        <time>2015-07-08T08:07:31.000Z</time>
      </trkpt>
      <trkpt lat="47.44589" lon="6.58869">
        <ele>311</ele>
        <time>2015-07-08T08:07:32.000Z</time>
      </trkpt>
      <trkpt lat="47.44593" lon="6.58859">
        <ele>310</ele>
        <time>2015-07-08T08:07:33.000Z</time>
      </trkpt>
      <trkpt lat="47.44597" lon="6.58848">
        <ele>310</ele>
        <time>2015-07-08T08:07:34.000Z</time>
      </trkpt>
      <trkpt lat="47.44601" lon="6.58838">
        <ele>310</ele>
        <time>2015-07-08T08:07:35.000Z</time>
      </trkpt>
      <trkpt lat="47.44606" lon="6.58827">
        <ele>310</ele>
        <time>2015-07-08T08:07:36.000Z</time>
      </trkpt>
      <trkpt lat="47.4461" lon="6.58816">
        <ele>310</ele>
        <time>2015-07-08T08:07:37.000Z</time>
      </trkpt>
      <trkpt lat="47.44614" lon="6.58806">
        <ele>309</ele>
        <time>2015-07-08T08:07:38.000Z</time>
      </trkpt>
      <trkpt lat="47.44618" lon="6.58795">
        <ele>309</ele>
        <time>2015-07-08T08:07:39.000Z</time>
      </trkpt>
      <trkpt lat="47.44622" lon="6.58786">
        <ele>309</ele>
        <time>2015-07-08T08:07:40.000Z</time>
      </trkpt>
      <trkpt lat="47.44627" lon="6.58776">
        <ele>309</ele>
        <time>2015-07-08T08:07:41.000Z</time>
      </trkpt>
      <trkpt lat="47.44632" lon="6.58768">
        <ele>308</ele>
        <time>2015-07-08T08:07:42.000Z</time>
      </trkpt>
      <trkpt lat="47.44638" lon="6.5876">
        <ele>308</ele>
        <time>2015-07-08T08:07:43.000Z</time>
      </trkpt>
      <trkpt lat="47.44643" lon="6.58752">
        <ele>308</ele>
        <time>2015-07-08T08:07:44.000Z</time>
      </trkpt>
      <trkpt lat="47.44649" lon="6.58744">
        <ele>308</ele>
        <time>2015-07-08T08:07:45.000Z</time>
      </trkpt>
      <trkpt lat="47.44655" lon="6.58736">
        <ele>307</ele>
        <time>2015-07-08T08:07:46.000Z</time>
      </trkpt>
      <trkpt lat="47.44662" lon="6.58728">
        <ele>307</ele>
        <time>2015-07-08T08:07:47.000Z</time>
      </trkpt>
      <trkpt lat="47.44668" lon="6.58719">
        <ele>306</ele>
        <time>2015-07-08T08:07:48.000Z</time>
      </trkpt>
      <trkpt lat="47.44673" lon="6.58709">
        <ele>306</ele>
        <time>2015-07-08T08:07:49.000Z</time>
      </trkpt>
      <trkpt lat="47.44679" lon="6.58699">
        <ele>305</ele>
        <time>2015-07-08T08:07:50.000Z</time>
      </trkpt>
      <trkpt lat="47.44684" lon="6.58688">
        <ele>305</ele>
        <time>2015-07-08T08:07:51.000Z</time>
      </trkpt>
      <trkpt lat="47.44689" lon="6.58678">
        <ele>304</ele>
        <time>2015-07-08T08:07:52.000Z</time>
      </trkpt>
      <trkpt lat="47.44694" lon="6.58668">
        <ele>304</ele>
        <time>2015-07-08T08:07:53.000Z</time>
      </trkpt>
      <trkpt lat="47.44699" lon="6.58658">
        <ele>303</ele>
        <time>2015-07-08T08:07:54.000Z</time>
      </trkpt>
      <trkpt lat="47.44704" lon="6.58648">
        <ele>303</ele>
        <time>2015-07-08T08:07:55.000Z</time>
      </trkpt>
      <trkpt lat="47.4471" lon="6.58638">
        <ele>303</ele>
        <time>2015-07-08T08:07:56.000Z</time>
      </trkpt>
      <trkpt lat="47.44715" lon="6.58628">
        <ele>303</ele>
        <time>2015-07-08T08:07:57.000Z</time>
      </trkpt>
      <trkpt lat="47.4472" lon="6.58618">
        <ele>302</ele>
        <time>2015-07-08T08:07:58.000Z</time>
      </trkpt>
      <trkpt lat="47.44726" lon="6.58609">
        <ele>302</ele>
        <time>2015-07-08T08:07:59.000Z</time>
      </trkpt>
      <trkpt lat="47.44732" lon="6.58599">
        <ele>302</ele>
        <time>2015-07-08T08:08:00.000Z</time>
      </trkpt>
      <trkpt lat="47.44738" lon="6.5859">
        <ele>302</ele>
        <time>2015-07-08T08:08:01.000Z</time>
      </trkpt>
      <trkpt lat="47.44744" lon="6.58582">
        <ele>302</ele>
        <time>2015-07-08T08:08:02.000Z</time>
      </trkpt>
      <trkpt lat="47.44751" lon="6.58574">
        <ele>302</ele>
        <time>2015-07-08T08:08:03.000Z</time>
      </trkpt>
      <trkpt lat="47.44758" lon="6.58567">
        <ele>301</ele>
        <time>2015-07-08T08:08:04.000Z</time>
      </trkpt>
      <trkpt lat="47.44765" lon="6.5856">
        <ele>301</ele>
        <time>2015-07-08T08:08:05.000Z</time>
      </trkpt>
      <trkpt lat="47.44772" lon="6.58553">
        <ele>301</ele>
        <time>2015-07-08T08:08:06.000Z</time>
      </trkpt>
      <trkpt lat="47.44779" lon="6.58546">
        <ele>301</ele>
        <time>2015-07-08T08:08:07.000Z</time>
      </trkpt>
      <trkpt lat="47.44786" lon="6.58538">
        <ele>301</ele>
        <time>2015-07-08T08:08:08.000Z</time>
      </trkpt>
      <trkpt lat="47.44793" lon="6.58531">
        <ele>301</ele>
        <time>2015-07-08T08:08:09.000Z</time>
      </trkpt>
      <trkpt lat="47.448" lon="6.58524">
        <ele>300</ele>
        <time>2015-07-08T08:08:10.000Z</time>
      </trkpt>
      <trkpt lat="47.44807" lon="6.58517">
        <ele>300</ele>
        <time>2015-07-08T08:08:11.000Z</time>
      </trkpt>
      <trkpt lat="47.44814" lon="6.5851">
        <ele>300</ele>
        <time>2015-07-08T08:08:12.000Z</time>
      </trkpt>
      <trkpt lat="47.44821" lon="6.58503">
        <ele>300</ele>
        <time>2015-07-08T08:08:13.000Z</time>
      </trkpt>
      <trkpt lat="47.44828" lon="6.58495">
        <ele>300</ele>
        <time>2015-07-08T08:08:14.000Z</time>
      </trkpt>
      <trkpt lat="47.44834" lon="6.58488">
        <ele>299</ele>
        <time>2015-07-08T08:08:15.000Z</time>
      </trkpt>
      <trkpt lat="47.4484" lon="6.58481">
        <ele>299</ele>
        <time>2015-07-08T08:08:16.000Z</time>
      </trkpt>
      <trkpt lat="47.44845" lon="6.58473">
        <ele>299</ele>
        <time>2015-07-08T08:08:17.000Z</time>
      </trkpt>
      <trkpt lat="47.44848" lon="6.58464">
        <ele>299</ele>
        <time>2015-07-08T08:08:18.000Z</time>
      </trkpt>
      <trkpt lat="47.44849" lon="6.58454">
        <ele>299</ele>
        <time>2015-07-08T08:08:19.000Z</time>
      </trkpt>
      <trkpt lat="47.4485" lon="6.58443">
        <ele>299</ele>
        <time>2015-07-08T08:08:20.000Z</time>
      </trkpt>
      <trkpt lat="47.44849" lon="6.58432">
        <ele>298</ele>
        <time>2015-07-08T08:08:21.000Z</time>
      </trkpt>
      <trkpt lat="47.44849" lon="6.58421">
        <ele>298</ele>
        <time>2015-07-08T08:08:22.000Z</time>
      </trkpt>
      <trkpt lat="47.44848" lon="6.5841">
        <ele>298</ele>
        <time>2015-07-08T08:08:23.000Z</time>
      </trkpt>
      <trkpt lat="47.44847" lon="6.58399">
        <ele>298</ele>
        <time>2015-07-08T08:08:24.000Z</time>
      </trkpt>
      <trkpt lat="47.44844" lon="6.58389">
        <ele>298</ele>
        <time>2015-07-08T08:08:25.000Z</time>
      </trkpt>
      <trkpt lat="47.44841" lon="6.5838">
        <ele>298</ele>
        <time>2015-07-08T08:08:26.000Z</time>
      </trkpt>
      <trkpt lat="47.44838" lon="6.58371">
        <ele>298</ele>
        <time>2015-07-08T08:08:27.000Z</time>
      </trkpt>
      <trkpt lat="47.44835" lon="6.58363">
        <ele>299</ele>
        <time>2015-07-08T08:08:28.000Z</time>
      </trkpt>
      <trkpt lat="47.44833" lon="6.58354">
        <ele>299</ele>
        <time>2015-07-08T08:08:29.000Z</time>
      </trkpt>
      <trkpt lat="47.44832" lon="6.58345">
        <ele>299</ele>
        <time>2015-07-08T08:08:30.000Z</time>
      </trkpt>
      <trkpt lat="47.44833" lon="6.58335">
        <ele>299</ele>
        <time>2015-07-08T08:08:31.000Z</time>
      </trkpt>
      <trkpt lat="47.44835" lon="6.58325">
        <ele>299</ele>
        <time>2015-07-08T08:08:32.000Z</time>
      </trkpt>
      <trkpt lat="47.44838" lon="6.58316">
        <ele>299</ele>
        <time>2015-07-08T08:08:33.000Z</time>
      </trkpt>
      <trkpt lat="47.44842" lon="6.58308">
        <ele>299</ele>
        <time>2015-07-08T08:08:34.000Z</time>
      </trkpt>
      <trkpt lat="47.44846" lon="6.58301">
        <ele>299</ele>
        <time>2015-07-08T08:08:35.000Z</time>
      </trkpt>
      <trkpt lat="47.4485" lon="6.58295">
        <ele>299</ele>
        <time>2015-07-08T08:08:36.000Z</time>
      </trkpt>
      <trkpt lat="47.44854" lon="6.58289">
        <ele>299</ele>
        <time>2015-07-08T08:08:37.000Z</time>
      </trkpt>
      <trkpt lat="47.44857" lon="6.58283">
        <ele>299</ele>
        <time>2015-07-08T08:08:38.000Z</time>
      </trkpt>
      <trkpt lat="47.44861" lon="6.58277">
        <ele>299</ele>
        <time>2015-07-08T08:08:39.000Z</time>
      </trkpt>
      <trkpt lat="47.44865" lon="6.58271">
        <ele>299</ele>
        <time>2015-07-08T08:08:40.000Z</time>
      </trkpt>
      <trkpt lat="47.44869" lon="6.58266">
        <ele>298</ele>
        <time>2015-07-08T08:08:41.000Z</time>
      </trkpt>
      <trkpt lat="47.44873" lon="6.5826">
        <ele>298</ele>
        <time>2015-07-08T08:08:42.000Z</time>
      </trkpt>
      <trkpt lat="47.44876" lon="6.58255">
        <ele>298</ele>
        <time>2015-07-08T08:08:43.000Z</time>
      </trkpt>
      <trkpt lat="47.4488" lon="6.5825">
        <ele>298</ele>
        <time>2015-07-08T08:08:44.000Z</time>
      </trkpt>
      <trkpt lat="47.44883" lon="6.58245">
        <ele>298</ele>
        <time>2015-07-08T08:08:45.000Z</time>
      </trkpt>
      <trkpt lat="47.44887" lon="6.58239">
        <ele>298</ele>
        <time>2015-07-08T08:08:46.000Z</time>
      </trkpt>
      <trkpt lat="47.4489" lon="6.58234">
        <ele>299</ele>
        <time>2015-07-08T08:08:47.000Z</time>
      </trkpt>
      <trkpt lat="47.44892" lon="6.5823">
        <ele>299</ele>
        <time>2015-07-08T08:08:48.000Z</time>
      </trkpt>
      <trkpt lat="47.44895" lon="6.58227">
        <ele>299</ele>
        <time>2015-07-08T08:08:49.000Z</time>
      </trkpt>
      <trkpt lat="47.44897" lon="6.58224">
        <ele>298</ele>
        <time>2015-07-08T08:08:50.000Z</time>
      </trkpt>
      <trkpt lat="47.44899" lon="6.58222">
        <ele>298</ele>
        <time>2015-07-08T08:08:51.000Z</time>
      </trkpt>
      <trkpt lat="47.44902" lon="6.58222">
        <ele>298</ele>
        <time>2015-07-08T08:08:52.000Z</time>
      </trkpt>
      <trkpt lat="47.44905" lon="6.58226">
        <ele>297</ele>
        <time>2015-07-08T08:08:53.000Z</time>
      </trkpt>
      <trkpt lat="47.44908" lon="6.58231">
        <ele>297</ele>
        <time>2015-07-08T08:08:54.000Z</time>
      </trkpt>
      <trkpt lat="47.44911" lon="6.58237">
        <ele>297</ele>
        <time>2015-07-08T08:08:55.000Z</time>
      </trkpt>
      <trkpt lat="47.44915" lon="6.58243">
        <ele>297</ele>
        <time>2015-07-08T08:08:56.000Z</time>
      </trkpt>
      <trkpt lat="47.44919" lon="6.5825">
        <ele>297</ele>
        <time>2015-07-08T08:08:57.000Z</time>
      </trkpt>
      <trkpt lat="47.44923" lon="6.58256">
        <ele>296</ele>
        <time>2015-07-08T08:08:58.000Z</time>
      </trkpt>
      <trkpt lat="47.44928" lon="6.58262">
        <ele>296</ele>
        <time>2015-07-08T08:08:59.000Z</time>
      </trkpt>
      <trkpt lat="47.44933" lon="6.58268">
        <ele>296</ele>
        <time>2015-07-08T08:09:00.000Z</time>
      </trkpt>
      <trkpt lat="47.44937" lon="6.58275">
        <ele>296</ele>
        <time>2015-07-08T08:09:01.000Z</time>
      </trkpt>
      <trkpt lat="47.44942" lon="6.58281">
        <ele>296</ele>
        <time>2015-07-08T08:09:02.000Z</time>
      </trkpt>
      <trkpt lat="47.44946" lon="6.58287">
        <ele>296</ele>
        <time>2015-07-08T08:09:03.000Z</time>
      </trkpt>
      <trkpt lat="47.44951" lon="6.58293">
        <ele>296</ele>
        <time>2015-07-08T08:09:04.000Z</time>
      </trkpt>
      <trkpt lat="47.44955" lon="6.58299">
        <ele>296</ele>
        <time>2015-07-08T08:09:05.000Z</time>
      </trkpt>
      <trkpt lat="47.44959" lon="6.58304">
        <ele>296</ele>
        <time>2015-07-08T08:09:06.000Z</time>
      </trkpt>
      <trkpt lat="47.44963" lon="6.58309">
        <ele>296</ele>
        <time>2015-07-08T08:09:07.000Z</time>
      </trkpt>
      <trkpt lat="47.44967" lon="6.58314">
        <ele>296</ele>
        <time>2015-07-08T08:09:08.000Z</time>
      </trkpt>
      <trkpt lat="47.44971" lon="6.5832">
        <ele>295</ele>
        <time>2015-07-08T08:09:09.000Z</time>
      </trkpt>
      <trkpt lat="47.44974" lon="6.58325">
        <ele>295</ele>
        <time>2015-07-08T08:09:10.000Z</time>
      </trkpt>
      <trkpt lat="47.44978" lon="6.5833">
        <ele>296</ele>
        <time>2015-07-08T08:09:11.000Z</time>
      </trkpt>
      <trkpt lat="47.44981" lon="6.58336">
        <ele>295</ele>
        <time>2015-07-08T08:09:12.000Z</time>
      </trkpt>
      <trkpt lat="47.44985" lon="6.58342">
        <ele>296</ele>
        <time>2015-07-08T08:09:13.000Z</time>
      </trkpt>
      <trkpt lat="47.44988" lon="6.58347">
        <ele>296</ele>
        <time>2015-07-08T08:09:14.000Z</time>
      </trkpt>
      <trkpt lat="47.44992" lon="6.58353">
        <ele>296</ele>
        <time>2015-07-08T08:09:15.000Z</time>
      </trkpt>
      <trkpt lat="47.44996" lon="6.58359">
        <ele>296</ele>
        <time>2015-07-08T08:09:16.000Z</time>
      </trkpt>
      <trkpt lat="47.44999" lon="6.58365">
        <ele>296</ele>
        <time>2015-07-08T08:09:17.000Z</time>
      </trkpt>
      <trkpt lat="47.45003" lon="6.58371">
        <ele>296</ele>
        <time>2015-07-08T08:09:18.000Z</time>
      </trkpt>
      <trkpt lat="47.45007" lon="6.58377">
        <ele>296</ele>
        <time>2015-07-08T08:09:19.000Z</time>
      </trkpt>
      <trkpt lat="47.4501" lon="6.58383">
        <ele>296</ele>
        <time>2015-07-08T08:09:20.000Z</time>
      </trkpt>
      <trkpt lat="47.45014" lon="6.58389">
        <ele>296</ele>
        <time>2015-07-08T08:09:21.000Z</time>
      </trkpt>
      <trkpt lat="47.45018" lon="6.58396">
        <ele>296</ele>
        <time>2015-07-08T08:09:22.000Z</time>
      </trkpt>
      <trkpt lat="47.45022" lon="6.58402">
        <ele>296</ele>
        <time>2015-07-08T08:09:23.000Z</time>
      </trkpt>
      <trkpt lat="47.45026" lon="6.58409">
        <ele>295</ele>
        <time>2015-07-08T08:09:24.000Z</time>
      </trkpt>
      <trkpt lat="47.4503" lon="6.58416">
        <ele>295</ele>
        <time>2015-07-08T08:09:25.000Z</time>
      </trkpt>
      <trkpt lat="47.45033" lon="6.58422">
        <ele>295</ele>
        <time>2015-07-08T08:09:26.000Z</time>
      </trkpt>
      <trkpt lat="47.45037" lon="6.58429">
        <ele>295</ele>
        <time>2015-07-08T08:09:27.000Z</time>
      </trkpt>
      <trkpt lat="47.45041" lon="6.58436">
        <ele>295</ele>
        <time>2015-07-08T08:09:28.000Z</time>
      </trkpt>
      <trkpt lat="47.45044" lon="6.58442">
        <ele>295</ele>
        <time>2015-07-08T08:09:29.000Z</time>
      </trkpt>
      <trkpt lat="47.45048" lon="6.58449">
        <ele>295</ele>
        <time>2015-07-08T08:09:30.000Z</time>
      </trkpt>
      <trkpt lat="47.45051" lon="6.58456">
        <ele>295</ele>
        <time>2015-07-08T08:09:31.000Z</time>
      </trkpt>
      <trkpt lat="47.45055" lon="6.58464">
        <ele>295</ele>
        <time>2015-07-08T08:09:32.000Z</time>
      </trkpt>
      <trkpt lat="47.45059" lon="6.58471">
        <ele>295</ele>
        <time>2015-07-08T08:09:33.000Z</time>
      </trkpt>
      <trkpt lat="47.45063" lon="6.58478">
        <ele>295</ele>
        <time>2015-07-08T08:09:34.000Z</time>
      </trkpt>
      <trkpt lat="47.45067" lon="6.58485">
        <ele>295</ele>
        <time>2015-07-08T08:09:35.000Z</time>
      </trkpt>
      <trkpt lat="47.4507" lon="6.58492">
        <ele>295</ele>
        <time>2015-07-08T08:09:36.000Z</time>
      </trkpt>
      <trkpt lat="47.45074" lon="6.58499">
        <ele>295</ele>
        <time>2015-07-08T08:09:37.000Z</time>
      </trkpt>
      <trkpt lat="47.45077" lon="6.58506">
        <ele>295</ele>
        <time>2015-07-08T08:09:38.000Z</time>
      </trkpt>
      <trkpt lat="47.45081" lon="6.58513">
        <ele>295</ele>
        <time>2015-07-08T08:09:39.000Z</time>
      </trkpt>
      <trkpt lat="47.45084" lon="6.58521">
        <ele>295</ele>
        <time>2015-07-08T08:09:40.000Z</time>
      </trkpt>
      <trkpt lat="47.45087" lon="6.58528">
        <ele>295</ele>
        <time>2015-07-08T08:09:41.000Z</time>
      </trkpt>
      <trkpt lat="47.4509" lon="6.58535">
        <ele>295</ele>
        <time>2015-07-08T08:09:42.000Z</time>
      </trkpt>
      <trkpt lat="47.45093" lon="6.58542">
        <ele>295</ele>
        <time>2015-07-08T08:09:43.000Z</time>
      </trkpt>
      <trkpt lat="47.45096" lon="6.58549">
        <ele>295</ele>
        <time>2015-07-08T08:09:44.000Z</time>
      </trkpt>
      <trkpt lat="47.45099" lon="6.58557">
        <ele>295</ele>
        <time>2015-07-08T08:09:45.000Z</time>
      </trkpt>
      <trkpt lat="47.45102" lon="6.58564">
        <ele>295</ele>
        <time>2015-07-08T08:09:46.000Z</time>
      </trkpt>
      <trkpt lat="47.45105" lon="6.58571">
        <ele>295</ele>
        <time>2015-07-08T08:09:47.000Z</time>
      </trkpt>
      <trkpt lat="47.45108" lon="6.58579">
        <ele>295</ele>
        <time>2015-07-08T08:09:48.000Z</time>
      </trkpt>
      <trkpt lat="47.45111" lon="6.58586">
        <ele>295</ele>
        <time>2015-07-08T08:09:49.000Z</time>
      </trkpt>
      <trkpt lat="47.45113" lon="6.58594">
        <ele>295</ele>
        <time>2015-07-08T08:09:50.000Z</time>
      </trkpt>
      <trkpt lat="47.45116" lon="6.58601">
        <ele>295</ele>
        <time>2015-07-08T08:09:51.000Z</time>
      </trkpt>
      <trkpt lat="47.45119" lon="6.58608">
        <ele>295</ele>
        <time>2015-07-08T08:09:52.000Z</time>
      </trkpt>
      <trkpt lat="47.45122" lon="6.58615">
        <ele>295</ele>
        <time>2015-07-08T08:09:53.000Z</time>
      </trkpt>
      <trkpt lat="47.45124" lon="6.58622">
        <ele>295</ele>
        <time>2015-07-08T08:09:54.000Z</time>
      </trkpt>
      <trkpt lat="47.45127" lon="6.58629">
        <ele>295</ele>
        <time>2015-07-08T08:09:55.000Z</time>
      </trkpt>
      <trkpt lat="47.45129" lon="6.58636">
        <ele>295</ele>
        <time>2015-07-08T08:09:56.000Z</time>
      </trkpt>
      <trkpt lat="47.45132" lon="6.58643">
        <ele>295</ele>
        <time>2015-07-08T08:09:57.000Z</time>
      </trkpt>
      <trkpt lat="47.45134" lon="6.5865">
        <ele>295</ele>
        <time>2015-07-08T08:09:58.000Z</time>
      </trkpt>
      <trkpt lat="47.45136" lon="6.58657">
        <ele>295</ele>
        <time>2015-07-08T08:09:59.000Z</time>
      </trkpt>
      <trkpt lat="47.45138" lon="6.58665">
        <ele>295</ele>
        <time>2015-07-08T08:10:00.000Z</time>
      </trkpt>
      <trkpt lat="47.45141" lon="6.58672">
        <ele>295</ele>
        <time>2015-07-08T08:10:01.000Z</time>
      </trkpt>
      <trkpt lat="47.45143" lon="6.5868">
        <ele>295</ele>
        <time>2015-07-08T08:10:02.000Z</time>
      </trkpt>
      <trkpt lat="47.45146" lon="6.58687">
        <ele>295</ele>
        <time>2015-07-08T08:10:03.000Z</time>
      </trkpt>
      <trkpt lat="47.45148" lon="6.58694">
        <ele>295</ele>
        <time>2015-07-08T08:10:04.000Z</time>
      </trkpt>
      <trkpt lat="47.45151" lon="6.58702">
        <ele>295</ele>
        <time>2015-07-08T08:10:05.000Z</time>
      </trkpt>
      <trkpt lat="47.45153" lon="6.5871">
        <ele>295</ele>
        <time>2015-07-08T08:10:06.000Z</time>
      </trkpt>
      <trkpt lat="47.45155" lon="6.58717">
        <ele>295</ele>
        <time>2015-07-08T08:10:07.000Z</time>
      </trkpt>
      <trkpt lat="47.45158" lon="6.58725">
        <ele>295</ele>
        <time>2015-07-08T08:10:08.000Z</time>
      </trkpt>
      <trkpt lat="47.4516" lon="6.58733">
        <ele>295</ele>
        <time>2015-07-08T08:10:09.000Z</time>
      </trkpt>
      <trkpt lat="47.45163" lon="6.58741">
        <ele>295</ele>
        <time>2015-07-08T08:10:10.000Z</time>
      </trkpt>
      <trkpt lat="47.45165" lon="6.58749">
        <ele>295</ele>
        <time>2015-07-08T08:10:11.000Z</time>
      </trkpt>
      <trkpt lat="47.45168" lon="6.58758">
        <ele>295</ele>
        <time>2015-07-08T08:10:12.000Z</time>
      </trkpt>
      <trkpt lat="47.4517" lon="6.58766">
        <ele>295</ele>
        <time>2015-07-08T08:10:13.000Z</time>
      </trkpt>
      <trkpt lat="47.45173" lon="6.58775">
        <ele>295</ele>
        <time>2015-07-08T08:10:14.000Z</time>
      </trkpt>
      <trkpt lat="47.45176" lon="6.58783">
        <ele>295</ele>
        <time>2015-07-08T08:10:15.000Z</time>
      </trkpt>
      <trkpt lat="47.45178" lon="6.58792">
        <ele>295</ele>
        <time>2015-07-08T08:10:16.000Z</time>
      </trkpt>
      <trkpt lat="47.45181" lon="6.588">
        <ele>295</ele>
        <time>2015-07-08T08:10:17.000Z</time>
      </trkpt>
      <trkpt lat="47.45183" lon="6.58809">
        <ele>295</ele>
        <time>2015-07-08T08:10:18.000Z</time>
      </trkpt>
      <trkpt lat="47.45186" lon="6.58818">
        <ele>295</ele>
        <time>2015-07-08T08:10:19.000Z</time>
      </trkpt>
      <trkpt lat="47.45189" lon="6.58826">
        <ele>295</ele>
        <time>2015-07-08T08:10:20.000Z</time>
      </trkpt>
      <trkpt lat="47.45191" lon="6.58835">
        <ele>295</ele>
        <time>2015-07-08T08:10:21.000Z</time>
      </trkpt>
      <trkpt lat="47.45194" lon="6.58844">
        <ele>295</ele>
        <time>2015-07-08T08:10:22.000Z</time>
      </trkpt>
      <trkpt lat="47.45196" lon="6.58852">
        <ele>295</ele>
        <time>2015-07-08T08:10:23.000Z</time>
      </trkpt>
      <trkpt lat="47.45198" lon="6.58861">
        <ele>295</ele>
        <time>2015-07-08T08:10:24.000Z</time>
      </trkpt>
      <trkpt lat="47.45201" lon="6.58869">
        <ele>296</ele>
        <time>2015-07-08T08:10:25.000Z</time>
      </trkpt>
      <trkpt lat="47.45203" lon="6.58877">
        <ele>296</ele>
        <time>2015-07-08T08:10:26.000Z</time>
      </trkpt>
      <trkpt lat="47.45206" lon="6.58885">
        <ele>296</ele>
        <time>2015-07-08T08:10:27.000Z</time>
      </trkpt>
      <trkpt lat="47.45208" lon="6.58892">
        <ele>296</ele>
        <time>2015-07-08T08:10:28.000Z</time>
      </trkpt>
      <trkpt lat="47.45211" lon="6.589">
        <ele>296</ele>
        <time>2015-07-08T08:10:29.000Z</time>
      </trkpt>
      <trkpt lat="47.45215" lon="6.58906">
        <ele>296</ele>
        <time>2015-07-08T08:10:30.000Z</time>
      </trkpt>
      <trkpt lat="47.45218" lon="6.58913">
        <ele>296</ele>
        <time>2015-07-08T08:10:31.000Z</time>
      </trkpt>
      <trkpt lat="47.45221" lon="6.58919">
        <ele>296</ele>
        <time>2015-07-08T08:10:32.000Z</time>
      </trkpt>
      <trkpt lat="47.45224" lon="6.58926">
        <ele>296</ele>
        <time>2015-07-08T08:10:33.000Z</time>
      </trkpt>
      <trkpt lat="47.45227" lon="6.58933">
        <ele>296</ele>
        <time>2015-07-08T08:10:34.000Z</time>
      </trkpt>
      <trkpt lat="47.4523" lon="6.5894">
        <ele>296</ele>
        <time>2015-07-08T08:10:35.000Z</time>
      </trkpt>
      <trkpt lat="47.45231" lon="6.58947">
        <ele>296</ele>
        <time>2015-07-08T08:10:36.000Z</time>
      </trkpt>
      <trkpt lat="47.45231" lon="6.58953">
        <ele>296</ele>
        <time>2015-07-08T08:10:37.000Z</time>
      </trkpt>
      <trkpt lat="47.45231" lon="6.58957">
        <ele>296</ele>
        <time>2015-07-08T08:10:38.000Z</time>
      </trkpt>
      <trkpt lat="47.45231" lon="6.58961">
        <ele>296</ele>
        <time>2015-07-08T08:10:39.000Z</time>
      </trkpt>
      <trkpt lat="47.45231" lon="6.58966">
        <ele>296</ele>
        <time>2015-07-08T08:10:40.000Z</time>
      </trkpt>
      <trkpt lat="47.4523" lon="6.58971">
        <ele>296</ele>
        <time>2015-07-08T08:10:41.000Z</time>
      </trkpt>
      <trkpt lat="47.45229" lon="6.58976">
        <ele>296</ele>
        <time>2015-07-08T08:10:42.000Z</time>
      </trkpt>
      <trkpt lat="47.45228" lon="6.58982">
        <ele>296</ele>
        <time>2015-07-08T08:10:43.000Z</time>
      </trkpt>
      <trkpt lat="47.45227" lon="6.58988">
        <ele>296</ele>
        <time>2015-07-08T08:10:44.000Z</time>
      </trkpt>
      <trkpt lat="47.45226" lon="6.58994">
        <ele>296</ele>
        <time>2015-07-08T08:10:45.000Z</time>
      </trkpt>
      <trkpt lat="47.45224" lon="6.59">
        <ele>296</ele>
        <time>2015-07-08T08:10:46.000Z</time>
      </trkpt>
      <trkpt lat="47.45223" lon="6.59006">
        <ele>297</ele>
        <time>2015-07-08T08:10:47.000Z</time>
      </trkpt>
      <trkpt lat="47.45222" lon="6.59013">
        <ele>297</ele>
        <time>2015-07-08T08:10:48.000Z</time>
      </trkpt>
      <trkpt lat="47.45221" lon="6.5902">
        <ele>297</ele>
        <time>2015-07-08T08:10:49.000Z</time>
      </trkpt>
      <trkpt lat="47.45221" lon="6.59028">
        <ele>297</ele>
        <time>2015-07-08T08:10:50.000Z</time>
      </trkpt>
      <trkpt lat="47.4522" lon="6.59035">
        <ele>297</ele>
        <time>2015-07-08T08:10:51.000Z</time>
      </trkpt>
      <trkpt lat="47.4522" lon="6.59043">
        <ele>297</ele>
        <time>2015-07-08T08:10:52.000Z</time>
      </trkpt>
      <trkpt lat="47.45221" lon="6.59051">
        <ele>297</ele>
        <time>2015-07-08T08:10:53.000Z</time>
      </trkpt>
      <trkpt lat="47.45221" lon="6.59059">
        <ele>297</ele>
        <time>2015-07-08T08:10:54.000Z</time>
      </trkpt>
      <trkpt lat="47.4522" lon="6.59068">
        <ele>297</ele>
        <time>2015-07-08T08:10:55.000Z</time>
      </trkpt>
      <trkpt lat="47.4522" lon="6.59077">
        <ele>297</ele>
        <time>2015-07-08T08:10:56.000Z</time>
      </trkpt>
      <trkpt lat="47.4522" lon="6.59086">
        <ele>297</ele>
        <time>2015-07-08T08:10:57.000Z</time>
      </trkpt>
      <trkpt lat="47.45219" lon="6.59095">
        <ele>297</ele>
        <time>2015-07-08T08:10:58.000Z</time>
      </trkpt>
      <trkpt lat="47.45218" lon="6.59105">
        <ele>297</ele>
        <time>2015-07-08T08:10:59.000Z</time>
      </trkpt>
      <trkpt lat="47.45218" lon="6.59114">
        <ele>297</ele>
        <time>2015-07-08T08:11:00.000Z</time>
      </trkpt>
      <trkpt lat="47.45217" lon="6.59124">
        <ele>297</ele>
        <time>2015-07-08T08:11:01.000Z</time>
      </trkpt>
      <trkpt lat="47.45216" lon="6.59134">
        <ele>297</ele>
        <time>2015-07-08T08:11:02.000Z</time>
      </trkpt>
      <trkpt lat="47.45214" lon="6.59144">
        <ele>297</ele>
        <time>2015-07-08T08:11:03.000Z</time>
      </trkpt>
      <trkpt lat="47.45213" lon="6.59154">
        <ele>297</ele>
        <time>2015-07-08T08:11:04.000Z</time>
      </trkpt>
      <trkpt lat="47.45211" lon="6.59164">
        <ele>297</ele>
        <time>2015-07-08T08:11:05.000Z</time>
      </trkpt>
      <trkpt lat="47.4521" lon="6.59174">
        <ele>297</ele>
        <time>2015-07-08T08:11:06.000Z</time>
      </trkpt>
      <trkpt lat="47.45208" lon="6.59183">
        <ele>297</ele>
        <time>2015-07-08T08:11:07.000Z</time>
      </trkpt>
      <trkpt lat="47.45206" lon="6.59193">
        <ele>297</ele>
        <time>2015-07-08T08:11:08.000Z</time>
      </trkpt>
      <trkpt lat="47.45205" lon="6.59203">
        <ele>297</ele>
        <time>2015-07-08T08:11:09.000Z</time>
      </trkpt>
      <trkpt lat="47.45203" lon="6.59213">
        <ele>297</ele>
        <time>2015-07-08T08:11:10.000Z</time>
      </trkpt>
      <trkpt lat="47.45201" lon="6.59222">
        <ele>297</ele>
        <time>2015-07-08T08:11:11.000Z</time>
      </trkpt>
      <trkpt lat="47.452" lon="6.59231">
        <ele>297</ele>
        <time>2015-07-08T08:11:12.000Z</time>
      </trkpt>
      <trkpt lat="47.45198" lon="6.5924">
        <ele>297</ele>
        <time>2015-07-08T08:11:13.000Z</time>
      </trkpt>
      <trkpt lat="47.45196" lon="6.59249">
        <ele>297</ele>
        <time>2015-07-08T08:11:14.000Z</time>
      </trkpt>
      <trkpt lat="47.45194" lon="6.59258">
        <ele>297</ele>
        <time>2015-07-08T08:11:15.000Z</time>
      </trkpt>
      <trkpt lat="47.45192" lon="6.59267">
        <ele>297</ele>
        <time>2015-07-08T08:11:16.000Z</time>
      </trkpt>
      <trkpt lat="47.4519" lon="6.59276">
        <ele>297</ele>
        <time>2015-07-08T08:11:17.000Z</time>
      </trkpt>
      <trkpt lat="47.45187" lon="6.59285">
        <ele>297</ele>
        <time>2015-07-08T08:11:18.000Z</time>
      </trkpt>
      <trkpt lat="47.45185" lon="6.59294">
        <ele>297</ele>
        <time>2015-07-08T08:11:19.000Z</time>
      </trkpt>
      <trkpt lat="47.45183" lon="6.59302">
        <ele>297</ele>
        <time>2015-07-08T08:11:20.000Z</time>
      </trkpt>
      <trkpt lat="47.4518" lon="6.59311">
        <ele>297</ele>
        <time>2015-07-08T08:11:21.000Z</time>
      </trkpt>
      <trkpt lat="47.45177" lon="6.5932">
        <ele>297</ele>
        <time>2015-07-08T08:11:22.000Z</time>
      </trkpt>
      <trkpt lat="47.45174" lon="6.59329">
        <ele>297</ele>
        <time>2015-07-08T08:11:23.000Z</time>
      </trkpt>
      <trkpt lat="47.45171" lon="6.59337">
        <ele>297</ele>
        <time>2015-07-08T08:11:24.000Z</time>
      </trkpt>
      <trkpt lat="47.45167" lon="6.59346">
        <ele>297</ele>
        <time>2015-07-08T08:11:25.000Z</time>
      </trkpt>
      <trkpt lat="47.45164" lon="6.59355">
        <ele>297</ele>
        <time>2015-07-08T08:11:26.000Z</time>
      </trkpt>
      <trkpt lat="47.4516" lon="6.59363">
        <ele>297</ele>
        <time>2015-07-08T08:11:27.000Z</time>
      </trkpt>
      <trkpt lat="47.45157" lon="6.59371">
        <ele>297</ele>
        <time>2015-07-08T08:11:28.000Z</time>
      </trkpt>
      <trkpt lat="47.45153" lon="6.59379">
        <ele>297</ele>
        <time>2015-07-08T08:11:29.000Z</time>
      </trkpt>
      <trkpt lat="47.45148" lon="6.59387">
        <ele>297</ele>
        <time>2015-07-08T08:11:30.000Z</time>
      </trkpt>
      <trkpt lat="47.45144" lon="6.59395">
        <ele>297</ele>
        <time>2015-07-08T08:11:31.000Z</time>
      </trkpt>
      <trkpt lat="47.4514" lon="6.59403">
        <ele>297</ele>
        <time>2015-07-08T08:11:32.000Z</time>
      </trkpt>
      <trkpt lat="47.45136" lon="6.5941">
        <ele>297</ele>
        <time>2015-07-08T08:11:33.000Z</time>
      </trkpt>
      <trkpt lat="47.45131" lon="6.59417">
        <ele>297</ele>
        <time>2015-07-08T08:11:34.000Z</time>
      </trkpt>
      <trkpt lat="47.45125" lon="6.59422">
        <ele>296</ele>
        <time>2015-07-08T08:11:35.000Z</time>
      </trkpt>
      <trkpt lat="47.45119" lon="6.59426">
        <ele>296</ele>
        <time>2015-07-08T08:11:36.000Z</time>
      </trkpt>
      <trkpt lat="47.45113" lon="6.5943">
        <ele>296</ele>
        <time>2015-07-08T08:11:37.000Z</time>
      </trkpt>
      <trkpt lat="47.45108" lon="6.59435">
        <ele>296</ele>
        <time>2015-07-08T08:11:38.000Z</time>
      </trkpt>
      <trkpt lat="47.45103" lon="6.5944">
        <ele>296</ele>
        <time>2015-07-08T08:11:39.000Z</time>
      </trkpt>
      <trkpt lat="47.45099" lon="6.59448">
        <ele>296</ele>
        <time>2015-07-08T08:11:40.000Z</time>
      </trkpt>
      <trkpt lat="47.45096" lon="6.59457">
        <ele>296</ele>
        <time>2015-07-08T08:11:41.000Z</time>
      </trkpt>
      <trkpt lat="47.45091" lon="6.59465">
        <ele>296</ele>
        <time>2015-07-08T08:11:42.000Z</time>
      </trkpt>
      <trkpt lat="47.45086" lon="6.59473">
        <ele>297</ele>
        <time>2015-07-08T08:11:43.000Z</time>
      </trkpt>
      <trkpt lat="47.45081" lon="6.59479">
        <ele>297</ele>
        <time>2015-07-08T08:11:44.000Z</time>
      </trkpt>
      <trkpt lat="47.45076" lon="6.59486">
        <ele>297</ele>
        <time>2015-07-08T08:11:45.000Z</time>
      </trkpt>
      <trkpt lat="47.4507" lon="6.59491">
        <ele>297</ele>
        <time>2015-07-08T08:11:46.000Z</time>
      </trkpt>
      <trkpt lat="47.45065" lon="6.59497">
        <ele>298</ele>
        <time>2015-07-08T08:11:47.000Z</time>
      </trkpt>
      <trkpt lat="47.45059" lon="6.59503">
        <ele>298</ele>
        <time>2015-07-08T08:11:48.000Z</time>
      </trkpt>
      <trkpt lat="47.45053" lon="6.59509">
        <ele>298</ele>
        <time>2015-07-08T08:11:49.000Z</time>
      </trkpt>
      <trkpt lat="47.45047" lon="6.59514">
        <ele>298</ele>
        <time>2015-07-08T08:11:50.000Z</time>
      </trkpt>
      <trkpt lat="47.45042" lon="6.5952">
        <ele>298</ele>
        <time>2015-07-08T08:11:51.000Z</time>
      </trkpt>
      <trkpt lat="47.45036" lon="6.59525">
        <ele>298</ele>
        <time>2015-07-08T08:11:52.000Z</time>
      </trkpt>
      <trkpt lat="47.4503" lon="6.5953">
        <ele>298</ele>
        <time>2015-07-08T08:11:53.000Z</time>
      </trkpt>
      <trkpt lat="47.45024" lon="6.59536">
        <ele>298</ele>
        <time>2015-07-08T08:11:54.000Z</time>
      </trkpt>
      <trkpt lat="47.45018" lon="6.59541">
        <ele>298</ele>
        <time>2015-07-08T08:11:55.000Z</time>
      </trkpt>
      <trkpt lat="47.45012" lon="6.59545">
        <ele>298</ele>
        <time>2015-07-08T08:11:56.000Z</time>
      </trkpt>
      <trkpt lat="47.45007" lon="6.5955">
        <ele>298</ele>
        <time>2015-07-08T08:11:57.000Z</time>
      </trkpt>
      <trkpt lat="47.45001" lon="6.59554">
        <ele>298</ele>
        <time>2015-07-08T08:11:58.000Z</time>
      </trkpt>
      <trkpt lat="47.44996" lon="6.59558">
        <ele>298</ele>
        <time>2015-07-08T08:11:59.000Z</time>
      </trkpt>
      <trkpt lat="47.44991" lon="6.59562">
        <ele>298</ele>
        <time>2015-07-08T08:12:00.000Z</time>
      </trkpt>
      <trkpt lat="47.44985" lon="6.59567">
        <ele>298</ele>
        <time>2015-07-08T08:12:01.000Z</time>
      </trkpt>
      <trkpt lat="47.4498" lon="6.59571">
        <ele>298</ele>
        <time>2015-07-08T08:12:02.000Z</time>
      </trkpt>
      <trkpt lat="47.44975" lon="6.59575">
        <ele>298</ele>
        <time>2015-07-08T08:12:03.000Z</time>
      </trkpt>
      <trkpt lat="47.44969" lon="6.59579">
        <ele>298</ele>
        <time>2015-07-08T08:12:04.000Z</time>
      </trkpt>
      <trkpt lat="47.44964" lon="6.59583">
        <ele>298</ele>
        <time>2015-07-08T08:12:05.000Z</time>
      </trkpt>
      <trkpt lat="47.44958" lon="6.59587">
        <ele>298</ele>
        <time>2015-07-08T08:12:06.000Z</time>
      </trkpt>
      <trkpt lat="47.44953" lon="6.59592">
        <ele>298</ele>
        <time>2015-07-08T08:12:07.000Z</time>
      </trkpt>
      <trkpt lat="47.44947" lon="6.59596">
        <ele>298</ele>
        <time>2015-07-08T08:12:08.000Z</time>
      </trkpt>
      <trkpt lat="47.44942" lon="6.596">
        <ele>298</ele>
        <time>2015-07-08T08:12:09.000Z</time>
      </trkpt>
      <trkpt lat="47.44936" lon="6.59604">
        <ele>298</ele>
        <time>2015-07-08T08:12:10.000Z</time>
      </trkpt>
      <trkpt lat="47.4493" lon="6.59608">
        <ele>298</ele>
        <time>2015-07-08T08:12:11.000Z</time>
      </trkpt>
      <trkpt lat="47.44925" lon="6.59612">
        <ele>298</ele>
        <time>2015-07-08T08:12:12.000Z</time>
      </trkpt>
      <trkpt lat="47.4492" lon="6.59615">
        <ele>298</ele>
        <time>2015-07-08T08:12:13.000Z</time>
      </trkpt>
      <trkpt lat="47.44914" lon="6.59619">
        <ele>299</ele>
        <time>2015-07-08T08:12:14.000Z</time>
      </trkpt>
      <trkpt lat="47.44909" lon="6.59623">
        <ele>299</ele>
        <time>2015-07-08T08:12:15.000Z</time>
      </trkpt>
      <trkpt lat="47.44903" lon="6.59627">
        <ele>299</ele>
        <time>2015-07-08T08:12:16.000Z</time>
      </trkpt>
      <trkpt lat="47.44897" lon="6.59631">
        <ele>299</ele>
        <time>2015-07-08T08:12:17.000Z</time>
      </trkpt>
      <trkpt lat="47.44891" lon="6.59635">
        <ele>299</ele>
        <time>2015-07-08T08:12:18.000Z</time>
      </trkpt>
      <trkpt lat="47.44885" lon="6.59639">
        <ele>299</ele>
        <time>2015-07-08T08:12:19.000Z</time>
      </trkpt>
      <trkpt lat="47.4488" lon="6.59643">
        <ele>299</ele>
        <time>2015-07-08T08:12:20.000Z</time>
      </trkpt>
      <trkpt lat="47.44874" lon="6.59647">
        <ele>299</ele>
        <time>2015-07-08T08:12:21.000Z</time>
      </trkpt>
      <trkpt lat="47.44868" lon="6.5965">
        <ele>299</ele>
        <time>2015-07-08T08:12:22.000Z</time>
      </trkpt>
      <trkpt lat="47.44861" lon="6.59654">
        <ele>299</ele>
        <time>2015-07-08T08:12:23.000Z</time>
      </trkpt>
      <trkpt lat="47.44855" lon="6.59657">
        <ele>299</ele>
        <time>2015-07-08T08:12:24.000Z</time>
      </trkpt>
      <trkpt lat="47.44849" lon="6.59661">
        <ele>299</ele>
        <time>2015-07-08T08:12:25.000Z</time>
      </trkpt>
      <trkpt lat="47.44843" lon="6.59664">
        <ele>299</ele>
        <time>2015-07-08T08:12:26.000Z</time>
      </trkpt>
      <trkpt lat="47.44837" lon="6.59667">
        <ele>300</ele>
        <time>2015-07-08T08:12:27.000Z</time>
      </trkpt>
      <trkpt lat="47.44831" lon="6.5967">
        <ele>300</ele>
        <time>2015-07-08T08:12:28.000Z</time>
      </trkpt>
      <trkpt lat="47.44825" lon="6.59673">
        <ele>300</ele>
        <time>2015-07-08T08:12:29.000Z</time>
      </trkpt>
      <trkpt lat="47.44819" lon="6.59676">
        <ele>300</ele>
        <time>2015-07-08T08:12:30.000Z</time>
      </trkpt>
      <trkpt lat="47.44813" lon="6.59679">
        <ele>300</ele>
        <time>2015-07-08T08:12:31.000Z</time>
      </trkpt>
      <trkpt lat="47.44807" lon="6.59682">
        <ele>300</ele>
        <time>2015-07-08T08:12:32.000Z</time>
      </trkpt>
      <trkpt lat="47.44801" lon="6.59684">
        <ele>300</ele>
        <time>2015-07-08T08:12:33.000Z</time>
      </trkpt>
      <trkpt lat="47.44795" lon="6.59687">
        <ele>300</ele>
        <time>2015-07-08T08:12:34.000Z</time>
      </trkpt>
      <trkpt lat="47.44788" lon="6.5969">
        <ele>300</ele>
        <time>2015-07-08T08:12:35.000Z</time>
      </trkpt>
      <trkpt lat="47.44782" lon="6.59693">
        <ele>300</ele>
        <time>2015-07-08T08:12:36.000Z</time>
      </trkpt>
      <trkpt lat="47.44775" lon="6.59695">
        <ele>300</ele>
        <time>2015-07-08T08:12:37.000Z</time>
      </trkpt>
      <trkpt lat="47.44768" lon="6.59698">
        <ele>301</ele>
        <time>2015-07-08T08:12:38.000Z</time>
      </trkpt>
      <trkpt lat="47.44762" lon="6.597">
        <ele>301</ele>
        <time>2015-07-08T08:12:39.000Z</time>
      </trkpt>
      <trkpt lat="47.44755" lon="6.59703">
        <ele>301</ele>
        <time>2015-07-08T08:12:40.000Z</time>
      </trkpt>
      <trkpt lat="47.44748" lon="6.59705">
        <ele>301</ele>
        <time>2015-07-08T08:12:41.000Z</time>
      </trkpt>
      <trkpt lat="47.44741" lon="6.59707">
        <ele>301</ele>
        <time>2015-07-08T08:12:42.000Z</time>
      </trkpt>
      <trkpt lat="47.44735" lon="6.59709">
        <ele>301</ele>
        <time>2015-07-08T08:12:43.000Z</time>
      </trkpt>
      <trkpt lat="47.44728" lon="6.59711">
        <ele>302</ele>
        <time>2015-07-08T08:12:44.000Z</time>
      </trkpt>
      <trkpt lat="47.44721" lon="6.59713">
        <ele>302</ele>
        <time>2015-07-08T08:12:45.000Z</time>
      </trkpt>
      <trkpt lat="47.44714" lon="6.59715">
        <ele>302</ele>
        <time>2015-07-08T08:12:46.000Z</time>
      </trkpt>
      <trkpt lat="47.44707" lon="6.59716">
        <ele>302</ele>
        <time>2015-07-08T08:12:47.000Z</time>
      </trkpt>
      <trkpt lat="47.447" lon="6.59718">
        <ele>302</ele>
        <time>2015-07-08T08:12:48.000Z</time>
      </trkpt>
      <trkpt lat="47.44694" lon="6.5972">
        <ele>302</ele>
        <time>2015-07-08T08:12:49.000Z</time>
      </trkpt>
      <trkpt lat="47.44687" lon="6.59721">
        <ele>302</ele>
        <time>2015-07-08T08:12:50.000Z</time>
      </trkpt>
      <trkpt lat="47.4468" lon="6.59721">
        <ele>302</ele>
        <time>2015-07-08T08:12:51.000Z</time>
      </trkpt>
      <trkpt lat="47.44673" lon="6.59722">
        <ele>303</ele>
        <time>2015-07-08T08:12:52.000Z</time>
      </trkpt>
      <trkpt lat="47.44666" lon="6.59722">
        <ele>303</ele>
        <time>2015-07-08T08:12:53.000Z</time>
      </trkpt>
      <trkpt lat="47.44659" lon="6.59722">
        <ele>303</ele>
        <time>2015-07-08T08:12:54.000Z</time>
      </trkpt>
      <trkpt lat="47.44652" lon="6.59722">
        <ele>303</ele>
        <time>2015-07-08T08:12:55.000Z</time>
      </trkpt>
      <trkpt lat="47.44646" lon="6.59722">
        <ele>303</ele>
        <time>2015-07-08T08:12:56.000Z</time>
      </trkpt>
      <trkpt lat="47.44639" lon="6.59722">
        <ele>303</ele>
        <time>2015-07-08T08:12:57.000Z</time>
      </trkpt>
      <trkpt lat="47.44632" lon="6.59721">
        <ele>303</ele>
        <time>2015-07-08T08:12:58.000Z</time>
      </trkpt>
      <trkpt lat="47.44626" lon="6.59721">
        <ele>303</ele>
        <time>2015-07-08T08:12:59.000Z</time>
      </trkpt>
      <trkpt lat="47.44619" lon="6.5972">
        <ele>303</ele>
        <time>2015-07-08T08:13:00.000Z</time>
      </trkpt>
      <trkpt lat="47.44612" lon="6.5972">
        <ele>303</ele>
        <time>2015-07-08T08:13:01.000Z</time>
      </trkpt>
      <trkpt lat="47.44606" lon="6.59719">
        <ele>303</ele>
        <time>2015-07-08T08:13:02.000Z</time>
      </trkpt>
      <trkpt lat="47.44599" lon="6.59718">
        <ele>303</ele>
        <time>2015-07-08T08:13:03.000Z</time>
      </trkpt>
      <trkpt lat="47.44592" lon="6.59717">
        <ele>303</ele>
        <time>2015-07-08T08:13:04.000Z</time>
      </trkpt>
      <trkpt lat="47.44585" lon="6.59716">
        <ele>303</ele>
        <time>2015-07-08T08:13:05.000Z</time>
      </trkpt>
      <trkpt lat="47.44579" lon="6.59716">
        <ele>303</ele>
        <time>2015-07-08T08:13:06.000Z</time>
      </trkpt>
      <trkpt lat="47.44572" lon="6.59715">
        <ele>304</ele>
        <time>2015-07-08T08:13:07.000Z</time>
      </trkpt>
      <trkpt lat="47.44565" lon="6.59715">
        <ele>304</ele>
        <time>2015-07-08T08:13:08.000Z</time>
      </trkpt>
      <trkpt lat="47.44558" lon="6.59714">
        <ele>304</ele>
        <time>2015-07-08T08:13:09.000Z</time>
      </trkpt>
      <trkpt lat="47.44552" lon="6.59714">
        <ele>304</ele>
        <time>2015-07-08T08:13:10.000Z</time>
      </trkpt>
      <trkpt lat="47.44545" lon="6.59713">
        <ele>304</ele>
        <time>2015-07-08T08:13:11.000Z</time>
      </trkpt>
      <trkpt lat="47.44538" lon="6.59713">
        <ele>304</ele>
        <time>2015-07-08T08:13:12.000Z</time>
      </trkpt>
      <trkpt lat="47.44531" lon="6.59714">
        <ele>304</ele>
        <time>2015-07-08T08:13:13.000Z</time>
      </trkpt>
      <trkpt lat="47.44525" lon="6.59715">
        <ele>304</ele>
        <time>2015-07-08T08:13:14.000Z</time>
      </trkpt>
      <trkpt lat="47.44518" lon="6.59715">
        <ele>303</ele>
        <time>2015-07-08T08:13:15.000Z</time>
      </trkpt>
      <trkpt lat="47.44511" lon="6.59715">
        <ele>303</ele>
        <time>2015-07-08T08:13:16.000Z</time>
      </trkpt>
      <trkpt lat="47.44504" lon="6.59715">
        <ele>303</ele>
        <time>2015-07-08T08:13:17.000Z</time>
      </trkpt>
      <trkpt lat="47.44497" lon="6.59716">
        <ele>303</ele>
        <time>2015-07-08T08:13:18.000Z</time>
      </trkpt>
      <trkpt lat="47.4449" lon="6.59716">
        <ele>302</ele>
        <time>2015-07-08T08:13:19.000Z</time>
      </trkpt>
      <trkpt lat="47.44483" lon="6.59716">
        <ele>302</ele>
        <time>2015-07-08T08:13:20.000Z</time>
      </trkpt>
      <trkpt lat="47.44476" lon="6.59716">
        <ele>302</ele>
        <time>2015-07-08T08:13:21.000Z</time>
      </trkpt>
      <trkpt lat="47.4447" lon="6.59715">
        <ele>302</ele>
        <time>2015-07-08T08:13:22.000Z</time>
      </trkpt>
      <trkpt lat="47.44463" lon="6.59716">
        <ele>301</ele>
        <time>2015-07-08T08:13:23.000Z</time>
      </trkpt>
      <trkpt lat="47.44456" lon="6.59716">
        <ele>301</ele>
        <time>2015-07-08T08:13:24.000Z</time>
      </trkpt>
      <trkpt lat="47.4445" lon="6.59716">
        <ele>301</ele>
        <time>2015-07-08T08:13:25.000Z</time>
      </trkpt>
      <trkpt lat="47.44443" lon="6.59716">
        <ele>301</ele>
        <time>2015-07-08T08:13:26.000Z</time>
      </trkpt>
      <trkpt lat="47.44437" lon="6.59716">
        <ele>301</ele>
        <time>2015-07-08T08:13:27.000Z</time>
      </trkpt>
      <trkpt lat="47.4443" lon="6.59716">
        <ele>300</ele>
        <time>2015-07-08T08:13:28.000Z</time>
      </trkpt>
      <trkpt lat="47.44423" lon="6.59717">
        <ele>300</ele>
        <time>2015-07-08T08:13:29.000Z</time>
      </trkpt>
      <trkpt lat="47.44417" lon="6.59717">
        <ele>300</ele>
        <time>2015-07-08T08:13:30.000Z</time>
      </trkpt>
      <trkpt lat="47.44411" lon="6.59718">
        <ele>300</ele>
        <time>2015-07-08T08:13:31.000Z</time>
      </trkpt>
      <trkpt lat="47.44405" lon="6.59718">
        <ele>299</ele>
        <time>2015-07-08T08:13:32.000Z</time>
      </trkpt>
      <trkpt lat="47.44398" lon="6.59719">
        <ele>299</ele>
        <time>2015-07-08T08:13:33.000Z</time>
      </trkpt>
      <trkpt lat="47.44392" lon="6.5972">
        <ele>299</ele>
        <time>2015-07-08T08:13:34.000Z</time>
      </trkpt>
      <trkpt lat="47.44386" lon="6.59721">
        <ele>299</ele>
        <time>2015-07-08T08:13:35.000Z</time>
      </trkpt>
      <trkpt lat="47.44379" lon="6.59722">
        <ele>298</ele>
        <time>2015-07-08T08:13:36.000Z</time>
      </trkpt>
      <trkpt lat="47.44372" lon="6.59723">
        <ele>298</ele>
        <time>2015-07-08T08:13:37.000Z</time>
      </trkpt>
      <trkpt lat="47.44366" lon="6.59724">
        <ele>298</ele>
        <time>2015-07-08T08:13:38.000Z</time>
      </trkpt>
      <trkpt lat="47.44359" lon="6.59725">
        <ele>298</ele>
        <time>2015-07-08T08:13:39.000Z</time>
      </trkpt>
      <trkpt lat="47.44352" lon="6.59726">
        <ele>297</ele>
        <time>2015-07-08T08:13:40.000Z</time>
      </trkpt>
      <trkpt lat="47.44345" lon="6.59727">
        <ele>297</ele>
        <time>2015-07-08T08:13:41.000Z</time>
      </trkpt>
      <trkpt lat="47.44338" lon="6.59728">
        <ele>297</ele>
        <time>2015-07-08T08:13:42.000Z</time>
      </trkpt>
      <trkpt lat="47.44331" lon="6.59729">
        <ele>297</ele>
        <time>2015-07-08T08:13:43.000Z</time>
      </trkpt>
      <trkpt lat="47.44324" lon="6.59731">
        <ele>297</ele>
        <time>2015-07-08T08:13:44.000Z</time>
      </trkpt>
      <trkpt lat="47.44317" lon="6.59732">
        <ele>297</ele>
        <time>2015-07-08T08:13:45.000Z</time>
      </trkpt>
      <trkpt lat="47.4431" lon="6.59733">
        <ele>297</ele>
        <time>2015-07-08T08:13:46.000Z</time>
      </trkpt>
      <trkpt lat="47.44303" lon="6.59733">
        <ele>297</ele>
        <time>2015-07-08T08:13:47.000Z</time>
      </trkpt>
      <trkpt lat="47.44295" lon="6.59734">
        <ele>297</ele>
        <time>2015-07-08T08:13:48.000Z</time>
      </trkpt>
      <trkpt lat="47.44287" lon="6.59736">
        <ele>297</ele>
        <time>2015-07-08T08:13:49.000Z</time>
      </trkpt>
      <trkpt lat="47.4428" lon="6.59737">
        <ele>297</ele>
        <time>2015-07-08T08:13:50.000Z</time>
      </trkpt>
      <trkpt lat="47.44273" lon="6.59738">
        <ele>297</ele>
        <time>2015-07-08T08:13:51.000Z</time>
      </trkpt>
      <trkpt lat="47.44267" lon="6.59739">
        <ele>297</ele>
        <time>2015-07-08T08:13:52.000Z</time>
      </trkpt>
      <trkpt lat="47.4426" lon="6.5974">
        <ele>297</ele>
        <time>2015-07-08T08:13:53.000Z</time>
      </trkpt>
      <trkpt lat="47.44253" lon="6.59741">
        <ele>297</ele>
        <time>2015-07-08T08:13:54.000Z</time>
      </trkpt>
      <trkpt lat="47.44246" lon="6.59742">
        <ele>297</ele>
        <time>2015-07-08T08:13:55.000Z</time>
      </trkpt>
      <trkpt lat="47.44239" lon="6.59744">
        <ele>297</ele>
        <time>2015-07-08T08:13:56.000Z</time>
      </trkpt>
      <trkpt lat="47.44231" lon="6.59745">
        <ele>297</ele>
        <time>2015-07-08T08:13:57.000Z</time>
      </trkpt>
      <trkpt lat="47.44224" lon="6.59747">
        <ele>297</ele>
        <time>2015-07-08T08:13:58.000Z</time>
      </trkpt>
      <trkpt lat="47.44217" lon="6.59748">
        <ele>297</ele>
        <time>2015-07-08T08:13:59.000Z</time>
      </trkpt>
      <trkpt lat="47.44209" lon="6.59749">
        <ele>297</ele>
        <time>2015-07-08T08:14:00.000Z</time>
      </trkpt>
      <trkpt lat="47.44202" lon="6.5975">
        <ele>297</ele>
        <time>2015-07-08T08:14:01.000Z</time>
      </trkpt>
      <trkpt lat="47.44195" lon="6.59751">
        <ele>297</ele>
        <time>2015-07-08T08:14:02.000Z</time>
      </trkpt>
      <trkpt lat="47.44188" lon="6.59753">
        <ele>297</ele>
        <time>2015-07-08T08:14:03.000Z</time>
      </trkpt>
      <trkpt lat="47.44181" lon="6.59754">
        <ele>298</ele>
        <time>2015-07-08T08:14:04.000Z</time>
      </trkpt>
      <trkpt lat="47.44174" lon="6.59755">
        <ele>298</ele>
        <time>2015-07-08T08:14:05.000Z</time>
      </trkpt>
      <trkpt lat="47.44167" lon="6.59756">
        <ele>298</ele>
        <time>2015-07-08T08:14:06.000Z</time>
      </trkpt>
      <trkpt lat="47.4416" lon="6.59758">
        <ele>298</ele>
        <time>2015-07-08T08:14:07.000Z</time>
      </trkpt>
      <trkpt lat="47.44153" lon="6.5976">
        <ele>298</ele>
        <time>2015-07-08T08:14:08.000Z</time>
      </trkpt>
      <trkpt lat="47.44146" lon="6.59762">
        <ele>299</ele>
        <time>2015-07-08T08:14:09.000Z</time>
      </trkpt>
      <trkpt lat="47.44139" lon="6.59763">
        <ele>299</ele>
        <time>2015-07-08T08:14:10.000Z</time>
      </trkpt>
      <trkpt lat="47.44132" lon="6.59764">
        <ele>299</ele>
        <time>2015-07-08T08:14:11.000Z</time>
      </trkpt>
      <trkpt lat="47.44125" lon="6.59765">
        <ele>299</ele>
        <time>2015-07-08T08:14:12.000Z</time>
      </trkpt>
      <trkpt lat="47.44118" lon="6.59767">
        <ele>299</ele>
        <time>2015-07-08T08:14:13.000Z</time>
      </trkpt>
      <trkpt lat="47.44111" lon="6.59769">
        <ele>299</ele>
        <time>2015-07-08T08:14:14.000Z</time>
      </trkpt>
      <trkpt lat="47.44104" lon="6.5977">
        <ele>299</ele>
        <time>2015-07-08T08:14:15.000Z</time>
      </trkpt>
      <trkpt lat="47.44097" lon="6.59771">
        <ele>300</ele>
        <time>2015-07-08T08:14:16.000Z</time>
      </trkpt>
      <trkpt lat="47.4409" lon="6.59773">
        <ele>300</ele>
        <time>2015-07-08T08:14:17.000Z</time>
      </trkpt>
      <trkpt lat="47.44083" lon="6.59774">
        <ele>300</ele>
        <time>2015-07-08T08:14:18.000Z</time>
      </trkpt>
      <trkpt lat="47.44076" lon="6.59775">
        <ele>300</ele>
        <time>2015-07-08T08:14:19.000Z</time>
      </trkpt>
      <trkpt lat="47.44069" lon="6.59777">
        <ele>300</ele>
        <time>2015-07-08T08:14:20.000Z</time>
      </trkpt>
      <trkpt lat="47.44062" lon="6.59778">
        <ele>300</ele>
        <time>2015-07-08T08:14:21.000Z</time>
      </trkpt>
      <trkpt lat="47.44055" lon="6.59779">
        <ele>300</ele>
        <time>2015-07-08T08:14:22.000Z</time>
      </trkpt>
      <trkpt lat="47.44048" lon="6.5978">
        <ele>300</ele>
        <time>2015-07-08T08:14:23.000Z</time>
      </trkpt>
      <trkpt lat="47.44041" lon="6.59782">
        <ele>300</ele>
        <time>2015-07-08T08:14:24.000Z</time>
      </trkpt>
      <trkpt lat="47.44034" lon="6.59783">
        <ele>300</ele>
        <time>2015-07-08T08:14:25.000Z</time>
      </trkpt>
      <trkpt lat="47.44028" lon="6.59784">
        <ele>301</ele>
        <time>2015-07-08T08:14:26.000Z</time>
      </trkpt>
      <trkpt lat="47.44021" lon="6.59785">
        <ele>300</ele>
        <time>2015-07-08T08:14:27.000Z</time>
      </trkpt>
      <trkpt lat="47.44014" lon="6.59786">
        <ele>300</ele>
        <time>2015-07-08T08:14:28.000Z</time>
      </trkpt>
      <trkpt lat="47.44008" lon="6.59787">
        <ele>300</ele>
        <time>2015-07-08T08:14:29.000Z</time>
      </trkpt>
      <trkpt lat="47.44001" lon="6.59788">
        <ele>301</ele>
        <time>2015-07-08T08:14:30.000Z</time>
      </trkpt>
      <trkpt lat="47.43995" lon="6.59789">
        <ele>301</ele>
        <time>2015-07-08T08:14:31.000Z</time>
      </trkpt>
      <trkpt lat="47.43988" lon="6.59791">
        <ele>301</ele>
        <time>2015-07-08T08:14:32.000Z</time>
      </trkpt>
      <trkpt lat="47.43982" lon="6.59792">
        <ele>301</ele>
        <time>2015-07-08T08:14:33.000Z</time>
      </trkpt>
      <trkpt lat="47.43975" lon="6.59793">
        <ele>301</ele>
        <time>2015-07-08T08:14:34.000Z</time>
      </trkpt>
      <trkpt lat="47.43968" lon="6.59794">
        <ele>301</ele>
        <time>2015-07-08T08:14:35.000Z</time>
      </trkpt>
      <trkpt lat="47.43962" lon="6.59796">
        <ele>301</ele>
        <time>2015-07-08T08:14:36.000Z</time>
      </trkpt>
      <trkpt lat="47.43955" lon="6.59797">
        <ele>301</ele>
        <time>2015-07-08T08:14:37.000Z</time>
      </trkpt>
      <trkpt lat="47.43948" lon="6.59798">
        <ele>301</ele>
        <time>2015-07-08T08:14:38.000Z</time>
      </trkpt>
      <trkpt lat="47.43942" lon="6.598">
        <ele>301</ele>
        <time>2015-07-08T08:14:39.000Z</time>
      </trkpt>
      <trkpt lat="47.43935" lon="6.59801">
        <ele>301</ele>
        <time>2015-07-08T08:14:40.000Z</time>
      </trkpt>
      <trkpt lat="47.43928" lon="6.59803">
        <ele>301</ele>
        <time>2015-07-08T08:14:41.000Z</time>
      </trkpt>
      <trkpt lat="47.43922" lon="6.59805">
        <ele>302</ele>
        <time>2015-07-08T08:14:42.000Z</time>
      </trkpt>
      <trkpt lat="47.43915" lon="6.59806">
        <ele>302</ele>
        <time>2015-07-08T08:14:43.000Z</time>
      </trkpt>
      <trkpt lat="47.43908" lon="6.59807">
        <ele>302</ele>
        <time>2015-07-08T08:14:44.000Z</time>
      </trkpt>
      <trkpt lat="47.43901" lon="6.59808">
        <ele>302</ele>
        <time>2015-07-08T08:14:45.000Z</time>
      </trkpt>
      <trkpt lat="47.43894" lon="6.59809">
        <ele>303</ele>
        <time>2015-07-08T08:14:46.000Z</time>
      </trkpt>
      <trkpt lat="47.43887" lon="6.59811">
        <ele>303</ele>
        <time>2015-07-08T08:14:47.000Z</time>
      </trkpt>
      <trkpt lat="47.4388" lon="6.59812">
        <ele>304</ele>
        <time>2015-07-08T08:14:48.000Z</time>
      </trkpt>
      <trkpt lat="47.43873" lon="6.59813">
        <ele>304</ele>
        <time>2015-07-08T08:14:49.000Z</time>
      </trkpt>
      <trkpt lat="47.43866" lon="6.59815">
        <ele>305</ele>
        <time>2015-07-08T08:14:50.000Z</time>
      </trkpt>
      <trkpt lat="47.43859" lon="6.59816">
        <ele>305</ele>
        <time>2015-07-08T08:14:51.000Z</time>
      </trkpt>
      <trkpt lat="47.43852" lon="6.59817">
        <ele>306</ele>
        <time>2015-07-08T08:14:52.000Z</time>
      </trkpt>
      <trkpt lat="47.43845" lon="6.59819">
        <ele>306</ele>
        <time>2015-07-08T08:14:53.000Z</time>
      </trkpt>
      <trkpt lat="47.43838" lon="6.5982">
        <ele>306</ele>
        <time>2015-07-08T08:14:54.000Z</time>
      </trkpt>
      <trkpt lat="47.43831" lon="6.59822">
        <ele>307</ele>
        <time>2015-07-08T08:14:55.000Z</time>
      </trkpt>
      <trkpt lat="47.43824" lon="6.59824">
        <ele>307</ele>
        <time>2015-07-08T08:14:56.000Z</time>
      </trkpt>
      <trkpt lat="47.43817" lon="6.59825">
        <ele>308</ele>
        <time>2015-07-08T08:14:57.000Z</time>
      </trkpt>
      <trkpt lat="47.43811" lon="6.59827">
        <ele>308</ele>
        <time>2015-07-08T08:14:58.000Z</time>
      </trkpt>
      <trkpt lat="47.43804" lon="6.59829">
        <ele>308</ele>
        <time>2015-07-08T08:14:59.000Z</time>
      </trkpt>
      <trkpt lat="47.43797" lon="6.59831">
        <ele>309</ele>
        <time>2015-07-08T08:15:00.000Z</time>
      </trkpt>
      <trkpt lat="47.4379" lon="6.59833">
        <ele>309</ele>
        <time>2015-07-08T08:15:01.000Z</time>
      </trkpt>
      <trkpt lat="47.43783" lon="6.59834">
        <ele>309</ele>
        <time>2015-07-08T08:15:02.000Z</time>
      </trkpt>
      <trkpt lat="47.43776" lon="6.59836">
        <ele>310</ele>
        <time>2015-07-08T08:15:03.000Z</time>
      </trkpt>
      <trkpt lat="47.43769" lon="6.59839">
        <ele>310</ele>
        <time>2015-07-08T08:15:04.000Z</time>
      </trkpt>
      <trkpt lat="47.43762" lon="6.59841">
        <ele>310</ele>
        <time>2015-07-08T08:15:05.000Z</time>
      </trkpt>
      <trkpt lat="47.43755" lon="6.59843">
        <ele>310</ele>
        <time>2015-07-08T08:15:06.000Z</time>
      </trkpt>
      <trkpt lat="47.43749" lon="6.59845">
        <ele>310</ele>
        <time>2015-07-08T08:15:07.000Z</time>
      </trkpt>
      <trkpt lat="47.43742" lon="6.59847">
        <ele>310</ele>
        <time>2015-07-08T08:15:08.000Z</time>
      </trkpt>
      <trkpt lat="47.43735" lon="6.5985">
        <ele>310</ele>
        <time>2015-07-08T08:15:09.000Z</time>
      </trkpt>
      <trkpt lat="47.43728" lon="6.59853">
        <ele>310</ele>
        <time>2015-07-08T08:15:10.000Z</time>
      </trkpt>
      <trkpt lat="47.43721" lon="6.59855">
        <ele>310</ele>
        <time>2015-07-08T08:15:11.000Z</time>
      </trkpt>
      <trkpt lat="47.43714" lon="6.59858">
        <ele>310</ele>
        <time>2015-07-08T08:15:12.000Z</time>
      </trkpt>
      <trkpt lat="47.43707" lon="6.5986">
        <ele>311</ele>
        <time>2015-07-08T08:15:13.000Z</time>
      </trkpt>
      <trkpt lat="47.437" lon="6.59863">
        <ele>311</ele>
        <time>2015-07-08T08:15:14.000Z</time>
      </trkpt>
      <trkpt lat="47.43693" lon="6.59865">
        <ele>311</ele>
        <time>2015-07-08T08:15:15.000Z</time>
      </trkpt>
      <trkpt lat="47.43687" lon="6.59869">
        <ele>311</ele>
        <time>2015-07-08T08:15:16.000Z</time>
      </trkpt>
      <trkpt lat="47.4368" lon="6.59872">
        <ele>311</ele>
        <time>2015-07-08T08:15:17.000Z</time>
      </trkpt>
      <trkpt lat="47.43673" lon="6.59875">
        <ele>311</ele>
        <time>2015-07-08T08:15:18.000Z</time>
      </trkpt>
      <trkpt lat="47.43666" lon="6.59878">
        <ele>310</ele>
        <time>2015-07-08T08:15:19.000Z</time>
      </trkpt>
      <trkpt lat="47.43659" lon="6.59881">
        <ele>310</ele>
        <time>2015-07-08T08:15:20.000Z</time>
      </trkpt>
      <trkpt lat="47.43652" lon="6.59884">
        <ele>310</ele>
        <time>2015-07-08T08:15:21.000Z</time>
      </trkpt>
      <trkpt lat="47.43646" lon="6.59887">
        <ele>310</ele>
        <time>2015-07-08T08:15:22.000Z</time>
      </trkpt>
      <trkpt lat="47.43639" lon="6.5989">
        <ele>310</ele>
        <time>2015-07-08T08:15:23.000Z</time>
      </trkpt>
      <trkpt lat="47.43633" lon="6.59894">
        <ele>310</ele>
        <time>2015-07-08T08:15:24.000Z</time>
      </trkpt>
      <trkpt lat="47.43626" lon="6.59897">
        <ele>310</ele>
        <time>2015-07-08T08:15:25.000Z</time>
      </trkpt>
      <trkpt lat="47.43619" lon="6.599">
        <ele>310</ele>
        <time>2015-07-08T08:15:26.000Z</time>
      </trkpt>
      <trkpt lat="47.43612" lon="6.59903">
        <ele>310</ele>
        <time>2015-07-08T08:15:27.000Z</time>
      </trkpt>
      <trkpt lat="47.43606" lon="6.59907">
        <ele>310</ele>
        <time>2015-07-08T08:15:28.000Z</time>
      </trkpt>
      <trkpt lat="47.43599" lon="6.59911">
        <ele>310</ele>
        <time>2015-07-08T08:15:29.000Z</time>
      </trkpt>
      <trkpt lat="47.43592" lon="6.59915">
        <ele>310</ele>
        <time>2015-07-08T08:15:30.000Z</time>
      </trkpt>
      <trkpt lat="47.43586" lon="6.59919">
        <ele>310</ele>
        <time>2015-07-08T08:15:31.000Z</time>
      </trkpt>
      <trkpt lat="47.43579" lon="6.59922">
        <ele>310</ele>
        <time>2015-07-08T08:15:32.000Z</time>
      </trkpt>
      <trkpt lat="47.43572" lon="6.59926">
        <ele>310</ele>
        <time>2015-07-08T08:15:33.000Z</time>
      </trkpt>
      <trkpt lat="47.43565" lon="6.5993">
        <ele>310</ele>
        <time>2015-07-08T08:15:34.000Z</time>
      </trkpt>
      <trkpt lat="47.43559" lon="6.59933">
        <ele>310</ele>
        <time>2015-07-08T08:15:35.000Z</time>
      </trkpt>
      <trkpt lat="47.43552" lon="6.59935">
        <ele>310</ele>
        <time>2015-07-08T08:15:36.000Z</time>
      </trkpt>
      <trkpt lat="47.43545" lon="6.59938">
        <ele>310</ele>
        <time>2015-07-08T08:15:37.000Z</time>
      </trkpt>
      <trkpt lat="47.43538" lon="6.59942">
        <ele>310</ele>
        <time>2015-07-08T08:15:38.000Z</time>
      </trkpt>
      <trkpt lat="47.43532" lon="6.59946">
        <ele>310</ele>
        <time>2015-07-08T08:15:39.000Z</time>
      </trkpt>
      <trkpt lat="47.43525" lon="6.5995">
        <ele>310</ele>
        <time>2015-07-08T08:15:40.000Z</time>
      </trkpt>
      <trkpt lat="47.43518" lon="6.59953">
        <ele>309</ele>
        <time>2015-07-08T08:15:41.000Z</time>
      </trkpt>
      <trkpt lat="47.43512" lon="6.59957">
        <ele>309</ele>
        <time>2015-07-08T08:15:42.000Z</time>
      </trkpt>
      <trkpt lat="47.43505" lon="6.5996">
        <ele>309</ele>
        <time>2015-07-08T08:15:43.000Z</time>
      </trkpt>
      <trkpt lat="47.43498" lon="6.59963">
        <ele>309</ele>
        <time>2015-07-08T08:15:44.000Z</time>
      </trkpt>
      <trkpt lat="47.43492" lon="6.59967">
        <ele>308</ele>
        <time>2015-07-08T08:15:45.000Z</time>
      </trkpt>
      <trkpt lat="47.43485" lon="6.5997">
        <ele>308</ele>
        <time>2015-07-08T08:15:46.000Z</time>
      </trkpt>
      <trkpt lat="47.43479" lon="6.59973">
        <ele>307</ele>
        <time>2015-07-08T08:15:47.000Z</time>
      </trkpt>
      <trkpt lat="47.43472" lon="6.59976">
        <ele>307</ele>
        <time>2015-07-08T08:15:48.000Z</time>
      </trkpt>
      <trkpt lat="47.43466" lon="6.59979">
        <ele>306</ele>
        <time>2015-07-08T08:15:49.000Z</time>
      </trkpt>
      <trkpt lat="47.43459" lon="6.59982">
        <ele>306</ele>
        <time>2015-07-08T08:15:50.000Z</time>
      </trkpt>
      <trkpt lat="47.43453" lon="6.59986">
        <ele>305</ele>
        <time>2015-07-08T08:15:51.000Z</time>
      </trkpt>
      <trkpt lat="47.43446" lon="6.59989">
        <ele>305</ele>
        <time>2015-07-08T08:15:52.000Z</time>
      </trkpt>
      <trkpt lat="47.43439" lon="6.59993">
        <ele>304</ele>
        <time>2015-07-08T08:15:53.000Z</time>
      </trkpt>
      <trkpt lat="47.43433" lon="6.59996">
        <ele>304</ele>
        <time>2015-07-08T08:15:54.000Z</time>
      </trkpt>
      <trkpt lat="47.43426" lon="6.59999">
        <ele>303</ele>
        <time>2015-07-08T08:15:55.000Z</time>
      </trkpt>
      <trkpt lat="47.43419" lon="6.60002">
        <ele>303</ele>
        <time>2015-07-08T08:15:56.000Z</time>
      </trkpt>
      <trkpt lat="47.43413" lon="6.60006">
        <ele>303</ele>
        <time>2015-07-08T08:15:57.000Z</time>
      </trkpt>
      <trkpt lat="47.43406" lon="6.6001">
        <ele>302</ele>
        <time>2015-07-08T08:15:58.000Z</time>
      </trkpt>
      <trkpt lat="47.434" lon="6.60014">
        <ele>302</ele>
        <time>2015-07-08T08:15:59.000Z</time>
      </trkpt>
      <trkpt lat="47.43394" lon="6.60019">
        <ele>302</ele>
        <time>2015-07-08T08:16:00.000Z</time>
      </trkpt>
      <trkpt lat="47.43388" lon="6.60025">
        <ele>301</ele>
        <time>2015-07-08T08:16:01.000Z</time>
      </trkpt>
      <trkpt lat="47.43382" lon="6.60031">
        <ele>301</ele>
        <time>2015-07-08T08:16:02.000Z</time>
      </trkpt>
      <trkpt lat="47.43376" lon="6.60037">
        <ele>300</ele>
        <time>2015-07-08T08:16:03.000Z</time>
      </trkpt>
      <trkpt lat="47.4337" lon="6.60043">
        <ele>300</ele>
        <time>2015-07-08T08:16:04.000Z</time>
      </trkpt>
      <trkpt lat="47.43364" lon="6.60049">
        <ele>299</ele>
        <time>2015-07-08T08:16:05.000Z</time>
      </trkpt>
      <trkpt lat="47.43358" lon="6.60056">
        <ele>299</ele>
        <time>2015-07-08T08:16:06.000Z</time>
      </trkpt>
      <trkpt lat="47.43352" lon="6.60063">
        <ele>299</ele>
        <time>2015-07-08T08:16:07.000Z</time>
      </trkpt>
      <trkpt lat="47.43346" lon="6.6007">
        <ele>299</ele>
        <time>2015-07-08T08:16:08.000Z</time>
      </trkpt>
      <trkpt lat="47.43341" lon="6.60078">
        <ele>298</ele>
        <time>2015-07-08T08:16:09.000Z</time>
      </trkpt>
      <trkpt lat="47.43336" lon="6.60086">
        <ele>298</ele>
        <time>2015-07-08T08:16:10.000Z</time>
      </trkpt>
      <trkpt lat="47.43331" lon="6.60095">
        <ele>298</ele>
        <time>2015-07-08T08:16:11.000Z</time>
      </trkpt>
      <trkpt lat="47.43326" lon="6.60104">
        <ele>298</ele>
        <time>2015-07-08T08:16:12.000Z</time>
      </trkpt>
      <trkpt lat="47.43321" lon="6.60112">
        <ele>298</ele>
        <time>2015-07-08T08:16:13.000Z</time>
      </trkpt>
      <trkpt lat="47.43316" lon="6.60121">
        <ele>297</ele>
        <time>2015-07-08T08:16:14.000Z</time>
      </trkpt>
      <trkpt lat="47.43312" lon="6.6013">
        <ele>297</ele>
        <time>2015-07-08T08:16:15.000Z</time>
      </trkpt>
      <trkpt lat="47.43308" lon="6.60139">
        <ele>297</ele>
        <time>2015-07-08T08:16:16.000Z</time>
      </trkpt>
      <trkpt lat="47.43304" lon="6.60148">
        <ele>297</ele>
        <time>2015-07-08T08:16:17.000Z</time>
      </trkpt>
      <trkpt lat="47.433" lon="6.60157">
        <ele>297</ele>
        <time>2015-07-08T08:16:18.000Z</time>
      </trkpt>
      <trkpt lat="47.43296" lon="6.60166">
        <ele>297</ele>
        <time>2015-07-08T08:16:19.000Z</time>
      </trkpt>
      <trkpt lat="47.43292" lon="6.60174">
        <ele>297</ele>
        <time>2015-07-08T08:16:20.000Z</time>
      </trkpt>
      <trkpt lat="47.43288" lon="6.60183">
        <ele>297</ele>
        <time>2015-07-08T08:16:21.000Z</time>
      </trkpt>
      <trkpt lat="47.43283" lon="6.60191">
        <ele>297</ele>
        <time>2015-07-08T08:16:22.000Z</time>
      </trkpt>
      <trkpt lat="47.4328" lon="6.602">
        <ele>297</ele>
        <time>2015-07-08T08:16:23.000Z</time>
      </trkpt>
      <trkpt lat="47.43276" lon="6.60208">
        <ele>297</ele>
        <time>2015-07-08T08:16:24.000Z</time>
      </trkpt>
      <trkpt lat="47.43272" lon="6.60217">
        <ele>297</ele>
        <time>2015-07-08T08:16:25.000Z</time>
      </trkpt>
      <trkpt lat="47.43269" lon="6.60225">
        <ele>297</ele>
        <time>2015-07-08T08:16:26.000Z</time>
      </trkpt>
      <trkpt lat="47.43265" lon="6.60234">
        <ele>297</ele>
        <time>2015-07-08T08:16:27.000Z</time>
      </trkpt>
      <trkpt lat="47.43261" lon="6.60242">
        <ele>297</ele>
        <time>2015-07-08T08:16:28.000Z</time>
      </trkpt>
      <trkpt lat="47.43257" lon="6.60251">
        <ele>297</ele>
        <time>2015-07-08T08:16:29.000Z</time>
      </trkpt>
      <trkpt lat="47.43254" lon="6.60259">
        <ele>297</ele>
        <time>2015-07-08T08:16:30.000Z</time>
      </trkpt>
      <trkpt lat="47.4325" lon="6.60268">
        <ele>297</ele>
        <time>2015-07-08T08:16:31.000Z</time>
      </trkpt>
      <trkpt lat="47.43246" lon="6.60276">
        <ele>297</ele>
        <time>2015-07-08T08:16:32.000Z</time>
      </trkpt>
      <trkpt lat="47.43243" lon="6.60284">
        <ele>297</ele>
        <time>2015-07-08T08:16:33.000Z</time>
      </trkpt>
      <trkpt lat="47.43239" lon="6.60293">
        <ele>297</ele>
        <time>2015-07-08T08:16:34.000Z</time>
      </trkpt>
      <trkpt lat="47.43235" lon="6.60301">
        <ele>297</ele>
        <time>2015-07-08T08:16:35.000Z</time>
      </trkpt>
      <trkpt lat="47.43232" lon="6.6031">
        <ele>297</ele>
        <time>2015-07-08T08:16:36.000Z</time>
      </trkpt>
      <trkpt lat="47.43228" lon="6.60318">
        <ele>297</ele>
        <time>2015-07-08T08:16:37.000Z</time>
      </trkpt>
      <trkpt lat="47.43224" lon="6.60327">
        <ele>298</ele>
        <time>2015-07-08T08:16:38.000Z</time>
      </trkpt>
      <trkpt lat="47.4322" lon="6.60335">
        <ele>298</ele>
        <time>2015-07-08T08:16:39.000Z</time>
      </trkpt>
      <trkpt lat="47.43217" lon="6.60344">
        <ele>298</ele>
        <time>2015-07-08T08:16:40.000Z</time>
      </trkpt>
      <trkpt lat="47.43213" lon="6.60352">
        <ele>298</ele>
        <time>2015-07-08T08:16:41.000Z</time>
      </trkpt>
      <trkpt lat="47.43209" lon="6.6036">
        <ele>298</ele>
        <time>2015-07-08T08:16:42.000Z</time>
      </trkpt>
      <trkpt lat="47.43205" lon="6.60368">
        <ele>298</ele>
        <time>2015-07-08T08:16:43.000Z</time>
      </trkpt>
      <trkpt lat="47.43202" lon="6.60376">
        <ele>298</ele>
        <time>2015-07-08T08:16:44.000Z</time>
      </trkpt>
      <trkpt lat="47.43198" lon="6.60384">
        <ele>298</ele>
        <time>2015-07-08T08:16:45.000Z</time>
      </trkpt>
      <trkpt lat="47.43195" lon="6.60392">
        <ele>298</ele>
        <time>2015-07-08T08:16:46.000Z</time>
      </trkpt>
      <trkpt lat="47.43191" lon="6.60401">
        <ele>298</ele>
        <time>2015-07-08T08:16:47.000Z</time>
      </trkpt>
      <trkpt lat="47.43187" lon="6.60409">
        <ele>298</ele>
        <time>2015-07-08T08:16:48.000Z</time>
      </trkpt>
      <trkpt lat="47.43184" lon="6.60417">
        <ele>299</ele>
        <time>2015-07-08T08:16:49.000Z</time>
      </trkpt>
      <trkpt lat="47.4318" lon="6.60425">
        <ele>299</ele>
        <time>2015-07-08T08:16:50.000Z</time>
      </trkpt>
      <trkpt lat="47.43177" lon="6.60434">
        <ele>299</ele>
        <time>2015-07-08T08:16:51.000Z</time>
      </trkpt>
      <trkpt lat="47.43173" lon="6.60442">
        <ele>299</ele>
        <time>2015-07-08T08:16:52.000Z</time>
      </trkpt>
      <trkpt lat="47.4317" lon="6.6045">
        <ele>299</ele>
        <time>2015-07-08T08:16:53.000Z</time>
      </trkpt>
      <trkpt lat="47.43166" lon="6.60458">
        <ele>299</ele>
        <time>2015-07-08T08:16:54.000Z</time>
      </trkpt>
      <trkpt lat="47.43162" lon="6.60466">
        <ele>299</ele>
        <time>2015-07-08T08:16:55.000Z</time>
      </trkpt>
      <trkpt lat="47.43159" lon="6.60474">
        <ele>299</ele>
        <time>2015-07-08T08:16:56.000Z</time>
      </trkpt>
      <trkpt lat="47.43155" lon="6.60483">
        <ele>299</ele>
        <time>2015-07-08T08:16:57.000Z</time>
      </trkpt>
      <trkpt lat="47.43151" lon="6.60491">
        <ele>299</ele>
        <time>2015-07-08T08:16:58.000Z</time>
      </trkpt>
      <trkpt lat="47.43148" lon="6.60499">
        <ele>299</ele>
        <time>2015-07-08T08:16:59.000Z</time>
      </trkpt>
      <trkpt lat="47.43144" lon="6.60508">
        <ele>299</ele>
        <time>2015-07-08T08:17:00.000Z</time>
      </trkpt>
      <trkpt lat="47.43141" lon="6.60516">
        <ele>299</ele>
        <time>2015-07-08T08:17:01.000Z</time>
      </trkpt>
      <trkpt lat="47.43137" lon="6.60524">
        <ele>299</ele>
        <time>2015-07-08T08:17:02.000Z</time>
      </trkpt>
      <trkpt lat="47.43133" lon="6.60533">
        <ele>299</ele>
        <time>2015-07-08T08:17:03.000Z</time>
      </trkpt>
      <trkpt lat="47.43129" lon="6.60541">
        <ele>299</ele>
        <time>2015-07-08T08:17:04.000Z</time>
      </trkpt>
      <trkpt lat="47.43126" lon="6.60549">
        <ele>299</ele>
        <time>2015-07-08T08:17:05.000Z</time>
      </trkpt>
      <trkpt lat="47.43122" lon="6.60558">
        <ele>300</ele>
        <time>2015-07-08T08:17:06.000Z</time>
      </trkpt>
      <trkpt lat="47.43118" lon="6.60566">
        <ele>300</ele>
        <time>2015-07-08T08:17:07.000Z</time>
      </trkpt>
      <trkpt lat="47.43115" lon="6.60574">
        <ele>300</ele>
        <time>2015-07-08T08:17:08.000Z</time>
      </trkpt>
      <trkpt lat="47.43111" lon="6.60583">
        <ele>300</ele>
        <time>2015-07-08T08:17:09.000Z</time>
      </trkpt>
      <trkpt lat="47.43108" lon="6.60591">
        <ele>300</ele>
        <time>2015-07-08T08:17:10.000Z</time>
      </trkpt>
      <trkpt lat="47.43104" lon="6.60599">
        <ele>300</ele>
        <time>2015-07-08T08:17:11.000Z</time>
      </trkpt>
      <trkpt lat="47.431" lon="6.60607">
        <ele>300</ele>
        <time>2015-07-08T08:17:12.000Z</time>
      </trkpt>
      <trkpt lat="47.43097" lon="6.60615">
        <ele>300</ele>
        <time>2015-07-08T08:17:13.000Z</time>
      </trkpt>
      <trkpt lat="47.43093" lon="6.60623">
        <ele>300</ele>
        <time>2015-07-08T08:17:14.000Z</time>
      </trkpt>
      <trkpt lat="47.4309" lon="6.60632">
        <ele>300</ele>
        <time>2015-07-08T08:17:15.000Z</time>
      </trkpt>
      <trkpt lat="47.43086" lon="6.6064">
        <ele>300</ele>
        <time>2015-07-08T08:17:16.000Z</time>
      </trkpt>
      <trkpt lat="47.43082" lon="6.60648">
        <ele>300</ele>
        <time>2015-07-08T08:17:17.000Z</time>
      </trkpt>
      <trkpt lat="47.43078" lon="6.60657">
        <ele>300</ele>
        <time>2015-07-08T08:17:18.000Z</time>
      </trkpt>
      <trkpt lat="47.43075" lon="6.60665">
        <ele>300</ele>
        <time>2015-07-08T08:17:19.000Z</time>
      </trkpt>
      <trkpt lat="47.43071" lon="6.60673">
        <ele>300</ele>
        <time>2015-07-08T08:17:20.000Z</time>
      </trkpt>
      <trkpt lat="47.43068" lon="6.60681">
        <ele>300</ele>
        <time>2015-07-08T08:17:21.000Z</time>
      </trkpt>
      <trkpt lat="47.43064" lon="6.60689">
        <ele>300</ele>
        <time>2015-07-08T08:17:22.000Z</time>
      </trkpt>
      <trkpt lat="47.4306" lon="6.60697">
        <ele>300</ele>
        <time>2015-07-08T08:17:23.000Z</time>
      </trkpt>
      <trkpt lat="47.43057" lon="6.60705">
        <ele>300</ele>
        <time>2015-07-08T08:17:24.000Z</time>
      </trkpt>
      <trkpt lat="47.43053" lon="6.60713">
        <ele>300</ele>
        <time>2015-07-08T08:17:25.000Z</time>
      </trkpt>
      <trkpt lat="47.4305" lon="6.60721">
        <ele>300</ele>
        <time>2015-07-08T08:17:26.000Z</time>
      </trkpt>
      <trkpt lat="47.43046" lon="6.60729">
        <ele>300</ele>
        <time>2015-07-08T08:17:27.000Z</time>
      </trkpt>
      <trkpt lat="47.43043" lon="6.60737">
        <ele>300</ele>
        <time>2015-07-08T08:17:28.000Z</time>
      </trkpt>
      <trkpt lat="47.43039" lon="6.60744">
        <ele>300</ele>
        <time>2015-07-08T08:17:29.000Z</time>
      </trkpt>
      <trkpt lat="47.43036" lon="6.60752">
        <ele>300</ele>
        <time>2015-07-08T08:17:30.000Z</time>
      </trkpt>
      <trkpt lat="47.43032" lon="6.6076">
        <ele>300</ele>
        <time>2015-07-08T08:17:31.000Z</time>
      </trkpt>
      <trkpt lat="47.43029" lon="6.60768">
        <ele>300</ele>
        <time>2015-07-08T08:17:32.000Z</time>
      </trkpt>
      <trkpt lat="47.43025" lon="6.60776">
        <ele>300</ele>
        <time>2015-07-08T08:17:33.000Z</time>
      </trkpt>
      <trkpt lat="47.43021" lon="6.60784">
        <ele>300</ele>
        <time>2015-07-08T08:17:34.000Z</time>
      </trkpt>
      <trkpt lat="47.43018" lon="6.60792">
        <ele>300</ele>
        <time>2015-07-08T08:17:35.000Z</time>
      </trkpt>
      <trkpt lat="47.43014" lon="6.608">
        <ele>300</ele>
        <time>2015-07-08T08:17:36.000Z</time>
      </trkpt>
      <trkpt lat="47.43011" lon="6.60809">
        <ele>300</ele>
        <time>2015-07-08T08:17:37.000Z</time>
      </trkpt>
      <trkpt lat="47.43007" lon="6.60817">
        <ele>300</ele>
        <time>2015-07-08T08:17:38.000Z</time>
      </trkpt>
      <trkpt lat="47.43004" lon="6.60825">
        <ele>300</ele>
        <time>2015-07-08T08:17:39.000Z</time>
      </trkpt>
      <trkpt lat="47.43" lon="6.60833">
        <ele>300</ele>
        <time>2015-07-08T08:17:40.000Z</time>
      </trkpt>
      <trkpt lat="47.42997" lon="6.60841">
        <ele>300</ele>
        <time>2015-07-08T08:17:41.000Z</time>
      </trkpt>
      <trkpt lat="47.42993" lon="6.6085">
        <ele>300</ele>
        <time>2015-07-08T08:17:42.000Z</time>
      </trkpt>
      <trkpt lat="47.4299" lon="6.60858">
        <ele>300</ele>
        <time>2015-07-08T08:17:43.000Z</time>
      </trkpt>
      <trkpt lat="47.42986" lon="6.60866">
        <ele>300</ele>
        <time>2015-07-08T08:17:44.000Z</time>
      </trkpt>
      <trkpt lat="47.42983" lon="6.60874">
        <ele>300</ele>
        <time>2015-07-08T08:17:45.000Z</time>
      </trkpt>
      <trkpt lat="47.4298" lon="6.60883">
        <ele>300</ele>
        <time>2015-07-08T08:17:46.000Z</time>
      </trkpt>
      <trkpt lat="47.42976" lon="6.60891">
        <ele>300</ele>
        <time>2015-07-08T08:17:47.000Z</time>
      </trkpt>
      <trkpt lat="47.42972" lon="6.60899">
        <ele>300</ele>
        <time>2015-07-08T08:17:48.000Z</time>
      </trkpt>
      <trkpt lat="47.42969" lon="6.60907">
        <ele>300</ele>
        <time>2015-07-08T08:17:49.000Z</time>
      </trkpt>
      <trkpt lat="47.42965" lon="6.60915">
        <ele>300</ele>
        <time>2015-07-08T08:17:50.000Z</time>
      </trkpt>
      <trkpt lat="47.42961" lon="6.60923">
        <ele>300</ele>
        <time>2015-07-08T08:17:51.000Z</time>
      </trkpt>
      <trkpt lat="47.42958" lon="6.60931">
        <ele>300</ele>
        <time>2015-07-08T08:17:52.000Z</time>
      </trkpt>
      <trkpt lat="47.42954" lon="6.60939">
        <ele>300</ele>
        <time>2015-07-08T08:17:53.000Z</time>
      </trkpt>
      <trkpt lat="47.42951" lon="6.60947">
        <ele>301</ele>
        <time>2015-07-08T08:17:54.000Z</time>
      </trkpt>
      <trkpt lat="47.42947" lon="6.60955">
        <ele>301</ele>
        <time>2015-07-08T08:17:55.000Z</time>
      </trkpt>
      <trkpt lat="47.42944" lon="6.60963">
        <ele>301</ele>
        <time>2015-07-08T08:17:56.000Z</time>
      </trkpt>
      <trkpt lat="47.4294" lon="6.60972">
        <ele>301</ele>
        <time>2015-07-08T08:17:57.000Z</time>
      </trkpt>
      <trkpt lat="47.42936" lon="6.6098">
        <ele>301</ele>
        <time>2015-07-08T08:17:58.000Z</time>
      </trkpt>
      <trkpt lat="47.42933" lon="6.60989">
        <ele>301</ele>
        <time>2015-07-08T08:17:59.000Z</time>
      </trkpt>
      <trkpt lat="47.42929" lon="6.60997">
        <ele>301</ele>
        <time>2015-07-08T08:18:00.000Z</time>
      </trkpt>
      <trkpt lat="47.42926" lon="6.61006">
        <ele>301</ele>
        <time>2015-07-08T08:18:01.000Z</time>
      </trkpt>
      <trkpt lat="47.42922" lon="6.61014">
        <ele>301</ele>
        <time>2015-07-08T08:18:02.000Z</time>
      </trkpt>
      <trkpt lat="47.42918" lon="6.61023">
        <ele>301</ele>
        <time>2015-07-08T08:18:03.000Z</time>
      </trkpt>
      <trkpt lat="47.42915" lon="6.61031">
        <ele>301</ele>
        <time>2015-07-08T08:18:04.000Z</time>
      </trkpt>
      <trkpt lat="47.42911" lon="6.6104">
        <ele>301</ele>
        <time>2015-07-08T08:18:05.000Z</time>
      </trkpt>
      <trkpt lat="47.42908" lon="6.61048">
        <ele>301</ele>
        <time>2015-07-08T08:18:06.000Z</time>
      </trkpt>
      <trkpt lat="47.42904" lon="6.61057">
        <ele>301</ele>
        <time>2015-07-08T08:18:07.000Z</time>
      </trkpt>
      <trkpt lat="47.42901" lon="6.61065">
        <ele>301</ele>
        <time>2015-07-08T08:18:08.000Z</time>
      </trkpt>
      <trkpt lat="47.42897" lon="6.61074">
        <ele>301</ele>
        <time>2015-07-08T08:18:09.000Z</time>
      </trkpt>
      <trkpt lat="47.42893" lon="6.61083">
        <ele>301</ele>
        <time>2015-07-08T08:18:10.000Z</time>
      </trkpt>
      <trkpt lat="47.4289" lon="6.61092">
        <ele>301</ele>
        <time>2015-07-08T08:18:11.000Z</time>
      </trkpt>
      <trkpt lat="47.42886" lon="6.611">
        <ele>301</ele>
        <time>2015-07-08T08:18:12.000Z</time>
      </trkpt>
      <trkpt lat="47.42883" lon="6.61109">
        <ele>301</ele>
        <time>2015-07-08T08:18:13.000Z</time>
      </trkpt>
      <trkpt lat="47.42879" lon="6.61118">
        <ele>302</ele>
        <time>2015-07-08T08:18:14.000Z</time>
      </trkpt>
      <trkpt lat="47.42876" lon="6.61127">
        <ele>302</ele>
        <time>2015-07-08T08:18:15.000Z</time>
      </trkpt>
      <trkpt lat="47.42872" lon="6.61135">
        <ele>302</ele>
        <time>2015-07-08T08:18:16.000Z</time>
      </trkpt>
      <trkpt lat="47.42869" lon="6.61144">
        <ele>302</ele>
        <time>2015-07-08T08:18:17.000Z</time>
      </trkpt>
      <trkpt lat="47.42865" lon="6.61153">
        <ele>302</ele>
        <time>2015-07-08T08:18:18.000Z</time>
      </trkpt>
      <trkpt lat="47.42862" lon="6.61162">
        <ele>302</ele>
        <time>2015-07-08T08:18:19.000Z</time>
      </trkpt>
      <trkpt lat="47.42858" lon="6.61171">
        <ele>302</ele>
        <time>2015-07-08T08:18:20.000Z</time>
      </trkpt>
      <trkpt lat="47.42855" lon="6.6118">
        <ele>302</ele>
        <time>2015-07-08T08:18:21.000Z</time>
      </trkpt>
      <trkpt lat="47.42851" lon="6.61189">
        <ele>302</ele>
        <time>2015-07-08T08:18:22.000Z</time>
      </trkpt>
      <trkpt lat="47.42848" lon="6.61198">
        <ele>302</ele>
        <time>2015-07-08T08:18:23.000Z</time>
      </trkpt>
      <trkpt lat="47.42844" lon="6.61207">
        <ele>302</ele>
        <time>2015-07-08T08:18:24.000Z</time>
      </trkpt>
      <trkpt lat="47.42841" lon="6.61216">
        <ele>302</ele>
        <time>2015-07-08T08:18:25.000Z</time>
      </trkpt>
      <trkpt lat="47.42838" lon="6.61226">
        <ele>302</ele>
        <time>2015-07-08T08:18:26.000Z</time>
      </trkpt>
      <trkpt lat="47.42835" lon="6.61235">
        <ele>302</ele>
        <time>2015-07-08T08:18:27.000Z</time>
      </trkpt>
      <trkpt lat="47.42831" lon="6.61244">
        <ele>302</ele>
        <time>2015-07-08T08:18:28.000Z</time>
      </trkpt>
      <trkpt lat="47.42828" lon="6.61253">
        <ele>302</ele>
        <time>2015-07-08T08:18:29.000Z</time>
      </trkpt>
      <trkpt lat="47.42825" lon="6.61262">
        <ele>302</ele>
        <time>2015-07-08T08:18:30.000Z</time>
      </trkpt>
      <trkpt lat="47.42823" lon="6.61272">
        <ele>302</ele>
        <time>2015-07-08T08:18:31.000Z</time>
      </trkpt>
      <trkpt lat="47.42821" lon="6.6128">
        <ele>302</ele>
        <time>2015-07-08T08:18:32.000Z</time>
      </trkpt>
      <trkpt lat="47.4282" lon="6.61289">
        <ele>302</ele>
        <time>2015-07-08T08:18:33.000Z</time>
      </trkpt>
      <trkpt lat="47.42818" lon="6.61296">
        <ele>303</ele>
        <time>2015-07-08T08:18:34.000Z</time>
      </trkpt>
      <trkpt lat="47.42816" lon="6.61301">
        <ele>303</ele>
        <time>2015-07-08T08:18:35.000Z</time>
      </trkpt>
      <trkpt lat="47.42813" lon="6.61304">
        <ele>303</ele>
        <time>2015-07-08T08:18:36.000Z</time>
      </trkpt>
      <trkpt lat="47.4281" lon="6.61305">
        <ele>304</ele>
        <time>2015-07-08T08:18:37.000Z</time>
      </trkpt>
      <trkpt lat="47.42807" lon="6.61304">
        <ele>304</ele>
        <time>2015-07-08T08:18:38.000Z</time>
      </trkpt>
      <trkpt lat="47.42805" lon="6.61302">
        <ele>304</ele>
        <time>2015-07-08T08:18:39.000Z</time>
      </trkpt>
      <trkpt lat="47.42802" lon="6.613">
        <ele>304</ele>
        <time>2015-07-08T08:18:40.000Z</time>
      </trkpt>
      <trkpt lat="47.42799" lon="6.61298">
        <ele>304</ele>
        <time>2015-07-08T08:18:41.000Z</time>
      </trkpt>
      <trkpt lat="47.42796" lon="6.61296">
        <ele>304</ele>
        <time>2015-07-08T08:18:42.000Z</time>
      </trkpt>
      <trkpt lat="47.42792" lon="6.61297">
        <ele>304</ele>
        <time>2015-07-08T08:18:43.000Z</time>
      </trkpt>
      <trkpt lat="47.42789" lon="6.613">
        <ele>303</ele>
        <time>2015-07-08T08:18:44.000Z</time>
      </trkpt>
      <trkpt lat="47.42786" lon="6.61307">
        <ele>303</ele>
        <time>2015-07-08T08:18:45.000Z</time>
      </trkpt>
      <trkpt lat="47.42784" lon="6.61314">
        <ele>303</ele>
        <time>2015-07-08T08:18:46.000Z</time>
      </trkpt>
      <trkpt lat="47.42781" lon="6.61322">
        <ele>303</ele>
        <time>2015-07-08T08:18:47.000Z</time>
      </trkpt>
      <trkpt lat="47.42778" lon="6.6133">
        <ele>303</ele>
        <time>2015-07-08T08:18:48.000Z</time>
      </trkpt>
      <trkpt lat="47.42775" lon="6.61339">
        <ele>303</ele>
        <time>2015-07-08T08:18:49.000Z</time>
      </trkpt>
      <trkpt lat="47.42772" lon="6.61347">
        <ele>303</ele>
        <time>2015-07-08T08:18:50.000Z</time>
      </trkpt>
      <trkpt lat="47.42769" lon="6.61355">
        <ele>303</ele>
        <time>2015-07-08T08:18:51.000Z</time>
      </trkpt>
      <trkpt lat="47.42766" lon="6.61362">
        <ele>303</ele>
        <time>2015-07-08T08:18:52.000Z</time>
      </trkpt>
      <trkpt lat="47.42763" lon="6.6137">
        <ele>303</ele>
        <time>2015-07-08T08:18:53.000Z</time>
      </trkpt>
      <trkpt lat="47.4276" lon="6.61379">
        <ele>303</ele>
        <time>2015-07-08T08:18:54.000Z</time>
      </trkpt>
      <trkpt lat="47.42757" lon="6.61387">
        <ele>303</ele>
        <time>2015-07-08T08:18:55.000Z</time>
      </trkpt>
      <trkpt lat="47.42754" lon="6.61395">
        <ele>303</ele>
        <time>2015-07-08T08:18:56.000Z</time>
      </trkpt>
      <trkpt lat="47.42751" lon="6.61403">
        <ele>303</ele>
        <time>2015-07-08T08:18:57.000Z</time>
      </trkpt>
      <trkpt lat="47.42748" lon="6.61411">
        <ele>303</ele>
        <time>2015-07-08T08:18:58.000Z</time>
      </trkpt>
      <trkpt lat="47.42745" lon="6.61419">
        <ele>303</ele>
        <time>2015-07-08T08:18:59.000Z</time>
      </trkpt>
      <trkpt lat="47.42743" lon="6.61428">
        <ele>303</ele>
        <time>2015-07-08T08:19:00.000Z</time>
      </trkpt>
      <trkpt lat="47.4274" lon="6.61436">
        <ele>303</ele>
        <time>2015-07-08T08:19:01.000Z</time>
      </trkpt>
      <trkpt lat="47.42738" lon="6.61444">
        <ele>303</ele>
        <time>2015-07-08T08:19:02.000Z</time>
      </trkpt>
      <trkpt lat="47.42735" lon="6.61452">
        <ele>303</ele>
        <time>2015-07-08T08:19:03.000Z</time>
      </trkpt>
      <trkpt lat="47.42732" lon="6.61461">
        <ele>303</ele>
        <time>2015-07-08T08:19:04.000Z</time>
      </trkpt>
      <trkpt lat="47.4273" lon="6.61469">
        <ele>303</ele>
        <time>2015-07-08T08:19:05.000Z</time>
      </trkpt>
      <trkpt lat="47.42727" lon="6.61477">
        <ele>303</ele>
        <time>2015-07-08T08:19:06.000Z</time>
      </trkpt>
      <trkpt lat="47.42725" lon="6.61486">
        <ele>303</ele>
        <time>2015-07-08T08:19:07.000Z</time>
      </trkpt>
      <trkpt lat="47.42722" lon="6.61495">
        <ele>303</ele>
        <time>2015-07-08T08:19:08.000Z</time>
      </trkpt>
      <trkpt lat="47.4272" lon="6.61503">
        <ele>303</ele>
        <time>2015-07-08T08:19:09.000Z</time>
      </trkpt>
      <trkpt lat="47.42717" lon="6.61512">
        <ele>304</ele>
        <time>2015-07-08T08:19:10.000Z</time>
      </trkpt>
      <trkpt lat="47.42715" lon="6.6152">
        <ele>304</ele>
        <time>2015-07-08T08:19:11.000Z</time>
      </trkpt>
      <trkpt lat="47.42712" lon="6.61529">
        <ele>304</ele>
        <time>2015-07-08T08:19:12.000Z</time>
      </trkpt>
      <trkpt lat="47.4271" lon="6.61538">
        <ele>304</ele>
        <time>2015-07-08T08:19:13.000Z</time>
      </trkpt>
      <trkpt lat="47.42708" lon="6.61547">
        <ele>304</ele>
        <time>2015-07-08T08:19:14.000Z</time>
      </trkpt>
      <trkpt lat="47.42705" lon="6.61556">
        <ele>304</ele>
        <time>2015-07-08T08:19:15.000Z</time>
      </trkpt>
      <trkpt lat="47.42703" lon="6.61565">
        <ele>304</ele>
        <time>2015-07-08T08:19:16.000Z</time>
      </trkpt>
      <trkpt lat="47.42701" lon="6.61575">
        <ele>304</ele>
        <time>2015-07-08T08:19:17.000Z</time>
      </trkpt>
      <trkpt lat="47.42698" lon="6.61584">
        <ele>304</ele>
        <time>2015-07-08T08:19:18.000Z</time>
      </trkpt>
      <trkpt lat="47.42696" lon="6.61593">
        <ele>304</ele>
        <time>2015-07-08T08:19:19.000Z</time>
      </trkpt>
      <trkpt lat="47.42694" lon="6.61602">
        <ele>304</ele>
        <time>2015-07-08T08:19:20.000Z</time>
      </trkpt>
      <trkpt lat="47.42691" lon="6.61611">
        <ele>304</ele>
        <time>2015-07-08T08:19:21.000Z</time>
      </trkpt>
      <trkpt lat="47.42689" lon="6.6162">
        <ele>304</ele>
        <time>2015-07-08T08:19:22.000Z</time>
      </trkpt>
      <trkpt lat="47.42686" lon="6.6163">
        <ele>304</ele>
        <time>2015-07-08T08:19:23.000Z</time>
      </trkpt>
      <trkpt lat="47.42684" lon="6.61639">
        <ele>304</ele>
        <time>2015-07-08T08:19:24.000Z</time>
      </trkpt>
      <trkpt lat="47.42682" lon="6.61648">
        <ele>304</ele>
        <time>2015-07-08T08:19:25.000Z</time>
      </trkpt>
      <trkpt lat="47.4268" lon="6.61657">
        <ele>304</ele>
        <time>2015-07-08T08:19:26.000Z</time>
      </trkpt>
      <trkpt lat="47.42678" lon="6.61666">
        <ele>304</ele>
        <time>2015-07-08T08:19:27.000Z</time>
      </trkpt>
      <trkpt lat="47.42675" lon="6.61675">
        <ele>304</ele>
        <time>2015-07-08T08:19:28.000Z</time>
      </trkpt>
      <trkpt lat="47.42673" lon="6.61684">
        <ele>304</ele>
        <time>2015-07-08T08:19:29.000Z</time>
      </trkpt>
      <trkpt lat="47.42671" lon="6.61693">
        <ele>304</ele>
        <time>2015-07-08T08:19:30.000Z</time>
      </trkpt>
      <trkpt lat="47.42669" lon="6.61702">
        <ele>304</ele>
        <time>2015-07-08T08:19:31.000Z</time>
      </trkpt>
      <trkpt lat="47.42667" lon="6.61712">
        <ele>304</ele>
        <time>2015-07-08T08:19:32.000Z</time>
      </trkpt>
      <trkpt lat="47.42665" lon="6.61721">
        <ele>304</ele>
        <time>2015-07-08T08:19:33.000Z</time>
      </trkpt>
      <trkpt lat="47.42663" lon="6.61731">
        <ele>304</ele>
        <time>2015-07-08T08:19:34.000Z</time>
      </trkpt>
      <trkpt lat="47.42661" lon="6.6174">
        <ele>304</ele>
        <time>2015-07-08T08:19:35.000Z</time>
      </trkpt>
      <trkpt lat="47.42659" lon="6.61749">
        <ele>304</ele>
        <time>2015-07-08T08:19:36.000Z</time>
      </trkpt>
      <trkpt lat="47.42657" lon="6.61759">
        <ele>304</ele>
        <time>2015-07-08T08:19:37.000Z</time>
      </trkpt>
      <trkpt lat="47.42655" lon="6.61768">
        <ele>304</ele>
        <time>2015-07-08T08:19:38.000Z</time>
      </trkpt>
      <trkpt lat="47.42653" lon="6.61777">
        <ele>304</ele>
        <time>2015-07-08T08:19:39.000Z</time>
      </trkpt>
      <trkpt lat="47.42652" lon="6.61787">
        <ele>304</ele>
        <time>2015-07-08T08:19:40.000Z</time>
      </trkpt>
      <trkpt lat="47.4265" lon="6.61796">
        <ele>304</ele>
        <time>2015-07-08T08:19:41.000Z</time>
      </trkpt>
      <trkpt lat="47.42648" lon="6.61806">
        <ele>304</ele>
        <time>2015-07-08T08:19:42.000Z</time>
      </trkpt>
      <trkpt lat="47.42646" lon="6.61815">
        <ele>304</ele>
        <time>2015-07-08T08:19:43.000Z</time>
      </trkpt>
      <trkpt lat="47.42644" lon="6.61825">
        <ele>304</ele>
        <time>2015-07-08T08:19:44.000Z</time>
      </trkpt>
      <trkpt lat="47.42643" lon="6.61834">
        <ele>304</ele>
        <time>2015-07-08T08:19:45.000Z</time>
      </trkpt>
      <trkpt lat="47.42641" lon="6.61844">
        <ele>304</ele>
        <time>2015-07-08T08:19:46.000Z</time>
      </trkpt>
      <trkpt lat="47.4264" lon="6.61854">
        <ele>304</ele>
        <time>2015-07-08T08:19:47.000Z</time>
      </trkpt>
      <trkpt lat="47.42638" lon="6.61864">
        <ele>304</ele>
        <time>2015-07-08T08:19:48.000Z</time>
      </trkpt>
      <trkpt lat="47.42637" lon="6.61874">
        <ele>304</ele>
        <time>2015-07-08T08:19:49.000Z</time>
      </trkpt>
      <trkpt lat="47.42636" lon="6.61883">
        <ele>304</ele>
        <time>2015-07-08T08:19:50.000Z</time>
      </trkpt>
      <trkpt lat="47.42634" lon="6.61893">
        <ele>304</ele>
        <time>2015-07-08T08:19:51.000Z</time>
      </trkpt>
      <trkpt lat="47.42633" lon="6.61903">
        <ele>304</ele>
        <time>2015-07-08T08:19:52.000Z</time>
      </trkpt>
      <trkpt lat="47.42632" lon="6.61913">
        <ele>304</ele>
        <time>2015-07-08T08:19:53.000Z</time>
      </trkpt>
      <trkpt lat="47.42631" lon="6.61924">
        <ele>304</ele>
        <time>2015-07-08T08:19:54.000Z</time>
      </trkpt>
      <trkpt lat="47.42629" lon="6.61934">
        <ele>304</ele>
        <time>2015-07-08T08:19:55.000Z</time>
      </trkpt>
      <trkpt lat="47.42628" lon="6.61944">
        <ele>304</ele>
        <time>2015-07-08T08:19:56.000Z</time>
      </trkpt>
      <trkpt lat="47.42627" lon="6.61955">
        <ele>304</ele>
        <time>2015-07-08T08:19:57.000Z</time>
      </trkpt>
      <trkpt lat="47.42626" lon="6.61965">
        <ele>304</ele>
        <time>2015-07-08T08:19:58.000Z</time>
      </trkpt>
      <trkpt lat="47.42625" lon="6.61975">
        <ele>304</ele>
        <time>2015-07-08T08:19:59.000Z</time>
      </trkpt>
      <trkpt lat="47.42624" lon="6.61986">
        <ele>304</ele>
        <time>2015-07-08T08:20:00.000Z</time>
      </trkpt>
      <trkpt lat="47.42624" lon="6.61996">
        <ele>304</ele>
        <time>2015-07-08T08:20:01.000Z</time>
      </trkpt>
      <trkpt lat="47.42623" lon="6.62007">
        <ele>304</ele>
        <time>2015-07-08T08:20:02.000Z</time>
      </trkpt>
      <trkpt lat="47.42622" lon="6.62017">
        <ele>304</ele>
        <time>2015-07-08T08:20:03.000Z</time>
      </trkpt>
      <trkpt lat="47.42622" lon="6.62028">
        <ele>304</ele>
        <time>2015-07-08T08:20:04.000Z</time>
      </trkpt>
      <trkpt lat="47.42622" lon="6.62038">
        <ele>304</ele>
        <time>2015-07-08T08:20:05.000Z</time>
      </trkpt>
      <trkpt lat="47.42622" lon="6.62049">
        <ele>304</ele>
        <time>2015-07-08T08:20:06.000Z</time>
      </trkpt>
      <trkpt lat="47.42621" lon="6.6206">
        <ele>304</ele>
        <time>2015-07-08T08:20:07.000Z</time>
      </trkpt>
      <trkpt lat="47.42621" lon="6.6207">
        <ele>304</ele>
        <time>2015-07-08T08:20:08.000Z</time>
      </trkpt>
      <trkpt lat="47.42621" lon="6.62081">
        <ele>304</ele>
        <time>2015-07-08T08:20:09.000Z</time>
      </trkpt>
      <trkpt lat="47.42622" lon="6.62092">
        <ele>304</ele>
        <time>2015-07-08T08:20:10.000Z</time>
      </trkpt>
      <trkpt lat="47.42622" lon="6.62102">
        <ele>304</ele>
        <time>2015-07-08T08:20:11.000Z</time>
      </trkpt>
      <trkpt lat="47.42622" lon="6.62113">
        <ele>304</ele>
        <time>2015-07-08T08:20:12.000Z</time>
      </trkpt>
      <trkpt lat="47.42622" lon="6.62124">
        <ele>304</ele>
        <time>2015-07-08T08:20:13.000Z</time>
      </trkpt>
      <trkpt lat="47.42623" lon="6.62134">
        <ele>304</ele>
        <time>2015-07-08T08:20:14.000Z</time>
      </trkpt>
      <trkpt lat="47.42623" lon="6.62145">
        <ele>304</ele>
        <time>2015-07-08T08:20:15.000Z</time>
      </trkpt>
      <trkpt lat="47.42624" lon="6.62156">
        <ele>304</ele>
        <time>2015-07-08T08:20:16.000Z</time>
      </trkpt>
      <trkpt lat="47.42624" lon="6.62166">
        <ele>304</ele>
        <time>2015-07-08T08:20:17.000Z</time>
      </trkpt>
      <trkpt lat="47.42625" lon="6.62177">
        <ele>304</ele>
        <time>2015-07-08T08:20:18.000Z</time>
      </trkpt>
      <trkpt lat="47.42626" lon="6.62188">
        <ele>304</ele>
        <time>2015-07-08T08:20:19.000Z</time>
      </trkpt>
      <trkpt lat="47.42626" lon="6.62198">
        <ele>304</ele>
        <time>2015-07-08T08:20:20.000Z</time>
      </trkpt>
      <trkpt lat="47.42627" lon="6.62209">
        <ele>304</ele>
        <time>2015-07-08T08:20:21.000Z</time>
      </trkpt>
      <trkpt lat="47.42628" lon="6.6222">
        <ele>304</ele>
        <time>2015-07-08T08:20:22.000Z</time>
      </trkpt>
      <trkpt lat="47.42628" lon="6.62231">
        <ele>304</ele>
        <time>2015-07-08T08:20:23.000Z</time>
      </trkpt>
      <trkpt lat="47.42629" lon="6.62241">
        <ele>304</ele>
        <time>2015-07-08T08:20:24.000Z</time>
      </trkpt>
      <trkpt lat="47.4263" lon="6.62252">
        <ele>304</ele>
        <time>2015-07-08T08:20:25.000Z</time>
      </trkpt>
      <trkpt lat="47.42631" lon="6.62263">
        <ele>304</ele>
        <time>2015-07-08T08:20:26.000Z</time>
      </trkpt>
      <trkpt lat="47.42632" lon="6.62274">
        <ele>304</ele>
        <time>2015-07-08T08:20:27.000Z</time>
      </trkpt>
      <trkpt lat="47.42632" lon="6.62284">
        <ele>304</ele>
        <time>2015-07-08T08:20:28.000Z</time>
      </trkpt>
      <trkpt lat="47.42633" lon="6.62295">
        <ele>304</ele>
        <time>2015-07-08T08:20:29.000Z</time>
      </trkpt>
      <trkpt lat="47.42634" lon="6.62306">
        <ele>304</ele>
        <time>2015-07-08T08:20:30.000Z</time>
      </trkpt>
      <trkpt lat="47.42635" lon="6.62317">
        <ele>304</ele>
        <time>2015-07-08T08:20:31.000Z</time>
      </trkpt>
      <trkpt lat="47.42636" lon="6.62327">
        <ele>304</ele>
        <time>2015-07-08T08:20:32.000Z</time>
      </trkpt>
      <trkpt lat="47.42637" lon="6.62338">
        <ele>304</ele>
        <time>2015-07-08T08:20:33.000Z</time>
      </trkpt>
      <trkpt lat="47.42638" lon="6.62349">
        <ele>304</ele>
        <time>2015-07-08T08:20:34.000Z</time>
      </trkpt>
      <trkpt lat="47.4264" lon="6.6236">
        <ele>304</ele>
        <time>2015-07-08T08:20:35.000Z</time>
      </trkpt>
      <trkpt lat="47.42641" lon="6.62371">
        <ele>304</ele>
        <time>2015-07-08T08:20:36.000Z</time>
      </trkpt>
      <trkpt lat="47.42642" lon="6.62382">
        <ele>304</ele>
        <time>2015-07-08T08:20:37.000Z</time>
      </trkpt>
      <trkpt lat="47.42644" lon="6.62393">
        <ele>304</ele>
        <time>2015-07-08T08:20:38.000Z</time>
      </trkpt>
      <trkpt lat="47.42645" lon="6.62404">
        <ele>304</ele>
        <time>2015-07-08T08:20:39.000Z</time>
      </trkpt>
      <trkpt lat="47.42647" lon="6.62414">
        <ele>304</ele>
        <time>2015-07-08T08:20:40.000Z</time>
      </trkpt>
      <trkpt lat="47.42648" lon="6.62425">
        <ele>304</ele>
        <time>2015-07-08T08:20:41.000Z</time>
      </trkpt>
      <trkpt lat="47.4265" lon="6.62436">
        <ele>304</ele>
        <time>2015-07-08T08:20:42.000Z</time>
      </trkpt>
      <trkpt lat="47.42651" lon="6.62447">
        <ele>304</ele>
        <time>2015-07-08T08:20:43.000Z</time>
      </trkpt>
      <trkpt lat="47.42653" lon="6.62458">
        <ele>304</ele>
        <time>2015-07-08T08:20:44.000Z</time>
      </trkpt>
      <trkpt lat="47.42655" lon="6.62468">
        <ele>303</ele>
        <time>2015-07-08T08:20:45.000Z</time>
      </trkpt>
      <trkpt lat="47.42656" lon="6.62479">
        <ele>303</ele>
        <time>2015-07-08T08:20:46.000Z</time>
      </trkpt>
      <trkpt lat="47.42658" lon="6.62489">
        <ele>303</ele>
        <time>2015-07-08T08:20:47.000Z</time>
      </trkpt>
      <trkpt lat="47.4266" lon="6.62499">
        <ele>303</ele>
        <time>2015-07-08T08:20:48.000Z</time>
      </trkpt>
      <trkpt lat="47.42662" lon="6.6251">
        <ele>303</ele>
        <time>2015-07-08T08:20:49.000Z</time>
      </trkpt>
      <trkpt lat="47.42664" lon="6.6252">
        <ele>303</ele>
        <time>2015-07-08T08:20:50.000Z</time>
      </trkpt>
      <trkpt lat="47.42666" lon="6.6253">
        <ele>303</ele>
        <time>2015-07-08T08:20:51.000Z</time>
      </trkpt>
      <trkpt lat="47.42668" lon="6.6254">
        <ele>303</ele>
        <time>2015-07-08T08:20:52.000Z</time>
      </trkpt>
      <trkpt lat="47.4267" lon="6.6255">
        <ele>303</ele>
        <time>2015-07-08T08:20:53.000Z</time>
      </trkpt>
      <trkpt lat="47.42672" lon="6.6256">
        <ele>303</ele>
        <time>2015-07-08T08:20:54.000Z</time>
      </trkpt>
      <trkpt lat="47.42674" lon="6.6257">
        <ele>303</ele>
        <time>2015-07-08T08:20:55.000Z</time>
      </trkpt>
      <trkpt lat="47.42676" lon="6.62581">
        <ele>303</ele>
        <time>2015-07-08T08:20:56.000Z</time>
      </trkpt>
      <trkpt lat="47.42678" lon="6.62591">
        <ele>303</ele>
        <time>2015-07-08T08:20:57.000Z</time>
      </trkpt>
      <trkpt lat="47.42681" lon="6.62601">
        <ele>303</ele>
        <time>2015-07-08T08:20:58.000Z</time>
      </trkpt>
      <trkpt lat="47.42683" lon="6.62612">
        <ele>303</ele>
        <time>2015-07-08T08:20:59.000Z</time>
      </trkpt>
      <trkpt lat="47.42685" lon="6.62622">
        <ele>303</ele>
        <time>2015-07-08T08:21:00.000Z</time>
      </trkpt>
      <trkpt lat="47.42688" lon="6.62632">
        <ele>302</ele>
        <time>2015-07-08T08:21:01.000Z</time>
      </trkpt>
      <trkpt lat="47.4269" lon="6.62642">
        <ele>302</ele>
        <time>2015-07-08T08:21:02.000Z</time>
      </trkpt>
      <trkpt lat="47.42692" lon="6.62653">
        <ele>302</ele>
        <time>2015-07-08T08:21:03.000Z</time>
      </trkpt>
      <trkpt lat="47.42695" lon="6.62663">
        <ele>303</ele>
        <time>2015-07-08T08:21:04.000Z</time>
      </trkpt>
      <trkpt lat="47.42698" lon="6.62673">
        <ele>303</ele>
        <time>2015-07-08T08:21:05.000Z</time>
      </trkpt>
      <trkpt lat="47.427" lon="6.62683">
        <ele>303</ele>
        <time>2015-07-08T08:21:06.000Z</time>
      </trkpt>
      <trkpt lat="47.42703" lon="6.62693">
        <ele>303</ele>
        <time>2015-07-08T08:21:07.000Z</time>
      </trkpt>
      <trkpt lat="47.42706" lon="6.62702">
        <ele>303</ele>
        <time>2015-07-08T08:21:08.000Z</time>
      </trkpt>
      <trkpt lat="47.42709" lon="6.62712">
        <ele>303</ele>
        <time>2015-07-08T08:21:09.000Z</time>
      </trkpt>
      <trkpt lat="47.42712" lon="6.62722">
        <ele>303</ele>
        <time>2015-07-08T08:21:10.000Z</time>
      </trkpt>
      <trkpt lat="47.42715" lon="6.62732">
        <ele>303</ele>
        <time>2015-07-08T08:21:11.000Z</time>
      </trkpt>
      <trkpt lat="47.42719" lon="6.62741">
        <ele>303</ele>
        <time>2015-07-08T08:21:12.000Z</time>
      </trkpt>
      <trkpt lat="47.42722" lon="6.62751">
        <ele>303</ele>
        <time>2015-07-08T08:21:13.000Z</time>
      </trkpt>
      <trkpt lat="47.42725" lon="6.6276">
        <ele>303</ele>
        <time>2015-07-08T08:21:14.000Z</time>
      </trkpt>
      <trkpt lat="47.42729" lon="6.6277">
        <ele>303</ele>
        <time>2015-07-08T08:21:15.000Z</time>
      </trkpt>
      <trkpt lat="47.42733" lon="6.62779">
        <ele>303</ele>
        <time>2015-07-08T08:21:16.000Z</time>
      </trkpt>
      <trkpt lat="47.42736" lon="6.62789">
        <ele>303</ele>
        <time>2015-07-08T08:21:17.000Z</time>
      </trkpt>
      <trkpt lat="47.4274" lon="6.62798">
        <ele>303</ele>
        <time>2015-07-08T08:21:18.000Z</time>
      </trkpt>
      <trkpt lat="47.42744" lon="6.62808">
        <ele>304</ele>
        <time>2015-07-08T08:21:19.000Z</time>
      </trkpt>
      <trkpt lat="47.42748" lon="6.62817">
        <ele>304</ele>
        <time>2015-07-08T08:21:20.000Z</time>
      </trkpt>
      <trkpt lat="47.42752" lon="6.62826">
        <ele>304</ele>
        <time>2015-07-08T08:21:21.000Z</time>
      </trkpt>
      <trkpt lat="47.42757" lon="6.62835">
        <ele>303</ele>
        <time>2015-07-08T08:21:22.000Z</time>
      </trkpt>
      <trkpt lat="47.42761" lon="6.62844">
        <ele>303</ele>
        <time>2015-07-08T08:21:23.000Z</time>
      </trkpt>
      <trkpt lat="47.42765" lon="6.62853">
        <ele>303</ele>
        <time>2015-07-08T08:21:24.000Z</time>
      </trkpt>
      <trkpt lat="47.4277" lon="6.62861">
        <ele>303</ele>
        <time>2015-07-08T08:21:25.000Z</time>
      </trkpt>
      <trkpt lat="47.42774" lon="6.6287">
        <ele>303</ele>
        <time>2015-07-08T08:21:26.000Z</time>
      </trkpt>
      <trkpt lat="47.42779" lon="6.62879">
        <ele>303</ele>
        <time>2015-07-08T08:21:27.000Z</time>
      </trkpt>
      <trkpt lat="47.42783" lon="6.62888">
        <ele>304</ele>
        <time>2015-07-08T08:21:28.000Z</time>
      </trkpt>
      <trkpt lat="47.42788" lon="6.62896">
        <ele>304</ele>
        <time>2015-07-08T08:21:29.000Z</time>
      </trkpt>
      <trkpt lat="47.42793" lon="6.62904">
        <ele>304</ele>
        <time>2015-07-08T08:21:30.000Z</time>
      </trkpt>
      <trkpt lat="47.42798" lon="6.62912">
        <ele>304</ele>
        <time>2015-07-08T08:21:31.000Z</time>
      </trkpt>
      <trkpt lat="47.42803" lon="6.6292">
        <ele>304</ele>
        <time>2015-07-08T08:21:32.000Z</time>
      </trkpt>
      <trkpt lat="47.42808" lon="6.62928">
        <ele>304</ele>
        <time>2015-07-08T08:21:33.000Z</time>
      </trkpt>
      <trkpt lat="47.42813" lon="6.62935">
        <ele>304</ele>
        <time>2015-07-08T08:21:34.000Z</time>
      </trkpt>
      <trkpt lat="47.42818" lon="6.62942">
        <ele>304</ele>
        <time>2015-07-08T08:21:35.000Z</time>
      </trkpt>
      <trkpt lat="47.42824" lon="6.62949">
        <ele>304</ele>
        <time>2015-07-08T08:21:36.000Z</time>
      </trkpt>
      <trkpt lat="47.42829" lon="6.62956">
        <ele>304</ele>
        <time>2015-07-08T08:21:37.000Z</time>
      </trkpt>
      <trkpt lat="47.42835" lon="6.62962">
        <ele>304</ele>
        <time>2015-07-08T08:21:38.000Z</time>
      </trkpt>
      <trkpt lat="47.4284" lon="6.62969">
        <ele>304</ele>
        <time>2015-07-08T08:21:39.000Z</time>
      </trkpt>
      <trkpt lat="47.42845" lon="6.62975">
        <ele>304</ele>
        <time>2015-07-08T08:21:40.000Z</time>
      </trkpt>
      <trkpt lat="47.42851" lon="6.62982">
        <ele>304</ele>
        <time>2015-07-08T08:21:41.000Z</time>
      </trkpt>
      <trkpt lat="47.42857" lon="6.62988">
        <ele>304</ele>
        <time>2015-07-08T08:21:42.000Z</time>
      </trkpt>
      <trkpt lat="47.42862" lon="6.62994">
        <ele>304</ele>
        <time>2015-07-08T08:21:43.000Z</time>
      </trkpt>
      <trkpt lat="47.42868" lon="6.63">
        <ele>304</ele>
        <time>2015-07-08T08:21:44.000Z</time>
      </trkpt>
      <trkpt lat="47.42873" lon="6.63006">
        <ele>304</ele>
        <time>2015-07-08T08:21:45.000Z</time>
      </trkpt>
      <trkpt lat="47.42879" lon="6.63012">
        <ele>304</ele>
        <time>2015-07-08T08:21:46.000Z</time>
      </trkpt>
      <trkpt lat="47.42885" lon="6.63017">
        <ele>304</ele>
        <time>2015-07-08T08:21:47.000Z</time>
      </trkpt>
      <trkpt lat="47.42891" lon="6.63023">
        <ele>304</ele>
        <time>2015-07-08T08:21:48.000Z</time>
      </trkpt>
      <trkpt lat="47.42897" lon="6.63028">
        <ele>304</ele>
        <time>2015-07-08T08:21:49.000Z</time>
      </trkpt>
      <trkpt lat="47.42903" lon="6.63034">
        <ele>304</ele>
        <time>2015-07-08T08:21:50.000Z</time>
      </trkpt>
      <trkpt lat="47.42909" lon="6.63039">
        <ele>304</ele>
        <time>2015-07-08T08:21:51.000Z</time>
      </trkpt>
      <trkpt lat="47.42915" lon="6.63045">
        <ele>304</ele>
        <time>2015-07-08T08:21:52.000Z</time>
      </trkpt>
      <trkpt lat="47.42921" lon="6.6305">
        <ele>304</ele>
        <time>2015-07-08T08:21:53.000Z</time>
      </trkpt>
      <trkpt lat="47.42927" lon="6.63055">
        <ele>304</ele>
        <time>2015-07-08T08:21:54.000Z</time>
      </trkpt>
      <trkpt lat="47.42933" lon="6.6306">
        <ele>304</ele>
        <time>2015-07-08T08:21:55.000Z</time>
      </trkpt>
      <trkpt lat="47.4294" lon="6.63065">
        <ele>304</ele>
        <time>2015-07-08T08:21:56.000Z</time>
      </trkpt>
      <trkpt lat="47.42946" lon="6.6307">
        <ele>305</ele>
        <time>2015-07-08T08:21:57.000Z</time>
      </trkpt>
      <trkpt lat="47.42952" lon="6.63075">
        <ele>305</ele>
        <time>2015-07-08T08:21:58.000Z</time>
      </trkpt>
      <trkpt lat="47.42959" lon="6.6308">
        <ele>305</ele>
        <time>2015-07-08T08:21:59.000Z</time>
      </trkpt>
      <trkpt lat="47.42965" lon="6.63085">
        <ele>305</ele>
        <time>2015-07-08T08:22:00.000Z</time>
      </trkpt>
      <trkpt lat="47.42972" lon="6.6309">
        <ele>305</ele>
        <time>2015-07-08T08:22:01.000Z</time>
      </trkpt>
      <trkpt lat="47.42978" lon="6.63095">
        <ele>305</ele>
        <time>2015-07-08T08:22:02.000Z</time>
      </trkpt>
      <trkpt lat="47.42985" lon="6.631">
        <ele>305</ele>
        <time>2015-07-08T08:22:03.000Z</time>
      </trkpt>
      <trkpt lat="47.42991" lon="6.63104">
        <ele>305</ele>
        <time>2015-07-08T08:22:04.000Z</time>
      </trkpt>
      <trkpt lat="47.42997" lon="6.63109">
        <ele>305</ele>
        <time>2015-07-08T08:22:05.000Z</time>
      </trkpt>
      <trkpt lat="47.43004" lon="6.63113">
        <ele>305</ele>
        <time>2015-07-08T08:22:06.000Z</time>
      </trkpt>
      <trkpt lat="47.4301" lon="6.63117">
        <ele>305</ele>
        <time>2015-07-08T08:22:07.000Z</time>
      </trkpt>
      <trkpt lat="47.43016" lon="6.63121">
        <ele>305</ele>
        <time>2015-07-08T08:22:08.000Z</time>
      </trkpt>
      <trkpt lat="47.43022" lon="6.63124">
        <ele>306</ele>
        <time>2015-07-08T08:22:09.000Z</time>
      </trkpt>
      <trkpt lat="47.43028" lon="6.63128">
        <ele>306</ele>
        <time>2015-07-08T08:22:10.000Z</time>
      </trkpt>
      <trkpt lat="47.43034" lon="6.6313">
        <ele>306</ele>
        <time>2015-07-08T08:22:11.000Z</time>
      </trkpt>
      <trkpt lat="47.43041" lon="6.63133">
        <ele>306</ele>
        <time>2015-07-08T08:22:12.000Z</time>
      </trkpt>
      <trkpt lat="47.43047" lon="6.63136">
        <ele>306</ele>
        <time>2015-07-08T08:22:13.000Z</time>
      </trkpt>
      <trkpt lat="47.43054" lon="6.63138">
        <ele>305</ele>
        <time>2015-07-08T08:22:14.000Z</time>
      </trkpt>
      <trkpt lat="47.43061" lon="6.6314">
        <ele>305</ele>
        <time>2015-07-08T08:22:15.000Z</time>
      </trkpt>
      <trkpt lat="47.43068" lon="6.63143">
        <ele>305</ele>
        <time>2015-07-08T08:22:16.000Z</time>
      </trkpt>
      <trkpt lat="47.43075" lon="6.63146">
        <ele>305</ele>
        <time>2015-07-08T08:22:17.000Z</time>
      </trkpt>
      <trkpt lat="47.43082" lon="6.63148">
        <ele>305</ele>
        <time>2015-07-08T08:22:18.000Z</time>
      </trkpt>
      <trkpt lat="47.43089" lon="6.63151">
        <ele>305</ele>
        <time>2015-07-08T08:22:19.000Z</time>
      </trkpt>
      <trkpt lat="47.43096" lon="6.63153">
        <ele>305</ele>
        <time>2015-07-08T08:22:20.000Z</time>
      </trkpt>
      <trkpt lat="47.43102" lon="6.63155">
        <ele>305</ele>
        <time>2015-07-08T08:22:21.000Z</time>
      </trkpt>
      <trkpt lat="47.43108" lon="6.63157">
        <ele>305</ele>
        <time>2015-07-08T08:22:22.000Z</time>
      </trkpt>
      <trkpt lat="47.43115" lon="6.63159">
        <ele>305</ele>
        <time>2015-07-08T08:22:23.000Z</time>
      </trkpt>
      <trkpt lat="47.43122" lon="6.63161">
        <ele>305</ele>
        <time>2015-07-08T08:22:24.000Z</time>
      </trkpt>
      <trkpt lat="47.43128" lon="6.63163">
        <ele>305</ele>
        <time>2015-07-08T08:22:25.000Z</time>
      </trkpt>
      <trkpt lat="47.43135" lon="6.63165">
        <ele>305</ele>
        <time>2015-07-08T08:22:26.000Z</time>
      </trkpt>
      <trkpt lat="47.43143" lon="6.63167">
        <ele>305</ele>
        <time>2015-07-08T08:22:27.000Z</time>
      </trkpt>
      <trkpt lat="47.4315" lon="6.63168">
        <ele>305</ele>
        <time>2015-07-08T08:22:28.000Z</time>
      </trkpt>
      <trkpt lat="47.43158" lon="6.6317">
        <ele>305</ele>
        <time>2015-07-08T08:22:29.000Z</time>
      </trkpt>
      <trkpt lat="47.43165" lon="6.63171">
        <ele>305</ele>
        <time>2015-07-08T08:22:30.000Z</time>
      </trkpt>
      <trkpt lat="47.43173" lon="6.63173">
        <ele>305</ele>
        <time>2015-07-08T08:22:31.000Z</time>
      </trkpt>
      <trkpt lat="47.4318" lon="6.63173">
        <ele>305</ele>
        <time>2015-07-08T08:22:32.000Z</time>
      </trkpt>
      <trkpt lat="47.43188" lon="6.63174">
        <ele>305</ele>
        <time>2015-07-08T08:22:33.000Z</time>
      </trkpt>
      <trkpt lat="47.43195" lon="6.63174">
        <ele>305</ele>
        <time>2015-07-08T08:22:34.000Z</time>
      </trkpt>
      <trkpt lat="47.43203" lon="6.63175">
        <ele>305</ele>
        <time>2015-07-08T08:22:35.000Z</time>
      </trkpt>
      <trkpt lat="47.4321" lon="6.63175">
        <ele>305</ele>
        <time>2015-07-08T08:22:36.000Z</time>
      </trkpt>
      <trkpt lat="47.43217" lon="6.63175">
        <ele>305</ele>
        <time>2015-07-08T08:22:37.000Z</time>
      </trkpt>
      <trkpt lat="47.43224" lon="6.63175">
        <ele>305</ele>
        <time>2015-07-08T08:22:38.000Z</time>
      </trkpt>
      <trkpt lat="47.43231" lon="6.63175">
        <ele>305</ele>
        <time>2015-07-08T08:22:39.000Z</time>
      </trkpt>
      <trkpt lat="47.43238" lon="6.63175">
        <ele>305</ele>
        <time>2015-07-08T08:22:40.000Z</time>
      </trkpt>
      <trkpt lat="47.43245" lon="6.63174">
        <ele>305</ele>
        <time>2015-07-08T08:22:41.000Z</time>
      </trkpt>
      <trkpt lat="47.43252" lon="6.63174">
        <ele>305</ele>
        <time>2015-07-08T08:22:42.000Z</time>
      </trkpt>
      <trkpt lat="47.43259" lon="6.63173">
        <ele>305</ele>
        <time>2015-07-08T08:22:43.000Z</time>
      </trkpt>
      <trkpt lat="47.43266" lon="6.63172">
        <ele>305</ele>
        <time>2015-07-08T08:22:44.000Z</time>
      </trkpt>
      <trkpt lat="47.43273" lon="6.63172">
        <ele>305</ele>
        <time>2015-07-08T08:22:45.000Z</time>
      </trkpt>
      <trkpt lat="47.4328" lon="6.63171">
        <ele>305</ele>
        <time>2015-07-08T08:22:46.000Z</time>
      </trkpt>
      <trkpt lat="47.43287" lon="6.63169">
        <ele>305</ele>
        <time>2015-07-08T08:22:47.000Z</time>
      </trkpt>
      <trkpt lat="47.43295" lon="6.63168">
        <ele>305</ele>
        <time>2015-07-08T08:22:48.000Z</time>
      </trkpt>
      <trkpt lat="47.43302" lon="6.63167">
        <ele>305</ele>
        <time>2015-07-08T08:22:49.000Z</time>
      </trkpt>
      <trkpt lat="47.43309" lon="6.63166">
        <ele>305</ele>
        <time>2015-07-08T08:22:50.000Z</time>
      </trkpt>
      <trkpt lat="47.43316" lon="6.63164">
        <ele>305</ele>
        <time>2015-07-08T08:22:51.000Z</time>
      </trkpt>
      <trkpt lat="47.43322" lon="6.63163">
        <ele>305</ele>
        <time>2015-07-08T08:22:52.000Z</time>
      </trkpt>
      <trkpt lat="47.43329" lon="6.63161">
        <ele>305</ele>
        <time>2015-07-08T08:22:53.000Z</time>
      </trkpt>
      <trkpt lat="47.43336" lon="6.63159">
        <ele>305</ele>
        <time>2015-07-08T08:22:54.000Z</time>
      </trkpt>
      <trkpt lat="47.43343" lon="6.63157">
        <ele>304</ele>
        <time>2015-07-08T08:22:55.000Z</time>
      </trkpt>
      <trkpt lat="47.4335" lon="6.63155">
        <ele>304</ele>
        <time>2015-07-08T08:22:56.000Z</time>
      </trkpt>
      <trkpt lat="47.43357" lon="6.63153">
        <ele>304</ele>
        <time>2015-07-08T08:22:57.000Z</time>
      </trkpt>
      <trkpt lat="47.43364" lon="6.63151">
        <ele>304</ele>
        <time>2015-07-08T08:22:58.000Z</time>
      </trkpt>
      <trkpt lat="47.4337" lon="6.63149">
        <ele>304</ele>
        <time>2015-07-08T08:22:59.000Z</time>
      </trkpt>
      <trkpt lat="47.43377" lon="6.63146">
        <ele>304</ele>
        <time>2015-07-08T08:23:00.000Z</time>
      </trkpt>
      <trkpt lat="47.43384" lon="6.63144">
        <ele>304</ele>
        <time>2015-07-08T08:23:01.000Z</time>
      </trkpt>
      <trkpt lat="47.43391" lon="6.63141">
        <ele>304</ele>
        <time>2015-07-08T08:23:02.000Z</time>
      </trkpt>
      <trkpt lat="47.43398" lon="6.63139">
        <ele>304</ele>
        <time>2015-07-08T08:23:03.000Z</time>
      </trkpt>
      <trkpt lat="47.43405" lon="6.63136">
        <ele>304</ele>
        <time>2015-07-08T08:23:04.000Z</time>
      </trkpt>
      <trkpt lat="47.43411" lon="6.63133">
        <ele>304</ele>
        <time>2015-07-08T08:23:05.000Z</time>
      </trkpt>
      <trkpt lat="47.43418" lon="6.6313">
        <ele>304</ele>
        <time>2015-07-08T08:23:06.000Z</time>
      </trkpt>
      <trkpt lat="47.43425" lon="6.63127">
        <ele>304</ele>
        <time>2015-07-08T08:23:07.000Z</time>
      </trkpt>
      <trkpt lat="47.43432" lon="6.63125">
        <ele>304</ele>
        <time>2015-07-08T08:23:08.000Z</time>
      </trkpt>
      <trkpt lat="47.43439" lon="6.63121">
        <ele>304</ele>
        <time>2015-07-08T08:23:09.000Z</time>
      </trkpt>
      <trkpt lat="47.43445" lon="6.63118">
        <ele>304</ele>
        <time>2015-07-08T08:23:10.000Z</time>
      </trkpt>
      <trkpt lat="47.43452" lon="6.63115">
        <ele>304</ele>
        <time>2015-07-08T08:23:11.000Z</time>
      </trkpt>
      <trkpt lat="47.43459" lon="6.63111">
        <ele>304</ele>
        <time>2015-07-08T08:23:12.000Z</time>
      </trkpt>
      <trkpt lat="47.43466" lon="6.63108">
        <ele>304</ele>
        <time>2015-07-08T08:23:13.000Z</time>
      </trkpt>
      <trkpt lat="47.43472" lon="6.63104">
        <ele>304</ele>
        <time>2015-07-08T08:23:14.000Z</time>
      </trkpt>
      <trkpt lat="47.43479" lon="6.63101">
        <ele>304</ele>
        <time>2015-07-08T08:23:15.000Z</time>
      </trkpt>
      <trkpt lat="47.43485" lon="6.63097">
        <ele>304</ele>
        <time>2015-07-08T08:23:16.000Z</time>
      </trkpt>
      <trkpt lat="47.43492" lon="6.63093">
        <ele>304</ele>
        <time>2015-07-08T08:23:17.000Z</time>
      </trkpt>
      <trkpt lat="47.43499" lon="6.63089">
        <ele>304</ele>
        <time>2015-07-08T08:23:18.000Z</time>
      </trkpt>
      <trkpt lat="47.43505" lon="6.63085">
        <ele>304</ele>
        <time>2015-07-08T08:23:19.000Z</time>
      </trkpt>
      <trkpt lat="47.43511" lon="6.63082">
        <ele>304</ele>
        <time>2015-07-08T08:23:20.000Z</time>
      </trkpt>
      <trkpt lat="47.43518" lon="6.63078">
        <ele>304</ele>
        <time>2015-07-08T08:23:21.000Z</time>
      </trkpt>
      <trkpt lat="47.43524" lon="6.63074">
        <ele>304</ele>
        <time>2015-07-08T08:23:22.000Z</time>
      </trkpt>
      <trkpt lat="47.4353" lon="6.6307">
        <ele>304</ele>
        <time>2015-07-08T08:23:23.000Z</time>
      </trkpt>
      <trkpt lat="47.43536" lon="6.63066">
        <ele>304</ele>
        <time>2015-07-08T08:23:24.000Z</time>
      </trkpt>
      <trkpt lat="47.43543" lon="6.63062">
        <ele>304</ele>
        <time>2015-07-08T08:23:25.000Z</time>
      </trkpt>
      <trkpt lat="47.43549" lon="6.63059">
        <ele>304</ele>
        <time>2015-07-08T08:23:26.000Z</time>
      </trkpt>
      <trkpt lat="47.43555" lon="6.63055">
        <ele>304</ele>
        <time>2015-07-08T08:23:27.000Z</time>
      </trkpt>
      <trkpt lat="47.43562" lon="6.63051">
        <ele>304</ele>
        <time>2015-07-08T08:23:28.000Z</time>
      </trkpt>
      <trkpt lat="47.43568" lon="6.63047">
        <ele>304</ele>
        <time>2015-07-08T08:23:29.000Z</time>
      </trkpt>
      <trkpt lat="47.43575" lon="6.63043">
        <ele>304</ele>
        <time>2015-07-08T08:23:30.000Z</time>
      </trkpt>
      <trkpt lat="47.43581" lon="6.63039">
        <ele>304</ele>
        <time>2015-07-08T08:23:31.000Z</time>
      </trkpt>
      <trkpt lat="47.43587" lon="6.63035">
        <ele>304</ele>
        <time>2015-07-08T08:23:32.000Z</time>
      </trkpt>
      <trkpt lat="47.43594" lon="6.6303">
        <ele>304</ele>
        <time>2015-07-08T08:23:33.000Z</time>
      </trkpt>
      <trkpt lat="47.436" lon="6.63026">
        <ele>304</ele>
        <time>2015-07-08T08:23:34.000Z</time>
      </trkpt>
      <trkpt lat="47.43607" lon="6.63022">
        <ele>304</ele>
        <time>2015-07-08T08:23:35.000Z</time>
      </trkpt>
      <trkpt lat="47.43613" lon="6.63017">
        <ele>304</ele>
        <time>2015-07-08T08:23:36.000Z</time>
      </trkpt>
      <trkpt lat="47.4362" lon="6.63013">
        <ele>304</ele>
        <time>2015-07-08T08:23:37.000Z</time>
      </trkpt>
      <trkpt lat="47.43626" lon="6.63009">
        <ele>304</ele>
        <time>2015-07-08T08:23:38.000Z</time>
      </trkpt>
      <trkpt lat="47.43633" lon="6.63005">
        <ele>304</ele>
        <time>2015-07-08T08:23:39.000Z</time>
      </trkpt>
      <trkpt lat="47.43639" lon="6.63001">
        <ele>304</ele>
        <time>2015-07-08T08:23:40.000Z</time>
      </trkpt>
      <trkpt lat="47.43646" lon="6.62997">
        <ele>304</ele>
        <time>2015-07-08T08:23:41.000Z</time>
      </trkpt>
      <trkpt lat="47.43652" lon="6.62993">
        <ele>304</ele>
        <time>2015-07-08T08:23:42.000Z</time>
      </trkpt>
      <trkpt lat="47.43659" lon="6.62988">
        <ele>304</ele>
        <time>2015-07-08T08:23:43.000Z</time>
      </trkpt>
      <trkpt lat="47.43665" lon="6.62984">
        <ele>304</ele>
        <time>2015-07-08T08:23:44.000Z</time>
      </trkpt>
      <trkpt lat="47.43672" lon="6.62979">
        <ele>304</ele>
        <time>2015-07-08T08:23:45.000Z</time>
      </trkpt>
      <trkpt lat="47.43679" lon="6.62975">
        <ele>304</ele>
        <time>2015-07-08T08:23:46.000Z</time>
      </trkpt>
      <trkpt lat="47.43685" lon="6.6297">
        <ele>305</ele>
        <time>2015-07-08T08:23:47.000Z</time>
      </trkpt>
      <trkpt lat="47.43692" lon="6.62966">
        <ele>305</ele>
        <time>2015-07-08T08:23:48.000Z</time>
      </trkpt>
      <trkpt lat="47.43699" lon="6.62962">
        <ele>305</ele>
        <time>2015-07-08T08:23:49.000Z</time>
      </trkpt>
      <trkpt lat="47.43706" lon="6.62958">
        <ele>305</ele>
        <time>2015-07-08T08:23:50.000Z</time>
      </trkpt>
      <trkpt lat="47.43713" lon="6.62953">
        <ele>305</ele>
        <time>2015-07-08T08:23:51.000Z</time>
      </trkpt>
      <trkpt lat="47.43719" lon="6.62949">
        <ele>305</ele>
        <time>2015-07-08T08:23:52.000Z</time>
      </trkpt>
      <trkpt lat="47.43726" lon="6.62944">
        <ele>305</ele>
        <time>2015-07-08T08:23:53.000Z</time>
      </trkpt>
      <trkpt lat="47.43733" lon="6.6294">
        <ele>305</ele>
        <time>2015-07-08T08:23:54.000Z</time>
      </trkpt>
      <trkpt lat="47.4374" lon="6.62936">
        <ele>305</ele>
        <time>2015-07-08T08:23:55.000Z</time>
      </trkpt>
      <trkpt lat="47.43747" lon="6.62931">
        <ele>305</ele>
        <time>2015-07-08T08:23:56.000Z</time>
      </trkpt>
      <trkpt lat="47.43753" lon="6.62927">
        <ele>305</ele>
        <time>2015-07-08T08:23:57.000Z</time>
      </trkpt>
      <trkpt lat="47.4376" lon="6.62922">
        <ele>305</ele>
        <time>2015-07-08T08:23:58.000Z</time>
      </trkpt>
      <trkpt lat="47.43767" lon="6.62918">
        <ele>305</ele>
        <time>2015-07-08T08:23:59.000Z</time>
      </trkpt>
      <trkpt lat="47.43774" lon="6.62914">
        <ele>305</ele>
        <time>2015-07-08T08:24:00.000Z</time>
      </trkpt>
      <trkpt lat="47.43781" lon="6.6291">
        <ele>305</ele>
        <time>2015-07-08T08:24:01.000Z</time>
      </trkpt>
      <trkpt lat="47.43787" lon="6.62905">
        <ele>305</ele>
        <time>2015-07-08T08:24:02.000Z</time>
      </trkpt>
      <trkpt lat="47.43794" lon="6.62902">
        <ele>305</ele>
        <time>2015-07-08T08:24:03.000Z</time>
      </trkpt>
      <trkpt lat="47.43801" lon="6.62898">
        <ele>305</ele>
        <time>2015-07-08T08:24:04.000Z</time>
      </trkpt>
      <trkpt lat="47.43807" lon="6.62895">
        <ele>305</ele>
        <time>2015-07-08T08:24:05.000Z</time>
      </trkpt>
      <trkpt lat="47.43812" lon="6.62892">
        <ele>305</ele>
        <time>2015-07-08T08:24:06.000Z</time>
      </trkpt>
      <trkpt lat="47.43816" lon="6.62888">
        <ele>306</ele>
        <time>2015-07-08T08:24:07.000Z</time>
      </trkpt>
      <trkpt lat="47.4382" lon="6.62884">
        <ele>306</ele>
        <time>2015-07-08T08:24:08.000Z</time>
      </trkpt>
      <trkpt lat="47.43824" lon="6.6288">
        <ele>306</ele>
        <time>2015-07-08T08:24:09.000Z</time>
      </trkpt>
      <trkpt lat="47.43828" lon="6.62875">
        <ele>306</ele>
        <time>2015-07-08T08:24:10.000Z</time>
      </trkpt>
      <trkpt lat="47.43833" lon="6.6287">
        <ele>306</ele>
        <time>2015-07-08T08:24:11.000Z</time>
      </trkpt>
      <trkpt lat="47.43838" lon="6.62865">
        <ele>305</ele>
        <time>2015-07-08T08:24:12.000Z</time>
      </trkpt>
      <trkpt lat="47.43844" lon="6.6286">
        <ele>305</ele>
        <time>2015-07-08T08:24:13.000Z</time>
      </trkpt>
      <trkpt lat="47.43851" lon="6.62856">
        <ele>305</ele>
        <time>2015-07-08T08:24:14.000Z</time>
      </trkpt>
      <trkpt lat="47.43857" lon="6.62853">
        <ele>305</ele>
        <time>2015-07-08T08:24:15.000Z</time>
      </trkpt>
      <trkpt lat="47.43863" lon="6.6285">
        <ele>305</ele>
        <time>2015-07-08T08:24:16.000Z</time>
      </trkpt>
      <trkpt lat="47.4387" lon="6.62846">
        <ele>305</ele>
        <time>2015-07-08T08:24:17.000Z</time>
      </trkpt>
      <trkpt lat="47.43876" lon="6.62843">
        <ele>305</ele>
        <time>2015-07-08T08:24:18.000Z</time>
      </trkpt>
      <trkpt lat="47.43883" lon="6.62839">
        <ele>305</ele>
        <time>2015-07-08T08:24:19.000Z</time>
      </trkpt>
      <trkpt lat="47.43889" lon="6.62835">
        <ele>305</ele>
        <time>2015-07-08T08:24:20.000Z</time>
      </trkpt>
      <trkpt lat="47.43895" lon="6.62831">
        <ele>305</ele>
        <time>2015-07-08T08:24:21.000Z</time>
      </trkpt>
      <trkpt lat="47.43902" lon="6.62827">
        <ele>305</ele>
        <time>2015-07-08T08:24:22.000Z</time>
      </trkpt>
      <trkpt lat="47.43908" lon="6.62824">
        <ele>305</ele>
        <time>2015-07-08T08:24:23.000Z</time>
      </trkpt>
      <trkpt lat="47.43914" lon="6.62821">
        <ele>305</ele>
        <time>2015-07-08T08:24:24.000Z</time>
      </trkpt>
      <trkpt lat="47.43921" lon="6.62818">
        <ele>305</ele>
        <time>2015-07-08T08:24:25.000Z</time>
      </trkpt>
      <trkpt lat="47.43927" lon="6.62816">
        <ele>305</ele>
        <time>2015-07-08T08:24:26.000Z</time>
      </trkpt>
      <trkpt lat="47.43934" lon="6.62814">
        <ele>305</ele>
        <time>2015-07-08T08:24:27.000Z</time>
      </trkpt>
      <trkpt lat="47.4394" lon="6.62813">
        <ele>305</ele>
        <time>2015-07-08T08:24:28.000Z</time>
      </trkpt>
      <trkpt lat="47.43947" lon="6.62813">
        <ele>305</ele>
        <time>2015-07-08T08:24:29.000Z</time>
      </trkpt>
      <trkpt lat="47.43953" lon="6.62814">
        <ele>305</ele>
        <time>2015-07-08T08:24:30.000Z</time>
      </trkpt>
      <trkpt lat="47.43959" lon="6.62816">
        <ele>305</ele>
        <time>2015-07-08T08:24:31.000Z</time>
      </trkpt>
      <trkpt lat="47.43965" lon="6.62818">
        <ele>305</ele>
        <time>2015-07-08T08:24:32.000Z</time>
      </trkpt>
      <trkpt lat="47.43971" lon="6.62819">
        <ele>305</ele>
        <time>2015-07-08T08:24:33.000Z</time>
      </trkpt>
      <trkpt lat="47.43977" lon="6.62821">
        <ele>305</ele>
        <time>2015-07-08T08:24:34.000Z</time>
      </trkpt>
      <trkpt lat="47.43983" lon="6.62823">
        <ele>305</ele>
        <time>2015-07-08T08:24:35.000Z</time>
      </trkpt>
      <trkpt lat="47.43989" lon="6.62825">
        <ele>305</ele>
        <time>2015-07-08T08:24:36.000Z</time>
      </trkpt>
      <trkpt lat="47.43995" lon="6.62827">
        <ele>305</ele>
        <time>2015-07-08T08:24:37.000Z</time>
      </trkpt>
      <trkpt lat="47.44001" lon="6.62829">
        <ele>305</ele>
        <time>2015-07-08T08:24:38.000Z</time>
      </trkpt>
      <trkpt lat="47.44006" lon="6.62831">
        <ele>305</ele>
        <time>2015-07-08T08:24:39.000Z</time>
      </trkpt>
      <trkpt lat="47.44012" lon="6.62833">
        <ele>305</ele>
        <time>2015-07-08T08:24:40.000Z</time>
      </trkpt>
      <trkpt lat="47.44017" lon="6.62834">
        <ele>305</ele>
        <time>2015-07-08T08:24:41.000Z</time>
      </trkpt>
      <trkpt lat="47.44023" lon="6.62836">
        <ele>305</ele>
        <time>2015-07-08T08:24:42.000Z</time>
      </trkpt>
      <trkpt lat="47.44028" lon="6.62838">
        <ele>305</ele>
        <time>2015-07-08T08:24:43.000Z</time>
      </trkpt>
      <trkpt lat="47.44034" lon="6.6284">
        <ele>305</ele>
        <time>2015-07-08T08:24:44.000Z</time>
      </trkpt>
      <trkpt lat="47.44039" lon="6.62842">
        <ele>305</ele>
        <time>2015-07-08T08:24:45.000Z</time>
      </trkpt>
      <trkpt lat="47.44045" lon="6.62844">
        <ele>305</ele>
        <time>2015-07-08T08:24:46.000Z</time>
      </trkpt>
      <trkpt lat="47.4405" lon="6.62846">
        <ele>305</ele>
        <time>2015-07-08T08:24:47.000Z</time>
      </trkpt>
      <trkpt lat="47.44056" lon="6.62848">
        <ele>305</ele>
        <time>2015-07-08T08:24:48.000Z</time>
      </trkpt>
      <trkpt lat="47.44062" lon="6.6285">
        <ele>305</ele>
        <time>2015-07-08T08:24:49.000Z</time>
      </trkpt>
      <trkpt lat="47.44067" lon="6.62853">
        <ele>305</ele>
        <time>2015-07-08T08:24:50.000Z</time>
      </trkpt>
      <trkpt lat="47.44072" lon="6.62856">
        <ele>305</ele>
        <time>2015-07-08T08:24:51.000Z</time>
      </trkpt>
      <trkpt lat="47.44077" lon="6.6286">
        <ele>305</ele>
        <time>2015-07-08T08:24:52.000Z</time>
      </trkpt>
      <trkpt lat="47.44082" lon="6.62865">
        <ele>305</ele>
        <time>2015-07-08T08:24:53.000Z</time>
      </trkpt>
      <trkpt lat="47.44086" lon="6.62869">
        <ele>305</ele>
        <time>2015-07-08T08:24:54.000Z</time>
      </trkpt>
      <trkpt lat="47.44091" lon="6.62872">
        <ele>305</ele>
        <time>2015-07-08T08:24:55.000Z</time>
      </trkpt>
      <trkpt lat="47.44097" lon="6.62875">
        <ele>305</ele>
        <time>2015-07-08T08:24:56.000Z</time>
      </trkpt>
      <trkpt lat="47.44102" lon="6.62876">
        <ele>306</ele>
        <time>2015-07-08T08:24:57.000Z</time>
      </trkpt>
      <trkpt lat="47.44107" lon="6.62878">
        <ele>306</ele>
        <time>2015-07-08T08:24:58.000Z</time>
      </trkpt>
      <trkpt lat="47.44112" lon="6.6288">
        <ele>306</ele>
        <time>2015-07-08T08:24:59.000Z</time>
      </trkpt>
      <trkpt lat="47.44118" lon="6.62882">
        <ele>306</ele>
        <time>2015-07-08T08:25:00.000Z</time>
      </trkpt>
      <trkpt lat="47.44123" lon="6.62883">
        <ele>306</ele>
        <time>2015-07-08T08:25:01.000Z</time>
      </trkpt>
      <trkpt lat="47.44128" lon="6.62885">
        <ele>306</ele>
        <time>2015-07-08T08:25:02.000Z</time>
      </trkpt>
      <trkpt lat="47.44133" lon="6.62886">
        <ele>306</ele>
        <time>2015-07-08T08:25:03.000Z</time>
      </trkpt>
      <trkpt lat="47.44139" lon="6.62888">
        <ele>306</ele>
        <time>2015-07-08T08:25:04.000Z</time>
      </trkpt>
      <trkpt lat="47.44144" lon="6.6289">
        <ele>306</ele>
        <time>2015-07-08T08:25:05.000Z</time>
      </trkpt>
      <trkpt lat="47.4415" lon="6.62892">
        <ele>306</ele>
        <time>2015-07-08T08:25:06.000Z</time>
      </trkpt>
      <trkpt lat="47.44156" lon="6.62894">
        <ele>306</ele>
        <time>2015-07-08T08:25:07.000Z</time>
      </trkpt>
      <trkpt lat="47.44161" lon="6.62896">
        <ele>306</ele>
        <time>2015-07-08T08:25:08.000Z</time>
      </trkpt>
      <trkpt lat="47.44167" lon="6.62897">
        <ele>306</ele>
        <time>2015-07-08T08:25:09.000Z</time>
      </trkpt>
      <trkpt lat="47.44172" lon="6.62897">
        <ele>306</ele>
        <time>2015-07-08T08:25:10.000Z</time>
      </trkpt>
      <trkpt lat="47.44178" lon="6.62896">
        <ele>306</ele>
        <time>2015-07-08T08:25:11.000Z</time>
      </trkpt>
      <trkpt lat="47.44184" lon="6.62895">
        <ele>306</ele>
        <time>2015-07-08T08:25:12.000Z</time>
      </trkpt>
      <trkpt lat="47.44189" lon="6.62895">
        <ele>306</ele>
        <time>2015-07-08T08:25:13.000Z</time>
      </trkpt>
      <trkpt lat="47.44195" lon="6.62895">
        <ele>306</ele>
        <time>2015-07-08T08:25:14.000Z</time>
      </trkpt>
      <trkpt lat="47.44201" lon="6.62896">
        <ele>306</ele>
        <time>2015-07-08T08:25:15.000Z</time>
      </trkpt>
      <trkpt lat="47.44207" lon="6.62898">
        <ele>306</ele>
        <time>2015-07-08T08:25:16.000Z</time>
      </trkpt>
      <trkpt lat="47.44213" lon="6.629">
        <ele>306</ele>
        <time>2015-07-08T08:25:17.000Z</time>
      </trkpt>
      <trkpt lat="47.44219" lon="6.62902">
        <ele>306</ele>
        <time>2015-07-08T08:25:18.000Z</time>
      </trkpt>
      <trkpt lat="47.44224" lon="6.62904">
        <ele>306</ele>
        <time>2015-07-08T08:25:19.000Z</time>
      </trkpt>
      <trkpt lat="47.4423" lon="6.62906">
        <ele>306</ele>
        <time>2015-07-08T08:25:20.000Z</time>
      </trkpt>
      <trkpt lat="47.44236" lon="6.62908">
        <ele>307</ele>
        <time>2015-07-08T08:25:21.000Z</time>
      </trkpt>
      <trkpt lat="47.44242" lon="6.6291">
        <ele>307</ele>
        <time>2015-07-08T08:25:22.000Z</time>
      </trkpt>
      <trkpt lat="47.44249" lon="6.62912">
        <ele>307</ele>
        <time>2015-07-08T08:25:23.000Z</time>
      </trkpt>
      <trkpt lat="47.44255" lon="6.62913">
        <ele>307</ele>
        <time>2015-07-08T08:25:24.000Z</time>
      </trkpt>
      <trkpt lat="47.44261" lon="6.62915">
        <ele>307</ele>
        <time>2015-07-08T08:25:25.000Z</time>
      </trkpt>
      <trkpt lat="47.44267" lon="6.62917">
        <ele>307</ele>
        <time>2015-07-08T08:25:26.000Z</time>
      </trkpt>
      <trkpt lat="47.44273" lon="6.62919">
        <ele>307</ele>
        <time>2015-07-08T08:25:27.000Z</time>
      </trkpt>
      <trkpt lat="47.4428" lon="6.6292">
        <ele>307</ele>
        <time>2015-07-08T08:25:28.000Z</time>
      </trkpt>
      <trkpt lat="47.44286" lon="6.62922">
        <ele>307</ele>
        <time>2015-07-08T08:25:29.000Z</time>
      </trkpt>
      <trkpt lat="47.44292" lon="6.62924">
        <ele>308</ele>
        <time>2015-07-08T08:25:30.000Z</time>
      </trkpt>
      <trkpt lat="47.44298" lon="6.62927">
        <ele>308</ele>
        <time>2015-07-08T08:25:31.000Z</time>
      </trkpt>
      <trkpt lat="47.44305" lon="6.62929">
        <ele>308</ele>
        <time>2015-07-08T08:25:32.000Z</time>
      </trkpt>
      <trkpt lat="47.44311" lon="6.62931">
        <ele>308</ele>
        <time>2015-07-08T08:25:33.000Z</time>
      </trkpt>
      <trkpt lat="47.44317" lon="6.62933">
        <ele>308</ele>
        <time>2015-07-08T08:25:34.000Z</time>
      </trkpt>
      <trkpt lat="47.44323" lon="6.62936">
        <ele>308</ele>
        <time>2015-07-08T08:25:35.000Z</time>
      </trkpt>
      <trkpt lat="47.44329" lon="6.62939">
        <ele>308</ele>
        <time>2015-07-08T08:25:36.000Z</time>
      </trkpt>
      <trkpt lat="47.44335" lon="6.62942">
        <ele>308</ele>
        <time>2015-07-08T08:25:37.000Z</time>
      </trkpt>
      <trkpt lat="47.44342" lon="6.62945">
        <ele>308</ele>
        <time>2015-07-08T08:25:38.000Z</time>
      </trkpt>
      <trkpt lat="47.44348" lon="6.62948">
        <ele>308</ele>
        <time>2015-07-08T08:25:39.000Z</time>
      </trkpt>
      <trkpt lat="47.44354" lon="6.62951">
        <ele>309</ele>
        <time>2015-07-08T08:25:40.000Z</time>
      </trkpt>
      <trkpt lat="47.44361" lon="6.62954">
        <ele>309</ele>
        <time>2015-07-08T08:25:41.000Z</time>
      </trkpt>
      <trkpt lat="47.44367" lon="6.62957">
        <ele>309</ele>
        <time>2015-07-08T08:25:42.000Z</time>
      </trkpt>
      <trkpt lat="47.44373" lon="6.62961">
        <ele>309</ele>
        <time>2015-07-08T08:25:43.000Z</time>
      </trkpt>
      <trkpt lat="47.44379" lon="6.62964">
        <ele>309</ele>
        <time>2015-07-08T08:25:44.000Z</time>
      </trkpt>
      <trkpt lat="47.44385" lon="6.62967">
        <ele>309</ele>
        <time>2015-07-08T08:25:45.000Z</time>
      </trkpt>
      <trkpt lat="47.44392" lon="6.6297">
        <ele>309</ele>
        <time>2015-07-08T08:25:46.000Z</time>
      </trkpt>
      <trkpt lat="47.44398" lon="6.62973">
        <ele>309</ele>
        <time>2015-07-08T08:25:47.000Z</time>
      </trkpt>
      <trkpt lat="47.44405" lon="6.62976">
        <ele>309</ele>
        <time>2015-07-08T08:25:48.000Z</time>
      </trkpt>
      <trkpt lat="47.44411" lon="6.62978">
        <ele>310</ele>
        <time>2015-07-08T08:25:49.000Z</time>
      </trkpt>
      <trkpt lat="47.44417" lon="6.62981">
        <ele>310</ele>
        <time>2015-07-08T08:25:50.000Z</time>
      </trkpt>
      <trkpt lat="47.44423" lon="6.62984">
        <ele>310</ele>
        <time>2015-07-08T08:25:51.000Z</time>
      </trkpt>
      <trkpt lat="47.4443" lon="6.62988">
        <ele>310</ele>
        <time>2015-07-08T08:25:52.000Z</time>
      </trkpt>
      <trkpt lat="47.44436" lon="6.62991">
        <ele>310</ele>
        <time>2015-07-08T08:25:53.000Z</time>
      </trkpt>
      <trkpt lat="47.44442" lon="6.62995">
        <ele>310</ele>
        <time>2015-07-08T08:25:54.000Z</time>
      </trkpt>
      <trkpt lat="47.44448" lon="6.62998">
        <ele>310</ele>
        <time>2015-07-08T08:25:55.000Z</time>
      </trkpt>
      <trkpt lat="47.44455" lon="6.63001">
        <ele>310</ele>
        <time>2015-07-08T08:25:56.000Z</time>
      </trkpt>
      <trkpt lat="47.44461" lon="6.63004">
        <ele>310</ele>
        <time>2015-07-08T08:25:57.000Z</time>
      </trkpt>
      <trkpt lat="47.44467" lon="6.63007">
        <ele>310</ele>
        <time>2015-07-08T08:25:58.000Z</time>
      </trkpt>
      <trkpt lat="47.44473" lon="6.63011">
        <ele>310</ele>
        <time>2015-07-08T08:25:59.000Z</time>
      </trkpt>
      <trkpt lat="47.4448" lon="6.63014">
        <ele>310</ele>
        <time>2015-07-08T08:26:00.000Z</time>
      </trkpt>
      <trkpt lat="47.44486" lon="6.63017">
        <ele>310</ele>
        <time>2015-07-08T08:26:01.000Z</time>
      </trkpt>
      <trkpt lat="47.44492" lon="6.6302">
        <ele>310</ele>
        <time>2015-07-08T08:26:02.000Z</time>
      </trkpt>
      <trkpt lat="47.44499" lon="6.63024">
        <ele>310</ele>
        <time>2015-07-08T08:26:03.000Z</time>
      </trkpt>
      <trkpt lat="47.44505" lon="6.63027">
        <ele>310</ele>
        <time>2015-07-08T08:26:04.000Z</time>
      </trkpt>
      <trkpt lat="47.44512" lon="6.6303">
        <ele>310</ele>
        <time>2015-07-08T08:26:05.000Z</time>
      </trkpt>
      <trkpt lat="47.44519" lon="6.63033">
        <ele>310</ele>
        <time>2015-07-08T08:26:06.000Z</time>
      </trkpt>
      <trkpt lat="47.44525" lon="6.63035">
        <ele>310</ele>
        <time>2015-07-08T08:26:07.000Z</time>
      </trkpt>
      <trkpt lat="47.44531" lon="6.63038">
        <ele>310</ele>
        <time>2015-07-08T08:26:08.000Z</time>
      </trkpt>
      <trkpt lat="47.44537" lon="6.63042">
        <ele>310</ele>
        <time>2015-07-08T08:26:09.000Z</time>
      </trkpt>
      <trkpt lat="47.44543" lon="6.63045">
        <ele>310</ele>
        <time>2015-07-08T08:26:10.000Z</time>
      </trkpt>
      <trkpt lat="47.4455" lon="6.63048">
        <ele>310</ele>
        <time>2015-07-08T08:26:11.000Z</time>
      </trkpt>
      <trkpt lat="47.44556" lon="6.63052">
        <ele>310</ele>
        <time>2015-07-08T08:26:12.000Z</time>
      </trkpt>
      <trkpt lat="47.44563" lon="6.63054">
        <ele>310</ele>
        <time>2015-07-08T08:26:13.000Z</time>
      </trkpt>
      <trkpt lat="47.4457" lon="6.63055">
        <ele>310</ele>
        <time>2015-07-08T08:26:14.000Z</time>
      </trkpt>
      <trkpt lat="47.44577" lon="6.63055">
        <ele>310</ele>
        <time>2015-07-08T08:26:15.000Z</time>
      </trkpt>
      <trkpt lat="47.44584" lon="6.63056">
        <ele>309</ele>
        <time>2015-07-08T08:26:16.000Z</time>
      </trkpt>
      <trkpt lat="47.44589" lon="6.63058">
        <ele>309</ele>
        <time>2015-07-08T08:26:17.000Z</time>
      </trkpt>
      <trkpt lat="47.44594" lon="6.63063">
        <ele>309</ele>
        <time>2015-07-08T08:26:18.000Z</time>
      </trkpt>
      <trkpt lat="47.44599" lon="6.63069">
        <ele>309</ele>
        <time>2015-07-08T08:26:19.000Z</time>
      </trkpt>
      <trkpt lat="47.44605" lon="6.63075">
        <ele>309</ele>
        <time>2015-07-08T08:26:20.000Z</time>
      </trkpt>
      <trkpt lat="47.44611" lon="6.6308">
        <ele>309</ele>
        <time>2015-07-08T08:26:21.000Z</time>
      </trkpt>
      <trkpt lat="47.44616" lon="6.63087">
        <ele>309</ele>
        <time>2015-07-08T08:26:22.000Z</time>
      </trkpt>
      <trkpt lat="47.44622" lon="6.63095">
        <ele>308</ele>
        <time>2015-07-08T08:26:23.000Z</time>
      </trkpt>
      <trkpt lat="47.44627" lon="6.63103">
        <ele>308</ele>
        <time>2015-07-08T08:26:24.000Z</time>
      </trkpt>
      <trkpt lat="47.44631" lon="6.63112">
        <ele>308</ele>
        <time>2015-07-08T08:26:25.000Z</time>
      </trkpt>
      <trkpt lat="47.44636" lon="6.63121">
        <ele>308</ele>
        <time>2015-07-08T08:26:26.000Z</time>
      </trkpt>
      <trkpt lat="47.4464" lon="6.6313">
        <ele>308</ele>
        <time>2015-07-08T08:26:27.000Z</time>
      </trkpt>
      <trkpt lat="47.44643" lon="6.6314">
        <ele>308</ele>
        <time>2015-07-08T08:26:28.000Z</time>
      </trkpt>
      <trkpt lat="47.44645" lon="6.6315">
        <ele>308</ele>
        <time>2015-07-08T08:26:29.000Z</time>
      </trkpt>
      <trkpt lat="47.44647" lon="6.63161">
        <ele>307</ele>
        <time>2015-07-08T08:26:30.000Z</time>
      </trkpt>
      <trkpt lat="47.44648" lon="6.63172">
        <ele>307</ele>
        <time>2015-07-08T08:26:31.000Z</time>
      </trkpt>
      <trkpt lat="47.44649" lon="6.63183">
        <ele>307</ele>
        <time>2015-07-08T08:26:32.000Z</time>
      </trkpt>
      <trkpt lat="47.4465" lon="6.63194">
        <ele>307</ele>
        <time>2015-07-08T08:26:33.000Z</time>
      </trkpt>
      <trkpt lat="47.4465" lon="6.63205">
        <ele>307</ele>
        <time>2015-07-08T08:26:34.000Z</time>
      </trkpt>
      <trkpt lat="47.44651" lon="6.63216">
        <ele>307</ele>
        <time>2015-07-08T08:26:35.000Z</time>
      </trkpt>
      <trkpt lat="47.44652" lon="6.63227">
        <ele>307</ele>
        <time>2015-07-08T08:26:36.000Z</time>
      </trkpt>
      <trkpt lat="47.44653" lon="6.63237">
        <ele>307</ele>
        <time>2015-07-08T08:26:37.000Z</time>
      </trkpt>
      <trkpt lat="47.44653" lon="6.63247">
        <ele>307</ele>
        <time>2015-07-08T08:26:38.000Z</time>
      </trkpt>
      <trkpt lat="47.44654" lon="6.63258">
        <ele>306</ele>
        <time>2015-07-08T08:26:39.000Z</time>
      </trkpt>
      <trkpt lat="47.44654" lon="6.63268">
        <ele>306</ele>
        <time>2015-07-08T08:26:40.000Z</time>
      </trkpt>
      <trkpt lat="47.44655" lon="6.63278">
        <ele>306</ele>
        <time>2015-07-08T08:26:41.000Z</time>
      </trkpt>
      <trkpt lat="47.44656" lon="6.63289">
        <ele>306</ele>
        <time>2015-07-08T08:26:42.000Z</time>
      </trkpt>
      <trkpt lat="47.44657" lon="6.63299">
        <ele>306</ele>
        <time>2015-07-08T08:26:43.000Z</time>
      </trkpt>
      <trkpt lat="47.44658" lon="6.63309">
        <ele>306</ele>
        <time>2015-07-08T08:26:44.000Z</time>
      </trkpt>
      <trkpt lat="47.44658" lon="6.6332">
        <ele>306</ele>
        <time>2015-07-08T08:26:45.000Z</time>
      </trkpt>
      <trkpt lat="47.44659" lon="6.6333">
        <ele>306</ele>
        <time>2015-07-08T08:26:46.000Z</time>
      </trkpt>
      <trkpt lat="47.4466" lon="6.63341">
        <ele>306</ele>
        <time>2015-07-08T08:26:47.000Z</time>
      </trkpt>
      <trkpt lat="47.44661" lon="6.63351">
        <ele>306</ele>
        <time>2015-07-08T08:26:48.000Z</time>
      </trkpt>
      <trkpt lat="47.44662" lon="6.63362">
        <ele>306</ele>
        <time>2015-07-08T08:26:49.000Z</time>
      </trkpt>
      <trkpt lat="47.44662" lon="6.63373">
        <ele>306</ele>
        <time>2015-07-08T08:26:50.000Z</time>
      </trkpt>
      <trkpt lat="47.44663" lon="6.63383">
        <ele>306</ele>
        <time>2015-07-08T08:26:51.000Z</time>
      </trkpt>
      <trkpt lat="47.44663" lon="6.63394">
        <ele>306</ele>
        <time>2015-07-08T08:26:52.000Z</time>
      </trkpt>
      <trkpt lat="47.44664" lon="6.63404">
        <ele>306</ele>
        <time>2015-07-08T08:26:53.000Z</time>
      </trkpt>
      <trkpt lat="47.44665" lon="6.63414">
        <ele>306</ele>
        <time>2015-07-08T08:26:54.000Z</time>
      </trkpt>
      <trkpt lat="47.44666" lon="6.63425">
        <ele>306</ele>
        <time>2015-07-08T08:26:55.000Z</time>
      </trkpt>
      <trkpt lat="47.44667" lon="6.63435">
        <ele>305</ele>
        <time>2015-07-08T08:26:56.000Z</time>
      </trkpt>
      <trkpt lat="47.44668" lon="6.63446">
        <ele>305</ele>
        <time>2015-07-08T08:26:57.000Z</time>
      </trkpt>
      <trkpt lat="47.44668" lon="6.63456">
        <ele>305</ele>
        <time>2015-07-08T08:26:58.000Z</time>
      </trkpt>
      <trkpt lat="47.44669" lon="6.63467">
        <ele>305</ele>
        <time>2015-07-08T08:26:59.000Z</time>
      </trkpt>
      <trkpt lat="47.4467" lon="6.63478">
        <ele>305</ele>
        <time>2015-07-08T08:27:00.000Z</time>
      </trkpt>
      <trkpt lat="47.44671" lon="6.63488">
        <ele>305</ele>
        <time>2015-07-08T08:27:01.000Z</time>
      </trkpt>
      <trkpt lat="47.44672" lon="6.63498">
        <ele>305</ele>
        <time>2015-07-08T08:27:02.000Z</time>
      </trkpt>
      <trkpt lat="47.44672" lon="6.63509">
        <ele>305</ele>
        <time>2015-07-08T08:27:03.000Z</time>
      </trkpt>
      <trkpt lat="47.44673" lon="6.63519">
        <ele>305</ele>
        <time>2015-07-08T08:27:04.000Z</time>
      </trkpt>
      <trkpt lat="47.44674" lon="6.6353">
        <ele>305</ele>
        <time>2015-07-08T08:27:05.000Z</time>
      </trkpt>
      <trkpt lat="47.44675" lon="6.6354">
        <ele>305</ele>
        <time>2015-07-08T08:27:06.000Z</time>
      </trkpt>
      <trkpt lat="47.44675" lon="6.6355">
        <ele>305</ele>
        <time>2015-07-08T08:27:07.000Z</time>
      </trkpt>
      <trkpt lat="47.44676" lon="6.63561">
        <ele>305</ele>
        <time>2015-07-08T08:27:08.000Z</time>
      </trkpt>
      <trkpt lat="47.44677" lon="6.63571">
        <ele>305</ele>
        <time>2015-07-08T08:27:09.000Z</time>
      </trkpt>
      <trkpt lat="47.44678" lon="6.63581">
        <ele>305</ele>
        <time>2015-07-08T08:27:10.000Z</time>
      </trkpt>
      <trkpt lat="47.44678" lon="6.63592">
        <ele>305</ele>
        <time>2015-07-08T08:27:11.000Z</time>
      </trkpt>
      <trkpt lat="47.44679" lon="6.63602">
        <ele>305</ele>
        <time>2015-07-08T08:27:12.000Z</time>
      </trkpt>
      <trkpt lat="47.4468" lon="6.63613">
        <ele>305</ele>
        <time>2015-07-08T08:27:13.000Z</time>
      </trkpt>
      <trkpt lat="47.4468" lon="6.63623">
        <ele>305</ele>
        <time>2015-07-08T08:27:14.000Z</time>
      </trkpt>
      <trkpt lat="47.44681" lon="6.63633">
        <ele>305</ele>
        <time>2015-07-08T08:27:15.000Z</time>
      </trkpt>
      <trkpt lat="47.44682" lon="6.63644">
        <ele>305</ele>
        <time>2015-07-08T08:27:16.000Z</time>
      </trkpt>
      <trkpt lat="47.44683" lon="6.63654">
        <ele>305</ele>
        <time>2015-07-08T08:27:17.000Z</time>
      </trkpt>
      <trkpt lat="47.44684" lon="6.63664">
        <ele>305</ele>
        <time>2015-07-08T08:27:18.000Z</time>
      </trkpt>
      <trkpt lat="47.44685" lon="6.63675">
        <ele>305</ele>
        <time>2015-07-08T08:27:19.000Z</time>
      </trkpt>
      <trkpt lat="47.44686" lon="6.63685">
        <ele>305</ele>
        <time>2015-07-08T08:27:20.000Z</time>
      </trkpt>
      <trkpt lat="47.44686" lon="6.63696">
        <ele>305</ele>
        <time>2015-07-08T08:27:21.000Z</time>
      </trkpt>
      <trkpt lat="47.44687" lon="6.63706">
        <ele>305</ele>
        <time>2015-07-08T08:27:22.000Z</time>
      </trkpt>
      <trkpt lat="47.44688" lon="6.63717">
        <ele>305</ele>
        <time>2015-07-08T08:27:23.000Z</time>
      </trkpt>
      <trkpt lat="47.44689" lon="6.63727">
        <ele>305</ele>
        <time>2015-07-08T08:27:24.000Z</time>
      </trkpt>
      <trkpt lat="47.4469" lon="6.63738">
        <ele>305</ele>
        <time>2015-07-08T08:27:25.000Z</time>
      </trkpt>
      <trkpt lat="47.44691" lon="6.63748">
        <ele>305</ele>
        <time>2015-07-08T08:27:26.000Z</time>
      </trkpt>
      <trkpt lat="47.44692" lon="6.63759">
        <ele>305</ele>
        <time>2015-07-08T08:27:27.000Z</time>
      </trkpt>
      <trkpt lat="47.44693" lon="6.6377">
        <ele>305</ele>
        <time>2015-07-08T08:27:28.000Z</time>
      </trkpt>
      <trkpt lat="47.44693" lon="6.63781">
        <ele>305</ele>
        <time>2015-07-08T08:27:29.000Z</time>
      </trkpt>
      <trkpt lat="47.44694" lon="6.63791">
        <ele>305</ele>
        <time>2015-07-08T08:27:30.000Z</time>
      </trkpt>
      <trkpt lat="47.44695" lon="6.63801">
        <ele>305</ele>
        <time>2015-07-08T08:27:31.000Z</time>
      </trkpt>
      <trkpt lat="47.44695" lon="6.63812">
        <ele>305</ele>
        <time>2015-07-08T08:27:32.000Z</time>
      </trkpt>
      <trkpt lat="47.44696" lon="6.63822">
        <ele>305</ele>
        <time>2015-07-08T08:27:33.000Z</time>
      </trkpt>
      <trkpt lat="47.44697" lon="6.63832">
        <ele>305</ele>
        <time>2015-07-08T08:27:34.000Z</time>
      </trkpt>
      <trkpt lat="47.44698" lon="6.63843">
        <ele>305</ele>
        <time>2015-07-08T08:27:35.000Z</time>
      </trkpt>
      <trkpt lat="47.44699" lon="6.63853">
        <ele>305</ele>
        <time>2015-07-08T08:27:36.000Z</time>
      </trkpt>
      <trkpt lat="47.44699" lon="6.63863">
        <ele>305</ele>
        <time>2015-07-08T08:27:37.000Z</time>
      </trkpt>
      <trkpt lat="47.447" lon="6.63874">
        <ele>305</ele>
        <time>2015-07-08T08:27:38.000Z</time>
      </trkpt>
      <trkpt lat="47.44701" lon="6.63884">
        <ele>305</ele>
        <time>2015-07-08T08:27:39.000Z</time>
      </trkpt>
      <trkpt lat="47.44702" lon="6.63895">
        <ele>305</ele>
        <time>2015-07-08T08:27:40.000Z</time>
      </trkpt>
      <trkpt lat="47.44702" lon="6.63905">
        <ele>305</ele>
        <time>2015-07-08T08:27:41.000Z</time>
      </trkpt>
      <trkpt lat="47.44703" lon="6.63916">
        <ele>305</ele>
        <time>2015-07-08T08:27:42.000Z</time>
      </trkpt>
      <trkpt lat="47.44704" lon="6.63927">
        <ele>305</ele>
        <time>2015-07-08T08:27:43.000Z</time>
      </trkpt>
      <trkpt lat="47.44705" lon="6.63937">
        <ele>305</ele>
        <time>2015-07-08T08:27:44.000Z</time>
      </trkpt>
      <trkpt lat="47.44706" lon="6.63948">
        <ele>305</ele>
        <time>2015-07-08T08:27:45.000Z</time>
      </trkpt>
      <trkpt lat="47.44707" lon="6.63959">
        <ele>305</ele>
        <time>2015-07-08T08:27:46.000Z</time>
      </trkpt>
      <trkpt lat="47.44708" lon="6.6397">
        <ele>305</ele>
        <time>2015-07-08T08:27:47.000Z</time>
      </trkpt>
      <trkpt lat="47.44709" lon="6.63982">
        <ele>305</ele>
        <time>2015-07-08T08:27:48.000Z</time>
      </trkpt>
      <trkpt lat="47.44709" lon="6.63993">
        <ele>305</ele>
        <time>2015-07-08T08:27:49.000Z</time>
      </trkpt>
      <trkpt lat="47.4471" lon="6.64004">
        <ele>305</ele>
        <time>2015-07-08T08:27:50.000Z</time>
      </trkpt>
      <trkpt lat="47.44711" lon="6.64016">
        <ele>305</ele>
        <time>2015-07-08T08:27:51.000Z</time>
      </trkpt>
      <trkpt lat="47.44712" lon="6.64027">
        <ele>305</ele>
        <time>2015-07-08T08:27:52.000Z</time>
      </trkpt>
      <trkpt lat="47.44713" lon="6.64039">
        <ele>305</ele>
        <time>2015-07-08T08:27:53.000Z</time>
      </trkpt>
      <trkpt lat="47.44714" lon="6.6405">
        <ele>305</ele>
        <time>2015-07-08T08:27:54.000Z</time>
      </trkpt>
      <trkpt lat="47.44715" lon="6.64062">
        <ele>305</ele>
        <time>2015-07-08T08:27:55.000Z</time>
      </trkpt>
      <trkpt lat="47.44716" lon="6.64073">
        <ele>305</ele>
        <time>2015-07-08T08:27:56.000Z</time>
      </trkpt>
      <trkpt lat="47.44717" lon="6.64084">
        <ele>305</ele>
        <time>2015-07-08T08:27:57.000Z</time>
      </trkpt>
      <trkpt lat="47.44718" lon="6.64095">
        <ele>305</ele>
        <time>2015-07-08T08:27:58.000Z</time>
      </trkpt>
      <trkpt lat="47.44719" lon="6.64106">
        <ele>305</ele>
        <time>2015-07-08T08:27:59.000Z</time>
      </trkpt>
      <trkpt lat="47.4472" lon="6.64117">
        <ele>305</ele>
        <time>2015-07-08T08:28:00.000Z</time>
      </trkpt>
      <trkpt lat="47.4472" lon="6.64128">
        <ele>305</ele>
        <time>2015-07-08T08:28:01.000Z</time>
      </trkpt>
      <trkpt lat="47.44721" lon="6.64138">
        <ele>305</ele>
        <time>2015-07-08T08:28:02.000Z</time>
      </trkpt>
      <trkpt lat="47.44722" lon="6.64149">
        <ele>305</ele>
        <time>2015-07-08T08:28:03.000Z</time>
      </trkpt>
      <trkpt lat="47.44723" lon="6.64159">
        <ele>305</ele>
        <time>2015-07-08T08:28:04.000Z</time>
      </trkpt>
      <trkpt lat="47.44724" lon="6.6417">
        <ele>305</ele>
        <time>2015-07-08T08:28:05.000Z</time>
      </trkpt>
      <trkpt lat="47.44725" lon="6.6418">
        <ele>305</ele>
        <time>2015-07-08T08:28:06.000Z</time>
      </trkpt>
      <trkpt lat="47.44726" lon="6.64191">
        <ele>305</ele>
        <time>2015-07-08T08:28:07.000Z</time>
      </trkpt>
      <trkpt lat="47.44726" lon="6.64202">
        <ele>305</ele>
        <time>2015-07-08T08:28:08.000Z</time>
      </trkpt>
      <trkpt lat="47.44727" lon="6.64213">
        <ele>305</ele>
        <time>2015-07-08T08:28:09.000Z</time>
      </trkpt>
      <trkpt lat="47.44728" lon="6.64223">
        <ele>305</ele>
        <time>2015-07-08T08:28:10.000Z</time>
      </trkpt>
      <trkpt lat="47.44729" lon="6.64234">
        <ele>305</ele>
        <time>2015-07-08T08:28:11.000Z</time>
      </trkpt>
      <trkpt lat="47.4473" lon="6.64245">
        <ele>305</ele>
        <time>2015-07-08T08:28:12.000Z</time>
      </trkpt>
      <trkpt lat="47.44731" lon="6.64255">
        <ele>305</ele>
        <time>2015-07-08T08:28:13.000Z</time>
      </trkpt>
      <trkpt lat="47.44731" lon="6.64266">
        <ele>305</ele>
        <time>2015-07-08T08:28:14.000Z</time>
      </trkpt>
      <trkpt lat="47.44732" lon="6.64277">
        <ele>305</ele>
        <time>2015-07-08T08:28:15.000Z</time>
      </trkpt>
      <trkpt lat="47.44733" lon="6.64287">
        <ele>305</ele>
        <time>2015-07-08T08:28:16.000Z</time>
      </trkpt>
      <trkpt lat="47.44734" lon="6.64298">
        <ele>305</ele>
        <time>2015-07-08T08:28:17.000Z</time>
      </trkpt>
      <trkpt lat="47.44734" lon="6.64308">
        <ele>305</ele>
        <time>2015-07-08T08:28:18.000Z</time>
      </trkpt>
      <trkpt lat="47.44735" lon="6.64318">
        <ele>305</ele>
        <time>2015-07-08T08:28:19.000Z</time>
      </trkpt>
      <trkpt lat="47.44737" lon="6.64329">
        <ele>305</ele>
        <time>2015-07-08T08:28:20.000Z</time>
      </trkpt>
      <trkpt lat="47.44738" lon="6.64339">
        <ele>305</ele>
        <time>2015-07-08T08:28:21.000Z</time>
      </trkpt>
      <trkpt lat="47.44738" lon="6.6435">
        <ele>305</ele>
        <time>2015-07-08T08:28:22.000Z</time>
      </trkpt>
      <trkpt lat="47.44739" lon="6.64361">
        <ele>305</ele>
        <time>2015-07-08T08:28:23.000Z</time>
      </trkpt>
      <trkpt lat="47.4474" lon="6.64372">
        <ele>305</ele>
        <time>2015-07-08T08:28:24.000Z</time>
      </trkpt>
      <trkpt lat="47.4474" lon="6.64382">
        <ele>305</ele>
        <time>2015-07-08T08:28:25.000Z</time>
      </trkpt>
      <trkpt lat="47.44741" lon="6.64393">
        <ele>305</ele>
        <time>2015-07-08T08:28:26.000Z</time>
      </trkpt>
      <trkpt lat="47.44742" lon="6.64404">
        <ele>305</ele>
        <time>2015-07-08T08:28:27.000Z</time>
      </trkpt>
      <trkpt lat="47.44743" lon="6.64414">
        <ele>305</ele>
        <time>2015-07-08T08:28:28.000Z</time>
      </trkpt>
      <trkpt lat="47.44744" lon="6.64425">
        <ele>305</ele>
        <time>2015-07-08T08:28:29.000Z</time>
      </trkpt>
      <trkpt lat="47.44745" lon="6.64436">
        <ele>305</ele>
        <time>2015-07-08T08:28:30.000Z</time>
      </trkpt>
      <trkpt lat="47.44746" lon="6.64447">
        <ele>305</ele>
        <time>2015-07-08T08:28:31.000Z</time>
      </trkpt>
      <trkpt lat="47.44746" lon="6.64458">
        <ele>305</ele>
        <time>2015-07-08T08:28:32.000Z</time>
      </trkpt>
      <trkpt lat="47.44747" lon="6.64468">
        <ele>305</ele>
        <time>2015-07-08T08:28:33.000Z</time>
      </trkpt>
      <trkpt lat="47.44748" lon="6.64479">
        <ele>305</ele>
        <time>2015-07-08T08:28:34.000Z</time>
      </trkpt>
      <trkpt lat="47.44749" lon="6.64489">
        <ele>305</ele>
        <time>2015-07-08T08:28:35.000Z</time>
      </trkpt>
      <trkpt lat="47.4475" lon="6.645">
        <ele>305</ele>
        <time>2015-07-08T08:28:36.000Z</time>
      </trkpt>
      <trkpt lat="47.4475" lon="6.6451">
        <ele>305</ele>
        <time>2015-07-08T08:28:37.000Z</time>
      </trkpt>
      <trkpt lat="47.44751" lon="6.64521">
        <ele>305</ele>
        <time>2015-07-08T08:28:38.000Z</time>
      </trkpt>
      <trkpt lat="47.44752" lon="6.64531">
        <ele>305</ele>
        <time>2015-07-08T08:28:39.000Z</time>
      </trkpt>
      <trkpt lat="47.44753" lon="6.64542">
        <ele>305</ele>
        <time>2015-07-08T08:28:40.000Z</time>
      </trkpt>
      <trkpt lat="47.44754" lon="6.64552">
        <ele>305</ele>
        <time>2015-07-08T08:28:41.000Z</time>
      </trkpt>
      <trkpt lat="47.44754" lon="6.64563">
        <ele>305</ele>
        <time>2015-07-08T08:28:42.000Z</time>
      </trkpt>
      <trkpt lat="47.44755" lon="6.64573">
        <ele>306</ele>
        <time>2015-07-08T08:28:43.000Z</time>
      </trkpt>
      <trkpt lat="47.44756" lon="6.64584">
        <ele>306</ele>
        <time>2015-07-08T08:28:44.000Z</time>
      </trkpt>
      <trkpt lat="47.44757" lon="6.64594">
        <ele>306</ele>
        <time>2015-07-08T08:28:45.000Z</time>
      </trkpt>
      <trkpt lat="47.44758" lon="6.64604">
        <ele>306</ele>
        <time>2015-07-08T08:28:46.000Z</time>
      </trkpt>
      <trkpt lat="47.44759" lon="6.64615">
        <ele>306</ele>
        <time>2015-07-08T08:28:47.000Z</time>
      </trkpt>
      <trkpt lat="47.4476" lon="6.64625">
        <ele>306</ele>
        <time>2015-07-08T08:28:48.000Z</time>
      </trkpt>
      <trkpt lat="47.44761" lon="6.64636">
        <ele>306</ele>
        <time>2015-07-08T08:28:49.000Z</time>
      </trkpt>
      <trkpt lat="47.44761" lon="6.64647">
        <ele>306</ele>
        <time>2015-07-08T08:28:50.000Z</time>
      </trkpt>
      <trkpt lat="47.44762" lon="6.64657">
        <ele>306</ele>
        <time>2015-07-08T08:28:51.000Z</time>
      </trkpt>
      <trkpt lat="47.44763" lon="6.64668">
        <ele>306</ele>
        <time>2015-07-08T08:28:52.000Z</time>
      </trkpt>
      <trkpt lat="47.44764" lon="6.64679">
        <ele>306</ele>
        <time>2015-07-08T08:28:53.000Z</time>
      </trkpt>
      <trkpt lat="47.44765" lon="6.64689">
        <ele>306</ele>
        <time>2015-07-08T08:28:54.000Z</time>
      </trkpt>
      <trkpt lat="47.44766" lon="6.647">
        <ele>306</ele>
        <time>2015-07-08T08:28:55.000Z</time>
      </trkpt>
      <trkpt lat="47.44767" lon="6.6471">
        <ele>306</ele>
        <time>2015-07-08T08:28:56.000Z</time>
      </trkpt>
      <trkpt lat="47.44768" lon="6.64721">
        <ele>306</ele>
        <time>2015-07-08T08:28:57.000Z</time>
      </trkpt>
      <trkpt lat="47.44769" lon="6.64732">
        <ele>306</ele>
        <time>2015-07-08T08:28:58.000Z</time>
      </trkpt>
      <trkpt lat="47.4477" lon="6.64742">
        <ele>306</ele>
        <time>2015-07-08T08:28:59.000Z</time>
      </trkpt>
      <trkpt lat="47.4477" lon="6.64753">
        <ele>306</ele>
        <time>2015-07-08T08:29:00.000Z</time>
      </trkpt>
      <trkpt lat="47.44771" lon="6.64763">
        <ele>306</ele>
        <time>2015-07-08T08:29:01.000Z</time>
      </trkpt>
      <trkpt lat="47.44772" lon="6.64774">
        <ele>306</ele>
        <time>2015-07-08T08:29:02.000Z</time>
      </trkpt>
      <trkpt lat="47.44773" lon="6.64784">
        <ele>305</ele>
        <time>2015-07-08T08:29:03.000Z</time>
      </trkpt>
      <trkpt lat="47.44774" lon="6.64794">
        <ele>305</ele>
        <time>2015-07-08T08:29:04.000Z</time>
      </trkpt>
      <trkpt lat="47.44775" lon="6.64805">
        <ele>305</ele>
        <time>2015-07-08T08:29:05.000Z</time>
      </trkpt>
      <trkpt lat="47.44775" lon="6.64815">
        <ele>305</ele>
        <time>2015-07-08T08:29:06.000Z</time>
      </trkpt>
      <trkpt lat="47.44776" lon="6.64826">
        <ele>305</ele>
        <time>2015-07-08T08:29:07.000Z</time>
      </trkpt>
      <trkpt lat="47.44776" lon="6.64837">
        <ele>305</ele>
        <time>2015-07-08T08:29:08.000Z</time>
      </trkpt>
      <trkpt lat="47.44777" lon="6.64848">
        <ele>304</ele>
        <time>2015-07-08T08:29:09.000Z</time>
      </trkpt>
      <trkpt lat="47.44778" lon="6.64858">
        <ele>304</ele>
        <time>2015-07-08T08:29:10.000Z</time>
      </trkpt>
      <trkpt lat="47.44779" lon="6.64869">
        <ele>304</ele>
        <time>2015-07-08T08:29:11.000Z</time>
      </trkpt>
      <trkpt lat="47.4478" lon="6.6488">
        <ele>304</ele>
        <time>2015-07-08T08:29:12.000Z</time>
      </trkpt>
      <trkpt lat="47.44781" lon="6.64891">
        <ele>304</ele>
        <time>2015-07-08T08:29:13.000Z</time>
      </trkpt>
      <trkpt lat="47.44782" lon="6.64902">
        <ele>304</ele>
        <time>2015-07-08T08:29:14.000Z</time>
      </trkpt>
      <trkpt lat="47.44783" lon="6.64913">
        <ele>304</ele>
        <time>2015-07-08T08:29:15.000Z</time>
      </trkpt>
      <trkpt lat="47.44784" lon="6.64923">
        <ele>304</ele>
        <time>2015-07-08T08:29:16.000Z</time>
      </trkpt>
      <trkpt lat="47.44785" lon="6.64932">
        <ele>304</ele>
        <time>2015-07-08T08:29:17.000Z</time>
      </trkpt>
      <trkpt lat="47.44787" lon="6.64942">
        <ele>304</ele>
        <time>2015-07-08T08:29:18.000Z</time>
      </trkpt>
      <trkpt lat="47.4479" lon="6.64952">
        <ele>304</ele>
        <time>2015-07-08T08:29:19.000Z</time>
      </trkpt>
      <trkpt lat="47.44791" lon="6.64962">
        <ele>304</ele>
        <time>2015-07-08T08:29:20.000Z</time>
      </trkpt>
      <trkpt lat="47.44793" lon="6.64973">
        <ele>304</ele>
        <time>2015-07-08T08:29:21.000Z</time>
      </trkpt>
      <trkpt lat="47.44793" lon="6.64983">
        <ele>304</ele>
        <time>2015-07-08T08:29:22.000Z</time>
      </trkpt>
      <trkpt lat="47.44794" lon="6.64992">
        <ele>304</ele>
        <time>2015-07-08T08:29:23.000Z</time>
      </trkpt>
      <trkpt lat="47.44794" lon="6.65001">
        <ele>304</ele>
        <time>2015-07-08T08:29:24.000Z</time>
      </trkpt>
      <trkpt lat="47.44794" lon="6.6501">
        <ele>304</ele>
        <time>2015-07-08T08:29:25.000Z</time>
      </trkpt>
      <trkpt lat="47.44793" lon="6.65018">
        <ele>304</ele>
        <time>2015-07-08T08:29:26.000Z</time>
      </trkpt>
      <trkpt lat="47.44793" lon="6.65027">
        <ele>304</ele>
        <time>2015-07-08T08:29:27.000Z</time>
      </trkpt>
      <trkpt lat="47.44793" lon="6.65037">
        <ele>304</ele>
        <time>2015-07-08T08:29:28.000Z</time>
      </trkpt>
      <trkpt lat="47.44794" lon="6.65046">
        <ele>305</ele>
        <time>2015-07-08T08:29:29.000Z</time>
      </trkpt>
      <trkpt lat="47.44794" lon="6.65055">
        <ele>305</ele>
        <time>2015-07-08T08:29:30.000Z</time>
      </trkpt>
      <trkpt lat="47.44795" lon="6.65065">
        <ele>305</ele>
        <time>2015-07-08T08:29:31.000Z</time>
      </trkpt>
      <trkpt lat="47.44796" lon="6.65075">
        <ele>305</ele>
        <time>2015-07-08T08:29:32.000Z</time>
      </trkpt>
      <trkpt lat="47.44796" lon="6.65085">
        <ele>305</ele>
        <time>2015-07-08T08:29:33.000Z</time>
      </trkpt>
      <trkpt lat="47.44797" lon="6.65095">
        <ele>305</ele>
        <time>2015-07-08T08:29:34.000Z</time>
      </trkpt>
      <trkpt lat="47.44798" lon="6.65105">
        <ele>305</ele>
        <time>2015-07-08T08:29:35.000Z</time>
      </trkpt>
      <trkpt lat="47.44799" lon="6.65116">
        <ele>305</ele>
        <time>2015-07-08T08:29:36.000Z</time>
      </trkpt>
      <trkpt lat="47.44799" lon="6.65126">
        <ele>305</ele>
        <time>2015-07-08T08:29:37.000Z</time>
      </trkpt>
      <trkpt lat="47.448" lon="6.65137">
        <ele>305</ele>
        <time>2015-07-08T08:29:38.000Z</time>
      </trkpt>
      <trkpt lat="47.44801" lon="6.65147">
        <ele>305</ele>
        <time>2015-07-08T08:29:39.000Z</time>
      </trkpt>
      <trkpt lat="47.44802" lon="6.65157">
        <ele>305</ele>
        <time>2015-07-08T08:29:40.000Z</time>
      </trkpt>
      <trkpt lat="47.44802" lon="6.65166">
        <ele>305</ele>
        <time>2015-07-08T08:29:41.000Z</time>
      </trkpt>
      <trkpt lat="47.44803" lon="6.65175">
        <ele>305</ele>
        <time>2015-07-08T08:29:42.000Z</time>
      </trkpt>
      <trkpt lat="47.44804" lon="6.65184">
        <ele>305</ele>
        <time>2015-07-08T08:29:43.000Z</time>
      </trkpt>
      <trkpt lat="47.44804" lon="6.65193">
        <ele>305</ele>
        <time>2015-07-08T08:29:44.000Z</time>
      </trkpt>
      <trkpt lat="47.44805" lon="6.65202">
        <ele>305</ele>
        <time>2015-07-08T08:29:45.000Z</time>
      </trkpt>
      <trkpt lat="47.44806" lon="6.65212">
        <ele>305</ele>
        <time>2015-07-08T08:29:46.000Z</time>
      </trkpt>
      <trkpt lat="47.44807" lon="6.65221">
        <ele>305</ele>
        <time>2015-07-08T08:29:47.000Z</time>
      </trkpt>
      <trkpt lat="47.44807" lon="6.65231">
        <ele>305</ele>
        <time>2015-07-08T08:29:48.000Z</time>
      </trkpt>
      <trkpt lat="47.44808" lon="6.6524">
        <ele>305</ele>
        <time>2015-07-08T08:29:49.000Z</time>
      </trkpt>
      <trkpt lat="47.44809" lon="6.6525">
        <ele>306</ele>
        <time>2015-07-08T08:29:50.000Z</time>
      </trkpt>
      <trkpt lat="47.44809" lon="6.65259">
        <ele>306</ele>
        <time>2015-07-08T08:29:51.000Z</time>
      </trkpt>
      <trkpt lat="47.4481" lon="6.65269">
        <ele>306</ele>
        <time>2015-07-08T08:29:52.000Z</time>
      </trkpt>
      <trkpt lat="47.44811" lon="6.65278">
        <ele>306</ele>
        <time>2015-07-08T08:29:53.000Z</time>
      </trkpt>
      <trkpt lat="47.44812" lon="6.65288">
        <ele>306</ele>
        <time>2015-07-08T08:29:54.000Z</time>
      </trkpt>
      <trkpt lat="47.44813" lon="6.65297">
        <ele>306</ele>
        <time>2015-07-08T08:29:55.000Z</time>
      </trkpt>
      <trkpt lat="47.44813" lon="6.65306">
        <ele>306</ele>
        <time>2015-07-08T08:29:56.000Z</time>
      </trkpt>
      <trkpt lat="47.44814" lon="6.65315">
        <ele>306</ele>
        <time>2015-07-08T08:29:57.000Z</time>
      </trkpt>
      <trkpt lat="47.44814" lon="6.65324">
        <ele>306</ele>
        <time>2015-07-08T08:29:58.000Z</time>
      </trkpt>
      <trkpt lat="47.44815" lon="6.65333">
        <ele>306</ele>
        <time>2015-07-08T08:29:59.000Z</time>
      </trkpt>
      <trkpt lat="47.44816" lon="6.65342">
        <ele>306</ele>
        <time>2015-07-08T08:30:00.000Z</time>
      </trkpt>
      <trkpt lat="47.44817" lon="6.65352">
        <ele>306</ele>
        <time>2015-07-08T08:30:01.000Z</time>
      </trkpt>
      <trkpt lat="47.44817" lon="6.65361">
        <ele>306</ele>
        <time>2015-07-08T08:30:02.000Z</time>
      </trkpt>
      <trkpt lat="47.44818" lon="6.6537">
        <ele>306</ele>
        <time>2015-07-08T08:30:03.000Z</time>
      </trkpt>
      <trkpt lat="47.44819" lon="6.6538">
        <ele>306</ele>
        <time>2015-07-08T08:30:04.000Z</time>
      </trkpt>
      <trkpt lat="47.4482" lon="6.65389">
        <ele>306</ele>
        <time>2015-07-08T08:30:05.000Z</time>
      </trkpt>
      <trkpt lat="47.44821" lon="6.65399">
        <ele>306</ele>
        <time>2015-07-08T08:30:06.000Z</time>
      </trkpt>
      <trkpt lat="47.44821" lon="6.65409">
        <ele>306</ele>
        <time>2015-07-08T08:30:07.000Z</time>
      </trkpt>
      <trkpt lat="47.44822" lon="6.65419">
        <ele>306</ele>
        <time>2015-07-08T08:30:08.000Z</time>
      </trkpt>
      <trkpt lat="47.44823" lon="6.65429">
        <ele>306</ele>
        <time>2015-07-08T08:30:09.000Z</time>
      </trkpt>
      <trkpt lat="47.44823" lon="6.65439">
        <ele>306</ele>
        <time>2015-07-08T08:30:10.000Z</time>
      </trkpt>
      <trkpt lat="47.44824" lon="6.65449">
        <ele>306</ele>
        <time>2015-07-08T08:30:11.000Z</time>
      </trkpt>
      <trkpt lat="47.44825" lon="6.65459">
        <ele>306</ele>
        <time>2015-07-08T08:30:12.000Z</time>
      </trkpt>
      <trkpt lat="47.44826" lon="6.65469">
        <ele>306</ele>
        <time>2015-07-08T08:30:13.000Z</time>
      </trkpt>
      <trkpt lat="47.44827" lon="6.65479">
        <ele>306</ele>
        <time>2015-07-08T08:30:14.000Z</time>
      </trkpt>
      <trkpt lat="47.44828" lon="6.65489">
        <ele>306</ele>
        <time>2015-07-08T08:30:15.000Z</time>
      </trkpt>
      <trkpt lat="47.44828" lon="6.65499">
        <ele>306</ele>
        <time>2015-07-08T08:30:16.000Z</time>
      </trkpt>
      <trkpt lat="47.44829" lon="6.65509">
        <ele>306</ele>
        <time>2015-07-08T08:30:17.000Z</time>
      </trkpt>
      <trkpt lat="47.4483" lon="6.65519">
        <ele>306</ele>
        <time>2015-07-08T08:30:18.000Z</time>
      </trkpt>
      <trkpt lat="47.4483" lon="6.65529">
        <ele>306</ele>
        <time>2015-07-08T08:30:19.000Z</time>
      </trkpt>
      <trkpt lat="47.44831" lon="6.65539">
        <ele>306</ele>
        <time>2015-07-08T08:30:20.000Z</time>
      </trkpt>
      <trkpt lat="47.44832" lon="6.6555">
        <ele>306</ele>
        <time>2015-07-08T08:30:21.000Z</time>
      </trkpt>
      <trkpt lat="47.44833" lon="6.65559">
        <ele>306</ele>
        <time>2015-07-08T08:30:22.000Z</time>
      </trkpt>
      <trkpt lat="47.44833" lon="6.65569">
        <ele>306</ele>
        <time>2015-07-08T08:30:23.000Z</time>
      </trkpt>
      <trkpt lat="47.44834" lon="6.65579">
        <ele>306</ele>
        <time>2015-07-08T08:30:24.000Z</time>
      </trkpt>
      <trkpt lat="47.44835" lon="6.65588">
        <ele>306</ele>
        <time>2015-07-08T08:30:25.000Z</time>
      </trkpt>
      <trkpt lat="47.44835" lon="6.65598">
        <ele>306</ele>
        <time>2015-07-08T08:30:26.000Z</time>
      </trkpt>
      <trkpt lat="47.44836" lon="6.65608">
        <ele>306</ele>
        <time>2015-07-08T08:30:27.000Z</time>
      </trkpt>
      <trkpt lat="47.44837" lon="6.65618">
        <ele>306</ele>
        <time>2015-07-08T08:30:28.000Z</time>
      </trkpt>
      <trkpt lat="47.44838" lon="6.65628">
        <ele>306</ele>
        <time>2015-07-08T08:30:29.000Z</time>
      </trkpt>
      <trkpt lat="47.44838" lon="6.65638">
        <ele>306</ele>
        <time>2015-07-08T08:30:30.000Z</time>
      </trkpt>
      <trkpt lat="47.44839" lon="6.65648">
        <ele>306</ele>
        <time>2015-07-08T08:30:31.000Z</time>
      </trkpt>
      <trkpt lat="47.4484" lon="6.65658">
        <ele>306</ele>
        <time>2015-07-08T08:30:32.000Z</time>
      </trkpt>
      <trkpt lat="47.44841" lon="6.65668">
        <ele>306</ele>
        <time>2015-07-08T08:30:33.000Z</time>
      </trkpt>
      <trkpt lat="47.44841" lon="6.65679">
        <ele>306</ele>
        <time>2015-07-08T08:30:34.000Z</time>
      </trkpt>
      <trkpt lat="47.44842" lon="6.65689">
        <ele>306</ele>
        <time>2015-07-08T08:30:35.000Z</time>
      </trkpt>
      <trkpt lat="47.44843" lon="6.65699">
        <ele>306</ele>
        <time>2015-07-08T08:30:36.000Z</time>
      </trkpt>
      <trkpt lat="47.44844" lon="6.65709">
        <ele>306</ele>
        <time>2015-07-08T08:30:37.000Z</time>
      </trkpt>
      <trkpt lat="47.44845" lon="6.65719">
        <ele>306</ele>
        <time>2015-07-08T08:30:38.000Z</time>
      </trkpt>
      <trkpt lat="47.44845" lon="6.65729">
        <ele>306</ele>
        <time>2015-07-08T08:30:39.000Z</time>
      </trkpt>
      <trkpt lat="47.44846" lon="6.6574">
        <ele>306</ele>
        <time>2015-07-08T08:30:40.000Z</time>
      </trkpt>
      <trkpt lat="47.44847" lon="6.6575">
        <ele>306</ele>
        <time>2015-07-08T08:30:41.000Z</time>
      </trkpt>
      <trkpt lat="47.44848" lon="6.6576">
        <ele>306</ele>
        <time>2015-07-08T08:30:42.000Z</time>
      </trkpt>
      <trkpt lat="47.44849" lon="6.65771">
        <ele>306</ele>
        <time>2015-07-08T08:30:43.000Z</time>
      </trkpt>
      <trkpt lat="47.4485" lon="6.65781">
        <ele>306</ele>
        <time>2015-07-08T08:30:44.000Z</time>
      </trkpt>
      <trkpt lat="47.44851" lon="6.65791">
        <ele>306</ele>
        <time>2015-07-08T08:30:45.000Z</time>
      </trkpt>
      <trkpt lat="47.44851" lon="6.65801">
        <ele>306</ele>
        <time>2015-07-08T08:30:46.000Z</time>
      </trkpt>
      <trkpt lat="47.44852" lon="6.65811">
        <ele>306</ele>
        <time>2015-07-08T08:30:47.000Z</time>
      </trkpt>
      <trkpt lat="47.44853" lon="6.65821">
        <ele>306</ele>
        <time>2015-07-08T08:30:48.000Z</time>
      </trkpt>
      <trkpt lat="47.44854" lon="6.65831">
        <ele>306</ele>
        <time>2015-07-08T08:30:49.000Z</time>
      </trkpt>
      <trkpt lat="47.44855" lon="6.65841">
        <ele>306</ele>
        <time>2015-07-08T08:30:50.000Z</time>
      </trkpt>
      <trkpt lat="47.44856" lon="6.65851">
        <ele>306</ele>
        <time>2015-07-08T08:30:51.000Z</time>
      </trkpt>
      <trkpt lat="47.44856" lon="6.65862">
        <ele>306</ele>
        <time>2015-07-08T08:30:52.000Z</time>
      </trkpt>
      <trkpt lat="47.44857" lon="6.65872">
        <ele>306</ele>
        <time>2015-07-08T08:30:53.000Z</time>
      </trkpt>
      <trkpt lat="47.44858" lon="6.65882">
        <ele>306</ele>
        <time>2015-07-08T08:30:54.000Z</time>
      </trkpt>
      <trkpt lat="47.44858" lon="6.65893">
        <ele>306</ele>
        <time>2015-07-08T08:30:55.000Z</time>
      </trkpt>
      <trkpt lat="47.44859" lon="6.65903">
        <ele>306</ele>
        <time>2015-07-08T08:30:56.000Z</time>
      </trkpt>
      <trkpt lat="47.4486" lon="6.65913">
        <ele>306</ele>
        <time>2015-07-08T08:30:57.000Z</time>
      </trkpt>
      <trkpt lat="47.44861" lon="6.65923">
        <ele>307</ele>
        <time>2015-07-08T08:30:58.000Z</time>
      </trkpt>
      <trkpt lat="47.44861" lon="6.65934">
        <ele>307</ele>
        <time>2015-07-08T08:30:59.000Z</time>
      </trkpt>
      <trkpt lat="47.44862" lon="6.65944">
        <ele>307</ele>
        <time>2015-07-08T08:31:00.000Z</time>
      </trkpt>
      <trkpt lat="47.44863" lon="6.65954">
        <ele>307</ele>
        <time>2015-07-08T08:31:01.000Z</time>
      </trkpt>
      <trkpt lat="47.44864" lon="6.65965">
        <ele>307</ele>
        <time>2015-07-08T08:31:02.000Z</time>
      </trkpt>
      <trkpt lat="47.44864" lon="6.65975">
        <ele>307</ele>
        <time>2015-07-08T08:31:03.000Z</time>
      </trkpt>
      <trkpt lat="47.44865" lon="6.65986">
        <ele>307</ele>
        <time>2015-07-08T08:31:04.000Z</time>
      </trkpt>
      <trkpt lat="47.44866" lon="6.65996">
        <ele>307</ele>
        <time>2015-07-08T08:31:05.000Z</time>
      </trkpt>
      <trkpt lat="47.44867" lon="6.66007">
        <ele>307</ele>
        <time>2015-07-08T08:31:06.000Z</time>
      </trkpt>
      <trkpt lat="47.44868" lon="6.66018">
        <ele>307</ele>
        <time>2015-07-08T08:31:07.000Z</time>
      </trkpt>
      <trkpt lat="47.44868" lon="6.66028">
        <ele>307</ele>
        <time>2015-07-08T08:31:08.000Z</time>
      </trkpt>
      <trkpt lat="47.44869" lon="6.66039">
        <ele>307</ele>
        <time>2015-07-08T08:31:09.000Z</time>
      </trkpt>
      <trkpt lat="47.4487" lon="6.66049">
        <ele>307</ele>
        <time>2015-07-08T08:31:10.000Z</time>
      </trkpt>
      <trkpt lat="47.44871" lon="6.6606">
        <ele>307</ele>
        <time>2015-07-08T08:31:11.000Z</time>
      </trkpt>
      <trkpt lat="47.44872" lon="6.6607">
        <ele>307</ele>
        <time>2015-07-08T08:31:12.000Z</time>
      </trkpt>
      <trkpt lat="47.44872" lon="6.66081">
        <ele>307</ele>
        <time>2015-07-08T08:31:13.000Z</time>
      </trkpt>
      <trkpt lat="47.44873" lon="6.66091">
        <ele>307</ele>
        <time>2015-07-08T08:31:14.000Z</time>
      </trkpt>
      <trkpt lat="47.44874" lon="6.66101">
        <ele>307</ele>
        <time>2015-07-08T08:31:15.000Z</time>
      </trkpt>
      <trkpt lat="47.44875" lon="6.66112">
        <ele>307</ele>
        <time>2015-07-08T08:31:16.000Z</time>
      </trkpt>
      <trkpt lat="47.44876" lon="6.66122">
        <ele>307</ele>
        <time>2015-07-08T08:31:17.000Z</time>
      </trkpt>
      <trkpt lat="47.44877" lon="6.66133">
        <ele>307</ele>
        <time>2015-07-08T08:31:18.000Z</time>
      </trkpt>
      <trkpt lat="47.44877" lon="6.66143">
        <ele>307</ele>
        <time>2015-07-08T08:31:19.000Z</time>
      </trkpt>
      <trkpt lat="47.44878" lon="6.66154">
        <ele>307</ele>
        <time>2015-07-08T08:31:20.000Z</time>
      </trkpt>
      <trkpt lat="47.44879" lon="6.66165">
        <ele>307</ele>
        <time>2015-07-08T08:31:21.000Z</time>
      </trkpt>
      <trkpt lat="47.44879" lon="6.66175">
        <ele>307</ele>
        <time>2015-07-08T08:31:22.000Z</time>
      </trkpt>
      <trkpt lat="47.4488" lon="6.66186">
        <ele>307</ele>
        <time>2015-07-08T08:31:23.000Z</time>
      </trkpt>
      <trkpt lat="47.44881" lon="6.66196">
        <ele>307</ele>
        <time>2015-07-08T08:31:24.000Z</time>
      </trkpt>
      <trkpt lat="47.44882" lon="6.66206">
        <ele>307</ele>
        <time>2015-07-08T08:31:25.000Z</time>
      </trkpt>
      <trkpt lat="47.44882" lon="6.66217">
        <ele>307</ele>
        <time>2015-07-08T08:31:26.000Z</time>
      </trkpt>
      <trkpt lat="47.44883" lon="6.66227">
        <ele>307</ele>
        <time>2015-07-08T08:31:27.000Z</time>
      </trkpt>
      <trkpt lat="47.44884" lon="6.66238">
        <ele>307</ele>
        <time>2015-07-08T08:31:28.000Z</time>
      </trkpt>
      <trkpt lat="47.44885" lon="6.66248">
        <ele>307</ele>
        <time>2015-07-08T08:31:29.000Z</time>
      </trkpt>
      <trkpt lat="47.44886" lon="6.66258">
        <ele>307</ele>
        <time>2015-07-08T08:31:30.000Z</time>
      </trkpt>
      <trkpt lat="47.44887" lon="6.66269">
        <ele>307</ele>
        <time>2015-07-08T08:31:31.000Z</time>
      </trkpt>
      <trkpt lat="47.44888" lon="6.66279">
        <ele>307</ele>
        <time>2015-07-08T08:31:32.000Z</time>
      </trkpt>
      <trkpt lat="47.44888" lon="6.6629">
        <ele>307</ele>
        <time>2015-07-08T08:31:33.000Z</time>
      </trkpt>
      <trkpt lat="47.44889" lon="6.663">
        <ele>307</ele>
        <time>2015-07-08T08:31:34.000Z</time>
      </trkpt>
      <trkpt lat="47.4489" lon="6.6631">
        <ele>307</ele>
        <time>2015-07-08T08:31:35.000Z</time>
      </trkpt>
      <trkpt lat="47.44891" lon="6.6632">
        <ele>307</ele>
        <time>2015-07-08T08:31:36.000Z</time>
      </trkpt>
      <trkpt lat="47.44892" lon="6.66331">
        <ele>307</ele>
        <time>2015-07-08T08:31:37.000Z</time>
      </trkpt>
      <trkpt lat="47.44893" lon="6.66341">
        <ele>307</ele>
        <time>2015-07-08T08:31:38.000Z</time>
      </trkpt>
      <trkpt lat="47.44893" lon="6.66351">
        <ele>307</ele>
        <time>2015-07-08T08:31:39.000Z</time>
      </trkpt>
      <trkpt lat="47.44894" lon="6.66362">
        <ele>307</ele>
        <time>2015-07-08T08:31:40.000Z</time>
      </trkpt>
      <trkpt lat="47.44895" lon="6.66372">
        <ele>307</ele>
        <time>2015-07-08T08:31:41.000Z</time>
      </trkpt>
      <trkpt lat="47.44895" lon="6.66382">
        <ele>307</ele>
        <time>2015-07-08T08:31:42.000Z</time>
      </trkpt>
      <trkpt lat="47.44896" lon="6.66392">
        <ele>307</ele>
        <time>2015-07-08T08:31:43.000Z</time>
      </trkpt>
      <trkpt lat="47.44897" lon="6.66402">
        <ele>307</ele>
        <time>2015-07-08T08:31:44.000Z</time>
      </trkpt>
      <trkpt lat="47.44897" lon="6.66412">
        <ele>307</ele>
        <time>2015-07-08T08:31:45.000Z</time>
      </trkpt>
      <trkpt lat="47.44898" lon="6.66423">
        <ele>307</ele>
        <time>2015-07-08T08:31:46.000Z</time>
      </trkpt>
      <trkpt lat="47.44899" lon="6.66433">
        <ele>307</ele>
        <time>2015-07-08T08:31:47.000Z</time>
      </trkpt>
      <trkpt lat="47.449" lon="6.66443">
        <ele>307</ele>
        <time>2015-07-08T08:31:48.000Z</time>
      </trkpt>
      <trkpt lat="47.44901" lon="6.66453">
        <ele>307</ele>
        <time>2015-07-08T08:31:49.000Z</time>
      </trkpt>
      <trkpt lat="47.44901" lon="6.66463">
        <ele>307</ele>
        <time>2015-07-08T08:31:50.000Z</time>
      </trkpt>
      <trkpt lat="47.44902" lon="6.66474">
        <ele>307</ele>
        <time>2015-07-08T08:31:51.000Z</time>
      </trkpt>
      <trkpt lat="47.44903" lon="6.66484">
        <ele>307</ele>
        <time>2015-07-08T08:31:52.000Z</time>
      </trkpt>
      <trkpt lat="47.44904" lon="6.66494">
        <ele>307</ele>
        <time>2015-07-08T08:31:53.000Z</time>
      </trkpt>
      <trkpt lat="47.44905" lon="6.66504">
        <ele>307</ele>
        <time>2015-07-08T08:31:54.000Z</time>
      </trkpt>
      <trkpt lat="47.44906" lon="6.66514">
        <ele>307</ele>
        <time>2015-07-08T08:31:55.000Z</time>
      </trkpt>
      <trkpt lat="47.44907" lon="6.66524">
        <ele>307</ele>
        <time>2015-07-08T08:31:56.000Z</time>
      </trkpt>
      <trkpt lat="47.44907" lon="6.66534">
        <ele>307</ele>
        <time>2015-07-08T08:31:57.000Z</time>
      </trkpt>
      <trkpt lat="47.44908" lon="6.66545">
        <ele>306</ele>
        <time>2015-07-08T08:31:58.000Z</time>
      </trkpt>
      <trkpt lat="47.44909" lon="6.66555">
        <ele>306</ele>
        <time>2015-07-08T08:31:59.000Z</time>
      </trkpt>
      <trkpt lat="47.4491" lon="6.66565">
        <ele>306</ele>
        <time>2015-07-08T08:32:00.000Z</time>
      </trkpt>
      <trkpt lat="47.4491" lon="6.66576">
        <ele>306</ele>
        <time>2015-07-08T08:32:01.000Z</time>
      </trkpt>
      <trkpt lat="47.44911" lon="6.66586">
        <ele>306</ele>
        <time>2015-07-08T08:32:02.000Z</time>
      </trkpt>
      <trkpt lat="47.44912" lon="6.66596">
        <ele>306</ele>
        <time>2015-07-08T08:32:03.000Z</time>
      </trkpt>
      <trkpt lat="47.44912" lon="6.66607">
        <ele>306</ele>
        <time>2015-07-08T08:32:04.000Z</time>
      </trkpt>
      <trkpt lat="47.44913" lon="6.66617">
        <ele>306</ele>
        <time>2015-07-08T08:32:05.000Z</time>
      </trkpt>
      <trkpt lat="47.44914" lon="6.66627">
        <ele>306</ele>
        <time>2015-07-08T08:32:06.000Z</time>
      </trkpt>
      <trkpt lat="47.44915" lon="6.66638">
        <ele>306</ele>
        <time>2015-07-08T08:32:07.000Z</time>
      </trkpt>
      <trkpt lat="47.44915" lon="6.66648">
        <ele>306</ele>
        <time>2015-07-08T08:32:08.000Z</time>
      </trkpt>
      <trkpt lat="47.44916" lon="6.66658">
        <ele>306</ele>
        <time>2015-07-08T08:32:09.000Z</time>
      </trkpt>
      <trkpt lat="47.44917" lon="6.66669">
        <ele>306</ele>
        <time>2015-07-08T08:32:10.000Z</time>
      </trkpt>
      <trkpt lat="47.44918" lon="6.66679">
        <ele>306</ele>
        <time>2015-07-08T08:32:11.000Z</time>
      </trkpt>
      <trkpt lat="47.44919" lon="6.66689">
        <ele>306</ele>
        <time>2015-07-08T08:32:12.000Z</time>
      </trkpt>
      <trkpt lat="47.44919" lon="6.66699">
        <ele>306</ele>
        <time>2015-07-08T08:32:13.000Z</time>
      </trkpt>
      <trkpt lat="47.4492" lon="6.6671">
        <ele>306</ele>
        <time>2015-07-08T08:32:14.000Z</time>
      </trkpt>
      <trkpt lat="47.44921" lon="6.6672">
        <ele>306</ele>
        <time>2015-07-08T08:32:15.000Z</time>
      </trkpt>
      <trkpt lat="47.44922" lon="6.66731">
        <ele>306</ele>
        <time>2015-07-08T08:32:16.000Z</time>
      </trkpt>
      <trkpt lat="47.44923" lon="6.66741">
        <ele>306</ele>
        <time>2015-07-08T08:32:17.000Z</time>
      </trkpt>
      <trkpt lat="47.44923" lon="6.66752">
        <ele>306</ele>
        <time>2015-07-08T08:32:18.000Z</time>
      </trkpt>
      <trkpt lat="47.44924" lon="6.66763">
        <ele>306</ele>
        <time>2015-07-08T08:32:19.000Z</time>
      </trkpt>
      <trkpt lat="47.44925" lon="6.66773">
        <ele>306</ele>
        <time>2015-07-08T08:32:20.000Z</time>
      </trkpt>
      <trkpt lat="47.44926" lon="6.66784">
        <ele>306</ele>
        <time>2015-07-08T08:32:21.000Z</time>
      </trkpt>
      <trkpt lat="47.44926" lon="6.66794">
        <ele>306</ele>
        <time>2015-07-08T08:32:22.000Z</time>
      </trkpt>
      <trkpt lat="47.44927" lon="6.66805">
        <ele>306</ele>
        <time>2015-07-08T08:32:23.000Z</time>
      </trkpt>
      <trkpt lat="47.44928" lon="6.66815">
        <ele>306</ele>
        <time>2015-07-08T08:32:24.000Z</time>
      </trkpt>
      <trkpt lat="47.44929" lon="6.66826">
        <ele>306</ele>
        <time>2015-07-08T08:32:25.000Z</time>
      </trkpt>
      <trkpt lat="47.4493" lon="6.66836">
        <ele>306</ele>
        <time>2015-07-08T08:32:26.000Z</time>
      </trkpt>
      <trkpt lat="47.44931" lon="6.66846">
        <ele>306</ele>
        <time>2015-07-08T08:32:27.000Z</time>
      </trkpt>
      <trkpt lat="47.44932" lon="6.66857">
        <ele>306</ele>
        <time>2015-07-08T08:32:28.000Z</time>
      </trkpt>
      <trkpt lat="47.44932" lon="6.66867">
        <ele>306</ele>
        <time>2015-07-08T08:32:29.000Z</time>
      </trkpt>
      <trkpt lat="47.44933" lon="6.66878">
        <ele>306</ele>
        <time>2015-07-08T08:32:30.000Z</time>
      </trkpt>
      <trkpt lat="47.44934" lon="6.66888">
        <ele>306</ele>
        <time>2015-07-08T08:32:31.000Z</time>
      </trkpt>
      <trkpt lat="47.44935" lon="6.66899">
        <ele>306</ele>
        <time>2015-07-08T08:32:32.000Z</time>
      </trkpt>
      <trkpt lat="47.44936" lon="6.6691">
        <ele>306</ele>
        <time>2015-07-08T08:32:33.000Z</time>
      </trkpt>
      <trkpt lat="47.44937" lon="6.6692">
        <ele>306</ele>
        <time>2015-07-08T08:32:34.000Z</time>
      </trkpt>
      <trkpt lat="47.44938" lon="6.66931">
        <ele>306</ele>
        <time>2015-07-08T08:32:35.000Z</time>
      </trkpt>
      <trkpt lat="47.44939" lon="6.66942">
        <ele>306</ele>
        <time>2015-07-08T08:32:36.000Z</time>
      </trkpt>
      <trkpt lat="47.4494" lon="6.66952">
        <ele>306</ele>
        <time>2015-07-08T08:32:37.000Z</time>
      </trkpt>
      <trkpt lat="47.44941" lon="6.66963">
        <ele>306</ele>
        <time>2015-07-08T08:32:38.000Z</time>
      </trkpt>
      <trkpt lat="47.44941" lon="6.66973">
        <ele>306</ele>
        <time>2015-07-08T08:32:39.000Z</time>
      </trkpt>
      <trkpt lat="47.44942" lon="6.66984">
        <ele>306</ele>
        <time>2015-07-08T08:32:40.000Z</time>
      </trkpt>
      <trkpt lat="47.44943" lon="6.66994">
        <ele>306</ele>
        <time>2015-07-08T08:32:41.000Z</time>
      </trkpt>
      <trkpt lat="47.44944" lon="6.67005">
        <ele>306</ele>
        <time>2015-07-08T08:32:42.000Z</time>
      </trkpt>
      <trkpt lat="47.44945" lon="6.67015">
        <ele>306</ele>
        <time>2015-07-08T08:32:43.000Z</time>
      </trkpt>
      <trkpt lat="47.44946" lon="6.67026">
        <ele>306</ele>
        <time>2015-07-08T08:32:44.000Z</time>
      </trkpt>
      <trkpt lat="47.44947" lon="6.67036">
        <ele>307</ele>
        <time>2015-07-08T08:32:45.000Z</time>
      </trkpt>
      <trkpt lat="47.44947" lon="6.67047">
        <ele>307</ele>
        <time>2015-07-08T08:32:46.000Z</time>
      </trkpt>
      <trkpt lat="47.44948" lon="6.67057">
        <ele>307</ele>
        <time>2015-07-08T08:32:47.000Z</time>
      </trkpt>
      <trkpt lat="47.44949" lon="6.67068">
        <ele>306</ele>
        <time>2015-07-08T08:32:48.000Z</time>
      </trkpt>
      <trkpt lat="47.4495" lon="6.67079">
        <ele>306</ele>
        <time>2015-07-08T08:32:49.000Z</time>
      </trkpt>
      <trkpt lat="47.44951" lon="6.6709">
        <ele>306</ele>
        <time>2015-07-08T08:32:50.000Z</time>
      </trkpt>
      <trkpt lat="47.44952" lon="6.671">
        <ele>306</ele>
        <time>2015-07-08T08:32:51.000Z</time>
      </trkpt>
      <trkpt lat="47.44953" lon="6.67111">
        <ele>306</ele>
        <time>2015-07-08T08:32:52.000Z</time>
      </trkpt>
      <trkpt lat="47.44954" lon="6.67121">
        <ele>306</ele>
        <time>2015-07-08T08:32:53.000Z</time>
      </trkpt>
      <trkpt lat="47.44954" lon="6.67132">
        <ele>306</ele>
        <time>2015-07-08T08:32:54.000Z</time>
      </trkpt>
      <trkpt lat="47.44955" lon="6.67142">
        <ele>306</ele>
        <time>2015-07-08T08:32:55.000Z</time>
      </trkpt>
      <trkpt lat="47.44955" lon="6.67153">
        <ele>306</ele>
        <time>2015-07-08T08:32:56.000Z</time>
      </trkpt>
      <trkpt lat="47.44956" lon="6.67164">
        <ele>306</ele>
        <time>2015-07-08T08:32:57.000Z</time>
      </trkpt>
      <trkpt lat="47.44957" lon="6.67175">
        <ele>306</ele>
        <time>2015-07-08T08:32:58.000Z</time>
      </trkpt>
      <trkpt lat="47.44958" lon="6.67186">
        <ele>306</ele>
        <time>2015-07-08T08:32:59.000Z</time>
      </trkpt>
      <trkpt lat="47.44959" lon="6.67197">
        <ele>306</ele>
        <time>2015-07-08T08:33:00.000Z</time>
      </trkpt>
      <trkpt lat="47.4496" lon="6.67208">
        <ele>306</ele>
        <time>2015-07-08T08:33:01.000Z</time>
      </trkpt>
      <trkpt lat="47.4496" lon="6.67219">
        <ele>306</ele>
        <time>2015-07-08T08:33:02.000Z</time>
      </trkpt>
      <trkpt lat="47.44961" lon="6.67229">
        <ele>306</ele>
        <time>2015-07-08T08:33:03.000Z</time>
      </trkpt>
      <trkpt lat="47.44962" lon="6.6724">
        <ele>306</ele>
        <time>2015-07-08T08:33:04.000Z</time>
      </trkpt>
      <trkpt lat="47.44963" lon="6.67251">
        <ele>306</ele>
        <time>2015-07-08T08:33:05.000Z</time>
      </trkpt>
      <trkpt lat="47.44963" lon="6.67261">
        <ele>306</ele>
        <time>2015-07-08T08:33:06.000Z</time>
      </trkpt>
      <trkpt lat="47.44964" lon="6.67272">
        <ele>306</ele>
        <time>2015-07-08T08:33:07.000Z</time>
      </trkpt>
      <trkpt lat="47.44965" lon="6.67282">
        <ele>306</ele>
        <time>2015-07-08T08:33:08.000Z</time>
      </trkpt>
      <trkpt lat="47.44966" lon="6.67293">
        <ele>306</ele>
        <time>2015-07-08T08:33:09.000Z</time>
      </trkpt>
      <trkpt lat="47.44967" lon="6.67303">
        <ele>306</ele>
        <time>2015-07-08T08:33:10.000Z</time>
      </trkpt>
      <trkpt lat="47.44967" lon="6.67314">
        <ele>306</ele>
        <time>2015-07-08T08:33:11.000Z</time>
      </trkpt>
      <trkpt lat="47.44968" lon="6.67324">
        <ele>306</ele>
        <time>2015-07-08T08:33:12.000Z</time>
      </trkpt>
      <trkpt lat="47.44969" lon="6.67334">
        <ele>306</ele>
        <time>2015-07-08T08:33:13.000Z</time>
      </trkpt>
      <trkpt lat="47.44969" lon="6.67343">
        <ele>306</ele>
        <time>2015-07-08T08:33:14.000Z</time>
      </trkpt>
      <trkpt lat="47.4497" lon="6.67352">
        <ele>306</ele>
        <time>2015-07-08T08:33:15.000Z</time>
      </trkpt>
      <trkpt lat="47.44971" lon="6.67361">
        <ele>306</ele>
        <time>2015-07-08T08:33:16.000Z</time>
      </trkpt>
      <trkpt lat="47.44971" lon="6.67369">
        <ele>306</ele>
        <time>2015-07-08T08:33:17.000Z</time>
      </trkpt>
      <trkpt lat="47.44972" lon="6.67378">
        <ele>306</ele>
        <time>2015-07-08T08:33:18.000Z</time>
      </trkpt>
      <trkpt lat="47.44973" lon="6.67387">
        <ele>306</ele>
        <time>2015-07-08T08:33:19.000Z</time>
      </trkpt>
      <trkpt lat="47.44973" lon="6.67396">
        <ele>306</ele>
        <time>2015-07-08T08:33:20.000Z</time>
      </trkpt>
      <trkpt lat="47.44974" lon="6.67406">
        <ele>306</ele>
        <time>2015-07-08T08:33:21.000Z</time>
      </trkpt>
      <trkpt lat="47.44975" lon="6.67415">
        <ele>306</ele>
        <time>2015-07-08T08:33:22.000Z</time>
      </trkpt>
      <trkpt lat="47.44976" lon="6.67425">
        <ele>306</ele>
        <time>2015-07-08T08:33:23.000Z</time>
      </trkpt>
      <trkpt lat="47.44977" lon="6.67435">
        <ele>306</ele>
        <time>2015-07-08T08:33:24.000Z</time>
      </trkpt>
      <trkpt lat="47.44978" lon="6.67446">
        <ele>306</ele>
        <time>2015-07-08T08:33:25.000Z</time>
      </trkpt>
      <trkpt lat="47.44979" lon="6.67456">
        <ele>306</ele>
        <time>2015-07-08T08:33:26.000Z</time>
      </trkpt>
      <trkpt lat="47.4498" lon="6.67467">
        <ele>306</ele>
        <time>2015-07-08T08:33:27.000Z</time>
      </trkpt>
      <trkpt lat="47.44981" lon="6.67477">
        <ele>306</ele>
        <time>2015-07-08T08:33:28.000Z</time>
      </trkpt>
      <trkpt lat="47.44982" lon="6.67488">
        <ele>307</ele>
        <time>2015-07-08T08:33:29.000Z</time>
      </trkpt>
      <trkpt lat="47.44983" lon="6.67498">
        <ele>307</ele>
        <time>2015-07-08T08:33:30.000Z</time>
      </trkpt>
      <trkpt lat="47.44984" lon="6.67507">
        <ele>307</ele>
        <time>2015-07-08T08:33:31.000Z</time>
      </trkpt>
      <trkpt lat="47.44985" lon="6.67515">
        <ele>307</ele>
        <time>2015-07-08T08:33:32.000Z</time>
      </trkpt>
      <trkpt lat="47.44985" lon="6.67524">
        <ele>307</ele>
        <time>2015-07-08T08:33:33.000Z</time>
      </trkpt>
      <trkpt lat="47.44987" lon="6.67533">
        <ele>308</ele>
        <time>2015-07-08T08:33:34.000Z</time>
      </trkpt>
      <trkpt lat="47.44988" lon="6.67542">
        <ele>308</ele>
        <time>2015-07-08T08:33:35.000Z</time>
      </trkpt>
      <trkpt lat="47.44989" lon="6.67552">
        <ele>308</ele>
        <time>2015-07-08T08:33:36.000Z</time>
      </trkpt>
      <trkpt lat="47.4499" lon="6.67562">
        <ele>308</ele>
        <time>2015-07-08T08:33:37.000Z</time>
      </trkpt>
      <trkpt lat="47.4499" lon="6.67572">
        <ele>308</ele>
        <time>2015-07-08T08:33:38.000Z</time>
      </trkpt>
      <trkpt lat="47.4499" lon="6.67582">
        <ele>308</ele>
        <time>2015-07-08T08:33:39.000Z</time>
      </trkpt>
      <trkpt lat="47.4499" lon="6.67592">
        <ele>308</ele>
        <time>2015-07-08T08:33:40.000Z</time>
      </trkpt>
      <trkpt lat="47.44991" lon="6.67603">
        <ele>308</ele>
        <time>2015-07-08T08:33:41.000Z</time>
      </trkpt>
      <trkpt lat="47.44991" lon="6.67613">
        <ele>309</ele>
        <time>2015-07-08T08:33:42.000Z</time>
      </trkpt>
      <trkpt lat="47.44992" lon="6.67624">
        <ele>309</ele>
        <time>2015-07-08T08:33:43.000Z</time>
      </trkpt>
      <trkpt lat="47.44993" lon="6.67634">
        <ele>309</ele>
        <time>2015-07-08T08:33:44.000Z</time>
      </trkpt>
      <trkpt lat="47.44994" lon="6.67645">
        <ele>309</ele>
        <time>2015-07-08T08:33:45.000Z</time>
      </trkpt>
      <trkpt lat="47.44994" lon="6.67655">
        <ele>309</ele>
        <time>2015-07-08T08:33:46.000Z</time>
      </trkpt>
      <trkpt lat="47.44995" lon="6.67663">
        <ele>309</ele>
        <time>2015-07-08T08:33:47.000Z</time>
      </trkpt>
      <trkpt lat="47.44996" lon="6.67671">
        <ele>309</ele>
        <time>2015-07-08T08:33:48.000Z</time>
      </trkpt>
      <trkpt lat="47.44996" lon="6.67679">
        <ele>309</ele>
        <time>2015-07-08T08:33:49.000Z</time>
      </trkpt>
      <trkpt lat="47.44997" lon="6.67687">
        <ele>309</ele>
        <time>2015-07-08T08:33:50.000Z</time>
      </trkpt>
      <trkpt lat="47.44998" lon="6.67695">
        <ele>309</ele>
        <time>2015-07-08T08:33:51.000Z</time>
      </trkpt>
      <trkpt lat="47.44998" lon="6.67704">
        <ele>309</ele>
        <time>2015-07-08T08:33:52.000Z</time>
      </trkpt>
      <trkpt lat="47.44999" lon="6.67713">
        <ele>309</ele>
        <time>2015-07-08T08:33:53.000Z</time>
      </trkpt>
      <trkpt lat="47.45" lon="6.67721">
        <ele>309</ele>
        <time>2015-07-08T08:33:54.000Z</time>
      </trkpt>
      <trkpt lat="47.45001" lon="6.6773">
        <ele>309</ele>
        <time>2015-07-08T08:33:55.000Z</time>
      </trkpt>
      <trkpt lat="47.45001" lon="6.67739">
        <ele>309</ele>
        <time>2015-07-08T08:33:56.000Z</time>
      </trkpt>
      <trkpt lat="47.45002" lon="6.67748">
        <ele>309</ele>
        <time>2015-07-08T08:33:57.000Z</time>
      </trkpt>
      <trkpt lat="47.45003" lon="6.67757">
        <ele>309</ele>
        <time>2015-07-08T08:33:58.000Z</time>
      </trkpt>
      <trkpt lat="47.45003" lon="6.67766">
        <ele>309</ele>
        <time>2015-07-08T08:33:59.000Z</time>
      </trkpt>
      <trkpt lat="47.45004" lon="6.67775">
        <ele>309</ele>
        <time>2015-07-08T08:34:00.000Z</time>
      </trkpt>
      <trkpt lat="47.45005" lon="6.67784">
        <ele>309</ele>
        <time>2015-07-08T08:34:01.000Z</time>
      </trkpt>
      <trkpt lat="47.45006" lon="6.67793">
        <ele>309</ele>
        <time>2015-07-08T08:34:02.000Z</time>
      </trkpt>
      <trkpt lat="47.45006" lon="6.67802">
        <ele>309</ele>
        <time>2015-07-08T08:34:03.000Z</time>
      </trkpt>
      <trkpt lat="47.45007" lon="6.67811">
        <ele>309</ele>
        <time>2015-07-08T08:34:04.000Z</time>
      </trkpt>
      <trkpt lat="47.45008" lon="6.6782">
        <ele>309</ele>
        <time>2015-07-08T08:34:05.000Z</time>
      </trkpt>
      <trkpt lat="47.45009" lon="6.67829">
        <ele>309</ele>
        <time>2015-07-08T08:34:06.000Z</time>
      </trkpt>
      <trkpt lat="47.4501" lon="6.67838">
        <ele>309</ele>
        <time>2015-07-08T08:34:07.000Z</time>
      </trkpt>
      <trkpt lat="47.45011" lon="6.67847">
        <ele>309</ele>
        <time>2015-07-08T08:34:08.000Z</time>
      </trkpt>
      <trkpt lat="47.45012" lon="6.67856">
        <ele>309</ele>
        <time>2015-07-08T08:34:09.000Z</time>
      </trkpt>
      <trkpt lat="47.45013" lon="6.67866">
        <ele>309</ele>
        <time>2015-07-08T08:34:10.000Z</time>
      </trkpt>
      <trkpt lat="47.45014" lon="6.67876">
        <ele>309</ele>
        <time>2015-07-08T08:34:11.000Z</time>
      </trkpt>
      <trkpt lat="47.45015" lon="6.67885">
        <ele>309</ele>
        <time>2015-07-08T08:34:12.000Z</time>
      </trkpt>
      <trkpt lat="47.45016" lon="6.67895">
        <ele>309</ele>
        <time>2015-07-08T08:34:13.000Z</time>
      </trkpt>
      <trkpt lat="47.45018" lon="6.67904">
        <ele>309</ele>
        <time>2015-07-08T08:34:14.000Z</time>
      </trkpt>
      <trkpt lat="47.45019" lon="6.67914">
        <ele>309</ele>
        <time>2015-07-08T08:34:15.000Z</time>
      </trkpt>
      <trkpt lat="47.45021" lon="6.67923">
        <ele>309</ele>
        <time>2015-07-08T08:34:16.000Z</time>
      </trkpt>
      <trkpt lat="47.45022" lon="6.67933">
        <ele>309</ele>
        <time>2015-07-08T08:34:17.000Z</time>
      </trkpt>
      <trkpt lat="47.45023" lon="6.67943">
        <ele>309</ele>
        <time>2015-07-08T08:34:18.000Z</time>
      </trkpt>
      <trkpt lat="47.45025" lon="6.67952">
        <ele>309</ele>
        <time>2015-07-08T08:34:19.000Z</time>
      </trkpt>
      <trkpt lat="47.45026" lon="6.67962">
        <ele>309</ele>
        <time>2015-07-08T08:34:20.000Z</time>
      </trkpt>
      <trkpt lat="47.45028" lon="6.67972">
        <ele>309</ele>
        <time>2015-07-08T08:34:21.000Z</time>
      </trkpt>
      <trkpt lat="47.4503" lon="6.67982">
        <ele>309</ele>
        <time>2015-07-08T08:34:22.000Z</time>
      </trkpt>
      <trkpt lat="47.45032" lon="6.67991">
        <ele>309</ele>
        <time>2015-07-08T08:34:23.000Z</time>
      </trkpt>
      <trkpt lat="47.45034" lon="6.68001">
        <ele>309</ele>
        <time>2015-07-08T08:34:24.000Z</time>
      </trkpt>
      <trkpt lat="47.45035" lon="6.68011">
        <ele>309</ele>
        <time>2015-07-08T08:34:25.000Z</time>
      </trkpt>
      <trkpt lat="47.45037" lon="6.68021">
        <ele>309</ele>
        <time>2015-07-08T08:34:26.000Z</time>
      </trkpt>
      <trkpt lat="47.45039" lon="6.68031">
        <ele>309</ele>
        <time>2015-07-08T08:34:27.000Z</time>
      </trkpt>
      <trkpt lat="47.45041" lon="6.68041">
        <ele>309</ele>
        <time>2015-07-08T08:34:28.000Z</time>
      </trkpt>
      <trkpt lat="47.45043" lon="6.68051">
        <ele>309</ele>
        <time>2015-07-08T08:34:29.000Z</time>
      </trkpt>
      <trkpt lat="47.45046" lon="6.6806">
        <ele>309</ele>
        <time>2015-07-08T08:34:30.000Z</time>
      </trkpt>
      <trkpt lat="47.45048" lon="6.6807">
        <ele>309</ele>
        <time>2015-07-08T08:34:31.000Z</time>
      </trkpt>
      <trkpt lat="47.4505" lon="6.6808">
        <ele>309</ele>
        <time>2015-07-08T08:34:32.000Z</time>
      </trkpt>
      <trkpt lat="47.45053" lon="6.68089">
        <ele>309</ele>
        <time>2015-07-08T08:34:33.000Z</time>
      </trkpt>
      <trkpt lat="47.45055" lon="6.68098">
        <ele>309</ele>
        <time>2015-07-08T08:34:34.000Z</time>
      </trkpt>
      <trkpt lat="47.45058" lon="6.68108">
        <ele>309</ele>
        <time>2015-07-08T08:34:35.000Z</time>
      </trkpt>
      <trkpt lat="47.4506" lon="6.68117">
        <ele>309</ele>
        <time>2015-07-08T08:34:36.000Z</time>
      </trkpt>
      <trkpt lat="47.45063" lon="6.68126">
        <ele>309</ele>
        <time>2015-07-08T08:34:37.000Z</time>
      </trkpt>
      <trkpt lat="47.45065" lon="6.68136">
        <ele>309</ele>
        <time>2015-07-08T08:34:38.000Z</time>
      </trkpt>
      <trkpt lat="47.45068" lon="6.68145">
        <ele>309</ele>
        <time>2015-07-08T08:34:39.000Z</time>
      </trkpt>
      <trkpt lat="47.45071" lon="6.68155">
        <ele>309</ele>
        <time>2015-07-08T08:34:40.000Z</time>
      </trkpt>
      <trkpt lat="47.45074" lon="6.68164">
        <ele>309</ele>
        <time>2015-07-08T08:34:41.000Z</time>
      </trkpt>
      <trkpt lat="47.45076" lon="6.68174">
        <ele>309</ele>
        <time>2015-07-08T08:34:42.000Z</time>
      </trkpt>
      <trkpt lat="47.45079" lon="6.68184">
        <ele>309</ele>
        <time>2015-07-08T08:34:43.000Z</time>
      </trkpt>
      <trkpt lat="47.45082" lon="6.68193">
        <ele>309</ele>
        <time>2015-07-08T08:34:44.000Z</time>
      </trkpt>
      <trkpt lat="47.45086" lon="6.68203">
        <ele>309</ele>
        <time>2015-07-08T08:34:45.000Z</time>
      </trkpt>
      <trkpt lat="47.45089" lon="6.68213">
        <ele>309</ele>
        <time>2015-07-08T08:34:46.000Z</time>
      </trkpt>
      <trkpt lat="47.45092" lon="6.68222">
        <ele>309</ele>
        <time>2015-07-08T08:34:47.000Z</time>
      </trkpt>
      <trkpt lat="47.45095" lon="6.68232">
        <ele>309</ele>
        <time>2015-07-08T08:34:48.000Z</time>
      </trkpt>
      <trkpt lat="47.45098" lon="6.68242">
        <ele>310</ele>
        <time>2015-07-08T08:34:49.000Z</time>
      </trkpt>
      <trkpt lat="47.45102" lon="6.68251">
        <ele>310</ele>
        <time>2015-07-08T08:34:50.000Z</time>
      </trkpt>
      <trkpt lat="47.45105" lon="6.6826">
        <ele>310</ele>
        <time>2015-07-08T08:34:51.000Z</time>
      </trkpt>
      <trkpt lat="47.45109" lon="6.6827">
        <ele>310</ele>
        <time>2015-07-08T08:34:52.000Z</time>
      </trkpt>
      <trkpt lat="47.45112" lon="6.68279">
        <ele>310</ele>
        <time>2015-07-08T08:34:53.000Z</time>
      </trkpt>
      <trkpt lat="47.45116" lon="6.68289">
        <ele>310</ele>
        <time>2015-07-08T08:34:54.000Z</time>
      </trkpt>
      <trkpt lat="47.4512" lon="6.68298">
        <ele>310</ele>
        <time>2015-07-08T08:34:55.000Z</time>
      </trkpt>
      <trkpt lat="47.45123" lon="6.68307">
        <ele>310</ele>
        <time>2015-07-08T08:34:56.000Z</time>
      </trkpt>
      <trkpt lat="47.45127" lon="6.68317">
        <ele>310</ele>
        <time>2015-07-08T08:34:57.000Z</time>
      </trkpt>
      <trkpt lat="47.45131" lon="6.68326">
        <ele>310</ele>
        <time>2015-07-08T08:34:58.000Z</time>
      </trkpt>
      <trkpt lat="47.45135" lon="6.68336">
        <ele>310</ele>
        <time>2015-07-08T08:34:59.000Z</time>
      </trkpt>
      <trkpt lat="47.45139" lon="6.68345">
        <ele>310</ele>
        <time>2015-07-08T08:35:00.000Z</time>
      </trkpt>
      <trkpt lat="47.45144" lon="6.68355">
        <ele>310</ele>
        <time>2015-07-08T08:35:01.000Z</time>
      </trkpt>
      <trkpt lat="47.45148" lon="6.68364">
        <ele>310</ele>
        <time>2015-07-08T08:35:02.000Z</time>
      </trkpt>
      <trkpt lat="47.45152" lon="6.68373">
        <ele>310</ele>
        <time>2015-07-08T08:35:03.000Z</time>
      </trkpt>
      <trkpt lat="47.45157" lon="6.68382">
        <ele>310</ele>
        <time>2015-07-08T08:35:04.000Z</time>
      </trkpt>
      <trkpt lat="47.45161" lon="6.68392">
        <ele>310</ele>
        <time>2015-07-08T08:35:05.000Z</time>
      </trkpt>
      <trkpt lat="47.45165" lon="6.68401">
        <ele>310</ele>
        <time>2015-07-08T08:35:06.000Z</time>
      </trkpt>
      <trkpt lat="47.4517" lon="6.6841">
        <ele>310</ele>
        <time>2015-07-08T08:35:07.000Z</time>
      </trkpt>
      <trkpt lat="47.45175" lon="6.68419">
        <ele>310</ele>
        <time>2015-07-08T08:35:08.000Z</time>
      </trkpt>
      <trkpt lat="47.45179" lon="6.68428">
        <ele>310</ele>
        <time>2015-07-08T08:35:09.000Z</time>
      </trkpt>
      <trkpt lat="47.45184" lon="6.68436">
        <ele>310</ele>
        <time>2015-07-08T08:35:10.000Z</time>
      </trkpt>
      <trkpt lat="47.45189" lon="6.68445">
        <ele>310</ele>
        <time>2015-07-08T08:35:11.000Z</time>
      </trkpt>
      <trkpt lat="47.45194" lon="6.68453">
        <ele>310</ele>
        <time>2015-07-08T08:35:12.000Z</time>
      </trkpt>
      <trkpt lat="47.45199" lon="6.68461">
        <ele>310</ele>
        <time>2015-07-08T08:35:13.000Z</time>
      </trkpt>
      <trkpt lat="47.45203" lon="6.6847">
        <ele>310</ele>
        <time>2015-07-08T08:35:14.000Z</time>
      </trkpt>
      <trkpt lat="47.45208" lon="6.68478">
        <ele>310</ele>
        <time>2015-07-08T08:35:15.000Z</time>
      </trkpt>
      <trkpt lat="47.45213" lon="6.68487">
        <ele>310</ele>
        <time>2015-07-08T08:35:16.000Z</time>
      </trkpt>
      <trkpt lat="47.45218" lon="6.68495">
        <ele>310</ele>
        <time>2015-07-08T08:35:17.000Z</time>
      </trkpt>
      <trkpt lat="47.45223" lon="6.68503">
        <ele>310</ele>
        <time>2015-07-08T08:35:18.000Z</time>
      </trkpt>
      <trkpt lat="47.45228" lon="6.68511">
        <ele>310</ele>
        <time>2015-07-08T08:35:19.000Z</time>
      </trkpt>
      <trkpt lat="47.45232" lon="6.68518">
        <ele>311</ele>
        <time>2015-07-08T08:35:20.000Z</time>
      </trkpt>
      <trkpt lat="47.45237" lon="6.68526">
        <ele>311</ele>
        <time>2015-07-08T08:35:21.000Z</time>
      </trkpt>
      <trkpt lat="47.45242" lon="6.68534">
        <ele>311</ele>
        <time>2015-07-08T08:35:22.000Z</time>
      </trkpt>
      <trkpt lat="47.45247" lon="6.68542">
        <ele>311</ele>
        <time>2015-07-08T08:35:23.000Z</time>
      </trkpt>
      <trkpt lat="47.45252" lon="6.68549">
        <ele>311</ele>
        <time>2015-07-08T08:35:24.000Z</time>
      </trkpt>
      <trkpt lat="47.45257" lon="6.68557">
        <ele>310</ele>
        <time>2015-07-08T08:35:25.000Z</time>
      </trkpt>
      <trkpt lat="47.45263" lon="6.68564">
        <ele>310</ele>
        <time>2015-07-08T08:35:26.000Z</time>
      </trkpt>
      <trkpt lat="47.45268" lon="6.68572">
        <ele>310</ele>
        <time>2015-07-08T08:35:27.000Z</time>
      </trkpt>
      <trkpt lat="47.45273" lon="6.68579">
        <ele>310</ele>
        <time>2015-07-08T08:35:28.000Z</time>
      </trkpt>
      <trkpt lat="47.45279" lon="6.68586">
        <ele>310</ele>
        <time>2015-07-08T08:35:29.000Z</time>
      </trkpt>
      <trkpt lat="47.45284" lon="6.68594">
        <ele>310</ele>
        <time>2015-07-08T08:35:30.000Z</time>
      </trkpt>
      <trkpt lat="47.4529" lon="6.68601">
        <ele>310</ele>
        <time>2015-07-08T08:35:31.000Z</time>
      </trkpt>
      <trkpt lat="47.45295" lon="6.68608">
        <ele>310</ele>
        <time>2015-07-08T08:35:32.000Z</time>
      </trkpt>
      <trkpt lat="47.45301" lon="6.68615">
        <ele>310</ele>
        <time>2015-07-08T08:35:33.000Z</time>
      </trkpt>
      <trkpt lat="47.45306" lon="6.68622">
        <ele>310</ele>
        <time>2015-07-08T08:35:34.000Z</time>
      </trkpt>
      <trkpt lat="47.45312" lon="6.68628">
        <ele>310</ele>
        <time>2015-07-08T08:35:35.000Z</time>
      </trkpt>
      <trkpt lat="47.45318" lon="6.68635">
        <ele>310</ele>
        <time>2015-07-08T08:35:36.000Z</time>
      </trkpt>
      <trkpt lat="47.45324" lon="6.68642">
        <ele>310</ele>
        <time>2015-07-08T08:35:37.000Z</time>
      </trkpt>
      <trkpt lat="47.45329" lon="6.68648">
        <ele>310</ele>
        <time>2015-07-08T08:35:38.000Z</time>
      </trkpt>
      <trkpt lat="47.45335" lon="6.68655">
        <ele>310</ele>
        <time>2015-07-08T08:35:39.000Z</time>
      </trkpt>
      <trkpt lat="47.45341" lon="6.68661">
        <ele>310</ele>
        <time>2015-07-08T08:35:40.000Z</time>
      </trkpt>
      <trkpt lat="47.45346" lon="6.68667">
        <ele>310</ele>
        <time>2015-07-08T08:35:41.000Z</time>
      </trkpt>
      <trkpt lat="47.45352" lon="6.68674">
        <ele>310</ele>
        <time>2015-07-08T08:35:42.000Z</time>
      </trkpt>
      <trkpt lat="47.45358" lon="6.6868">
        <ele>310</ele>
        <time>2015-07-08T08:35:43.000Z</time>
      </trkpt>
      <trkpt lat="47.45364" lon="6.68686">
        <ele>310</ele>
        <time>2015-07-08T08:35:44.000Z</time>
      </trkpt>
      <trkpt lat="47.4537" lon="6.68693">
        <ele>310</ele>
        <time>2015-07-08T08:35:45.000Z</time>
      </trkpt>
      <trkpt lat="47.45376" lon="6.68699">
        <ele>310</ele>
        <time>2015-07-08T08:35:46.000Z</time>
      </trkpt>
      <trkpt lat="47.45382" lon="6.68706">
        <ele>310</ele>
        <time>2015-07-08T08:35:47.000Z</time>
      </trkpt>
      <trkpt lat="47.45389" lon="6.68713">
        <ele>310</ele>
        <time>2015-07-08T08:35:48.000Z</time>
      </trkpt>
      <trkpt lat="47.45395" lon="6.6872">
        <ele>310</ele>
        <time>2015-07-08T08:35:49.000Z</time>
      </trkpt>
      <trkpt lat="47.45401" lon="6.68727">
        <ele>310</ele>
        <time>2015-07-08T08:35:50.000Z</time>
      </trkpt>
      <trkpt lat="47.45408" lon="6.68734">
        <ele>310</ele>
        <time>2015-07-08T08:35:51.000Z</time>
      </trkpt>
      <trkpt lat="47.45414" lon="6.68741">
        <ele>310</ele>
        <time>2015-07-08T08:35:52.000Z</time>
      </trkpt>
      <trkpt lat="47.4542" lon="6.68749">
        <ele>310</ele>
        <time>2015-07-08T08:35:53.000Z</time>
      </trkpt>
      <trkpt lat="47.45427" lon="6.68756">
        <ele>310</ele>
        <time>2015-07-08T08:35:54.000Z</time>
      </trkpt>
      <trkpt lat="47.45433" lon="6.68763">
        <ele>310</ele>
        <time>2015-07-08T08:35:55.000Z</time>
      </trkpt>
      <trkpt lat="47.4544" lon="6.68769">
        <ele>310</ele>
        <time>2015-07-08T08:35:56.000Z</time>
      </trkpt>
      <trkpt lat="47.45446" lon="6.68776">
        <ele>310</ele>
        <time>2015-07-08T08:35:57.000Z</time>
      </trkpt>
      <trkpt lat="47.45452" lon="6.68783">
        <ele>311</ele>
        <time>2015-07-08T08:35:58.000Z</time>
      </trkpt>
      <trkpt lat="47.45458" lon="6.6879">
        <ele>311</ele>
        <time>2015-07-08T08:35:59.000Z</time>
      </trkpt>
      <trkpt lat="47.45464" lon="6.68796">
        <ele>311</ele>
        <time>2015-07-08T08:36:00.000Z</time>
      </trkpt>
      <trkpt lat="47.4547" lon="6.68803">
        <ele>311</ele>
        <time>2015-07-08T08:36:01.000Z</time>
      </trkpt>
      <trkpt lat="47.45475" lon="6.68808">
        <ele>311</ele>
        <time>2015-07-08T08:36:02.000Z</time>
      </trkpt>
      <trkpt lat="47.4548" lon="6.68814">
        <ele>311</ele>
        <time>2015-07-08T08:36:03.000Z</time>
      </trkpt>
      <trkpt lat="47.45484" lon="6.68818">
        <ele>311</ele>
        <time>2015-07-08T08:36:04.000Z</time>
      </trkpt>
      <trkpt lat="47.45489" lon="6.68823">
        <ele>311</ele>
        <time>2015-07-08T08:36:05.000Z</time>
      </trkpt>
      <trkpt lat="47.45493" lon="6.68828">
        <ele>311</ele>
        <time>2015-07-08T08:36:06.000Z</time>
      </trkpt>
      <trkpt lat="47.45497" lon="6.68833">
        <ele>311</ele>
        <time>2015-07-08T08:36:07.000Z</time>
      </trkpt>
      <trkpt lat="47.45501" lon="6.68837">
        <ele>311</ele>
        <time>2015-07-08T08:36:08.000Z</time>
      </trkpt>
      <trkpt lat="47.45506" lon="6.68841">
        <ele>311</ele>
        <time>2015-07-08T08:36:09.000Z</time>
      </trkpt>
      <trkpt lat="47.45509" lon="6.68845">
        <ele>311</ele>
        <time>2015-07-08T08:36:10.000Z</time>
      </trkpt>
      <trkpt lat="47.45513" lon="6.68848">
        <ele>311</ele>
        <time>2015-07-08T08:36:11.000Z</time>
      </trkpt>
      <trkpt lat="47.45515" lon="6.68851">
        <ele>311</ele>
        <time>2015-07-08T08:36:12.000Z</time>
      </trkpt>
      <trkpt lat="47.45517" lon="6.68853">
        <ele>311</ele>
        <time>2015-07-08T08:36:13.000Z</time>
      </trkpt>
      <trkpt lat="47.45518" lon="6.68855">
        <ele>311</ele>
        <time>2015-07-08T08:36:14.000Z</time>
      </trkpt>
      <trkpt lat="47.45519" lon="6.68855">
        <ele>311</ele>
        <time>2015-07-08T08:36:15.000Z</time>
      </trkpt>
      <trkpt lat="47.4552" lon="6.68856">
        <ele>311</ele>
        <time>2015-07-08T08:36:16.000Z</time>
      </trkpt>
      <trkpt lat="47.4552" lon="6.68857">
        <ele>311</ele>
        <time>2015-07-08T08:36:17.000Z</time>
      </trkpt>
      <trkpt lat="47.4552" lon="6.68857">
        <ele>311</ele>
        <time>2015-07-08T08:36:18.000Z</time>
      </trkpt>
      <trkpt lat="47.4552" lon="6.68857">
        <ele>311</ele>
        <time>2015-07-08T08:36:19.000Z</time>
      </trkpt>
      <trkpt lat="47.4552" lon="6.68857">
        <ele>311</ele>
        <time>2015-07-08T08:36:20.000Z</time>
      </trkpt>
      <trkpt lat="47.4552" lon="6.68857">
        <ele>311</ele>
        <time>2015-07-08T08:36:21.000Z</time>
      </trkpt>
      <trkpt lat="47.4552" lon="6.68857">
        <ele>311</ele>
        <time>2015-07-08T08:36:22.000Z</time>
      </trkpt>
      <trkpt lat="47.4552" lon="6.68857">
        <ele>311</ele>
        <time>2015-07-08T08:36:23.000Z</time>
      </trkpt>
      <trkpt lat="47.4552" lon="6.68857">
        <ele>311</ele>
        <time>2015-07-08T08:36:24.000Z</time>
      </trkpt>
      <trkpt lat="47.4552" lon="6.68857">
        <ele>311</ele>
        <time>2015-07-08T08:36:25.000Z</time>
      </trkpt>
      <trkpt lat="47.4552" lon="6.68857">
        <ele>311</ele>
        <time>2015-07-08T08:36:26.000Z</time>
      </trkpt>
      <trkpt lat="47.45347" lon="6.68886">
        <ele>308</ele>
        <time>2015-07-08T08:36:27.000Z</time>
      </trkpt>
      <trkpt lat="47.45344" lon="6.68888">
        <ele>308</ele>
        <time>2015-07-08T08:36:28.000Z</time>
      </trkpt>
      <trkpt lat="47.45339" lon="6.68891">
        <ele>308</ele>
        <time>2015-07-08T08:36:29.000Z</time>
      </trkpt>
      <trkpt lat="47.45334" lon="6.68895">
        <ele>308</ele>
        <time>2015-07-08T08:36:30.000Z</time>
      </trkpt>
      <trkpt lat="47.45329" lon="6.68899">
        <ele>308</ele>
        <time>2015-07-08T08:36:31.000Z</time>
      </trkpt>
      <trkpt lat="47.45324" lon="6.68903">
        <ele>308</ele>
        <time>2015-07-08T08:36:32.000Z</time>
      </trkpt>
      <trkpt lat="47.45319" lon="6.68906">
        <ele>308</ele>
        <time>2015-07-08T08:36:33.000Z</time>
      </trkpt>
      <trkpt lat="47.45314" lon="6.6891">
        <ele>308</ele>
        <time>2015-07-08T08:36:34.000Z</time>
      </trkpt>
      <trkpt lat="47.45309" lon="6.68914">
        <ele>308</ele>
        <time>2015-07-08T08:36:35.000Z</time>
      </trkpt>
      <trkpt lat="47.45304" lon="6.68917">
        <ele>308</ele>
        <time>2015-07-08T08:36:36.000Z</time>
      </trkpt>
      <trkpt lat="47.45299" lon="6.68921">
        <ele>308</ele>
        <time>2015-07-08T08:36:37.000Z</time>
      </trkpt>
      <trkpt lat="47.45294" lon="6.68924">
        <ele>308</ele>
        <time>2015-07-08T08:36:38.000Z</time>
      </trkpt>
      <trkpt lat="47.45289" lon="6.68927">
        <ele>309</ele>
        <time>2015-07-08T08:36:39.000Z</time>
      </trkpt>
      <trkpt lat="47.45284" lon="6.6893">
        <ele>309</ele>
        <time>2015-07-08T08:36:40.000Z</time>
      </trkpt>
      <trkpt lat="47.45279" lon="6.68933">
        <ele>309</ele>
        <time>2015-07-08T08:36:41.000Z</time>
      </trkpt>
      <trkpt lat="47.45274" lon="6.68937">
        <ele>309</ele>
        <time>2015-07-08T08:36:42.000Z</time>
      </trkpt>
      <trkpt lat="47.4527" lon="6.6894">
        <ele>309</ele>
        <time>2015-07-08T08:36:43.000Z</time>
      </trkpt>
      <trkpt lat="47.45265" lon="6.68944">
        <ele>309</ele>
        <time>2015-07-08T08:36:44.000Z</time>
      </trkpt>
      <trkpt lat="47.4526" lon="6.68947">
        <ele>309</ele>
        <time>2015-07-08T08:36:45.000Z</time>
      </trkpt>
      <trkpt lat="47.45256" lon="6.6895">
        <ele>309</ele>
        <time>2015-07-08T08:36:46.000Z</time>
      </trkpt>
      <trkpt lat="47.45251" lon="6.68954">
        <ele>309</ele>
        <time>2015-07-08T08:36:47.000Z</time>
      </trkpt>
      <trkpt lat="47.45247" lon="6.68957">
        <ele>310</ele>
        <time>2015-07-08T08:36:48.000Z</time>
      </trkpt>
      <trkpt lat="47.45243" lon="6.6896">
        <ele>310</ele>
        <time>2015-07-08T08:36:49.000Z</time>
      </trkpt>
      <trkpt lat="47.4524" lon="6.68962">
        <ele>310</ele>
        <time>2015-07-08T08:36:50.000Z</time>
      </trkpt>
      <trkpt lat="47.45237" lon="6.68964">
        <ele>310</ele>
        <time>2015-07-08T08:36:51.000Z</time>
      </trkpt>
      <trkpt lat="47.45234" lon="6.68964">
        <ele>310</ele>
        <time>2015-07-08T08:36:52.000Z</time>
      </trkpt>
      <trkpt lat="47.45232" lon="6.68964">
        <ele>310</ele>
        <time>2015-07-08T08:36:53.000Z</time>
      </trkpt>
      <trkpt lat="47.45228" lon="6.68962">
        <ele>310</ele>
        <time>2015-07-08T08:36:54.000Z</time>
      </trkpt>
      <trkpt lat="47.45225" lon="6.68958">
        <ele>310</ele>
        <time>2015-07-08T08:36:55.000Z</time>
      </trkpt>
      <trkpt lat="47.45223" lon="6.68953">
        <ele>310</ele>
        <time>2015-07-08T08:36:56.000Z</time>
      </trkpt>
      <trkpt lat="47.45221" lon="6.68949">
        <ele>310</ele>
        <time>2015-07-08T08:36:57.000Z</time>
      </trkpt>
      <trkpt lat="47.45218" lon="6.68943">
        <ele>310</ele>
        <time>2015-07-08T08:36:58.000Z</time>
      </trkpt>
      <trkpt lat="47.45216" lon="6.68938">
        <ele>310</ele>
        <time>2015-07-08T08:36:59.000Z</time>
      </trkpt>
      <trkpt lat="47.45213" lon="6.68932">
        <ele>310</ele>
        <time>2015-07-08T08:37:00.000Z</time>
      </trkpt>
      <trkpt lat="47.4521" lon="6.68926">
        <ele>310</ele>
        <time>2015-07-08T08:37:01.000Z</time>
      </trkpt>
      <trkpt lat="47.45208" lon="6.6892">
        <ele>310</ele>
        <time>2015-07-08T08:37:02.000Z</time>
      </trkpt>
      <trkpt lat="47.45205" lon="6.68914">
        <ele>310</ele>
        <time>2015-07-08T08:37:03.000Z</time>
      </trkpt>
      <trkpt lat="47.45202" lon="6.68908">
        <ele>310</ele>
        <time>2015-07-08T08:37:04.000Z</time>
      </trkpt>
      <trkpt lat="47.45199" lon="6.68902">
        <ele>310</ele>
        <time>2015-07-08T08:37:05.000Z</time>
      </trkpt>
      <trkpt lat="47.45197" lon="6.68895">
        <ele>310</ele>
        <time>2015-07-08T08:37:06.000Z</time>
      </trkpt>
      <trkpt lat="47.45194" lon="6.68889">
        <ele>310</ele>
        <time>2015-07-08T08:37:07.000Z</time>
      </trkpt>
      <trkpt lat="47.45191" lon="6.68882">
        <ele>310</ele>
        <time>2015-07-08T08:37:08.000Z</time>
      </trkpt>
      <trkpt lat="47.45188" lon="6.68875">
        <ele>310</ele>
        <time>2015-07-08T08:37:09.000Z</time>
      </trkpt>
      <trkpt lat="47.45185" lon="6.68869">
        <ele>310</ele>
        <time>2015-07-08T08:37:10.000Z</time>
      </trkpt>
      <trkpt lat="47.45182" lon="6.68863">
        <ele>310</ele>
        <time>2015-07-08T08:37:11.000Z</time>
      </trkpt>
      <trkpt lat="47.45179" lon="6.68856">
        <ele>310</ele>
        <time>2015-07-08T08:37:12.000Z</time>
      </trkpt>
      <trkpt lat="47.45176" lon="6.68849">
        <ele>310</ele>
        <time>2015-07-08T08:37:13.000Z</time>
      </trkpt>
      <trkpt lat="47.45174" lon="6.68843">
        <ele>309</ele>
        <time>2015-07-08T08:37:14.000Z</time>
      </trkpt>
      <trkpt lat="47.45171" lon="6.68836">
        <ele>309</ele>
        <time>2015-07-08T08:37:15.000Z</time>
      </trkpt>
      <trkpt lat="47.45167" lon="6.68829">
        <ele>309</ele>
        <time>2015-07-08T08:37:16.000Z</time>
      </trkpt>
      <trkpt lat="47.45164" lon="6.68822">
        <ele>309</ele>
        <time>2015-07-08T08:37:17.000Z</time>
      </trkpt>
      <trkpt lat="47.45161" lon="6.68814">
        <ele>309</ele>
        <time>2015-07-08T08:37:18.000Z</time>
      </trkpt>
      <trkpt lat="47.45157" lon="6.68806">
        <ele>309</ele>
        <time>2015-07-08T08:37:19.000Z</time>
      </trkpt>
      <trkpt lat="47.45154" lon="6.68798">
        <ele>309</ele>
        <time>2015-07-08T08:37:20.000Z</time>
      </trkpt>
      <trkpt lat="47.4515" lon="6.68791">
        <ele>309</ele>
        <time>2015-07-08T08:37:21.000Z</time>
      </trkpt>
      <trkpt lat="47.45147" lon="6.68783">
        <ele>309</ele>
        <time>2015-07-08T08:37:22.000Z</time>
      </trkpt>
      <trkpt lat="47.45144" lon="6.68776">
        <ele>309</ele>
        <time>2015-07-08T08:37:23.000Z</time>
      </trkpt>
      <trkpt lat="47.45141" lon="6.68769">
        <ele>309</ele>
        <time>2015-07-08T08:37:24.000Z</time>
      </trkpt>
      <trkpt lat="47.45137" lon="6.68761">
        <ele>309</ele>
        <time>2015-07-08T08:37:25.000Z</time>
      </trkpt>
      <trkpt lat="47.45134" lon="6.68753">
        <ele>309</ele>
        <time>2015-07-08T08:37:26.000Z</time>
      </trkpt>
      <trkpt lat="47.45131" lon="6.68745">
        <ele>309</ele>
        <time>2015-07-08T08:37:27.000Z</time>
      </trkpt>
      <trkpt lat="47.45127" lon="6.68737">
        <ele>308</ele>
        <time>2015-07-08T08:37:28.000Z</time>
      </trkpt>
      <trkpt lat="47.45124" lon="6.68729">
        <ele>308</ele>
        <time>2015-07-08T08:37:29.000Z</time>
      </trkpt>
      <trkpt lat="47.4512" lon="6.68721">
        <ele>308</ele>
        <time>2015-07-08T08:37:30.000Z</time>
      </trkpt>
      <trkpt lat="47.45117" lon="6.68714">
        <ele>308</ele>
        <time>2015-07-08T08:37:31.000Z</time>
      </trkpt>
      <trkpt lat="47.45113" lon="6.68706">
        <ele>308</ele>
        <time>2015-07-08T08:37:32.000Z</time>
      </trkpt>
      <trkpt lat="47.4511" lon="6.68699">
        <ele>308</ele>
        <time>2015-07-08T08:37:33.000Z</time>
      </trkpt>
      <trkpt lat="47.45106" lon="6.68692">
        <ele>308</ele>
        <time>2015-07-08T08:37:34.000Z</time>
      </trkpt>
      <trkpt lat="47.45103" lon="6.68685">
        <ele>308</ele>
        <time>2015-07-08T08:37:35.000Z</time>
      </trkpt>
      <trkpt lat="47.451" lon="6.68677">
        <ele>308</ele>
        <time>2015-07-08T08:37:36.000Z</time>
      </trkpt>
      <trkpt lat="47.45097" lon="6.68671">
        <ele>309</ele>
        <time>2015-07-08T08:37:37.000Z</time>
      </trkpt>
      <trkpt lat="47.45094" lon="6.68663">
        <ele>309</ele>
        <time>2015-07-08T08:37:38.000Z</time>
      </trkpt>
      <trkpt lat="47.45091" lon="6.68656">
        <ele>309</ele>
        <time>2015-07-08T08:37:39.000Z</time>
      </trkpt>
      <trkpt lat="47.45088" lon="6.6865">
        <ele>309</ele>
        <time>2015-07-08T08:37:40.000Z</time>
      </trkpt>
      <trkpt lat="47.45085" lon="6.68643">
        <ele>309</ele>
        <time>2015-07-08T08:37:41.000Z</time>
      </trkpt>
      <trkpt lat="47.45082" lon="6.68636">
        <ele>309</ele>
        <time>2015-07-08T08:37:42.000Z</time>
      </trkpt>
      <trkpt lat="47.45079" lon="6.68629">
        <ele>309</ele>
        <time>2015-07-08T08:37:43.000Z</time>
      </trkpt>
      <trkpt lat="47.45076" lon="6.68622">
        <ele>309</ele>
        <time>2015-07-08T08:37:44.000Z</time>
      </trkpt>
      <trkpt lat="47.45072" lon="6.68614">
        <ele>309</ele>
        <time>2015-07-08T08:37:45.000Z</time>
      </trkpt>
      <trkpt lat="47.45069" lon="6.68607">
        <ele>309</ele>
        <time>2015-07-08T08:37:46.000Z</time>
      </trkpt>
      <trkpt lat="47.45066" lon="6.686">
        <ele>309</ele>
        <time>2015-07-08T08:37:47.000Z</time>
      </trkpt>
      <trkpt lat="47.45062" lon="6.68592">
        <ele>309</ele>
        <time>2015-07-08T08:37:48.000Z</time>
      </trkpt>
      <trkpt lat="47.45059" lon="6.68585">
        <ele>308</ele>
        <time>2015-07-08T08:37:49.000Z</time>
      </trkpt>
      <trkpt lat="47.45056" lon="6.68577">
        <ele>308</ele>
        <time>2015-07-08T08:37:50.000Z</time>
      </trkpt>
      <trkpt lat="47.45053" lon="6.6857">
        <ele>308</ele>
        <time>2015-07-08T08:37:51.000Z</time>
      </trkpt>
      <trkpt lat="47.4505" lon="6.68563">
        <ele>308</ele>
        <time>2015-07-08T08:37:52.000Z</time>
      </trkpt>
      <trkpt lat="47.45046" lon="6.68555">
        <ele>308</ele>
        <time>2015-07-08T08:37:53.000Z</time>
      </trkpt>
      <trkpt lat="47.45043" lon="6.68548">
        <ele>308</ele>
        <time>2015-07-08T08:37:54.000Z</time>
      </trkpt>
      <trkpt lat="47.4504" lon="6.68541">
        <ele>308</ele>
        <time>2015-07-08T08:37:55.000Z</time>
      </trkpt>
      <trkpt lat="47.45037" lon="6.68534">
        <ele>308</ele>
        <time>2015-07-08T08:37:56.000Z</time>
      </trkpt>
      <trkpt lat="47.45033" lon="6.68527">
        <ele>308</ele>
        <time>2015-07-08T08:37:57.000Z</time>
      </trkpt>
      <trkpt lat="47.4503" lon="6.6852">
        <ele>308</ele>
        <time>2015-07-08T08:37:58.000Z</time>
      </trkpt>
      <trkpt lat="47.45026" lon="6.68512">
        <ele>308</ele>
        <time>2015-07-08T08:37:59.000Z</time>
      </trkpt>
      <trkpt lat="47.45023" lon="6.68505">
        <ele>308</ele>
        <time>2015-07-08T08:38:00.000Z</time>
      </trkpt>
      <trkpt lat="47.45019" lon="6.68498">
        <ele>308</ele>
        <time>2015-07-08T08:38:01.000Z</time>
      </trkpt>
      <trkpt lat="47.45016" lon="6.68491">
        <ele>307</ele>
        <time>2015-07-08T08:38:02.000Z</time>
      </trkpt>
      <trkpt lat="47.45012" lon="6.68484">
        <ele>307</ele>
        <time>2015-07-08T08:38:03.000Z</time>
      </trkpt>
      <trkpt lat="47.45007" lon="6.68478">
        <ele>307</ele>
        <time>2015-07-08T08:38:04.000Z</time>
      </trkpt>
      <trkpt lat="47.45003" lon="6.68472">
        <ele>307</ele>
        <time>2015-07-08T08:38:05.000Z</time>
      </trkpt>
      <trkpt lat="47.44998" lon="6.68466">
        <ele>307</ele>
        <time>2015-07-08T08:38:06.000Z</time>
      </trkpt>
      <trkpt lat="47.44994" lon="6.6846">
        <ele>307</ele>
        <time>2015-07-08T08:38:07.000Z</time>
      </trkpt>
      <trkpt lat="47.44989" lon="6.68454">
        <ele>307</ele>
        <time>2015-07-08T08:38:08.000Z</time>
      </trkpt>
      <trkpt lat="47.44984" lon="6.68449">
        <ele>307</ele>
        <time>2015-07-08T08:38:09.000Z</time>
      </trkpt>
      <trkpt lat="47.4498" lon="6.68443">
        <ele>307</ele>
        <time>2015-07-08T08:38:10.000Z</time>
      </trkpt>
      <trkpt lat="47.44974" lon="6.68439">
        <ele>307</ele>
        <time>2015-07-08T08:38:11.000Z</time>
      </trkpt>
      <trkpt lat="47.44969" lon="6.68434">
        <ele>307</ele>
        <time>2015-07-08T08:38:12.000Z</time>
      </trkpt>
      <trkpt lat="47.44964" lon="6.68428">
        <ele>307</ele>
        <time>2015-07-08T08:38:13.000Z</time>
      </trkpt>
      <trkpt lat="47.44959" lon="6.68423">
        <ele>307</ele>
        <time>2015-07-08T08:38:14.000Z</time>
      </trkpt>
      <trkpt lat="47.44954" lon="6.68417">
        <ele>307</ele>
        <time>2015-07-08T08:38:15.000Z</time>
      </trkpt>
      <trkpt lat="47.44948" lon="6.68412">
        <ele>307</ele>
        <time>2015-07-08T08:38:16.000Z</time>
      </trkpt>
      <trkpt lat="47.44943" lon="6.68406">
        <ele>307</ele>
        <time>2015-07-08T08:38:17.000Z</time>
      </trkpt>
      <trkpt lat="47.44938" lon="6.68401">
        <ele>307</ele>
        <time>2015-07-08T08:38:18.000Z</time>
      </trkpt>
      <trkpt lat="47.44933" lon="6.68396">
        <ele>307</ele>
        <time>2015-07-08T08:38:19.000Z</time>
      </trkpt>
      <trkpt lat="47.44927" lon="6.6839">
        <ele>307</ele>
        <time>2015-07-08T08:38:20.000Z</time>
      </trkpt>
      <trkpt lat="47.44922" lon="6.68385">
        <ele>307</ele>
        <time>2015-07-08T08:38:21.000Z</time>
      </trkpt>
      <trkpt lat="47.44917" lon="6.6838">
        <ele>307</ele>
        <time>2015-07-08T08:38:22.000Z</time>
      </trkpt>
      <trkpt lat="47.44912" lon="6.68375">
        <ele>307</ele>
        <time>2015-07-08T08:38:23.000Z</time>
      </trkpt>
      <trkpt lat="47.44907" lon="6.6837">
        <ele>307</ele>
        <time>2015-07-08T08:38:24.000Z</time>
      </trkpt>
      <trkpt lat="47.44902" lon="6.68364">
        <ele>307</ele>
        <time>2015-07-08T08:38:25.000Z</time>
      </trkpt>
      <trkpt lat="47.44897" lon="6.68359">
        <ele>307</ele>
        <time>2015-07-08T08:38:26.000Z</time>
      </trkpt>
      <trkpt lat="47.44892" lon="6.68353">
        <ele>307</ele>
        <time>2015-07-08T08:38:27.000Z</time>
      </trkpt>
      <trkpt lat="47.44887" lon="6.68348">
        <ele>307</ele>
        <time>2015-07-08T08:38:28.000Z</time>
      </trkpt>
      <trkpt lat="47.44883" lon="6.68342">
        <ele>307</ele>
        <time>2015-07-08T08:38:29.000Z</time>
      </trkpt>
      <trkpt lat="47.44879" lon="6.68337">
        <ele>307</ele>
        <time>2015-07-08T08:38:30.000Z</time>
      </trkpt>
      <trkpt lat="47.44874" lon="6.68331">
        <ele>307</ele>
        <time>2015-07-08T08:38:31.000Z</time>
      </trkpt>
      <trkpt lat="47.4487" lon="6.68325">
        <ele>307</ele>
        <time>2015-07-08T08:38:32.000Z</time>
      </trkpt>
      <trkpt lat="47.44866" lon="6.68319">
        <ele>307</ele>
        <time>2015-07-08T08:38:33.000Z</time>
      </trkpt>
      <trkpt lat="47.44862" lon="6.68314">
        <ele>307</ele>
        <time>2015-07-08T08:38:34.000Z</time>
      </trkpt>
      <trkpt lat="47.44858" lon="6.68308">
        <ele>307</ele>
        <time>2015-07-08T08:38:35.000Z</time>
      </trkpt>
      <trkpt lat="47.44853" lon="6.68303">
        <ele>308</ele>
        <time>2015-07-08T08:38:36.000Z</time>
      </trkpt>
      <trkpt lat="47.44849" lon="6.68298">
        <ele>308</ele>
        <time>2015-07-08T08:38:37.000Z</time>
      </trkpt>
      <trkpt lat="47.44845" lon="6.68292">
        <ele>307</ele>
        <time>2015-07-08T08:38:38.000Z</time>
      </trkpt>
      <trkpt lat="47.44841" lon="6.68287">
        <ele>307</ele>
        <time>2015-07-08T08:38:39.000Z</time>
      </trkpt>
      <trkpt lat="47.44837" lon="6.68281">
        <ele>307</ele>
        <time>2015-07-08T08:38:40.000Z</time>
      </trkpt>
      <trkpt lat="47.44833" lon="6.68276">
        <ele>307</ele>
        <time>2015-07-08T08:38:41.000Z</time>
      </trkpt>
      <trkpt lat="47.44829" lon="6.6827">
        <ele>307</ele>
        <time>2015-07-08T08:38:42.000Z</time>
      </trkpt>
      <trkpt lat="47.44825" lon="6.68265">
        <ele>307</ele>
        <time>2015-07-08T08:38:43.000Z</time>
      </trkpt>
      <trkpt lat="47.44821" lon="6.68259">
        <ele>307</ele>
        <time>2015-07-08T08:38:44.000Z</time>
      </trkpt>
      <trkpt lat="47.44816" lon="6.68253">
        <ele>307</ele>
        <time>2015-07-08T08:38:45.000Z</time>
      </trkpt>
      <trkpt lat="47.44812" lon="6.68247">
        <ele>307</ele>
        <time>2015-07-08T08:38:46.000Z</time>
      </trkpt>
      <trkpt lat="47.44808" lon="6.68241">
        <ele>307</ele>
        <time>2015-07-08T08:38:47.000Z</time>
      </trkpt>
      <trkpt lat="47.44804" lon="6.68235">
        <ele>307</ele>
        <time>2015-07-08T08:38:48.000Z</time>
      </trkpt>
      <trkpt lat="47.448" lon="6.68229">
        <ele>307</ele>
        <time>2015-07-08T08:38:49.000Z</time>
      </trkpt>
      <trkpt lat="47.44797" lon="6.68223">
        <ele>307</ele>
        <time>2015-07-08T08:38:50.000Z</time>
      </trkpt>
      <trkpt lat="47.44793" lon="6.68217">
        <ele>307</ele>
        <time>2015-07-08T08:38:51.000Z</time>
      </trkpt>
      <trkpt lat="47.4479" lon="6.68211">
        <ele>307</ele>
        <time>2015-07-08T08:38:52.000Z</time>
      </trkpt>
      <trkpt lat="47.44786" lon="6.68205">
        <ele>307</ele>
        <time>2015-07-08T08:38:53.000Z</time>
      </trkpt>
      <trkpt lat="47.44783" lon="6.68198">
        <ele>307</ele>
        <time>2015-07-08T08:38:54.000Z</time>
      </trkpt>
      <trkpt lat="47.4478" lon="6.68191">
        <ele>307</ele>
        <time>2015-07-08T08:38:55.000Z</time>
      </trkpt>
      <trkpt lat="47.44777" lon="6.68184">
        <ele>307</ele>
        <time>2015-07-08T08:38:56.000Z</time>
      </trkpt>
      <trkpt lat="47.44774" lon="6.68176">
        <ele>307</ele>
        <time>2015-07-08T08:38:57.000Z</time>
      </trkpt>
      <trkpt lat="47.44772" lon="6.68169">
        <ele>307</ele>
        <time>2015-07-08T08:38:58.000Z</time>
      </trkpt>
      <trkpt lat="47.44769" lon="6.68162">
        <ele>307</ele>
        <time>2015-07-08T08:38:59.000Z</time>
      </trkpt>
      <trkpt lat="47.44767" lon="6.68154">
        <ele>307</ele>
        <time>2015-07-08T08:39:00.000Z</time>
      </trkpt>
      <trkpt lat="47.44765" lon="6.68147">
        <ele>307</ele>
        <time>2015-07-08T08:39:01.000Z</time>
      </trkpt>
      <trkpt lat="47.44763" lon="6.68139">
        <ele>307</ele>
        <time>2015-07-08T08:39:02.000Z</time>
      </trkpt>
      <trkpt lat="47.44761" lon="6.68132">
        <ele>307</ele>
        <time>2015-07-08T08:39:03.000Z</time>
      </trkpt>
      <trkpt lat="47.44759" lon="6.68125">
        <ele>307</ele>
        <time>2015-07-08T08:39:04.000Z</time>
      </trkpt>
      <trkpt lat="47.44757" lon="6.68117">
        <ele>307</ele>
        <time>2015-07-08T08:39:05.000Z</time>
      </trkpt>
      <trkpt lat="47.44756" lon="6.6811">
        <ele>307</ele>
        <time>2015-07-08T08:39:06.000Z</time>
      </trkpt>
      <trkpt lat="47.44754" lon="6.68102">
        <ele>307</ele>
        <time>2015-07-08T08:39:07.000Z</time>
      </trkpt>
      <trkpt lat="47.44753" lon="6.68094">
        <ele>307</ele>
        <time>2015-07-08T08:39:08.000Z</time>
      </trkpt>
      <trkpt lat="47.44751" lon="6.68086">
        <ele>307</ele>
        <time>2015-07-08T08:39:09.000Z</time>
      </trkpt>
      <trkpt lat="47.4475" lon="6.68078">
        <ele>307</ele>
        <time>2015-07-08T08:39:10.000Z</time>
      </trkpt>
      <trkpt lat="47.44749" lon="6.6807">
        <ele>307</ele>
        <time>2015-07-08T08:39:11.000Z</time>
      </trkpt>
      <trkpt lat="47.44747" lon="6.68062">
        <ele>307</ele>
        <time>2015-07-08T08:39:12.000Z</time>
      </trkpt>
      <trkpt lat="47.44746" lon="6.68053">
        <ele>307</ele>
        <time>2015-07-08T08:39:13.000Z</time>
      </trkpt>
      <trkpt lat="47.44745" lon="6.68045">
        <ele>307</ele>
        <time>2015-07-08T08:39:14.000Z</time>
      </trkpt>
      <trkpt lat="47.44743" lon="6.68037">
        <ele>307</ele>
        <time>2015-07-08T08:39:15.000Z</time>
      </trkpt>
      <trkpt lat="47.44742" lon="6.68028">
        <ele>307</ele>
        <time>2015-07-08T08:39:16.000Z</time>
      </trkpt>
      <trkpt lat="47.44741" lon="6.6802">
        <ele>307</ele>
        <time>2015-07-08T08:39:17.000Z</time>
      </trkpt>
      <trkpt lat="47.44739" lon="6.68012">
        <ele>307</ele>
        <time>2015-07-08T08:39:18.000Z</time>
      </trkpt>
      <trkpt lat="47.44738" lon="6.68003">
        <ele>307</ele>
        <time>2015-07-08T08:39:19.000Z</time>
      </trkpt>
      <trkpt lat="47.44736" lon="6.67995">
        <ele>307</ele>
        <time>2015-07-08T08:39:20.000Z</time>
      </trkpt>
      <trkpt lat="47.44735" lon="6.67987">
        <ele>307</ele>
        <time>2015-07-08T08:39:21.000Z</time>
      </trkpt>
      <trkpt lat="47.44734" lon="6.67979">
        <ele>307</ele>
        <time>2015-07-08T08:39:22.000Z</time>
      </trkpt>
      <trkpt lat="47.44732" lon="6.67971">
        <ele>307</ele>
        <time>2015-07-08T08:39:23.000Z</time>
      </trkpt>
      <trkpt lat="47.44731" lon="6.67963">
        <ele>307</ele>
        <time>2015-07-08T08:39:24.000Z</time>
      </trkpt>
      <trkpt lat="47.4473" lon="6.67955">
        <ele>307</ele>
        <time>2015-07-08T08:39:25.000Z</time>
      </trkpt>
      <trkpt lat="47.44728" lon="6.67947">
        <ele>307</ele>
        <time>2015-07-08T08:39:26.000Z</time>
      </trkpt>
      <trkpt lat="47.44727" lon="6.6794">
        <ele>307</ele>
        <time>2015-07-08T08:39:27.000Z</time>
      </trkpt>
      <trkpt lat="47.44726" lon="6.67932">
        <ele>307</ele>
        <time>2015-07-08T08:39:28.000Z</time>
      </trkpt>
      <trkpt lat="47.44725" lon="6.67924">
        <ele>307</ele>
        <time>2015-07-08T08:39:29.000Z</time>
      </trkpt>
      <trkpt lat="47.44723" lon="6.67916">
        <ele>307</ele>
        <time>2015-07-08T08:39:30.000Z</time>
      </trkpt>
      <trkpt lat="47.44722" lon="6.67908">
        <ele>307</ele>
        <time>2015-07-08T08:39:31.000Z</time>
      </trkpt>
      <trkpt lat="47.44721" lon="6.679">
        <ele>307</ele>
        <time>2015-07-08T08:39:32.000Z</time>
      </trkpt>
      <trkpt lat="47.44719" lon="6.67892">
        <ele>307</ele>
        <time>2015-07-08T08:39:33.000Z</time>
      </trkpt>
      <trkpt lat="47.44718" lon="6.67883">
        <ele>307</ele>
        <time>2015-07-08T08:39:34.000Z</time>
      </trkpt>
      <trkpt lat="47.44717" lon="6.67875">
        <ele>307</ele>
        <time>2015-07-08T08:39:35.000Z</time>
      </trkpt>
      <trkpt lat="47.44715" lon="6.67866">
        <ele>307</ele>
        <time>2015-07-08T08:39:36.000Z</time>
      </trkpt>
      <trkpt lat="47.44714" lon="6.67858">
        <ele>307</ele>
        <time>2015-07-08T08:39:37.000Z</time>
      </trkpt>
      <trkpt lat="47.44713" lon="6.6785">
        <ele>307</ele>
        <time>2015-07-08T08:39:38.000Z</time>
      </trkpt>
      <trkpt lat="47.44711" lon="6.67841">
        <ele>307</ele>
        <time>2015-07-08T08:39:39.000Z</time>
      </trkpt>
      <trkpt lat="47.4471" lon="6.67832">
        <ele>307</ele>
        <time>2015-07-08T08:39:40.000Z</time>
      </trkpt>
      <trkpt lat="47.44709" lon="6.67824">
        <ele>307</ele>
        <time>2015-07-08T08:39:41.000Z</time>
      </trkpt>
      <trkpt lat="47.44708" lon="6.67815">
        <ele>307</ele>
        <time>2015-07-08T08:39:42.000Z</time>
      </trkpt>
      <trkpt lat="47.44706" lon="6.67806">
        <ele>307</ele>
        <time>2015-07-08T08:39:43.000Z</time>
      </trkpt>
      <trkpt lat="47.44704" lon="6.67797">
        <ele>307</ele>
        <time>2015-07-08T08:39:44.000Z</time>
      </trkpt>
      <trkpt lat="47.44703" lon="6.67788">
        <ele>307</ele>
        <time>2015-07-08T08:39:45.000Z</time>
      </trkpt>
      <trkpt lat="47.44701" lon="6.67779">
        <ele>307</ele>
        <time>2015-07-08T08:39:46.000Z</time>
      </trkpt>
      <trkpt lat="47.447" lon="6.6777">
        <ele>307</ele>
        <time>2015-07-08T08:39:47.000Z</time>
      </trkpt>
      <trkpt lat="47.44698" lon="6.67761">
        <ele>307</ele>
        <time>2015-07-08T08:39:48.000Z</time>
      </trkpt>
      <trkpt lat="47.44696" lon="6.67752">
        <ele>306</ele>
        <time>2015-07-08T08:39:49.000Z</time>
      </trkpt>
      <trkpt lat="47.44695" lon="6.67743">
        <ele>307</ele>
        <time>2015-07-08T08:39:50.000Z</time>
      </trkpt>
      <trkpt lat="47.44693" lon="6.67734">
        <ele>307</ele>
        <time>2015-07-08T08:39:51.000Z</time>
      </trkpt>
      <trkpt lat="47.44692" lon="6.67725">
        <ele>307</ele>
        <time>2015-07-08T08:39:52.000Z</time>
      </trkpt>
      <trkpt lat="47.4469" lon="6.67716">
        <ele>307</ele>
        <time>2015-07-08T08:39:53.000Z</time>
      </trkpt>
      <trkpt lat="47.44688" lon="6.67707">
        <ele>307</ele>
        <time>2015-07-08T08:39:54.000Z</time>
      </trkpt>
      <trkpt lat="47.44686" lon="6.67699">
        <ele>307</ele>
        <time>2015-07-08T08:39:55.000Z</time>
      </trkpt>
      <trkpt lat="47.44685" lon="6.6769">
        <ele>307</ele>
        <time>2015-07-08T08:39:56.000Z</time>
      </trkpt>
      <trkpt lat="47.44683" lon="6.6768">
        <ele>307</ele>
        <time>2015-07-08T08:39:57.000Z</time>
      </trkpt>
      <trkpt lat="47.44681" lon="6.67672">
        <ele>307</ele>
        <time>2015-07-08T08:39:58.000Z</time>
      </trkpt>
      <trkpt lat="47.44679" lon="6.67663">
        <ele>307</ele>
        <time>2015-07-08T08:39:59.000Z</time>
      </trkpt>
      <trkpt lat="47.44678" lon="6.67653">
        <ele>307</ele>
        <time>2015-07-08T08:40:00.000Z</time>
      </trkpt>
      <trkpt lat="47.44676" lon="6.67644">
        <ele>307</ele>
        <time>2015-07-08T08:40:01.000Z</time>
      </trkpt>
      <trkpt lat="47.44674" lon="6.67635">
        <ele>307</ele>
        <time>2015-07-08T08:40:02.000Z</time>
      </trkpt>
      <trkpt lat="47.44672" lon="6.67626">
        <ele>307</ele>
        <time>2015-07-08T08:40:03.000Z</time>
      </trkpt>
      <trkpt lat="47.4467" lon="6.67617">
        <ele>307</ele>
        <time>2015-07-08T08:40:04.000Z</time>
      </trkpt>
      <trkpt lat="47.44668" lon="6.67608">
        <ele>306</ele>
        <time>2015-07-08T08:40:05.000Z</time>
      </trkpt>
      <trkpt lat="47.44666" lon="6.67599">
        <ele>306</ele>
        <time>2015-07-08T08:40:06.000Z</time>
      </trkpt>
      <trkpt lat="47.44664" lon="6.67589">
        <ele>306</ele>
        <time>2015-07-08T08:40:07.000Z</time>
      </trkpt>
      <trkpt lat="47.44662" lon="6.6758">
        <ele>306</ele>
        <time>2015-07-08T08:40:08.000Z</time>
      </trkpt>
      <trkpt lat="47.4466" lon="6.67571">
        <ele>306</ele>
        <time>2015-07-08T08:40:09.000Z</time>
      </trkpt>
      <trkpt lat="47.44659" lon="6.67562">
        <ele>306</ele>
        <time>2015-07-08T08:40:10.000Z</time>
      </trkpt>
      <trkpt lat="47.44657" lon="6.67553">
        <ele>306</ele>
        <time>2015-07-08T08:40:11.000Z</time>
      </trkpt>
      <trkpt lat="47.44655" lon="6.67543">
        <ele>306</ele>
        <time>2015-07-08T08:40:12.000Z</time>
      </trkpt>
      <trkpt lat="47.44653" lon="6.67534">
        <ele>306</ele>
        <time>2015-07-08T08:40:13.000Z</time>
      </trkpt>
      <trkpt lat="47.44652" lon="6.67524">
        <ele>306</ele>
        <time>2015-07-08T08:40:14.000Z</time>
      </trkpt>
      <trkpt lat="47.4465" lon="6.67515">
        <ele>306</ele>
        <time>2015-07-08T08:40:15.000Z</time>
      </trkpt>
      <trkpt lat="47.44648" lon="6.67505">
        <ele>306</ele>
        <time>2015-07-08T08:40:16.000Z</time>
      </trkpt>
      <trkpt lat="47.44646" lon="6.67496">
        <ele>306</ele>
        <time>2015-07-08T08:40:17.000Z</time>
      </trkpt>
      <trkpt lat="47.44644" lon="6.67486">
        <ele>306</ele>
        <time>2015-07-08T08:40:18.000Z</time>
      </trkpt>
      <trkpt lat="47.44643" lon="6.67477">
        <ele>306</ele>
        <time>2015-07-08T08:40:19.000Z</time>
      </trkpt>
      <trkpt lat="47.44642" lon="6.67467">
        <ele>306</ele>
        <time>2015-07-08T08:40:20.000Z</time>
      </trkpt>
      <trkpt lat="47.4464" lon="6.67458">
        <ele>306</ele>
        <time>2015-07-08T08:40:21.000Z</time>
      </trkpt>
      <trkpt lat="47.44639" lon="6.67448">
        <ele>306</ele>
        <time>2015-07-08T08:40:22.000Z</time>
      </trkpt>
      <trkpt lat="47.44638" lon="6.67438">
        <ele>306</ele>
        <time>2015-07-08T08:40:23.000Z</time>
      </trkpt>
      <trkpt lat="47.44638" lon="6.67428">
        <ele>306</ele>
        <time>2015-07-08T08:40:24.000Z</time>
      </trkpt>
      <trkpt lat="47.44638" lon="6.67418">
        <ele>306</ele>
        <time>2015-07-08T08:40:25.000Z</time>
      </trkpt>
      <trkpt lat="47.44637" lon="6.67408">
        <ele>306</ele>
        <time>2015-07-08T08:40:26.000Z</time>
      </trkpt>
      <trkpt lat="47.44637" lon="6.67398">
        <ele>306</ele>
        <time>2015-07-08T08:40:27.000Z</time>
      </trkpt>
      <trkpt lat="47.44637" lon="6.67388">
        <ele>306</ele>
        <time>2015-07-08T08:40:28.000Z</time>
      </trkpt>
      <trkpt lat="47.44638" lon="6.67378">
        <ele>306</ele>
        <time>2015-07-08T08:40:29.000Z</time>
      </trkpt>
      <trkpt lat="47.44639" lon="6.67368">
        <ele>306</ele>
        <time>2015-07-08T08:40:30.000Z</time>
      </trkpt>
      <trkpt lat="47.4464" lon="6.67358">
        <ele>306</ele>
        <time>2015-07-08T08:40:31.000Z</time>
      </trkpt>
      <trkpt lat="47.44642" lon="6.67348">
        <ele>306</ele>
        <time>2015-07-08T08:40:32.000Z</time>
      </trkpt>
      <trkpt lat="47.44643" lon="6.67338">
        <ele>306</ele>
        <time>2015-07-08T08:40:33.000Z</time>
      </trkpt>
      <trkpt lat="47.44645" lon="6.67328">
        <ele>306</ele>
        <time>2015-07-08T08:40:34.000Z</time>
      </trkpt>
      <trkpt lat="47.44648" lon="6.67318">
        <ele>306</ele>
        <time>2015-07-08T08:40:35.000Z</time>
      </trkpt>
      <trkpt lat="47.4465" lon="6.67309">
        <ele>306</ele>
        <time>2015-07-08T08:40:36.000Z</time>
      </trkpt>
      <trkpt lat="47.44652" lon="6.67299">
        <ele>306</ele>
        <time>2015-07-08T08:40:37.000Z</time>
      </trkpt>
      <trkpt lat="47.44655" lon="6.6729">
        <ele>306</ele>
        <time>2015-07-08T08:40:38.000Z</time>
      </trkpt>
      <trkpt lat="47.44658" lon="6.6728">
        <ele>306</ele>
        <time>2015-07-08T08:40:39.000Z</time>
      </trkpt>
      <trkpt lat="47.4466" lon="6.67271">
        <ele>306</ele>
        <time>2015-07-08T08:40:40.000Z</time>
      </trkpt>
      <trkpt lat="47.44663" lon="6.67261">
        <ele>306</ele>
        <time>2015-07-08T08:40:41.000Z</time>
      </trkpt>
      <trkpt lat="47.44666" lon="6.67252">
        <ele>306</ele>
        <time>2015-07-08T08:40:42.000Z</time>
      </trkpt>
      <trkpt lat="47.44669" lon="6.67242">
        <ele>306</ele>
        <time>2015-07-08T08:40:43.000Z</time>
      </trkpt>
      <trkpt lat="47.44671" lon="6.67233">
        <ele>306</ele>
        <time>2015-07-08T08:40:44.000Z</time>
      </trkpt>
      <trkpt lat="47.44674" lon="6.67223">
        <ele>306</ele>
        <time>2015-07-08T08:40:45.000Z</time>
      </trkpt>
      <trkpt lat="47.44677" lon="6.67213">
        <ele>306</ele>
        <time>2015-07-08T08:40:46.000Z</time>
      </trkpt>
      <trkpt lat="47.4468" lon="6.67204">
        <ele>306</ele>
        <time>2015-07-08T08:40:47.000Z</time>
      </trkpt>
      <trkpt lat="47.44683" lon="6.67194">
        <ele>306</ele>
        <time>2015-07-08T08:40:48.000Z</time>
      </trkpt>
      <trkpt lat="47.44686" lon="6.67185">
        <ele>306</ele>
        <time>2015-07-08T08:40:49.000Z</time>
      </trkpt>
      <trkpt lat="47.44688" lon="6.67175">
        <ele>306</ele>
        <time>2015-07-08T08:40:50.000Z</time>
      </trkpt>
      <trkpt lat="47.44691" lon="6.67166">
        <ele>306</ele>
        <time>2015-07-08T08:40:51.000Z</time>
      </trkpt>
      <trkpt lat="47.44694" lon="6.67156">
        <ele>306</ele>
        <time>2015-07-08T08:40:52.000Z</time>
      </trkpt>
      <trkpt lat="47.44697" lon="6.67147">
        <ele>306</ele>
        <time>2015-07-08T08:40:53.000Z</time>
      </trkpt>
      <trkpt lat="47.447" lon="6.67137">
        <ele>306</ele>
        <time>2015-07-08T08:40:54.000Z</time>
      </trkpt>
      <trkpt lat="47.44703" lon="6.67128">
        <ele>306</ele>
        <time>2015-07-08T08:40:55.000Z</time>
      </trkpt>
      <trkpt lat="47.44706" lon="6.67118">
        <ele>306</ele>
        <time>2015-07-08T08:40:56.000Z</time>
      </trkpt>
      <trkpt lat="47.44709" lon="6.67108">
        <ele>306</ele>
        <time>2015-07-08T08:40:57.000Z</time>
      </trkpt>
      <trkpt lat="47.44712" lon="6.67099">
        <ele>306</ele>
        <time>2015-07-08T08:40:58.000Z</time>
      </trkpt>
      <trkpt lat="47.44715" lon="6.6709">
        <ele>306</ele>
        <time>2015-07-08T08:40:59.000Z</time>
      </trkpt>
      <trkpt lat="47.44718" lon="6.6708">
        <ele>306</ele>
        <time>2015-07-08T08:41:00.000Z</time>
      </trkpt>
      <trkpt lat="47.4472" lon="6.6707">
        <ele>306</ele>
        <time>2015-07-08T08:41:01.000Z</time>
      </trkpt>
      <trkpt lat="47.44723" lon="6.6706">
        <ele>306</ele>
        <time>2015-07-08T08:41:02.000Z</time>
      </trkpt>
      <trkpt lat="47.44726" lon="6.6705">
        <ele>306</ele>
        <time>2015-07-08T08:41:03.000Z</time>
      </trkpt>
      <trkpt lat="47.44728" lon="6.6704">
        <ele>306</ele>
        <time>2015-07-08T08:41:04.000Z</time>
      </trkpt>
      <trkpt lat="47.4473" lon="6.6703">
        <ele>306</ele>
        <time>2015-07-08T08:41:05.000Z</time>
      </trkpt>
      <trkpt lat="47.44732" lon="6.6702">
        <ele>306</ele>
        <time>2015-07-08T08:41:06.000Z</time>
      </trkpt>
      <trkpt lat="47.44733" lon="6.6701">
        <ele>306</ele>
        <time>2015-07-08T08:41:07.000Z</time>
      </trkpt>
      <trkpt lat="47.44734" lon="6.66999">
        <ele>306</ele>
        <time>2015-07-08T08:41:08.000Z</time>
      </trkpt>
      <trkpt lat="47.44736" lon="6.66989">
        <ele>306</ele>
        <time>2015-07-08T08:41:09.000Z</time>
      </trkpt>
      <trkpt lat="47.44737" lon="6.66979">
        <ele>306</ele>
        <time>2015-07-08T08:41:10.000Z</time>
      </trkpt>
      <trkpt lat="47.44738" lon="6.66969">
        <ele>306</ele>
        <time>2015-07-08T08:41:11.000Z</time>
      </trkpt>
      <trkpt lat="47.44739" lon="6.66959">
        <ele>306</ele>
        <time>2015-07-08T08:41:12.000Z</time>
      </trkpt>
      <trkpt lat="47.4474" lon="6.66949">
        <ele>306</ele>
        <time>2015-07-08T08:41:13.000Z</time>
      </trkpt>
      <trkpt lat="47.44741" lon="6.66939">
        <ele>306</ele>
        <time>2015-07-08T08:41:14.000Z</time>
      </trkpt>
      <trkpt lat="47.44742" lon="6.66929">
        <ele>305</ele>
        <time>2015-07-08T08:41:15.000Z</time>
      </trkpt>
      <trkpt lat="47.44743" lon="6.66919">
        <ele>305</ele>
        <time>2015-07-08T08:41:16.000Z</time>
      </trkpt>
      <trkpt lat="47.44744" lon="6.66909">
        <ele>305</ele>
        <time>2015-07-08T08:41:17.000Z</time>
      </trkpt>
      <trkpt lat="47.44745" lon="6.66899">
        <ele>305</ele>
        <time>2015-07-08T08:41:18.000Z</time>
      </trkpt>
      <trkpt lat="47.44746" lon="6.66889">
        <ele>305</ele>
        <time>2015-07-08T08:41:19.000Z</time>
      </trkpt>
      <trkpt lat="47.44746" lon="6.66879">
        <ele>305</ele>
        <time>2015-07-08T08:41:20.000Z</time>
      </trkpt>
      <trkpt lat="47.44747" lon="6.66869">
        <ele>305</ele>
        <time>2015-07-08T08:41:21.000Z</time>
      </trkpt>
      <trkpt lat="47.44747" lon="6.66858">
        <ele>305</ele>
        <time>2015-07-08T08:41:22.000Z</time>
      </trkpt>
      <trkpt lat="47.44747" lon="6.66848">
        <ele>305</ele>
        <time>2015-07-08T08:41:23.000Z</time>
      </trkpt>
      <trkpt lat="47.44747" lon="6.66837">
        <ele>305</ele>
        <time>2015-07-08T08:41:24.000Z</time>
      </trkpt>
      <trkpt lat="47.44747" lon="6.66827">
        <ele>305</ele>
        <time>2015-07-08T08:41:25.000Z</time>
      </trkpt>
      <trkpt lat="47.44746" lon="6.66817">
        <ele>305</ele>
        <time>2015-07-08T08:41:26.000Z</time>
      </trkpt>
      <trkpt lat="47.44746" lon="6.66807">
        <ele>305</ele>
        <time>2015-07-08T08:41:27.000Z</time>
      </trkpt>
      <trkpt lat="47.44745" lon="6.66796">
        <ele>305</ele>
        <time>2015-07-08T08:41:28.000Z</time>
      </trkpt>
      <trkpt lat="47.44744" lon="6.66786">
        <ele>305</ele>
        <time>2015-07-08T08:41:29.000Z</time>
      </trkpt>
      <trkpt lat="47.44743" lon="6.66775">
        <ele>305</ele>
        <time>2015-07-08T08:41:30.000Z</time>
      </trkpt>
      <trkpt lat="47.44742" lon="6.66765">
        <ele>305</ele>
        <time>2015-07-08T08:41:31.000Z</time>
      </trkpt>
      <trkpt lat="47.44741" lon="6.66754">
        <ele>305</ele>
        <time>2015-07-08T08:41:32.000Z</time>
      </trkpt>
      <trkpt lat="47.44739" lon="6.66744">
        <ele>305</ele>
        <time>2015-07-08T08:41:33.000Z</time>
      </trkpt>
      <trkpt lat="47.44738" lon="6.66733">
        <ele>305</ele>
        <time>2015-07-08T08:41:34.000Z</time>
      </trkpt>
      <trkpt lat="47.44736" lon="6.66723">
        <ele>305</ele>
        <time>2015-07-08T08:41:35.000Z</time>
      </trkpt>
      <trkpt lat="47.44734" lon="6.66713">
        <ele>305</ele>
        <time>2015-07-08T08:41:36.000Z</time>
      </trkpt>
      <trkpt lat="47.44732" lon="6.66703">
        <ele>305</ele>
        <time>2015-07-08T08:41:37.000Z</time>
      </trkpt>
      <trkpt lat="47.4473" lon="6.66693">
        <ele>305</ele>
        <time>2015-07-08T08:41:38.000Z</time>
      </trkpt>
      <trkpt lat="47.44728" lon="6.66682">
        <ele>305</ele>
        <time>2015-07-08T08:41:39.000Z</time>
      </trkpt>
      <trkpt lat="47.44727" lon="6.66672">
        <ele>305</ele>
        <time>2015-07-08T08:41:40.000Z</time>
      </trkpt>
      <trkpt lat="47.44725" lon="6.66662">
        <ele>305</ele>
        <time>2015-07-08T08:41:41.000Z</time>
      </trkpt>
      <trkpt lat="47.44723" lon="6.66652">
        <ele>305</ele>
        <time>2015-07-08T08:41:42.000Z</time>
      </trkpt>
      <trkpt lat="47.44722" lon="6.66641">
        <ele>305</ele>
        <time>2015-07-08T08:41:43.000Z</time>
      </trkpt>
      <trkpt lat="47.4472" lon="6.66631">
        <ele>305</ele>
        <time>2015-07-08T08:41:44.000Z</time>
      </trkpt>
      <trkpt lat="47.44719" lon="6.6662">
        <ele>305</ele>
        <time>2015-07-08T08:41:45.000Z</time>
      </trkpt>
      <trkpt lat="47.44719" lon="6.6661">
        <ele>305</ele>
        <time>2015-07-08T08:41:46.000Z</time>
      </trkpt>
      <trkpt lat="47.44718" lon="6.66599">
        <ele>305</ele>
        <time>2015-07-08T08:41:47.000Z</time>
      </trkpt>
      <trkpt lat="47.44718" lon="6.66589">
        <ele>305</ele>
        <time>2015-07-08T08:41:48.000Z</time>
      </trkpt>
      <trkpt lat="47.44718" lon="6.66578">
        <ele>305</ele>
        <time>2015-07-08T08:41:49.000Z</time>
      </trkpt>
      <trkpt lat="47.44718" lon="6.66568">
        <ele>305</ele>
        <time>2015-07-08T08:41:50.000Z</time>
      </trkpt>
      <trkpt lat="47.44718" lon="6.66558">
        <ele>305</ele>
        <time>2015-07-08T08:41:51.000Z</time>
      </trkpt>
      <trkpt lat="47.44718" lon="6.66547">
        <ele>305</ele>
        <time>2015-07-08T08:41:52.000Z</time>
      </trkpt>
      <trkpt lat="47.44718" lon="6.66537">
        <ele>305</ele>
        <time>2015-07-08T08:41:53.000Z</time>
      </trkpt>
      <trkpt lat="47.44719" lon="6.66527">
        <ele>305</ele>
        <time>2015-07-08T08:41:54.000Z</time>
      </trkpt>
      <trkpt lat="47.44719" lon="6.66517">
        <ele>305</ele>
        <time>2015-07-08T08:41:55.000Z</time>
      </trkpt>
      <trkpt lat="47.4472" lon="6.66507">
        <ele>305</ele>
        <time>2015-07-08T08:41:56.000Z</time>
      </trkpt>
      <trkpt lat="47.4472" lon="6.66497">
        <ele>305</ele>
        <time>2015-07-08T08:41:57.000Z</time>
      </trkpt>
      <trkpt lat="47.4472" lon="6.66487">
        <ele>305</ele>
        <time>2015-07-08T08:41:58.000Z</time>
      </trkpt>
      <trkpt lat="47.4472" lon="6.66477">
        <ele>305</ele>
        <time>2015-07-08T08:41:59.000Z</time>
      </trkpt>
      <trkpt lat="47.44721" lon="6.66467">
        <ele>305</ele>
        <time>2015-07-08T08:42:00.000Z</time>
      </trkpt>
      <trkpt lat="47.44721" lon="6.66457">
        <ele>305</ele>
        <time>2015-07-08T08:42:01.000Z</time>
      </trkpt>
      <trkpt lat="47.4472" lon="6.66446">
        <ele>305</ele>
        <time>2015-07-08T08:42:02.000Z</time>
      </trkpt>
      <trkpt lat="47.4472" lon="6.66436">
        <ele>305</ele>
        <time>2015-07-08T08:42:03.000Z</time>
      </trkpt>
      <trkpt lat="47.4472" lon="6.66426">
        <ele>305</ele>
        <time>2015-07-08T08:42:04.000Z</time>
      </trkpt>
      <trkpt lat="47.4472" lon="6.66415">
        <ele>305</ele>
        <time>2015-07-08T08:42:05.000Z</time>
      </trkpt>
      <trkpt lat="47.4472" lon="6.66405">
        <ele>305</ele>
        <time>2015-07-08T08:42:06.000Z</time>
      </trkpt>
      <trkpt lat="47.4472" lon="6.66395">
        <ele>304</ele>
        <time>2015-07-08T08:42:07.000Z</time>
      </trkpt>
      <trkpt lat="47.4472" lon="6.66384">
        <ele>304</ele>
        <time>2015-07-08T08:42:08.000Z</time>
      </trkpt>
      <trkpt lat="47.44719" lon="6.66374">
        <ele>304</ele>
        <time>2015-07-08T08:42:09.000Z</time>
      </trkpt>
      <trkpt lat="47.44719" lon="6.66363">
        <ele>304</ele>
        <time>2015-07-08T08:42:10.000Z</time>
      </trkpt>
      <trkpt lat="47.44719" lon="6.66352">
        <ele>304</ele>
        <time>2015-07-08T08:42:11.000Z</time>
      </trkpt>
      <trkpt lat="47.44718" lon="6.66341">
        <ele>304</ele>
        <time>2015-07-08T08:42:12.000Z</time>
      </trkpt>
      <trkpt lat="47.44718" lon="6.66331">
        <ele>304</ele>
        <time>2015-07-08T08:42:13.000Z</time>
      </trkpt>
      <trkpt lat="47.44718" lon="6.66321">
        <ele>304</ele>
        <time>2015-07-08T08:42:14.000Z</time>
      </trkpt>
      <trkpt lat="47.44717" lon="6.6631">
        <ele>304</ele>
        <time>2015-07-08T08:42:15.000Z</time>
      </trkpt>
      <trkpt lat="47.44717" lon="6.66299">
        <ele>304</ele>
        <time>2015-07-08T08:42:16.000Z</time>
      </trkpt>
      <trkpt lat="47.44717" lon="6.66289">
        <ele>304</ele>
        <time>2015-07-08T08:42:17.000Z</time>
      </trkpt>
      <trkpt lat="47.44717" lon="6.66278">
        <ele>304</ele>
        <time>2015-07-08T08:42:18.000Z</time>
      </trkpt>
      <trkpt lat="47.44717" lon="6.66267">
        <ele>304</ele>
        <time>2015-07-08T08:42:19.000Z</time>
      </trkpt>
      <trkpt lat="47.44717" lon="6.66257">
        <ele>304</ele>
        <time>2015-07-08T08:42:20.000Z</time>
      </trkpt>
      <trkpt lat="47.44716" lon="6.66246">
        <ele>304</ele>
        <time>2015-07-08T08:42:21.000Z</time>
      </trkpt>
      <trkpt lat="47.44716" lon="6.66235">
        <ele>304</ele>
        <time>2015-07-08T08:42:22.000Z</time>
      </trkpt>
      <trkpt lat="47.44716" lon="6.66224">
        <ele>304</ele>
        <time>2015-07-08T08:42:23.000Z</time>
      </trkpt>
      <trkpt lat="47.44715" lon="6.66214">
        <ele>304</ele>
        <time>2015-07-08T08:42:24.000Z</time>
      </trkpt>
      <trkpt lat="47.44715" lon="6.66203">
        <ele>304</ele>
        <time>2015-07-08T08:42:25.000Z</time>
      </trkpt>
      <trkpt lat="47.44714" lon="6.66193">
        <ele>304</ele>
        <time>2015-07-08T08:42:26.000Z</time>
      </trkpt>
      <trkpt lat="47.44714" lon="6.66182">
        <ele>304</ele>
        <time>2015-07-08T08:42:27.000Z</time>
      </trkpt>
      <trkpt lat="47.44714" lon="6.66171">
        <ele>304</ele>
        <time>2015-07-08T08:42:28.000Z</time>
      </trkpt>
      <trkpt lat="47.44714" lon="6.6616">
        <ele>304</ele>
        <time>2015-07-08T08:42:29.000Z</time>
      </trkpt>
      <trkpt lat="47.44713" lon="6.6615">
        <ele>304</ele>
        <time>2015-07-08T08:42:30.000Z</time>
      </trkpt>
      <trkpt lat="47.44713" lon="6.66139">
        <ele>304</ele>
        <time>2015-07-08T08:42:31.000Z</time>
      </trkpt>
      <trkpt lat="47.44713" lon="6.66128">
        <ele>304</ele>
        <time>2015-07-08T08:42:32.000Z</time>
      </trkpt>
      <trkpt lat="47.44712" lon="6.66117">
        <ele>303</ele>
        <time>2015-07-08T08:42:33.000Z</time>
      </trkpt>
      <trkpt lat="47.44712" lon="6.66106">
        <ele>303</ele>
        <time>2015-07-08T08:42:34.000Z</time>
      </trkpt>
      <trkpt lat="47.44712" lon="6.66095">
        <ele>303</ele>
        <time>2015-07-08T08:42:35.000Z</time>
      </trkpt>
      <trkpt lat="47.44711" lon="6.66084">
        <ele>303</ele>
        <time>2015-07-08T08:42:36.000Z</time>
      </trkpt>
      <trkpt lat="47.44711" lon="6.66074">
        <ele>303</ele>
        <time>2015-07-08T08:42:37.000Z</time>
      </trkpt>
      <trkpt lat="47.44711" lon="6.66063">
        <ele>303</ele>
        <time>2015-07-08T08:42:38.000Z</time>
      </trkpt>
      <trkpt lat="47.4471" lon="6.66052">
        <ele>303</ele>
        <time>2015-07-08T08:42:39.000Z</time>
      </trkpt>
      <trkpt lat="47.4471" lon="6.66042">
        <ele>303</ele>
        <time>2015-07-08T08:42:40.000Z</time>
      </trkpt>
      <trkpt lat="47.4471" lon="6.66032">
        <ele>303</ele>
        <time>2015-07-08T08:42:41.000Z</time>
      </trkpt>
      <trkpt lat="47.44709" lon="6.66022">
        <ele>303</ele>
        <time>2015-07-08T08:42:42.000Z</time>
      </trkpt>
      <trkpt lat="47.44709" lon="6.66011">
        <ele>303</ele>
        <time>2015-07-08T08:42:43.000Z</time>
      </trkpt>
      <trkpt lat="47.44709" lon="6.66001">
        <ele>303</ele>
        <time>2015-07-08T08:42:44.000Z</time>
      </trkpt>
      <trkpt lat="47.44708" lon="6.6599">
        <ele>303</ele>
        <time>2015-07-08T08:42:45.000Z</time>
      </trkpt>
      <trkpt lat="47.44708" lon="6.6598">
        <ele>303</ele>
        <time>2015-07-08T08:42:46.000Z</time>
      </trkpt>
      <trkpt lat="47.44708" lon="6.65969">
        <ele>303</ele>
        <time>2015-07-08T08:42:47.000Z</time>
      </trkpt>
      <trkpt lat="47.44708" lon="6.65959">
        <ele>303</ele>
        <time>2015-07-08T08:42:48.000Z</time>
      </trkpt>
      <trkpt lat="47.44707" lon="6.65949">
        <ele>303</ele>
        <time>2015-07-08T08:42:49.000Z</time>
      </trkpt>
      <trkpt lat="47.44707" lon="6.65938">
        <ele>303</ele>
        <time>2015-07-08T08:42:50.000Z</time>
      </trkpt>
      <trkpt lat="47.44707" lon="6.65928">
        <ele>303</ele>
        <time>2015-07-08T08:42:51.000Z</time>
      </trkpt>
      <trkpt lat="47.44706" lon="6.65917">
        <ele>303</ele>
        <time>2015-07-08T08:42:52.000Z</time>
      </trkpt>
      <trkpt lat="47.44706" lon="6.65907">
        <ele>303</ele>
        <time>2015-07-08T08:42:53.000Z</time>
      </trkpt>
      <trkpt lat="47.44706" lon="6.65897">
        <ele>303</ele>
        <time>2015-07-08T08:42:54.000Z</time>
      </trkpt>
      <trkpt lat="47.44706" lon="6.65886">
        <ele>303</ele>
        <time>2015-07-08T08:42:55.000Z</time>
      </trkpt>
      <trkpt lat="47.44706" lon="6.65876">
        <ele>303</ele>
        <time>2015-07-08T08:42:56.000Z</time>
      </trkpt>
      <trkpt lat="47.44705" lon="6.65866">
        <ele>303</ele>
        <time>2015-07-08T08:42:57.000Z</time>
      </trkpt>
      <trkpt lat="47.44705" lon="6.65855">
        <ele>303</ele>
        <time>2015-07-08T08:42:58.000Z</time>
      </trkpt>
      <trkpt lat="47.44704" lon="6.65845">
        <ele>303</ele>
        <time>2015-07-08T08:42:59.000Z</time>
      </trkpt>
      <trkpt lat="47.44704" lon="6.65834">
        <ele>303</ele>
        <time>2015-07-08T08:43:00.000Z</time>
      </trkpt>
      <trkpt lat="47.44703" lon="6.65824">
        <ele>303</ele>
        <time>2015-07-08T08:43:01.000Z</time>
      </trkpt>
      <trkpt lat="47.44702" lon="6.65814">
        <ele>303</ele>
        <time>2015-07-08T08:43:02.000Z</time>
      </trkpt>
      <trkpt lat="47.44701" lon="6.65804">
        <ele>303</ele>
        <time>2015-07-08T08:43:03.000Z</time>
      </trkpt>
      <trkpt lat="47.447" lon="6.65793">
        <ele>303</ele>
        <time>2015-07-08T08:43:04.000Z</time>
      </trkpt>
      <trkpt lat="47.44699" lon="6.65783">
        <ele>303</ele>
        <time>2015-07-08T08:43:05.000Z</time>
      </trkpt>
      <trkpt lat="47.44698" lon="6.65773">
        <ele>303</ele>
        <time>2015-07-08T08:43:06.000Z</time>
      </trkpt>
      <trkpt lat="47.44697" lon="6.65763">
        <ele>303</ele>
        <time>2015-07-08T08:43:07.000Z</time>
      </trkpt>
      <trkpt lat="47.44696" lon="6.65752">
        <ele>303</ele>
        <time>2015-07-08T08:43:08.000Z</time>
      </trkpt>
      <trkpt lat="47.44694" lon="6.65742">
        <ele>303</ele>
        <time>2015-07-08T08:43:09.000Z</time>
      </trkpt>
      <trkpt lat="47.44693" lon="6.65732">
        <ele>303</ele>
        <time>2015-07-08T08:43:10.000Z</time>
      </trkpt>
      <trkpt lat="47.44692" lon="6.65722">
        <ele>303</ele>
        <time>2015-07-08T08:43:11.000Z</time>
      </trkpt>
      <trkpt lat="47.44691" lon="6.65712">
        <ele>303</ele>
        <time>2015-07-08T08:43:12.000Z</time>
      </trkpt>
      <trkpt lat="47.44689" lon="6.65702">
        <ele>303</ele>
        <time>2015-07-08T08:43:13.000Z</time>
      </trkpt>
      <trkpt lat="47.44688" lon="6.65692">
        <ele>303</ele>
        <time>2015-07-08T08:43:14.000Z</time>
      </trkpt>
      <trkpt lat="47.44686" lon="6.65682">
        <ele>303</ele>
        <time>2015-07-08T08:43:15.000Z</time>
      </trkpt>
      <trkpt lat="47.44684" lon="6.65672">
        <ele>303</ele>
        <time>2015-07-08T08:43:16.000Z</time>
      </trkpt>
      <trkpt lat="47.44682" lon="6.65663">
        <ele>303</ele>
        <time>2015-07-08T08:43:17.000Z</time>
      </trkpt>
      <trkpt lat="47.4468" lon="6.65655">
        <ele>303</ele>
        <time>2015-07-08T08:43:18.000Z</time>
      </trkpt>
      <trkpt lat="47.44677" lon="6.65646">
        <ele>303</ele>
        <time>2015-07-08T08:43:19.000Z</time>
      </trkpt>
      <trkpt lat="47.44676" lon="6.65635">
        <ele>304</ele>
        <time>2015-07-08T08:43:20.000Z</time>
      </trkpt>
      <trkpt lat="47.44675" lon="6.65625">
        <ele>304</ele>
        <time>2015-07-08T08:43:21.000Z</time>
      </trkpt>
      <trkpt lat="47.44674" lon="6.65615">
        <ele>304</ele>
        <time>2015-07-08T08:43:22.000Z</time>
      </trkpt>
      <trkpt lat="47.44672" lon="6.65605">
        <ele>305</ele>
        <time>2015-07-08T08:43:23.000Z</time>
      </trkpt>
      <trkpt lat="47.44672" lon="6.65595">
        <ele>305</ele>
        <time>2015-07-08T08:43:24.000Z</time>
      </trkpt>
      <trkpt lat="47.44671" lon="6.65584">
        <ele>305</ele>
        <time>2015-07-08T08:43:25.000Z</time>
      </trkpt>
      <trkpt lat="47.44671" lon="6.65573">
        <ele>306</ele>
        <time>2015-07-08T08:43:26.000Z</time>
      </trkpt>
      <trkpt lat="47.44671" lon="6.65562">
        <ele>306</ele>
        <time>2015-07-08T08:43:27.000Z</time>
      </trkpt>
      <trkpt lat="47.44671" lon="6.65552">
        <ele>307</ele>
        <time>2015-07-08T08:43:28.000Z</time>
      </trkpt>
      <trkpt lat="47.44672" lon="6.65541">
        <ele>307</ele>
        <time>2015-07-08T08:43:29.000Z</time>
      </trkpt>
      <trkpt lat="47.44672" lon="6.65531">
        <ele>307</ele>
        <time>2015-07-08T08:43:30.000Z</time>
      </trkpt>
      <trkpt lat="47.44673" lon="6.6552">
        <ele>308</ele>
        <time>2015-07-08T08:43:31.000Z</time>
      </trkpt>
      <trkpt lat="47.44673" lon="6.65509">
        <ele>308</ele>
        <time>2015-07-08T08:43:32.000Z</time>
      </trkpt>
      <trkpt lat="47.44674" lon="6.65499">
        <ele>308</ele>
        <time>2015-07-08T08:43:33.000Z</time>
      </trkpt>
      <trkpt lat="47.44675" lon="6.65488">
        <ele>309</ele>
        <time>2015-07-08T08:43:34.000Z</time>
      </trkpt>
      <trkpt lat="47.44676" lon="6.65477">
        <ele>309</ele>
        <time>2015-07-08T08:43:35.000Z</time>
      </trkpt>
      <trkpt lat="47.44677" lon="6.65466">
        <ele>309</ele>
        <time>2015-07-08T08:43:36.000Z</time>
      </trkpt>
      <trkpt lat="47.44678" lon="6.65455">
        <ele>310</ele>
        <time>2015-07-08T08:43:37.000Z</time>
      </trkpt>
      <trkpt lat="47.44679" lon="6.65445">
        <ele>310</ele>
        <time>2015-07-08T08:43:38.000Z</time>
      </trkpt>
      <trkpt lat="47.4468" lon="6.65433">
        <ele>310</ele>
        <time>2015-07-08T08:43:39.000Z</time>
      </trkpt>
      <trkpt lat="47.44681" lon="6.65422">
        <ele>311</ele>
        <time>2015-07-08T08:43:40.000Z</time>
      </trkpt>
      <trkpt lat="47.44683" lon="6.65411">
        <ele>311</ele>
        <time>2015-07-08T08:43:41.000Z</time>
      </trkpt>
      <trkpt lat="47.44684" lon="6.654">
        <ele>311</ele>
        <time>2015-07-08T08:43:42.000Z</time>
      </trkpt>
      <trkpt lat="47.44685" lon="6.6539">
        <ele>311</ele>
        <time>2015-07-08T08:43:43.000Z</time>
      </trkpt>
      <trkpt lat="47.44685" lon="6.65379">
        <ele>311</ele>
        <time>2015-07-08T08:43:44.000Z</time>
      </trkpt>
      <trkpt lat="47.44687" lon="6.65367">
        <ele>311</ele>
        <time>2015-07-08T08:43:45.000Z</time>
      </trkpt>
      <trkpt lat="47.44688" lon="6.65356">
        <ele>311</ele>
        <time>2015-07-08T08:43:46.000Z</time>
      </trkpt>
      <trkpt lat="47.44689" lon="6.65345">
        <ele>311</ele>
        <time>2015-07-08T08:43:47.000Z</time>
      </trkpt>
      <trkpt lat="47.44691" lon="6.65334">
        <ele>311</ele>
        <time>2015-07-08T08:43:48.000Z</time>
      </trkpt>
      <trkpt lat="47.44692" lon="6.65322">
        <ele>310</ele>
        <time>2015-07-08T08:43:49.000Z</time>
      </trkpt>
      <trkpt lat="47.44694" lon="6.65311">
        <ele>310</ele>
        <time>2015-07-08T08:43:50.000Z</time>
      </trkpt>
      <trkpt lat="47.44695" lon="6.65299">
        <ele>309</ele>
        <time>2015-07-08T08:43:51.000Z</time>
      </trkpt>
      <trkpt lat="47.44697" lon="6.65288">
        <ele>309</ele>
        <time>2015-07-08T08:43:52.000Z</time>
      </trkpt>
      <trkpt lat="47.44698" lon="6.65276">
        <ele>309</ele>
        <time>2015-07-08T08:43:53.000Z</time>
      </trkpt>
      <trkpt lat="47.44699" lon="6.65264">
        <ele>309</ele>
        <time>2015-07-08T08:43:54.000Z</time>
      </trkpt>
      <trkpt lat="47.44699" lon="6.65253">
        <ele>308</ele>
        <time>2015-07-08T08:43:55.000Z</time>
      </trkpt>
      <trkpt lat="47.447" lon="6.65242">
        <ele>308</ele>
        <time>2015-07-08T08:43:56.000Z</time>
      </trkpt>
      <trkpt lat="47.447" lon="6.6523">
        <ele>308</ele>
        <time>2015-07-08T08:43:57.000Z</time>
      </trkpt>
      <trkpt lat="47.447" lon="6.65219">
        <ele>307</ele>
        <time>2015-07-08T08:43:58.000Z</time>
      </trkpt>
      <trkpt lat="47.447" lon="6.65208">
        <ele>307</ele>
        <time>2015-07-08T08:43:59.000Z</time>
      </trkpt>
      <trkpt lat="47.447" lon="6.65197">
        <ele>307</ele>
        <time>2015-07-08T08:44:00.000Z</time>
      </trkpt>
      <trkpt lat="47.447" lon="6.65187">
        <ele>307</ele>
        <time>2015-07-08T08:44:01.000Z</time>
      </trkpt>
      <trkpt lat="47.447" lon="6.65176">
        <ele>306</ele>
        <time>2015-07-08T08:44:02.000Z</time>
      </trkpt>
      <trkpt lat="47.44699" lon="6.65166">
        <ele>306</ele>
        <time>2015-07-08T08:44:03.000Z</time>
      </trkpt>
      <trkpt lat="47.44698" lon="6.65155">
        <ele>306</ele>
        <time>2015-07-08T08:44:04.000Z</time>
      </trkpt>
      <trkpt lat="47.44698" lon="6.65145">
        <ele>306</ele>
        <time>2015-07-08T08:44:05.000Z</time>
      </trkpt>
      <trkpt lat="47.44696" lon="6.65135">
        <ele>305</ele>
        <time>2015-07-08T08:44:06.000Z</time>
      </trkpt>
      <trkpt lat="47.44694" lon="6.65125">
        <ele>305</ele>
        <time>2015-07-08T08:44:07.000Z</time>
      </trkpt>
      <trkpt lat="47.44692" lon="6.65115">
        <ele>305</ele>
        <time>2015-07-08T08:44:08.000Z</time>
      </trkpt>
      <trkpt lat="47.4469" lon="6.65105">
        <ele>305</ele>
        <time>2015-07-08T08:44:09.000Z</time>
      </trkpt>
      <trkpt lat="47.44687" lon="6.65097">
        <ele>305</ele>
        <time>2015-07-08T08:44:10.000Z</time>
      </trkpt>
      <trkpt lat="47.44683" lon="6.65088">
        <ele>305</ele>
        <time>2015-07-08T08:44:11.000Z</time>
      </trkpt>
      <trkpt lat="47.4468" lon="6.65079">
        <ele>305</ele>
        <time>2015-07-08T08:44:12.000Z</time>
      </trkpt>
      <trkpt lat="47.44676" lon="6.65072">
        <ele>305</ele>
        <time>2015-07-08T08:44:13.000Z</time>
      </trkpt>
      <trkpt lat="47.44672" lon="6.65064">
        <ele>305</ele>
        <time>2015-07-08T08:44:14.000Z</time>
      </trkpt>
      <trkpt lat="47.44669" lon="6.65058">
        <ele>305</ele>
        <time>2015-07-08T08:44:15.000Z</time>
      </trkpt>
      <trkpt lat="47.44665" lon="6.65052">
        <ele>305</ele>
        <time>2015-07-08T08:44:16.000Z</time>
      </trkpt>
      <trkpt lat="47.44661" lon="6.65046">
        <ele>305</ele>
        <time>2015-07-08T08:44:17.000Z</time>
      </trkpt>
      <trkpt lat="47.44658" lon="6.6504">
        <ele>305</ele>
        <time>2015-07-08T08:44:18.000Z</time>
      </trkpt>
      <trkpt lat="47.44654" lon="6.65035">
        <ele>305</ele>
        <time>2015-07-08T08:44:19.000Z</time>
      </trkpt>
      <trkpt lat="47.44651" lon="6.65031">
        <ele>305</ele>
        <time>2015-07-08T08:44:20.000Z</time>
      </trkpt>
      <trkpt lat="47.44647" lon="6.65027">
        <ele>305</ele>
        <time>2015-07-08T08:44:21.000Z</time>
      </trkpt>
      <trkpt lat="47.44644" lon="6.65024">
        <ele>305</ele>
        <time>2015-07-08T08:44:22.000Z</time>
      </trkpt>
      <trkpt lat="47.44641" lon="6.65021">
        <ele>305</ele>
        <time>2015-07-08T08:44:23.000Z</time>
      </trkpt>
      <trkpt lat="47.44638" lon="6.65018">
        <ele>305</ele>
        <time>2015-07-08T08:44:24.000Z</time>
      </trkpt>
      <trkpt lat="47.44634" lon="6.65014">
        <ele>305</ele>
        <time>2015-07-08T08:44:25.000Z</time>
      </trkpt>
      <trkpt lat="47.4463" lon="6.6501">
        <ele>305</ele>
        <time>2015-07-08T08:44:26.000Z</time>
      </trkpt>
      <trkpt lat="47.44626" lon="6.65006">
        <ele>305</ele>
        <time>2015-07-08T08:44:27.000Z</time>
      </trkpt>
      <trkpt lat="47.44621" lon="6.65001">
        <ele>306</ele>
        <time>2015-07-08T08:44:28.000Z</time>
      </trkpt>
      <trkpt lat="47.44617" lon="6.64997">
        <ele>306</ele>
        <time>2015-07-08T08:44:29.000Z</time>
      </trkpt>
      <trkpt lat="47.44613" lon="6.64993">
        <ele>306</ele>
        <time>2015-07-08T08:44:30.000Z</time>
      </trkpt>
      <trkpt lat="47.44609" lon="6.64988">
        <ele>306</ele>
        <time>2015-07-08T08:44:31.000Z</time>
      </trkpt>
      <trkpt lat="47.44606" lon="6.64983">
        <ele>307</ele>
        <time>2015-07-08T08:44:32.000Z</time>
      </trkpt>
      <trkpt lat="47.44602" lon="6.64979">
        <ele>307</ele>
        <time>2015-07-08T08:44:33.000Z</time>
      </trkpt>
      <trkpt lat="47.44599" lon="6.64974">
        <ele>307</ele>
        <time>2015-07-08T08:44:34.000Z</time>
      </trkpt>
      <trkpt lat="47.44596" lon="6.64969">
        <ele>307</ele>
        <time>2015-07-08T08:44:35.000Z</time>
      </trkpt>
      <trkpt lat="47.44592" lon="6.64964">
        <ele>308</ele>
        <time>2015-07-08T08:44:36.000Z</time>
      </trkpt>
      <trkpt lat="47.4459" lon="6.64959">
        <ele>308</ele>
        <time>2015-07-08T08:44:37.000Z</time>
      </trkpt>
      <trkpt lat="47.44587" lon="6.64954">
        <ele>308</ele>
        <time>2015-07-08T08:44:38.000Z</time>
      </trkpt>
      <trkpt lat="47.44584" lon="6.64949">
        <ele>309</ele>
        <time>2015-07-08T08:44:39.000Z</time>
      </trkpt>
      <trkpt lat="47.44582" lon="6.64944">
        <ele>309</ele>
        <time>2015-07-08T08:44:40.000Z</time>
      </trkpt>
      <trkpt lat="47.4458" lon="6.64939">
        <ele>309</ele>
        <time>2015-07-08T08:44:41.000Z</time>
      </trkpt>
      <trkpt lat="47.44578" lon="6.64934">
        <ele>310</ele>
        <time>2015-07-08T08:44:42.000Z</time>
      </trkpt>
      <trkpt lat="47.44576" lon="6.64928">
        <ele>310</ele>
        <time>2015-07-08T08:44:43.000Z</time>
      </trkpt>
      <trkpt lat="47.44575" lon="6.64923">
        <ele>310</ele>
        <time>2015-07-08T08:44:44.000Z</time>
      </trkpt>
      <trkpt lat="47.44573" lon="6.64918">
        <ele>310</ele>
        <time>2015-07-08T08:44:45.000Z</time>
      </trkpt>
      <trkpt lat="47.44572" lon="6.64913">
        <ele>310</ele>
        <time>2015-07-08T08:44:46.000Z</time>
      </trkpt>
      <trkpt lat="47.4457" lon="6.64908">
        <ele>311</ele>
        <time>2015-07-08T08:44:47.000Z</time>
      </trkpt>
      <trkpt lat="47.44569" lon="6.64903">
        <ele>311</ele>
        <time>2015-07-08T08:44:48.000Z</time>
      </trkpt>
      <trkpt lat="47.44567" lon="6.64898">
        <ele>311</ele>
        <time>2015-07-08T08:44:49.000Z</time>
      </trkpt>
      <trkpt lat="47.44566" lon="6.64893">
        <ele>311</ele>
        <time>2015-07-08T08:44:50.000Z</time>
      </trkpt>
      <trkpt lat="47.44564" lon="6.64889">
        <ele>311</ele>
        <time>2015-07-08T08:44:51.000Z</time>
      </trkpt>
      <trkpt lat="47.44562" lon="6.64885">
        <ele>312</ele>
        <time>2015-07-08T08:44:52.000Z</time>
      </trkpt>
      <trkpt lat="47.44561" lon="6.6488">
        <ele>312</ele>
        <time>2015-07-08T08:44:53.000Z</time>
      </trkpt>
      <trkpt lat="47.44559" lon="6.64875">
        <ele>312</ele>
        <time>2015-07-08T08:44:54.000Z</time>
      </trkpt>
      <trkpt lat="47.44557" lon="6.6487">
        <ele>312</ele>
        <time>2015-07-08T08:44:55.000Z</time>
      </trkpt>
      <trkpt lat="47.44556" lon="6.64865">
        <ele>313</ele>
        <time>2015-07-08T08:44:56.000Z</time>
      </trkpt>
      <trkpt lat="47.44555" lon="6.6486">
        <ele>313</ele>
        <time>2015-07-08T08:44:57.000Z</time>
      </trkpt>
      <trkpt lat="47.44553" lon="6.64856">
        <ele>313</ele>
        <time>2015-07-08T08:44:58.000Z</time>
      </trkpt>
      <trkpt lat="47.44551" lon="6.64851">
        <ele>314</ele>
        <time>2015-07-08T08:44:59.000Z</time>
      </trkpt>
      <trkpt lat="47.44549" lon="6.64847">
        <ele>314</ele>
        <time>2015-07-08T08:45:00.000Z</time>
      </trkpt>
      <trkpt lat="47.44547" lon="6.64842">
        <ele>314</ele>
        <time>2015-07-08T08:45:01.000Z</time>
      </trkpt>
      <trkpt lat="47.44545" lon="6.64837">
        <ele>315</ele>
        <time>2015-07-08T08:45:02.000Z</time>
      </trkpt>
      <trkpt lat="47.44543" lon="6.64832">
        <ele>315</ele>
        <time>2015-07-08T08:45:03.000Z</time>
      </trkpt>
      <trkpt lat="47.44541" lon="6.64828">
        <ele>315</ele>
        <time>2015-07-08T08:45:04.000Z</time>
      </trkpt>
      <trkpt lat="47.4454" lon="6.64823">
        <ele>316</ele>
        <time>2015-07-08T08:45:05.000Z</time>
      </trkpt>
      <trkpt lat="47.44538" lon="6.64818">
        <ele>316</ele>
        <time>2015-07-08T08:45:06.000Z</time>
      </trkpt>
      <trkpt lat="47.44536" lon="6.64813">
        <ele>316</ele>
        <time>2015-07-08T08:45:07.000Z</time>
      </trkpt>
      <trkpt lat="47.44534" lon="6.64808">
        <ele>317</ele>
        <time>2015-07-08T08:45:08.000Z</time>
      </trkpt>
      <trkpt lat="47.44532" lon="6.64803">
        <ele>317</ele>
        <time>2015-07-08T08:45:09.000Z</time>
      </trkpt>
      <trkpt lat="47.4453" lon="6.64798">
        <ele>317</ele>
        <time>2015-07-08T08:45:10.000Z</time>
      </trkpt>
      <trkpt lat="47.44528" lon="6.64793">
        <ele>318</ele>
        <time>2015-07-08T08:45:11.000Z</time>
      </trkpt>
      <trkpt lat="47.44526" lon="6.64787">
        <ele>318</ele>
        <time>2015-07-08T08:45:12.000Z</time>
      </trkpt>
      <trkpt lat="47.44524" lon="6.64782">
        <ele>318</ele>
        <time>2015-07-08T08:45:13.000Z</time>
      </trkpt>
      <trkpt lat="47.44522" lon="6.64777">
        <ele>319</ele>
        <time>2015-07-08T08:45:14.000Z</time>
      </trkpt>
      <trkpt lat="47.44521" lon="6.64771">
        <ele>319</ele>
        <time>2015-07-08T08:45:15.000Z</time>
      </trkpt>
      <trkpt lat="47.44519" lon="6.64767">
        <ele>319</ele>
        <time>2015-07-08T08:45:16.000Z</time>
      </trkpt>
      <trkpt lat="47.44517" lon="6.64762">
        <ele>320</ele>
        <time>2015-07-08T08:45:17.000Z</time>
      </trkpt>
      <trkpt lat="47.44516" lon="6.64756">
        <ele>320</ele>
        <time>2015-07-08T08:45:18.000Z</time>
      </trkpt>
      <trkpt lat="47.44515" lon="6.64752">
        <ele>320</ele>
        <time>2015-07-08T08:45:19.000Z</time>
      </trkpt>
      <trkpt lat="47.44513" lon="6.64747">
        <ele>320</ele>
        <time>2015-07-08T08:45:20.000Z</time>
      </trkpt>
      <trkpt lat="47.44512" lon="6.64742">
        <ele>320</ele>
        <time>2015-07-08T08:45:21.000Z</time>
      </trkpt>
      <trkpt lat="47.4451" lon="6.64737">
        <ele>321</ele>
        <time>2015-07-08T08:45:22.000Z</time>
      </trkpt>
      <trkpt lat="47.44509" lon="6.64732">
        <ele>321</ele>
        <time>2015-07-08T08:45:23.000Z</time>
      </trkpt>
      <trkpt lat="47.44507" lon="6.64727">
        <ele>321</ele>
        <time>2015-07-08T08:45:24.000Z</time>
      </trkpt>
      <trkpt lat="47.44505" lon="6.64722">
        <ele>321</ele>
        <time>2015-07-08T08:45:25.000Z</time>
      </trkpt>
      <trkpt lat="47.44504" lon="6.64717">
        <ele>321</ele>
        <time>2015-07-08T08:45:26.000Z</time>
      </trkpt>
      <trkpt lat="47.44503" lon="6.64711">
        <ele>322</ele>
        <time>2015-07-08T08:45:27.000Z</time>
      </trkpt>
      <trkpt lat="47.44501" lon="6.64706">
        <ele>322</ele>
        <time>2015-07-08T08:45:28.000Z</time>
      </trkpt>
      <trkpt lat="47.44499" lon="6.64702">
        <ele>322</ele>
        <time>2015-07-08T08:45:29.000Z</time>
      </trkpt>
      <trkpt lat="47.44498" lon="6.64697">
        <ele>322</ele>
        <time>2015-07-08T08:45:30.000Z</time>
      </trkpt>
      <trkpt lat="47.44496" lon="6.64692">
        <ele>323</ele>
        <time>2015-07-08T08:45:31.000Z</time>
      </trkpt>
      <trkpt lat="47.44494" lon="6.64687">
        <ele>323</ele>
        <time>2015-07-08T08:45:32.000Z</time>
      </trkpt>
      <trkpt lat="47.44493" lon="6.64682">
        <ele>323</ele>
        <time>2015-07-08T08:45:33.000Z</time>
      </trkpt>
      <trkpt lat="47.44491" lon="6.64677">
        <ele>324</ele>
        <time>2015-07-08T08:45:34.000Z</time>
      </trkpt>
      <trkpt lat="47.4449" lon="6.64672">
        <ele>324</ele>
        <time>2015-07-08T08:45:35.000Z</time>
      </trkpt>
      <trkpt lat="47.44489" lon="6.64667">
        <ele>324</ele>
        <time>2015-07-08T08:45:36.000Z</time>
      </trkpt>
      <trkpt lat="47.44487" lon="6.64662">
        <ele>324</ele>
        <time>2015-07-08T08:45:37.000Z</time>
      </trkpt>
      <trkpt lat="47.44486" lon="6.64657">
        <ele>324</ele>
        <time>2015-07-08T08:45:38.000Z</time>
      </trkpt>
      <trkpt lat="47.44485" lon="6.64652">
        <ele>324</ele>
        <time>2015-07-08T08:45:39.000Z</time>
      </trkpt>
      <trkpt lat="47.44484" lon="6.64647">
        <ele>325</ele>
        <time>2015-07-08T08:45:40.000Z</time>
      </trkpt>
      <trkpt lat="47.44483" lon="6.64642">
        <ele>325</ele>
        <time>2015-07-08T08:45:41.000Z</time>
      </trkpt>
      <trkpt lat="47.44481" lon="6.64637">
        <ele>325</ele>
        <time>2015-07-08T08:45:42.000Z</time>
      </trkpt>
      <trkpt lat="47.4448" lon="6.64632">
        <ele>325</ele>
        <time>2015-07-08T08:45:43.000Z</time>
      </trkpt>
      <trkpt lat="47.44479" lon="6.64626">
        <ele>325</ele>
        <time>2015-07-08T08:45:44.000Z</time>
      </trkpt>
      <trkpt lat="47.44478" lon="6.64622">
        <ele>326</ele>
        <time>2015-07-08T08:45:45.000Z</time>
      </trkpt>
      <trkpt lat="47.44477" lon="6.64616">
        <ele>326</ele>
        <time>2015-07-08T08:45:46.000Z</time>
      </trkpt>
      <trkpt lat="47.44476" lon="6.64611">
        <ele>326</ele>
        <time>2015-07-08T08:45:47.000Z</time>
      </trkpt>
      <trkpt lat="47.44476" lon="6.64606">
        <ele>326</ele>
        <time>2015-07-08T08:45:48.000Z</time>
      </trkpt>
      <trkpt lat="47.44474" lon="6.64601">
        <ele>327</ele>
        <time>2015-07-08T08:45:49.000Z</time>
      </trkpt>
      <trkpt lat="47.44473" lon="6.64596">
        <ele>327</ele>
        <time>2015-07-08T08:45:50.000Z</time>
      </trkpt>
      <trkpt lat="47.44472" lon="6.64591">
        <ele>327</ele>
        <time>2015-07-08T08:45:51.000Z</time>
      </trkpt>
      <trkpt lat="47.44472" lon="6.64586">
        <ele>328</ele>
        <time>2015-07-08T08:45:52.000Z</time>
      </trkpt>
      <trkpt lat="47.44471" lon="6.6458">
        <ele>328</ele>
        <time>2015-07-08T08:45:53.000Z</time>
      </trkpt>
      <trkpt lat="47.4447" lon="6.64576">
        <ele>328</ele>
        <time>2015-07-08T08:45:54.000Z</time>
      </trkpt>
      <trkpt lat="47.44469" lon="6.64571">
        <ele>329</ele>
        <time>2015-07-08T08:45:55.000Z</time>
      </trkpt>
      <trkpt lat="47.44468" lon="6.64566">
        <ele>329</ele>
        <time>2015-07-08T08:45:56.000Z</time>
      </trkpt>
      <trkpt lat="47.44467" lon="6.64561">
        <ele>329</ele>
        <time>2015-07-08T08:45:57.000Z</time>
      </trkpt>
      <trkpt lat="47.44466" lon="6.64557">
        <ele>330</ele>
        <time>2015-07-08T08:45:58.000Z</time>
      </trkpt>
      <trkpt lat="47.44465" lon="6.64552">
        <ele>330</ele>
        <time>2015-07-08T08:45:59.000Z</time>
      </trkpt>
      <trkpt lat="47.44464" lon="6.64547">
        <ele>331</ele>
        <time>2015-07-08T08:46:00.000Z</time>
      </trkpt>
      <trkpt lat="47.44463" lon="6.64542">
        <ele>331</ele>
        <time>2015-07-08T08:46:01.000Z</time>
      </trkpt>
      <trkpt lat="47.44463" lon="6.64537">
        <ele>331</ele>
        <time>2015-07-08T08:46:02.000Z</time>
      </trkpt>
      <trkpt lat="47.44462" lon="6.64532">
        <ele>331</ele>
        <time>2015-07-08T08:46:03.000Z</time>
      </trkpt>
      <trkpt lat="47.44461" lon="6.64527">
        <ele>332</ele>
        <time>2015-07-08T08:46:04.000Z</time>
      </trkpt>
      <trkpt lat="47.44459" lon="6.64522">
        <ele>332</ele>
        <time>2015-07-08T08:46:05.000Z</time>
      </trkpt>
      <trkpt lat="47.44458" lon="6.64518">
        <ele>333</ele>
        <time>2015-07-08T08:46:06.000Z</time>
      </trkpt>
      <trkpt lat="47.44457" lon="6.64513">
        <ele>333</ele>
        <time>2015-07-08T08:46:07.000Z</time>
      </trkpt>
      <trkpt lat="47.44455" lon="6.64509">
        <ele>333</ele>
        <time>2015-07-08T08:46:08.000Z</time>
      </trkpt>
      <trkpt lat="47.44454" lon="6.64504">
        <ele>334</ele>
        <time>2015-07-08T08:46:09.000Z</time>
      </trkpt>
      <trkpt lat="47.44453" lon="6.645">
        <ele>334</ele>
        <time>2015-07-08T08:46:10.000Z</time>
      </trkpt>
      <trkpt lat="47.44452" lon="6.64495">
        <ele>334</ele>
        <time>2015-07-08T08:46:11.000Z</time>
      </trkpt>
      <trkpt lat="47.44451" lon="6.64491">
        <ele>334</ele>
        <time>2015-07-08T08:46:12.000Z</time>
      </trkpt>
      <trkpt lat="47.4445" lon="6.64486">
        <ele>335</ele>
        <time>2015-07-08T08:46:13.000Z</time>
      </trkpt>
      <trkpt lat="47.44449" lon="6.64481">
        <ele>335</ele>
        <time>2015-07-08T08:46:14.000Z</time>
      </trkpt>
      <trkpt lat="47.44448" lon="6.64477">
        <ele>336</ele>
        <time>2015-07-08T08:46:15.000Z</time>
      </trkpt>
      <trkpt lat="47.44447" lon="6.64472">
        <ele>336</ele>
        <time>2015-07-08T08:46:16.000Z</time>
      </trkpt>
      <trkpt lat="47.44446" lon="6.64467">
        <ele>336</ele>
        <time>2015-07-08T08:46:17.000Z</time>
      </trkpt>
      <trkpt lat="47.44445" lon="6.64463">
        <ele>337</ele>
        <time>2015-07-08T08:46:18.000Z</time>
      </trkpt>
      <trkpt lat="47.44444" lon="6.64459">
        <ele>337</ele>
        <time>2015-07-08T08:46:19.000Z</time>
      </trkpt>
      <trkpt lat="47.44443" lon="6.64454">
        <ele>337</ele>
        <time>2015-07-08T08:46:20.000Z</time>
      </trkpt>
      <trkpt lat="47.44442" lon="6.6445">
        <ele>338</ele>
        <time>2015-07-08T08:46:21.000Z</time>
      </trkpt>
      <trkpt lat="47.44441" lon="6.64445">
        <ele>338</ele>
        <time>2015-07-08T08:46:22.000Z</time>
      </trkpt>
      <trkpt lat="47.4444" lon="6.64441">
        <ele>338</ele>
        <time>2015-07-08T08:46:23.000Z</time>
      </trkpt>
      <trkpt lat="47.44439" lon="6.64436">
        <ele>338</ele>
        <time>2015-07-08T08:46:24.000Z</time>
      </trkpt>
      <trkpt lat="47.44438" lon="6.64432">
        <ele>339</ele>
        <time>2015-07-08T08:46:25.000Z</time>
      </trkpt>
      <trkpt lat="47.44437" lon="6.64428">
        <ele>339</ele>
        <time>2015-07-08T08:46:26.000Z</time>
      </trkpt>
      <trkpt lat="47.44436" lon="6.64424">
        <ele>339</ele>
        <time>2015-07-08T08:46:27.000Z</time>
      </trkpt>
      <trkpt lat="47.44436" lon="6.64419">
        <ele>339</ele>
        <time>2015-07-08T08:46:28.000Z</time>
      </trkpt>
      <trkpt lat="47.44435" lon="6.64415">
        <ele>340</ele>
        <time>2015-07-08T08:46:29.000Z</time>
      </trkpt>
      <trkpt lat="47.44434" lon="6.6441">
        <ele>340</ele>
        <time>2015-07-08T08:46:30.000Z</time>
      </trkpt>
      <trkpt lat="47.44433" lon="6.64406">
        <ele>340</ele>
        <time>2015-07-08T08:46:31.000Z</time>
      </trkpt>
      <trkpt lat="47.44432" lon="6.64402">
        <ele>340</ele>
        <time>2015-07-08T08:46:32.000Z</time>
      </trkpt>
      <trkpt lat="47.44431" lon="6.64398">
        <ele>340</ele>
        <time>2015-07-08T08:46:33.000Z</time>
      </trkpt>
      <trkpt lat="47.4443" lon="6.64393">
        <ele>340</ele>
        <time>2015-07-08T08:46:34.000Z</time>
      </trkpt>
      <trkpt lat="47.44429" lon="6.64389">
        <ele>340</ele>
        <time>2015-07-08T08:46:35.000Z</time>
      </trkpt>
      <trkpt lat="47.44428" lon="6.64385">
        <ele>340</ele>
        <time>2015-07-08T08:46:36.000Z</time>
      </trkpt>
      <trkpt lat="47.44427" lon="6.6438">
        <ele>340</ele>
        <time>2015-07-08T08:46:37.000Z</time>
      </trkpt>
      <trkpt lat="47.44427" lon="6.64375">
        <ele>340</ele>
        <time>2015-07-08T08:46:38.000Z</time>
      </trkpt>
      <trkpt lat="47.44426" lon="6.64371">
        <ele>340</ele>
        <time>2015-07-08T08:46:39.000Z</time>
      </trkpt>
      <trkpt lat="47.44425" lon="6.64366">
        <ele>340</ele>
        <time>2015-07-08T08:46:40.000Z</time>
      </trkpt>
      <trkpt lat="47.44424" lon="6.64361">
        <ele>340</ele>
        <time>2015-07-08T08:46:41.000Z</time>
      </trkpt>
      <trkpt lat="47.44424" lon="6.64357">
        <ele>340</ele>
        <time>2015-07-08T08:46:42.000Z</time>
      </trkpt>
      <trkpt lat="47.44423" lon="6.64352">
        <ele>340</ele>
        <time>2015-07-08T08:46:43.000Z</time>
      </trkpt>
      <trkpt lat="47.44422" lon="6.64348">
        <ele>340</ele>
        <time>2015-07-08T08:46:44.000Z</time>
      </trkpt>
      <trkpt lat="47.44422" lon="6.64343">
        <ele>340</ele>
        <time>2015-07-08T08:46:45.000Z</time>
      </trkpt>
      <trkpt lat="47.44421" lon="6.64339">
        <ele>340</ele>
        <time>2015-07-08T08:46:46.000Z</time>
      </trkpt>
      <trkpt lat="47.4442" lon="6.64334">
        <ele>340</ele>
        <time>2015-07-08T08:46:47.000Z</time>
      </trkpt>
      <trkpt lat="47.4442" lon="6.64329">
        <ele>340</ele>
        <time>2015-07-08T08:46:48.000Z</time>
      </trkpt>
      <trkpt lat="47.44419" lon="6.64325">
        <ele>340</ele>
        <time>2015-07-08T08:46:49.000Z</time>
      </trkpt>
      <trkpt lat="47.44419" lon="6.6432">
        <ele>340</ele>
        <time>2015-07-08T08:46:50.000Z</time>
      </trkpt>
      <trkpt lat="47.44419" lon="6.64316">
        <ele>339</ele>
        <time>2015-07-08T08:46:51.000Z</time>
      </trkpt>
      <trkpt lat="47.44419" lon="6.64312">
        <ele>339</ele>
        <time>2015-07-08T08:46:52.000Z</time>
      </trkpt>
      <trkpt lat="47.44419" lon="6.64307">
        <ele>339</ele>
        <time>2015-07-08T08:46:53.000Z</time>
      </trkpt>
      <trkpt lat="47.44419" lon="6.64302">
        <ele>339</ele>
        <time>2015-07-08T08:46:54.000Z</time>
      </trkpt>
      <trkpt lat="47.44419" lon="6.64299">
        <ele>339</ele>
        <time>2015-07-08T08:46:55.000Z</time>
      </trkpt>
      <trkpt lat="47.44419" lon="6.64296">
        <ele>339</ele>
        <time>2015-07-08T08:46:56.000Z</time>
      </trkpt>
      <trkpt lat="47.44419" lon="6.64293">
        <ele>339</ele>
        <time>2015-07-08T08:46:57.000Z</time>
      </trkpt>
      <trkpt lat="47.44419" lon="6.64291">
        <ele>339</ele>
        <time>2015-07-08T08:46:58.000Z</time>
      </trkpt>
      <trkpt lat="47.44419" lon="6.64289">
        <ele>339</ele>
        <time>2015-07-08T08:46:59.000Z</time>
      </trkpt>
      <trkpt lat="47.44419" lon="6.64286">
        <ele>339</ele>
        <time>2015-07-08T08:47:00.000Z</time>
      </trkpt>
      <trkpt lat="47.44419" lon="6.64284">
        <ele>339</ele>
        <time>2015-07-08T08:47:01.000Z</time>
      </trkpt>
      <trkpt lat="47.44419" lon="6.64282">
        <ele>339</ele>
        <time>2015-07-08T08:47:02.000Z</time>
      </trkpt>
      <trkpt lat="47.44419" lon="6.64279">
        <ele>339</ele>
        <time>2015-07-08T08:47:03.000Z</time>
      </trkpt>
      <trkpt lat="47.44419" lon="6.64277">
        <ele>339</ele>
        <time>2015-07-08T08:47:04.000Z</time>
      </trkpt>
      <trkpt lat="47.44419" lon="6.64274">
        <ele>339</ele>
        <time>2015-07-08T08:47:05.000Z</time>
      </trkpt>
      <trkpt lat="47.4442" lon="6.64271">
        <ele>339</ele>
        <time>2015-07-08T08:47:06.000Z</time>
      </trkpt>
      <trkpt lat="47.4442" lon="6.64268">
        <ele>339</ele>
        <time>2015-07-08T08:47:07.000Z</time>
      </trkpt>
      <trkpt lat="47.4442" lon="6.64265">
        <ele>339</ele>
        <time>2015-07-08T08:47:08.000Z</time>
      </trkpt>
      <trkpt lat="47.4442" lon="6.64262">
        <ele>338</ele>
        <time>2015-07-08T08:47:09.000Z</time>
      </trkpt>
      <trkpt lat="47.4442" lon="6.64259">
        <ele>338</ele>
        <time>2015-07-08T08:47:10.000Z</time>
      </trkpt>
      <trkpt lat="47.4442" lon="6.64256">
        <ele>338</ele>
        <time>2015-07-08T08:47:11.000Z</time>
      </trkpt>
      <trkpt lat="47.4442" lon="6.64253">
        <ele>338</ele>
        <time>2015-07-08T08:47:12.000Z</time>
      </trkpt>
      <trkpt lat="47.4442" lon="6.6425">
        <ele>338</ele>
        <time>2015-07-08T08:47:13.000Z</time>
      </trkpt>
      <trkpt lat="47.4442" lon="6.64247">
        <ele>338</ele>
        <time>2015-07-08T08:47:14.000Z</time>
      </trkpt>
      <trkpt lat="47.4442" lon="6.64244">
        <ele>338</ele>
        <time>2015-07-08T08:47:15.000Z</time>
      </trkpt>
      <trkpt lat="47.4442" lon="6.64241">
        <ele>338</ele>
        <time>2015-07-08T08:47:16.000Z</time>
      </trkpt>
      <trkpt lat="47.4442" lon="6.64238">
        <ele>338</ele>
        <time>2015-07-08T08:47:17.000Z</time>
      </trkpt>
      <trkpt lat="47.4442" lon="6.64235">
        <ele>338</ele>
        <time>2015-07-08T08:47:18.000Z</time>
      </trkpt>
      <trkpt lat="47.4442" lon="6.64232">
        <ele>338</ele>
        <time>2015-07-08T08:47:19.000Z</time>
      </trkpt>
      <trkpt lat="47.4442" lon="6.64229">
        <ele>338</ele>
        <time>2015-07-08T08:47:20.000Z</time>
      </trkpt>
      <trkpt lat="47.4442" lon="6.64226">
        <ele>338</ele>
        <time>2015-07-08T08:47:21.000Z</time>
      </trkpt>
      <trkpt lat="47.4442" lon="6.64223">
        <ele>338</ele>
        <time>2015-07-08T08:47:22.000Z</time>
      </trkpt>
      <trkpt lat="47.4442" lon="6.6422">
        <ele>338</ele>
        <time>2015-07-08T08:47:23.000Z</time>
      </trkpt>
      <trkpt lat="47.4442" lon="6.64216">
        <ele>338</ele>
        <time>2015-07-08T08:47:24.000Z</time>
      </trkpt>
      <trkpt lat="47.4442" lon="6.64213">
        <ele>338</ele>
        <time>2015-07-08T08:47:25.000Z</time>
      </trkpt>
      <trkpt lat="47.44419" lon="6.6421">
        <ele>338</ele>
        <time>2015-07-08T08:47:26.000Z</time>
      </trkpt>
      <trkpt lat="47.44419" lon="6.64206">
        <ele>338</ele>
        <time>2015-07-08T08:47:27.000Z</time>
      </trkpt>
      <trkpt lat="47.44419" lon="6.64203">
        <ele>338</ele>
        <time>2015-07-08T08:47:28.000Z</time>
      </trkpt>
      <trkpt lat="47.44419" lon="6.64199">
        <ele>338</ele>
        <time>2015-07-08T08:47:29.000Z</time>
      </trkpt>
      <trkpt lat="47.44418" lon="6.64195">
        <ele>338</ele>
        <time>2015-07-08T08:47:30.000Z</time>
      </trkpt>
      <trkpt lat="47.44418" lon="6.6419">
        <ele>338</ele>
        <time>2015-07-08T08:47:31.000Z</time>
      </trkpt>
      <trkpt lat="47.44417" lon="6.64185">
        <ele>338</ele>
        <time>2015-07-08T08:47:32.000Z</time>
      </trkpt>
      <trkpt lat="47.44417" lon="6.6418">
        <ele>338</ele>
        <time>2015-07-08T08:47:33.000Z</time>
      </trkpt>
      <trkpt lat="47.44416" lon="6.64175">
        <ele>338</ele>
        <time>2015-07-08T08:47:34.000Z</time>
      </trkpt>
      <trkpt lat="47.44416" lon="6.6417">
        <ele>338</ele>
        <time>2015-07-08T08:47:35.000Z</time>
      </trkpt>
      <trkpt lat="47.44416" lon="6.64165">
        <ele>338</ele>
        <time>2015-07-08T08:47:36.000Z</time>
      </trkpt>
      <trkpt lat="47.44416" lon="6.6416">
        <ele>337</ele>
        <time>2015-07-08T08:47:37.000Z</time>
      </trkpt>
      <trkpt lat="47.44415" lon="6.64155">
        <ele>337</ele>
        <time>2015-07-08T08:47:38.000Z</time>
      </trkpt>
      <trkpt lat="47.44415" lon="6.6415">
        <ele>337</ele>
        <time>2015-07-08T08:47:39.000Z</time>
      </trkpt>
      <trkpt lat="47.44414" lon="6.64146">
        <ele>337</ele>
        <time>2015-07-08T08:47:40.000Z</time>
      </trkpt>
      <trkpt lat="47.44414" lon="6.64141">
        <ele>337</ele>
        <time>2015-07-08T08:47:41.000Z</time>
      </trkpt>
      <trkpt lat="47.44413" lon="6.64137">
        <ele>337</ele>
        <time>2015-07-08T08:47:42.000Z</time>
      </trkpt>
      <trkpt lat="47.44413" lon="6.64133">
        <ele>338</ele>
        <time>2015-07-08T08:47:43.000Z</time>
      </trkpt>
      <trkpt lat="47.44413" lon="6.6413">
        <ele>338</ele>
        <time>2015-07-08T08:47:44.000Z</time>
      </trkpt>
      <trkpt lat="47.44412" lon="6.64127">
        <ele>338</ele>
        <time>2015-07-08T08:47:45.000Z</time>
      </trkpt>
      <trkpt lat="47.44412" lon="6.64124">
        <ele>338</ele>
        <time>2015-07-08T08:47:46.000Z</time>
      </trkpt>
      <trkpt lat="47.44412" lon="6.64122">
        <ele>338</ele>
        <time>2015-07-08T08:47:47.000Z</time>
      </trkpt>
      <trkpt lat="47.44411" lon="6.6412">
        <ele>338</ele>
        <time>2015-07-08T08:47:48.000Z</time>
      </trkpt>
      <trkpt lat="47.44411" lon="6.64118">
        <ele>338</ele>
        <time>2015-07-08T08:47:49.000Z</time>
      </trkpt>
      <trkpt lat="47.4441" lon="6.64117">
        <ele>338</ele>
        <time>2015-07-08T08:47:50.000Z</time>
      </trkpt>
      <trkpt lat="47.44409" lon="6.64118">
        <ele>337</ele>
        <time>2015-07-08T08:47:51.000Z</time>
      </trkpt>
      <trkpt lat="47.44409" lon="6.64121">
        <ele>337</ele>
        <time>2015-07-08T08:47:52.000Z</time>
      </trkpt>
      <trkpt lat="47.4441" lon="6.64125">
        <ele>337</ele>
        <time>2015-07-08T08:47:53.000Z</time>
      </trkpt>
      <trkpt lat="47.4441" lon="6.6413">
        <ele>337</ele>
        <time>2015-07-08T08:47:54.000Z</time>
      </trkpt>
      <trkpt lat="47.4441" lon="6.64135">
        <ele>338</ele>
        <time>2015-07-08T08:47:55.000Z</time>
      </trkpt>
      <trkpt lat="47.44411" lon="6.6414">
        <ele>338</ele>
        <time>2015-07-08T08:47:56.000Z</time>
      </trkpt>
      <trkpt lat="47.44411" lon="6.64145">
        <ele>338</ele>
        <time>2015-07-08T08:47:57.000Z</time>
      </trkpt>
      <trkpt lat="47.44412" lon="6.64151">
        <ele>338</ele>
        <time>2015-07-08T08:47:58.000Z</time>
      </trkpt>
      <trkpt lat="47.44412" lon="6.64156">
        <ele>338</ele>
        <time>2015-07-08T08:47:59.000Z</time>
      </trkpt>
      <trkpt lat="47.44412" lon="6.64163">
        <ele>338</ele>
        <time>2015-07-08T08:48:00.000Z</time>
      </trkpt>
      <trkpt lat="47.44413" lon="6.64169">
        <ele>338</ele>
        <time>2015-07-08T08:48:01.000Z</time>
      </trkpt>
      <trkpt lat="47.44413" lon="6.64175">
        <ele>338</ele>
        <time>2015-07-08T08:48:02.000Z</time>
      </trkpt>
      <trkpt lat="47.44414" lon="6.64182">
        <ele>338</ele>
        <time>2015-07-08T08:48:03.000Z</time>
      </trkpt>
      <trkpt lat="47.44415" lon="6.64188">
        <ele>338</ele>
        <time>2015-07-08T08:48:04.000Z</time>
      </trkpt>
      <trkpt lat="47.44415" lon="6.64194">
        <ele>338</ele>
        <time>2015-07-08T08:48:05.000Z</time>
      </trkpt>
      <trkpt lat="47.44415" lon="6.642">
        <ele>338</ele>
        <time>2015-07-08T08:48:06.000Z</time>
      </trkpt>
      <trkpt lat="47.44416" lon="6.64206">
        <ele>338</ele>
        <time>2015-07-08T08:48:07.000Z</time>
      </trkpt>
      <trkpt lat="47.44416" lon="6.64212">
        <ele>338</ele>
        <time>2015-07-08T08:48:08.000Z</time>
      </trkpt>
      <trkpt lat="47.44416" lon="6.64218">
        <ele>339</ele>
        <time>2015-07-08T08:48:09.000Z</time>
      </trkpt>
      <trkpt lat="47.44416" lon="6.64224">
        <ele>339</ele>
        <time>2015-07-08T08:48:10.000Z</time>
      </trkpt>
      <trkpt lat="47.44417" lon="6.64229">
        <ele>339</ele>
        <time>2015-07-08T08:48:11.000Z</time>
      </trkpt>
      <trkpt lat="47.44417" lon="6.64235">
        <ele>339</ele>
        <time>2015-07-08T08:48:12.000Z</time>
      </trkpt>
      <trkpt lat="47.44417" lon="6.64241">
        <ele>339</ele>
        <time>2015-07-08T08:48:13.000Z</time>
      </trkpt>
      <trkpt lat="47.44417" lon="6.64246">
        <ele>340</ele>
        <time>2015-07-08T08:48:14.000Z</time>
      </trkpt>
      <trkpt lat="47.44417" lon="6.64251">
        <ele>340</ele>
        <time>2015-07-08T08:48:15.000Z</time>
      </trkpt>
      <trkpt lat="47.44417" lon="6.64257">
        <ele>340</ele>
        <time>2015-07-08T08:48:16.000Z</time>
      </trkpt>
      <trkpt lat="47.44417" lon="6.64262">
        <ele>340</ele>
        <time>2015-07-08T08:48:17.000Z</time>
      </trkpt>
      <trkpt lat="47.44417" lon="6.64268">
        <ele>340</ele>
        <time>2015-07-08T08:48:18.000Z</time>
      </trkpt>
      <trkpt lat="47.44417" lon="6.64273">
        <ele>341</ele>
        <time>2015-07-08T08:48:19.000Z</time>
      </trkpt>
      <trkpt lat="47.44417" lon="6.64278">
        <ele>341</ele>
        <time>2015-07-08T08:48:20.000Z</time>
      </trkpt>
      <trkpt lat="47.44417" lon="6.64284">
        <ele>341</ele>
        <time>2015-07-08T08:48:21.000Z</time>
      </trkpt>
      <trkpt lat="47.44417" lon="6.6429">
        <ele>341</ele>
        <time>2015-07-08T08:48:22.000Z</time>
      </trkpt>
      <trkpt lat="47.44416" lon="6.64295">
        <ele>341</ele>
        <time>2015-07-08T08:48:23.000Z</time>
      </trkpt>
      <trkpt lat="47.44416" lon="6.64301">
        <ele>341</ele>
        <time>2015-07-08T08:48:24.000Z</time>
      </trkpt>
      <trkpt lat="47.44416" lon="6.64307">
        <ele>341</ele>
        <time>2015-07-08T08:48:25.000Z</time>
      </trkpt>
      <trkpt lat="47.44416" lon="6.64312">
        <ele>341</ele>
        <time>2015-07-08T08:48:26.000Z</time>
      </trkpt>
      <trkpt lat="47.44416" lon="6.64318">
        <ele>342</ele>
        <time>2015-07-08T08:48:27.000Z</time>
      </trkpt>
      <trkpt lat="47.44417" lon="6.64324">
        <ele>342</ele>
        <time>2015-07-08T08:48:28.000Z</time>
      </trkpt>
      <trkpt lat="47.44417" lon="6.6433">
        <ele>342</ele>
        <time>2015-07-08T08:48:29.000Z</time>
      </trkpt>
      <trkpt lat="47.44418" lon="6.64335">
        <ele>342</ele>
        <time>2015-07-08T08:48:30.000Z</time>
      </trkpt>
      <trkpt lat="47.44419" lon="6.6434">
        <ele>342</ele>
        <time>2015-07-08T08:48:31.000Z</time>
      </trkpt>
      <trkpt lat="47.44419" lon="6.64346">
        <ele>342</ele>
        <time>2015-07-08T08:48:32.000Z</time>
      </trkpt>
      <trkpt lat="47.4442" lon="6.64351">
        <ele>342</ele>
        <time>2015-07-08T08:48:33.000Z</time>
      </trkpt>
      <trkpt lat="47.44421" lon="6.64355">
        <ele>342</ele>
        <time>2015-07-08T08:48:34.000Z</time>
      </trkpt>
      <trkpt lat="47.44422" lon="6.6436">
        <ele>342</ele>
        <time>2015-07-08T08:48:35.000Z</time>
      </trkpt>
      <trkpt lat="47.44423" lon="6.64366">
        <ele>342</ele>
        <time>2015-07-08T08:48:36.000Z</time>
      </trkpt>
      <trkpt lat="47.44424" lon="6.64371">
        <ele>342</ele>
        <time>2015-07-08T08:48:37.000Z</time>
      </trkpt>
      <trkpt lat="47.44425" lon="6.64377">
        <ele>342</ele>
        <time>2015-07-08T08:48:38.000Z</time>
      </trkpt>
      <trkpt lat="47.44426" lon="6.64383">
        <ele>341</ele>
        <time>2015-07-08T08:48:39.000Z</time>
      </trkpt>
      <trkpt lat="47.44427" lon="6.64389">
        <ele>341</ele>
        <time>2015-07-08T08:48:40.000Z</time>
      </trkpt>
      <trkpt lat="47.44428" lon="6.64394">
        <ele>341</ele>
        <time>2015-07-08T08:48:41.000Z</time>
      </trkpt>
      <trkpt lat="47.4443" lon="6.644">
        <ele>341</ele>
        <time>2015-07-08T08:48:42.000Z</time>
      </trkpt>
      <trkpt lat="47.44431" lon="6.64406">
        <ele>341</ele>
        <time>2015-07-08T08:48:43.000Z</time>
      </trkpt>
      <trkpt lat="47.44433" lon="6.64412">
        <ele>341</ele>
        <time>2015-07-08T08:48:44.000Z</time>
      </trkpt>
      <trkpt lat="47.44434" lon="6.64417">
        <ele>341</ele>
        <time>2015-07-08T08:48:45.000Z</time>
      </trkpt>
      <trkpt lat="47.44434" lon="6.64422">
        <ele>341</ele>
        <time>2015-07-08T08:48:46.000Z</time>
      </trkpt>
      <trkpt lat="47.44435" lon="6.64426">
        <ele>341</ele>
        <time>2015-07-08T08:48:47.000Z</time>
      </trkpt>
      <trkpt lat="47.44436" lon="6.64429">
        <ele>341</ele>
        <time>2015-07-08T08:48:48.000Z</time>
      </trkpt>
      <trkpt lat="47.44437" lon="6.64432">
        <ele>341</ele>
        <time>2015-07-08T08:48:49.000Z</time>
      </trkpt>
      <trkpt lat="47.44439" lon="6.64435">
        <ele>341</ele>
        <time>2015-07-08T08:48:50.000Z</time>
      </trkpt>
      <trkpt lat="47.4444" lon="6.64438">
        <ele>341</ele>
        <time>2015-07-08T08:48:51.000Z</time>
      </trkpt>
      <trkpt lat="47.44441" lon="6.64442">
        <ele>341</ele>
        <time>2015-07-08T08:48:52.000Z</time>
      </trkpt>
      <trkpt lat="47.44442" lon="6.64446">
        <ele>341</ele>
        <time>2015-07-08T08:48:53.000Z</time>
      </trkpt>
      <trkpt lat="47.44443" lon="6.6445">
        <ele>341</ele>
        <time>2015-07-08T08:48:54.000Z</time>
      </trkpt>
      <trkpt lat="47.44444" lon="6.64455">
        <ele>341</ele>
        <time>2015-07-08T08:48:55.000Z</time>
      </trkpt>
      <trkpt lat="47.44445" lon="6.64461">
        <ele>341</ele>
        <time>2015-07-08T08:48:56.000Z</time>
      </trkpt>
      <trkpt lat="47.44447" lon="6.64467">
        <ele>341</ele>
        <time>2015-07-08T08:48:57.000Z</time>
      </trkpt>
      <trkpt lat="47.44449" lon="6.64474">
        <ele>341</ele>
        <time>2015-07-08T08:48:58.000Z</time>
      </trkpt>
      <trkpt lat="47.44451" lon="6.64481">
        <ele>341</ele>
        <time>2015-07-08T08:48:59.000Z</time>
      </trkpt>
      <trkpt lat="47.44453" lon="6.64489">
        <ele>341</ele>
        <time>2015-07-08T08:49:00.000Z</time>
      </trkpt>
      <trkpt lat="47.44456" lon="6.64497">
        <ele>341</ele>
        <time>2015-07-08T08:49:01.000Z</time>
      </trkpt>
      <trkpt lat="47.44458" lon="6.64505">
        <ele>340</ele>
        <time>2015-07-08T08:49:02.000Z</time>
      </trkpt>
      <trkpt lat="47.4446" lon="6.64513">
        <ele>340</ele>
        <time>2015-07-08T08:49:03.000Z</time>
      </trkpt>
      <trkpt lat="47.44462" lon="6.6452">
        <ele>340</ele>
        <time>2015-07-08T08:49:04.000Z</time>
      </trkpt>
      <trkpt lat="47.44464" lon="6.64526">
        <ele>340</ele>
        <time>2015-07-08T08:49:05.000Z</time>
      </trkpt>
      <trkpt lat="47.44466" lon="6.64532">
        <ele>339</ele>
        <time>2015-07-08T08:49:06.000Z</time>
      </trkpt>
      <trkpt lat="47.44467" lon="6.64536">
        <ele>339</ele>
        <time>2015-07-08T08:49:07.000Z</time>
      </trkpt>
      <trkpt lat="47.44468" lon="6.6454">
        <ele>339</ele>
        <time>2015-07-08T08:49:08.000Z</time>
      </trkpt>
      <trkpt lat="47.44468" lon="6.64544">
        <ele>339</ele>
        <time>2015-07-08T08:49:09.000Z</time>
      </trkpt>
      <trkpt lat="47.44468" lon="6.64546">
        <ele>338</ele>
        <time>2015-07-08T08:49:10.000Z</time>
      </trkpt>
      <trkpt lat="47.44467" lon="6.64549">
        <ele>338</ele>
        <time>2015-07-08T08:49:11.000Z</time>
      </trkpt>
      <trkpt lat="47.44466" lon="6.64551">
        <ele>338</ele>
        <time>2015-07-08T08:49:12.000Z</time>
      </trkpt>
      <trkpt lat="47.44465" lon="6.64553">
        <ele>337</ele>
        <time>2015-07-08T08:49:13.000Z</time>
      </trkpt>
      <trkpt lat="47.44464" lon="6.64555">
        <ele>337</ele>
        <time>2015-07-08T08:49:14.000Z</time>
      </trkpt>
      <trkpt lat="47.44463" lon="6.64556">
        <ele>337</ele>
        <time>2015-07-08T08:49:15.000Z</time>
      </trkpt>
      <trkpt lat="47.44462" lon="6.64557">
        <ele>337</ele>
        <time>2015-07-08T08:49:16.000Z</time>
      </trkpt>
      <trkpt lat="47.44461" lon="6.64559">
        <ele>337</ele>
        <time>2015-07-08T08:49:17.000Z</time>
      </trkpt>
      <trkpt lat="47.44461" lon="6.64561">
        <ele>337</ele>
        <time>2015-07-08T08:49:18.000Z</time>
      </trkpt>
      <trkpt lat="47.44461" lon="6.64563">
        <ele>337</ele>
        <time>2015-07-08T08:49:19.000Z</time>
      </trkpt>
      <trkpt lat="47.44462" lon="6.64565">
        <ele>336</ele>
        <time>2015-07-08T08:49:20.000Z</time>
      </trkpt>
      <trkpt lat="47.44463" lon="6.64566">
        <ele>336</ele>
        <time>2015-07-08T08:49:21.000Z</time>
      </trkpt>
      <trkpt lat="47.44465" lon="6.64567">
        <ele>336</ele>
        <time>2015-07-08T08:49:22.000Z</time>
      </trkpt>
      <trkpt lat="47.44466" lon="6.64566">
        <ele>336</ele>
        <time>2015-07-08T08:49:23.000Z</time>
      </trkpt>
      <trkpt lat="47.44467" lon="6.64565">
        <ele>336</ele>
        <time>2015-07-08T08:49:24.000Z</time>
      </trkpt>
      <trkpt lat="47.44467" lon="6.64563">
        <ele>336</ele>
        <time>2015-07-08T08:49:25.000Z</time>
      </trkpt>
      <trkpt lat="47.44467" lon="6.64561">
        <ele>336</ele>
        <time>2015-07-08T08:49:26.000Z</time>
      </trkpt>
      <trkpt lat="47.44466" lon="6.6456">
        <ele>336</ele>
        <time>2015-07-08T08:49:27.000Z</time>
      </trkpt>
      <trkpt lat="47.44466" lon="6.64558">
        <ele>336</ele>
        <time>2015-07-08T08:49:28.000Z</time>
      </trkpt>
      <trkpt lat="47.44465" lon="6.64557">
        <ele>336</ele>
        <time>2015-07-08T08:49:29.000Z</time>
      </trkpt>
      <trkpt lat="47.44465" lon="6.64555">
        <ele>336</ele>
        <time>2015-07-08T08:49:30.000Z</time>
      </trkpt>
      <trkpt lat="47.44464" lon="6.64553">
        <ele>336</ele>
        <time>2015-07-08T08:49:31.000Z</time>
      </trkpt>
      <trkpt lat="47.44463" lon="6.6455">
        <ele>336</ele>
        <time>2015-07-08T08:49:32.000Z</time>
      </trkpt>
      <trkpt lat="47.44463" lon="6.64545">
        <ele>336</ele>
        <time>2015-07-08T08:49:33.000Z</time>
      </trkpt>
      <trkpt lat="47.44462" lon="6.64539">
        <ele>337</ele>
        <time>2015-07-08T08:49:34.000Z</time>
      </trkpt>
      <trkpt lat="47.4446" lon="6.64532">
        <ele>337</ele>
        <time>2015-07-08T08:49:35.000Z</time>
      </trkpt>
      <trkpt lat="47.44459" lon="6.64525">
        <ele>337</ele>
        <time>2015-07-08T08:49:36.000Z</time>
      </trkpt>
      <trkpt lat="47.44457" lon="6.64518">
        <ele>337</ele>
        <time>2015-07-08T08:49:37.000Z</time>
      </trkpt>
      <trkpt lat="47.44456" lon="6.6451">
        <ele>337</ele>
        <time>2015-07-08T08:49:38.000Z</time>
      </trkpt>
      <trkpt lat="47.44454" lon="6.64503">
        <ele>337</ele>
        <time>2015-07-08T08:49:39.000Z</time>
      </trkpt>
      <trkpt lat="47.44452" lon="6.64495">
        <ele>338</ele>
        <time>2015-07-08T08:49:40.000Z</time>
      </trkpt>
      <trkpt lat="47.4445" lon="6.64488">
        <ele>338</ele>
        <time>2015-07-08T08:49:41.000Z</time>
      </trkpt>
      <trkpt lat="47.44449" lon="6.64482">
        <ele>338</ele>
        <time>2015-07-08T08:49:42.000Z</time>
      </trkpt>
      <trkpt lat="47.44447" lon="6.64475">
        <ele>338</ele>
        <time>2015-07-08T08:49:43.000Z</time>
      </trkpt>
      <trkpt lat="47.44446" lon="6.64469">
        <ele>339</ele>
        <time>2015-07-08T08:49:44.000Z</time>
      </trkpt>
      <trkpt lat="47.44444" lon="6.64463">
        <ele>339</ele>
        <time>2015-07-08T08:49:45.000Z</time>
      </trkpt>
      <trkpt lat="47.44443" lon="6.64458">
        <ele>340</ele>
        <time>2015-07-08T08:49:46.000Z</time>
      </trkpt>
      <trkpt lat="47.44442" lon="6.64453">
        <ele>340</ele>
        <time>2015-07-08T08:49:47.000Z</time>
      </trkpt>
      <trkpt lat="47.44442" lon="6.64448">
        <ele>340</ele>
        <time>2015-07-08T08:49:48.000Z</time>
      </trkpt>
      <trkpt lat="47.44441" lon="6.64445">
        <ele>341</ele>
        <time>2015-07-08T08:49:49.000Z</time>
      </trkpt>
      <trkpt lat="47.4444" lon="6.64441">
        <ele>341</ele>
        <time>2015-07-08T08:49:50.000Z</time>
      </trkpt>
      <trkpt lat="47.4444" lon="6.64437">
        <ele>341</ele>
        <time>2015-07-08T08:49:51.000Z</time>
      </trkpt>
      <trkpt lat="47.44439" lon="6.64433">
        <ele>341</ele>
        <time>2015-07-08T08:49:52.000Z</time>
      </trkpt>
      <trkpt lat="47.44438" lon="6.64429">
        <ele>341</ele>
        <time>2015-07-08T08:49:53.000Z</time>
      </trkpt>
      <trkpt lat="47.44438" lon="6.64426">
        <ele>341</ele>
        <time>2015-07-08T08:49:54.000Z</time>
      </trkpt>
      <trkpt lat="47.44437" lon="6.64422">
        <ele>342</ele>
        <time>2015-07-08T08:49:55.000Z</time>
      </trkpt>
      <trkpt lat="47.44436" lon="6.64418">
        <ele>342</ele>
        <time>2015-07-08T08:49:56.000Z</time>
      </trkpt>
      <trkpt lat="47.44435" lon="6.64414">
        <ele>342</ele>
        <time>2015-07-08T08:49:57.000Z</time>
      </trkpt>
      <trkpt lat="47.44434" lon="6.6441">
        <ele>342</ele>
        <time>2015-07-08T08:49:58.000Z</time>
      </trkpt>
      <trkpt lat="47.44433" lon="6.64406">
        <ele>342</ele>
        <time>2015-07-08T08:49:59.000Z</time>
      </trkpt>
      <trkpt lat="47.44432" lon="6.64402">
        <ele>342</ele>
        <time>2015-07-08T08:50:00.000Z</time>
      </trkpt>
      <trkpt lat="47.44431" lon="6.64397">
        <ele>342</ele>
        <time>2015-07-08T08:50:01.000Z</time>
      </trkpt>
      <trkpt lat="47.4443" lon="6.64393">
        <ele>343</ele>
        <time>2015-07-08T08:50:02.000Z</time>
      </trkpt>
      <trkpt lat="47.4443" lon="6.64389">
        <ele>343</ele>
        <time>2015-07-08T08:50:03.000Z</time>
      </trkpt>
      <trkpt lat="47.44429" lon="6.64385">
        <ele>343</ele>
        <time>2015-07-08T08:50:04.000Z</time>
      </trkpt>
      <trkpt lat="47.44428" lon="6.64382">
        <ele>343</ele>
        <time>2015-07-08T08:50:05.000Z</time>
      </trkpt>
      <trkpt lat="47.44428" lon="6.64379">
        <ele>343</ele>
        <time>2015-07-08T08:50:06.000Z</time>
      </trkpt>
      <trkpt lat="47.44427" lon="6.64376">
        <ele>343</ele>
        <time>2015-07-08T08:50:07.000Z</time>
      </trkpt>
      <trkpt lat="47.44427" lon="6.64373">
        <ele>343</ele>
        <time>2015-07-08T08:50:08.000Z</time>
      </trkpt>
      <trkpt lat="47.44426" lon="6.64371">
        <ele>343</ele>
        <time>2015-07-08T08:50:09.000Z</time>
      </trkpt>
      <trkpt lat="47.44426" lon="6.64369">
        <ele>343</ele>
        <time>2015-07-08T08:50:10.000Z</time>
      </trkpt>
      <trkpt lat="47.44425" lon="6.64367">
        <ele>343</ele>
        <time>2015-07-08T08:50:11.000Z</time>
      </trkpt>
      <trkpt lat="47.44424" lon="6.64366">
        <ele>343</ele>
        <time>2015-07-08T08:50:12.000Z</time>
      </trkpt>
      <trkpt lat="47.44422" lon="6.64366">
        <ele>343</ele>
        <time>2015-07-08T08:50:13.000Z</time>
      </trkpt>
      <trkpt lat="47.44422" lon="6.64367">
        <ele>343</ele>
        <time>2015-07-08T08:50:14.000Z</time>
      </trkpt>
      <trkpt lat="47.44421" lon="6.64369">
        <ele>343</ele>
        <time>2015-07-08T08:50:15.000Z</time>
      </trkpt>
      <trkpt lat="47.44422" lon="6.64372">
        <ele>343</ele>
        <time>2015-07-08T08:50:16.000Z</time>
      </trkpt>
      <trkpt lat="47.44423" lon="6.64375">
        <ele>343</ele>
        <time>2015-07-08T08:50:17.000Z</time>
      </trkpt>
      <trkpt lat="47.44424" lon="6.64378">
        <ele>343</ele>
        <time>2015-07-08T08:50:18.000Z</time>
      </trkpt>
      <trkpt lat="47.44424" lon="6.64382">
        <ele>342</ele>
        <time>2015-07-08T08:50:19.000Z</time>
      </trkpt>
      <trkpt lat="47.44425" lon="6.64387">
        <ele>342</ele>
        <time>2015-07-08T08:50:20.000Z</time>
      </trkpt>
      <trkpt lat="47.44426" lon="6.64392">
        <ele>342</ele>
        <time>2015-07-08T08:50:21.000Z</time>
      </trkpt>
      <trkpt lat="47.44427" lon="6.64397">
        <ele>342</ele>
        <time>2015-07-08T08:50:22.000Z</time>
      </trkpt>
      <trkpt lat="47.44429" lon="6.64402">
        <ele>342</ele>
        <time>2015-07-08T08:50:23.000Z</time>
      </trkpt>
      <trkpt lat="47.4443" lon="6.64407">
        <ele>342</ele>
        <time>2015-07-08T08:50:24.000Z</time>
      </trkpt>
      <trkpt lat="47.44431" lon="6.64412">
        <ele>342</ele>
        <time>2015-07-08T08:50:25.000Z</time>
      </trkpt>
      <trkpt lat="47.44432" lon="6.64417">
        <ele>341</ele>
        <time>2015-07-08T08:50:26.000Z</time>
      </trkpt>
      <trkpt lat="47.44433" lon="6.64422">
        <ele>341</ele>
        <time>2015-07-08T08:50:27.000Z</time>
      </trkpt>
      <trkpt lat="47.44435" lon="6.64427">
        <ele>341</ele>
        <time>2015-07-08T08:50:28.000Z</time>
      </trkpt>
      <trkpt lat="47.44436" lon="6.64433">
        <ele>341</ele>
        <time>2015-07-08T08:50:29.000Z</time>
      </trkpt>
      <trkpt lat="47.44438" lon="6.64439">
        <ele>341</ele>
        <time>2015-07-08T08:50:30.000Z</time>
      </trkpt>
      <trkpt lat="47.44441" lon="6.64446">
        <ele>340</ele>
        <time>2015-07-08T08:50:31.000Z</time>
      </trkpt>
      <trkpt lat="47.44443" lon="6.64454">
        <ele>340</ele>
        <time>2015-07-08T08:50:32.000Z</time>
      </trkpt>
      <trkpt lat="47.44446" lon="6.64462">
        <ele>340</ele>
        <time>2015-07-08T08:50:33.000Z</time>
      </trkpt>
      <trkpt lat="47.44449" lon="6.64471">
        <ele>340</ele>
        <time>2015-07-08T08:50:34.000Z</time>
      </trkpt>
      <trkpt lat="47.44452" lon="6.64481">
        <ele>340</ele>
        <time>2015-07-08T08:50:35.000Z</time>
      </trkpt>
      <trkpt lat="47.44455" lon="6.64493">
        <ele>340</ele>
        <time>2015-07-08T08:50:36.000Z</time>
      </trkpt>
      <trkpt lat="47.44458" lon="6.64504">
        <ele>340</ele>
        <time>2015-07-08T08:50:37.000Z</time>
      </trkpt>
      <trkpt lat="47.44461" lon="6.64515">
        <ele>339</ele>
        <time>2015-07-08T08:50:38.000Z</time>
      </trkpt>
      <trkpt lat="47.44464" lon="6.64524">
        <ele>339</ele>
        <time>2015-07-08T08:50:39.000Z</time>
      </trkpt>
      <trkpt lat="47.44466" lon="6.64531">
        <ele>338</ele>
        <time>2015-07-08T08:50:40.000Z</time>
      </trkpt>
      <trkpt lat="47.44467" lon="6.64536">
        <ele>338</ele>
        <time>2015-07-08T08:50:41.000Z</time>
      </trkpt>
      <trkpt lat="47.44468" lon="6.6454">
        <ele>338</ele>
        <time>2015-07-08T08:50:42.000Z</time>
      </trkpt>
      <trkpt lat="47.44468" lon="6.64544">
        <ele>337</ele>
        <time>2015-07-08T08:50:43.000Z</time>
      </trkpt>
      <trkpt lat="47.44467" lon="6.64546">
        <ele>337</ele>
        <time>2015-07-08T08:50:44.000Z</time>
      </trkpt>
      <trkpt lat="47.44466" lon="6.64548">
        <ele>337</ele>
        <time>2015-07-08T08:50:45.000Z</time>
      </trkpt>
      <trkpt lat="47.44464" lon="6.64549">
        <ele>337</ele>
        <time>2015-07-08T08:50:46.000Z</time>
      </trkpt>
      <trkpt lat="47.44463" lon="6.64551">
        <ele>337</ele>
        <time>2015-07-08T08:50:47.000Z</time>
      </trkpt>
      <trkpt lat="47.44461" lon="6.64552">
        <ele>336</ele>
        <time>2015-07-08T08:50:48.000Z</time>
      </trkpt>
      <trkpt lat="47.44458" lon="6.64552">
        <ele>336</ele>
        <time>2015-07-08T08:50:49.000Z</time>
      </trkpt>
      <trkpt lat="47.44456" lon="6.64551">
        <ele>336</ele>
        <time>2015-07-08T08:50:50.000Z</time>
      </trkpt>
      <trkpt lat="47.44454" lon="6.6455">
        <ele>336</ele>
        <time>2015-07-08T08:50:51.000Z</time>
      </trkpt>
      <trkpt lat="47.44452" lon="6.64549">
        <ele>336</ele>
        <time>2015-07-08T08:50:52.000Z</time>
      </trkpt>
      <trkpt lat="47.4445" lon="6.64548">
        <ele>336</ele>
        <time>2015-07-08T08:50:53.000Z</time>
      </trkpt>
      <trkpt lat="47.44447" lon="6.64548">
        <ele>337</ele>
        <time>2015-07-08T08:50:54.000Z</time>
      </trkpt>
      <trkpt lat="47.44445" lon="6.64548">
        <ele>337</ele>
        <time>2015-07-08T08:50:55.000Z</time>
      </trkpt>
      <trkpt lat="47.44443" lon="6.64548">
        <ele>337</ele>
        <time>2015-07-08T08:50:56.000Z</time>
      </trkpt>
      <trkpt lat="47.44441" lon="6.64549">
        <ele>337</ele>
        <time>2015-07-08T08:50:57.000Z</time>
      </trkpt>
      <trkpt lat="47.44438" lon="6.6455">
        <ele>337</ele>
        <time>2015-07-08T08:50:58.000Z</time>
      </trkpt>
      <trkpt lat="47.44435" lon="6.64552">
        <ele>337</ele>
        <time>2015-07-08T08:50:59.000Z</time>
      </trkpt>
      <trkpt lat="47.44432" lon="6.64555">
        <ele>337</ele>
        <time>2015-07-08T08:51:00.000Z</time>
      </trkpt>
      <trkpt lat="47.44428" lon="6.64558">
        <ele>337</ele>
        <time>2015-07-08T08:51:01.000Z</time>
      </trkpt>
      <trkpt lat="47.44424" lon="6.64561">
        <ele>338</ele>
        <time>2015-07-08T08:51:02.000Z</time>
      </trkpt>
      <trkpt lat="47.4442" lon="6.64563">
        <ele>338</ele>
        <time>2015-07-08T08:51:03.000Z</time>
      </trkpt>
      <trkpt lat="47.44415" lon="6.64566">
        <ele>338</ele>
        <time>2015-07-08T08:51:04.000Z</time>
      </trkpt>
      <trkpt lat="47.4441" lon="6.64569">
        <ele>338</ele>
        <time>2015-07-08T08:51:05.000Z</time>
      </trkpt>
      <trkpt lat="47.44405" lon="6.64573">
        <ele>338</ele>
        <time>2015-07-08T08:51:06.000Z</time>
      </trkpt>
      <trkpt lat="47.44399" lon="6.64576">
        <ele>338</ele>
        <time>2015-07-08T08:51:07.000Z</time>
      </trkpt>
      <trkpt lat="47.44393" lon="6.6458">
        <ele>338</ele>
        <time>2015-07-08T08:51:08.000Z</time>
      </trkpt>
      <trkpt lat="47.44387" lon="6.64583">
        <ele>337</ele>
        <time>2015-07-08T08:51:09.000Z</time>
      </trkpt>
      <trkpt lat="47.4438" lon="6.64587">
        <ele>337</ele>
        <time>2015-07-08T08:51:10.000Z</time>
      </trkpt>
      <trkpt lat="47.44374" lon="6.64592">
        <ele>337</ele>
        <time>2015-07-08T08:51:11.000Z</time>
      </trkpt>
      <trkpt lat="47.44367" lon="6.64596">
        <ele>337</ele>
        <time>2015-07-08T08:51:12.000Z</time>
      </trkpt>
      <trkpt lat="47.44359" lon="6.64599">
        <ele>337</ele>
        <time>2015-07-08T08:51:13.000Z</time>
      </trkpt>
      <trkpt lat="47.44352" lon="6.64601">
        <ele>336</ele>
        <time>2015-07-08T08:51:14.000Z</time>
      </trkpt>
      <trkpt lat="47.44346" lon="6.64601">
        <ele>336</ele>
        <time>2015-07-08T08:51:15.000Z</time>
      </trkpt>
      <trkpt lat="47.44339" lon="6.646">
        <ele>335</ele>
        <time>2015-07-08T08:51:16.000Z</time>
      </trkpt>
      <trkpt lat="47.44334" lon="6.64597">
        <ele>334</ele>
        <time>2015-07-08T08:51:17.000Z</time>
      </trkpt>
      <trkpt lat="47.44329" lon="6.64589">
        <ele>333</ele>
        <time>2015-07-08T08:51:18.000Z</time>
      </trkpt>
      <trkpt lat="47.44327" lon="6.64581">
        <ele>332</ele>
        <time>2015-07-08T08:51:19.000Z</time>
      </trkpt>
      <trkpt lat="47.44327" lon="6.64572">
        <ele>332</ele>
        <time>2015-07-08T08:51:20.000Z</time>
      </trkpt>
      <trkpt lat="47.44328" lon="6.64564">
        <ele>331</ele>
        <time>2015-07-08T08:51:21.000Z</time>
      </trkpt>
      <trkpt lat="47.4433" lon="6.64556">
        <ele>330</ele>
        <time>2015-07-08T08:51:22.000Z</time>
      </trkpt>
      <trkpt lat="47.44332" lon="6.64548">
        <ele>330</ele>
        <time>2015-07-08T08:51:23.000Z</time>
      </trkpt>
      <trkpt lat="47.44333" lon="6.64539">
        <ele>329</ele>
        <time>2015-07-08T08:51:24.000Z</time>
      </trkpt>
      <trkpt lat="47.44334" lon="6.6453">
        <ele>329</ele>
        <time>2015-07-08T08:51:25.000Z</time>
      </trkpt>
      <trkpt lat="47.44335" lon="6.6452">
        <ele>328</ele>
        <time>2015-07-08T08:51:26.000Z</time>
      </trkpt>
      <trkpt lat="47.44334" lon="6.64511">
        <ele>328</ele>
        <time>2015-07-08T08:51:27.000Z</time>
      </trkpt>
      <trkpt lat="47.44332" lon="6.64502">
        <ele>327</ele>
        <time>2015-07-08T08:51:28.000Z</time>
      </trkpt>
      <trkpt lat="47.44329" lon="6.64495">
        <ele>327</ele>
        <time>2015-07-08T08:51:29.000Z</time>
      </trkpt>
      <trkpt lat="47.44324" lon="6.64491">
        <ele>326</ele>
        <time>2015-07-08T08:51:30.000Z</time>
      </trkpt>
      <trkpt lat="47.44318" lon="6.6449">
        <ele>325</ele>
        <time>2015-07-08T08:51:31.000Z</time>
      </trkpt>
      <trkpt lat="47.44313" lon="6.64494">
        <ele>325</ele>
        <time>2015-07-08T08:51:32.000Z</time>
      </trkpt>
      <trkpt lat="47.44308" lon="6.645">
        <ele>324</ele>
        <time>2015-07-08T08:51:33.000Z</time>
      </trkpt>
      <trkpt lat="47.44304" lon="6.64507">
        <ele>323</ele>
        <time>2015-07-08T08:51:34.000Z</time>
      </trkpt>
      <trkpt lat="47.44299" lon="6.64514">
        <ele>323</ele>
        <time>2015-07-08T08:51:35.000Z</time>
      </trkpt>
      <trkpt lat="47.44294" lon="6.64522">
        <ele>322</ele>
        <time>2015-07-08T08:51:36.000Z</time>
      </trkpt>
      <trkpt lat="47.44289" lon="6.6453">
        <ele>321</ele>
        <time>2015-07-08T08:51:37.000Z</time>
      </trkpt>
      <trkpt lat="47.44283" lon="6.64538">
        <ele>321</ele>
        <time>2015-07-08T08:51:38.000Z</time>
      </trkpt>
      <trkpt lat="47.44278" lon="6.64546">
        <ele>320</ele>
        <time>2015-07-08T08:51:39.000Z</time>
      </trkpt>
      <trkpt lat="47.44272" lon="6.64553">
        <ele>320</ele>
        <time>2015-07-08T08:51:40.000Z</time>
      </trkpt>
      <trkpt lat="47.44267" lon="6.64562">
        <ele>319</ele>
        <time>2015-07-08T08:51:41.000Z</time>
      </trkpt>
      <trkpt lat="47.44262" lon="6.64571">
        <ele>319</ele>
        <time>2015-07-08T08:51:42.000Z</time>
      </trkpt>
      <trkpt lat="47.44258" lon="6.6458">
        <ele>318</ele>
        <time>2015-07-08T08:51:43.000Z</time>
      </trkpt>
      <trkpt lat="47.44254" lon="6.64588">
        <ele>318</ele>
        <time>2015-07-08T08:51:44.000Z</time>
      </trkpt>
      <trkpt lat="47.4425" lon="6.64597">
        <ele>317</ele>
        <time>2015-07-08T08:51:45.000Z</time>
      </trkpt>
      <trkpt lat="47.44247" lon="6.64604">
        <ele>317</ele>
        <time>2015-07-08T08:51:46.000Z</time>
      </trkpt>
      <trkpt lat="47.44244" lon="6.6461">
        <ele>317</ele>
        <time>2015-07-08T08:51:47.000Z</time>
      </trkpt>
      <trkpt lat="47.44241" lon="6.64615">
        <ele>316</ele>
        <time>2015-07-08T08:51:48.000Z</time>
      </trkpt>
      <trkpt lat="47.44238" lon="6.6462">
        <ele>316</ele>
        <time>2015-07-08T08:51:49.000Z</time>
      </trkpt>
      <trkpt lat="47.44234" lon="6.64622">
        <ele>316</ele>
        <time>2015-07-08T08:51:50.000Z</time>
      </trkpt>
      <trkpt lat="47.44229" lon="6.64623">
        <ele>316</ele>
        <time>2015-07-08T08:51:51.000Z</time>
      </trkpt>
      <trkpt lat="47.44224" lon="6.64623">
        <ele>315</ele>
        <time>2015-07-08T08:51:52.000Z</time>
      </trkpt>
      <trkpt lat="47.44218" lon="6.64623">
        <ele>315</ele>
        <time>2015-07-08T08:51:53.000Z</time>
      </trkpt>
      <trkpt lat="47.44213" lon="6.64623">
        <ele>315</ele>
        <time>2015-07-08T08:51:54.000Z</time>
      </trkpt>
      <trkpt lat="47.44207" lon="6.64623">
        <ele>315</ele>
        <time>2015-07-08T08:51:55.000Z</time>
      </trkpt>
      <trkpt lat="47.44202" lon="6.64623">
        <ele>315</ele>
        <time>2015-07-08T08:51:56.000Z</time>
      </trkpt>
      <trkpt lat="47.44196" lon="6.6462">
        <ele>314</ele>
        <time>2015-07-08T08:51:57.000Z</time>
      </trkpt>
      <trkpt lat="47.44192" lon="6.64618">
        <ele>314</ele>
        <time>2015-07-08T08:51:58.000Z</time>
      </trkpt>
      <trkpt lat="47.44188" lon="6.64616">
        <ele>314</ele>
        <time>2015-07-08T08:51:59.000Z</time>
      </trkpt>
      <trkpt lat="47.44186" lon="6.64616">
        <ele>314</ele>
        <time>2015-07-08T08:52:00.000Z</time>
      </trkpt>
      <trkpt lat="47.44184" lon="6.64616">
        <ele>314</ele>
        <time>2015-07-08T08:52:01.000Z</time>
      </trkpt>
      <trkpt lat="47.44183" lon="6.64616">
        <ele>314</ele>
        <time>2015-07-08T08:52:02.000Z</time>
      </trkpt>
      <trkpt lat="47.44181" lon="6.64616">
        <ele>314</ele>
        <time>2015-07-08T08:52:03.000Z</time>
      </trkpt>
      <trkpt lat="47.44179" lon="6.64617">
        <ele>314</ele>
        <time>2015-07-08T08:52:04.000Z</time>
      </trkpt>
      <trkpt lat="47.44177" lon="6.64617">
        <ele>314</ele>
        <time>2015-07-08T08:52:05.000Z</time>
      </trkpt>
      <trkpt lat="47.44175" lon="6.64617">
        <ele>314</ele>
        <time>2015-07-08T08:52:06.000Z</time>
      </trkpt>
      <trkpt lat="47.44172" lon="6.64619">
        <ele>314</ele>
        <time>2015-07-08T08:52:07.000Z</time>
      </trkpt>
      <trkpt lat="47.4417" lon="6.64622">
        <ele>314</ele>
        <time>2015-07-08T08:52:08.000Z</time>
      </trkpt>
      <trkpt lat="47.44169" lon="6.64626">
        <ele>314</ele>
        <time>2015-07-08T08:52:09.000Z</time>
      </trkpt>
      <trkpt lat="47.44168" lon="6.6463">
        <ele>314</ele>
        <time>2015-07-08T08:52:10.000Z</time>
      </trkpt>
      <trkpt lat="47.44168" lon="6.64634">
        <ele>314</ele>
        <time>2015-07-08T08:52:11.000Z</time>
      </trkpt>
      <trkpt lat="47.44167" lon="6.64639">
        <ele>314</ele>
        <time>2015-07-08T08:52:12.000Z</time>
      </trkpt>
      <trkpt lat="47.44167" lon="6.64644">
        <ele>314</ele>
        <time>2015-07-08T08:52:13.000Z</time>
      </trkpt>
      <trkpt lat="47.44166" lon="6.6465">
        <ele>313</ele>
        <time>2015-07-08T08:52:14.000Z</time>
      </trkpt>
      <trkpt lat="47.44165" lon="6.64656">
        <ele>313</ele>
        <time>2015-07-08T08:52:15.000Z</time>
      </trkpt>
      <trkpt lat="47.44164" lon="6.64662">
        <ele>313</ele>
        <time>2015-07-08T08:52:16.000Z</time>
      </trkpt>
      <trkpt lat="47.44163" lon="6.64669">
        <ele>313</ele>
        <time>2015-07-08T08:52:17.000Z</time>
      </trkpt>
      <trkpt lat="47.44162" lon="6.64675">
        <ele>313</ele>
        <time>2015-07-08T08:52:18.000Z</time>
      </trkpt>
      <trkpt lat="47.44161" lon="6.64682">
        <ele>313</ele>
        <time>2015-07-08T08:52:19.000Z</time>
      </trkpt>
      <trkpt lat="47.44159" lon="6.64689">
        <ele>313</ele>
        <time>2015-07-08T08:52:20.000Z</time>
      </trkpt>
      <trkpt lat="47.44158" lon="6.64696">
        <ele>313</ele>
        <time>2015-07-08T08:52:21.000Z</time>
      </trkpt>
      <trkpt lat="47.44157" lon="6.64703">
        <ele>312</ele>
        <time>2015-07-08T08:52:22.000Z</time>
      </trkpt>
      <trkpt lat="47.44156" lon="6.6471">
        <ele>312</ele>
        <time>2015-07-08T08:52:23.000Z</time>
      </trkpt>
      <trkpt lat="47.44156" lon="6.64717">
        <ele>312</ele>
        <time>2015-07-08T08:52:24.000Z</time>
      </trkpt>
      <trkpt lat="47.44155" lon="6.64724">
        <ele>312</ele>
        <time>2015-07-08T08:52:25.000Z</time>
      </trkpt>
      <trkpt lat="47.44153" lon="6.6473">
        <ele>312</ele>
        <time>2015-07-08T08:52:26.000Z</time>
      </trkpt>
      <trkpt lat="47.44152" lon="6.64736">
        <ele>312</ele>
        <time>2015-07-08T08:52:27.000Z</time>
      </trkpt>
      <trkpt lat="47.44151" lon="6.64742">
        <ele>312</ele>
        <time>2015-07-08T08:52:28.000Z</time>
      </trkpt>
      <trkpt lat="47.4415" lon="6.64748">
        <ele>312</ele>
        <time>2015-07-08T08:52:29.000Z</time>
      </trkpt>
      <trkpt lat="47.44149" lon="6.64755">
        <ele>312</ele>
        <time>2015-07-08T08:52:30.000Z</time>
      </trkpt>
      <trkpt lat="47.44149" lon="6.64761">
        <ele>312</ele>
        <time>2015-07-08T08:52:31.000Z</time>
      </trkpt>
      <trkpt lat="47.44148" lon="6.64768">
        <ele>312</ele>
        <time>2015-07-08T08:52:32.000Z</time>
      </trkpt>
      <trkpt lat="47.44147" lon="6.64774">
        <ele>312</ele>
        <time>2015-07-08T08:52:33.000Z</time>
      </trkpt>
      <trkpt lat="47.44146" lon="6.64782">
        <ele>312</ele>
        <time>2015-07-08T08:52:34.000Z</time>
      </trkpt>
      <trkpt lat="47.44145" lon="6.64789">
        <ele>312</ele>
        <time>2015-07-08T08:52:35.000Z</time>
      </trkpt>
      <trkpt lat="47.44144" lon="6.64796">
        <ele>312</ele>
        <time>2015-07-08T08:52:36.000Z</time>
      </trkpt>
      <trkpt lat="47.44143" lon="6.64803">
        <ele>312</ele>
        <time>2015-07-08T08:52:37.000Z</time>
      </trkpt>
      <trkpt lat="47.44142" lon="6.6481">
        <ele>312</ele>
        <time>2015-07-08T08:52:38.000Z</time>
      </trkpt>
      <trkpt lat="47.44142" lon="6.64817">
        <ele>312</ele>
        <time>2015-07-08T08:52:39.000Z</time>
      </trkpt>
      <trkpt lat="47.44141" lon="6.64824">
        <ele>312</ele>
        <time>2015-07-08T08:52:40.000Z</time>
      </trkpt>
      <trkpt lat="47.4414" lon="6.64831">
        <ele>312</ele>
        <time>2015-07-08T08:52:41.000Z</time>
      </trkpt>
      <trkpt lat="47.44139" lon="6.64837">
        <ele>312</ele>
        <time>2015-07-08T08:52:42.000Z</time>
      </trkpt>
      <trkpt lat="47.44139" lon="6.64844">
        <ele>312</ele>
        <time>2015-07-08T08:52:43.000Z</time>
      </trkpt>
      <trkpt lat="47.44139" lon="6.6485">
        <ele>312</ele>
        <time>2015-07-08T08:52:44.000Z</time>
      </trkpt>
      <trkpt lat="47.4414" lon="6.64857">
        <ele>312</ele>
        <time>2015-07-08T08:52:45.000Z</time>
      </trkpt>
      <trkpt lat="47.44143" lon="6.64863">
        <ele>312</ele>
        <time>2015-07-08T08:52:46.000Z</time>
      </trkpt>
      <trkpt lat="47.44145" lon="6.64869">
        <ele>312</ele>
        <time>2015-07-08T08:52:47.000Z</time>
      </trkpt>
      <trkpt lat="47.44148" lon="6.64875">
        <ele>312</ele>
        <time>2015-07-08T08:52:48.000Z</time>
      </trkpt>
      <trkpt lat="47.4415" lon="6.64881">
        <ele>312</ele>
        <time>2015-07-08T08:52:49.000Z</time>
      </trkpt>
      <trkpt lat="47.44152" lon="6.64886">
        <ele>313</ele>
        <time>2015-07-08T08:52:50.000Z</time>
      </trkpt>
      <trkpt lat="47.44154" lon="6.64892">
        <ele>313</ele>
        <time>2015-07-08T08:52:51.000Z</time>
      </trkpt>
      <trkpt lat="47.44156" lon="6.64897">
        <ele>313</ele>
        <time>2015-07-08T08:52:52.000Z</time>
      </trkpt>
      <trkpt lat="47.44156" lon="6.64903">
        <ele>313</ele>
        <time>2015-07-08T08:52:53.000Z</time>
      </trkpt>
      <trkpt lat="47.44156" lon="6.64909">
        <ele>313</ele>
        <time>2015-07-08T08:52:54.000Z</time>
      </trkpt>
      <trkpt lat="47.44156" lon="6.64915">
        <ele>314</ele>
        <time>2015-07-08T08:52:55.000Z</time>
      </trkpt>
      <trkpt lat="47.44156" lon="6.6492">
        <ele>314</ele>
        <time>2015-07-08T08:52:56.000Z</time>
      </trkpt>
      <trkpt lat="47.44155" lon="6.64926">
        <ele>314</ele>
        <time>2015-07-08T08:52:57.000Z</time>
      </trkpt>
      <trkpt lat="47.44154" lon="6.64931">
        <ele>314</ele>
        <time>2015-07-08T08:52:58.000Z</time>
      </trkpt>
      <trkpt lat="47.44153" lon="6.64937">
        <ele>314</ele>
        <time>2015-07-08T08:52:59.000Z</time>
      </trkpt>
      <trkpt lat="47.44151" lon="6.64942">
        <ele>315</ele>
        <time>2015-07-08T08:53:00.000Z</time>
      </trkpt>
      <trkpt lat="47.4415" lon="6.64949">
        <ele>315</ele>
        <time>2015-07-08T08:53:01.000Z</time>
      </trkpt>
      <trkpt lat="47.44149" lon="6.64955">
        <ele>315</ele>
        <time>2015-07-08T08:53:02.000Z</time>
      </trkpt>
      <trkpt lat="47.44147" lon="6.64962">
        <ele>316</ele>
        <time>2015-07-08T08:53:03.000Z</time>
      </trkpt>
      <trkpt lat="47.44146" lon="6.64969">
        <ele>316</ele>
        <time>2015-07-08T08:53:04.000Z</time>
      </trkpt>
      <trkpt lat="47.44144" lon="6.64976">
        <ele>316</ele>
        <time>2015-07-08T08:53:05.000Z</time>
      </trkpt>
      <trkpt lat="47.44142" lon="6.64982">
        <ele>316</ele>
        <time>2015-07-08T08:53:06.000Z</time>
      </trkpt>
      <trkpt lat="47.4414" lon="6.64988">
        <ele>316</ele>
        <time>2015-07-08T08:53:07.000Z</time>
      </trkpt>
      <trkpt lat="47.44139" lon="6.64995">
        <ele>316</ele>
        <time>2015-07-08T08:53:08.000Z</time>
      </trkpt>
      <trkpt lat="47.44137" lon="6.65002">
        <ele>316</ele>
        <time>2015-07-08T08:53:09.000Z</time>
      </trkpt>
      <trkpt lat="47.44136" lon="6.65008">
        <ele>316</ele>
        <time>2015-07-08T08:53:10.000Z</time>
      </trkpt>
      <trkpt lat="47.44134" lon="6.65015">
        <ele>316</ele>
        <time>2015-07-08T08:53:11.000Z</time>
      </trkpt>
      <trkpt lat="47.44133" lon="6.65021">
        <ele>316</ele>
        <time>2015-07-08T08:53:12.000Z</time>
      </trkpt>
      <trkpt lat="47.44131" lon="6.65027">
        <ele>316</ele>
        <time>2015-07-08T08:53:13.000Z</time>
      </trkpt>
      <trkpt lat="47.44129" lon="6.65033">
        <ele>316</ele>
        <time>2015-07-08T08:53:14.000Z</time>
      </trkpt>
      <trkpt lat="47.44128" lon="6.65039">
        <ele>316</ele>
        <time>2015-07-08T08:53:15.000Z</time>
      </trkpt>
      <trkpt lat="47.44126" lon="6.65046">
        <ele>316</ele>
        <time>2015-07-08T08:53:16.000Z</time>
      </trkpt>
      <trkpt lat="47.44124" lon="6.65052">
        <ele>317</ele>
        <time>2015-07-08T08:53:17.000Z</time>
      </trkpt>
      <trkpt lat="47.44122" lon="6.65059">
        <ele>317</ele>
        <time>2015-07-08T08:53:18.000Z</time>
      </trkpt>
      <trkpt lat="47.4412" lon="6.65064">
        <ele>317</ele>
        <time>2015-07-08T08:53:19.000Z</time>
      </trkpt>
      <trkpt lat="47.44118" lon="6.6507">
        <ele>317</ele>
        <time>2015-07-08T08:53:20.000Z</time>
      </trkpt>
      <trkpt lat="47.44117" lon="6.65075">
        <ele>317</ele>
        <time>2015-07-08T08:53:21.000Z</time>
      </trkpt>
      <trkpt lat="47.44116" lon="6.6508">
        <ele>317</ele>
        <time>2015-07-08T08:53:22.000Z</time>
      </trkpt>
      <trkpt lat="47.44114" lon="6.65086">
        <ele>317</ele>
        <time>2015-07-08T08:53:23.000Z</time>
      </trkpt>
      <trkpt lat="47.44113" lon="6.65091">
        <ele>317</ele>
        <time>2015-07-08T08:53:24.000Z</time>
      </trkpt>
      <trkpt lat="47.44111" lon="6.65096">
        <ele>317</ele>
        <time>2015-07-08T08:53:25.000Z</time>
      </trkpt>
      <trkpt lat="47.4411" lon="6.65101">
        <ele>317</ele>
        <time>2015-07-08T08:53:26.000Z</time>
      </trkpt>
      <trkpt lat="47.44109" lon="6.65106">
        <ele>317</ele>
        <time>2015-07-08T08:53:27.000Z</time>
      </trkpt>
      <trkpt lat="47.44107" lon="6.65111">
        <ele>318</ele>
        <time>2015-07-08T08:53:28.000Z</time>
      </trkpt>
      <trkpt lat="47.44106" lon="6.65116">
        <ele>318</ele>
        <time>2015-07-08T08:53:29.000Z</time>
      </trkpt>
      <trkpt lat="47.44104" lon="6.6512">
        <ele>318</ele>
        <time>2015-07-08T08:53:30.000Z</time>
      </trkpt>
      <trkpt lat="47.44103" lon="6.65125">
        <ele>318</ele>
        <time>2015-07-08T08:53:31.000Z</time>
      </trkpt>
      <trkpt lat="47.44101" lon="6.65129">
        <ele>318</ele>
        <time>2015-07-08T08:53:32.000Z</time>
      </trkpt>
      <trkpt lat="47.441" lon="6.65133">
        <ele>318</ele>
        <time>2015-07-08T08:53:33.000Z</time>
      </trkpt>
      <trkpt lat="47.44098" lon="6.65137">
        <ele>319</ele>
        <time>2015-07-08T08:53:34.000Z</time>
      </trkpt>
      <trkpt lat="47.44096" lon="6.65141">
        <ele>319</ele>
        <time>2015-07-08T08:53:35.000Z</time>
      </trkpt>
      <trkpt lat="47.44094" lon="6.65145">
        <ele>319</ele>
        <time>2015-07-08T08:53:36.000Z</time>
      </trkpt>
      <trkpt lat="47.44092" lon="6.65149">
        <ele>319</ele>
        <time>2015-07-08T08:53:37.000Z</time>
      </trkpt>
      <trkpt lat="47.4409" lon="6.65154">
        <ele>319</ele>
        <time>2015-07-08T08:53:38.000Z</time>
      </trkpt>
      <trkpt lat="47.44089" lon="6.65158">
        <ele>319</ele>
        <time>2015-07-08T08:53:39.000Z</time>
      </trkpt>
      <trkpt lat="47.44087" lon="6.65163">
        <ele>320</ele>
        <time>2015-07-08T08:53:40.000Z</time>
      </trkpt>
      <trkpt lat="47.44085" lon="6.65167">
        <ele>320</ele>
        <time>2015-07-08T08:53:41.000Z</time>
      </trkpt>
      <trkpt lat="47.44083" lon="6.65172">
        <ele>320</ele>
        <time>2015-07-08T08:53:42.000Z</time>
      </trkpt>
      <trkpt lat="47.44081" lon="6.65175">
        <ele>321</ele>
        <time>2015-07-08T08:53:43.000Z</time>
      </trkpt>
      <trkpt lat="47.44079" lon="6.65179">
        <ele>321</ele>
        <time>2015-07-08T08:53:44.000Z</time>
      </trkpt>
      <trkpt lat="47.44077" lon="6.65182">
        <ele>321</ele>
        <time>2015-07-08T08:53:45.000Z</time>
      </trkpt>
      <trkpt lat="47.44075" lon="6.65186">
        <ele>321</ele>
        <time>2015-07-08T08:53:46.000Z</time>
      </trkpt>
      <trkpt lat="47.44072" lon="6.6519">
        <ele>321</ele>
        <time>2015-07-08T08:53:47.000Z</time>
      </trkpt>
      <trkpt lat="47.4407" lon="6.65194">
        <ele>321</ele>
        <time>2015-07-08T08:53:48.000Z</time>
      </trkpt>
      <trkpt lat="47.44068" lon="6.65197">
        <ele>321</ele>
        <time>2015-07-08T08:53:49.000Z</time>
      </trkpt>
      <trkpt lat="47.44065" lon="6.65201">
        <ele>321</ele>
        <time>2015-07-08T08:53:50.000Z</time>
      </trkpt>
      <trkpt lat="47.44063" lon="6.65204">
        <ele>321</ele>
        <time>2015-07-08T08:53:51.000Z</time>
      </trkpt>
      <trkpt lat="47.4406" lon="6.65208">
        <ele>321</ele>
        <time>2015-07-08T08:53:52.000Z</time>
      </trkpt>
      <trkpt lat="47.44057" lon="6.65212">
        <ele>321</ele>
        <time>2015-07-08T08:53:53.000Z</time>
      </trkpt>
      <trkpt lat="47.44055" lon="6.65216">
        <ele>321</ele>
        <time>2015-07-08T08:53:54.000Z</time>
      </trkpt>
      <trkpt lat="47.44052" lon="6.6522">
        <ele>321</ele>
        <time>2015-07-08T08:53:55.000Z</time>
      </trkpt>
      <trkpt lat="47.44049" lon="6.65223">
        <ele>321</ele>
        <time>2015-07-08T08:53:56.000Z</time>
      </trkpt>
      <trkpt lat="47.44046" lon="6.65227">
        <ele>321</ele>
        <time>2015-07-08T08:53:57.000Z</time>
      </trkpt>
      <trkpt lat="47.44043" lon="6.65232">
        <ele>321</ele>
        <time>2015-07-08T08:53:58.000Z</time>
      </trkpt>
      <trkpt lat="47.44039" lon="6.65236">
        <ele>321</ele>
        <time>2015-07-08T08:53:59.000Z</time>
      </trkpt>
      <trkpt lat="47.44036" lon="6.65241">
        <ele>321</ele>
        <time>2015-07-08T08:54:00.000Z</time>
      </trkpt>
      <trkpt lat="47.44032" lon="6.65246">
        <ele>321</ele>
        <time>2015-07-08T08:54:01.000Z</time>
      </trkpt>
      <trkpt lat="47.44027" lon="6.65251">
        <ele>321</ele>
        <time>2015-07-08T08:54:02.000Z</time>
      </trkpt>
      <trkpt lat="47.44023" lon="6.65256">
        <ele>321</ele>
        <time>2015-07-08T08:54:03.000Z</time>
      </trkpt>
      <trkpt lat="47.44018" lon="6.65261">
        <ele>321</ele>
        <time>2015-07-08T08:54:04.000Z</time>
      </trkpt>
      <trkpt lat="47.44013" lon="6.65266">
        <ele>321</ele>
        <time>2015-07-08T08:54:05.000Z</time>
      </trkpt>
      <trkpt lat="47.44008" lon="6.65271">
        <ele>320</ele>
        <time>2015-07-08T08:54:06.000Z</time>
      </trkpt>
      <trkpt lat="47.44002" lon="6.65275">
        <ele>320</ele>
        <time>2015-07-08T08:54:07.000Z</time>
      </trkpt>
      <trkpt lat="47.43996" lon="6.6528">
        <ele>320</ele>
        <time>2015-07-08T08:54:08.000Z</time>
      </trkpt>
      <trkpt lat="47.4399" lon="6.65284">
        <ele>320</ele>
        <time>2015-07-08T08:54:09.000Z</time>
      </trkpt>
      <trkpt lat="47.43985" lon="6.6529">
        <ele>320</ele>
        <time>2015-07-08T08:54:10.000Z</time>
      </trkpt>
      <trkpt lat="47.43979" lon="6.65295">
        <ele>320</ele>
        <time>2015-07-08T08:54:11.000Z</time>
      </trkpt>
      <trkpt lat="47.43974" lon="6.65301">
        <ele>320</ele>
        <time>2015-07-08T08:54:12.000Z</time>
      </trkpt>
      <trkpt lat="47.43968" lon="6.65307">
        <ele>320</ele>
        <time>2015-07-08T08:54:13.000Z</time>
      </trkpt>
      <trkpt lat="47.43963" lon="6.65313">
        <ele>320</ele>
        <time>2015-07-08T08:54:14.000Z</time>
      </trkpt>
      <trkpt lat="47.43957" lon="6.6532">
        <ele>320</ele>
        <time>2015-07-08T08:54:15.000Z</time>
      </trkpt>
      <trkpt lat="47.43951" lon="6.65327">
        <ele>320</ele>
        <time>2015-07-08T08:54:16.000Z</time>
      </trkpt>
      <trkpt lat="47.43945" lon="6.65334">
        <ele>320</ele>
        <time>2015-07-08T08:54:17.000Z</time>
      </trkpt>
      <trkpt lat="47.43939" lon="6.65342">
        <ele>319</ele>
        <time>2015-07-08T08:54:18.000Z</time>
      </trkpt>
      <trkpt lat="47.43933" lon="6.65349">
        <ele>320</ele>
        <time>2015-07-08T08:54:19.000Z</time>
      </trkpt>
      <trkpt lat="47.43928" lon="6.65357">
        <ele>320</ele>
        <time>2015-07-08T08:54:20.000Z</time>
      </trkpt>
      <trkpt lat="47.43923" lon="6.65365">
        <ele>320</ele>
        <time>2015-07-08T08:54:21.000Z</time>
      </trkpt>
      <trkpt lat="47.43917" lon="6.65373">
        <ele>320</ele>
        <time>2015-07-08T08:54:22.000Z</time>
      </trkpt>
      <trkpt lat="47.43912" lon="6.6538">
        <ele>320</ele>
        <time>2015-07-08T08:54:23.000Z</time>
      </trkpt>
      <trkpt lat="47.43908" lon="6.65388">
        <ele>320</ele>
        <time>2015-07-08T08:54:24.000Z</time>
      </trkpt>
      <trkpt lat="47.43903" lon="6.65395">
        <ele>320</ele>
        <time>2015-07-08T08:54:25.000Z</time>
      </trkpt>
      <trkpt lat="47.43899" lon="6.65401">
        <ele>320</ele>
        <time>2015-07-08T08:54:26.000Z</time>
      </trkpt>
      <trkpt lat="47.43895" lon="6.65408">
        <ele>320</ele>
        <time>2015-07-08T08:54:27.000Z</time>
      </trkpt>
      <trkpt lat="47.4389" lon="6.65415">
        <ele>320</ele>
        <time>2015-07-08T08:54:28.000Z</time>
      </trkpt>
      <trkpt lat="47.43886" lon="6.65421">
        <ele>320</ele>
        <time>2015-07-08T08:54:29.000Z</time>
      </trkpt>
      <trkpt lat="47.43881" lon="6.65428">
        <ele>320</ele>
        <time>2015-07-08T08:54:30.000Z</time>
      </trkpt>
      <trkpt lat="47.43877" lon="6.65436">
        <ele>320</ele>
        <time>2015-07-08T08:54:31.000Z</time>
      </trkpt>
      <trkpt lat="47.43872" lon="6.65443">
        <ele>319</ele>
        <time>2015-07-08T08:54:32.000Z</time>
      </trkpt>
      <trkpt lat="47.43867" lon="6.65451">
        <ele>319</ele>
        <time>2015-07-08T08:54:33.000Z</time>
      </trkpt>
      <trkpt lat="47.43862" lon="6.65459">
        <ele>319</ele>
        <time>2015-07-08T08:54:34.000Z</time>
      </trkpt>
      <trkpt lat="47.43857" lon="6.65467">
        <ele>319</ele>
        <time>2015-07-08T08:54:35.000Z</time>
      </trkpt>
      <trkpt lat="47.43852" lon="6.65475">
        <ele>319</ele>
        <time>2015-07-08T08:54:36.000Z</time>
      </trkpt>
      <trkpt lat="47.43848" lon="6.65483">
        <ele>319</ele>
        <time>2015-07-08T08:54:37.000Z</time>
      </trkpt>
      <trkpt lat="47.43843" lon="6.65491">
        <ele>320</ele>
        <time>2015-07-08T08:54:38.000Z</time>
      </trkpt>
      <trkpt lat="47.43838" lon="6.65499">
        <ele>320</ele>
        <time>2015-07-08T08:54:39.000Z</time>
      </trkpt>
      <trkpt lat="47.43833" lon="6.65506">
        <ele>320</ele>
        <time>2015-07-08T08:54:40.000Z</time>
      </trkpt>
      <trkpt lat="47.43829" lon="6.65514">
        <ele>320</ele>
        <time>2015-07-08T08:54:41.000Z</time>
      </trkpt>
      <trkpt lat="47.43824" lon="6.65521">
        <ele>320</ele>
        <time>2015-07-08T08:54:42.000Z</time>
      </trkpt>
      <trkpt lat="47.43821" lon="6.65528">
        <ele>320</ele>
        <time>2015-07-08T08:54:43.000Z</time>
      </trkpt>
      <trkpt lat="47.43817" lon="6.65535">
        <ele>320</ele>
        <time>2015-07-08T08:54:44.000Z</time>
      </trkpt>
      <trkpt lat="47.43813" lon="6.65541">
        <ele>320</ele>
        <time>2015-07-08T08:54:45.000Z</time>
      </trkpt>
      <trkpt lat="47.4381" lon="6.65548">
        <ele>320</ele>
        <time>2015-07-08T08:54:46.000Z</time>
      </trkpt>
      <trkpt lat="47.43806" lon="6.65554">
        <ele>320</ele>
        <time>2015-07-08T08:54:47.000Z</time>
      </trkpt>
      <trkpt lat="47.43803" lon="6.6556">
        <ele>320</ele>
        <time>2015-07-08T08:54:48.000Z</time>
      </trkpt>
      <trkpt lat="47.438" lon="6.65566">
        <ele>320</ele>
        <time>2015-07-08T08:54:49.000Z</time>
      </trkpt>
      <trkpt lat="47.43797" lon="6.65571">
        <ele>320</ele>
        <time>2015-07-08T08:54:50.000Z</time>
      </trkpt>
      <trkpt lat="47.43795" lon="6.65577">
        <ele>320</ele>
        <time>2015-07-08T08:54:51.000Z</time>
      </trkpt>
      <trkpt lat="47.43792" lon="6.65582">
        <ele>320</ele>
        <time>2015-07-08T08:54:52.000Z</time>
      </trkpt>
      <trkpt lat="47.43789" lon="6.65587">
        <ele>320</ele>
        <time>2015-07-08T08:54:53.000Z</time>
      </trkpt>
      <trkpt lat="47.43786" lon="6.65592">
        <ele>320</ele>
        <time>2015-07-08T08:54:54.000Z</time>
      </trkpt>
      <trkpt lat="47.43784" lon="6.65597">
        <ele>321</ele>
        <time>2015-07-08T08:54:55.000Z</time>
      </trkpt>
      <trkpt lat="47.43781" lon="6.65602">
        <ele>321</ele>
        <time>2015-07-08T08:54:56.000Z</time>
      </trkpt>
      <trkpt lat="47.43778" lon="6.65608">
        <ele>321</ele>
        <time>2015-07-08T08:54:57.000Z</time>
      </trkpt>
      <trkpt lat="47.43775" lon="6.65613">
        <ele>321</ele>
        <time>2015-07-08T08:54:58.000Z</time>
      </trkpt>
      <trkpt lat="47.43772" lon="6.65619">
        <ele>321</ele>
        <time>2015-07-08T08:54:59.000Z</time>
      </trkpt>
      <trkpt lat="47.43769" lon="6.65624">
        <ele>321</ele>
        <time>2015-07-08T08:55:00.000Z</time>
      </trkpt>
      <trkpt lat="47.43767" lon="6.6563">
        <ele>321</ele>
        <time>2015-07-08T08:55:01.000Z</time>
      </trkpt>
      <trkpt lat="47.43764" lon="6.65635">
        <ele>321</ele>
        <time>2015-07-08T08:55:02.000Z</time>
      </trkpt>
      <trkpt lat="47.43761" lon="6.65641">
        <ele>321</ele>
        <time>2015-07-08T08:55:03.000Z</time>
      </trkpt>
      <trkpt lat="47.43758" lon="6.65646">
        <ele>321</ele>
        <time>2015-07-08T08:55:04.000Z</time>
      </trkpt>
      <trkpt lat="47.43756" lon="6.65652">
        <ele>321</ele>
        <time>2015-07-08T08:55:05.000Z</time>
      </trkpt>
      <trkpt lat="47.43753" lon="6.65657">
        <ele>321</ele>
        <time>2015-07-08T08:55:06.000Z</time>
      </trkpt>
      <trkpt lat="47.4375" lon="6.65662">
        <ele>320</ele>
        <time>2015-07-08T08:55:07.000Z</time>
      </trkpt>
      <trkpt lat="47.43747" lon="6.65668">
        <ele>320</ele>
        <time>2015-07-08T08:55:08.000Z</time>
      </trkpt>
      <trkpt lat="47.43744" lon="6.65674">
        <ele>320</ele>
        <time>2015-07-08T08:55:09.000Z</time>
      </trkpt>
      <trkpt lat="47.43741" lon="6.65679">
        <ele>320</ele>
        <time>2015-07-08T08:55:10.000Z</time>
      </trkpt>
      <trkpt lat="47.43738" lon="6.65685">
        <ele>320</ele>
        <time>2015-07-08T08:55:11.000Z</time>
      </trkpt>
      <trkpt lat="47.43736" lon="6.65691">
        <ele>320</ele>
        <time>2015-07-08T08:55:12.000Z</time>
      </trkpt>
      <trkpt lat="47.43733" lon="6.65696">
        <ele>320</ele>
        <time>2015-07-08T08:55:13.000Z</time>
      </trkpt>
      <trkpt lat="47.4373" lon="6.65702">
        <ele>321</ele>
        <time>2015-07-08T08:55:14.000Z</time>
      </trkpt>
      <trkpt lat="47.43727" lon="6.65708">
        <ele>321</ele>
        <time>2015-07-08T08:55:15.000Z</time>
      </trkpt>
      <trkpt lat="47.43724" lon="6.65713">
        <ele>321</ele>
        <time>2015-07-08T08:55:16.000Z</time>
      </trkpt>
      <trkpt lat="47.43722" lon="6.65719">
        <ele>321</ele>
        <time>2015-07-08T08:55:17.000Z</time>
      </trkpt>
      <trkpt lat="47.43719" lon="6.65724">
        <ele>321</ele>
        <time>2015-07-08T08:55:18.000Z</time>
      </trkpt>
      <trkpt lat="47.43716" lon="6.65729">
        <ele>321</ele>
        <time>2015-07-08T08:55:19.000Z</time>
      </trkpt>
      <trkpt lat="47.43713" lon="6.65735">
        <ele>321</ele>
        <time>2015-07-08T08:55:20.000Z</time>
      </trkpt>
      <trkpt lat="47.4371" lon="6.6574">
        <ele>322</ele>
        <time>2015-07-08T08:55:21.000Z</time>
      </trkpt>
      <trkpt lat="47.43707" lon="6.65746">
        <ele>322</ele>
        <time>2015-07-08T08:55:22.000Z</time>
      </trkpt>
      <trkpt lat="47.43704" lon="6.65751">
        <ele>322</ele>
        <time>2015-07-08T08:55:23.000Z</time>
      </trkpt>
      <trkpt lat="47.43701" lon="6.65757">
        <ele>322</ele>
        <time>2015-07-08T08:55:24.000Z</time>
      </trkpt>
      <trkpt lat="47.43698" lon="6.65763">
        <ele>322</ele>
        <time>2015-07-08T08:55:25.000Z</time>
      </trkpt>
      <trkpt lat="47.43696" lon="6.65768">
        <ele>323</ele>
        <time>2015-07-08T08:55:26.000Z</time>
      </trkpt>
      <trkpt lat="47.43693" lon="6.65774">
        <ele>323</ele>
        <time>2015-07-08T08:55:27.000Z</time>
      </trkpt>
      <trkpt lat="47.4369" lon="6.65779">
        <ele>323</ele>
        <time>2015-07-08T08:55:28.000Z</time>
      </trkpt>
      <trkpt lat="47.43688" lon="6.65784">
        <ele>323</ele>
        <time>2015-07-08T08:55:29.000Z</time>
      </trkpt>
      <trkpt lat="47.43685" lon="6.65788">
        <ele>323</ele>
        <time>2015-07-08T08:55:30.000Z</time>
      </trkpt>
      <trkpt lat="47.43682" lon="6.65792">
        <ele>323</ele>
        <time>2015-07-08T08:55:31.000Z</time>
      </trkpt>
      <trkpt lat="47.43681" lon="6.65796">
        <ele>324</ele>
        <time>2015-07-08T08:55:32.000Z</time>
      </trkpt>
      <trkpt lat="47.43681" lon="6.65799">
        <ele>324</ele>
        <time>2015-07-08T08:55:33.000Z</time>
      </trkpt>
      <trkpt lat="47.43681" lon="6.658">
        <ele>324</ele>
        <time>2015-07-08T08:55:34.000Z</time>
      </trkpt>
      <trkpt lat="47.43682" lon="6.658">
        <ele>324</ele>
        <time>2015-07-08T08:55:35.000Z</time>
      </trkpt>
      <trkpt lat="47.43684" lon="6.65798">
        <ele>323</ele>
        <time>2015-07-08T08:55:36.000Z</time>
      </trkpt>
      <trkpt lat="47.43685" lon="6.65796">
        <ele>323</ele>
        <time>2015-07-08T08:55:37.000Z</time>
      </trkpt>
      <trkpt lat="47.43687" lon="6.65793">
        <ele>323</ele>
        <time>2015-07-08T08:55:38.000Z</time>
      </trkpt>
      <trkpt lat="47.43688" lon="6.65791">
        <ele>323</ele>
        <time>2015-07-08T08:55:39.000Z</time>
      </trkpt>
      <trkpt lat="47.4369" lon="6.65788">
        <ele>322</ele>
        <time>2015-07-08T08:55:40.000Z</time>
      </trkpt>
      <trkpt lat="47.43691" lon="6.65786">
        <ele>322</ele>
        <time>2015-07-08T08:55:41.000Z</time>
      </trkpt>
      <trkpt lat="47.43693" lon="6.65783">
        <ele>322</ele>
        <time>2015-07-08T08:55:42.000Z</time>
      </trkpt>
      <trkpt lat="47.43694" lon="6.6578">
        <ele>322</ele>
        <time>2015-07-08T08:55:43.000Z</time>
      </trkpt>
      <trkpt lat="47.43696" lon="6.65778">
        <ele>321</ele>
        <time>2015-07-08T08:55:44.000Z</time>
      </trkpt>
      <trkpt lat="47.43697" lon="6.65775">
        <ele>321</ele>
        <time>2015-07-08T08:55:45.000Z</time>
      </trkpt>
      <trkpt lat="47.43698" lon="6.65773">
        <ele>321</ele>
        <time>2015-07-08T08:55:46.000Z</time>
      </trkpt>
      <trkpt lat="47.437" lon="6.6577">
        <ele>321</ele>
        <time>2015-07-08T08:55:47.000Z</time>
      </trkpt>
      <trkpt lat="47.43701" lon="6.65768">
        <ele>321</ele>
        <time>2015-07-08T08:55:48.000Z</time>
      </trkpt>
      <trkpt lat="47.43702" lon="6.65766">
        <ele>321</ele>
        <time>2015-07-08T08:55:49.000Z</time>
      </trkpt>
      <trkpt lat="47.43703" lon="6.65764">
        <ele>321</ele>
        <time>2015-07-08T08:55:50.000Z</time>
      </trkpt>
      <trkpt lat="47.43704" lon="6.65762">
        <ele>320</ele>
        <time>2015-07-08T08:55:51.000Z</time>
      </trkpt>
      <trkpt lat="47.43705" lon="6.65761">
        <ele>320</ele>
        <time>2015-07-08T08:55:52.000Z</time>
      </trkpt>
      <trkpt lat="47.43706" lon="6.65759">
        <ele>320</ele>
        <time>2015-07-08T08:55:53.000Z</time>
      </trkpt>
      <trkpt lat="47.43707" lon="6.65757">
        <ele>320</ele>
        <time>2015-07-08T08:55:54.000Z</time>
      </trkpt>
      <trkpt lat="47.43708" lon="6.65755">
        <ele>320</ele>
        <time>2015-07-08T08:55:55.000Z</time>
      </trkpt>
      <trkpt lat="47.43709" lon="6.65754">
        <ele>320</ele>
        <time>2015-07-08T08:55:56.000Z</time>
      </trkpt>
      <trkpt lat="47.4371" lon="6.65752">
        <ele>320</ele>
        <time>2015-07-08T08:55:57.000Z</time>
      </trkpt>
      <trkpt lat="47.43709" lon="6.6575">
        <ele>320</ele>
        <time>2015-07-08T08:55:58.000Z</time>
      </trkpt>
      <trkpt lat="47.43708" lon="6.65749">
        <ele>320</ele>
        <time>2015-07-08T08:55:59.000Z</time>
      </trkpt>
      <trkpt lat="47.43707" lon="6.6575">
        <ele>320</ele>
        <time>2015-07-08T08:56:00.000Z</time>
      </trkpt>
      <trkpt lat="47.43706" lon="6.65753">
        <ele>320</ele>
        <time>2015-07-08T08:56:01.000Z</time>
      </trkpt>
      <trkpt lat="47.43705" lon="6.65757">
        <ele>320</ele>
        <time>2015-07-08T08:56:02.000Z</time>
      </trkpt>
      <trkpt lat="47.43703" lon="6.65761">
        <ele>320</ele>
        <time>2015-07-08T08:56:03.000Z</time>
      </trkpt>
      <trkpt lat="47.43702" lon="6.65765">
        <ele>320</ele>
        <time>2015-07-08T08:56:04.000Z</time>
      </trkpt>
      <trkpt lat="47.43699" lon="6.65769">
        <ele>320</ele>
        <time>2015-07-08T08:56:05.000Z</time>
      </trkpt>
      <trkpt lat="47.43697" lon="6.65773">
        <ele>320</ele>
        <time>2015-07-08T08:56:06.000Z</time>
      </trkpt>
      <trkpt lat="47.43695" lon="6.65777">
        <ele>320</ele>
        <time>2015-07-08T08:56:07.000Z</time>
      </trkpt>
      <trkpt lat="47.43693" lon="6.65781">
        <ele>319</ele>
        <time>2015-07-08T08:56:08.000Z</time>
      </trkpt>
      <trkpt lat="47.4369" lon="6.65786">
        <ele>319</ele>
        <time>2015-07-08T08:56:09.000Z</time>
      </trkpt>
      <trkpt lat="47.43688" lon="6.6579">
        <ele>319</ele>
        <time>2015-07-08T08:56:10.000Z</time>
      </trkpt>
      <trkpt lat="47.43686" lon="6.65795">
        <ele>319</ele>
        <time>2015-07-08T08:56:11.000Z</time>
      </trkpt>
      <trkpt lat="47.43684" lon="6.658">
        <ele>320</ele>
        <time>2015-07-08T08:56:12.000Z</time>
      </trkpt>
      <trkpt lat="47.43681" lon="6.65804">
        <ele>320</ele>
        <time>2015-07-08T08:56:13.000Z</time>
      </trkpt>
      <trkpt lat="47.43679" lon="6.65809">
        <ele>320</ele>
        <time>2015-07-08T08:56:14.000Z</time>
      </trkpt>
      <trkpt lat="47.43676" lon="6.65814">
        <ele>320</ele>
        <time>2015-07-08T08:56:15.000Z</time>
      </trkpt>
      <trkpt lat="47.43673" lon="6.6582">
        <ele>320</ele>
        <time>2015-07-08T08:56:16.000Z</time>
      </trkpt>
      <trkpt lat="47.4367" lon="6.65825">
        <ele>320</ele>
        <time>2015-07-08T08:56:17.000Z</time>
      </trkpt>
      <trkpt lat="47.43668" lon="6.6583">
        <ele>320</ele>
        <time>2015-07-08T08:56:18.000Z</time>
      </trkpt>
      <trkpt lat="47.43665" lon="6.65836">
        <ele>320</ele>
        <time>2015-07-08T08:56:19.000Z</time>
      </trkpt>
      <trkpt lat="47.43662" lon="6.65842">
        <ele>320</ele>
        <time>2015-07-08T08:56:20.000Z</time>
      </trkpt>
      <trkpt lat="47.43658" lon="6.65848">
        <ele>320</ele>
        <time>2015-07-08T08:56:21.000Z</time>
      </trkpt>
      <trkpt lat="47.43655" lon="6.65855">
        <ele>321</ele>
        <time>2015-07-08T08:56:22.000Z</time>
      </trkpt>
      <trkpt lat="47.43651" lon="6.65862">
        <ele>321</ele>
        <time>2015-07-08T08:56:23.000Z</time>
      </trkpt>
      <trkpt lat="47.43647" lon="6.65868">
        <ele>321</ele>
        <time>2015-07-08T08:56:24.000Z</time>
      </trkpt>
      <trkpt lat="47.43643" lon="6.65875">
        <ele>321</ele>
        <time>2015-07-08T08:56:25.000Z</time>
      </trkpt>
      <trkpt lat="47.43639" lon="6.65882">
        <ele>321</ele>
        <time>2015-07-08T08:56:26.000Z</time>
      </trkpt>
      <trkpt lat="47.43635" lon="6.65889">
        <ele>321</ele>
        <time>2015-07-08T08:56:27.000Z</time>
      </trkpt>
      <trkpt lat="47.43632" lon="6.65897">
        <ele>321</ele>
        <time>2015-07-08T08:56:28.000Z</time>
      </trkpt>
      <trkpt lat="47.43628" lon="6.65904">
        <ele>321</ele>
        <time>2015-07-08T08:56:29.000Z</time>
      </trkpt>
      <trkpt lat="47.43624" lon="6.65912">
        <ele>321</ele>
        <time>2015-07-08T08:56:30.000Z</time>
      </trkpt>
      <trkpt lat="47.43621" lon="6.65919">
        <ele>321</ele>
        <time>2015-07-08T08:56:31.000Z</time>
      </trkpt>
      <trkpt lat="47.43617" lon="6.65926">
        <ele>321</ele>
        <time>2015-07-08T08:56:32.000Z</time>
      </trkpt>
      <trkpt lat="47.43614" lon="6.65934">
        <ele>321</ele>
        <time>2015-07-08T08:56:33.000Z</time>
      </trkpt>
      <trkpt lat="47.4361" lon="6.65941">
        <ele>321</ele>
        <time>2015-07-08T08:56:34.000Z</time>
      </trkpt>
      <trkpt lat="47.43607" lon="6.65948">
        <ele>321</ele>
        <time>2015-07-08T08:56:35.000Z</time>
      </trkpt>
      <trkpt lat="47.43603" lon="6.65955">
        <ele>321</ele>
        <time>2015-07-08T08:56:36.000Z</time>
      </trkpt>
      <trkpt lat="47.436" lon="6.65963">
        <ele>321</ele>
        <time>2015-07-08T08:56:37.000Z</time>
      </trkpt>
      <trkpt lat="47.43596" lon="6.6597">
        <ele>321</ele>
        <time>2015-07-08T08:56:38.000Z</time>
      </trkpt>
      <trkpt lat="47.43593" lon="6.65977">
        <ele>321</ele>
        <time>2015-07-08T08:56:39.000Z</time>
      </trkpt>
      <trkpt lat="47.43589" lon="6.65984">
        <ele>321</ele>
        <time>2015-07-08T08:56:40.000Z</time>
      </trkpt>
      <trkpt lat="47.43586" lon="6.65991">
        <ele>321</ele>
        <time>2015-07-08T08:56:41.000Z</time>
      </trkpt>
      <trkpt lat="47.43582" lon="6.65998">
        <ele>321</ele>
        <time>2015-07-08T08:56:42.000Z</time>
      </trkpt>
      <trkpt lat="47.43579" lon="6.66005">
        <ele>321</ele>
        <time>2015-07-08T08:56:43.000Z</time>
      </trkpt>
      <trkpt lat="47.43575" lon="6.66012">
        <ele>321</ele>
        <time>2015-07-08T08:56:44.000Z</time>
      </trkpt>
      <trkpt lat="47.43571" lon="6.66019">
        <ele>321</ele>
        <time>2015-07-08T08:56:45.000Z</time>
      </trkpt>
      <trkpt lat="47.43568" lon="6.66026">
        <ele>322</ele>
        <time>2015-07-08T08:56:46.000Z</time>
      </trkpt>
      <trkpt lat="47.43564" lon="6.66033">
        <ele>322</ele>
        <time>2015-07-08T08:56:47.000Z</time>
      </trkpt>
      <trkpt lat="47.4356" lon="6.6604">
        <ele>322</ele>
        <time>2015-07-08T08:56:48.000Z</time>
      </trkpt>
      <trkpt lat="47.43557" lon="6.66047">
        <ele>322</ele>
        <time>2015-07-08T08:56:49.000Z</time>
      </trkpt>
      <trkpt lat="47.43553" lon="6.66054">
        <ele>323</ele>
        <time>2015-07-08T08:56:50.000Z</time>
      </trkpt>
      <trkpt lat="47.43549" lon="6.66061">
        <ele>323</ele>
        <time>2015-07-08T08:56:51.000Z</time>
      </trkpt>
      <trkpt lat="47.43546" lon="6.66068">
        <ele>323</ele>
        <time>2015-07-08T08:56:52.000Z</time>
      </trkpt>
      <trkpt lat="47.43542" lon="6.66075">
        <ele>323</ele>
        <time>2015-07-08T08:56:53.000Z</time>
      </trkpt>
      <trkpt lat="47.43538" lon="6.66083">
        <ele>323</ele>
        <time>2015-07-08T08:56:54.000Z</time>
      </trkpt>
      <trkpt lat="47.43535" lon="6.6609">
        <ele>324</ele>
        <time>2015-07-08T08:56:55.000Z</time>
      </trkpt>
      <trkpt lat="47.43531" lon="6.66097">
        <ele>324</ele>
        <time>2015-07-08T08:56:56.000Z</time>
      </trkpt>
      <trkpt lat="47.43527" lon="6.66105">
        <ele>324</ele>
        <time>2015-07-08T08:56:57.000Z</time>
      </trkpt>
      <trkpt lat="47.43524" lon="6.66112">
        <ele>324</ele>
        <time>2015-07-08T08:56:58.000Z</time>
      </trkpt>
      <trkpt lat="47.4352" lon="6.66119">
        <ele>324</ele>
        <time>2015-07-08T08:56:59.000Z</time>
      </trkpt>
      <trkpt lat="47.43516" lon="6.66126">
        <ele>325</ele>
        <time>2015-07-08T08:57:00.000Z</time>
      </trkpt>
      <trkpt lat="47.43513" lon="6.66133">
        <ele>325</ele>
        <time>2015-07-08T08:57:01.000Z</time>
      </trkpt>
      <trkpt lat="47.43509" lon="6.6614">
        <ele>325</ele>
        <time>2015-07-08T08:57:02.000Z</time>
      </trkpt>
      <trkpt lat="47.43506" lon="6.66148">
        <ele>325</ele>
        <time>2015-07-08T08:57:03.000Z</time>
      </trkpt>
      <trkpt lat="47.43502" lon="6.66155">
        <ele>325</ele>
        <time>2015-07-08T08:57:04.000Z</time>
      </trkpt>
      <trkpt lat="47.43498" lon="6.66161">
        <ele>325</ele>
        <time>2015-07-08T08:57:05.000Z</time>
      </trkpt>
      <trkpt lat="47.43495" lon="6.66168">
        <ele>325</ele>
        <time>2015-07-08T08:57:06.000Z</time>
      </trkpt>
      <trkpt lat="47.43491" lon="6.66175">
        <ele>325</ele>
        <time>2015-07-08T08:57:07.000Z</time>
      </trkpt>
      <trkpt lat="47.43487" lon="6.66182">
        <ele>325</ele>
        <time>2015-07-08T08:57:08.000Z</time>
      </trkpt>
      <trkpt lat="47.43483" lon="6.66189">
        <ele>325</ele>
        <time>2015-07-08T08:57:09.000Z</time>
      </trkpt>
      <trkpt lat="47.43479" lon="6.66195">
        <ele>325</ele>
        <time>2015-07-08T08:57:10.000Z</time>
      </trkpt>
      <trkpt lat="47.43474" lon="6.66202">
        <ele>325</ele>
        <time>2015-07-08T08:57:11.000Z</time>
      </trkpt>
      <trkpt lat="47.4347" lon="6.66209">
        <ele>325</ele>
        <time>2015-07-08T08:57:12.000Z</time>
      </trkpt>
      <trkpt lat="47.43466" lon="6.66215">
        <ele>325</ele>
        <time>2015-07-08T08:57:13.000Z</time>
      </trkpt>
      <trkpt lat="47.43462" lon="6.66222">
        <ele>325</ele>
        <time>2015-07-08T08:57:14.000Z</time>
      </trkpt>
      <trkpt lat="47.43457" lon="6.66229">
        <ele>325</ele>
        <time>2015-07-08T08:57:15.000Z</time>
      </trkpt>
      <trkpt lat="47.43453" lon="6.66235">
        <ele>325</ele>
        <time>2015-07-08T08:57:16.000Z</time>
      </trkpt>
      <trkpt lat="47.43448" lon="6.66242">
        <ele>325</ele>
        <time>2015-07-08T08:57:17.000Z</time>
      </trkpt>
      <trkpt lat="47.43443" lon="6.66249">
        <ele>325</ele>
        <time>2015-07-08T08:57:18.000Z</time>
      </trkpt>
      <trkpt lat="47.43439" lon="6.66255">
        <ele>325</ele>
        <time>2015-07-08T08:57:19.000Z</time>
      </trkpt>
      <trkpt lat="47.43434" lon="6.66262">
        <ele>325</ele>
        <time>2015-07-08T08:57:20.000Z</time>
      </trkpt>
      <trkpt lat="47.43428" lon="6.66268">
        <ele>325</ele>
        <time>2015-07-08T08:57:21.000Z</time>
      </trkpt>
      <trkpt lat="47.43423" lon="6.66274">
        <ele>325</ele>
        <time>2015-07-08T08:57:22.000Z</time>
      </trkpt>
      <trkpt lat="47.43417" lon="6.66281">
        <ele>325</ele>
        <time>2015-07-08T08:57:23.000Z</time>
      </trkpt>
      <trkpt lat="47.43412" lon="6.66287">
        <ele>325</ele>
        <time>2015-07-08T08:57:24.000Z</time>
      </trkpt>
      <trkpt lat="47.43406" lon="6.66293">
        <ele>325</ele>
        <time>2015-07-08T08:57:25.000Z</time>
      </trkpt>
      <trkpt lat="47.434" lon="6.66299">
        <ele>325</ele>
        <time>2015-07-08T08:57:26.000Z</time>
      </trkpt>
      <trkpt lat="47.43393" lon="6.66305">
        <ele>325</ele>
        <time>2015-07-08T08:57:27.000Z</time>
      </trkpt>
      <trkpt lat="47.43387" lon="6.66311">
        <ele>325</ele>
        <time>2015-07-08T08:57:28.000Z</time>
      </trkpt>
      <trkpt lat="47.43381" lon="6.66316">
        <ele>325</ele>
        <time>2015-07-08T08:57:29.000Z</time>
      </trkpt>
      <trkpt lat="47.43374" lon="6.66322">
        <ele>325</ele>
        <time>2015-07-08T08:57:30.000Z</time>
      </trkpt>
      <trkpt lat="47.43368" lon="6.66327">
        <ele>325</ele>
        <time>2015-07-08T08:57:31.000Z</time>
      </trkpt>
      <trkpt lat="47.43361" lon="6.66332">
        <ele>325</ele>
        <time>2015-07-08T08:57:32.000Z</time>
      </trkpt>
      <trkpt lat="47.43355" lon="6.66337">
        <ele>325</ele>
        <time>2015-07-08T08:57:33.000Z</time>
      </trkpt>
      <trkpt lat="47.43349" lon="6.66343">
        <ele>325</ele>
        <time>2015-07-08T08:57:34.000Z</time>
      </trkpt>
      <trkpt lat="47.43343" lon="6.66348">
        <ele>325</ele>
        <time>2015-07-08T08:57:35.000Z</time>
      </trkpt>
      <trkpt lat="47.43337" lon="6.66353">
        <ele>325</ele>
        <time>2015-07-08T08:57:36.000Z</time>
      </trkpt>
      <trkpt lat="47.43331" lon="6.66358">
        <ele>326</ele>
        <time>2015-07-08T08:57:37.000Z</time>
      </trkpt>
      <trkpt lat="47.43325" lon="6.66364">
        <ele>326</ele>
        <time>2015-07-08T08:57:38.000Z</time>
      </trkpt>
      <trkpt lat="47.43318" lon="6.66369">
        <ele>326</ele>
        <time>2015-07-08T08:57:39.000Z</time>
      </trkpt>
      <trkpt lat="47.43312" lon="6.66374">
        <ele>326</ele>
        <time>2015-07-08T08:57:40.000Z</time>
      </trkpt>
      <trkpt lat="47.43306" lon="6.66379">
        <ele>326</ele>
        <time>2015-07-08T08:57:41.000Z</time>
      </trkpt>
      <trkpt lat="47.433" lon="6.66383">
        <ele>326</ele>
        <time>2015-07-08T08:57:42.000Z</time>
      </trkpt>
      <trkpt lat="47.43294" lon="6.66388">
        <ele>326</ele>
        <time>2015-07-08T08:57:43.000Z</time>
      </trkpt>
      <trkpt lat="47.43288" lon="6.66393">
        <ele>326</ele>
        <time>2015-07-08T08:57:44.000Z</time>
      </trkpt>
      <trkpt lat="47.43282" lon="6.66397">
        <ele>326</ele>
        <time>2015-07-08T08:57:45.000Z</time>
      </trkpt>
      <trkpt lat="47.43276" lon="6.66401">
        <ele>326</ele>
        <time>2015-07-08T08:57:46.000Z</time>
      </trkpt>
      <trkpt lat="47.43269" lon="6.66406">
        <ele>326</ele>
        <time>2015-07-08T08:57:47.000Z</time>
      </trkpt>
      <trkpt lat="47.43264" lon="6.6641">
        <ele>326</ele>
        <time>2015-07-08T08:57:48.000Z</time>
      </trkpt>
      <trkpt lat="47.43257" lon="6.66414">
        <ele>326</ele>
        <time>2015-07-08T08:57:49.000Z</time>
      </trkpt>
      <trkpt lat="47.43251" lon="6.66417">
        <ele>326</ele>
        <time>2015-07-08T08:57:50.000Z</time>
      </trkpt>
      <trkpt lat="47.43245" lon="6.66421">
        <ele>327</ele>
        <time>2015-07-08T08:57:51.000Z</time>
      </trkpt>
      <trkpt lat="47.43239" lon="6.66424">
        <ele>327</ele>
        <time>2015-07-08T08:57:52.000Z</time>
      </trkpt>
      <trkpt lat="47.43233" lon="6.66427">
        <ele>327</ele>
        <time>2015-07-08T08:57:53.000Z</time>
      </trkpt>
      <trkpt lat="47.43226" lon="6.6643">
        <ele>327</ele>
        <time>2015-07-08T08:57:54.000Z</time>
      </trkpt>
      <trkpt lat="47.4322" lon="6.66433">
        <ele>327</ele>
        <time>2015-07-08T08:57:55.000Z</time>
      </trkpt>
      <trkpt lat="47.43214" lon="6.66436">
        <ele>327</ele>
        <time>2015-07-08T08:57:56.000Z</time>
      </trkpt>
      <trkpt lat="47.43207" lon="6.66439">
        <ele>327</ele>
        <time>2015-07-08T08:57:57.000Z</time>
      </trkpt>
      <trkpt lat="47.43201" lon="6.66441">
        <ele>327</ele>
        <time>2015-07-08T08:57:58.000Z</time>
      </trkpt>
      <trkpt lat="47.43195" lon="6.66444">
        <ele>327</ele>
        <time>2015-07-08T08:57:59.000Z</time>
      </trkpt>
      <trkpt lat="47.43189" lon="6.66447">
        <ele>327</ele>
        <time>2015-07-08T08:58:00.000Z</time>
      </trkpt>
      <trkpt lat="47.43183" lon="6.6645">
        <ele>327</ele>
        <time>2015-07-08T08:58:01.000Z</time>
      </trkpt>
      <trkpt lat="47.43177" lon="6.66452">
        <ele>327</ele>
        <time>2015-07-08T08:58:02.000Z</time>
      </trkpt>
      <trkpt lat="47.43171" lon="6.66455">
        <ele>328</ele>
        <time>2015-07-08T08:58:03.000Z</time>
      </trkpt>
      <trkpt lat="47.43165" lon="6.66458">
        <ele>328</ele>
        <time>2015-07-08T08:58:04.000Z</time>
      </trkpt>
      <trkpt lat="47.43159" lon="6.6646">
        <ele>328</ele>
        <time>2015-07-08T08:58:05.000Z</time>
      </trkpt>
      <trkpt lat="47.43153" lon="6.66463">
        <ele>328</ele>
        <time>2015-07-08T08:58:06.000Z</time>
      </trkpt>
      <trkpt lat="47.43148" lon="6.66465">
        <ele>328</ele>
        <time>2015-07-08T08:58:07.000Z</time>
      </trkpt>
      <trkpt lat="47.43142" lon="6.66468">
        <ele>328</ele>
        <time>2015-07-08T08:58:08.000Z</time>
      </trkpt>
      <trkpt lat="47.43137" lon="6.6647">
        <ele>328</ele>
        <time>2015-07-08T08:58:09.000Z</time>
      </trkpt>
      <trkpt lat="47.43131" lon="6.66473">
        <ele>328</ele>
        <time>2015-07-08T08:58:10.000Z</time>
      </trkpt>
      <trkpt lat="47.43125" lon="6.66476">
        <ele>328</ele>
        <time>2015-07-08T08:58:11.000Z</time>
      </trkpt>
      <trkpt lat="47.4312" lon="6.66478">
        <ele>328</ele>
        <time>2015-07-08T08:58:12.000Z</time>
      </trkpt>
      <trkpt lat="47.43114" lon="6.66481">
        <ele>328</ele>
        <time>2015-07-08T08:58:13.000Z</time>
      </trkpt>
      <trkpt lat="47.43109" lon="6.66483">
        <ele>328</ele>
        <time>2015-07-08T08:58:14.000Z</time>
      </trkpt>
      <trkpt lat="47.43104" lon="6.66486">
        <ele>329</ele>
        <time>2015-07-08T08:58:15.000Z</time>
      </trkpt>
      <trkpt lat="47.43099" lon="6.66488">
        <ele>329</ele>
        <time>2015-07-08T08:58:16.000Z</time>
      </trkpt>
      <trkpt lat="47.43095" lon="6.6649">
        <ele>329</ele>
        <time>2015-07-08T08:58:17.000Z</time>
      </trkpt>
      <trkpt lat="47.43091" lon="6.66492">
        <ele>329</ele>
        <time>2015-07-08T08:58:18.000Z</time>
      </trkpt>
      <trkpt lat="47.43086" lon="6.66494">
        <ele>329</ele>
        <time>2015-07-08T08:58:19.000Z</time>
      </trkpt>
      <trkpt lat="47.43081" lon="6.66497">
        <ele>330</ele>
        <time>2015-07-08T08:58:20.000Z</time>
      </trkpt>
      <trkpt lat="47.43076" lon="6.66499">
        <ele>330</ele>
        <time>2015-07-08T08:58:21.000Z</time>
      </trkpt>
      <trkpt lat="47.43071" lon="6.66501">
        <ele>330</ele>
        <time>2015-07-08T08:58:22.000Z</time>
      </trkpt>
      <trkpt lat="47.43066" lon="6.66503">
        <ele>330</ele>
        <time>2015-07-08T08:58:23.000Z</time>
      </trkpt>
      <trkpt lat="47.43061" lon="6.66505">
        <ele>331</ele>
        <time>2015-07-08T08:58:24.000Z</time>
      </trkpt>
      <trkpt lat="47.43056" lon="6.66507">
        <ele>331</ele>
        <time>2015-07-08T08:58:25.000Z</time>
      </trkpt>
      <trkpt lat="47.43051" lon="6.66509">
        <ele>331</ele>
        <time>2015-07-08T08:58:26.000Z</time>
      </trkpt>
      <trkpt lat="47.43045" lon="6.66511">
        <ele>331</ele>
        <time>2015-07-08T08:58:27.000Z</time>
      </trkpt>
      <trkpt lat="47.4304" lon="6.66513">
        <ele>331</ele>
        <time>2015-07-08T08:58:28.000Z</time>
      </trkpt>
      <trkpt lat="47.43035" lon="6.66516">
        <ele>331</ele>
        <time>2015-07-08T08:58:29.000Z</time>
      </trkpt>
      <trkpt lat="47.43029" lon="6.66518">
        <ele>332</ele>
        <time>2015-07-08T08:58:30.000Z</time>
      </trkpt>
      <trkpt lat="47.43024" lon="6.6652">
        <ele>332</ele>
        <time>2015-07-08T08:58:31.000Z</time>
      </trkpt>
      <trkpt lat="47.43018" lon="6.66523">
        <ele>332</ele>
        <time>2015-07-08T08:58:32.000Z</time>
      </trkpt>
      <trkpt lat="47.43012" lon="6.66525">
        <ele>332</ele>
        <time>2015-07-08T08:58:33.000Z</time>
      </trkpt>
      <trkpt lat="47.43007" lon="6.66528">
        <ele>332</ele>
        <time>2015-07-08T08:58:34.000Z</time>
      </trkpt>
      <trkpt lat="47.43001" lon="6.6653">
        <ele>333</ele>
        <time>2015-07-08T08:58:35.000Z</time>
      </trkpt>
      <trkpt lat="47.42996" lon="6.66532">
        <ele>333</ele>
        <time>2015-07-08T08:58:36.000Z</time>
      </trkpt>
      <trkpt lat="47.4299" lon="6.66535">
        <ele>333</ele>
        <time>2015-07-08T08:58:37.000Z</time>
      </trkpt>
      <trkpt lat="47.42984" lon="6.66537">
        <ele>334</ele>
        <time>2015-07-08T08:58:38.000Z</time>
      </trkpt>
      <trkpt lat="47.42977" lon="6.66539">
        <ele>334</ele>
        <time>2015-07-08T08:58:39.000Z</time>
      </trkpt>
      <trkpt lat="47.42971" lon="6.66542">
        <ele>334</ele>
        <time>2015-07-08T08:58:40.000Z</time>
      </trkpt>
      <trkpt lat="47.42965" lon="6.66544">
        <ele>335</ele>
        <time>2015-07-08T08:58:41.000Z</time>
      </trkpt>
      <trkpt lat="47.42958" lon="6.66546">
        <ele>335</ele>
        <time>2015-07-08T08:58:42.000Z</time>
      </trkpt>
      <trkpt lat="47.4295" lon="6.66549">
        <ele>336</ele>
        <time>2015-07-08T08:58:43.000Z</time>
      </trkpt>
      <trkpt lat="47.42943" lon="6.66552">
        <ele>336</ele>
        <time>2015-07-08T08:58:44.000Z</time>
      </trkpt>
      <trkpt lat="47.42936" lon="6.66555">
        <ele>336</ele>
        <time>2015-07-08T08:58:45.000Z</time>
      </trkpt>
      <trkpt lat="47.42928" lon="6.66558">
        <ele>336</ele>
        <time>2015-07-08T08:58:46.000Z</time>
      </trkpt>
      <trkpt lat="47.4292" lon="6.66561">
        <ele>336</ele>
        <time>2015-07-08T08:58:47.000Z</time>
      </trkpt>
      <trkpt lat="47.42913" lon="6.66564">
        <ele>336</ele>
        <time>2015-07-08T08:58:48.000Z</time>
      </trkpt>
      <trkpt lat="47.42905" lon="6.66567">
        <ele>336</ele>
        <time>2015-07-08T08:58:49.000Z</time>
      </trkpt>
      <trkpt lat="47.42898" lon="6.66571">
        <ele>335</ele>
        <time>2015-07-08T08:58:50.000Z</time>
      </trkpt>
      <trkpt lat="47.4289" lon="6.66574">
        <ele>335</ele>
        <time>2015-07-08T08:58:51.000Z</time>
      </trkpt>
      <trkpt lat="47.42882" lon="6.66578">
        <ele>335</ele>
        <time>2015-07-08T08:58:52.000Z</time>
      </trkpt>
      <trkpt lat="47.42874" lon="6.66582">
        <ele>334</ele>
        <time>2015-07-08T08:58:53.000Z</time>
      </trkpt>
      <trkpt lat="47.42866" lon="6.66585">
        <ele>334</ele>
        <time>2015-07-08T08:58:54.000Z</time>
      </trkpt>
      <trkpt lat="47.42858" lon="6.66589">
        <ele>333</ele>
        <time>2015-07-08T08:58:55.000Z</time>
      </trkpt>
      <trkpt lat="47.4285" lon="6.66594">
        <ele>333</ele>
        <time>2015-07-08T08:58:56.000Z</time>
      </trkpt>
      <trkpt lat="47.42842" lon="6.66598">
        <ele>333</ele>
        <time>2015-07-08T08:58:57.000Z</time>
      </trkpt>
      <trkpt lat="47.42835" lon="6.66604">
        <ele>333</ele>
        <time>2015-07-08T08:58:58.000Z</time>
      </trkpt>
      <trkpt lat="47.42828" lon="6.6661">
        <ele>332</ele>
        <time>2015-07-08T08:58:59.000Z</time>
      </trkpt>
      <trkpt lat="47.42821" lon="6.66616">
        <ele>332</ele>
        <time>2015-07-08T08:59:00.000Z</time>
      </trkpt>
      <trkpt lat="47.42814" lon="6.66623">
        <ele>332</ele>
        <time>2015-07-08T08:59:01.000Z</time>
      </trkpt>
      <trkpt lat="47.42808" lon="6.6663">
        <ele>331</ele>
        <time>2015-07-08T08:59:02.000Z</time>
      </trkpt>
      <trkpt lat="47.42802" lon="6.66637">
        <ele>331</ele>
        <time>2015-07-08T08:59:03.000Z</time>
      </trkpt>
      <trkpt lat="47.42796" lon="6.66645">
        <ele>331</ele>
        <time>2015-07-08T08:59:04.000Z</time>
      </trkpt>
      <trkpt lat="47.4279" lon="6.66652">
        <ele>331</ele>
        <time>2015-07-08T08:59:05.000Z</time>
      </trkpt>
      <trkpt lat="47.42785" lon="6.6666">
        <ele>331</ele>
        <time>2015-07-08T08:59:06.000Z</time>
      </trkpt>
      <trkpt lat="47.4278" lon="6.66668">
        <ele>331</ele>
        <time>2015-07-08T08:59:07.000Z</time>
      </trkpt>
      <trkpt lat="47.42776" lon="6.66677">
        <ele>331</ele>
        <time>2015-07-08T08:59:08.000Z</time>
      </trkpt>
      <trkpt lat="47.42772" lon="6.66685">
        <ele>331</ele>
        <time>2015-07-08T08:59:09.000Z</time>
      </trkpt>
      <trkpt lat="47.42768" lon="6.66692">
        <ele>331</ele>
        <time>2015-07-08T08:59:10.000Z</time>
      </trkpt>
      <trkpt lat="47.42764" lon="6.667">
        <ele>331</ele>
        <time>2015-07-08T08:59:11.000Z</time>
      </trkpt>
      <trkpt lat="47.4276" lon="6.66709">
        <ele>331</ele>
        <time>2015-07-08T08:59:12.000Z</time>
      </trkpt>
      <trkpt lat="47.42757" lon="6.66718">
        <ele>331</ele>
        <time>2015-07-08T08:59:13.000Z</time>
      </trkpt>
      <trkpt lat="47.42754" lon="6.66728">
        <ele>331</ele>
        <time>2015-07-08T08:59:14.000Z</time>
      </trkpt>
      <trkpt lat="47.42751" lon="6.66737">
        <ele>331</ele>
        <time>2015-07-08T08:59:15.000Z</time>
      </trkpt>
      <trkpt lat="47.42748" lon="6.66747">
        <ele>331</ele>
        <time>2015-07-08T08:59:16.000Z</time>
      </trkpt>
      <trkpt lat="47.42745" lon="6.66757">
        <ele>331</ele>
        <time>2015-07-08T08:59:17.000Z</time>
      </trkpt>
      <trkpt lat="47.42743" lon="6.66767">
        <ele>331</ele>
        <time>2015-07-08T08:59:18.000Z</time>
      </trkpt>
      <trkpt lat="47.42741" lon="6.66777">
        <ele>331</ele>
        <time>2015-07-08T08:59:19.000Z</time>
      </trkpt>
      <trkpt lat="47.4274" lon="6.66788">
        <ele>331</ele>
        <time>2015-07-08T08:59:20.000Z</time>
      </trkpt>
      <trkpt lat="47.42738" lon="6.66798">
        <ele>331</ele>
        <time>2015-07-08T08:59:21.000Z</time>
      </trkpt>
      <trkpt lat="47.42736" lon="6.66809">
        <ele>331</ele>
        <time>2015-07-08T08:59:22.000Z</time>
      </trkpt>
      <trkpt lat="47.42735" lon="6.66819">
        <ele>331</ele>
        <time>2015-07-08T08:59:23.000Z</time>
      </trkpt>
      <trkpt lat="47.42734" lon="6.6683">
        <ele>331</ele>
        <time>2015-07-08T08:59:24.000Z</time>
      </trkpt>
      <trkpt lat="47.42732" lon="6.6684">
        <ele>331</ele>
        <time>2015-07-08T08:59:25.000Z</time>
      </trkpt>
      <trkpt lat="47.4273" lon="6.66851">
        <ele>331</ele>
        <time>2015-07-08T08:59:26.000Z</time>
      </trkpt>
      <trkpt lat="47.42728" lon="6.66862">
        <ele>332</ele>
        <time>2015-07-08T08:59:27.000Z</time>
      </trkpt>
      <trkpt lat="47.42727" lon="6.66873">
        <ele>332</ele>
        <time>2015-07-08T08:59:28.000Z</time>
      </trkpt>
      <trkpt lat="47.42725" lon="6.66883">
        <ele>332</ele>
        <time>2015-07-08T08:59:29.000Z</time>
      </trkpt>
      <trkpt lat="47.42724" lon="6.66893">
        <ele>332</ele>
        <time>2015-07-08T08:59:30.000Z</time>
      </trkpt>
      <trkpt lat="47.42722" lon="6.66904">
        <ele>332</ele>
        <time>2015-07-08T08:59:31.000Z</time>
      </trkpt>
      <trkpt lat="47.4272" lon="6.66914">
        <ele>332</ele>
        <time>2015-07-08T08:59:32.000Z</time>
      </trkpt>
      <trkpt lat="47.42719" lon="6.66925">
        <ele>332</ele>
        <time>2015-07-08T08:59:33.000Z</time>
      </trkpt>
      <trkpt lat="47.42717" lon="6.66935">
        <ele>332</ele>
        <time>2015-07-08T08:59:34.000Z</time>
      </trkpt>
      <trkpt lat="47.42716" lon="6.66946">
        <ele>332</ele>
        <time>2015-07-08T08:59:35.000Z</time>
      </trkpt>
      <trkpt lat="47.42714" lon="6.66956">
        <ele>333</ele>
        <time>2015-07-08T08:59:36.000Z</time>
      </trkpt>
      <trkpt lat="47.42712" lon="6.66966">
        <ele>333</ele>
        <time>2015-07-08T08:59:37.000Z</time>
      </trkpt>
      <trkpt lat="47.42711" lon="6.66976">
        <ele>333</ele>
        <time>2015-07-08T08:59:38.000Z</time>
      </trkpt>
      <trkpt lat="47.42709" lon="6.66985">
        <ele>333</ele>
        <time>2015-07-08T08:59:39.000Z</time>
      </trkpt>
      <trkpt lat="47.42706" lon="6.66995">
        <ele>333</ele>
        <time>2015-07-08T08:59:40.000Z</time>
      </trkpt>
      <trkpt lat="47.42704" lon="6.67005">
        <ele>333</ele>
        <time>2015-07-08T08:59:41.000Z</time>
      </trkpt>
      <trkpt lat="47.427" lon="6.67015">
        <ele>333</ele>
        <time>2015-07-08T08:59:42.000Z</time>
      </trkpt>
      <trkpt lat="47.42697" lon="6.67025">
        <ele>333</ele>
        <time>2015-07-08T08:59:43.000Z</time>
      </trkpt>
      <trkpt lat="47.42693" lon="6.67034">
        <ele>333</ele>
        <time>2015-07-08T08:59:44.000Z</time>
      </trkpt>
      <trkpt lat="47.42689" lon="6.67044">
        <ele>334</ele>
        <time>2015-07-08T08:59:45.000Z</time>
      </trkpt>
      <trkpt lat="47.42684" lon="6.67053">
        <ele>334</ele>
        <time>2015-07-08T08:59:46.000Z</time>
      </trkpt>
      <trkpt lat="47.4268" lon="6.67063">
        <ele>334</ele>
        <time>2015-07-08T08:59:47.000Z</time>
      </trkpt>
      <trkpt lat="47.42675" lon="6.67072">
        <ele>334</ele>
        <time>2015-07-08T08:59:48.000Z</time>
      </trkpt>
      <trkpt lat="47.4267" lon="6.67081">
        <ele>334</ele>
        <time>2015-07-08T08:59:49.000Z</time>
      </trkpt>
      <trkpt lat="47.42666" lon="6.67089">
        <ele>335</ele>
        <time>2015-07-08T08:59:50.000Z</time>
      </trkpt>
      <trkpt lat="47.42661" lon="6.67098">
        <ele>335</ele>
        <time>2015-07-08T08:59:51.000Z</time>
      </trkpt>
      <trkpt lat="47.42657" lon="6.67106">
        <ele>335</ele>
        <time>2015-07-08T08:59:52.000Z</time>
      </trkpt>
      <trkpt lat="47.42653" lon="6.67115">
        <ele>335</ele>
        <time>2015-07-08T08:59:53.000Z</time>
      </trkpt>
      <trkpt lat="47.42649" lon="6.67123">
        <ele>336</ele>
        <time>2015-07-08T08:59:54.000Z</time>
      </trkpt>
      <trkpt lat="47.42646" lon="6.67132">
        <ele>336</ele>
        <time>2015-07-08T08:59:55.000Z</time>
      </trkpt>
      <trkpt lat="47.42643" lon="6.67141">
        <ele>336</ele>
        <time>2015-07-08T08:59:56.000Z</time>
      </trkpt>
      <trkpt lat="47.4264" lon="6.6715">
        <ele>336</ele>
        <time>2015-07-08T08:59:57.000Z</time>
      </trkpt>
      <trkpt lat="47.42637" lon="6.67158">
        <ele>336</ele>
        <time>2015-07-08T08:59:58.000Z</time>
      </trkpt>
      <trkpt lat="47.42634" lon="6.67167">
        <ele>337</ele>
        <time>2015-07-08T08:59:59.000Z</time>
      </trkpt>
      <trkpt lat="47.42631" lon="6.67175">
        <ele>337</ele>
        <time>2015-07-08T09:00:00.000Z</time>
      </trkpt>
      <trkpt lat="47.42629" lon="6.67183">
        <ele>337</ele>
        <time>2015-07-08T09:00:01.000Z</time>
      </trkpt>
      <trkpt lat="47.42627" lon="6.6719">
        <ele>337</ele>
        <time>2015-07-08T09:00:02.000Z</time>
      </trkpt>
      <trkpt lat="47.42625" lon="6.67196">
        <ele>337</ele>
        <time>2015-07-08T09:00:03.000Z</time>
      </trkpt>
      <trkpt lat="47.42623" lon="6.67203">
        <ele>337</ele>
        <time>2015-07-08T09:00:04.000Z</time>
      </trkpt>
      <trkpt lat="47.42622" lon="6.6721">
        <ele>337</ele>
        <time>2015-07-08T09:00:05.000Z</time>
      </trkpt>
      <trkpt lat="47.4262" lon="6.67217">
        <ele>338</ele>
        <time>2015-07-08T09:00:06.000Z</time>
      </trkpt>
      <trkpt lat="47.42619" lon="6.67224">
        <ele>338</ele>
        <time>2015-07-08T09:00:07.000Z</time>
      </trkpt>
      <trkpt lat="47.42617" lon="6.67231">
        <ele>338</ele>
        <time>2015-07-08T09:00:08.000Z</time>
      </trkpt>
      <trkpt lat="47.42615" lon="6.67237">
        <ele>338</ele>
        <time>2015-07-08T09:00:09.000Z</time>
      </trkpt>
      <trkpt lat="47.42614" lon="6.67244">
        <ele>338</ele>
        <time>2015-07-08T09:00:10.000Z</time>
      </trkpt>
      <trkpt lat="47.42612" lon="6.6725">
        <ele>338</ele>
        <time>2015-07-08T09:00:11.000Z</time>
      </trkpt>
      <trkpt lat="47.4261" lon="6.67256">
        <ele>338</ele>
        <time>2015-07-08T09:00:12.000Z</time>
      </trkpt>
      <trkpt lat="47.42608" lon="6.67263">
        <ele>338</ele>
        <time>2015-07-08T09:00:13.000Z</time>
      </trkpt>
      <trkpt lat="47.42606" lon="6.67269">
        <ele>339</ele>
        <time>2015-07-08T09:00:14.000Z</time>
      </trkpt>
      <trkpt lat="47.42604" lon="6.67275">
        <ele>339</ele>
        <time>2015-07-08T09:00:15.000Z</time>
      </trkpt>
      <trkpt lat="47.42602" lon="6.67282">
        <ele>339</ele>
        <time>2015-07-08T09:00:16.000Z</time>
      </trkpt>
      <trkpt lat="47.426" lon="6.67288">
        <ele>339</ele>
        <time>2015-07-08T09:00:17.000Z</time>
      </trkpt>
      <trkpt lat="47.42598" lon="6.67295">
        <ele>339</ele>
        <time>2015-07-08T09:00:18.000Z</time>
      </trkpt>
      <trkpt lat="47.42595" lon="6.67301">
        <ele>339</ele>
        <time>2015-07-08T09:00:19.000Z</time>
      </trkpt>
      <trkpt lat="47.42593" lon="6.67308">
        <ele>339</ele>
        <time>2015-07-08T09:00:20.000Z</time>
      </trkpt>
      <trkpt lat="47.4259" lon="6.67314">
        <ele>340</ele>
        <time>2015-07-08T09:00:21.000Z</time>
      </trkpt>
      <trkpt lat="47.42587" lon="6.67321">
        <ele>340</ele>
        <time>2015-07-08T09:00:22.000Z</time>
      </trkpt>
      <trkpt lat="47.42585" lon="6.67327">
        <ele>340</ele>
        <time>2015-07-08T09:00:23.000Z</time>
      </trkpt>
      <trkpt lat="47.42582" lon="6.67333">
        <ele>340</ele>
        <time>2015-07-08T09:00:24.000Z</time>
      </trkpt>
      <trkpt lat="47.42579" lon="6.6734">
        <ele>341</ele>
        <time>2015-07-08T09:00:25.000Z</time>
      </trkpt>
      <trkpt lat="47.42576" lon="6.67346">
        <ele>341</ele>
        <time>2015-07-08T09:00:26.000Z</time>
      </trkpt>
      <trkpt lat="47.42573" lon="6.67352">
        <ele>341</ele>
        <time>2015-07-08T09:00:27.000Z</time>
      </trkpt>
      <trkpt lat="47.4257" lon="6.67358">
        <ele>342</ele>
        <time>2015-07-08T09:00:28.000Z</time>
      </trkpt>
      <trkpt lat="47.42567" lon="6.67365">
        <ele>342</ele>
        <time>2015-07-08T09:00:29.000Z</time>
      </trkpt>
      <trkpt lat="47.42564" lon="6.67371">
        <ele>342</ele>
        <time>2015-07-08T09:00:30.000Z</time>
      </trkpt>
      <trkpt lat="47.4256" lon="6.67377">
        <ele>342</ele>
        <time>2015-07-08T09:00:31.000Z</time>
      </trkpt>
      <trkpt lat="47.42556" lon="6.67384">
        <ele>343</ele>
        <time>2015-07-08T09:00:32.000Z</time>
      </trkpt>
      <trkpt lat="47.42553" lon="6.67392">
        <ele>343</ele>
        <time>2015-07-08T09:00:33.000Z</time>
      </trkpt>
      <trkpt lat="47.42549" lon="6.67399">
        <ele>343</ele>
        <time>2015-07-08T09:00:34.000Z</time>
      </trkpt>
      <trkpt lat="47.42545" lon="6.67406">
        <ele>343</ele>
        <time>2015-07-08T09:00:35.000Z</time>
      </trkpt>
      <trkpt lat="47.42541" lon="6.67414">
        <ele>343</ele>
        <time>2015-07-08T09:00:36.000Z</time>
      </trkpt>
      <trkpt lat="47.42537" lon="6.67422">
        <ele>344</ele>
        <time>2015-07-08T09:00:37.000Z</time>
      </trkpt>
      <trkpt lat="47.42533" lon="6.6743">
        <ele>344</ele>
        <time>2015-07-08T09:00:38.000Z</time>
      </trkpt>
      <trkpt lat="47.4253" lon="6.67437">
        <ele>344</ele>
        <time>2015-07-08T09:00:39.000Z</time>
      </trkpt>
      <trkpt lat="47.42526" lon="6.67445">
        <ele>344</ele>
        <time>2015-07-08T09:00:40.000Z</time>
      </trkpt>
      <trkpt lat="47.42523" lon="6.67453">
        <ele>343</ele>
        <time>2015-07-08T09:00:41.000Z</time>
      </trkpt>
      <trkpt lat="47.42519" lon="6.67461">
        <ele>343</ele>
        <time>2015-07-08T09:00:42.000Z</time>
      </trkpt>
      <trkpt lat="47.42516" lon="6.67469">
        <ele>344</ele>
        <time>2015-07-08T09:00:43.000Z</time>
      </trkpt>
      <trkpt lat="47.42513" lon="6.67477">
        <ele>344</ele>
        <time>2015-07-08T09:00:44.000Z</time>
      </trkpt>
      <trkpt lat="47.42509" lon="6.67485">
        <ele>343</ele>
        <time>2015-07-08T09:00:45.000Z</time>
      </trkpt>
      <trkpt lat="47.42506" lon="6.67493">
        <ele>343</ele>
        <time>2015-07-08T09:00:46.000Z</time>
      </trkpt>
      <trkpt lat="47.42503" lon="6.675">
        <ele>344</ele>
        <time>2015-07-08T09:00:47.000Z</time>
      </trkpt>
      <trkpt lat="47.425" lon="6.67508">
        <ele>344</ele>
        <time>2015-07-08T09:00:48.000Z</time>
      </trkpt>
      <trkpt lat="47.42496" lon="6.67515">
        <ele>344</ele>
        <time>2015-07-08T09:00:49.000Z</time>
      </trkpt>
      <trkpt lat="47.42493" lon="6.67523">
        <ele>344</ele>
        <time>2015-07-08T09:00:50.000Z</time>
      </trkpt>
      <trkpt lat="47.4249" lon="6.6753">
        <ele>344</ele>
        <time>2015-07-08T09:00:51.000Z</time>
      </trkpt>
      <trkpt lat="47.42487" lon="6.67538">
        <ele>344</ele>
        <time>2015-07-08T09:00:52.000Z</time>
      </trkpt>
      <trkpt lat="47.42483" lon="6.67545">
        <ele>344</ele>
        <time>2015-07-08T09:00:53.000Z</time>
      </trkpt>
      <trkpt lat="47.4248" lon="6.67553">
        <ele>345</ele>
        <time>2015-07-08T09:00:54.000Z</time>
      </trkpt>
      <trkpt lat="47.42477" lon="6.67561">
        <ele>345</ele>
        <time>2015-07-08T09:00:55.000Z</time>
      </trkpt>
      <trkpt lat="47.42474" lon="6.67569">
        <ele>345</ele>
        <time>2015-07-08T09:00:56.000Z</time>
      </trkpt>
      <trkpt lat="47.4247" lon="6.67577">
        <ele>345</ele>
        <time>2015-07-08T09:00:57.000Z</time>
      </trkpt>
      <trkpt lat="47.42467" lon="6.67586">
        <ele>345</ele>
        <time>2015-07-08T09:00:58.000Z</time>
      </trkpt>
      <trkpt lat="47.42464" lon="6.67594">
        <ele>346</ele>
        <time>2015-07-08T09:00:59.000Z</time>
      </trkpt>
      <trkpt lat="47.42462" lon="6.67602">
        <ele>346</ele>
        <time>2015-07-08T09:01:00.000Z</time>
      </trkpt>
      <trkpt lat="47.4246" lon="6.6761">
        <ele>346</ele>
        <time>2015-07-08T09:01:01.000Z</time>
      </trkpt>
      <trkpt lat="47.42457" lon="6.67618">
        <ele>346</ele>
        <time>2015-07-08T09:01:02.000Z</time>
      </trkpt>
      <trkpt lat="47.42455" lon="6.67626">
        <ele>346</ele>
        <time>2015-07-08T09:01:03.000Z</time>
      </trkpt>
      <trkpt lat="47.42454" lon="6.67634">
        <ele>346</ele>
        <time>2015-07-08T09:01:04.000Z</time>
      </trkpt>
      <trkpt lat="47.42451" lon="6.67643">
        <ele>346</ele>
        <time>2015-07-08T09:01:05.000Z</time>
      </trkpt>
      <trkpt lat="47.42449" lon="6.67651">
        <ele>347</ele>
        <time>2015-07-08T09:01:06.000Z</time>
      </trkpt>
      <trkpt lat="47.42448" lon="6.67659">
        <ele>347</ele>
        <time>2015-07-08T09:01:07.000Z</time>
      </trkpt>
      <trkpt lat="47.42446" lon="6.67667">
        <ele>347</ele>
        <time>2015-07-08T09:01:08.000Z</time>
      </trkpt>
      <trkpt lat="47.42444" lon="6.67675">
        <ele>347</ele>
        <time>2015-07-08T09:01:09.000Z</time>
      </trkpt>
      <trkpt lat="47.42442" lon="6.67682">
        <ele>348</ele>
        <time>2015-07-08T09:01:10.000Z</time>
      </trkpt>
      <trkpt lat="47.4244" lon="6.6769">
        <ele>348</ele>
        <time>2015-07-08T09:01:11.000Z</time>
      </trkpt>
      <trkpt lat="47.42438" lon="6.67697">
        <ele>349</ele>
        <time>2015-07-08T09:01:12.000Z</time>
      </trkpt>
      <trkpt lat="47.42436" lon="6.67705">
        <ele>349</ele>
        <time>2015-07-08T09:01:13.000Z</time>
      </trkpt>
      <trkpt lat="47.42434" lon="6.67713">
        <ele>349</ele>
        <time>2015-07-08T09:01:14.000Z</time>
      </trkpt>
      <trkpt lat="47.42432" lon="6.6772">
        <ele>350</ele>
        <time>2015-07-08T09:01:15.000Z</time>
      </trkpt>
      <trkpt lat="47.4243" lon="6.67727">
        <ele>350</ele>
        <time>2015-07-08T09:01:16.000Z</time>
      </trkpt>
      <trkpt lat="47.42429" lon="6.67735">
        <ele>351</ele>
        <time>2015-07-08T09:01:17.000Z</time>
      </trkpt>
      <trkpt lat="47.42427" lon="6.67742">
        <ele>351</ele>
        <time>2015-07-08T09:01:18.000Z</time>
      </trkpt>
      <trkpt lat="47.42425" lon="6.67749">
        <ele>352</ele>
        <time>2015-07-08T09:01:19.000Z</time>
      </trkpt>
      <trkpt lat="47.42423" lon="6.67756">
        <ele>352</ele>
        <time>2015-07-08T09:01:20.000Z</time>
      </trkpt>
      <trkpt lat="47.42422" lon="6.67762">
        <ele>353</ele>
        <time>2015-07-08T09:01:21.000Z</time>
      </trkpt>
      <trkpt lat="47.42421" lon="6.67769">
        <ele>353</ele>
        <time>2015-07-08T09:01:22.000Z</time>
      </trkpt>
      <trkpt lat="47.42419" lon="6.67776">
        <ele>353</ele>
        <time>2015-07-08T09:01:23.000Z</time>
      </trkpt>
      <trkpt lat="47.42417" lon="6.67783">
        <ele>354</ele>
        <time>2015-07-08T09:01:24.000Z</time>
      </trkpt>
      <trkpt lat="47.42415" lon="6.6779">
        <ele>354</ele>
        <time>2015-07-08T09:01:25.000Z</time>
      </trkpt>
      <trkpt lat="47.42413" lon="6.67797">
        <ele>354</ele>
        <time>2015-07-08T09:01:26.000Z</time>
      </trkpt>
      <trkpt lat="47.42411" lon="6.67804">
        <ele>355</ele>
        <time>2015-07-08T09:01:27.000Z</time>
      </trkpt>
      <trkpt lat="47.4241" lon="6.67812">
        <ele>354</ele>
        <time>2015-07-08T09:01:28.000Z</time>
      </trkpt>
      <trkpt lat="47.42408" lon="6.6782">
        <ele>354</ele>
        <time>2015-07-08T09:01:29.000Z</time>
      </trkpt>
      <trkpt lat="47.42407" lon="6.67828">
        <ele>354</ele>
        <time>2015-07-08T09:01:30.000Z</time>
      </trkpt>
      <trkpt lat="47.42406" lon="6.67835">
        <ele>354</ele>
        <time>2015-07-08T09:01:31.000Z</time>
      </trkpt>
      <trkpt lat="47.42405" lon="6.67843">
        <ele>354</ele>
        <time>2015-07-08T09:01:32.000Z</time>
      </trkpt>
      <trkpt lat="47.42404" lon="6.67851">
        <ele>354</ele>
        <time>2015-07-08T09:01:33.000Z</time>
      </trkpt>
      <trkpt lat="47.42404" lon="6.67859">
        <ele>354</ele>
        <time>2015-07-08T09:01:34.000Z</time>
      </trkpt>
      <trkpt lat="47.42403" lon="6.67867">
        <ele>354</ele>
        <time>2015-07-08T09:01:35.000Z</time>
      </trkpt>
      <trkpt lat="47.42403" lon="6.67874">
        <ele>353</ele>
        <time>2015-07-08T09:01:36.000Z</time>
      </trkpt>
      <trkpt lat="47.42403" lon="6.67882">
        <ele>353</ele>
        <time>2015-07-08T09:01:37.000Z</time>
      </trkpt>
      <trkpt lat="47.42402" lon="6.6789">
        <ele>353</ele>
        <time>2015-07-08T09:01:38.000Z</time>
      </trkpt>
      <trkpt lat="47.42402" lon="6.67898">
        <ele>353</ele>
        <time>2015-07-08T09:01:39.000Z</time>
      </trkpt>
      <trkpt lat="47.42401" lon="6.67906">
        <ele>353</ele>
        <time>2015-07-08T09:01:40.000Z</time>
      </trkpt>
      <trkpt lat="47.42401" lon="6.67914">
        <ele>353</ele>
        <time>2015-07-08T09:01:41.000Z</time>
      </trkpt>
      <trkpt lat="47.42401" lon="6.67923">
        <ele>352</ele>
        <time>2015-07-08T09:01:42.000Z</time>
      </trkpt>
      <trkpt lat="47.42401" lon="6.67932">
        <ele>352</ele>
        <time>2015-07-08T09:01:43.000Z</time>
      </trkpt>
      <trkpt lat="47.424" lon="6.67942">
        <ele>352</ele>
        <time>2015-07-08T09:01:44.000Z</time>
      </trkpt>
      <trkpt lat="47.424" lon="6.67951">
        <ele>352</ele>
        <time>2015-07-08T09:01:45.000Z</time>
      </trkpt>
      <trkpt lat="47.42399" lon="6.6796">
        <ele>352</ele>
        <time>2015-07-08T09:01:46.000Z</time>
      </trkpt>
      <trkpt lat="47.42398" lon="6.6797">
        <ele>352</ele>
        <time>2015-07-08T09:01:47.000Z</time>
      </trkpt>
      <trkpt lat="47.42397" lon="6.67979">
        <ele>352</ele>
        <time>2015-07-08T09:01:48.000Z</time>
      </trkpt>
      <trkpt lat="47.42396" lon="6.67988">
        <ele>351</ele>
        <time>2015-07-08T09:01:49.000Z</time>
      </trkpt>
      <trkpt lat="47.42395" lon="6.67997">
        <ele>351</ele>
        <time>2015-07-08T09:01:50.000Z</time>
      </trkpt>
      <trkpt lat="47.42394" lon="6.68005">
        <ele>351</ele>
        <time>2015-07-08T09:01:51.000Z</time>
      </trkpt>
      <trkpt lat="47.42393" lon="6.68014">
        <ele>351</ele>
        <time>2015-07-08T09:01:52.000Z</time>
      </trkpt>
      <trkpt lat="47.42391" lon="6.68023">
        <ele>351</ele>
        <time>2015-07-08T09:01:53.000Z</time>
      </trkpt>
      <trkpt lat="47.4239" lon="6.68031">
        <ele>351</ele>
        <time>2015-07-08T09:01:54.000Z</time>
      </trkpt>
      <trkpt lat="47.42389" lon="6.6804">
        <ele>351</ele>
        <time>2015-07-08T09:01:55.000Z</time>
      </trkpt>
      <trkpt lat="47.42387" lon="6.68048">
        <ele>351</ele>
        <time>2015-07-08T09:01:56.000Z</time>
      </trkpt>
      <trkpt lat="47.42386" lon="6.68058">
        <ele>351</ele>
        <time>2015-07-08T09:01:57.000Z</time>
      </trkpt>
      <trkpt lat="47.42384" lon="6.68067">
        <ele>350</ele>
        <time>2015-07-08T09:01:58.000Z</time>
      </trkpt>
      <trkpt lat="47.42382" lon="6.68076">
        <ele>350</ele>
        <time>2015-07-08T09:01:59.000Z</time>
      </trkpt>
      <trkpt lat="47.4238" lon="6.68085">
        <ele>350</ele>
        <time>2015-07-08T09:02:00.000Z</time>
      </trkpt>
      <trkpt lat="47.42379" lon="6.68094">
        <ele>350</ele>
        <time>2015-07-08T09:02:01.000Z</time>
      </trkpt>
      <trkpt lat="47.42377" lon="6.68104">
        <ele>350</ele>
        <time>2015-07-08T09:02:02.000Z</time>
      </trkpt>
      <trkpt lat="47.42376" lon="6.68114">
        <ele>349</ele>
        <time>2015-07-08T09:02:03.000Z</time>
      </trkpt>
      <trkpt lat="47.42374" lon="6.68124">
        <ele>349</ele>
        <time>2015-07-08T09:02:04.000Z</time>
      </trkpt>
      <trkpt lat="47.42373" lon="6.68134">
        <ele>349</ele>
        <time>2015-07-08T09:02:05.000Z</time>
      </trkpt>
      <trkpt lat="47.42371" lon="6.68144">
        <ele>349</ele>
        <time>2015-07-08T09:02:06.000Z</time>
      </trkpt>
      <trkpt lat="47.42369" lon="6.68154">
        <ele>349</ele>
        <time>2015-07-08T09:02:07.000Z</time>
      </trkpt>
      <trkpt lat="47.42368" lon="6.68165">
        <ele>349</ele>
        <time>2015-07-08T09:02:08.000Z</time>
      </trkpt>
      <trkpt lat="47.42366" lon="6.68175">
        <ele>349</ele>
        <time>2015-07-08T09:02:09.000Z</time>
      </trkpt>
      <trkpt lat="47.42365" lon="6.68185">
        <ele>349</ele>
        <time>2015-07-08T09:02:10.000Z</time>
      </trkpt>
      <trkpt lat="47.42363" lon="6.68196">
        <ele>348</ele>
        <time>2015-07-08T09:02:11.000Z</time>
      </trkpt>
      <trkpt lat="47.42361" lon="6.68206">
        <ele>348</ele>
        <time>2015-07-08T09:02:12.000Z</time>
      </trkpt>
      <trkpt lat="47.42359" lon="6.68216">
        <ele>348</ele>
        <time>2015-07-08T09:02:13.000Z</time>
      </trkpt>
      <trkpt lat="47.42357" lon="6.68226">
        <ele>348</ele>
        <time>2015-07-08T09:02:14.000Z</time>
      </trkpt>
      <trkpt lat="47.42355" lon="6.68237">
        <ele>348</ele>
        <time>2015-07-08T09:02:15.000Z</time>
      </trkpt>
      <trkpt lat="47.42353" lon="6.68247">
        <ele>348</ele>
        <time>2015-07-08T09:02:16.000Z</time>
      </trkpt>
      <trkpt lat="47.42351" lon="6.68257">
        <ele>348</ele>
        <time>2015-07-08T09:02:17.000Z</time>
      </trkpt>
      <trkpt lat="47.42349" lon="6.68267">
        <ele>348</ele>
        <time>2015-07-08T09:02:18.000Z</time>
      </trkpt>
      <trkpt lat="47.42347" lon="6.68277">
        <ele>348</ele>
        <time>2015-07-08T09:02:19.000Z</time>
      </trkpt>
      <trkpt lat="47.42345" lon="6.68287">
        <ele>348</ele>
        <time>2015-07-08T09:02:20.000Z</time>
      </trkpt>
      <trkpt lat="47.42343" lon="6.68297">
        <ele>348</ele>
        <time>2015-07-08T09:02:21.000Z</time>
      </trkpt>
      <trkpt lat="47.42342" lon="6.68308">
        <ele>348</ele>
        <time>2015-07-08T09:02:22.000Z</time>
      </trkpt>
      <trkpt lat="47.42341" lon="6.68318">
        <ele>348</ele>
        <time>2015-07-08T09:02:23.000Z</time>
      </trkpt>
      <trkpt lat="47.4234" lon="6.68329">
        <ele>348</ele>
        <time>2015-07-08T09:02:24.000Z</time>
      </trkpt>
      <trkpt lat="47.42339" lon="6.6834">
        <ele>348</ele>
        <time>2015-07-08T09:02:25.000Z</time>
      </trkpt>
      <trkpt lat="47.42339" lon="6.6835">
        <ele>348</ele>
        <time>2015-07-08T09:02:26.000Z</time>
      </trkpt>
      <trkpt lat="47.42338" lon="6.68361">
        <ele>348</ele>
        <time>2015-07-08T09:02:27.000Z</time>
      </trkpt>
      <trkpt lat="47.42338" lon="6.68371">
        <ele>349</ele>
        <time>2015-07-08T09:02:28.000Z</time>
      </trkpt>
      <trkpt lat="47.42339" lon="6.68382">
        <ele>349</ele>
        <time>2015-07-08T09:02:29.000Z</time>
      </trkpt>
      <trkpt lat="47.42339" lon="6.68392">
        <ele>349</ele>
        <time>2015-07-08T09:02:30.000Z</time>
      </trkpt>
      <trkpt lat="47.4234" lon="6.68402">
        <ele>349</ele>
        <time>2015-07-08T09:02:31.000Z</time>
      </trkpt>
      <trkpt lat="47.42341" lon="6.68412">
        <ele>350</ele>
        <time>2015-07-08T09:02:32.000Z</time>
      </trkpt>
      <trkpt lat="47.42342" lon="6.68421">
        <ele>350</ele>
        <time>2015-07-08T09:02:33.000Z</time>
      </trkpt>
      <trkpt lat="47.42343" lon="6.68431">
        <ele>350</ele>
        <time>2015-07-08T09:02:34.000Z</time>
      </trkpt>
      <trkpt lat="47.42344" lon="6.6844">
        <ele>350</ele>
        <time>2015-07-08T09:02:35.000Z</time>
      </trkpt>
      <trkpt lat="47.42345" lon="6.68449">
        <ele>351</ele>
        <time>2015-07-08T09:02:36.000Z</time>
      </trkpt>
      <trkpt lat="47.42347" lon="6.68458">
        <ele>351</ele>
        <time>2015-07-08T09:02:37.000Z</time>
      </trkpt>
      <trkpt lat="47.42348" lon="6.68466">
        <ele>351</ele>
        <time>2015-07-08T09:02:38.000Z</time>
      </trkpt>
      <trkpt lat="47.4235" lon="6.68474">
        <ele>352</ele>
        <time>2015-07-08T09:02:39.000Z</time>
      </trkpt>
      <trkpt lat="47.42351" lon="6.68482">
        <ele>352</ele>
        <time>2015-07-08T09:02:40.000Z</time>
      </trkpt>
      <trkpt lat="47.42354" lon="6.6849">
        <ele>352</ele>
        <time>2015-07-08T09:02:41.000Z</time>
      </trkpt>
      <trkpt lat="47.42356" lon="6.68498">
        <ele>352</ele>
        <time>2015-07-08T09:02:42.000Z</time>
      </trkpt>
      <trkpt lat="47.42358" lon="6.68505">
        <ele>353</ele>
        <time>2015-07-08T09:02:43.000Z</time>
      </trkpt>
      <trkpt lat="47.4236" lon="6.68513">
        <ele>353</ele>
        <time>2015-07-08T09:02:44.000Z</time>
      </trkpt>
      <trkpt lat="47.42363" lon="6.68519">
        <ele>353</ele>
        <time>2015-07-08T09:02:45.000Z</time>
      </trkpt>
      <trkpt lat="47.42365" lon="6.68526">
        <ele>354</ele>
        <time>2015-07-08T09:02:46.000Z</time>
      </trkpt>
      <trkpt lat="47.42367" lon="6.68533">
        <ele>354</ele>
        <time>2015-07-08T09:02:47.000Z</time>
      </trkpt>
      <trkpt lat="47.4237" lon="6.68539">
        <ele>354</ele>
        <time>2015-07-08T09:02:48.000Z</time>
      </trkpt>
      <trkpt lat="47.42372" lon="6.68546">
        <ele>355</ele>
        <time>2015-07-08T09:02:49.000Z</time>
      </trkpt>
      <trkpt lat="47.42375" lon="6.68552">
        <ele>355</ele>
        <time>2015-07-08T09:02:50.000Z</time>
      </trkpt>
      <trkpt lat="47.42377" lon="6.68558">
        <ele>355</ele>
        <time>2015-07-08T09:02:51.000Z</time>
      </trkpt>
      <trkpt lat="47.4238" lon="6.68563">
        <ele>356</ele>
        <time>2015-07-08T09:02:52.000Z</time>
      </trkpt>
      <trkpt lat="47.42382" lon="6.68568">
        <ele>356</ele>
        <time>2015-07-08T09:02:53.000Z</time>
      </trkpt>
      <trkpt lat="47.42385" lon="6.68573">
        <ele>356</ele>
        <time>2015-07-08T09:02:54.000Z</time>
      </trkpt>
      <trkpt lat="47.42388" lon="6.68578">
        <ele>356</ele>
        <time>2015-07-08T09:02:55.000Z</time>
      </trkpt>
      <trkpt lat="47.4239" lon="6.68583">
        <ele>357</ele>
        <time>2015-07-08T09:02:56.000Z</time>
      </trkpt>
      <trkpt lat="47.42393" lon="6.68588">
        <ele>357</ele>
        <time>2015-07-08T09:02:57.000Z</time>
      </trkpt>
      <trkpt lat="47.42396" lon="6.68593">
        <ele>357</ele>
        <time>2015-07-08T09:02:58.000Z</time>
      </trkpt>
      <trkpt lat="47.42399" lon="6.68597">
        <ele>358</ele>
        <time>2015-07-08T09:02:59.000Z</time>
      </trkpt>
      <trkpt lat="47.42402" lon="6.68602">
        <ele>358</ele>
        <time>2015-07-08T09:03:00.000Z</time>
      </trkpt>
      <trkpt lat="47.42404" lon="6.68606">
        <ele>358</ele>
        <time>2015-07-08T09:03:01.000Z</time>
      </trkpt>
      <trkpt lat="47.42407" lon="6.6861">
        <ele>358</ele>
        <time>2015-07-08T09:03:02.000Z</time>
      </trkpt>
      <trkpt lat="47.4241" lon="6.68614">
        <ele>359</ele>
        <time>2015-07-08T09:03:03.000Z</time>
      </trkpt>
      <trkpt lat="47.42413" lon="6.68618">
        <ele>359</ele>
        <time>2015-07-08T09:03:04.000Z</time>
      </trkpt>
      <trkpt lat="47.42416" lon="6.68621">
        <ele>359</ele>
        <time>2015-07-08T09:03:05.000Z</time>
      </trkpt>
      <trkpt lat="47.42419" lon="6.68625">
        <ele>360</ele>
        <time>2015-07-08T09:03:06.000Z</time>
      </trkpt>
      <trkpt lat="47.42421" lon="6.68628">
        <ele>360</ele>
        <time>2015-07-08T09:03:07.000Z</time>
      </trkpt>
      <trkpt lat="47.42424" lon="6.68631">
        <ele>360</ele>
        <time>2015-07-08T09:03:08.000Z</time>
      </trkpt>
      <trkpt lat="47.42427" lon="6.68634">
        <ele>360</ele>
        <time>2015-07-08T09:03:09.000Z</time>
      </trkpt>
      <trkpt lat="47.4243" lon="6.68637">
        <ele>361</ele>
        <time>2015-07-08T09:03:10.000Z</time>
      </trkpt>
      <trkpt lat="47.42433" lon="6.68641">
        <ele>361</ele>
        <time>2015-07-08T09:03:11.000Z</time>
      </trkpt>
      <trkpt lat="47.42436" lon="6.68644">
        <ele>361</ele>
        <time>2015-07-08T09:03:12.000Z</time>
      </trkpt>
      <trkpt lat="47.42439" lon="6.68648">
        <ele>362</ele>
        <time>2015-07-08T09:03:13.000Z</time>
      </trkpt>
      <trkpt lat="47.42442" lon="6.68652">
        <ele>362</ele>
        <time>2015-07-08T09:03:14.000Z</time>
      </trkpt>
      <trkpt lat="47.42445" lon="6.68656">
        <ele>362</ele>
        <time>2015-07-08T09:03:15.000Z</time>
      </trkpt>
      <trkpt lat="47.42448" lon="6.6866">
        <ele>363</ele>
        <time>2015-07-08T09:03:16.000Z</time>
      </trkpt>
      <trkpt lat="47.42451" lon="6.68665">
        <ele>363</ele>
        <time>2015-07-08T09:03:17.000Z</time>
      </trkpt>
      <trkpt lat="47.42454" lon="6.68669">
        <ele>363</ele>
        <time>2015-07-08T09:03:18.000Z</time>
      </trkpt>
      <trkpt lat="47.42457" lon="6.68674">
        <ele>364</ele>
        <time>2015-07-08T09:03:19.000Z</time>
      </trkpt>
      <trkpt lat="47.4246" lon="6.68678">
        <ele>364</ele>
        <time>2015-07-08T09:03:20.000Z</time>
      </trkpt>
      <trkpt lat="47.42463" lon="6.68682">
        <ele>364</ele>
        <time>2015-07-08T09:03:21.000Z</time>
      </trkpt>
      <trkpt lat="47.42466" lon="6.68684">
        <ele>364</ele>
        <time>2015-07-08T09:03:22.000Z</time>
      </trkpt>
      <trkpt lat="47.4247" lon="6.68685">
        <ele>365</ele>
        <time>2015-07-08T09:03:23.000Z</time>
      </trkpt>
      <trkpt lat="47.42474" lon="6.68686">
        <ele>365</ele>
        <time>2015-07-08T09:03:24.000Z</time>
      </trkpt>
      <trkpt lat="47.42478" lon="6.68686">
        <ele>365</ele>
        <time>2015-07-08T09:03:25.000Z</time>
      </trkpt>
      <trkpt lat="47.42481" lon="6.68685">
        <ele>365</ele>
        <time>2015-07-08T09:03:26.000Z</time>
      </trkpt>
      <trkpt lat="47.42485" lon="6.68684">
        <ele>365</ele>
        <time>2015-07-08T09:03:27.000Z</time>
      </trkpt>
      <trkpt lat="47.42488" lon="6.68683">
        <ele>365</ele>
        <time>2015-07-08T09:03:28.000Z</time>
      </trkpt>
      <trkpt lat="47.42491" lon="6.68684">
        <ele>365</ele>
        <time>2015-07-08T09:03:29.000Z</time>
      </trkpt>
      <trkpt lat="47.42493" lon="6.68687">
        <ele>365</ele>
        <time>2015-07-08T09:03:30.000Z</time>
      </trkpt>
      <trkpt lat="47.42496" lon="6.68691">
        <ele>365</ele>
        <time>2015-07-08T09:03:31.000Z</time>
      </trkpt>
      <trkpt lat="47.42497" lon="6.68696">
        <ele>365</ele>
        <time>2015-07-08T09:03:32.000Z</time>
      </trkpt>
      <trkpt lat="47.42499" lon="6.68702">
        <ele>365</ele>
        <time>2015-07-08T09:03:33.000Z</time>
      </trkpt>
      <trkpt lat="47.42501" lon="6.68709">
        <ele>365</ele>
        <time>2015-07-08T09:03:34.000Z</time>
      </trkpt>
      <trkpt lat="47.42503" lon="6.68714">
        <ele>364</ele>
        <time>2015-07-08T09:03:35.000Z</time>
      </trkpt>
      <trkpt lat="47.42504" lon="6.6872">
        <ele>364</ele>
        <time>2015-07-08T09:03:36.000Z</time>
      </trkpt>
      <trkpt lat="47.42505" lon="6.68724">
        <ele>364</ele>
        <time>2015-07-08T09:03:37.000Z</time>
      </trkpt>
      <trkpt lat="47.42506" lon="6.68729">
        <ele>364</ele>
        <time>2015-07-08T09:03:38.000Z</time>
      </trkpt>
      <trkpt lat="47.42508" lon="6.68734">
        <ele>364</ele>
        <time>2015-07-08T09:03:39.000Z</time>
      </trkpt>
      <trkpt lat="47.42509" lon="6.6874">
        <ele>364</ele>
        <time>2015-07-08T09:03:40.000Z</time>
      </trkpt>
      <trkpt lat="47.42511" lon="6.68747">
        <ele>364</ele>
        <time>2015-07-08T09:03:41.000Z</time>
      </trkpt>
      <trkpt lat="47.42512" lon="6.68754">
        <ele>363</ele>
        <time>2015-07-08T09:03:42.000Z</time>
      </trkpt>
      <trkpt lat="47.42513" lon="6.68762">
        <ele>363</ele>
        <time>2015-07-08T09:03:43.000Z</time>
      </trkpt>
      <trkpt lat="47.42513" lon="6.68771">
        <ele>363</ele>
        <time>2015-07-08T09:03:44.000Z</time>
      </trkpt>
      <trkpt lat="47.42513" lon="6.6878">
        <ele>362</ele>
        <time>2015-07-08T09:03:45.000Z</time>
      </trkpt>
      <trkpt lat="47.42513" lon="6.6879">
        <ele>362</ele>
        <time>2015-07-08T09:03:46.000Z</time>
      </trkpt>
      <trkpt lat="47.42511" lon="6.68799">
        <ele>362</ele>
        <time>2015-07-08T09:03:47.000Z</time>
      </trkpt>
      <trkpt lat="47.4251" lon="6.68808">
        <ele>362</ele>
        <time>2015-07-08T09:03:48.000Z</time>
      </trkpt>
      <trkpt lat="47.42508" lon="6.68817">
        <ele>362</ele>
        <time>2015-07-08T09:03:49.000Z</time>
      </trkpt>
      <trkpt lat="47.42506" lon="6.68827">
        <ele>361</ele>
        <time>2015-07-08T09:03:50.000Z</time>
      </trkpt>
      <trkpt lat="47.42504" lon="6.68836">
        <ele>361</ele>
        <time>2015-07-08T09:03:51.000Z</time>
      </trkpt>
      <trkpt lat="47.42502" lon="6.68846">
        <ele>361</ele>
        <time>2015-07-08T09:03:52.000Z</time>
      </trkpt>
      <trkpt lat="47.425" lon="6.68856">
        <ele>361</ele>
        <time>2015-07-08T09:03:53.000Z</time>
      </trkpt>
      <trkpt lat="47.42498" lon="6.68866">
        <ele>361</ele>
        <time>2015-07-08T09:03:54.000Z</time>
      </trkpt>
      <trkpt lat="47.42495" lon="6.68877">
        <ele>360</ele>
        <time>2015-07-08T09:03:55.000Z</time>
      </trkpt>
      <trkpt lat="47.42493" lon="6.68887">
        <ele>360</ele>
        <time>2015-07-08T09:03:56.000Z</time>
      </trkpt>
      <trkpt lat="47.42491" lon="6.68897">
        <ele>360</ele>
        <time>2015-07-08T09:03:57.000Z</time>
      </trkpt>
      <trkpt lat="47.42489" lon="6.68905">
        <ele>359</ele>
        <time>2015-07-08T09:03:58.000Z</time>
      </trkpt>
      <trkpt lat="47.42487" lon="6.68914">
        <ele>359</ele>
        <time>2015-07-08T09:03:59.000Z</time>
      </trkpt>
      <trkpt lat="47.42485" lon="6.68924">
        <ele>358</ele>
        <time>2015-07-08T09:04:00.000Z</time>
      </trkpt>
      <trkpt lat="47.42483" lon="6.68933">
        <ele>358</ele>
        <time>2015-07-08T09:04:01.000Z</time>
      </trkpt>
      <trkpt lat="47.42481" lon="6.68942">
        <ele>357</ele>
        <time>2015-07-08T09:04:02.000Z</time>
      </trkpt>
      <trkpt lat="47.42479" lon="6.68951">
        <ele>357</ele>
        <time>2015-07-08T09:04:03.000Z</time>
      </trkpt>
      <trkpt lat="47.42477" lon="6.68961">
        <ele>356</ele>
        <time>2015-07-08T09:04:04.000Z</time>
      </trkpt>
      <trkpt lat="47.42475" lon="6.68971">
        <ele>355</ele>
        <time>2015-07-08T09:04:05.000Z</time>
      </trkpt>
      <trkpt lat="47.42473" lon="6.68981">
        <ele>355</ele>
        <time>2015-07-08T09:04:06.000Z</time>
      </trkpt>
      <trkpt lat="47.42471" lon="6.68992">
        <ele>354</ele>
        <time>2015-07-08T09:04:07.000Z</time>
      </trkpt>
      <trkpt lat="47.42468" lon="6.69002">
        <ele>354</ele>
        <time>2015-07-08T09:04:08.000Z</time>
      </trkpt>
      <trkpt lat="47.42467" lon="6.69011">
        <ele>353</ele>
        <time>2015-07-08T09:04:09.000Z</time>
      </trkpt>
      <trkpt lat="47.42465" lon="6.69019">
        <ele>353</ele>
        <time>2015-07-08T09:04:10.000Z</time>
      </trkpt>
      <trkpt lat="47.42462" lon="6.69025">
        <ele>353</ele>
        <time>2015-07-08T09:04:11.000Z</time>
      </trkpt>
      <trkpt lat="47.42457" lon="6.69028">
        <ele>353</ele>
        <time>2015-07-08T09:04:12.000Z</time>
      </trkpt>
      <trkpt lat="47.42452" lon="6.69028">
        <ele>353</ele>
        <time>2015-07-08T09:04:13.000Z</time>
      </trkpt>
      <trkpt lat="47.42446" lon="6.69029">
        <ele>352</ele>
        <time>2015-07-08T09:04:14.000Z</time>
      </trkpt>
      <trkpt lat="47.42439" lon="6.69029">
        <ele>352</ele>
        <time>2015-07-08T09:04:15.000Z</time>
      </trkpt>
      <trkpt lat="47.42432" lon="6.69031">
        <ele>352</ele>
        <time>2015-07-08T09:04:16.000Z</time>
      </trkpt>
      <trkpt lat="47.42425" lon="6.69033">
        <ele>352</ele>
        <time>2015-07-08T09:04:17.000Z</time>
      </trkpt>
      <trkpt lat="47.42418" lon="6.69035">
        <ele>351</ele>
        <time>2015-07-08T09:04:18.000Z</time>
      </trkpt>
      <trkpt lat="47.42411" lon="6.69036">
        <ele>351</ele>
        <time>2015-07-08T09:04:19.000Z</time>
      </trkpt>
      <trkpt lat="47.42403" lon="6.69036">
        <ele>351</ele>
        <time>2015-07-08T09:04:20.000Z</time>
      </trkpt>
      <trkpt lat="47.42396" lon="6.69035">
        <ele>351</ele>
        <time>2015-07-08T09:04:21.000Z</time>
      </trkpt>
      <trkpt lat="47.42389" lon="6.69033">
        <ele>351</ele>
        <time>2015-07-08T09:04:22.000Z</time>
      </trkpt>
      <trkpt lat="47.42383" lon="6.6903">
        <ele>351</ele>
        <time>2015-07-08T09:04:23.000Z</time>
      </trkpt>
      <trkpt lat="47.42377" lon="6.69025">
        <ele>351</ele>
        <time>2015-07-08T09:04:24.000Z</time>
      </trkpt>
      <trkpt lat="47.42372" lon="6.6902">
        <ele>351</ele>
        <time>2015-07-08T09:04:25.000Z</time>
      </trkpt>
      <trkpt lat="47.42367" lon="6.69015">
        <ele>351</ele>
        <time>2015-07-08T09:04:26.000Z</time>
      </trkpt>
      <trkpt lat="47.42363" lon="6.69009">
        <ele>351</ele>
        <time>2015-07-08T09:04:27.000Z</time>
      </trkpt>
      <trkpt lat="47.42359" lon="6.69004">
        <ele>351</ele>
        <time>2015-07-08T09:04:28.000Z</time>
      </trkpt>
      <trkpt lat="47.42354" lon="6.68997">
        <ele>351</ele>
        <time>2015-07-08T09:04:29.000Z</time>
      </trkpt>
      <trkpt lat="47.4235" lon="6.68991">
        <ele>351</ele>
        <time>2015-07-08T09:04:30.000Z</time>
      </trkpt>
      <trkpt lat="47.42346" lon="6.68985">
        <ele>352</ele>
        <time>2015-07-08T09:04:31.000Z</time>
      </trkpt>
      <trkpt lat="47.42342" lon="6.68979">
        <ele>352</ele>
        <time>2015-07-08T09:04:32.000Z</time>
      </trkpt>
      <trkpt lat="47.42338" lon="6.68973">
        <ele>352</ele>
        <time>2015-07-08T09:04:33.000Z</time>
      </trkpt>
      <trkpt lat="47.42334" lon="6.68967">
        <ele>353</ele>
        <time>2015-07-08T09:04:34.000Z</time>
      </trkpt>
      <trkpt lat="47.4233" lon="6.68962">
        <ele>353</ele>
        <time>2015-07-08T09:04:35.000Z</time>
      </trkpt>
      <trkpt lat="47.42327" lon="6.68956">
        <ele>353</ele>
        <time>2015-07-08T09:04:36.000Z</time>
      </trkpt>
      <trkpt lat="47.42323" lon="6.6895">
        <ele>354</ele>
        <time>2015-07-08T09:04:37.000Z</time>
      </trkpt>
      <trkpt lat="47.42319" lon="6.68945">
        <ele>354</ele>
        <time>2015-07-08T09:04:38.000Z</time>
      </trkpt>
      <trkpt lat="47.42315" lon="6.68939">
        <ele>354</ele>
        <time>2015-07-08T09:04:39.000Z</time>
      </trkpt>
      <trkpt lat="47.42311" lon="6.68934">
        <ele>355</ele>
        <time>2015-07-08T09:04:40.000Z</time>
      </trkpt>
      <trkpt lat="47.42307" lon="6.68929">
        <ele>355</ele>
        <time>2015-07-08T09:04:41.000Z</time>
      </trkpt>
      <trkpt lat="47.42303" lon="6.68924">
        <ele>356</ele>
        <time>2015-07-08T09:04:42.000Z</time>
      </trkpt>
      <trkpt lat="47.42299" lon="6.68919">
        <ele>356</ele>
        <time>2015-07-08T09:04:43.000Z</time>
      </trkpt>
      <trkpt lat="47.42295" lon="6.68915">
        <ele>356</ele>
        <time>2015-07-08T09:04:44.000Z</time>
      </trkpt>
      <trkpt lat="47.42291" lon="6.6891">
        <ele>357</ele>
        <time>2015-07-08T09:04:45.000Z</time>
      </trkpt>
      <trkpt lat="47.42288" lon="6.68906">
        <ele>357</ele>
        <time>2015-07-08T09:04:46.000Z</time>
      </trkpt>
      <trkpt lat="47.42284" lon="6.68902">
        <ele>358</ele>
        <time>2015-07-08T09:04:47.000Z</time>
      </trkpt>
      <trkpt lat="47.4228" lon="6.68898">
        <ele>358</ele>
        <time>2015-07-08T09:04:48.000Z</time>
      </trkpt>
      <trkpt lat="47.42277" lon="6.68894">
        <ele>358</ele>
        <time>2015-07-08T09:04:49.000Z</time>
      </trkpt>
      <trkpt lat="47.42273" lon="6.6889">
        <ele>359</ele>
        <time>2015-07-08T09:04:50.000Z</time>
      </trkpt>
      <trkpt lat="47.42269" lon="6.68887">
        <ele>359</ele>
        <time>2015-07-08T09:04:51.000Z</time>
      </trkpt>
      <trkpt lat="47.42265" lon="6.68883">
        <ele>359</ele>
        <time>2015-07-08T09:04:52.000Z</time>
      </trkpt>
      <trkpt lat="47.42262" lon="6.68879">
        <ele>360</ele>
        <time>2015-07-08T09:04:53.000Z</time>
      </trkpt>
      <trkpt lat="47.42259" lon="6.68875">
        <ele>360</ele>
        <time>2015-07-08T09:04:54.000Z</time>
      </trkpt>
      <trkpt lat="47.42256" lon="6.68872">
        <ele>360</ele>
        <time>2015-07-08T09:04:55.000Z</time>
      </trkpt>
      <trkpt lat="47.42253" lon="6.68868">
        <ele>360</ele>
        <time>2015-07-08T09:04:56.000Z</time>
      </trkpt>
      <trkpt lat="47.4225" lon="6.68865">
        <ele>361</ele>
        <time>2015-07-08T09:04:57.000Z</time>
      </trkpt>
      <trkpt lat="47.42247" lon="6.68862">
        <ele>361</ele>
        <time>2015-07-08T09:04:58.000Z</time>
      </trkpt>
      <trkpt lat="47.42244" lon="6.68858">
        <ele>361</ele>
        <time>2015-07-08T09:04:59.000Z</time>
      </trkpt>
      <trkpt lat="47.42241" lon="6.68855">
        <ele>362</ele>
        <time>2015-07-08T09:05:00.000Z</time>
      </trkpt>
      <trkpt lat="47.42238" lon="6.68852">
        <ele>362</ele>
        <time>2015-07-08T09:05:01.000Z</time>
      </trkpt>
      <trkpt lat="47.42236" lon="6.68848">
        <ele>363</ele>
        <time>2015-07-08T09:05:02.000Z</time>
      </trkpt>
      <trkpt lat="47.42233" lon="6.68845">
        <ele>363</ele>
        <time>2015-07-08T09:05:03.000Z</time>
      </trkpt>
      <trkpt lat="47.42231" lon="6.68843">
        <ele>364</ele>
        <time>2015-07-08T09:05:04.000Z</time>
      </trkpt>
      <trkpt lat="47.42228" lon="6.6884">
        <ele>364</ele>
        <time>2015-07-08T09:05:05.000Z</time>
      </trkpt>
      <trkpt lat="47.42225" lon="6.68837">
        <ele>364</ele>
        <time>2015-07-08T09:05:06.000Z</time>
      </trkpt>
      <trkpt lat="47.42222" lon="6.68834">
        <ele>364</ele>
        <time>2015-07-08T09:05:07.000Z</time>
      </trkpt>
      <trkpt lat="47.42218" lon="6.68832">
        <ele>365</ele>
        <time>2015-07-08T09:05:08.000Z</time>
      </trkpt>
      <trkpt lat="47.42214" lon="6.6883">
        <ele>365</ele>
        <time>2015-07-08T09:05:09.000Z</time>
      </trkpt>
      <trkpt lat="47.4221" lon="6.68828">
        <ele>365</ele>
        <time>2015-07-08T09:05:10.000Z</time>
      </trkpt>
      <trkpt lat="47.42205" lon="6.68827">
        <ele>365</ele>
        <time>2015-07-08T09:05:11.000Z</time>
      </trkpt>
      <trkpt lat="47.42201" lon="6.68825">
        <ele>366</ele>
        <time>2015-07-08T09:05:12.000Z</time>
      </trkpt>
      <trkpt lat="47.42196" lon="6.68825">
        <ele>366</ele>
        <time>2015-07-08T09:05:13.000Z</time>
      </trkpt>
      <trkpt lat="47.42191" lon="6.68824">
        <ele>366</ele>
        <time>2015-07-08T09:05:14.000Z</time>
      </trkpt>
      <trkpt lat="47.42187" lon="6.68824">
        <ele>366</ele>
        <time>2015-07-08T09:05:15.000Z</time>
      </trkpt>
      <trkpt lat="47.42182" lon="6.68824">
        <ele>366</ele>
        <time>2015-07-08T09:05:16.000Z</time>
      </trkpt>
      <trkpt lat="47.42177" lon="6.68824">
        <ele>367</ele>
        <time>2015-07-08T09:05:17.000Z</time>
      </trkpt>
      <trkpt lat="47.42172" lon="6.68824">
        <ele>367</ele>
        <time>2015-07-08T09:05:18.000Z</time>
      </trkpt>
      <trkpt lat="47.42168" lon="6.68825">
        <ele>367</ele>
        <time>2015-07-08T09:05:19.000Z</time>
      </trkpt>
      <trkpt lat="47.42163" lon="6.68826">
        <ele>368</ele>
        <time>2015-07-08T09:05:20.000Z</time>
      </trkpt>
      <trkpt lat="47.42159" lon="6.68827">
        <ele>368</ele>
        <time>2015-07-08T09:05:21.000Z</time>
      </trkpt>
      <trkpt lat="47.42154" lon="6.68828">
        <ele>368</ele>
        <time>2015-07-08T09:05:22.000Z</time>
      </trkpt>
      <trkpt lat="47.4215" lon="6.6883">
        <ele>369</ele>
        <time>2015-07-08T09:05:23.000Z</time>
      </trkpt>
      <trkpt lat="47.42145" lon="6.68831">
        <ele>369</ele>
        <time>2015-07-08T09:05:24.000Z</time>
      </trkpt>
      <trkpt lat="47.42141" lon="6.68832">
        <ele>369</ele>
        <time>2015-07-08T09:05:25.000Z</time>
      </trkpt>
      <trkpt lat="47.42137" lon="6.68834">
        <ele>370</ele>
        <time>2015-07-08T09:05:26.000Z</time>
      </trkpt>
      <trkpt lat="47.42133" lon="6.68836">
        <ele>370</ele>
        <time>2015-07-08T09:05:27.000Z</time>
      </trkpt>
      <trkpt lat="47.42129" lon="6.68838">
        <ele>370</ele>
        <time>2015-07-08T09:05:28.000Z</time>
      </trkpt>
      <trkpt lat="47.42125" lon="6.6884">
        <ele>371</ele>
        <time>2015-07-08T09:05:29.000Z</time>
      </trkpt>
      <trkpt lat="47.42121" lon="6.68841">
        <ele>371</ele>
        <time>2015-07-08T09:05:30.000Z</time>
      </trkpt>
      <trkpt lat="47.42117" lon="6.68841">
        <ele>371</ele>
        <time>2015-07-08T09:05:31.000Z</time>
      </trkpt>
      <trkpt lat="47.42112" lon="6.68842">
        <ele>372</ele>
        <time>2015-07-08T09:05:32.000Z</time>
      </trkpt>
      <trkpt lat="47.42108" lon="6.68843">
        <ele>372</ele>
        <time>2015-07-08T09:05:33.000Z</time>
      </trkpt>
      <trkpt lat="47.42104" lon="6.68843">
        <ele>373</ele>
        <time>2015-07-08T09:05:34.000Z</time>
      </trkpt>
      <trkpt lat="47.42101" lon="6.68843">
        <ele>373</ele>
        <time>2015-07-08T09:05:35.000Z</time>
      </trkpt>
      <trkpt lat="47.42097" lon="6.68843">
        <ele>373</ele>
        <time>2015-07-08T09:05:36.000Z</time>
      </trkpt>
      <trkpt lat="47.42093" lon="6.68843">
        <ele>373</ele>
        <time>2015-07-08T09:05:37.000Z</time>
      </trkpt>
      <trkpt lat="47.42089" lon="6.68843">
        <ele>374</ele>
        <time>2015-07-08T09:05:38.000Z</time>
      </trkpt>
      <trkpt lat="47.42085" lon="6.68843">
        <ele>374</ele>
        <time>2015-07-08T09:05:39.000Z</time>
      </trkpt>
      <trkpt lat="47.42082" lon="6.68843">
        <ele>374</ele>
        <time>2015-07-08T09:05:40.000Z</time>
      </trkpt>
      <trkpt lat="47.42078" lon="6.68843">
        <ele>374</ele>
        <time>2015-07-08T09:05:41.000Z</time>
      </trkpt>
      <trkpt lat="47.42075" lon="6.68842">
        <ele>375</ele>
        <time>2015-07-08T09:05:42.000Z</time>
      </trkpt>
      <trkpt lat="47.42071" lon="6.68842">
        <ele>375</ele>
        <time>2015-07-08T09:05:43.000Z</time>
      </trkpt>
      <trkpt lat="47.42068" lon="6.68842">
        <ele>375</ele>
        <time>2015-07-08T09:05:44.000Z</time>
      </trkpt>
      <trkpt lat="47.42065" lon="6.68842">
        <ele>375</ele>
        <time>2015-07-08T09:05:45.000Z</time>
      </trkpt>
      <trkpt lat="47.42061" lon="6.68843">
        <ele>376</ele>
        <time>2015-07-08T09:05:46.000Z</time>
      </trkpt>
      <trkpt lat="47.42058" lon="6.68843">
        <ele>376</ele>
        <time>2015-07-08T09:05:47.000Z</time>
      </trkpt>
      <trkpt lat="47.42055" lon="6.68844">
        <ele>376</ele>
        <time>2015-07-08T09:05:48.000Z</time>
      </trkpt>
      <trkpt lat="47.42052" lon="6.68844">
        <ele>376</ele>
        <time>2015-07-08T09:05:49.000Z</time>
      </trkpt>
      <trkpt lat="47.42049" lon="6.68845">
        <ele>377</ele>
        <time>2015-07-08T09:05:50.000Z</time>
      </trkpt>
      <trkpt lat="47.42045" lon="6.68847">
        <ele>377</ele>
        <time>2015-07-08T09:05:51.000Z</time>
      </trkpt>
      <trkpt lat="47.42042" lon="6.68848">
        <ele>377</ele>
        <time>2015-07-08T09:05:52.000Z</time>
      </trkpt>
      <trkpt lat="47.4204" lon="6.68849">
        <ele>377</ele>
        <time>2015-07-08T09:05:53.000Z</time>
      </trkpt>
      <trkpt lat="47.42037" lon="6.68851">
        <ele>378</ele>
        <time>2015-07-08T09:05:54.000Z</time>
      </trkpt>
      <trkpt lat="47.42034" lon="6.68852">
        <ele>378</ele>
        <time>2015-07-08T09:05:55.000Z</time>
      </trkpt>
      <trkpt lat="47.42031" lon="6.68852">
        <ele>378</ele>
        <time>2015-07-08T09:05:56.000Z</time>
      </trkpt>
      <trkpt lat="47.42028" lon="6.68853">
        <ele>378</ele>
        <time>2015-07-08T09:05:57.000Z</time>
      </trkpt>
      <trkpt lat="47.42025" lon="6.68853">
        <ele>379</ele>
        <time>2015-07-08T09:05:58.000Z</time>
      </trkpt>
      <trkpt lat="47.42022" lon="6.68853">
        <ele>379</ele>
        <time>2015-07-08T09:05:59.000Z</time>
      </trkpt>
      <trkpt lat="47.42019" lon="6.68852">
        <ele>379</ele>
        <time>2015-07-08T09:06:00.000Z</time>
      </trkpt>
      <trkpt lat="47.42016" lon="6.68852">
        <ele>380</ele>
        <time>2015-07-08T09:06:01.000Z</time>
      </trkpt>
      <trkpt lat="47.42013" lon="6.68851">
        <ele>380</ele>
        <time>2015-07-08T09:06:02.000Z</time>
      </trkpt>
      <trkpt lat="47.42011" lon="6.68849">
        <ele>380</ele>
        <time>2015-07-08T09:06:03.000Z</time>
      </trkpt>
      <trkpt lat="47.42008" lon="6.68848">
        <ele>380</ele>
        <time>2015-07-08T09:06:04.000Z</time>
      </trkpt>
      <trkpt lat="47.42005" lon="6.68846">
        <ele>381</ele>
        <time>2015-07-08T09:06:05.000Z</time>
      </trkpt>
      <trkpt lat="47.42002" lon="6.68845">
        <ele>381</ele>
        <time>2015-07-08T09:06:06.000Z</time>
      </trkpt>
      <trkpt lat="47.42" lon="6.68843">
        <ele>382</ele>
        <time>2015-07-08T09:06:07.000Z</time>
      </trkpt>
      <trkpt lat="47.41997" lon="6.68842">
        <ele>382</ele>
        <time>2015-07-08T09:06:08.000Z</time>
      </trkpt>
      <trkpt lat="47.41994" lon="6.6884">
        <ele>382</ele>
        <time>2015-07-08T09:06:09.000Z</time>
      </trkpt>
      <trkpt lat="47.41991" lon="6.68839">
        <ele>383</ele>
        <time>2015-07-08T09:06:10.000Z</time>
      </trkpt>
      <trkpt lat="47.41989" lon="6.68837">
        <ele>383</ele>
        <time>2015-07-08T09:06:11.000Z</time>
      </trkpt>
      <trkpt lat="47.41986" lon="6.68835">
        <ele>383</ele>
        <time>2015-07-08T09:06:12.000Z</time>
      </trkpt>
      <trkpt lat="47.41983" lon="6.68834">
        <ele>383</ele>
        <time>2015-07-08T09:06:13.000Z</time>
      </trkpt>
      <trkpt lat="47.41979" lon="6.68832">
        <ele>384</ele>
        <time>2015-07-08T09:06:14.000Z</time>
      </trkpt>
      <trkpt lat="47.41976" lon="6.6883">
        <ele>384</ele>
        <time>2015-07-08T09:06:15.000Z</time>
      </trkpt>
      <trkpt lat="47.41973" lon="6.68828">
        <ele>384</ele>
        <time>2015-07-08T09:06:16.000Z</time>
      </trkpt>
      <trkpt lat="47.4197" lon="6.68826">
        <ele>385</ele>
        <time>2015-07-08T09:06:17.000Z</time>
      </trkpt>
      <trkpt lat="47.41968" lon="6.68824">
        <ele>385</ele>
        <time>2015-07-08T09:06:18.000Z</time>
      </trkpt>
      <trkpt lat="47.41966" lon="6.68821">
        <ele>385</ele>
        <time>2015-07-08T09:06:19.000Z</time>
      </trkpt>
      <trkpt lat="47.41964" lon="6.68819">
        <ele>386</ele>
        <time>2015-07-08T09:06:20.000Z</time>
      </trkpt>
      <trkpt lat="47.41962" lon="6.68816">
        <ele>386</ele>
        <time>2015-07-08T09:06:21.000Z</time>
      </trkpt>
      <trkpt lat="47.4196" lon="6.68814">
        <ele>387</ele>
        <time>2015-07-08T09:06:22.000Z</time>
      </trkpt>
      <trkpt lat="47.41957" lon="6.68811">
        <ele>387</ele>
        <time>2015-07-08T09:06:23.000Z</time>
      </trkpt>
      <trkpt lat="47.41954" lon="6.68809">
        <ele>387</ele>
        <time>2015-07-08T09:06:24.000Z</time>
      </trkpt>
      <trkpt lat="47.41951" lon="6.68807">
        <ele>387</ele>
        <time>2015-07-08T09:06:25.000Z</time>
      </trkpt>
      <trkpt lat="47.41948" lon="6.68805">
        <ele>388</ele>
        <time>2015-07-08T09:06:26.000Z</time>
      </trkpt>
      <trkpt lat="47.41944" lon="6.68803">
        <ele>388</ele>
        <time>2015-07-08T09:06:27.000Z</time>
      </trkpt>
      <trkpt lat="47.41941" lon="6.68802">
        <ele>388</ele>
        <time>2015-07-08T09:06:28.000Z</time>
      </trkpt>
      <trkpt lat="47.41937" lon="6.688">
        <ele>388</ele>
        <time>2015-07-08T09:06:29.000Z</time>
      </trkpt>
      <trkpt lat="47.41933" lon="6.68799">
        <ele>388</ele>
        <time>2015-07-08T09:06:30.000Z</time>
      </trkpt>
      <trkpt lat="47.41929" lon="6.68797">
        <ele>388</ele>
        <time>2015-07-08T09:06:31.000Z</time>
      </trkpt>
      <trkpt lat="47.41925" lon="6.68796">
        <ele>389</ele>
        <time>2015-07-08T09:06:32.000Z</time>
      </trkpt>
      <trkpt lat="47.41921" lon="6.68795">
        <ele>389</ele>
        <time>2015-07-08T09:06:33.000Z</time>
      </trkpt>
      <trkpt lat="47.41917" lon="6.68794">
        <ele>389</ele>
        <time>2015-07-08T09:06:34.000Z</time>
      </trkpt>
      <trkpt lat="47.41913" lon="6.68793">
        <ele>389</ele>
        <time>2015-07-08T09:06:35.000Z</time>
      </trkpt>
      <trkpt lat="47.41909" lon="6.68792">
        <ele>389</ele>
        <time>2015-07-08T09:06:36.000Z</time>
      </trkpt>
      <trkpt lat="47.41904" lon="6.68792">
        <ele>390</ele>
        <time>2015-07-08T09:06:37.000Z</time>
      </trkpt>
      <trkpt lat="47.419" lon="6.68791">
        <ele>390</ele>
        <time>2015-07-08T09:06:38.000Z</time>
      </trkpt>
      <trkpt lat="47.41896" lon="6.6879">
        <ele>390</ele>
        <time>2015-07-08T09:06:39.000Z</time>
      </trkpt>
      <trkpt lat="47.41892" lon="6.68789">
        <ele>391</ele>
        <time>2015-07-08T09:06:40.000Z</time>
      </trkpt>
      <trkpt lat="47.41888" lon="6.68789">
        <ele>391</ele>
        <time>2015-07-08T09:06:41.000Z</time>
      </trkpt>
      <trkpt lat="47.41883" lon="6.68789">
        <ele>392</ele>
        <time>2015-07-08T09:06:42.000Z</time>
      </trkpt>
      <trkpt lat="47.41879" lon="6.68788">
        <ele>392</ele>
        <time>2015-07-08T09:06:43.000Z</time>
      </trkpt>
      <trkpt lat="47.41875" lon="6.68787">
        <ele>393</ele>
        <time>2015-07-08T09:06:44.000Z</time>
      </trkpt>
      <trkpt lat="47.4187" lon="6.68787">
        <ele>393</ele>
        <time>2015-07-08T09:06:45.000Z</time>
      </trkpt>
      <trkpt lat="47.41866" lon="6.68787">
        <ele>394</ele>
        <time>2015-07-08T09:06:46.000Z</time>
      </trkpt>
      <trkpt lat="47.41862" lon="6.68786">
        <ele>394</ele>
        <time>2015-07-08T09:06:47.000Z</time>
      </trkpt>
      <trkpt lat="47.41857" lon="6.68786">
        <ele>394</ele>
        <time>2015-07-08T09:06:48.000Z</time>
      </trkpt>
      <trkpt lat="47.41853" lon="6.68786">
        <ele>395</ele>
        <time>2015-07-08T09:06:49.000Z</time>
      </trkpt>
      <trkpt lat="47.41849" lon="6.68785">
        <ele>395</ele>
        <time>2015-07-08T09:06:50.000Z</time>
      </trkpt>
      <trkpt lat="47.41845" lon="6.68784">
        <ele>395</ele>
        <time>2015-07-08T09:06:51.000Z</time>
      </trkpt>
      <trkpt lat="47.41842" lon="6.68784">
        <ele>396</ele>
        <time>2015-07-08T09:06:52.000Z</time>
      </trkpt>
      <trkpt lat="47.41838" lon="6.68783">
        <ele>396</ele>
        <time>2015-07-08T09:06:53.000Z</time>
      </trkpt>
      <trkpt lat="47.41834" lon="6.68783">
        <ele>396</ele>
        <time>2015-07-08T09:06:54.000Z</time>
      </trkpt>
      <trkpt lat="47.4183" lon="6.68782">
        <ele>397</ele>
        <time>2015-07-08T09:06:55.000Z</time>
      </trkpt>
      <trkpt lat="47.41827" lon="6.68781">
        <ele>397</ele>
        <time>2015-07-08T09:06:56.000Z</time>
      </trkpt>
      <trkpt lat="47.41823" lon="6.6878">
        <ele>397</ele>
        <time>2015-07-08T09:06:57.000Z</time>
      </trkpt>
      <trkpt lat="47.41819" lon="6.6878">
        <ele>398</ele>
        <time>2015-07-08T09:06:58.000Z</time>
      </trkpt>
      <trkpt lat="47.41815" lon="6.68779">
        <ele>398</ele>
        <time>2015-07-08T09:06:59.000Z</time>
      </trkpt>
      <trkpt lat="47.41811" lon="6.68779">
        <ele>398</ele>
        <time>2015-07-08T09:07:00.000Z</time>
      </trkpt>
      <trkpt lat="47.41807" lon="6.68779">
        <ele>398</ele>
        <time>2015-07-08T09:07:01.000Z</time>
      </trkpt>
      <trkpt lat="47.41803" lon="6.68778">
        <ele>399</ele>
        <time>2015-07-08T09:07:02.000Z</time>
      </trkpt>
      <trkpt lat="47.418" lon="6.68778">
        <ele>399</ele>
        <time>2015-07-08T09:07:03.000Z</time>
      </trkpt>
      <trkpt lat="47.41796" lon="6.68778">
        <ele>399</ele>
        <time>2015-07-08T09:07:04.000Z</time>
      </trkpt>
      <trkpt lat="47.41793" lon="6.68778">
        <ele>399</ele>
        <time>2015-07-08T09:07:05.000Z</time>
      </trkpt>
      <trkpt lat="47.41789" lon="6.68777">
        <ele>399</ele>
        <time>2015-07-08T09:07:06.000Z</time>
      </trkpt>
      <trkpt lat="47.41786" lon="6.68777">
        <ele>399</ele>
        <time>2015-07-08T09:07:07.000Z</time>
      </trkpt>
      <trkpt lat="47.41782" lon="6.68777">
        <ele>399</ele>
        <time>2015-07-08T09:07:08.000Z</time>
      </trkpt>
      <trkpt lat="47.41779" lon="6.68778">
        <ele>399</ele>
        <time>2015-07-08T09:07:09.000Z</time>
      </trkpt>
      <trkpt lat="47.41775" lon="6.68778">
        <ele>400</ele>
        <time>2015-07-08T09:07:10.000Z</time>
      </trkpt>
      <trkpt lat="47.41772" lon="6.68778">
        <ele>400</ele>
        <time>2015-07-08T09:07:11.000Z</time>
      </trkpt>
      <trkpt lat="47.41769" lon="6.68778">
        <ele>400</ele>
        <time>2015-07-08T09:07:12.000Z</time>
      </trkpt>
      <trkpt lat="47.41765" lon="6.68778">
        <ele>400</ele>
        <time>2015-07-08T09:07:13.000Z</time>
      </trkpt>
      <trkpt lat="47.41762" lon="6.68779">
        <ele>400</ele>
        <time>2015-07-08T09:07:14.000Z</time>
      </trkpt>
      <trkpt lat="47.4176" lon="6.6878">
        <ele>400</ele>
        <time>2015-07-08T09:07:15.000Z</time>
      </trkpt>
      <trkpt lat="47.41757" lon="6.68781">
        <ele>400</ele>
        <time>2015-07-08T09:07:16.000Z</time>
      </trkpt>
      <trkpt lat="47.41754" lon="6.68782">
        <ele>400</ele>
        <time>2015-07-08T09:07:17.000Z</time>
      </trkpt>
      <trkpt lat="47.4175" lon="6.68783">
        <ele>400</ele>
        <time>2015-07-08T09:07:18.000Z</time>
      </trkpt>
      <trkpt lat="47.41747" lon="6.68785">
        <ele>401</ele>
        <time>2015-07-08T09:07:19.000Z</time>
      </trkpt>
      <trkpt lat="47.41744" lon="6.68786">
        <ele>401</ele>
        <time>2015-07-08T09:07:20.000Z</time>
      </trkpt>
      <trkpt lat="47.41741" lon="6.68787">
        <ele>401</ele>
        <time>2015-07-08T09:07:21.000Z</time>
      </trkpt>
      <trkpt lat="47.41737" lon="6.68789">
        <ele>401</ele>
        <time>2015-07-08T09:07:22.000Z</time>
      </trkpt>
      <trkpt lat="47.41734" lon="6.68791">
        <ele>401</ele>
        <time>2015-07-08T09:07:23.000Z</time>
      </trkpt>
      <trkpt lat="47.41731" lon="6.68792">
        <ele>401</ele>
        <time>2015-07-08T09:07:24.000Z</time>
      </trkpt>
      <trkpt lat="47.41727" lon="6.68792">
        <ele>401</ele>
        <time>2015-07-08T09:07:25.000Z</time>
      </trkpt>
      <trkpt lat="47.41724" lon="6.68792">
        <ele>402</ele>
        <time>2015-07-08T09:07:26.000Z</time>
      </trkpt>
      <trkpt lat="47.4172" lon="6.68792">
        <ele>402</ele>
        <time>2015-07-08T09:07:27.000Z</time>
      </trkpt>
      <trkpt lat="47.41715" lon="6.68791">
        <ele>402</ele>
        <time>2015-07-08T09:07:28.000Z</time>
      </trkpt>
      <trkpt lat="47.41711" lon="6.68791">
        <ele>402</ele>
        <time>2015-07-08T09:07:29.000Z</time>
      </trkpt>
      <trkpt lat="47.41707" lon="6.6879">
        <ele>403</ele>
        <time>2015-07-08T09:07:30.000Z</time>
      </trkpt>
      <trkpt lat="47.41703" lon="6.68789">
        <ele>403</ele>
        <time>2015-07-08T09:07:31.000Z</time>
      </trkpt>
      <trkpt lat="47.41699" lon="6.68788">
        <ele>403</ele>
        <time>2015-07-08T09:07:32.000Z</time>
      </trkpt>
      <trkpt lat="47.41695" lon="6.68787">
        <ele>404</ele>
        <time>2015-07-08T09:07:33.000Z</time>
      </trkpt>
      <trkpt lat="47.41691" lon="6.68786">
        <ele>404</ele>
        <time>2015-07-08T09:07:34.000Z</time>
      </trkpt>
      <trkpt lat="47.41687" lon="6.68786">
        <ele>404</ele>
        <time>2015-07-08T09:07:35.000Z</time>
      </trkpt>
      <trkpt lat="47.41683" lon="6.68786">
        <ele>405</ele>
        <time>2015-07-08T09:07:36.000Z</time>
      </trkpt>
      <trkpt lat="47.41679" lon="6.68786">
        <ele>405</ele>
        <time>2015-07-08T09:07:37.000Z</time>
      </trkpt>
      <trkpt lat="47.41675" lon="6.68787">
        <ele>405</ele>
        <time>2015-07-08T09:07:38.000Z</time>
      </trkpt>
      <trkpt lat="47.41671" lon="6.68787">
        <ele>405</ele>
        <time>2015-07-08T09:07:39.000Z</time>
      </trkpt>
      <trkpt lat="47.41667" lon="6.68787">
        <ele>406</ele>
        <time>2015-07-08T09:07:40.000Z</time>
      </trkpt>
      <trkpt lat="47.41663" lon="6.68787">
        <ele>406</ele>
        <time>2015-07-08T09:07:41.000Z</time>
      </trkpt>
      <trkpt lat="47.4166" lon="6.68786">
        <ele>406</ele>
        <time>2015-07-08T09:07:42.000Z</time>
      </trkpt>
      <trkpt lat="47.41656" lon="6.68786">
        <ele>406</ele>
        <time>2015-07-08T09:07:43.000Z</time>
      </trkpt>
      <trkpt lat="47.41652" lon="6.68786">
        <ele>407</ele>
        <time>2015-07-08T09:07:44.000Z</time>
      </trkpt>
      <trkpt lat="47.41649" lon="6.68786">
        <ele>407</ele>
        <time>2015-07-08T09:07:45.000Z</time>
      </trkpt>
      <trkpt lat="47.41645" lon="6.68786">
        <ele>407</ele>
        <time>2015-07-08T09:07:46.000Z</time>
      </trkpt>
      <trkpt lat="47.41641" lon="6.68786">
        <ele>407</ele>
        <time>2015-07-08T09:07:47.000Z</time>
      </trkpt>
      <trkpt lat="47.41638" lon="6.68786">
        <ele>408</ele>
        <time>2015-07-08T09:07:48.000Z</time>
      </trkpt>
      <trkpt lat="47.41634" lon="6.68785">
        <ele>408</ele>
        <time>2015-07-08T09:07:49.000Z</time>
      </trkpt>
      <trkpt lat="47.4163" lon="6.68784">
        <ele>408</ele>
        <time>2015-07-08T09:07:50.000Z</time>
      </trkpt>
      <trkpt lat="47.41627" lon="6.68783">
        <ele>408</ele>
        <time>2015-07-08T09:07:51.000Z</time>
      </trkpt>
      <trkpt lat="47.41623" lon="6.68782">
        <ele>408</ele>
        <time>2015-07-08T09:07:52.000Z</time>
      </trkpt>
      <trkpt lat="47.4162" lon="6.6878">
        <ele>408</ele>
        <time>2015-07-08T09:07:53.000Z</time>
      </trkpt>
      <trkpt lat="47.41616" lon="6.68779">
        <ele>408</ele>
        <time>2015-07-08T09:07:54.000Z</time>
      </trkpt>
      <trkpt lat="47.41613" lon="6.68778">
        <ele>408</ele>
        <time>2015-07-08T09:07:55.000Z</time>
      </trkpt>
      <trkpt lat="47.41609" lon="6.68777">
        <ele>408</ele>
        <time>2015-07-08T09:07:56.000Z</time>
      </trkpt>
      <trkpt lat="47.41606" lon="6.68776">
        <ele>409</ele>
        <time>2015-07-08T09:07:57.000Z</time>
      </trkpt>
      <trkpt lat="47.41602" lon="6.68775">
        <ele>409</ele>
        <time>2015-07-08T09:07:58.000Z</time>
      </trkpt>
      <trkpt lat="47.41599" lon="6.68773">
        <ele>409</ele>
        <time>2015-07-08T09:07:59.000Z</time>
      </trkpt>
      <trkpt lat="47.41595" lon="6.68772">
        <ele>409</ele>
        <time>2015-07-08T09:08:00.000Z</time>
      </trkpt>
      <trkpt lat="47.41592" lon="6.68771">
        <ele>409</ele>
        <time>2015-07-08T09:08:01.000Z</time>
      </trkpt>
      <trkpt lat="47.41589" lon="6.6877">
        <ele>409</ele>
        <time>2015-07-08T09:08:02.000Z</time>
      </trkpt>
      <trkpt lat="47.41586" lon="6.68769">
        <ele>410</ele>
        <time>2015-07-08T09:08:03.000Z</time>
      </trkpt>
      <trkpt lat="47.41583" lon="6.68768">
        <ele>410</ele>
        <time>2015-07-08T09:08:04.000Z</time>
      </trkpt>
      <trkpt lat="47.41579" lon="6.68768">
        <ele>410</ele>
        <time>2015-07-08T09:08:05.000Z</time>
      </trkpt>
      <trkpt lat="47.41576" lon="6.68767">
        <ele>410</ele>
        <time>2015-07-08T09:08:06.000Z</time>
      </trkpt>
      <trkpt lat="47.41573" lon="6.68765">
        <ele>410</ele>
        <time>2015-07-08T09:08:07.000Z</time>
      </trkpt>
      <trkpt lat="47.4157" lon="6.68764">
        <ele>411</ele>
        <time>2015-07-08T09:08:08.000Z</time>
      </trkpt>
      <trkpt lat="47.41567" lon="6.68763">
        <ele>411</ele>
        <time>2015-07-08T09:08:09.000Z</time>
      </trkpt>
      <trkpt lat="47.41564" lon="6.68762">
        <ele>411</ele>
        <time>2015-07-08T09:08:10.000Z</time>
      </trkpt>
      <trkpt lat="47.41561" lon="6.68761">
        <ele>411</ele>
        <time>2015-07-08T09:08:11.000Z</time>
      </trkpt>
      <trkpt lat="47.41558" lon="6.68761">
        <ele>411</ele>
        <time>2015-07-08T09:08:12.000Z</time>
      </trkpt>
      <trkpt lat="47.41555" lon="6.6876">
        <ele>411</ele>
        <time>2015-07-08T09:08:13.000Z</time>
      </trkpt>
      <trkpt lat="47.41552" lon="6.68759">
        <ele>412</ele>
        <time>2015-07-08T09:08:14.000Z</time>
      </trkpt>
      <trkpt lat="47.41548" lon="6.68758">
        <ele>412</ele>
        <time>2015-07-08T09:08:15.000Z</time>
      </trkpt>
      <trkpt lat="47.41545" lon="6.68758">
        <ele>412</ele>
        <time>2015-07-08T09:08:16.000Z</time>
      </trkpt>
      <trkpt lat="47.41542" lon="6.68757">
        <ele>412</ele>
        <time>2015-07-08T09:08:17.000Z</time>
      </trkpt>
      <trkpt lat="47.41538" lon="6.68757">
        <ele>412</ele>
        <time>2015-07-08T09:08:18.000Z</time>
      </trkpt>
      <trkpt lat="47.41535" lon="6.68756">
        <ele>413</ele>
        <time>2015-07-08T09:08:19.000Z</time>
      </trkpt>
      <trkpt lat="47.41531" lon="6.68755">
        <ele>413</ele>
        <time>2015-07-08T09:08:20.000Z</time>
      </trkpt>
      <trkpt lat="47.41527" lon="6.68754">
        <ele>413</ele>
        <time>2015-07-08T09:08:21.000Z</time>
      </trkpt>
      <trkpt lat="47.41524" lon="6.68753">
        <ele>413</ele>
        <time>2015-07-08T09:08:22.000Z</time>
      </trkpt>
      <trkpt lat="47.4152" lon="6.68752">
        <ele>413</ele>
        <time>2015-07-08T09:08:23.000Z</time>
      </trkpt>
      <trkpt lat="47.41517" lon="6.68751">
        <ele>414</ele>
        <time>2015-07-08T09:08:24.000Z</time>
      </trkpt>
      <trkpt lat="47.41513" lon="6.68751">
        <ele>414</ele>
        <time>2015-07-08T09:08:25.000Z</time>
      </trkpt>
      <trkpt lat="47.4151" lon="6.6875">
        <ele>414</ele>
        <time>2015-07-08T09:08:26.000Z</time>
      </trkpt>
      <trkpt lat="47.41506" lon="6.68749">
        <ele>414</ele>
        <time>2015-07-08T09:08:27.000Z</time>
      </trkpt>
      <trkpt lat="47.41503" lon="6.68748">
        <ele>415</ele>
        <time>2015-07-08T09:08:28.000Z</time>
      </trkpt>
      <trkpt lat="47.415" lon="6.68748">
        <ele>415</ele>
        <time>2015-07-08T09:08:29.000Z</time>
      </trkpt>
      <trkpt lat="47.41497" lon="6.68747">
        <ele>415</ele>
        <time>2015-07-08T09:08:30.000Z</time>
      </trkpt>
      <trkpt lat="47.41493" lon="6.68747">
        <ele>415</ele>
        <time>2015-07-08T09:08:31.000Z</time>
      </trkpt>
      <trkpt lat="47.4149" lon="6.68748">
        <ele>416</ele>
        <time>2015-07-08T09:08:32.000Z</time>
      </trkpt>
      <trkpt lat="47.41486" lon="6.68749">
        <ele>416</ele>
        <time>2015-07-08T09:08:33.000Z</time>
      </trkpt>
      <trkpt lat="47.41483" lon="6.6875">
        <ele>416</ele>
        <time>2015-07-08T09:08:34.000Z</time>
      </trkpt>
      <trkpt lat="47.41479" lon="6.68752">
        <ele>416</ele>
        <time>2015-07-08T09:08:35.000Z</time>
      </trkpt>
      <trkpt lat="47.41476" lon="6.68754">
        <ele>417</ele>
        <time>2015-07-08T09:08:36.000Z</time>
      </trkpt>
      <trkpt lat="47.41473" lon="6.68756">
        <ele>417</ele>
        <time>2015-07-08T09:08:37.000Z</time>
      </trkpt>
      <trkpt lat="47.41471" lon="6.6876">
        <ele>417</ele>
        <time>2015-07-08T09:08:38.000Z</time>
      </trkpt>
      <trkpt lat="47.41469" lon="6.68763">
        <ele>417</ele>
        <time>2015-07-08T09:08:39.000Z</time>
      </trkpt>
      <trkpt lat="47.41467" lon="6.68767">
        <ele>417</ele>
        <time>2015-07-08T09:08:40.000Z</time>
      </trkpt>
      <trkpt lat="47.41465" lon="6.68771">
        <ele>418</ele>
        <time>2015-07-08T09:08:41.000Z</time>
      </trkpt>
      <trkpt lat="47.41463" lon="6.68775">
        <ele>418</ele>
        <time>2015-07-08T09:08:42.000Z</time>
      </trkpt>
      <trkpt lat="47.41462" lon="6.68779">
        <ele>418</ele>
        <time>2015-07-08T09:08:43.000Z</time>
      </trkpt>
      <trkpt lat="47.4146" lon="6.68784">
        <ele>418</ele>
        <time>2015-07-08T09:08:44.000Z</time>
      </trkpt>
      <trkpt lat="47.41459" lon="6.68789">
        <ele>418</ele>
        <time>2015-07-08T09:08:45.000Z</time>
      </trkpt>
      <trkpt lat="47.41458" lon="6.68793">
        <ele>418</ele>
        <time>2015-07-08T09:08:46.000Z</time>
      </trkpt>
      <trkpt lat="47.41456" lon="6.68798">
        <ele>419</ele>
        <time>2015-07-08T09:08:47.000Z</time>
      </trkpt>
      <trkpt lat="47.41455" lon="6.68802">
        <ele>419</ele>
        <time>2015-07-08T09:08:48.000Z</time>
      </trkpt>
      <trkpt lat="47.41453" lon="6.68807">
        <ele>419</ele>
        <time>2015-07-08T09:08:49.000Z</time>
      </trkpt>
      <trkpt lat="47.41451" lon="6.68811">
        <ele>419</ele>
        <time>2015-07-08T09:08:50.000Z</time>
      </trkpt>
      <trkpt lat="47.41449" lon="6.68815">
        <ele>419</ele>
        <time>2015-07-08T09:08:51.000Z</time>
      </trkpt>
      <trkpt lat="47.41447" lon="6.68819">
        <ele>419</ele>
        <time>2015-07-08T09:08:52.000Z</time>
      </trkpt>
      <trkpt lat="47.41444" lon="6.68823">
        <ele>419</ele>
        <time>2015-07-08T09:08:53.000Z</time>
      </trkpt>
      <trkpt lat="47.41442" lon="6.68825">
        <ele>420</ele>
        <time>2015-07-08T09:08:54.000Z</time>
      </trkpt>
      <trkpt lat="47.41439" lon="6.68828">
        <ele>420</ele>
        <time>2015-07-08T09:08:55.000Z</time>
      </trkpt>
      <trkpt lat="47.41436" lon="6.68831">
        <ele>420</ele>
        <time>2015-07-08T09:08:56.000Z</time>
      </trkpt>
      <trkpt lat="47.41433" lon="6.68833">
        <ele>420</ele>
        <time>2015-07-08T09:08:57.000Z</time>
      </trkpt>
      <trkpt lat="47.4143" lon="6.68834">
        <ele>420</ele>
        <time>2015-07-08T09:08:58.000Z</time>
      </trkpt>
      <trkpt lat="47.41426" lon="6.68835">
        <ele>420</ele>
        <time>2015-07-08T09:08:59.000Z</time>
      </trkpt>
      <trkpt lat="47.41423" lon="6.68835">
        <ele>420</ele>
        <time>2015-07-08T09:09:00.000Z</time>
      </trkpt>
      <trkpt lat="47.41419" lon="6.68835">
        <ele>420</ele>
        <time>2015-07-08T09:09:01.000Z</time>
      </trkpt>
      <trkpt lat="47.41415" lon="6.68835">
        <ele>420</ele>
        <time>2015-07-08T09:09:02.000Z</time>
      </trkpt>
      <trkpt lat="47.41412" lon="6.68835">
        <ele>421</ele>
        <time>2015-07-08T09:09:03.000Z</time>
      </trkpt>
      <trkpt lat="47.41408" lon="6.68835">
        <ele>421</ele>
        <time>2015-07-08T09:09:04.000Z</time>
      </trkpt>
      <trkpt lat="47.41405" lon="6.68834">
        <ele>421</ele>
        <time>2015-07-08T09:09:05.000Z</time>
      </trkpt>
      <trkpt lat="47.41402" lon="6.68834">
        <ele>421</ele>
        <time>2015-07-08T09:09:06.000Z</time>
      </trkpt>
      <trkpt lat="47.41398" lon="6.68833">
        <ele>421</ele>
        <time>2015-07-08T09:09:07.000Z</time>
      </trkpt>
      <trkpt lat="47.41395" lon="6.68832">
        <ele>421</ele>
        <time>2015-07-08T09:09:08.000Z</time>
      </trkpt>
      <trkpt lat="47.41391" lon="6.68831">
        <ele>422</ele>
        <time>2015-07-08T09:09:09.000Z</time>
      </trkpt>
      <trkpt lat="47.41388" lon="6.6883">
        <ele>422</ele>
        <time>2015-07-08T09:09:10.000Z</time>
      </trkpt>
      <trkpt lat="47.41384" lon="6.68829">
        <ele>422</ele>
        <time>2015-07-08T09:09:11.000Z</time>
      </trkpt>
      <trkpt lat="47.4138" lon="6.68828">
        <ele>422</ele>
        <time>2015-07-08T09:09:12.000Z</time>
      </trkpt>
      <trkpt lat="47.41377" lon="6.68827">
        <ele>422</ele>
        <time>2015-07-08T09:09:13.000Z</time>
      </trkpt>
      <trkpt lat="47.41373" lon="6.68826">
        <ele>422</ele>
        <time>2015-07-08T09:09:14.000Z</time>
      </trkpt>
      <trkpt lat="47.4137" lon="6.68825">
        <ele>422</ele>
        <time>2015-07-08T09:09:15.000Z</time>
      </trkpt>
      <trkpt lat="47.41366" lon="6.68823">
        <ele>423</ele>
        <time>2015-07-08T09:09:16.000Z</time>
      </trkpt>
      <trkpt lat="47.41362" lon="6.68822">
        <ele>423</ele>
        <time>2015-07-08T09:09:17.000Z</time>
      </trkpt>
      <trkpt lat="47.41358" lon="6.68821">
        <ele>423</ele>
        <time>2015-07-08T09:09:18.000Z</time>
      </trkpt>
      <trkpt lat="47.41354" lon="6.68819">
        <ele>423</ele>
        <time>2015-07-08T09:09:19.000Z</time>
      </trkpt>
      <trkpt lat="47.4135" lon="6.68817">
        <ele>423</ele>
        <time>2015-07-08T09:09:20.000Z</time>
      </trkpt>
      <trkpt lat="47.41346" lon="6.68815">
        <ele>423</ele>
        <time>2015-07-08T09:09:21.000Z</time>
      </trkpt>
      <trkpt lat="47.41342" lon="6.68812">
        <ele>423</ele>
        <time>2015-07-08T09:09:22.000Z</time>
      </trkpt>
      <trkpt lat="47.41338" lon="6.68808">
        <ele>424</ele>
        <time>2015-07-08T09:09:23.000Z</time>
      </trkpt>
      <trkpt lat="47.41335" lon="6.68804">
        <ele>424</ele>
        <time>2015-07-08T09:09:24.000Z</time>
      </trkpt>
      <trkpt lat="47.41332" lon="6.68799">
        <ele>424</ele>
        <time>2015-07-08T09:09:25.000Z</time>
      </trkpt>
      <trkpt lat="47.41329" lon="6.68794">
        <ele>424</ele>
        <time>2015-07-08T09:09:26.000Z</time>
      </trkpt>
      <trkpt lat="47.41327" lon="6.68789">
        <ele>424</ele>
        <time>2015-07-08T09:09:27.000Z</time>
      </trkpt>
      <trkpt lat="47.41324" lon="6.68784">
        <ele>424</ele>
        <time>2015-07-08T09:09:28.000Z</time>
      </trkpt>
      <trkpt lat="47.41322" lon="6.68779">
        <ele>425</ele>
        <time>2015-07-08T09:09:29.000Z</time>
      </trkpt>
      <trkpt lat="47.4132" lon="6.68774">
        <ele>425</ele>
        <time>2015-07-08T09:09:30.000Z</time>
      </trkpt>
      <trkpt lat="47.41318" lon="6.68769">
        <ele>425</ele>
        <time>2015-07-08T09:09:31.000Z</time>
      </trkpt>
      <trkpt lat="47.41317" lon="6.68764">
        <ele>425</ele>
        <time>2015-07-08T09:09:32.000Z</time>
      </trkpt>
      <trkpt lat="47.41315" lon="6.68759">
        <ele>426</ele>
        <time>2015-07-08T09:09:33.000Z</time>
      </trkpt>
      <trkpt lat="47.41313" lon="6.68754">
        <ele>426</ele>
        <time>2015-07-08T09:09:34.000Z</time>
      </trkpt>
      <trkpt lat="47.41312" lon="6.68749">
        <ele>426</ele>
        <time>2015-07-08T09:09:35.000Z</time>
      </trkpt>
      <trkpt lat="47.4131" lon="6.68744">
        <ele>426</ele>
        <time>2015-07-08T09:09:36.000Z</time>
      </trkpt>
      <trkpt lat="47.41308" lon="6.68739">
        <ele>427</ele>
        <time>2015-07-08T09:09:37.000Z</time>
      </trkpt>
      <trkpt lat="47.41307" lon="6.68735">
        <ele>427</ele>
        <time>2015-07-08T09:09:38.000Z</time>
      </trkpt>
      <trkpt lat="47.41305" lon="6.6873">
        <ele>427</ele>
        <time>2015-07-08T09:09:39.000Z</time>
      </trkpt>
      <trkpt lat="47.41303" lon="6.68726">
        <ele>427</ele>
        <time>2015-07-08T09:09:40.000Z</time>
      </trkpt>
      <trkpt lat="47.41301" lon="6.68722">
        <ele>428</ele>
        <time>2015-07-08T09:09:41.000Z</time>
      </trkpt>
      <trkpt lat="47.41299" lon="6.68718">
        <ele>428</ele>
        <time>2015-07-08T09:09:42.000Z</time>
      </trkpt>
      <trkpt lat="47.41297" lon="6.68714">
        <ele>428</ele>
        <time>2015-07-08T09:09:43.000Z</time>
      </trkpt>
      <trkpt lat="47.41294" lon="6.68711">
        <ele>428</ele>
        <time>2015-07-08T09:09:44.000Z</time>
      </trkpt>
      <trkpt lat="47.41292" lon="6.68707">
        <ele>429</ele>
        <time>2015-07-08T09:09:45.000Z</time>
      </trkpt>
      <trkpt lat="47.41289" lon="6.68705">
        <ele>429</ele>
        <time>2015-07-08T09:09:46.000Z</time>
      </trkpt>
      <trkpt lat="47.41287" lon="6.68702">
        <ele>429</ele>
        <time>2015-07-08T09:09:47.000Z</time>
      </trkpt>
      <trkpt lat="47.41284" lon="6.687">
        <ele>430</ele>
        <time>2015-07-08T09:09:48.000Z</time>
      </trkpt>
      <trkpt lat="47.41281" lon="6.68699">
        <ele>430</ele>
        <time>2015-07-08T09:09:49.000Z</time>
      </trkpt>
      <trkpt lat="47.41278" lon="6.68698">
        <ele>430</ele>
        <time>2015-07-08T09:09:50.000Z</time>
      </trkpt>
      <trkpt lat="47.41274" lon="6.68698">
        <ele>430</ele>
        <time>2015-07-08T09:09:51.000Z</time>
      </trkpt>
      <trkpt lat="47.41271" lon="6.68699">
        <ele>431</ele>
        <time>2015-07-08T09:09:52.000Z</time>
      </trkpt>
      <trkpt lat="47.41268" lon="6.68701">
        <ele>431</ele>
        <time>2015-07-08T09:09:53.000Z</time>
      </trkpt>
      <trkpt lat="47.41264" lon="6.68702">
        <ele>431</ele>
        <time>2015-07-08T09:09:54.000Z</time>
      </trkpt>
      <trkpt lat="47.41261" lon="6.68704">
        <ele>431</ele>
        <time>2015-07-08T09:09:55.000Z</time>
      </trkpt>
      <trkpt lat="47.41258" lon="6.68707">
        <ele>432</ele>
        <time>2015-07-08T09:09:56.000Z</time>
      </trkpt>
      <trkpt lat="47.41255" lon="6.68711">
        <ele>432</ele>
        <time>2015-07-08T09:09:57.000Z</time>
      </trkpt>
      <trkpt lat="47.41252" lon="6.68714">
        <ele>432</ele>
        <time>2015-07-08T09:09:58.000Z</time>
      </trkpt>
      <trkpt lat="47.41249" lon="6.68717">
        <ele>432</ele>
        <time>2015-07-08T09:09:59.000Z</time>
      </trkpt>
      <trkpt lat="47.41246" lon="6.68721">
        <ele>432</ele>
        <time>2015-07-08T09:10:00.000Z</time>
      </trkpt>
      <trkpt lat="47.41243" lon="6.68723">
        <ele>433</ele>
        <time>2015-07-08T09:10:01.000Z</time>
      </trkpt>
      <trkpt lat="47.41239" lon="6.68727">
        <ele>433</ele>
        <time>2015-07-08T09:10:02.000Z</time>
      </trkpt>
      <trkpt lat="47.41236" lon="6.6873">
        <ele>433</ele>
        <time>2015-07-08T09:10:03.000Z</time>
      </trkpt>
      <trkpt lat="47.41233" lon="6.68733">
        <ele>433</ele>
        <time>2015-07-08T09:10:04.000Z</time>
      </trkpt>
      <trkpt lat="47.4123" lon="6.68736">
        <ele>434</ele>
        <time>2015-07-08T09:10:05.000Z</time>
      </trkpt>
      <trkpt lat="47.41227" lon="6.68739">
        <ele>434</ele>
        <time>2015-07-08T09:10:06.000Z</time>
      </trkpt>
      <trkpt lat="47.41223" lon="6.68742">
        <ele>434</ele>
        <time>2015-07-08T09:10:07.000Z</time>
      </trkpt>
      <trkpt lat="47.4122" lon="6.68745">
        <ele>434</ele>
        <time>2015-07-08T09:10:08.000Z</time>
      </trkpt>
      <trkpt lat="47.41218" lon="6.68748">
        <ele>435</ele>
        <time>2015-07-08T09:10:09.000Z</time>
      </trkpt>
      <trkpt lat="47.41215" lon="6.68751">
        <ele>435</ele>
        <time>2015-07-08T09:10:10.000Z</time>
      </trkpt>
      <trkpt lat="47.41212" lon="6.68754">
        <ele>435</ele>
        <time>2015-07-08T09:10:11.000Z</time>
      </trkpt>
      <trkpt lat="47.41209" lon="6.68758">
        <ele>435</ele>
        <time>2015-07-08T09:10:12.000Z</time>
      </trkpt>
      <trkpt lat="47.41206" lon="6.68761">
        <ele>436</ele>
        <time>2015-07-08T09:10:13.000Z</time>
      </trkpt>
      <trkpt lat="47.41203" lon="6.68764">
        <ele>436</ele>
        <time>2015-07-08T09:10:14.000Z</time>
      </trkpt>
      <trkpt lat="47.412" lon="6.68767">
        <ele>436</ele>
        <time>2015-07-08T09:10:15.000Z</time>
      </trkpt>
      <trkpt lat="47.41197" lon="6.6877">
        <ele>436</ele>
        <time>2015-07-08T09:10:16.000Z</time>
      </trkpt>
      <trkpt lat="47.41194" lon="6.68773">
        <ele>437</ele>
        <time>2015-07-08T09:10:17.000Z</time>
      </trkpt>
      <trkpt lat="47.41191" lon="6.68775">
        <ele>437</ele>
        <time>2015-07-08T09:10:18.000Z</time>
      </trkpt>
      <trkpt lat="47.41188" lon="6.68778">
        <ele>437</ele>
        <time>2015-07-08T09:10:19.000Z</time>
      </trkpt>
      <trkpt lat="47.41185" lon="6.68781">
        <ele>438</ele>
        <time>2015-07-08T09:10:20.000Z</time>
      </trkpt>
      <trkpt lat="47.41183" lon="6.68783">
        <ele>438</ele>
        <time>2015-07-08T09:10:21.000Z</time>
      </trkpt>
      <trkpt lat="47.4118" lon="6.68786">
        <ele>438</ele>
        <time>2015-07-08T09:10:22.000Z</time>
      </trkpt>
      <trkpt lat="47.41177" lon="6.68789">
        <ele>438</ele>
        <time>2015-07-08T09:10:23.000Z</time>
      </trkpt>
      <trkpt lat="47.41174" lon="6.68792">
        <ele>439</ele>
        <time>2015-07-08T09:10:24.000Z</time>
      </trkpt>
      <trkpt lat="47.41172" lon="6.68795">
        <ele>439</ele>
        <time>2015-07-08T09:10:25.000Z</time>
      </trkpt>
      <trkpt lat="47.41169" lon="6.68798">
        <ele>439</ele>
        <time>2015-07-08T09:10:26.000Z</time>
      </trkpt>
      <trkpt lat="47.41167" lon="6.68801">
        <ele>439</ele>
        <time>2015-07-08T09:10:27.000Z</time>
      </trkpt>
      <trkpt lat="47.41164" lon="6.68804">
        <ele>440</ele>
        <time>2015-07-08T09:10:28.000Z</time>
      </trkpt>
      <trkpt lat="47.41162" lon="6.68808">
        <ele>440</ele>
        <time>2015-07-08T09:10:29.000Z</time>
      </trkpt>
      <trkpt lat="47.4116" lon="6.68812">
        <ele>440</ele>
        <time>2015-07-08T09:10:30.000Z</time>
      </trkpt>
      <trkpt lat="47.41158" lon="6.68816">
        <ele>440</ele>
        <time>2015-07-08T09:10:31.000Z</time>
      </trkpt>
      <trkpt lat="47.41157" lon="6.6882">
        <ele>440</ele>
        <time>2015-07-08T09:10:32.000Z</time>
      </trkpt>
      <trkpt lat="47.41155" lon="6.68824">
        <ele>441</ele>
        <time>2015-07-08T09:10:33.000Z</time>
      </trkpt>
      <trkpt lat="47.41154" lon="6.68829">
        <ele>441</ele>
        <time>2015-07-08T09:10:34.000Z</time>
      </trkpt>
      <trkpt lat="47.41153" lon="6.68833">
        <ele>441</ele>
        <time>2015-07-08T09:10:35.000Z</time>
      </trkpt>
      <trkpt lat="47.41152" lon="6.68838">
        <ele>442</ele>
        <time>2015-07-08T09:10:36.000Z</time>
      </trkpt>
      <trkpt lat="47.41152" lon="6.68842">
        <ele>442</ele>
        <time>2015-07-08T09:10:37.000Z</time>
      </trkpt>
      <trkpt lat="47.41151" lon="6.68847">
        <ele>442</ele>
        <time>2015-07-08T09:10:38.000Z</time>
      </trkpt>
      <trkpt lat="47.41151" lon="6.68852">
        <ele>442</ele>
        <time>2015-07-08T09:10:39.000Z</time>
      </trkpt>
      <trkpt lat="47.41151" lon="6.68857">
        <ele>443</ele>
        <time>2015-07-08T09:10:40.000Z</time>
      </trkpt>
      <trkpt lat="47.41151" lon="6.68862">
        <ele>443</ele>
        <time>2015-07-08T09:10:41.000Z</time>
      </trkpt>
      <trkpt lat="47.41151" lon="6.68866">
        <ele>443</ele>
        <time>2015-07-08T09:10:42.000Z</time>
      </trkpt>
      <trkpt lat="47.4115" lon="6.68871">
        <ele>443</ele>
        <time>2015-07-08T09:10:43.000Z</time>
      </trkpt>
      <trkpt lat="47.4115" lon="6.68876">
        <ele>443</ele>
        <time>2015-07-08T09:10:44.000Z</time>
      </trkpt>
      <trkpt lat="47.4115" lon="6.6888">
        <ele>444</ele>
        <time>2015-07-08T09:10:45.000Z</time>
      </trkpt>
      <trkpt lat="47.41149" lon="6.68884">
        <ele>444</ele>
        <time>2015-07-08T09:10:46.000Z</time>
      </trkpt>
      <trkpt lat="47.41149" lon="6.68889">
        <ele>444</ele>
        <time>2015-07-08T09:10:47.000Z</time>
      </trkpt>
      <trkpt lat="47.41148" lon="6.68893">
        <ele>445</ele>
        <time>2015-07-08T09:10:48.000Z</time>
      </trkpt>
      <trkpt lat="47.41147" lon="6.68897">
        <ele>445</ele>
        <time>2015-07-08T09:10:49.000Z</time>
      </trkpt>
      <trkpt lat="47.41146" lon="6.68901">
        <ele>445</ele>
        <time>2015-07-08T09:10:50.000Z</time>
      </trkpt>
      <trkpt lat="47.41144" lon="6.68905">
        <ele>445</ele>
        <time>2015-07-08T09:10:51.000Z</time>
      </trkpt>
      <trkpt lat="47.41142" lon="6.68908">
        <ele>446</ele>
        <time>2015-07-08T09:10:52.000Z</time>
      </trkpt>
      <trkpt lat="47.41141" lon="6.68912">
        <ele>446</ele>
        <time>2015-07-08T09:10:53.000Z</time>
      </trkpt>
      <trkpt lat="47.41139" lon="6.68915">
        <ele>446</ele>
        <time>2015-07-08T09:10:54.000Z</time>
      </trkpt>
      <trkpt lat="47.41137" lon="6.68918">
        <ele>447</ele>
        <time>2015-07-08T09:10:55.000Z</time>
      </trkpt>
      <trkpt lat="47.41135" lon="6.68921">
        <ele>447</ele>
        <time>2015-07-08T09:10:56.000Z</time>
      </trkpt>
      <trkpt lat="47.41133" lon="6.68924">
        <ele>447</ele>
        <time>2015-07-08T09:10:57.000Z</time>
      </trkpt>
      <trkpt lat="47.41131" lon="6.68927">
        <ele>448</ele>
        <time>2015-07-08T09:10:58.000Z</time>
      </trkpt>
      <trkpt lat="47.41129" lon="6.6893">
        <ele>448</ele>
        <time>2015-07-08T09:10:59.000Z</time>
      </trkpt>
      <trkpt lat="47.41126" lon="6.68933">
        <ele>448</ele>
        <time>2015-07-08T09:11:00.000Z</time>
      </trkpt>
      <trkpt lat="47.41124" lon="6.68936">
        <ele>449</ele>
        <time>2015-07-08T09:11:01.000Z</time>
      </trkpt>
      <trkpt lat="47.41122" lon="6.68938">
        <ele>449</ele>
        <time>2015-07-08T09:11:02.000Z</time>
      </trkpt>
      <trkpt lat="47.41119" lon="6.68939">
        <ele>449</ele>
        <time>2015-07-08T09:11:03.000Z</time>
      </trkpt>
      <trkpt lat="47.41117" lon="6.68941">
        <ele>450</ele>
        <time>2015-07-08T09:11:04.000Z</time>
      </trkpt>
      <trkpt lat="47.41115" lon="6.68943">
        <ele>450</ele>
        <time>2015-07-08T09:11:05.000Z</time>
      </trkpt>
      <trkpt lat="47.41113" lon="6.68944">
        <ele>450</ele>
        <time>2015-07-08T09:11:06.000Z</time>
      </trkpt>
      <trkpt lat="47.41111" lon="6.68945">
        <ele>450</ele>
        <time>2015-07-08T09:11:07.000Z</time>
      </trkpt>
      <trkpt lat="47.41108" lon="6.68947">
        <ele>450</ele>
        <time>2015-07-08T09:11:08.000Z</time>
      </trkpt>
      <trkpt lat="47.41106" lon="6.68948">
        <ele>450</ele>
        <time>2015-07-08T09:11:09.000Z</time>
      </trkpt>
      <trkpt lat="47.41104" lon="6.68949">
        <ele>451</ele>
        <time>2015-07-08T09:11:10.000Z</time>
      </trkpt>
      <trkpt lat="47.41102" lon="6.68951">
        <ele>451</ele>
        <time>2015-07-08T09:11:11.000Z</time>
      </trkpt>
      <trkpt lat="47.411" lon="6.68953">
        <ele>451</ele>
        <time>2015-07-08T09:11:12.000Z</time>
      </trkpt>
      <trkpt lat="47.41098" lon="6.68954">
        <ele>451</ele>
        <time>2015-07-08T09:11:13.000Z</time>
      </trkpt>
      <trkpt lat="47.41096" lon="6.68955">
        <ele>451</ele>
        <time>2015-07-08T09:11:14.000Z</time>
      </trkpt>
      <trkpt lat="47.41096" lon="6.68957">
        <ele>451</ele>
        <time>2015-07-08T09:11:15.000Z</time>
      </trkpt>
      <trkpt lat="47.41096" lon="6.68958">
        <ele>451</ele>
        <time>2015-07-08T09:11:16.000Z</time>
      </trkpt>
      <trkpt lat="47.41097" lon="6.68958">
        <ele>451</ele>
        <time>2015-07-08T09:11:17.000Z</time>
      </trkpt>
      <trkpt lat="47.41098" lon="6.68957">
        <ele>451</ele>
        <time>2015-07-08T09:11:18.000Z</time>
      </trkpt>
      <trkpt lat="47.411" lon="6.68956">
        <ele>451</ele>
        <time>2015-07-08T09:11:19.000Z</time>
      </trkpt>
      <trkpt lat="47.41101" lon="6.68956">
        <ele>451</ele>
        <time>2015-07-08T09:11:20.000Z</time>
      </trkpt>
      <trkpt lat="47.41101" lon="6.68955">
        <ele>451</ele>
        <time>2015-07-08T09:11:21.000Z</time>
      </trkpt>
      <trkpt lat="47.41102" lon="6.68955">
        <ele>451</ele>
        <time>2015-07-08T09:11:22.000Z</time>
      </trkpt>
      <trkpt lat="47.41103" lon="6.68954">
        <ele>451</ele>
        <time>2015-07-08T09:11:23.000Z</time>
      </trkpt>
      <trkpt lat="47.41104" lon="6.68954">
        <ele>451</ele>
        <time>2015-07-08T09:11:24.000Z</time>
      </trkpt>
      <trkpt lat="47.41104" lon="6.68953">
        <ele>451</ele>
        <time>2015-07-08T09:11:25.000Z</time>
      </trkpt>
      <trkpt lat="47.41103" lon="6.68951">
        <ele>451</ele>
        <time>2015-07-08T09:11:26.000Z</time>
      </trkpt>
      <trkpt lat="47.41102" lon="6.68951">
        <ele>451</ele>
        <time>2015-07-08T09:11:27.000Z</time>
      </trkpt>
      <trkpt lat="47.411" lon="6.68952">
        <ele>451</ele>
        <time>2015-07-08T09:11:28.000Z</time>
      </trkpt>
      <trkpt lat="47.41099" lon="6.68954">
        <ele>451</ele>
        <time>2015-07-08T09:11:29.000Z</time>
      </trkpt>
      <trkpt lat="47.41097" lon="6.68955">
        <ele>451</ele>
        <time>2015-07-08T09:11:30.000Z</time>
      </trkpt>
      <trkpt lat="47.41095" lon="6.68956">
        <ele>451</ele>
        <time>2015-07-08T09:11:31.000Z</time>
      </trkpt>
      <trkpt lat="47.41093" lon="6.68957">
        <ele>451</ele>
        <time>2015-07-08T09:11:32.000Z</time>
      </trkpt>
      <trkpt lat="47.41091" lon="6.68958">
        <ele>452</ele>
        <time>2015-07-08T09:11:33.000Z</time>
      </trkpt>
      <trkpt lat="47.41089" lon="6.68959">
        <ele>452</ele>
        <time>2015-07-08T09:11:34.000Z</time>
      </trkpt>
      <trkpt lat="47.41087" lon="6.6896">
        <ele>452</ele>
        <time>2015-07-08T09:11:35.000Z</time>
      </trkpt>
      <trkpt lat="47.41085" lon="6.68962">
        <ele>452</ele>
        <time>2015-07-08T09:11:36.000Z</time>
      </trkpt>
      <trkpt lat="47.41083" lon="6.68963">
        <ele>452</ele>
        <time>2015-07-08T09:11:37.000Z</time>
      </trkpt>
      <trkpt lat="47.41081" lon="6.68964">
        <ele>452</ele>
        <time>2015-07-08T09:11:38.000Z</time>
      </trkpt>
      <trkpt lat="47.41079" lon="6.68966">
        <ele>452</ele>
        <time>2015-07-08T09:11:39.000Z</time>
      </trkpt>
      <trkpt lat="47.41077" lon="6.68967">
        <ele>452</ele>
        <time>2015-07-08T09:11:40.000Z</time>
      </trkpt>
      <trkpt lat="47.41074" lon="6.68968">
        <ele>453</ele>
        <time>2015-07-08T09:11:41.000Z</time>
      </trkpt>
      <trkpt lat="47.41072" lon="6.6897">
        <ele>453</ele>
        <time>2015-07-08T09:11:42.000Z</time>
      </trkpt>
      <trkpt lat="47.4107" lon="6.68971">
        <ele>453</ele>
        <time>2015-07-08T09:11:43.000Z</time>
      </trkpt>
      <trkpt lat="47.41067" lon="6.68972">
        <ele>453</ele>
        <time>2015-07-08T09:11:44.000Z</time>
      </trkpt>
      <trkpt lat="47.41065" lon="6.68974">
        <ele>453</ele>
        <time>2015-07-08T09:11:45.000Z</time>
      </trkpt>
      <trkpt lat="47.41063" lon="6.68975">
        <ele>453</ele>
        <time>2015-07-08T09:11:46.000Z</time>
      </trkpt>
      <trkpt lat="47.4106" lon="6.68976">
        <ele>453</ele>
        <time>2015-07-08T09:11:47.000Z</time>
      </trkpt>
      <trkpt lat="47.41058" lon="6.68977">
        <ele>453</ele>
        <time>2015-07-08T09:11:48.000Z</time>
      </trkpt>
      <trkpt lat="47.41055" lon="6.68978">
        <ele>453</ele>
        <time>2015-07-08T09:11:49.000Z</time>
      </trkpt>
      <trkpt lat="47.41053" lon="6.68979">
        <ele>454</ele>
        <time>2015-07-08T09:11:50.000Z</time>
      </trkpt>
      <trkpt lat="47.41051" lon="6.68979">
        <ele>454</ele>
        <time>2015-07-08T09:11:51.000Z</time>
      </trkpt>
      <trkpt lat="47.41049" lon="6.6898">
        <ele>454</ele>
        <time>2015-07-08T09:11:52.000Z</time>
      </trkpt>
      <trkpt lat="47.41047" lon="6.68981">
        <ele>454</ele>
        <time>2015-07-08T09:11:53.000Z</time>
      </trkpt>
      <trkpt lat="47.41045" lon="6.68982">
        <ele>454</ele>
        <time>2015-07-08T09:11:54.000Z</time>
      </trkpt>
      <trkpt lat="47.41042" lon="6.68983">
        <ele>454</ele>
        <time>2015-07-08T09:11:55.000Z</time>
      </trkpt>
      <trkpt lat="47.4104" lon="6.68984">
        <ele>454</ele>
        <time>2015-07-08T09:11:56.000Z</time>
      </trkpt>
      <trkpt lat="47.41037" lon="6.68985">
        <ele>454</ele>
        <time>2015-07-08T09:11:57.000Z</time>
      </trkpt>
      <trkpt lat="47.41034" lon="6.68985">
        <ele>455</ele>
        <time>2015-07-08T09:11:58.000Z</time>
      </trkpt>
      <trkpt lat="47.41032" lon="6.68986">
        <ele>455</ele>
        <time>2015-07-08T09:11:59.000Z</time>
      </trkpt>
      <trkpt lat="47.41029" lon="6.68988">
        <ele>455</ele>
        <time>2015-07-08T09:12:00.000Z</time>
      </trkpt>
      <trkpt lat="47.41027" lon="6.68989">
        <ele>455</ele>
        <time>2015-07-08T09:12:01.000Z</time>
      </trkpt>
      <trkpt lat="47.41024" lon="6.6899">
        <ele>455</ele>
        <time>2015-07-08T09:12:02.000Z</time>
      </trkpt>
      <trkpt lat="47.41021" lon="6.6899">
        <ele>455</ele>
        <time>2015-07-08T09:12:03.000Z</time>
      </trkpt>
      <trkpt lat="47.41019" lon="6.68991">
        <ele>455</ele>
        <time>2015-07-08T09:12:04.000Z</time>
      </trkpt>
      <trkpt lat="47.41016" lon="6.68992">
        <ele>455</ele>
        <time>2015-07-08T09:12:05.000Z</time>
      </trkpt>
      <trkpt lat="47.41014" lon="6.68993">
        <ele>455</ele>
        <time>2015-07-08T09:12:06.000Z</time>
      </trkpt>
      <trkpt lat="47.41013" lon="6.68994">
        <ele>455</ele>
        <time>2015-07-08T09:12:07.000Z</time>
      </trkpt>
      <trkpt lat="47.41011" lon="6.68995">
        <ele>456</ele>
        <time>2015-07-08T09:12:08.000Z</time>
      </trkpt>
      <trkpt lat="47.4101" lon="6.68995">
        <ele>456</ele>
        <time>2015-07-08T09:12:09.000Z</time>
      </trkpt>
      <trkpt lat="47.41008" lon="6.68996">
        <ele>456</ele>
        <time>2015-07-08T09:12:10.000Z</time>
      </trkpt>
      <trkpt lat="47.41006" lon="6.68996">
        <ele>456</ele>
        <time>2015-07-08T09:12:11.000Z</time>
      </trkpt>
      <trkpt lat="47.41004" lon="6.68996">
        <ele>456</ele>
        <time>2015-07-08T09:12:12.000Z</time>
      </trkpt>
      <trkpt lat="47.41002" lon="6.68996">
        <ele>456</ele>
        <time>2015-07-08T09:12:13.000Z</time>
      </trkpt>
      <trkpt lat="47.41" lon="6.68997">
        <ele>456</ele>
        <time>2015-07-08T09:12:14.000Z</time>
      </trkpt>
      <trkpt lat="47.40998" lon="6.68998">
        <ele>456</ele>
        <time>2015-07-08T09:12:15.000Z</time>
      </trkpt>
      <trkpt lat="47.40996" lon="6.68998">
        <ele>456</ele>
        <time>2015-07-08T09:12:16.000Z</time>
      </trkpt>
      <trkpt lat="47.40994" lon="6.68999">
        <ele>456</ele>
        <time>2015-07-08T09:12:17.000Z</time>
      </trkpt>
      <trkpt lat="47.40992" lon="6.69">
        <ele>456</ele>
        <time>2015-07-08T09:12:18.000Z</time>
      </trkpt>
      <trkpt lat="47.4099" lon="6.69001">
        <ele>457</ele>
        <time>2015-07-08T09:12:19.000Z</time>
      </trkpt>
      <trkpt lat="47.40988" lon="6.69002">
        <ele>457</ele>
        <time>2015-07-08T09:12:20.000Z</time>
      </trkpt>
      <trkpt lat="47.40985" lon="6.69003">
        <ele>457</ele>
        <time>2015-07-08T09:12:21.000Z</time>
      </trkpt>
      <trkpt lat="47.40983" lon="6.69004">
        <ele>457</ele>
        <time>2015-07-08T09:12:22.000Z</time>
      </trkpt>
      <trkpt lat="47.4098" lon="6.69004">
        <ele>457</ele>
        <time>2015-07-08T09:12:23.000Z</time>
      </trkpt>
      <trkpt lat="47.40978" lon="6.69005">
        <ele>457</ele>
        <time>2015-07-08T09:12:24.000Z</time>
      </trkpt>
      <trkpt lat="47.40975" lon="6.69006">
        <ele>457</ele>
        <time>2015-07-08T09:12:25.000Z</time>
      </trkpt>
      <trkpt lat="47.40973" lon="6.69006">
        <ele>457</ele>
        <time>2015-07-08T09:12:26.000Z</time>
      </trkpt>
      <trkpt lat="47.4097" lon="6.69007">
        <ele>457</ele>
        <time>2015-07-08T09:12:27.000Z</time>
      </trkpt>
      <trkpt lat="47.40968" lon="6.69008">
        <ele>458</ele>
        <time>2015-07-08T09:12:28.000Z</time>
      </trkpt>
      <trkpt lat="47.40965" lon="6.69009">
        <ele>458</ele>
        <time>2015-07-08T09:12:29.000Z</time>
      </trkpt>
      <trkpt lat="47.40963" lon="6.6901">
        <ele>458</ele>
        <time>2015-07-08T09:12:30.000Z</time>
      </trkpt>
      <trkpt lat="47.40961" lon="6.6901">
        <ele>458</ele>
        <time>2015-07-08T09:12:31.000Z</time>
      </trkpt>
      <trkpt lat="47.40958" lon="6.69011">
        <ele>458</ele>
        <time>2015-07-08T09:12:32.000Z</time>
      </trkpt>
      <trkpt lat="47.40956" lon="6.69012">
        <ele>458</ele>
        <time>2015-07-08T09:12:33.000Z</time>
      </trkpt>
      <trkpt lat="47.40954" lon="6.69013">
        <ele>458</ele>
        <time>2015-07-08T09:12:34.000Z</time>
      </trkpt>
      <trkpt lat="47.40951" lon="6.69013">
        <ele>459</ele>
        <time>2015-07-08T09:12:35.000Z</time>
      </trkpt>
      <trkpt lat="47.40949" lon="6.69014">
        <ele>459</ele>
        <time>2015-07-08T09:12:36.000Z</time>
      </trkpt>
      <trkpt lat="47.40947" lon="6.69015">
        <ele>459</ele>
        <time>2015-07-08T09:12:37.000Z</time>
      </trkpt>
      <trkpt lat="47.40945" lon="6.69015">
        <ele>459</ele>
        <time>2015-07-08T09:12:38.000Z</time>
      </trkpt>
      <trkpt lat="47.40943" lon="6.69016">
        <ele>459</ele>
        <time>2015-07-08T09:12:39.000Z</time>
      </trkpt>
      <trkpt lat="47.40941" lon="6.69017">
        <ele>459</ele>
        <time>2015-07-08T09:12:40.000Z</time>
      </trkpt>
      <trkpt lat="47.40939" lon="6.69017">
        <ele>460</ele>
        <time>2015-07-08T09:12:41.000Z</time>
      </trkpt>
      <trkpt lat="47.40937" lon="6.69018">
        <ele>460</ele>
        <time>2015-07-08T09:12:42.000Z</time>
      </trkpt>
      <trkpt lat="47.40935" lon="6.69019">
        <ele>460</ele>
        <time>2015-07-08T09:12:43.000Z</time>
      </trkpt>
      <trkpt lat="47.40933" lon="6.6902">
        <ele>460</ele>
        <time>2015-07-08T09:12:44.000Z</time>
      </trkpt>
      <trkpt lat="47.4093" lon="6.69021">
        <ele>460</ele>
        <time>2015-07-08T09:12:45.000Z</time>
      </trkpt>
      <trkpt lat="47.40928" lon="6.69021">
        <ele>460</ele>
        <time>2015-07-08T09:12:46.000Z</time>
      </trkpt>
      <trkpt lat="47.40926" lon="6.69022">
        <ele>461</ele>
        <time>2015-07-08T09:12:47.000Z</time>
      </trkpt>
      <trkpt lat="47.40924" lon="6.69023">
        <ele>461</ele>
        <time>2015-07-08T09:12:48.000Z</time>
      </trkpt>
      <trkpt lat="47.40923" lon="6.69023">
        <ele>461</ele>
        <time>2015-07-08T09:12:49.000Z</time>
      </trkpt>
      <trkpt lat="47.40921" lon="6.69024">
        <ele>461</ele>
        <time>2015-07-08T09:12:50.000Z</time>
      </trkpt>
      <trkpt lat="47.40919" lon="6.69024">
        <ele>461</ele>
        <time>2015-07-08T09:12:51.000Z</time>
      </trkpt>
      <trkpt lat="47.40917" lon="6.69025">
        <ele>462</ele>
        <time>2015-07-08T09:12:52.000Z</time>
      </trkpt>
      <trkpt lat="47.40915" lon="6.69026">
        <ele>462</ele>
        <time>2015-07-08T09:12:53.000Z</time>
      </trkpt>
      <trkpt lat="47.40913" lon="6.69028">
        <ele>462</ele>
        <time>2015-07-08T09:12:54.000Z</time>
      </trkpt>
      <trkpt lat="47.40911" lon="6.69029">
        <ele>462</ele>
        <time>2015-07-08T09:12:55.000Z</time>
      </trkpt>
      <trkpt lat="47.40909" lon="6.69029">
        <ele>462</ele>
        <time>2015-07-08T09:12:56.000Z</time>
      </trkpt>
      <trkpt lat="47.40906" lon="6.6903">
        <ele>462</ele>
        <time>2015-07-08T09:12:57.000Z</time>
      </trkpt>
      <trkpt lat="47.40904" lon="6.69031">
        <ele>462</ele>
        <time>2015-07-08T09:12:58.000Z</time>
      </trkpt>
      <trkpt lat="47.40903" lon="6.69032">
        <ele>463</ele>
        <time>2015-07-08T09:12:59.000Z</time>
      </trkpt>
      <trkpt lat="47.409" lon="6.69034">
        <ele>463</ele>
        <time>2015-07-08T09:13:00.000Z</time>
      </trkpt>
      <trkpt lat="47.40898" lon="6.69035">
        <ele>463</ele>
        <time>2015-07-08T09:13:01.000Z</time>
      </trkpt>
      <trkpt lat="47.40895" lon="6.69036">
        <ele>463</ele>
        <time>2015-07-08T09:13:02.000Z</time>
      </trkpt>
      <trkpt lat="47.40893" lon="6.69037">
        <ele>464</ele>
        <time>2015-07-08T09:13:03.000Z</time>
      </trkpt>
      <trkpt lat="47.40891" lon="6.69039">
        <ele>464</ele>
        <time>2015-07-08T09:13:04.000Z</time>
      </trkpt>
      <trkpt lat="47.40889" lon="6.6904">
        <ele>464</ele>
        <time>2015-07-08T09:13:05.000Z</time>
      </trkpt>
      <trkpt lat="47.40887" lon="6.69041">
        <ele>464</ele>
        <time>2015-07-08T09:13:06.000Z</time>
      </trkpt>
      <trkpt lat="47.40884" lon="6.69042">
        <ele>464</ele>
        <time>2015-07-08T09:13:07.000Z</time>
      </trkpt>
      <trkpt lat="47.40881" lon="6.69043">
        <ele>465</ele>
        <time>2015-07-08T09:13:08.000Z</time>
      </trkpt>
      <trkpt lat="47.40878" lon="6.69043">
        <ele>465</ele>
        <time>2015-07-08T09:13:09.000Z</time>
      </trkpt>
      <trkpt lat="47.40876" lon="6.69045">
        <ele>465</ele>
        <time>2015-07-08T09:13:10.000Z</time>
      </trkpt>
      <trkpt lat="47.40874" lon="6.69046">
        <ele>465</ele>
        <time>2015-07-08T09:13:11.000Z</time>
      </trkpt>
      <trkpt lat="47.40872" lon="6.69047">
        <ele>465</ele>
        <time>2015-07-08T09:13:12.000Z</time>
      </trkpt>
      <trkpt lat="47.40869" lon="6.69048">
        <ele>465</ele>
        <time>2015-07-08T09:13:13.000Z</time>
      </trkpt>
      <trkpt lat="47.40866" lon="6.69049">
        <ele>465</ele>
        <time>2015-07-08T09:13:14.000Z</time>
      </trkpt>
      <trkpt lat="47.40864" lon="6.6905">
        <ele>465</ele>
        <time>2015-07-08T09:13:15.000Z</time>
      </trkpt>
      <trkpt lat="47.40861" lon="6.69051">
        <ele>465</ele>
        <time>2015-07-08T09:13:16.000Z</time>
      </trkpt>
      <trkpt lat="47.40858" lon="6.69053">
        <ele>465</ele>
        <time>2015-07-08T09:13:17.000Z</time>
      </trkpt>
      <trkpt lat="47.40855" lon="6.69054">
        <ele>465</ele>
        <time>2015-07-08T09:13:18.000Z</time>
      </trkpt>
      <trkpt lat="47.40851" lon="6.69057">
        <ele>465</ele>
        <time>2015-07-08T09:13:19.000Z</time>
      </trkpt>
      <trkpt lat="47.40848" lon="6.69058">
        <ele>465</ele>
        <time>2015-07-08T09:13:20.000Z</time>
      </trkpt>
      <trkpt lat="47.40845" lon="6.6906">
        <ele>465</ele>
        <time>2015-07-08T09:13:21.000Z</time>
      </trkpt>
      <trkpt lat="47.40842" lon="6.69062">
        <ele>465</ele>
        <time>2015-07-08T09:13:22.000Z</time>
      </trkpt>
      <trkpt lat="47.40839" lon="6.69063">
        <ele>465</ele>
        <time>2015-07-08T09:13:23.000Z</time>
      </trkpt>
      <trkpt lat="47.40836" lon="6.69065">
        <ele>465</ele>
        <time>2015-07-08T09:13:24.000Z</time>
      </trkpt>
      <trkpt lat="47.40833" lon="6.69067">
        <ele>465</ele>
        <time>2015-07-08T09:13:25.000Z</time>
      </trkpt>
      <trkpt lat="47.40829" lon="6.6907">
        <ele>465</ele>
        <time>2015-07-08T09:13:26.000Z</time>
      </trkpt>
      <trkpt lat="47.40826" lon="6.69072">
        <ele>465</ele>
        <time>2015-07-08T09:13:27.000Z</time>
      </trkpt>
      <trkpt lat="47.40823" lon="6.69074">
        <ele>465</ele>
        <time>2015-07-08T09:13:28.000Z</time>
      </trkpt>
      <trkpt lat="47.40819" lon="6.69076">
        <ele>464</ele>
        <time>2015-07-08T09:13:29.000Z</time>
      </trkpt>
      <trkpt lat="47.40816" lon="6.69078">
        <ele>464</ele>
        <time>2015-07-08T09:13:30.000Z</time>
      </trkpt>
      <trkpt lat="47.40812" lon="6.6908">
        <ele>464</ele>
        <time>2015-07-08T09:13:31.000Z</time>
      </trkpt>
      <trkpt lat="47.40809" lon="6.69082">
        <ele>464</ele>
        <time>2015-07-08T09:13:32.000Z</time>
      </trkpt>
      <trkpt lat="47.40805" lon="6.69084">
        <ele>464</ele>
        <time>2015-07-08T09:13:33.000Z</time>
      </trkpt>
      <trkpt lat="47.40802" lon="6.69087">
        <ele>464</ele>
        <time>2015-07-08T09:13:34.000Z</time>
      </trkpt>
      <trkpt lat="47.40798" lon="6.69089">
        <ele>464</ele>
        <time>2015-07-08T09:13:35.000Z</time>
      </trkpt>
      <trkpt lat="47.40795" lon="6.69091">
        <ele>464</ele>
        <time>2015-07-08T09:13:36.000Z</time>
      </trkpt>
      <trkpt lat="47.40791" lon="6.69093">
        <ele>463</ele>
        <time>2015-07-08T09:13:37.000Z</time>
      </trkpt>
      <trkpt lat="47.40787" lon="6.69096">
        <ele>463</ele>
        <time>2015-07-08T09:13:38.000Z</time>
      </trkpt>
      <trkpt lat="47.40783" lon="6.69099">
        <ele>463</ele>
        <time>2015-07-08T09:13:39.000Z</time>
      </trkpt>
      <trkpt lat="47.40779" lon="6.69102">
        <ele>463</ele>
        <time>2015-07-08T09:13:40.000Z</time>
      </trkpt>
      <trkpt lat="47.40774" lon="6.69105">
        <ele>463</ele>
        <time>2015-07-08T09:13:41.000Z</time>
      </trkpt>
      <trkpt lat="47.4077" lon="6.69108">
        <ele>463</ele>
        <time>2015-07-08T09:13:42.000Z</time>
      </trkpt>
      <trkpt lat="47.40765" lon="6.69111">
        <ele>463</ele>
        <time>2015-07-08T09:13:43.000Z</time>
      </trkpt>
      <trkpt lat="47.4076" lon="6.69114">
        <ele>463</ele>
        <time>2015-07-08T09:13:44.000Z</time>
      </trkpt>
      <trkpt lat="47.40754" lon="6.69117">
        <ele>463</ele>
        <time>2015-07-08T09:13:45.000Z</time>
      </trkpt>
      <trkpt lat="47.40749" lon="6.6912">
        <ele>462</ele>
        <time>2015-07-08T09:13:46.000Z</time>
      </trkpt>
      <trkpt lat="47.40744" lon="6.69123">
        <ele>462</ele>
        <time>2015-07-08T09:13:47.000Z</time>
      </trkpt>
      <trkpt lat="47.40739" lon="6.69127">
        <ele>462</ele>
        <time>2015-07-08T09:13:48.000Z</time>
      </trkpt>
      <trkpt lat="47.40733" lon="6.69129">
        <ele>462</ele>
        <time>2015-07-08T09:13:49.000Z</time>
      </trkpt>
      <trkpt lat="47.40728" lon="6.69132">
        <ele>462</ele>
        <time>2015-07-08T09:13:50.000Z</time>
      </trkpt>
      <trkpt lat="47.40723" lon="6.69135">
        <ele>462</ele>
        <time>2015-07-08T09:13:51.000Z</time>
      </trkpt>
      <trkpt lat="47.40717" lon="6.69137">
        <ele>462</ele>
        <time>2015-07-08T09:13:52.000Z</time>
      </trkpt>
      <trkpt lat="47.40712" lon="6.69139">
        <ele>462</ele>
        <time>2015-07-08T09:13:53.000Z</time>
      </trkpt>
      <trkpt lat="47.40707" lon="6.69141">
        <ele>462</ele>
        <time>2015-07-08T09:13:54.000Z</time>
      </trkpt>
      <trkpt lat="47.40701" lon="6.69142">
        <ele>462</ele>
        <time>2015-07-08T09:13:55.000Z</time>
      </trkpt>
      <trkpt lat="47.40695" lon="6.69143">
        <ele>462</ele>
        <time>2015-07-08T09:13:56.000Z</time>
      </trkpt>
      <trkpt lat="47.40689" lon="6.69141">
        <ele>462</ele>
        <time>2015-07-08T09:13:57.000Z</time>
      </trkpt>
      <trkpt lat="47.40683" lon="6.69139">
        <ele>463</ele>
        <time>2015-07-08T09:13:58.000Z</time>
      </trkpt>
      <trkpt lat="47.40677" lon="6.69134">
        <ele>463</ele>
        <time>2015-07-08T09:13:59.000Z</time>
      </trkpt>
      <trkpt lat="47.40672" lon="6.69128">
        <ele>463</ele>
        <time>2015-07-08T09:14:00.000Z</time>
      </trkpt>
      <trkpt lat="47.40667" lon="6.69121">
        <ele>464</ele>
        <time>2015-07-08T09:14:01.000Z</time>
      </trkpt>
      <trkpt lat="47.40663" lon="6.69114">
        <ele>464</ele>
        <time>2015-07-08T09:14:02.000Z</time>
      </trkpt>
      <trkpt lat="47.40659" lon="6.69106">
        <ele>465</ele>
        <time>2015-07-08T09:14:03.000Z</time>
      </trkpt>
      <trkpt lat="47.40655" lon="6.69099">
        <ele>465</ele>
        <time>2015-07-08T09:14:04.000Z</time>
      </trkpt>
      <trkpt lat="47.40651" lon="6.6909">
        <ele>466</ele>
        <time>2015-07-08T09:14:05.000Z</time>
      </trkpt>
      <trkpt lat="47.40648" lon="6.69082">
        <ele>466</ele>
        <time>2015-07-08T09:14:06.000Z</time>
      </trkpt>
      <trkpt lat="47.40644" lon="6.69074">
        <ele>467</ele>
        <time>2015-07-08T09:14:07.000Z</time>
      </trkpt>
      <trkpt lat="47.4064" lon="6.69066">
        <ele>467</ele>
        <time>2015-07-08T09:14:08.000Z</time>
      </trkpt>
      <trkpt lat="47.40636" lon="6.69059">
        <ele>468</ele>
        <time>2015-07-08T09:14:09.000Z</time>
      </trkpt>
      <trkpt lat="47.40633" lon="6.69052">
        <ele>468</ele>
        <time>2015-07-08T09:14:10.000Z</time>
      </trkpt>
      <trkpt lat="47.40629" lon="6.69045">
        <ele>468</ele>
        <time>2015-07-08T09:14:11.000Z</time>
      </trkpt>
      <trkpt lat="47.40626" lon="6.69039">
        <ele>469</ele>
        <time>2015-07-08T09:14:12.000Z</time>
      </trkpt>
      <trkpt lat="47.40624" lon="6.69033">
        <ele>469</ele>
        <time>2015-07-08T09:14:13.000Z</time>
      </trkpt>
      <trkpt lat="47.40621" lon="6.69027">
        <ele>469</ele>
        <time>2015-07-08T09:14:14.000Z</time>
      </trkpt>
      <trkpt lat="47.40618" lon="6.6902">
        <ele>470</ele>
        <time>2015-07-08T09:14:15.000Z</time>
      </trkpt>
      <trkpt lat="47.40615" lon="6.69014">
        <ele>470</ele>
        <time>2015-07-08T09:14:16.000Z</time>
      </trkpt>
      <trkpt lat="47.40612" lon="6.69008">
        <ele>470</ele>
        <time>2015-07-08T09:14:17.000Z</time>
      </trkpt>
      <trkpt lat="47.40608" lon="6.69002">
        <ele>471</ele>
        <time>2015-07-08T09:14:18.000Z</time>
      </trkpt>
      <trkpt lat="47.40605" lon="6.68996">
        <ele>471</ele>
        <time>2015-07-08T09:14:19.000Z</time>
      </trkpt>
      <trkpt lat="47.40602" lon="6.68991">
        <ele>472</ele>
        <time>2015-07-08T09:14:20.000Z</time>
      </trkpt>
      <trkpt lat="47.40599" lon="6.68985">
        <ele>472</ele>
        <time>2015-07-08T09:14:21.000Z</time>
      </trkpt>
      <trkpt lat="47.40596" lon="6.68979">
        <ele>472</ele>
        <time>2015-07-08T09:14:22.000Z</time>
      </trkpt>
      <trkpt lat="47.40593" lon="6.68974">
        <ele>473</ele>
        <time>2015-07-08T09:14:23.000Z</time>
      </trkpt>
      <trkpt lat="47.4059" lon="6.68968">
        <ele>473</ele>
        <time>2015-07-08T09:14:24.000Z</time>
      </trkpt>
      <trkpt lat="47.40588" lon="6.68963">
        <ele>473</ele>
        <time>2015-07-08T09:14:25.000Z</time>
      </trkpt>
      <trkpt lat="47.40585" lon="6.68957">
        <ele>474</ele>
        <time>2015-07-08T09:14:26.000Z</time>
      </trkpt>
      <trkpt lat="47.40582" lon="6.68952">
        <ele>474</ele>
        <time>2015-07-08T09:14:27.000Z</time>
      </trkpt>
      <trkpt lat="47.40579" lon="6.68946">
        <ele>474</ele>
        <time>2015-07-08T09:14:28.000Z</time>
      </trkpt>
      <trkpt lat="47.40577" lon="6.68941">
        <ele>475</ele>
        <time>2015-07-08T09:14:29.000Z</time>
      </trkpt>
      <trkpt lat="47.40575" lon="6.68935">
        <ele>475</ele>
        <time>2015-07-08T09:14:30.000Z</time>
      </trkpt>
      <trkpt lat="47.40572" lon="6.6893">
        <ele>475</ele>
        <time>2015-07-08T09:14:31.000Z</time>
      </trkpt>
      <trkpt lat="47.4057" lon="6.68925">
        <ele>476</ele>
        <time>2015-07-08T09:14:32.000Z</time>
      </trkpt>
      <trkpt lat="47.40567" lon="6.68919">
        <ele>476</ele>
        <time>2015-07-08T09:14:33.000Z</time>
      </trkpt>
      <trkpt lat="47.40564" lon="6.68914">
        <ele>476</ele>
        <time>2015-07-08T09:14:34.000Z</time>
      </trkpt>
      <trkpt lat="47.40562" lon="6.6891">
        <ele>476</ele>
        <time>2015-07-08T09:14:35.000Z</time>
      </trkpt>
      <trkpt lat="47.4056" lon="6.68905">
        <ele>477</ele>
        <time>2015-07-08T09:14:36.000Z</time>
      </trkpt>
      <trkpt lat="47.40557" lon="6.68901">
        <ele>477</ele>
        <time>2015-07-08T09:14:37.000Z</time>
      </trkpt>
      <trkpt lat="47.40555" lon="6.68897">
        <ele>477</ele>
        <time>2015-07-08T09:14:38.000Z</time>
      </trkpt>
      <trkpt lat="47.40553" lon="6.68893">
        <ele>477</ele>
        <time>2015-07-08T09:14:39.000Z</time>
      </trkpt>
      <trkpt lat="47.4055" lon="6.6889">
        <ele>478</ele>
        <time>2015-07-08T09:14:40.000Z</time>
      </trkpt>
      <trkpt lat="47.40547" lon="6.68886">
        <ele>478</ele>
        <time>2015-07-08T09:14:41.000Z</time>
      </trkpt>
      <trkpt lat="47.40545" lon="6.68883">
        <ele>478</ele>
        <time>2015-07-08T09:14:42.000Z</time>
      </trkpt>
      <trkpt lat="47.40542" lon="6.6888">
        <ele>478</ele>
        <time>2015-07-08T09:14:43.000Z</time>
      </trkpt>
      <trkpt lat="47.4054" lon="6.68876">
        <ele>478</ele>
        <time>2015-07-08T09:14:44.000Z</time>
      </trkpt>
      <trkpt lat="47.40537" lon="6.68873">
        <ele>479</ele>
        <time>2015-07-08T09:14:45.000Z</time>
      </trkpt>
      <trkpt lat="47.40535" lon="6.6887">
        <ele>479</ele>
        <time>2015-07-08T09:14:46.000Z</time>
      </trkpt>
      <trkpt lat="47.40532" lon="6.68867">
        <ele>479</ele>
        <time>2015-07-08T09:14:47.000Z</time>
      </trkpt>
      <trkpt lat="47.40529" lon="6.68864">
        <ele>479</ele>
        <time>2015-07-08T09:14:48.000Z</time>
      </trkpt>
      <trkpt lat="47.40527" lon="6.68861">
        <ele>480</ele>
        <time>2015-07-08T09:14:49.000Z</time>
      </trkpt>
      <trkpt lat="47.40524" lon="6.68858">
        <ele>480</ele>
        <time>2015-07-08T09:14:50.000Z</time>
      </trkpt>
      <trkpt lat="47.40521" lon="6.68855">
        <ele>480</ele>
        <time>2015-07-08T09:14:51.000Z</time>
      </trkpt>
      <trkpt lat="47.40519" lon="6.68852">
        <ele>480</ele>
        <time>2015-07-08T09:14:52.000Z</time>
      </trkpt>
      <trkpt lat="47.40516" lon="6.6885">
        <ele>481</ele>
        <time>2015-07-08T09:14:53.000Z</time>
      </trkpt>
      <trkpt lat="47.40514" lon="6.68848">
        <ele>481</ele>
        <time>2015-07-08T09:14:54.000Z</time>
      </trkpt>
      <trkpt lat="47.40511" lon="6.68845">
        <ele>482</ele>
        <time>2015-07-08T09:14:55.000Z</time>
      </trkpt>
      <trkpt lat="47.40509" lon="6.68843">
        <ele>482</ele>
        <time>2015-07-08T09:14:56.000Z</time>
      </trkpt>
      <trkpt lat="47.40507" lon="6.68841">
        <ele>482</ele>
        <time>2015-07-08T09:14:57.000Z</time>
      </trkpt>
      <trkpt lat="47.40505" lon="6.68839">
        <ele>483</ele>
        <time>2015-07-08T09:14:58.000Z</time>
      </trkpt>
      <trkpt lat="47.40502" lon="6.68837">
        <ele>483</ele>
        <time>2015-07-08T09:14:59.000Z</time>
      </trkpt>
      <trkpt lat="47.405" lon="6.68835">
        <ele>484</ele>
        <time>2015-07-08T09:15:00.000Z</time>
      </trkpt>
      <trkpt lat="47.40497" lon="6.68833">
        <ele>484</ele>
        <time>2015-07-08T09:15:01.000Z</time>
      </trkpt>
      <trkpt lat="47.40495" lon="6.68831">
        <ele>484</ele>
        <time>2015-07-08T09:15:02.000Z</time>
      </trkpt>
      <trkpt lat="47.40493" lon="6.68829">
        <ele>485</ele>
        <time>2015-07-08T09:15:03.000Z</time>
      </trkpt>
      <trkpt lat="47.40491" lon="6.68827">
        <ele>485</ele>
        <time>2015-07-08T09:15:04.000Z</time>
      </trkpt>
      <trkpt lat="47.40488" lon="6.68824">
        <ele>485</ele>
        <time>2015-07-08T09:15:05.000Z</time>
      </trkpt>
      <trkpt lat="47.40486" lon="6.68822">
        <ele>485</ele>
        <time>2015-07-08T09:15:06.000Z</time>
      </trkpt>
      <trkpt lat="47.40484" lon="6.68819">
        <ele>486</ele>
        <time>2015-07-08T09:15:07.000Z</time>
      </trkpt>
      <trkpt lat="47.40482" lon="6.68817">
        <ele>486</ele>
        <time>2015-07-08T09:15:08.000Z</time>
      </trkpt>
      <trkpt lat="47.40479" lon="6.68816">
        <ele>486</ele>
        <time>2015-07-08T09:15:09.000Z</time>
      </trkpt>
      <trkpt lat="47.40477" lon="6.68814">
        <ele>487</ele>
        <time>2015-07-08T09:15:10.000Z</time>
      </trkpt>
      <trkpt lat="47.40474" lon="6.68811">
        <ele>487</ele>
        <time>2015-07-08T09:15:11.000Z</time>
      </trkpt>
      <trkpt lat="47.40472" lon="6.68809">
        <ele>487</ele>
        <time>2015-07-08T09:15:12.000Z</time>
      </trkpt>
      <trkpt lat="47.40471" lon="6.68808">
        <ele>487</ele>
        <time>2015-07-08T09:15:13.000Z</time>
      </trkpt>
      <trkpt lat="47.40469" lon="6.68806">
        <ele>488</ele>
        <time>2015-07-08T09:15:14.000Z</time>
      </trkpt>
      <trkpt lat="47.40467" lon="6.68804">
        <ele>488</ele>
        <time>2015-07-08T09:15:15.000Z</time>
      </trkpt>
      <trkpt lat="47.40464" lon="6.68802">
        <ele>488</ele>
        <time>2015-07-08T09:15:16.000Z</time>
      </trkpt>
      <trkpt lat="47.40462" lon="6.68801">
        <ele>488</ele>
        <time>2015-07-08T09:15:17.000Z</time>
      </trkpt>
      <trkpt lat="47.4046" lon="6.68799">
        <ele>489</ele>
        <time>2015-07-08T09:15:18.000Z</time>
      </trkpt>
      <trkpt lat="47.40458" lon="6.68797">
        <ele>489</ele>
        <time>2015-07-08T09:15:19.000Z</time>
      </trkpt>
      <trkpt lat="47.40456" lon="6.68795">
        <ele>489</ele>
        <time>2015-07-08T09:15:20.000Z</time>
      </trkpt>
      <trkpt lat="47.40454" lon="6.68793">
        <ele>489</ele>
        <time>2015-07-08T09:15:21.000Z</time>
      </trkpt>
      <trkpt lat="47.40451" lon="6.68791">
        <ele>490</ele>
        <time>2015-07-08T09:15:22.000Z</time>
      </trkpt>
      <trkpt lat="47.40449" lon="6.68789">
        <ele>490</ele>
        <time>2015-07-08T09:15:23.000Z</time>
      </trkpt>
      <trkpt lat="47.40447" lon="6.68788">
        <ele>490</ele>
        <time>2015-07-08T09:15:24.000Z</time>
      </trkpt>
      <trkpt lat="47.40445" lon="6.68786">
        <ele>490</ele>
        <time>2015-07-08T09:15:25.000Z</time>
      </trkpt>
      <trkpt lat="47.40442" lon="6.68784">
        <ele>491</ele>
        <time>2015-07-08T09:15:26.000Z</time>
      </trkpt>
      <trkpt lat="47.4044" lon="6.68782">
        <ele>491</ele>
        <time>2015-07-08T09:15:27.000Z</time>
      </trkpt>
      <trkpt lat="47.40438" lon="6.68781">
        <ele>491</ele>
        <time>2015-07-08T09:15:28.000Z</time>
      </trkpt>
      <trkpt lat="47.40435" lon="6.6878">
        <ele>491</ele>
        <time>2015-07-08T09:15:29.000Z</time>
      </trkpt>
      <trkpt lat="47.40432" lon="6.68779">
        <ele>491</ele>
        <time>2015-07-08T09:15:30.000Z</time>
      </trkpt>
      <trkpt lat="47.4043" lon="6.68778">
        <ele>492</ele>
        <time>2015-07-08T09:15:31.000Z</time>
      </trkpt>
      <trkpt lat="47.40427" lon="6.68776">
        <ele>492</ele>
        <time>2015-07-08T09:15:32.000Z</time>
      </trkpt>
      <trkpt lat="47.40425" lon="6.68775">
        <ele>492</ele>
        <time>2015-07-08T09:15:33.000Z</time>
      </trkpt>
      <trkpt lat="47.40423" lon="6.68773">
        <ele>492</ele>
        <time>2015-07-08T09:15:34.000Z</time>
      </trkpt>
      <trkpt lat="47.40421" lon="6.68772">
        <ele>493</ele>
        <time>2015-07-08T09:15:35.000Z</time>
      </trkpt>
      <trkpt lat="47.40419" lon="6.6877">
        <ele>493</ele>
        <time>2015-07-08T09:15:36.000Z</time>
      </trkpt>
      <trkpt lat="47.40417" lon="6.6877">
        <ele>493</ele>
        <time>2015-07-08T09:15:37.000Z</time>
      </trkpt>
      <trkpt lat="47.40415" lon="6.6877">
        <ele>493</ele>
        <time>2015-07-08T09:15:38.000Z</time>
      </trkpt>
      <trkpt lat="47.40413" lon="6.6877">
        <ele>493</ele>
        <time>2015-07-08T09:15:39.000Z</time>
      </trkpt>
      <trkpt lat="47.40411" lon="6.68769">
        <ele>494</ele>
        <time>2015-07-08T09:15:40.000Z</time>
      </trkpt>
      <trkpt lat="47.40409" lon="6.68767">
        <ele>494</ele>
        <time>2015-07-08T09:15:41.000Z</time>
      </trkpt>
      <trkpt lat="47.40407" lon="6.68766">
        <ele>494</ele>
        <time>2015-07-08T09:15:42.000Z</time>
      </trkpt>
      <trkpt lat="47.40405" lon="6.68765">
        <ele>494</ele>
        <time>2015-07-08T09:15:43.000Z</time>
      </trkpt>
      <trkpt lat="47.40403" lon="6.68765">
        <ele>494</ele>
        <time>2015-07-08T09:15:44.000Z</time>
      </trkpt>
      <trkpt lat="47.404" lon="6.68764">
        <ele>495</ele>
        <time>2015-07-08T09:15:45.000Z</time>
      </trkpt>
      <trkpt lat="47.40398" lon="6.68763">
        <ele>495</ele>
        <time>2015-07-08T09:15:46.000Z</time>
      </trkpt>
      <trkpt lat="47.40396" lon="6.68762">
        <ele>495</ele>
        <time>2015-07-08T09:15:47.000Z</time>
      </trkpt>
      <trkpt lat="47.40394" lon="6.68761">
        <ele>495</ele>
        <time>2015-07-08T09:15:48.000Z</time>
      </trkpt>
      <trkpt lat="47.40391" lon="6.68761">
        <ele>495</ele>
        <time>2015-07-08T09:15:49.000Z</time>
      </trkpt>
      <trkpt lat="47.40389" lon="6.6876">
        <ele>496</ele>
        <time>2015-07-08T09:15:50.000Z</time>
      </trkpt>
      <trkpt lat="47.40387" lon="6.68759">
        <ele>496</ele>
        <time>2015-07-08T09:15:51.000Z</time>
      </trkpt>
      <trkpt lat="47.40385" lon="6.68759">
        <ele>496</ele>
        <time>2015-07-08T09:15:52.000Z</time>
      </trkpt>
      <trkpt lat="47.40383" lon="6.68758">
        <ele>496</ele>
        <time>2015-07-08T09:15:53.000Z</time>
      </trkpt>
      <trkpt lat="47.4038" lon="6.68757">
        <ele>496</ele>
        <time>2015-07-08T09:15:54.000Z</time>
      </trkpt>
      <trkpt lat="47.40378" lon="6.68756">
        <ele>497</ele>
        <time>2015-07-08T09:15:55.000Z</time>
      </trkpt>
      <trkpt lat="47.40376" lon="6.68755">
        <ele>497</ele>
        <time>2015-07-08T09:15:56.000Z</time>
      </trkpt>
      <trkpt lat="47.40373" lon="6.68755">
        <ele>497</ele>
        <time>2015-07-08T09:15:57.000Z</time>
      </trkpt>
      <trkpt lat="47.40371" lon="6.68754">
        <ele>497</ele>
        <time>2015-07-08T09:15:58.000Z</time>
      </trkpt>
      <trkpt lat="47.40369" lon="6.68753">
        <ele>497</ele>
        <time>2015-07-08T09:15:59.000Z</time>
      </trkpt>
      <trkpt lat="47.40366" lon="6.68752">
        <ele>497</ele>
        <time>2015-07-08T09:16:00.000Z</time>
      </trkpt>
      <trkpt lat="47.40364" lon="6.68751">
        <ele>497</ele>
        <time>2015-07-08T09:16:01.000Z</time>
      </trkpt>
      <trkpt lat="47.40362" lon="6.68751">
        <ele>498</ele>
        <time>2015-07-08T09:16:02.000Z</time>
      </trkpt>
      <trkpt lat="47.4036" lon="6.6875">
        <ele>498</ele>
        <time>2015-07-08T09:16:03.000Z</time>
      </trkpt>
      <trkpt lat="47.40357" lon="6.68749">
        <ele>498</ele>
        <time>2015-07-08T09:16:04.000Z</time>
      </trkpt>
      <trkpt lat="47.40355" lon="6.68748">
        <ele>498</ele>
        <time>2015-07-08T09:16:05.000Z</time>
      </trkpt>
      <trkpt lat="47.40353" lon="6.68747">
        <ele>498</ele>
        <time>2015-07-08T09:16:06.000Z</time>
      </trkpt>
      <trkpt lat="47.4035" lon="6.68746">
        <ele>498</ele>
        <time>2015-07-08T09:16:07.000Z</time>
      </trkpt>
      <trkpt lat="47.40348" lon="6.68745">
        <ele>498</ele>
        <time>2015-07-08T09:16:08.000Z</time>
      </trkpt>
      <trkpt lat="47.40345" lon="6.68744">
        <ele>498</ele>
        <time>2015-07-08T09:16:09.000Z</time>
      </trkpt>
      <trkpt lat="47.40342" lon="6.68743">
        <ele>498</ele>
        <time>2015-07-08T09:16:10.000Z</time>
      </trkpt>
      <trkpt lat="47.4034" lon="6.68742">
        <ele>499</ele>
        <time>2015-07-08T09:16:11.000Z</time>
      </trkpt>
      <trkpt lat="47.40337" lon="6.68741">
        <ele>499</ele>
        <time>2015-07-08T09:16:12.000Z</time>
      </trkpt>
      <trkpt lat="47.40334" lon="6.68739">
        <ele>499</ele>
        <time>2015-07-08T09:16:13.000Z</time>
      </trkpt>
      <trkpt lat="47.40332" lon="6.68738">
        <ele>499</ele>
        <time>2015-07-08T09:16:14.000Z</time>
      </trkpt>
      <trkpt lat="47.40329" lon="6.68737">
        <ele>499</ele>
        <time>2015-07-08T09:16:15.000Z</time>
      </trkpt>
      <trkpt lat="47.40326" lon="6.68736">
        <ele>499</ele>
        <time>2015-07-08T09:16:16.000Z</time>
      </trkpt>
      <trkpt lat="47.40323" lon="6.68735">
        <ele>499</ele>
        <time>2015-07-08T09:16:17.000Z</time>
      </trkpt>
      <trkpt lat="47.40321" lon="6.68734">
        <ele>499</ele>
        <time>2015-07-08T09:16:18.000Z</time>
      </trkpt>
      <trkpt lat="47.40319" lon="6.68733">
        <ele>499</ele>
        <time>2015-07-08T09:16:19.000Z</time>
      </trkpt>
      <trkpt lat="47.40317" lon="6.68732">
        <ele>499</ele>
        <time>2015-07-08T09:16:20.000Z</time>
      </trkpt>
      <trkpt lat="47.40315" lon="6.68732">
        <ele>500</ele>
        <time>2015-07-08T09:16:21.000Z</time>
      </trkpt>
      <trkpt lat="47.40314" lon="6.68732">
        <ele>500</ele>
        <time>2015-07-08T09:16:22.000Z</time>
      </trkpt>
      <trkpt lat="47.40312" lon="6.68732">
        <ele>500</ele>
        <time>2015-07-08T09:16:23.000Z</time>
      </trkpt>
      <trkpt lat="47.4031" lon="6.68731">
        <ele>500</ele>
        <time>2015-07-08T09:16:24.000Z</time>
      </trkpt>
      <trkpt lat="47.40308" lon="6.6873">
        <ele>500</ele>
        <time>2015-07-08T09:16:25.000Z</time>
      </trkpt>
      <trkpt lat="47.40306" lon="6.68729">
        <ele>500</ele>
        <time>2015-07-08T09:16:26.000Z</time>
      </trkpt>
      <trkpt lat="47.40304" lon="6.68728">
        <ele>500</ele>
        <time>2015-07-08T09:16:27.000Z</time>
      </trkpt>
      <trkpt lat="47.40302" lon="6.68727">
        <ele>500</ele>
        <time>2015-07-08T09:16:28.000Z</time>
      </trkpt>
      <trkpt lat="47.403" lon="6.68726">
        <ele>500</ele>
        <time>2015-07-08T09:16:29.000Z</time>
      </trkpt>
      <trkpt lat="47.40298" lon="6.68725">
        <ele>500</ele>
        <time>2015-07-08T09:16:30.000Z</time>
      </trkpt>
      <trkpt lat="47.40295" lon="6.68724">
        <ele>500</ele>
        <time>2015-07-08T09:16:31.000Z</time>
      </trkpt>
      <trkpt lat="47.40293" lon="6.68724">
        <ele>500</ele>
        <time>2015-07-08T09:16:32.000Z</time>
      </trkpt>
      <trkpt lat="47.40291" lon="6.68723">
        <ele>500</ele>
        <time>2015-07-08T09:16:33.000Z</time>
      </trkpt>
      <trkpt lat="47.40289" lon="6.68722">
        <ele>500</ele>
        <time>2015-07-08T09:16:34.000Z</time>
      </trkpt>
      <trkpt lat="47.40287" lon="6.68721">
        <ele>500</ele>
        <time>2015-07-08T09:16:35.000Z</time>
      </trkpt>
      <trkpt lat="47.40285" lon="6.6872">
        <ele>500</ele>
        <time>2015-07-08T09:16:36.000Z</time>
      </trkpt>
      <trkpt lat="47.40283" lon="6.68719">
        <ele>501</ele>
        <time>2015-07-08T09:16:37.000Z</time>
      </trkpt>
      <trkpt lat="47.40281" lon="6.68718">
        <ele>501</ele>
        <time>2015-07-08T09:16:38.000Z</time>
      </trkpt>
      <trkpt lat="47.40279" lon="6.68717">
        <ele>501</ele>
        <time>2015-07-08T09:16:39.000Z</time>
      </trkpt>
      <trkpt lat="47.40277" lon="6.68716">
        <ele>501</ele>
        <time>2015-07-08T09:16:40.000Z</time>
      </trkpt>
      <trkpt lat="47.40276" lon="6.68714">
        <ele>501</ele>
        <time>2015-07-08T09:16:41.000Z</time>
      </trkpt>
      <trkpt lat="47.40274" lon="6.68713">
        <ele>501</ele>
        <time>2015-07-08T09:16:42.000Z</time>
      </trkpt>
      <trkpt lat="47.40272" lon="6.68712">
        <ele>501</ele>
        <time>2015-07-08T09:16:43.000Z</time>
      </trkpt>
      <trkpt lat="47.4027" lon="6.68711">
        <ele>501</ele>
        <time>2015-07-08T09:16:44.000Z</time>
      </trkpt>
      <trkpt lat="47.40268" lon="6.68709">
        <ele>501</ele>
        <time>2015-07-08T09:16:45.000Z</time>
      </trkpt>
      <trkpt lat="47.40266" lon="6.68707">
        <ele>501</ele>
        <time>2015-07-08T09:16:46.000Z</time>
      </trkpt>
      <trkpt lat="47.40264" lon="6.68705">
        <ele>501</ele>
        <time>2015-07-08T09:16:47.000Z</time>
      </trkpt>
      <trkpt lat="47.40262" lon="6.68703">
        <ele>501</ele>
        <time>2015-07-08T09:16:48.000Z</time>
      </trkpt>
      <trkpt lat="47.4026" lon="6.687">
        <ele>501</ele>
        <time>2015-07-08T09:16:49.000Z</time>
      </trkpt>
      <trkpt lat="47.40257" lon="6.68697">
        <ele>501</ele>
        <time>2015-07-08T09:16:50.000Z</time>
      </trkpt>
      <trkpt lat="47.40255" lon="6.68694">
        <ele>502</ele>
        <time>2015-07-08T09:16:51.000Z</time>
      </trkpt>
      <trkpt lat="47.40252" lon="6.68691">
        <ele>502</ele>
        <time>2015-07-08T09:16:52.000Z</time>
      </trkpt>
      <trkpt lat="47.4025" lon="6.68688">
        <ele>502</ele>
        <time>2015-07-08T09:16:53.000Z</time>
      </trkpt>
      <trkpt lat="47.40248" lon="6.68685">
        <ele>502</ele>
        <time>2015-07-08T09:16:54.000Z</time>
      </trkpt>
      <trkpt lat="47.40245" lon="6.68681">
        <ele>502</ele>
        <time>2015-07-08T09:16:55.000Z</time>
      </trkpt>
      <trkpt lat="47.40242" lon="6.68677">
        <ele>502</ele>
        <time>2015-07-08T09:16:56.000Z</time>
      </trkpt>
      <trkpt lat="47.4024" lon="6.68673">
        <ele>502</ele>
        <time>2015-07-08T09:16:57.000Z</time>
      </trkpt>
      <trkpt lat="47.40237" lon="6.68669">
        <ele>502</ele>
        <time>2015-07-08T09:16:58.000Z</time>
      </trkpt>
      <trkpt lat="47.40234" lon="6.68665">
        <ele>502</ele>
        <time>2015-07-08T09:16:59.000Z</time>
      </trkpt>
      <trkpt lat="47.40232" lon="6.68661">
        <ele>502</ele>
        <time>2015-07-08T09:17:00.000Z</time>
      </trkpt>
      <trkpt lat="47.40229" lon="6.68656">
        <ele>502</ele>
        <time>2015-07-08T09:17:01.000Z</time>
      </trkpt>
      <trkpt lat="47.40225" lon="6.68651">
        <ele>502</ele>
        <time>2015-07-08T09:17:02.000Z</time>
      </trkpt>
      <trkpt lat="47.40222" lon="6.68646">
        <ele>502</ele>
        <time>2015-07-08T09:17:03.000Z</time>
      </trkpt>
      <trkpt lat="47.40219" lon="6.68641">
        <ele>502</ele>
        <time>2015-07-08T09:17:04.000Z</time>
      </trkpt>
      <trkpt lat="47.40215" lon="6.68636">
        <ele>502</ele>
        <time>2015-07-08T09:17:05.000Z</time>
      </trkpt>
      <trkpt lat="47.40212" lon="6.68631">
        <ele>502</ele>
        <time>2015-07-08T09:17:06.000Z</time>
      </trkpt>
      <trkpt lat="47.40208" lon="6.68625">
        <ele>502</ele>
        <time>2015-07-08T09:17:07.000Z</time>
      </trkpt>
      <trkpt lat="47.40204" lon="6.68619">
        <ele>502</ele>
        <time>2015-07-08T09:17:08.000Z</time>
      </trkpt>
      <trkpt lat="47.40201" lon="6.68613">
        <ele>502</ele>
        <time>2015-07-08T09:17:09.000Z</time>
      </trkpt>
      <trkpt lat="47.40197" lon="6.68607">
        <ele>502</ele>
        <time>2015-07-08T09:17:10.000Z</time>
      </trkpt>
      <trkpt lat="47.40193" lon="6.68601">
        <ele>502</ele>
        <time>2015-07-08T09:17:11.000Z</time>
      </trkpt>
      <trkpt lat="47.40189" lon="6.68595">
        <ele>501</ele>
        <time>2015-07-08T09:17:12.000Z</time>
      </trkpt>
      <trkpt lat="47.40185" lon="6.68589">
        <ele>501</ele>
        <time>2015-07-08T09:17:13.000Z</time>
      </trkpt>
      <trkpt lat="47.40181" lon="6.68582">
        <ele>501</ele>
        <time>2015-07-08T09:17:14.000Z</time>
      </trkpt>
      <trkpt lat="47.40178" lon="6.68576">
        <ele>501</ele>
        <time>2015-07-08T09:17:15.000Z</time>
      </trkpt>
      <trkpt lat="47.40174" lon="6.68571">
        <ele>501</ele>
        <time>2015-07-08T09:17:16.000Z</time>
      </trkpt>
      <trkpt lat="47.4017" lon="6.68565">
        <ele>501</ele>
        <time>2015-07-08T09:17:17.000Z</time>
      </trkpt>
      <trkpt lat="47.40167" lon="6.68559">
        <ele>501</ele>
        <time>2015-07-08T09:17:18.000Z</time>
      </trkpt>
      <trkpt lat="47.40163" lon="6.68553">
        <ele>501</ele>
        <time>2015-07-08T09:17:19.000Z</time>
      </trkpt>
      <trkpt lat="47.40159" lon="6.68547">
        <ele>501</ele>
        <time>2015-07-08T09:17:20.000Z</time>
      </trkpt>
      <trkpt lat="47.40156" lon="6.68542">
        <ele>501</ele>
        <time>2015-07-08T09:17:21.000Z</time>
      </trkpt>
      <trkpt lat="47.40152" lon="6.68536">
        <ele>501</ele>
        <time>2015-07-08T09:17:22.000Z</time>
      </trkpt>
      <trkpt lat="47.40149" lon="6.6853">
        <ele>501</ele>
        <time>2015-07-08T09:17:23.000Z</time>
      </trkpt>
      <trkpt lat="47.40145" lon="6.68524">
        <ele>501</ele>
        <time>2015-07-08T09:17:24.000Z</time>
      </trkpt>
      <trkpt lat="47.40142" lon="6.68518">
        <ele>501</ele>
        <time>2015-07-08T09:17:25.000Z</time>
      </trkpt>
      <trkpt lat="47.40138" lon="6.68512">
        <ele>501</ele>
        <time>2015-07-08T09:17:26.000Z</time>
      </trkpt>
      <trkpt lat="47.40134" lon="6.68505">
        <ele>501</ele>
        <time>2015-07-08T09:17:27.000Z</time>
      </trkpt>
      <trkpt lat="47.40131" lon="6.68498">
        <ele>501</ele>
        <time>2015-07-08T09:17:28.000Z</time>
      </trkpt>
      <trkpt lat="47.40127" lon="6.68491">
        <ele>501</ele>
        <time>2015-07-08T09:17:29.000Z</time>
      </trkpt>
      <trkpt lat="47.40123" lon="6.68484">
        <ele>501</ele>
        <time>2015-07-08T09:17:30.000Z</time>
      </trkpt>
      <trkpt lat="47.40119" lon="6.68477">
        <ele>501</ele>
        <time>2015-07-08T09:17:31.000Z</time>
      </trkpt>
      <trkpt lat="47.40115" lon="6.68469">
        <ele>501</ele>
        <time>2015-07-08T09:17:32.000Z</time>
      </trkpt>
      <trkpt lat="47.40111" lon="6.68461">
        <ele>501</ele>
        <time>2015-07-08T09:17:33.000Z</time>
      </trkpt>
      <trkpt lat="47.40107" lon="6.68453">
        <ele>501</ele>
        <time>2015-07-08T09:17:34.000Z</time>
      </trkpt>
      <trkpt lat="47.40103" lon="6.68445">
        <ele>501</ele>
        <time>2015-07-08T09:17:35.000Z</time>
      </trkpt>
      <trkpt lat="47.40099" lon="6.68437">
        <ele>501</ele>
        <time>2015-07-08T09:17:36.000Z</time>
      </trkpt>
      <trkpt lat="47.40095" lon="6.68429">
        <ele>501</ele>
        <time>2015-07-08T09:17:37.000Z</time>
      </trkpt>
      <trkpt lat="47.40091" lon="6.68421">
        <ele>500</ele>
        <time>2015-07-08T09:17:38.000Z</time>
      </trkpt>
      <trkpt lat="47.40087" lon="6.68413">
        <ele>500</ele>
        <time>2015-07-08T09:17:39.000Z</time>
      </trkpt>
      <trkpt lat="47.40083" lon="6.68405">
        <ele>500</ele>
        <time>2015-07-08T09:17:40.000Z</time>
      </trkpt>
      <trkpt lat="47.40079" lon="6.68397">
        <ele>500</ele>
        <time>2015-07-08T09:17:41.000Z</time>
      </trkpt>
      <trkpt lat="47.40075" lon="6.68388">
        <ele>500</ele>
        <time>2015-07-08T09:17:42.000Z</time>
      </trkpt>
      <trkpt lat="47.40071" lon="6.6838">
        <ele>500</ele>
        <time>2015-07-08T09:17:43.000Z</time>
      </trkpt>
      <trkpt lat="47.40066" lon="6.6837">
        <ele>501</ele>
        <time>2015-07-08T09:17:44.000Z</time>
      </trkpt>
      <trkpt lat="47.40062" lon="6.68361">
        <ele>501</ele>
        <time>2015-07-08T09:17:45.000Z</time>
      </trkpt>
      <trkpt lat="47.40057" lon="6.68351">
        <ele>501</ele>
        <time>2015-07-08T09:17:46.000Z</time>
      </trkpt>
      <trkpt lat="47.40053" lon="6.68341">
        <ele>501</ele>
        <time>2015-07-08T09:17:47.000Z</time>
      </trkpt>
      <trkpt lat="47.40048" lon="6.68331">
        <ele>501</ele>
        <time>2015-07-08T09:17:48.000Z</time>
      </trkpt>
      <trkpt lat="47.40044" lon="6.68322">
        <ele>501</ele>
        <time>2015-07-08T09:17:49.000Z</time>
      </trkpt>
      <trkpt lat="47.40039" lon="6.68313">
        <ele>501</ele>
        <time>2015-07-08T09:17:50.000Z</time>
      </trkpt>
      <trkpt lat="47.40035" lon="6.68303">
        <ele>501</ele>
        <time>2015-07-08T09:17:51.000Z</time>
      </trkpt>
      <trkpt lat="47.4003" lon="6.68294">
        <ele>501</ele>
        <time>2015-07-08T09:17:52.000Z</time>
      </trkpt>
      <trkpt lat="47.40025" lon="6.68286">
        <ele>502</ele>
        <time>2015-07-08T09:17:53.000Z</time>
      </trkpt>
      <trkpt lat="47.4002" lon="6.68277">
        <ele>502</ele>
        <time>2015-07-08T09:17:54.000Z</time>
      </trkpt>
      <trkpt lat="47.40016" lon="6.68269">
        <ele>502</ele>
        <time>2015-07-08T09:17:55.000Z</time>
      </trkpt>
      <trkpt lat="47.40011" lon="6.68262">
        <ele>502</ele>
        <time>2015-07-08T09:17:56.000Z</time>
      </trkpt>
      <trkpt lat="47.40006" lon="6.68254">
        <ele>502</ele>
        <time>2015-07-08T09:17:57.000Z</time>
      </trkpt>
      <trkpt lat="47.40002" lon="6.68246">
        <ele>503</ele>
        <time>2015-07-08T09:17:58.000Z</time>
      </trkpt>
      <trkpt lat="47.39997" lon="6.68239">
        <ele>503</ele>
        <time>2015-07-08T09:17:59.000Z</time>
      </trkpt>
      <trkpt lat="47.39993" lon="6.68232">
        <ele>503</ele>
        <time>2015-07-08T09:18:00.000Z</time>
      </trkpt>
      <trkpt lat="47.39988" lon="6.68226">
        <ele>503</ele>
        <time>2015-07-08T09:18:01.000Z</time>
      </trkpt>
      <trkpt lat="47.39984" lon="6.6822">
        <ele>503</ele>
        <time>2015-07-08T09:18:02.000Z</time>
      </trkpt>
      <trkpt lat="47.3998" lon="6.68214">
        <ele>503</ele>
        <time>2015-07-08T09:18:03.000Z</time>
      </trkpt>
      <trkpt lat="47.39976" lon="6.68208">
        <ele>503</ele>
        <time>2015-07-08T09:18:04.000Z</time>
      </trkpt>
      <trkpt lat="47.39972" lon="6.68202">
        <ele>503</ele>
        <time>2015-07-08T09:18:05.000Z</time>
      </trkpt>
      <trkpt lat="47.39968" lon="6.68194">
        <ele>503</ele>
        <time>2015-07-08T09:18:06.000Z</time>
      </trkpt>
      <trkpt lat="47.39965" lon="6.68186">
        <ele>503</ele>
        <time>2015-07-08T09:18:07.000Z</time>
      </trkpt>
      <trkpt lat="47.39963" lon="6.68177">
        <ele>503</ele>
        <time>2015-07-08T09:18:08.000Z</time>
      </trkpt>
      <trkpt lat="47.39962" lon="6.68168">
        <ele>504</ele>
        <time>2015-07-08T09:18:09.000Z</time>
      </trkpt>
      <trkpt lat="47.39963" lon="6.68159">
        <ele>504</ele>
        <time>2015-07-08T09:18:10.000Z</time>
      </trkpt>
      <trkpt lat="47.39963" lon="6.6815">
        <ele>504</ele>
        <time>2015-07-08T09:18:11.000Z</time>
      </trkpt>
      <trkpt lat="47.39965" lon="6.68141">
        <ele>503</ele>
        <time>2015-07-08T09:18:12.000Z</time>
      </trkpt>
      <trkpt lat="47.39967" lon="6.68132">
        <ele>503</ele>
        <time>2015-07-08T09:18:13.000Z</time>
      </trkpt>
      <trkpt lat="47.3997" lon="6.68123">
        <ele>503</ele>
        <time>2015-07-08T09:18:14.000Z</time>
      </trkpt>
      <trkpt lat="47.39973" lon="6.68114">
        <ele>503</ele>
        <time>2015-07-08T09:18:15.000Z</time>
      </trkpt>
      <trkpt lat="47.39976" lon="6.68105">
        <ele>503</ele>
        <time>2015-07-08T09:18:16.000Z</time>
      </trkpt>
      <trkpt lat="47.39979" lon="6.68096">
        <ele>503</ele>
        <time>2015-07-08T09:18:17.000Z</time>
      </trkpt>
      <trkpt lat="47.39981" lon="6.68086">
        <ele>502</ele>
        <time>2015-07-08T09:18:18.000Z</time>
      </trkpt>
      <trkpt lat="47.39984" lon="6.68076">
        <ele>502</ele>
        <time>2015-07-08T09:18:19.000Z</time>
      </trkpt>
      <trkpt lat="47.39987" lon="6.68066">
        <ele>502</ele>
        <time>2015-07-08T09:18:20.000Z</time>
      </trkpt>
      <trkpt lat="47.3999" lon="6.68055">
        <ele>502</ele>
        <time>2015-07-08T09:18:21.000Z</time>
      </trkpt>
      <trkpt lat="47.39994" lon="6.68045">
        <ele>502</ele>
        <time>2015-07-08T09:18:22.000Z</time>
      </trkpt>
      <trkpt lat="47.39997" lon="6.68035">
        <ele>502</ele>
        <time>2015-07-08T09:18:23.000Z</time>
      </trkpt>
      <trkpt lat="47.40002" lon="6.68026">
        <ele>502</ele>
        <time>2015-07-08T09:18:24.000Z</time>
      </trkpt>
      <trkpt lat="47.40006" lon="6.68018">
        <ele>502</ele>
        <time>2015-07-08T09:18:25.000Z</time>
      </trkpt>
      <trkpt lat="47.40012" lon="6.68011">
        <ele>502</ele>
        <time>2015-07-08T09:18:26.000Z</time>
      </trkpt>
      <trkpt lat="47.40018" lon="6.68008">
        <ele>502</ele>
        <time>2015-07-08T09:18:27.000Z</time>
      </trkpt>
      <trkpt lat="47.40024" lon="6.68006">
        <ele>503</ele>
        <time>2015-07-08T09:18:28.000Z</time>
      </trkpt>
      <trkpt lat="47.4003" lon="6.68005">
        <ele>503</ele>
        <time>2015-07-08T09:18:29.000Z</time>
      </trkpt>
      <trkpt lat="47.40035" lon="6.68005">
        <ele>503</ele>
        <time>2015-07-08T09:18:30.000Z</time>
      </trkpt>
      <trkpt lat="47.40039" lon="6.68006">
        <ele>504</ele>
        <time>2015-07-08T09:18:31.000Z</time>
      </trkpt>
      <trkpt lat="47.40043" lon="6.68005">
        <ele>504</ele>
        <time>2015-07-08T09:18:32.000Z</time>
      </trkpt>
      <trkpt lat="47.40047" lon="6.68005">
        <ele>505</ele>
        <time>2015-07-08T09:18:33.000Z</time>
      </trkpt>
      <trkpt lat="47.40051" lon="6.68004">
        <ele>505</ele>
        <time>2015-07-08T09:18:34.000Z</time>
      </trkpt>
      <trkpt lat="47.40055" lon="6.68004">
        <ele>505</ele>
        <time>2015-07-08T09:18:35.000Z</time>
      </trkpt>
      <trkpt lat="47.40058" lon="6.68003">
        <ele>506</ele>
        <time>2015-07-08T09:18:36.000Z</time>
      </trkpt>
      <trkpt lat="47.40062" lon="6.68001">
        <ele>506</ele>
        <time>2015-07-08T09:18:37.000Z</time>
      </trkpt>
      <trkpt lat="47.40066" lon="6.68">
        <ele>506</ele>
        <time>2015-07-08T09:18:38.000Z</time>
      </trkpt>
      <trkpt lat="47.4007" lon="6.67998">
        <ele>507</ele>
        <time>2015-07-08T09:18:39.000Z</time>
      </trkpt>
      <trkpt lat="47.40074" lon="6.67996">
        <ele>507</ele>
        <time>2015-07-08T09:18:40.000Z</time>
      </trkpt>
      <trkpt lat="47.40078" lon="6.67993">
        <ele>507</ele>
        <time>2015-07-08T09:18:41.000Z</time>
      </trkpt>
      <trkpt lat="47.40083" lon="6.6799">
        <ele>507</ele>
        <time>2015-07-08T09:18:42.000Z</time>
      </trkpt>
      <trkpt lat="47.40087" lon="6.67987">
        <ele>508</ele>
        <time>2015-07-08T09:18:43.000Z</time>
      </trkpt>
      <trkpt lat="47.40091" lon="6.67984">
        <ele>508</ele>
        <time>2015-07-08T09:18:44.000Z</time>
      </trkpt>
      <trkpt lat="47.40095" lon="6.67981">
        <ele>508</ele>
        <time>2015-07-08T09:18:45.000Z</time>
      </trkpt>
      <trkpt lat="47.40099" lon="6.67977">
        <ele>508</ele>
        <time>2015-07-08T09:18:46.000Z</time>
      </trkpt>
      <trkpt lat="47.40102" lon="6.67973">
        <ele>508</ele>
        <time>2015-07-08T09:18:47.000Z</time>
      </trkpt>
      <trkpt lat="47.40105" lon="6.67968">
        <ele>508</ele>
        <time>2015-07-08T09:18:48.000Z</time>
      </trkpt>
      <trkpt lat="47.40109" lon="6.67963">
        <ele>508</ele>
        <time>2015-07-08T09:18:49.000Z</time>
      </trkpt>
      <trkpt lat="47.40112" lon="6.67958">
        <ele>509</ele>
        <time>2015-07-08T09:18:50.000Z</time>
      </trkpt>
      <trkpt lat="47.40114" lon="6.67952">
        <ele>509</ele>
        <time>2015-07-08T09:18:51.000Z</time>
      </trkpt>
      <trkpt lat="47.40116" lon="6.67946">
        <ele>509</ele>
        <time>2015-07-08T09:18:52.000Z</time>
      </trkpt>
      <trkpt lat="47.40118" lon="6.6794">
        <ele>509</ele>
        <time>2015-07-08T09:18:53.000Z</time>
      </trkpt>
      <trkpt lat="47.4012" lon="6.67934">
        <ele>509</ele>
        <time>2015-07-08T09:18:54.000Z</time>
      </trkpt>
      <trkpt lat="47.40122" lon="6.67928">
        <ele>509</ele>
        <time>2015-07-08T09:18:55.000Z</time>
      </trkpt>
      <trkpt lat="47.40124" lon="6.67921">
        <ele>509</ele>
        <time>2015-07-08T09:18:56.000Z</time>
      </trkpt>
      <trkpt lat="47.40125" lon="6.67915">
        <ele>510</ele>
        <time>2015-07-08T09:18:57.000Z</time>
      </trkpt>
      <trkpt lat="47.40125" lon="6.67908">
        <ele>510</ele>
        <time>2015-07-08T09:18:58.000Z</time>
      </trkpt>
      <trkpt lat="47.40126" lon="6.67902">
        <ele>510</ele>
        <time>2015-07-08T09:18:59.000Z</time>
      </trkpt>
      <trkpt lat="47.40126" lon="6.67895">
        <ele>511</ele>
        <time>2015-07-08T09:19:00.000Z</time>
      </trkpt>
      <trkpt lat="47.40127" lon="6.67888">
        <ele>511</ele>
        <time>2015-07-08T09:19:01.000Z</time>
      </trkpt>
      <trkpt lat="47.40127" lon="6.67882">
        <ele>511</ele>
        <time>2015-07-08T09:19:02.000Z</time>
      </trkpt>
      <trkpt lat="47.40127" lon="6.67875">
        <ele>512</ele>
        <time>2015-07-08T09:19:03.000Z</time>
      </trkpt>
      <trkpt lat="47.40126" lon="6.67869">
        <ele>512</ele>
        <time>2015-07-08T09:19:04.000Z</time>
      </trkpt>
      <trkpt lat="47.40126" lon="6.67864">
        <ele>512</ele>
        <time>2015-07-08T09:19:05.000Z</time>
      </trkpt>
      <trkpt lat="47.40125" lon="6.67858">
        <ele>512</ele>
        <time>2015-07-08T09:19:06.000Z</time>
      </trkpt>
      <trkpt lat="47.40125" lon="6.67852">
        <ele>512</ele>
        <time>2015-07-08T09:19:07.000Z</time>
      </trkpt>
      <trkpt lat="47.40124" lon="6.67846">
        <ele>513</ele>
        <time>2015-07-08T09:19:08.000Z</time>
      </trkpt>
      <trkpt lat="47.40123" lon="6.67841">
        <ele>513</ele>
        <time>2015-07-08T09:19:09.000Z</time>
      </trkpt>
      <trkpt lat="47.40122" lon="6.67835">
        <ele>513</ele>
        <time>2015-07-08T09:19:10.000Z</time>
      </trkpt>
      <trkpt lat="47.4012" lon="6.67829">
        <ele>513</ele>
        <time>2015-07-08T09:19:11.000Z</time>
      </trkpt>
      <trkpt lat="47.40119" lon="6.67823">
        <ele>513</ele>
        <time>2015-07-08T09:19:12.000Z</time>
      </trkpt>
      <trkpt lat="47.40117" lon="6.67817">
        <ele>513</ele>
        <time>2015-07-08T09:19:13.000Z</time>
      </trkpt>
      <trkpt lat="47.40116" lon="6.67811">
        <ele>513</ele>
        <time>2015-07-08T09:19:14.000Z</time>
      </trkpt>
      <trkpt lat="47.40114" lon="6.67805">
        <ele>514</ele>
        <time>2015-07-08T09:19:15.000Z</time>
      </trkpt>
      <trkpt lat="47.40113" lon="6.67799">
        <ele>514</ele>
        <time>2015-07-08T09:19:16.000Z</time>
      </trkpt>
      <trkpt lat="47.40111" lon="6.67793">
        <ele>514</ele>
        <time>2015-07-08T09:19:17.000Z</time>
      </trkpt>
      <trkpt lat="47.4011" lon="6.67787">
        <ele>514</ele>
        <time>2015-07-08T09:19:18.000Z</time>
      </trkpt>
      <trkpt lat="47.40108" lon="6.67781">
        <ele>514</ele>
        <time>2015-07-08T09:19:19.000Z</time>
      </trkpt>
      <trkpt lat="47.40106" lon="6.67775">
        <ele>514</ele>
        <time>2015-07-08T09:19:20.000Z</time>
      </trkpt>
      <trkpt lat="47.40105" lon="6.67769">
        <ele>514</ele>
        <time>2015-07-08T09:19:21.000Z</time>
      </trkpt>
      <trkpt lat="47.40103" lon="6.67763">
        <ele>514</ele>
        <time>2015-07-08T09:19:22.000Z</time>
      </trkpt>
      <trkpt lat="47.40101" lon="6.67756">
        <ele>514</ele>
        <time>2015-07-08T09:19:23.000Z</time>
      </trkpt>
      <trkpt lat="47.40099" lon="6.6775">
        <ele>514</ele>
        <time>2015-07-08T09:19:24.000Z</time>
      </trkpt>
      <trkpt lat="47.40097" lon="6.67744">
        <ele>514</ele>
        <time>2015-07-08T09:19:25.000Z</time>
      </trkpt>
      <trkpt lat="47.40096" lon="6.67738">
        <ele>515</ele>
        <time>2015-07-08T09:19:26.000Z</time>
      </trkpt>
      <trkpt lat="47.40094" lon="6.67731">
        <ele>515</ele>
        <time>2015-07-08T09:19:27.000Z</time>
      </trkpt>
      <trkpt lat="47.40092" lon="6.67725">
        <ele>515</ele>
        <time>2015-07-08T09:19:28.000Z</time>
      </trkpt>
      <trkpt lat="47.4009" lon="6.67718">
        <ele>515</ele>
        <time>2015-07-08T09:19:29.000Z</time>
      </trkpt>
      <trkpt lat="47.40088" lon="6.67712">
        <ele>515</ele>
        <time>2015-07-08T09:19:30.000Z</time>
      </trkpt>
      <trkpt lat="47.40086" lon="6.67706">
        <ele>515</ele>
        <time>2015-07-08T09:19:31.000Z</time>
      </trkpt>
      <trkpt lat="47.40085" lon="6.677">
        <ele>515</ele>
        <time>2015-07-08T09:19:32.000Z</time>
      </trkpt>
      <trkpt lat="47.40083" lon="6.67693">
        <ele>515</ele>
        <time>2015-07-08T09:19:33.000Z</time>
      </trkpt>
      <trkpt lat="47.40081" lon="6.67687">
        <ele>515</ele>
        <time>2015-07-08T09:19:34.000Z</time>
      </trkpt>
      <trkpt lat="47.40079" lon="6.6768">
        <ele>515</ele>
        <time>2015-07-08T09:19:35.000Z</time>
      </trkpt>
      <trkpt lat="47.40077" lon="6.67674">
        <ele>515</ele>
        <time>2015-07-08T09:19:36.000Z</time>
      </trkpt>
      <trkpt lat="47.40075" lon="6.67667">
        <ele>515</ele>
        <time>2015-07-08T09:19:37.000Z</time>
      </trkpt>
      <trkpt lat="47.40073" lon="6.67661">
        <ele>515</ele>
        <time>2015-07-08T09:19:38.000Z</time>
      </trkpt>
      <trkpt lat="47.40071" lon="6.67655">
        <ele>515</ele>
        <time>2015-07-08T09:19:39.000Z</time>
      </trkpt>
      <trkpt lat="47.40069" lon="6.67649">
        <ele>515</ele>
        <time>2015-07-08T09:19:40.000Z</time>
      </trkpt>
      <trkpt lat="47.40067" lon="6.67643">
        <ele>515</ele>
        <time>2015-07-08T09:19:41.000Z</time>
      </trkpt>
      <trkpt lat="47.40064" lon="6.67637">
        <ele>515</ele>
        <time>2015-07-08T09:19:42.000Z</time>
      </trkpt>
      <trkpt lat="47.40061" lon="6.67632">
        <ele>515</ele>
        <time>2015-07-08T09:19:43.000Z</time>
      </trkpt>
      <trkpt lat="47.40058" lon="6.67626">
        <ele>515</ele>
        <time>2015-07-08T09:19:44.000Z</time>
      </trkpt>
      <trkpt lat="47.40055" lon="6.67621">
        <ele>515</ele>
        <time>2015-07-08T09:19:45.000Z</time>
      </trkpt>
      <trkpt lat="47.40051" lon="6.67616">
        <ele>515</ele>
        <time>2015-07-08T09:19:46.000Z</time>
      </trkpt>
      <trkpt lat="47.40047" lon="6.67612">
        <ele>515</ele>
        <time>2015-07-08T09:19:47.000Z</time>
      </trkpt>
      <trkpt lat="47.40043" lon="6.67607">
        <ele>515</ele>
        <time>2015-07-08T09:19:48.000Z</time>
      </trkpt>
      <trkpt lat="47.40039" lon="6.67603">
        <ele>515</ele>
        <time>2015-07-08T09:19:49.000Z</time>
      </trkpt>
      <trkpt lat="47.40036" lon="6.67599">
        <ele>515</ele>
        <time>2015-07-08T09:19:50.000Z</time>
      </trkpt>
      <trkpt lat="47.40032" lon="6.67595">
        <ele>515</ele>
        <time>2015-07-08T09:19:51.000Z</time>
      </trkpt>
      <trkpt lat="47.40028" lon="6.67592">
        <ele>515</ele>
        <time>2015-07-08T09:19:52.000Z</time>
      </trkpt>
      <trkpt lat="47.40024" lon="6.67588">
        <ele>515</ele>
        <time>2015-07-08T09:19:53.000Z</time>
      </trkpt>
      <trkpt lat="47.4002" lon="6.67585">
        <ele>515</ele>
        <time>2015-07-08T09:19:54.000Z</time>
      </trkpt>
      <trkpt lat="47.40016" lon="6.67582">
        <ele>516</ele>
        <time>2015-07-08T09:19:55.000Z</time>
      </trkpt>
      <trkpt lat="47.40012" lon="6.67579">
        <ele>516</ele>
        <time>2015-07-08T09:19:56.000Z</time>
      </trkpt>
      <trkpt lat="47.40007" lon="6.67575">
        <ele>516</ele>
        <time>2015-07-08T09:19:57.000Z</time>
      </trkpt>
      <trkpt lat="47.40004" lon="6.67571">
        <ele>516</ele>
        <time>2015-07-08T09:19:58.000Z</time>
      </trkpt>
      <trkpt lat="47.4" lon="6.67568">
        <ele>516</ele>
        <time>2015-07-08T09:19:59.000Z</time>
      </trkpt>
      <trkpt lat="47.39995" lon="6.67564">
        <ele>516</ele>
        <time>2015-07-08T09:20:00.000Z</time>
      </trkpt>
      <trkpt lat="47.39991" lon="6.6756">
        <ele>516</ele>
        <time>2015-07-08T09:20:01.000Z</time>
      </trkpt>
      <trkpt lat="47.39987" lon="6.67556">
        <ele>516</ele>
        <time>2015-07-08T09:20:02.000Z</time>
      </trkpt>
      <trkpt lat="47.39983" lon="6.67552">
        <ele>516</ele>
        <time>2015-07-08T09:20:03.000Z</time>
      </trkpt>
      <trkpt lat="47.39978" lon="6.67548">
        <ele>516</ele>
        <time>2015-07-08T09:20:04.000Z</time>
      </trkpt>
      <trkpt lat="47.39974" lon="6.67543">
        <ele>516</ele>
        <time>2015-07-08T09:20:05.000Z</time>
      </trkpt>
      <trkpt lat="47.3997" lon="6.67539">
        <ele>516</ele>
        <time>2015-07-08T09:20:06.000Z</time>
      </trkpt>
      <trkpt lat="47.39965" lon="6.67534">
        <ele>516</ele>
        <time>2015-07-08T09:20:07.000Z</time>
      </trkpt>
      <trkpt lat="47.39961" lon="6.6753">
        <ele>516</ele>
        <time>2015-07-08T09:20:08.000Z</time>
      </trkpt>
      <trkpt lat="47.39957" lon="6.67526">
        <ele>517</ele>
        <time>2015-07-08T09:20:09.000Z</time>
      </trkpt>
      <trkpt lat="47.39953" lon="6.67521">
        <ele>517</ele>
        <time>2015-07-08T09:20:10.000Z</time>
      </trkpt>
      <trkpt lat="47.39949" lon="6.67517">
        <ele>517</ele>
        <time>2015-07-08T09:20:11.000Z</time>
      </trkpt>
      <trkpt lat="47.39944" lon="6.67512">
        <ele>517</ele>
        <time>2015-07-08T09:20:12.000Z</time>
      </trkpt>
      <trkpt lat="47.3994" lon="6.67508">
        <ele>517</ele>
        <time>2015-07-08T09:20:13.000Z</time>
      </trkpt>
      <trkpt lat="47.39936" lon="6.67503">
        <ele>517</ele>
        <time>2015-07-08T09:20:14.000Z</time>
      </trkpt>
      <trkpt lat="47.39932" lon="6.67499">
        <ele>517</ele>
        <time>2015-07-08T09:20:15.000Z</time>
      </trkpt>
      <trkpt lat="47.39927" lon="6.67495">
        <ele>517</ele>
        <time>2015-07-08T09:20:16.000Z</time>
      </trkpt>
      <trkpt lat="47.39923" lon="6.67492">
        <ele>517</ele>
        <time>2015-07-08T09:20:17.000Z</time>
      </trkpt>
      <trkpt lat="47.39918" lon="6.67488">
        <ele>518</ele>
        <time>2015-07-08T09:20:18.000Z</time>
      </trkpt>
      <trkpt lat="47.39914" lon="6.67485">
        <ele>518</ele>
        <time>2015-07-08T09:20:19.000Z</time>
      </trkpt>
      <trkpt lat="47.39909" lon="6.67482">
        <ele>518</ele>
        <time>2015-07-08T09:20:20.000Z</time>
      </trkpt>
      <trkpt lat="47.39904" lon="6.6748">
        <ele>518</ele>
        <time>2015-07-08T09:20:21.000Z</time>
      </trkpt>
      <trkpt lat="47.39899" lon="6.67477">
        <ele>518</ele>
        <time>2015-07-08T09:20:22.000Z</time>
      </trkpt>
      <trkpt lat="47.39894" lon="6.67475">
        <ele>518</ele>
        <time>2015-07-08T09:20:23.000Z</time>
      </trkpt>
      <trkpt lat="47.39889" lon="6.67472">
        <ele>519</ele>
        <time>2015-07-08T09:20:24.000Z</time>
      </trkpt>
      <trkpt lat="47.39884" lon="6.6747">
        <ele>519</ele>
        <time>2015-07-08T09:20:25.000Z</time>
      </trkpt>
      <trkpt lat="47.39879" lon="6.67467">
        <ele>519</ele>
        <time>2015-07-08T09:20:26.000Z</time>
      </trkpt>
      <trkpt lat="47.39875" lon="6.67465">
        <ele>519</ele>
        <time>2015-07-08T09:20:27.000Z</time>
      </trkpt>
      <trkpt lat="47.39871" lon="6.67462">
        <ele>519</ele>
        <time>2015-07-08T09:20:28.000Z</time>
      </trkpt>
      <trkpt lat="47.39866" lon="6.67459">
        <ele>519</ele>
        <time>2015-07-08T09:20:29.000Z</time>
      </trkpt>
      <trkpt lat="47.39863" lon="6.67455">
        <ele>519</ele>
        <time>2015-07-08T09:20:30.000Z</time>
      </trkpt>
      <trkpt lat="47.3986" lon="6.67452">
        <ele>519</ele>
        <time>2015-07-08T09:20:31.000Z</time>
      </trkpt>
      <trkpt lat="47.39856" lon="6.67447">
        <ele>519</ele>
        <time>2015-07-08T09:20:32.000Z</time>
      </trkpt>
      <trkpt lat="47.39853" lon="6.67443">
        <ele>520</ele>
        <time>2015-07-08T09:20:33.000Z</time>
      </trkpt>
      <trkpt lat="47.39851" lon="6.67439">
        <ele>520</ele>
        <time>2015-07-08T09:20:34.000Z</time>
      </trkpt>
      <trkpt lat="47.39848" lon="6.67435">
        <ele>520</ele>
        <time>2015-07-08T09:20:35.000Z</time>
      </trkpt>
      <trkpt lat="47.39845" lon="6.6743">
        <ele>520</ele>
        <time>2015-07-08T09:20:36.000Z</time>
      </trkpt>
      <trkpt lat="47.39842" lon="6.67426">
        <ele>520</ele>
        <time>2015-07-08T09:20:37.000Z</time>
      </trkpt>
      <trkpt lat="47.3984" lon="6.67421">
        <ele>520</ele>
        <time>2015-07-08T09:20:38.000Z</time>
      </trkpt>
      <trkpt lat="47.39838" lon="6.67417">
        <ele>520</ele>
        <time>2015-07-08T09:20:39.000Z</time>
      </trkpt>
      <trkpt lat="47.39835" lon="6.67413">
        <ele>520</ele>
        <time>2015-07-08T09:20:40.000Z</time>
      </trkpt>
      <trkpt lat="47.39834" lon="6.67408">
        <ele>520</ele>
        <time>2015-07-08T09:20:41.000Z</time>
      </trkpt>
      <trkpt lat="47.39832" lon="6.67404">
        <ele>520</ele>
        <time>2015-07-08T09:20:42.000Z</time>
      </trkpt>
      <trkpt lat="47.3983" lon="6.67399">
        <ele>520</ele>
        <time>2015-07-08T09:20:43.000Z</time>
      </trkpt>
      <trkpt lat="47.39828" lon="6.67394">
        <ele>520</ele>
        <time>2015-07-08T09:20:44.000Z</time>
      </trkpt>
      <trkpt lat="47.39825" lon="6.6739">
        <ele>520</ele>
        <time>2015-07-08T09:20:45.000Z</time>
      </trkpt>
      <trkpt lat="47.39823" lon="6.67385">
        <ele>520</ele>
        <time>2015-07-08T09:20:46.000Z</time>
      </trkpt>
      <trkpt lat="47.39821" lon="6.67379">
        <ele>520</ele>
        <time>2015-07-08T09:20:47.000Z</time>
      </trkpt>
      <trkpt lat="47.39819" lon="6.67374">
        <ele>520</ele>
        <time>2015-07-08T09:20:48.000Z</time>
      </trkpt>
      <trkpt lat="47.39817" lon="6.67368">
        <ele>520</ele>
        <time>2015-07-08T09:20:49.000Z</time>
      </trkpt>
      <trkpt lat="47.39814" lon="6.67362">
        <ele>520</ele>
        <time>2015-07-08T09:20:50.000Z</time>
      </trkpt>
      <trkpt lat="47.39812" lon="6.67357">
        <ele>520</ele>
        <time>2015-07-08T09:20:51.000Z</time>
      </trkpt>
      <trkpt lat="47.39809" lon="6.67351">
        <ele>520</ele>
        <time>2015-07-08T09:20:52.000Z</time>
      </trkpt>
      <trkpt lat="47.39806" lon="6.67345">
        <ele>520</ele>
        <time>2015-07-08T09:20:53.000Z</time>
      </trkpt>
      <trkpt lat="47.39803" lon="6.6734">
        <ele>520</ele>
        <time>2015-07-08T09:20:54.000Z</time>
      </trkpt>
      <trkpt lat="47.39799" lon="6.67335">
        <ele>520</ele>
        <time>2015-07-08T09:20:55.000Z</time>
      </trkpt>
      <trkpt lat="47.39796" lon="6.67331">
        <ele>521</ele>
        <time>2015-07-08T09:20:56.000Z</time>
      </trkpt>
      <trkpt lat="47.39793" lon="6.67327">
        <ele>521</ele>
        <time>2015-07-08T09:20:57.000Z</time>
      </trkpt>
      <trkpt lat="47.3979" lon="6.67323">
        <ele>521</ele>
        <time>2015-07-08T09:20:58.000Z</time>
      </trkpt>
      <trkpt lat="47.39787" lon="6.67319">
        <ele>521</ele>
        <time>2015-07-08T09:20:59.000Z</time>
      </trkpt>
      <trkpt lat="47.39784" lon="6.67316">
        <ele>522</ele>
        <time>2015-07-08T09:21:00.000Z</time>
      </trkpt>
      <trkpt lat="47.39781" lon="6.67312">
        <ele>522</ele>
        <time>2015-07-08T09:21:01.000Z</time>
      </trkpt>
      <trkpt lat="47.39778" lon="6.67308">
        <ele>522</ele>
        <time>2015-07-08T09:21:02.000Z</time>
      </trkpt>
      <trkpt lat="47.39774" lon="6.67304">
        <ele>522</ele>
        <time>2015-07-08T09:21:03.000Z</time>
      </trkpt>
      <trkpt lat="47.39771" lon="6.673">
        <ele>523</ele>
        <time>2015-07-08T09:21:04.000Z</time>
      </trkpt>
      <trkpt lat="47.39767" lon="6.67296">
        <ele>523</ele>
        <time>2015-07-08T09:21:05.000Z</time>
      </trkpt>
      <trkpt lat="47.39763" lon="6.67292">
        <ele>523</ele>
        <time>2015-07-08T09:21:06.000Z</time>
      </trkpt>
      <trkpt lat="47.39759" lon="6.67288">
        <ele>523</ele>
        <time>2015-07-08T09:21:07.000Z</time>
      </trkpt>
      <trkpt lat="47.39755" lon="6.67284">
        <ele>524</ele>
        <time>2015-07-08T09:21:08.000Z</time>
      </trkpt>
      <trkpt lat="47.39751" lon="6.6728">
        <ele>524</ele>
        <time>2015-07-08T09:21:09.000Z</time>
      </trkpt>
      <trkpt lat="47.39748" lon="6.67276">
        <ele>524</ele>
        <time>2015-07-08T09:21:10.000Z</time>
      </trkpt>
      <trkpt lat="47.39744" lon="6.67273">
        <ele>524</ele>
        <time>2015-07-08T09:21:11.000Z</time>
      </trkpt>
      <trkpt lat="47.39741" lon="6.67269">
        <ele>525</ele>
        <time>2015-07-08T09:21:12.000Z</time>
      </trkpt>
      <trkpt lat="47.39738" lon="6.67266">
        <ele>525</ele>
        <time>2015-07-08T09:21:13.000Z</time>
      </trkpt>
      <trkpt lat="47.39734" lon="6.67263">
        <ele>525</ele>
        <time>2015-07-08T09:21:14.000Z</time>
      </trkpt>
      <trkpt lat="47.39731" lon="6.67259">
        <ele>525</ele>
        <time>2015-07-08T09:21:15.000Z</time>
      </trkpt>
      <trkpt lat="47.39728" lon="6.67257">
        <ele>526</ele>
        <time>2015-07-08T09:21:16.000Z</time>
      </trkpt>
      <trkpt lat="47.39725" lon="6.67254">
        <ele>526</ele>
        <time>2015-07-08T09:21:17.000Z</time>
      </trkpt>
      <trkpt lat="47.39723" lon="6.67251">
        <ele>526</ele>
        <time>2015-07-08T09:21:18.000Z</time>
      </trkpt>
      <trkpt lat="47.3972" lon="6.67249">
        <ele>526</ele>
        <time>2015-07-08T09:21:19.000Z</time>
      </trkpt>
      <trkpt lat="47.39718" lon="6.67247">
        <ele>526</ele>
        <time>2015-07-08T09:21:20.000Z</time>
      </trkpt>
      <trkpt lat="47.39715" lon="6.67244">
        <ele>527</ele>
        <time>2015-07-08T09:21:21.000Z</time>
      </trkpt>
      <trkpt lat="47.39712" lon="6.67241">
        <ele>527</ele>
        <time>2015-07-08T09:21:22.000Z</time>
      </trkpt>
      <trkpt lat="47.3971" lon="6.67239">
        <ele>527</ele>
        <time>2015-07-08T09:21:23.000Z</time>
      </trkpt>
      <trkpt lat="47.39707" lon="6.67237">
        <ele>528</ele>
        <time>2015-07-08T09:21:24.000Z</time>
      </trkpt>
      <trkpt lat="47.39704" lon="6.67234">
        <ele>528</ele>
        <time>2015-07-08T09:21:25.000Z</time>
      </trkpt>
      <trkpt lat="47.39701" lon="6.67232">
        <ele>528</ele>
        <time>2015-07-08T09:21:26.000Z</time>
      </trkpt>
      <trkpt lat="47.39699" lon="6.6723">
        <ele>529</ele>
        <time>2015-07-08T09:21:27.000Z</time>
      </trkpt>
      <trkpt lat="47.39696" lon="6.67227">
        <ele>529</ele>
        <time>2015-07-08T09:21:28.000Z</time>
      </trkpt>
      <trkpt lat="47.39694" lon="6.67225">
        <ele>529</ele>
        <time>2015-07-08T09:21:29.000Z</time>
      </trkpt>
      <trkpt lat="47.39691" lon="6.67223">
        <ele>530</ele>
        <time>2015-07-08T09:21:30.000Z</time>
      </trkpt>
      <trkpt lat="47.39688" lon="6.6722">
        <ele>530</ele>
        <time>2015-07-08T09:21:31.000Z</time>
      </trkpt>
      <trkpt lat="47.39685" lon="6.67218">
        <ele>530</ele>
        <time>2015-07-08T09:21:32.000Z</time>
      </trkpt>
      <trkpt lat="47.39683" lon="6.67215">
        <ele>530</ele>
        <time>2015-07-08T09:21:33.000Z</time>
      </trkpt>
      <trkpt lat="47.3968" lon="6.67212">
        <ele>531</ele>
        <time>2015-07-08T09:21:34.000Z</time>
      </trkpt>
      <trkpt lat="47.39677" lon="6.6721">
        <ele>531</ele>
        <time>2015-07-08T09:21:35.000Z</time>
      </trkpt>
      <trkpt lat="47.39675" lon="6.67208">
        <ele>531</ele>
        <time>2015-07-08T09:21:36.000Z</time>
      </trkpt>
      <trkpt lat="47.39672" lon="6.67206">
        <ele>531</ele>
        <time>2015-07-08T09:21:37.000Z</time>
      </trkpt>
      <trkpt lat="47.3967" lon="6.67204">
        <ele>531</ele>
        <time>2015-07-08T09:21:38.000Z</time>
      </trkpt>
      <trkpt lat="47.39667" lon="6.67201">
        <ele>532</ele>
        <time>2015-07-08T09:21:39.000Z</time>
      </trkpt>
      <trkpt lat="47.39665" lon="6.67199">
        <ele>532</ele>
        <time>2015-07-08T09:21:40.000Z</time>
      </trkpt>
      <trkpt lat="47.39663" lon="6.67197">
        <ele>532</ele>
        <time>2015-07-08T09:21:41.000Z</time>
      </trkpt>
      <trkpt lat="47.39661" lon="6.67195">
        <ele>532</ele>
        <time>2015-07-08T09:21:42.000Z</time>
      </trkpt>
      <trkpt lat="47.3966" lon="6.67194">
        <ele>532</ele>
        <time>2015-07-08T09:21:43.000Z</time>
      </trkpt>
      <trkpt lat="47.39659" lon="6.67192">
        <ele>532</ele>
        <time>2015-07-08T09:21:44.000Z</time>
      </trkpt>
      <trkpt lat="47.39658" lon="6.67191">
        <ele>532</ele>
        <time>2015-07-08T09:21:45.000Z</time>
      </trkpt>
      <trkpt lat="47.39656" lon="6.6719">
        <ele>533</ele>
        <time>2015-07-08T09:21:46.000Z</time>
      </trkpt>
      <trkpt lat="47.39655" lon="6.67188">
        <ele>533</ele>
        <time>2015-07-08T09:21:47.000Z</time>
      </trkpt>
      <trkpt lat="47.39654" lon="6.67187">
        <ele>533</ele>
        <time>2015-07-08T09:21:48.000Z</time>
      </trkpt>
      <trkpt lat="47.39652" lon="6.67185">
        <ele>533</ele>
        <time>2015-07-08T09:21:49.000Z</time>
      </trkpt>
      <trkpt lat="47.39651" lon="6.67184">
        <ele>533</ele>
        <time>2015-07-08T09:21:50.000Z</time>
      </trkpt>
      <trkpt lat="47.3965" lon="6.67183">
        <ele>533</ele>
        <time>2015-07-08T09:21:51.000Z</time>
      </trkpt>
      <trkpt lat="47.39649" lon="6.67184">
        <ele>533</ele>
        <time>2015-07-08T09:21:52.000Z</time>
      </trkpt>
      <trkpt lat="47.39648" lon="6.67185">
        <ele>533</ele>
        <time>2015-07-08T09:21:53.000Z</time>
      </trkpt>
      <trkpt lat="47.39649" lon="6.67187">
        <ele>533</ele>
        <time>2015-07-08T09:21:54.000Z</time>
      </trkpt>
      <trkpt lat="47.3965" lon="6.67189">
        <ele>533</ele>
        <time>2015-07-08T09:21:55.000Z</time>
      </trkpt>
      <trkpt lat="47.39652" lon="6.67189">
        <ele>533</ele>
        <time>2015-07-08T09:21:56.000Z</time>
      </trkpt>
      <trkpt lat="47.39653" lon="6.67189">
        <ele>533</ele>
        <time>2015-07-08T09:21:57.000Z</time>
      </trkpt>
      <trkpt lat="47.39654" lon="6.6719">
        <ele>534</ele>
        <time>2015-07-08T09:21:58.000Z</time>
      </trkpt>
      <trkpt lat="47.39655" lon="6.6719">
        <ele>534</ele>
        <time>2015-07-08T09:21:59.000Z</time>
      </trkpt>
      <trkpt lat="47.39656" lon="6.6719">
        <ele>534</ele>
        <time>2015-07-08T09:22:00.000Z</time>
      </trkpt>
      <trkpt lat="47.39656" lon="6.6719">
        <ele>534</ele>
        <time>2015-07-08T09:22:01.000Z</time>
      </trkpt>
      <trkpt lat="47.39656" lon="6.67191">
        <ele>534</ele>
        <time>2015-07-08T09:22:02.000Z</time>
      </trkpt>
      <trkpt lat="47.40077" lon="6.67678">
        <ele>516</ele>
        <time>2015-07-08T09:22:03.000Z</time>
      </trkpt>
      <trkpt lat="47.4008" lon="6.67689">
        <ele>516</ele>
        <time>2015-07-08T09:22:04.000Z</time>
      </trkpt>
      <trkpt lat="47.40083" lon="6.677">
        <ele>516</ele>
        <time>2015-07-08T09:22:05.000Z</time>
      </trkpt>
      <trkpt lat="47.40087" lon="6.67711">
        <ele>516</ele>
        <time>2015-07-08T09:22:06.000Z</time>
      </trkpt>
      <trkpt lat="47.4009" lon="6.67723">
        <ele>516</ele>
        <time>2015-07-08T09:22:07.000Z</time>
      </trkpt>
      <trkpt lat="47.40093" lon="6.67734">
        <ele>515</ele>
        <time>2015-07-08T09:22:08.000Z</time>
      </trkpt>
      <trkpt lat="47.40097" lon="6.67746">
        <ele>515</ele>
        <time>2015-07-08T09:22:09.000Z</time>
      </trkpt>
      <trkpt lat="47.401" lon="6.67758">
        <ele>515</ele>
        <time>2015-07-08T09:22:10.000Z</time>
      </trkpt>
      <trkpt lat="47.40104" lon="6.6777">
        <ele>515</ele>
        <time>2015-07-08T09:22:11.000Z</time>
      </trkpt>
      <trkpt lat="47.40107" lon="6.67782">
        <ele>515</ele>
        <time>2015-07-08T09:22:12.000Z</time>
      </trkpt>
      <trkpt lat="47.4011" lon="6.67794">
        <ele>515</ele>
        <time>2015-07-08T09:22:13.000Z</time>
      </trkpt>
      <trkpt lat="47.40113" lon="6.67806">
        <ele>515</ele>
        <time>2015-07-08T09:22:14.000Z</time>
      </trkpt>
      <trkpt lat="47.40116" lon="6.67819">
        <ele>514</ele>
        <time>2015-07-08T09:22:15.000Z</time>
      </trkpt>
      <trkpt lat="47.40119" lon="6.67832">
        <ele>514</ele>
        <time>2015-07-08T09:22:16.000Z</time>
      </trkpt>
      <trkpt lat="47.40121" lon="6.67845">
        <ele>514</ele>
        <time>2015-07-08T09:22:17.000Z</time>
      </trkpt>
      <trkpt lat="47.40123" lon="6.67858">
        <ele>514</ele>
        <time>2015-07-08T09:22:18.000Z</time>
      </trkpt>
      <trkpt lat="47.40125" lon="6.67871">
        <ele>514</ele>
        <time>2015-07-08T09:22:19.000Z</time>
      </trkpt>
      <trkpt lat="47.40125" lon="6.67885">
        <ele>513</ele>
        <time>2015-07-08T09:22:20.000Z</time>
      </trkpt>
      <trkpt lat="47.40125" lon="6.67899">
        <ele>513</ele>
        <time>2015-07-08T09:22:21.000Z</time>
      </trkpt>
      <trkpt lat="47.40123" lon="6.67913">
        <ele>512</ele>
        <time>2015-07-08T09:22:22.000Z</time>
      </trkpt>
      <trkpt lat="47.40121" lon="6.67927">
        <ele>512</ele>
        <time>2015-07-08T09:22:23.000Z</time>
      </trkpt>
      <trkpt lat="47.40118" lon="6.6794">
        <ele>511</ele>
        <time>2015-07-08T09:22:24.000Z</time>
      </trkpt>
      <trkpt lat="47.40113" lon="6.67953">
        <ele>511</ele>
        <time>2015-07-08T09:22:25.000Z</time>
      </trkpt>
      <trkpt lat="47.40108" lon="6.67964">
        <ele>511</ele>
        <time>2015-07-08T09:22:26.000Z</time>
      </trkpt>
      <trkpt lat="47.40101" lon="6.67974">
        <ele>511</ele>
        <time>2015-07-08T09:22:27.000Z</time>
      </trkpt>
      <trkpt lat="47.40094" lon="6.67983">
        <ele>510</ele>
        <time>2015-07-08T09:22:28.000Z</time>
      </trkpt>
      <trkpt lat="47.40087" lon="6.67989">
        <ele>510</ele>
        <time>2015-07-08T09:22:29.000Z</time>
      </trkpt>
      <trkpt lat="47.40078" lon="6.67995">
        <ele>510</ele>
        <time>2015-07-08T09:22:30.000Z</time>
      </trkpt>
      <trkpt lat="47.40069" lon="6.67999">
        <ele>510</ele>
        <time>2015-07-08T09:22:31.000Z</time>
      </trkpt>
      <trkpt lat="47.4006" lon="6.68003">
        <ele>509</ele>
        <time>2015-07-08T09:22:32.000Z</time>
      </trkpt>
      <trkpt lat="47.4005" lon="6.68005">
        <ele>509</ele>
        <time>2015-07-08T09:22:33.000Z</time>
      </trkpt>
      <trkpt lat="47.4004" lon="6.68005">
        <ele>508</ele>
        <time>2015-07-08T09:22:34.000Z</time>
      </trkpt>
      <trkpt lat="47.4003" lon="6.68006">
        <ele>508</ele>
        <time>2015-07-08T09:22:35.000Z</time>
      </trkpt>
      <trkpt lat="47.40019" lon="6.6801">
        <ele>508</ele>
        <time>2015-07-08T09:22:36.000Z</time>
      </trkpt>
      <trkpt lat="47.4001" lon="6.68017">
        <ele>507</ele>
        <time>2015-07-08T09:22:37.000Z</time>
      </trkpt>
      <trkpt lat="47.40002" lon="6.68027">
        <ele>506</ele>
        <time>2015-07-08T09:22:38.000Z</time>
      </trkpt>
      <trkpt lat="47.39996" lon="6.68039">
        <ele>506</ele>
        <time>2015-07-08T09:22:39.000Z</time>
      </trkpt>
      <trkpt lat="47.39991" lon="6.68052">
        <ele>506</ele>
        <time>2015-07-08T09:22:40.000Z</time>
      </trkpt>
      <trkpt lat="47.39987" lon="6.68064">
        <ele>506</ele>
        <time>2015-07-08T09:22:41.000Z</time>
      </trkpt>
      <trkpt lat="47.39983" lon="6.68077">
        <ele>506</ele>
        <time>2015-07-08T09:22:42.000Z</time>
      </trkpt>
      <trkpt lat="47.3998" lon="6.68089">
        <ele>506</ele>
        <time>2015-07-08T09:22:43.000Z</time>
      </trkpt>
      <trkpt lat="47.39976" lon="6.68101">
        <ele>506</ele>
        <time>2015-07-08T09:22:44.000Z</time>
      </trkpt>
      <trkpt lat="47.39973" lon="6.68113">
        <ele>506</ele>
        <time>2015-07-08T09:22:45.000Z</time>
      </trkpt>
      <trkpt lat="47.3997" lon="6.68125">
        <ele>506</ele>
        <time>2015-07-08T09:22:46.000Z</time>
      </trkpt>
      <trkpt lat="47.39967" lon="6.68136">
        <ele>506</ele>
        <time>2015-07-08T09:22:47.000Z</time>
      </trkpt>
      <trkpt lat="47.39964" lon="6.68147">
        <ele>506</ele>
        <time>2015-07-08T09:22:48.000Z</time>
      </trkpt>
      <trkpt lat="47.39962" lon="6.68159">
        <ele>506</ele>
        <time>2015-07-08T09:22:49.000Z</time>
      </trkpt>
      <trkpt lat="47.39961" lon="6.68171">
        <ele>506</ele>
        <time>2015-07-08T09:22:50.000Z</time>
      </trkpt>
      <trkpt lat="47.39962" lon="6.68183">
        <ele>506</ele>
        <time>2015-07-08T09:22:51.000Z</time>
      </trkpt>
      <trkpt lat="47.39965" lon="6.68195">
        <ele>506</ele>
        <time>2015-07-08T09:22:52.000Z</time>
      </trkpt>
      <trkpt lat="47.3997" lon="6.68205">
        <ele>505</ele>
        <time>2015-07-08T09:22:53.000Z</time>
      </trkpt>
      <trkpt lat="47.39976" lon="6.68214">
        <ele>505</ele>
        <time>2015-07-08T09:22:54.000Z</time>
      </trkpt>
      <trkpt lat="47.39982" lon="6.68224">
        <ele>505</ele>
        <time>2015-07-08T09:22:55.000Z</time>
      </trkpt>
      <trkpt lat="47.39988" lon="6.68233">
        <ele>505</ele>
        <time>2015-07-08T09:22:56.000Z</time>
      </trkpt>
      <trkpt lat="47.39994" lon="6.68242">
        <ele>505</ele>
        <time>2015-07-08T09:22:57.000Z</time>
      </trkpt>
      <trkpt lat="47.40001" lon="6.68252">
        <ele>505</ele>
        <time>2015-07-08T09:22:58.000Z</time>
      </trkpt>
      <trkpt lat="47.40007" lon="6.68262">
        <ele>505</ele>
        <time>2015-07-08T09:22:59.000Z</time>
      </trkpt>
      <trkpt lat="47.40014" lon="6.68272">
        <ele>505</ele>
        <time>2015-07-08T09:23:00.000Z</time>
      </trkpt>
      <trkpt lat="47.4002" lon="6.68282">
        <ele>504</ele>
        <time>2015-07-08T09:23:01.000Z</time>
      </trkpt>
      <trkpt lat="47.40026" lon="6.68293">
        <ele>504</ele>
        <time>2015-07-08T09:23:02.000Z</time>
      </trkpt>
      <trkpt lat="47.40032" lon="6.68305">
        <ele>504</ele>
        <time>2015-07-08T09:23:03.000Z</time>
      </trkpt>
      <trkpt lat="47.40038" lon="6.68316">
        <ele>503</ele>
        <time>2015-07-08T09:23:04.000Z</time>
      </trkpt>
      <trkpt lat="47.40044" lon="6.68328">
        <ele>503</ele>
        <time>2015-07-08T09:23:05.000Z</time>
      </trkpt>
      <trkpt lat="47.40051" lon="6.6834">
        <ele>502</ele>
        <time>2015-07-08T09:23:06.000Z</time>
      </trkpt>
      <trkpt lat="47.40056" lon="6.68353">
        <ele>502</ele>
        <time>2015-07-08T09:23:07.000Z</time>
      </trkpt>
      <trkpt lat="47.40062" lon="6.68365">
        <ele>502</ele>
        <time>2015-07-08T09:23:08.000Z</time>
      </trkpt>
      <trkpt lat="47.40068" lon="6.68377">
        <ele>502</ele>
        <time>2015-07-08T09:23:09.000Z</time>
      </trkpt>
      <trkpt lat="47.40074" lon="6.6839">
        <ele>502</ele>
        <time>2015-07-08T09:23:10.000Z</time>
      </trkpt>
      <trkpt lat="47.4008" lon="6.68402">
        <ele>501</ele>
        <time>2015-07-08T09:23:11.000Z</time>
      </trkpt>
      <trkpt lat="47.40086" lon="6.68414">
        <ele>501</ele>
        <time>2015-07-08T09:23:12.000Z</time>
      </trkpt>
      <trkpt lat="47.40092" lon="6.68425">
        <ele>501</ele>
        <time>2015-07-08T09:23:13.000Z</time>
      </trkpt>
      <trkpt lat="47.40098" lon="6.68437">
        <ele>501</ele>
        <time>2015-07-08T09:23:14.000Z</time>
      </trkpt>
      <trkpt lat="47.40103" lon="6.68449">
        <ele>501</ele>
        <time>2015-07-08T09:23:15.000Z</time>
      </trkpt>
      <trkpt lat="47.40109" lon="6.68461">
        <ele>501</ele>
        <time>2015-07-08T09:23:16.000Z</time>
      </trkpt>
      <trkpt lat="47.40115" lon="6.68472">
        <ele>501</ele>
        <time>2015-07-08T09:23:17.000Z</time>
      </trkpt>
      <trkpt lat="47.4012" lon="6.68484">
        <ele>501</ele>
        <time>2015-07-08T09:23:18.000Z</time>
      </trkpt>
      <trkpt lat="47.40126" lon="6.68495">
        <ele>501</ele>
        <time>2015-07-08T09:23:19.000Z</time>
      </trkpt>
      <trkpt lat="47.40133" lon="6.68505">
        <ele>501</ele>
        <time>2015-07-08T09:23:20.000Z</time>
      </trkpt>
      <trkpt lat="47.40139" lon="6.68516">
        <ele>501</ele>
        <time>2015-07-08T09:23:21.000Z</time>
      </trkpt>
      <trkpt lat="47.40145" lon="6.68526">
        <ele>501</ele>
        <time>2015-07-08T09:23:22.000Z</time>
      </trkpt>
      <trkpt lat="47.40151" lon="6.68537">
        <ele>501</ele>
        <time>2015-07-08T09:23:23.000Z</time>
      </trkpt>
      <trkpt lat="47.40157" lon="6.68548">
        <ele>501</ele>
        <time>2015-07-08T09:23:24.000Z</time>
      </trkpt>
      <trkpt lat="47.40164" lon="6.68558">
        <ele>501</ele>
        <time>2015-07-08T09:23:25.000Z</time>
      </trkpt>
      <trkpt lat="47.4017" lon="6.68569">
        <ele>501</ele>
        <time>2015-07-08T09:23:26.000Z</time>
      </trkpt>
      <trkpt lat="47.40176" lon="6.68579">
        <ele>501</ele>
        <time>2015-07-08T09:23:27.000Z</time>
      </trkpt>
      <trkpt lat="47.40183" lon="6.68589">
        <ele>501</ele>
        <time>2015-07-08T09:23:28.000Z</time>
      </trkpt>
      <trkpt lat="47.40189" lon="6.68598">
        <ele>501</ele>
        <time>2015-07-08T09:23:29.000Z</time>
      </trkpt>
      <trkpt lat="47.40195" lon="6.68608">
        <ele>501</ele>
        <time>2015-07-08T09:23:30.000Z</time>
      </trkpt>
      <trkpt lat="47.40201" lon="6.68618">
        <ele>501</ele>
        <time>2015-07-08T09:23:31.000Z</time>
      </trkpt>
      <trkpt lat="47.40207" lon="6.68628">
        <ele>501</ele>
        <time>2015-07-08T09:23:32.000Z</time>
      </trkpt>
      <trkpt lat="47.40213" lon="6.68638">
        <ele>501</ele>
        <time>2015-07-08T09:23:33.000Z</time>
      </trkpt>
      <trkpt lat="47.4022" lon="6.68648">
        <ele>500</ele>
        <time>2015-07-08T09:23:34.000Z</time>
      </trkpt>
      <trkpt lat="47.40226" lon="6.68657">
        <ele>500</ele>
        <time>2015-07-08T09:23:35.000Z</time>
      </trkpt>
      <trkpt lat="47.40232" lon="6.68667">
        <ele>500</ele>
        <time>2015-07-08T09:23:36.000Z</time>
      </trkpt>
      <trkpt lat="47.40239" lon="6.68677">
        <ele>500</ele>
        <time>2015-07-08T09:23:37.000Z</time>
      </trkpt>
      <trkpt lat="47.40245" lon="6.68687">
        <ele>500</ele>
        <time>2015-07-08T09:23:38.000Z</time>
      </trkpt>
      <trkpt lat="47.40252" lon="6.68696">
        <ele>500</ele>
        <time>2015-07-08T09:23:39.000Z</time>
      </trkpt>
      <trkpt lat="47.4026" lon="6.68705">
        <ele>500</ele>
        <time>2015-07-08T09:23:40.000Z</time>
      </trkpt>
      <trkpt lat="47.40268" lon="6.68713">
        <ele>500</ele>
        <time>2015-07-08T09:23:41.000Z</time>
      </trkpt>
      <trkpt lat="47.40276" lon="6.6872">
        <ele>499</ele>
        <time>2015-07-08T09:23:42.000Z</time>
      </trkpt>
      <trkpt lat="47.40286" lon="6.68725">
        <ele>499</ele>
        <time>2015-07-08T09:23:43.000Z</time>
      </trkpt>
      <trkpt lat="47.40295" lon="6.68729">
        <ele>499</ele>
        <time>2015-07-08T09:23:44.000Z</time>
      </trkpt>
      <trkpt lat="47.40305" lon="6.68733">
        <ele>499</ele>
        <time>2015-07-08T09:23:45.000Z</time>
      </trkpt>
      <trkpt lat="47.40315" lon="6.68738">
        <ele>498</ele>
        <time>2015-07-08T09:23:46.000Z</time>
      </trkpt>
      <trkpt lat="47.40325" lon="6.68742">
        <ele>498</ele>
        <time>2015-07-08T09:23:47.000Z</time>
      </trkpt>
      <trkpt lat="47.40335" lon="6.68746">
        <ele>498</ele>
        <time>2015-07-08T09:23:48.000Z</time>
      </trkpt>
      <trkpt lat="47.40346" lon="6.6875">
        <ele>497</ele>
        <time>2015-07-08T09:23:49.000Z</time>
      </trkpt>
      <trkpt lat="47.40356" lon="6.68754">
        <ele>497</ele>
        <time>2015-07-08T09:23:50.000Z</time>
      </trkpt>
      <trkpt lat="47.40367" lon="6.68757">
        <ele>496</ele>
        <time>2015-07-08T09:23:51.000Z</time>
      </trkpt>
      <trkpt lat="47.40378" lon="6.68761">
        <ele>496</ele>
        <time>2015-07-08T09:23:52.000Z</time>
      </trkpt>
      <trkpt lat="47.40389" lon="6.68765">
        <ele>495</ele>
        <time>2015-07-08T09:23:53.000Z</time>
      </trkpt>
      <trkpt lat="47.404" lon="6.68769">
        <ele>494</ele>
        <time>2015-07-08T09:23:54.000Z</time>
      </trkpt>
      <trkpt lat="47.4041" lon="6.68773">
        <ele>493</ele>
        <time>2015-07-08T09:23:55.000Z</time>
      </trkpt>
      <trkpt lat="47.40421" lon="6.68777">
        <ele>492</ele>
        <time>2015-07-08T09:23:56.000Z</time>
      </trkpt>
      <trkpt lat="47.40432" lon="6.68783">
        <ele>491</ele>
        <time>2015-07-08T09:23:57.000Z</time>
      </trkpt>
      <trkpt lat="47.40443" lon="6.6879">
        <ele>490</ele>
        <time>2015-07-08T09:23:58.000Z</time>
      </trkpt>
      <trkpt lat="47.40454" lon="6.68798">
        <ele>489</ele>
        <time>2015-07-08T09:23:59.000Z</time>
      </trkpt>
      <trkpt lat="47.40465" lon="6.68806">
        <ele>488</ele>
        <time>2015-07-08T09:24:00.000Z</time>
      </trkpt>
      <trkpt lat="47.40473" lon="6.68814">
        <ele>487</ele>
        <time>2015-07-08T09:24:01.000Z</time>
      </trkpt>
      <trkpt lat="47.4048" lon="6.68821">
        <ele>486</ele>
        <time>2015-07-08T09:24:02.000Z</time>
      </trkpt>
      <trkpt lat="47.40487" lon="6.68827">
        <ele>485</ele>
        <time>2015-07-08T09:24:03.000Z</time>
      </trkpt>
      <trkpt lat="47.40494" lon="6.68834">
        <ele>484</ele>
        <time>2015-07-08T09:24:04.000Z</time>
      </trkpt>
      <trkpt lat="47.405" lon="6.68839">
        <ele>483</ele>
        <time>2015-07-08T09:24:05.000Z</time>
      </trkpt>
      <trkpt lat="47.40505" lon="6.68845">
        <ele>482</ele>
        <time>2015-07-08T09:24:06.000Z</time>
      </trkpt>
      <trkpt lat="47.4051" lon="6.6885">
        <ele>482</ele>
        <time>2015-07-08T09:24:07.000Z</time>
      </trkpt>
      <trkpt lat="47.40514" lon="6.68854">
        <ele>481</ele>
        <time>2015-07-08T09:24:08.000Z</time>
      </trkpt>
      <trkpt lat="47.40517" lon="6.68857">
        <ele>481</ele>
        <time>2015-07-08T09:24:09.000Z</time>
      </trkpt>
      <trkpt lat="47.40519" lon="6.6886">
        <ele>481</ele>
        <time>2015-07-08T09:24:10.000Z</time>
      </trkpt>
      <trkpt lat="47.40521" lon="6.68861">
        <ele>480</ele>
        <time>2015-07-08T09:24:11.000Z</time>
      </trkpt>
      <trkpt lat="47.40523" lon="6.68863">
        <ele>480</ele>
        <time>2015-07-08T09:24:12.000Z</time>
      </trkpt>
      <trkpt lat="47.40524" lon="6.68864">
        <ele>480</ele>
        <time>2015-07-08T09:24:13.000Z</time>
      </trkpt>
      <trkpt lat="47.40526" lon="6.68865">
        <ele>480</ele>
        <time>2015-07-08T09:24:14.000Z</time>
      </trkpt>
      <trkpt lat="47.40527" lon="6.68866">
        <ele>480</ele>
        <time>2015-07-08T09:24:15.000Z</time>
      </trkpt>
      <trkpt lat="47.40528" lon="6.68867">
        <ele>480</ele>
        <time>2015-07-08T09:24:16.000Z</time>
      </trkpt>
      <trkpt lat="47.40529" lon="6.68868">
        <ele>480</ele>
        <time>2015-07-08T09:24:17.000Z</time>
      </trkpt>
      <trkpt lat="47.40531" lon="6.6887">
        <ele>480</ele>
        <time>2015-07-08T09:24:18.000Z</time>
      </trkpt>
      <trkpt lat="47.40532" lon="6.68872">
        <ele>480</ele>
        <time>2015-07-08T09:24:19.000Z</time>
      </trkpt>
      <trkpt lat="47.40533" lon="6.68873">
        <ele>480</ele>
        <time>2015-07-08T09:24:20.000Z</time>
      </trkpt>
      <trkpt lat="47.40534" lon="6.68875">
        <ele>480</ele>
        <time>2015-07-08T09:24:21.000Z</time>
      </trkpt>
      <trkpt lat="47.40535" lon="6.68876">
        <ele>480</ele>
        <time>2015-07-08T09:24:22.000Z</time>
      </trkpt>
      <trkpt lat="47.40537" lon="6.68878">
        <ele>480</ele>
        <time>2015-07-08T09:24:23.000Z</time>
      </trkpt>
      <trkpt lat="47.40538" lon="6.68879">
        <ele>481</ele>
        <time>2015-07-08T09:24:24.000Z</time>
      </trkpt>
      <trkpt lat="47.40539" lon="6.6888">
        <ele>481</ele>
        <time>2015-07-08T09:24:25.000Z</time>
      </trkpt>
      <trkpt lat="47.40539" lon="6.6888">
        <ele>481</ele>
        <time>2015-07-08T09:24:26.000Z</time>
      </trkpt>
      <trkpt lat="47.4054" lon="6.6888">
        <ele>481</ele>
        <time>2015-07-08T09:24:27.000Z</time>
      </trkpt>
      <trkpt lat="47.4054" lon="6.6888">
        <ele>481</ele>
        <time>2015-07-08T09:24:28.000Z</time>
      </trkpt>
      <trkpt lat="47.4054" lon="6.68881">
        <ele>481</ele>
        <time>2015-07-08T09:24:29.000Z</time>
      </trkpt>
      <trkpt lat="47.4054" lon="6.68881">
        <ele>482</ele>
        <time>2015-07-08T09:24:30.000Z</time>
      </trkpt>
      <trkpt lat="47.4054" lon="6.68881">
        <ele>482</ele>
        <time>2015-07-08T09:24:31.000Z</time>
      </trkpt>
      <trkpt lat="47.4054" lon="6.68881">
        <ele>482</ele>
        <time>2015-07-08T09:24:32.000Z</time>
      </trkpt>
      <trkpt lat="47.4054" lon="6.68881">
        <ele>482</ele>
        <time>2015-07-08T09:24:33.000Z</time>
      </trkpt>
      <trkpt lat="47.4054" lon="6.68881">
        <ele>482</ele>
        <time>2015-07-08T09:24:34.000Z</time>
      </trkpt>
      <trkpt lat="47.4054" lon="6.68881">
        <ele>482</ele>
        <time>2015-07-08T09:24:35.000Z</time>
      </trkpt>
      <trkpt lat="47.4054" lon="6.68882">
        <ele>482</ele>
        <time>2015-07-08T09:24:36.000Z</time>
      </trkpt>
      <trkpt lat="47.4054" lon="6.68882">
        <ele>483</ele>
        <time>2015-07-08T09:24:37.000Z</time>
      </trkpt>
      <trkpt lat="47.4054" lon="6.68882">
        <ele>483</ele>
        <time>2015-07-08T09:24:38.000Z</time>
      </trkpt>
      <trkpt lat="47.4054" lon="6.68882">
        <ele>483</ele>
        <time>2015-07-08T09:24:39.000Z</time>
      </trkpt>
      <trkpt lat="47.4054" lon="6.68882">
        <ele>483</ele>
        <time>2015-07-08T09:24:40.000Z</time>
      </trkpt>
      <trkpt lat="47.4054" lon="6.68882">
        <ele>483</ele>
        <time>2015-07-08T09:24:41.000Z</time>
      </trkpt>
      <trkpt lat="47.4054" lon="6.68882">
        <ele>483</ele>
        <time>2015-07-08T09:24:42.000Z</time>
      </trkpt>
      <trkpt lat="47.4054" lon="6.68882">
        <ele>483</ele>
        <time>2015-07-08T09:24:43.000Z</time>
      </trkpt>
      <trkpt lat="47.4054" lon="6.68882">
        <ele>483</ele>
        <time>2015-07-08T09:24:44.000Z</time>
      </trkpt>
      <trkpt lat="47.4054" lon="6.68882">
        <ele>483</ele>
        <time>2015-07-08T09:24:45.000Z</time>
      </trkpt>
      <trkpt lat="47.4054" lon="6.68882">
        <ele>483</ele>
        <time>2015-07-08T09:24:46.000Z</time>
      </trkpt>
      <trkpt lat="47.4054" lon="6.68882">
        <ele>483</ele>
        <time>2015-07-08T09:24:47.000Z</time>
      </trkpt>
      <trkpt lat="47.4054" lon="6.68882">
        <ele>484</ele>
        <time>2015-07-08T09:24:48.000Z</time>
      </trkpt>
      <trkpt lat="47.4054" lon="6.68882">
        <ele>484</ele>
        <time>2015-07-08T09:24:49.000Z</time>
      </trkpt>
      <trkpt lat="47.40541" lon="6.68882">
        <ele>484</ele>
        <time>2015-07-08T09:24:50.000Z</time>
      </trkpt>
      <trkpt lat="47.40541" lon="6.68883">
        <ele>484</ele>
        <time>2015-07-08T09:24:51.000Z</time>
      </trkpt>
      <trkpt lat="47.40541" lon="6.68883">
        <ele>484</ele>
        <time>2015-07-08T09:24:52.000Z</time>
      </trkpt>
      <trkpt lat="47.40541" lon="6.68883">
        <ele>484</ele>
        <time>2015-07-08T09:24:53.000Z</time>
      </trkpt>
      <trkpt lat="47.40541" lon="6.68883">
        <ele>484</ele>
        <time>2015-07-08T09:24:54.000Z</time>
      </trkpt>
      <trkpt lat="47.40541" lon="6.68883">
        <ele>484</ele>
        <time>2015-07-08T09:24:55.000Z</time>
      </trkpt>
      <trkpt lat="47.40541" lon="6.68883">
        <ele>484</ele>
        <time>2015-07-08T09:24:56.000Z</time>
      </trkpt>
      <trkpt lat="47.40541" lon="6.68883">
        <ele>484</ele>
        <time>2015-07-08T09:24:57.000Z</time>
      </trkpt>
      <trkpt lat="47.40541" lon="6.68883">
        <ele>484</ele>
        <time>2015-07-08T09:24:58.000Z</time>
      </trkpt>
      <trkpt lat="47.40541" lon="6.68883">
        <ele>484</ele>
        <time>2015-07-08T09:24:59.000Z</time>
      </trkpt>
      <trkpt lat="47.40541" lon="6.68883">
        <ele>484</ele>
        <time>2015-07-08T09:25:00.000Z</time>
      </trkpt>
      <trkpt lat="47.40541" lon="6.68883">
        <ele>484</ele>
        <time>2015-07-08T09:25:01.000Z</time>
      </trkpt>
      <trkpt lat="47.40541" lon="6.68883">
        <ele>484</ele>
        <time>2015-07-08T09:25:02.000Z</time>
      </trkpt>
      <trkpt lat="47.40541" lon="6.68883">
        <ele>484</ele>
        <time>2015-07-08T09:25:03.000Z</time>
      </trkpt>
      <trkpt lat="47.40541" lon="6.68883">
        <ele>484</ele>
        <time>2015-07-08T09:25:04.000Z</time>
      </trkpt>
      <trkpt lat="47.40541" lon="6.68883">
        <ele>484</ele>
        <time>2015-07-08T09:25:05.000Z</time>
      </trkpt>
      <trkpt lat="47.40541" lon="6.68883">
        <ele>484</ele>
        <time>2015-07-08T09:25:06.000Z</time>
      </trkpt>
      <trkpt lat="47.40541" lon="6.68883">
        <ele>484</ele>
        <time>2015-07-08T09:25:07.000Z</time>
      </trkpt>
      <trkpt lat="47.40541" lon="6.68883">
        <ele>484</ele>
        <time>2015-07-08T09:25:08.000Z</time>
      </trkpt>
      <trkpt lat="47.40541" lon="6.68883">
        <ele>484</ele>
        <time>2015-07-08T09:25:09.000Z</time>
      </trkpt>
      <trkpt lat="47.40541" lon="6.68883">
        <ele>484</ele>
        <time>2015-07-08T09:25:10.000Z</time>
      </trkpt>
      <trkpt lat="47.40541" lon="6.68883">
        <ele>484</ele>
        <time>2015-07-08T09:25:11.000Z</time>
      </trkpt>
      <trkpt lat="47.40541" lon="6.68883">
        <ele>484</ele>
        <time>2015-07-08T09:25:12.000Z</time>
      </trkpt>
      <trkpt lat="47.40541" lon="6.68883">
        <ele>484</ele>
        <time>2015-07-08T09:25:13.000Z</time>
      </trkpt>
      <trkpt lat="47.40541" lon="6.68883">
        <ele>484</ele>
        <time>2015-07-08T09:25:14.000Z</time>
      </trkpt>
      <trkpt lat="47.40541" lon="6.68883">
        <ele>484</ele>
        <time>2015-07-08T09:25:15.000Z</time>
      </trkpt>
      <trkpt lat="47.40541" lon="6.68883">
        <ele>484</ele>
        <time>2015-07-08T09:25:16.000Z</time>
      </trkpt>
      <trkpt lat="47.40541" lon="6.68883">
        <ele>484</ele>
        <time>2015-07-08T09:25:17.000Z</time>
      </trkpt>
      <trkpt lat="47.40541" lon="6.68883">
        <ele>484</ele>
        <time>2015-07-08T09:25:18.000Z</time>
      </trkpt>
      <trkpt lat="47.40541" lon="6.68883">
        <ele>484</ele>
        <time>2015-07-08T09:25:19.000Z</time>
      </trkpt>
      <trkpt lat="47.40541" lon="6.68883">
        <ele>484</ele>
        <time>2015-07-08T09:25:20.000Z</time>
      </trkpt>
      <trkpt lat="47.40541" lon="6.68883">
        <ele>484</ele>
        <time>2015-07-08T09:25:21.000Z</time>
      </trkpt>
      <trkpt lat="47.40541" lon="6.68883">
        <ele>484</ele>
        <time>2015-07-08T09:25:22.000Z</time>
      </trkpt>
      <trkpt lat="47.40541" lon="6.68883">
        <ele>484</ele>
        <time>2015-07-08T09:25:23.000Z</time>
      </trkpt>
      <trkpt lat="47.40541" lon="6.68883">
        <ele>484</ele>
        <time>2015-07-08T09:25:24.000Z</time>
      </trkpt>
      <trkpt lat="47.40541" lon="6.68883">
        <ele>484</ele>
        <time>2015-07-08T09:25:25.000Z</time>
      </trkpt>
      <trkpt lat="47.40541" lon="6.68883">
        <ele>484</ele>
        <time>2015-07-08T09:25:26.000Z</time>
      </trkpt>
      <trkpt lat="47.40541" lon="6.68883">
        <ele>484</ele>
        <time>2015-07-08T09:25:27.000Z</time>
      </trkpt>
      <trkpt lat="47.40541" lon="6.68883">
        <ele>484</ele>
        <time>2015-07-08T09:25:28.000Z</time>
      </trkpt>
      <trkpt lat="47.40541" lon="6.68883">
        <ele>484</ele>
        <time>2015-07-08T09:25:29.000Z</time>
      </trkpt>
      <trkpt lat="47.4054" lon="6.68883">
        <ele>484</ele>
        <time>2015-07-08T09:25:30.000Z</time>
      </trkpt>
      <trkpt lat="47.4054" lon="6.68883">
        <ele>484</ele>
        <time>2015-07-08T09:25:31.000Z</time>
      </trkpt>
      <trkpt lat="47.40541" lon="6.68883">
        <ele>484</ele>
        <time>2015-07-08T09:25:32.000Z</time>
      </trkpt>
      <trkpt lat="47.40541" lon="6.68883">
        <ele>484</ele>
        <time>2015-07-08T09:25:33.000Z</time>
      </trkpt>
      <trkpt lat="47.4054" lon="6.68883">
        <ele>484</ele>
        <time>2015-07-08T09:25:34.000Z</time>
      </trkpt>
      <trkpt lat="47.4054" lon="6.68883">
        <ele>484</ele>
        <time>2015-07-08T09:25:35.000Z</time>
      </trkpt>
      <trkpt lat="47.4054" lon="6.68883">
        <ele>484</ele>
        <time>2015-07-08T09:25:36.000Z</time>
      </trkpt>
      <trkpt lat="47.4054" lon="6.68883">
        <ele>484</ele>
        <time>2015-07-08T09:25:37.000Z</time>
      </trkpt>
      <trkpt lat="47.4054" lon="6.68883">
        <ele>484</ele>
        <time>2015-07-08T09:25:38.000Z</time>
      </trkpt>
      <trkpt lat="47.40541" lon="6.68883">
        <ele>484</ele>
        <time>2015-07-08T09:25:39.000Z</time>
      </trkpt>
      <trkpt lat="47.4054" lon="6.68883">
        <ele>484</ele>
        <time>2015-07-08T09:25:40.000Z</time>
      </trkpt>
      <trkpt lat="47.4054" lon="6.68883">
        <ele>484</ele>
        <time>2015-07-08T09:25:41.000Z</time>
      </trkpt>
      <trkpt lat="47.4054" lon="6.68883">
        <ele>484</ele>
        <time>2015-07-08T09:25:42.000Z</time>
      </trkpt>
      <trkpt lat="47.4054" lon="6.68883">
        <ele>484</ele>
        <time>2015-07-08T09:25:43.000Z</time>
      </trkpt>
      <trkpt lat="47.4054" lon="6.68882">
        <ele>484</ele>
        <time>2015-07-08T09:25:44.000Z</time>
      </trkpt>
      <trkpt lat="47.4054" lon="6.68882">
        <ele>484</ele>
        <time>2015-07-08T09:25:45.000Z</time>
      </trkpt>
      <trkpt lat="47.4054" lon="6.68882">
        <ele>484</ele>
        <time>2015-07-08T09:25:46.000Z</time>
      </trkpt>
      <trkpt lat="47.4054" lon="6.68882">
        <ele>484</ele>
        <time>2015-07-08T09:25:47.000Z</time>
      </trkpt>
      <trkpt lat="47.4054" lon="6.68882">
        <ele>484</ele>
        <time>2015-07-08T09:25:48.000Z</time>
      </trkpt>
      <trkpt lat="47.4054" lon="6.68882">
        <ele>484</ele>
        <time>2015-07-08T09:25:49.000Z</time>
      </trkpt>
      <trkpt lat="47.4054" lon="6.68882">
        <ele>484</ele>
        <time>2015-07-08T09:25:50.000Z</time>
      </trkpt>
      <trkpt lat="47.4054" lon="6.68882">
        <ele>484</ele>
        <time>2015-07-08T09:25:51.000Z</time>
      </trkpt>
      <trkpt lat="47.4054" lon="6.68882">
        <ele>484</ele>
        <time>2015-07-08T09:25:52.000Z</time>
      </trkpt>
      <trkpt lat="47.4054" lon="6.68882">
        <ele>484</ele>
        <time>2015-07-08T09:25:53.000Z</time>
      </trkpt>
      <trkpt lat="47.4054" lon="6.68882">
        <ele>484</ele>
        <time>2015-07-08T09:25:54.000Z</time>
      </trkpt>
      <trkpt lat="47.4054" lon="6.68882">
        <ele>484</ele>
        <time>2015-07-08T09:25:55.000Z</time>
      </trkpt>
      <trkpt lat="47.4054" lon="6.68882">
        <ele>484</ele>
        <time>2015-07-08T09:25:56.000Z</time>
      </trkpt>
      <trkpt lat="47.4054" lon="6.68882">
        <ele>484</ele>
        <time>2015-07-08T09:25:57.000Z</time>
      </trkpt>
      <trkpt lat="47.4054" lon="6.68882">
        <ele>484</ele>
        <time>2015-07-08T09:25:58.000Z</time>
      </trkpt>
      <trkpt lat="47.4054" lon="6.68882">
        <ele>484</ele>
        <time>2015-07-08T09:25:59.000Z</time>
      </trkpt>
      <trkpt lat="47.4054" lon="6.68882">
        <ele>484</ele>
        <time>2015-07-08T09:26:00.000Z</time>
      </trkpt>
      <trkpt lat="47.4054" lon="6.68882">
        <ele>484</ele>
        <time>2015-07-08T09:26:01.000Z</time>
      </trkpt>
      <trkpt lat="47.4054" lon="6.68882">
        <ele>484</ele>
        <time>2015-07-08T09:26:02.000Z</time>
      </trkpt>
      <trkpt lat="47.4054" lon="6.68882">
        <ele>484</ele>
        <time>2015-07-08T09:26:03.000Z</time>
      </trkpt>
      <trkpt lat="47.40456" lon="6.68796">
        <ele>491</ele>
        <time>2015-07-08T09:26:04.000Z</time>
      </trkpt>
      <trkpt lat="47.40454" lon="6.68795">
        <ele>491</ele>
        <time>2015-07-08T09:26:05.000Z</time>
      </trkpt>
      <trkpt lat="47.40452" lon="6.68794">
        <ele>491</ele>
        <time>2015-07-08T09:26:06.000Z</time>
      </trkpt>
      <trkpt lat="47.4045" lon="6.68792">
        <ele>491</ele>
        <time>2015-07-08T09:26:07.000Z</time>
      </trkpt>
      <trkpt lat="47.40448" lon="6.6879">
        <ele>491</ele>
        <time>2015-07-08T09:26:08.000Z</time>
      </trkpt>
      <trkpt lat="47.40447" lon="6.68789">
        <ele>491</ele>
        <time>2015-07-08T09:26:09.000Z</time>
      </trkpt>
      <trkpt lat="47.40445" lon="6.68787">
        <ele>491</ele>
        <time>2015-07-08T09:26:10.000Z</time>
      </trkpt>
      <trkpt lat="47.40444" lon="6.68785">
        <ele>492</ele>
        <time>2015-07-08T09:26:11.000Z</time>
      </trkpt>
      <trkpt lat="47.40442" lon="6.68784">
        <ele>492</ele>
        <time>2015-07-08T09:26:12.000Z</time>
      </trkpt>
      <trkpt lat="47.4044" lon="6.68783">
        <ele>492</ele>
        <time>2015-07-08T09:26:13.000Z</time>
      </trkpt>
      <trkpt lat="47.40438" lon="6.68782">
        <ele>492</ele>
        <time>2015-07-08T09:26:14.000Z</time>
      </trkpt>
      <trkpt lat="47.40436" lon="6.68781">
        <ele>492</ele>
        <time>2015-07-08T09:26:15.000Z</time>
      </trkpt>
      <trkpt lat="47.40435" lon="6.6878">
        <ele>492</ele>
        <time>2015-07-08T09:26:16.000Z</time>
      </trkpt>
      <trkpt lat="47.40433" lon="6.68778">
        <ele>492</ele>
        <time>2015-07-08T09:26:17.000Z</time>
      </trkpt>
      <trkpt lat="47.40431" lon="6.68777">
        <ele>493</ele>
        <time>2015-07-08T09:26:18.000Z</time>
      </trkpt>
      <trkpt lat="47.4043" lon="6.68776">
        <ele>493</ele>
        <time>2015-07-08T09:26:19.000Z</time>
      </trkpt>
      <trkpt lat="47.40428" lon="6.68775">
        <ele>493</ele>
        <time>2015-07-08T09:26:20.000Z</time>
      </trkpt>
      <trkpt lat="47.40426" lon="6.68774">
        <ele>493</ele>
        <time>2015-07-08T09:26:21.000Z</time>
      </trkpt>
      <trkpt lat="47.40424" lon="6.68774">
        <ele>493</ele>
        <time>2015-07-08T09:26:22.000Z</time>
      </trkpt>
      <trkpt lat="47.40422" lon="6.68773">
        <ele>493</ele>
        <time>2015-07-08T09:26:23.000Z</time>
      </trkpt>
      <trkpt lat="47.4042" lon="6.68773">
        <ele>493</ele>
        <time>2015-07-08T09:26:24.000Z</time>
      </trkpt>
      <trkpt lat="47.40418" lon="6.68772">
        <ele>494</ele>
        <time>2015-07-08T09:26:25.000Z</time>
      </trkpt>
      <trkpt lat="47.40416" lon="6.68771">
        <ele>494</ele>
        <time>2015-07-08T09:26:26.000Z</time>
      </trkpt>
      <trkpt lat="47.40414" lon="6.6877">
        <ele>494</ele>
        <time>2015-07-08T09:26:27.000Z</time>
      </trkpt>
      <trkpt lat="47.40411" lon="6.68768">
        <ele>494</ele>
        <time>2015-07-08T09:26:28.000Z</time>
      </trkpt>
      <trkpt lat="47.40408" lon="6.68767">
        <ele>494</ele>
        <time>2015-07-08T09:26:29.000Z</time>
      </trkpt>
      <trkpt lat="47.40405" lon="6.68767">
        <ele>495</ele>
        <time>2015-07-08T09:26:30.000Z</time>
      </trkpt>
      <trkpt lat="47.40403" lon="6.68766">
        <ele>495</ele>
        <time>2015-07-08T09:26:31.000Z</time>
      </trkpt>
      <trkpt lat="47.40401" lon="6.68765">
        <ele>495</ele>
        <time>2015-07-08T09:26:32.000Z</time>
      </trkpt>
      <trkpt lat="47.40398" lon="6.68764">
        <ele>495</ele>
        <time>2015-07-08T09:26:33.000Z</time>
      </trkpt>
      <trkpt lat="47.40396" lon="6.68763">
        <ele>495</ele>
        <time>2015-07-08T09:26:34.000Z</time>
      </trkpt>
      <trkpt lat="47.40394" lon="6.68763">
        <ele>495</ele>
        <time>2015-07-08T09:26:35.000Z</time>
      </trkpt>
      <trkpt lat="47.40392" lon="6.68762">
        <ele>495</ele>
        <time>2015-07-08T09:26:36.000Z</time>
      </trkpt>
      <trkpt lat="47.4039" lon="6.68762">
        <ele>495</ele>
        <time>2015-07-08T09:26:37.000Z</time>
      </trkpt>
      <trkpt lat="47.40388" lon="6.68761">
        <ele>495</ele>
        <time>2015-07-08T09:26:38.000Z</time>
      </trkpt>
      <trkpt lat="47.40387" lon="6.68761">
        <ele>495</ele>
        <time>2015-07-08T09:26:39.000Z</time>
      </trkpt>
      <trkpt lat="47.40385" lon="6.68761">
        <ele>496</ele>
        <time>2015-07-08T09:26:40.000Z</time>
      </trkpt>
      <trkpt lat="47.40384" lon="6.68761">
        <ele>496</ele>
        <time>2015-07-08T09:26:41.000Z</time>
      </trkpt>
      <trkpt lat="47.40382" lon="6.6876">
        <ele>496</ele>
        <time>2015-07-08T09:26:42.000Z</time>
      </trkpt>
      <trkpt lat="47.40381" lon="6.68759">
        <ele>496</ele>
        <time>2015-07-08T09:26:43.000Z</time>
      </trkpt>
      <trkpt lat="47.40379" lon="6.68758">
        <ele>496</ele>
        <time>2015-07-08T09:26:44.000Z</time>
      </trkpt>
      <trkpt lat="47.40378" lon="6.68757">
        <ele>496</ele>
        <time>2015-07-08T09:26:45.000Z</time>
      </trkpt>
      <trkpt lat="47.40376" lon="6.68756">
        <ele>496</ele>
        <time>2015-07-08T09:26:46.000Z</time>
      </trkpt>
      <trkpt lat="47.40374" lon="6.68756">
        <ele>496</ele>
        <time>2015-07-08T09:26:47.000Z</time>
      </trkpt>
      <trkpt lat="47.40373" lon="6.68756">
        <ele>496</ele>
        <time>2015-07-08T09:26:48.000Z</time>
      </trkpt>
      <trkpt lat="47.40371" lon="6.68755">
        <ele>496</ele>
        <time>2015-07-08T09:26:49.000Z</time>
      </trkpt>
      <trkpt lat="47.4037" lon="6.68755">
        <ele>496</ele>
        <time>2015-07-08T09:26:50.000Z</time>
      </trkpt>
      <trkpt lat="47.40368" lon="6.68754">
        <ele>496</ele>
        <time>2015-07-08T09:26:51.000Z</time>
      </trkpt>
      <trkpt lat="47.40367" lon="6.68753">
        <ele>496</ele>
        <time>2015-07-08T09:26:52.000Z</time>
      </trkpt>
      <trkpt lat="47.40365" lon="6.68753">
        <ele>496</ele>
        <time>2015-07-08T09:26:53.000Z</time>
      </trkpt>
      <trkpt lat="47.40364" lon="6.68752">
        <ele>496</ele>
        <time>2015-07-08T09:26:54.000Z</time>
      </trkpt>
      <trkpt lat="47.40362" lon="6.68751">
        <ele>496</ele>
        <time>2015-07-08T09:26:55.000Z</time>
      </trkpt>
      <trkpt lat="47.4036" lon="6.6875">
        <ele>497</ele>
        <time>2015-07-08T09:26:56.000Z</time>
      </trkpt>
      <trkpt lat="47.40358" lon="6.68749">
        <ele>497</ele>
        <time>2015-07-08T09:26:57.000Z</time>
      </trkpt>
      <trkpt lat="47.40356" lon="6.68749">
        <ele>497</ele>
        <time>2015-07-08T09:26:58.000Z</time>
      </trkpt>
      <trkpt lat="47.40354" lon="6.68748">
        <ele>497</ele>
        <time>2015-07-08T09:26:59.000Z</time>
      </trkpt>
      <trkpt lat="47.40352" lon="6.68747">
        <ele>497</ele>
        <time>2015-07-08T09:27:00.000Z</time>
      </trkpt>
      <trkpt lat="47.4035" lon="6.68747">
        <ele>497</ele>
        <time>2015-07-08T09:27:01.000Z</time>
      </trkpt>
      <trkpt lat="47.40348" lon="6.68746">
        <ele>497</ele>
        <time>2015-07-08T09:27:02.000Z</time>
      </trkpt>
      <trkpt lat="47.40346" lon="6.68744">
        <ele>497</ele>
        <time>2015-07-08T09:27:03.000Z</time>
      </trkpt>
      <trkpt lat="47.40343" lon="6.68743">
        <ele>497</ele>
        <time>2015-07-08T09:27:04.000Z</time>
      </trkpt>
      <trkpt lat="47.40341" lon="6.68742">
        <ele>497</ele>
        <time>2015-07-08T09:27:05.000Z</time>
      </trkpt>
      <trkpt lat="47.40338" lon="6.68741">
        <ele>497</ele>
        <time>2015-07-08T09:27:06.000Z</time>
      </trkpt>
      <trkpt lat="47.40335" lon="6.6874">
        <ele>497</ele>
        <time>2015-07-08T09:27:07.000Z</time>
      </trkpt>
      <trkpt lat="47.40332" lon="6.68739">
        <ele>497</ele>
        <time>2015-07-08T09:27:08.000Z</time>
      </trkpt>
      <trkpt lat="47.40329" lon="6.68737">
        <ele>497</ele>
        <time>2015-07-08T09:27:09.000Z</time>
      </trkpt>
      <trkpt lat="47.40326" lon="6.68736">
        <ele>498</ele>
        <time>2015-07-08T09:27:10.000Z</time>
      </trkpt>
      <trkpt lat="47.40323" lon="6.68735">
        <ele>498</ele>
        <time>2015-07-08T09:27:11.000Z</time>
      </trkpt>
      <trkpt lat="47.40321" lon="6.68734">
        <ele>498</ele>
        <time>2015-07-08T09:27:12.000Z</time>
      </trkpt>
      <trkpt lat="47.40318" lon="6.68733">
        <ele>498</ele>
        <time>2015-07-08T09:27:13.000Z</time>
      </trkpt>
      <trkpt lat="47.40315" lon="6.68731">
        <ele>498</ele>
        <time>2015-07-08T09:27:14.000Z</time>
      </trkpt>
      <trkpt lat="47.40312" lon="6.6873">
        <ele>498</ele>
        <time>2015-07-08T09:27:15.000Z</time>
      </trkpt>
      <trkpt lat="47.40309" lon="6.68729">
        <ele>498</ele>
        <time>2015-07-08T09:27:16.000Z</time>
      </trkpt>
      <trkpt lat="47.40307" lon="6.68728">
        <ele>498</ele>
        <time>2015-07-08T09:27:17.000Z</time>
      </trkpt>
      <trkpt lat="47.40304" lon="6.68727">
        <ele>498</ele>
        <time>2015-07-08T09:27:18.000Z</time>
      </trkpt>
      <trkpt lat="47.40301" lon="6.68726">
        <ele>498</ele>
        <time>2015-07-08T09:27:19.000Z</time>
      </trkpt>
      <trkpt lat="47.40298" lon="6.68725">
        <ele>498</ele>
        <time>2015-07-08T09:27:20.000Z</time>
      </trkpt>
      <trkpt lat="47.40295" lon="6.68723">
        <ele>498</ele>
        <time>2015-07-08T09:27:21.000Z</time>
      </trkpt>
      <trkpt lat="47.40292" lon="6.68722">
        <ele>498</ele>
        <time>2015-07-08T09:27:22.000Z</time>
      </trkpt>
      <trkpt lat="47.4029" lon="6.68721">
        <ele>498</ele>
        <time>2015-07-08T09:27:23.000Z</time>
      </trkpt>
      <trkpt lat="47.40287" lon="6.68719">
        <ele>498</ele>
        <time>2015-07-08T09:27:24.000Z</time>
      </trkpt>
      <trkpt lat="47.40284" lon="6.68718">
        <ele>499</ele>
        <time>2015-07-08T09:27:25.000Z</time>
      </trkpt>
      <trkpt lat="47.40282" lon="6.68717">
        <ele>499</ele>
        <time>2015-07-08T09:27:26.000Z</time>
      </trkpt>
      <trkpt lat="47.40279" lon="6.68716">
        <ele>499</ele>
        <time>2015-07-08T09:27:27.000Z</time>
      </trkpt>
      <trkpt lat="47.40277" lon="6.68714">
        <ele>499</ele>
        <time>2015-07-08T09:27:28.000Z</time>
      </trkpt>
      <trkpt lat="47.40274" lon="6.68713">
        <ele>499</ele>
        <time>2015-07-08T09:27:29.000Z</time>
      </trkpt>
      <trkpt lat="47.40272" lon="6.68711">
        <ele>499</ele>
        <time>2015-07-08T09:27:30.000Z</time>
      </trkpt>
      <trkpt lat="47.40269" lon="6.68709">
        <ele>499</ele>
        <time>2015-07-08T09:27:31.000Z</time>
      </trkpt>
      <trkpt lat="47.40267" lon="6.68707">
        <ele>499</ele>
        <time>2015-07-08T09:27:32.000Z</time>
      </trkpt>
      <trkpt lat="47.40264" lon="6.68704">
        <ele>499</ele>
        <time>2015-07-08T09:27:33.000Z</time>
      </trkpt>
      <trkpt lat="47.40262" lon="6.68702">
        <ele>499</ele>
        <time>2015-07-08T09:27:34.000Z</time>
      </trkpt>
      <trkpt lat="47.4026" lon="6.687">
        <ele>500</ele>
        <time>2015-07-08T09:27:35.000Z</time>
      </trkpt>
      <trkpt lat="47.40258" lon="6.68697">
        <ele>500</ele>
        <time>2015-07-08T09:27:36.000Z</time>
      </trkpt>
      <trkpt lat="47.40256" lon="6.68694">
        <ele>500</ele>
        <time>2015-07-08T09:27:37.000Z</time>
      </trkpt>
      <trkpt lat="47.40253" lon="6.68691">
        <ele>500</ele>
        <time>2015-07-08T09:27:38.000Z</time>
      </trkpt>
      <trkpt lat="47.40251" lon="6.68688">
        <ele>500</ele>
        <time>2015-07-08T09:27:39.000Z</time>
      </trkpt>
      <trkpt lat="47.40249" lon="6.68685">
        <ele>500</ele>
        <time>2015-07-08T09:27:40.000Z</time>
      </trkpt>
      <trkpt lat="47.40246" lon="6.68681">
        <ele>500</ele>
        <time>2015-07-08T09:27:41.000Z</time>
      </trkpt>
      <trkpt lat="47.40244" lon="6.68677">
        <ele>500</ele>
        <time>2015-07-08T09:27:42.000Z</time>
      </trkpt>
      <trkpt lat="47.40241" lon="6.68673">
        <ele>500</ele>
        <time>2015-07-08T09:27:43.000Z</time>
      </trkpt>
      <trkpt lat="47.40239" lon="6.68669">
        <ele>500</ele>
        <time>2015-07-08T09:27:44.000Z</time>
      </trkpt>
      <trkpt lat="47.40236" lon="6.68665">
        <ele>500</ele>
        <time>2015-07-08T09:27:45.000Z</time>
      </trkpt>
      <trkpt lat="47.40233" lon="6.68661">
        <ele>500</ele>
        <time>2015-07-08T09:27:46.000Z</time>
      </trkpt>
      <trkpt lat="47.40231" lon="6.68657">
        <ele>500</ele>
        <time>2015-07-08T09:27:47.000Z</time>
      </trkpt>
      <trkpt lat="47.40228" lon="6.68652">
        <ele>500</ele>
        <time>2015-07-08T09:27:48.000Z</time>
      </trkpt>
      <trkpt lat="47.40225" lon="6.68648">
        <ele>500</ele>
        <time>2015-07-08T09:27:49.000Z</time>
      </trkpt>
      <trkpt lat="47.40222" lon="6.68644">
        <ele>500</ele>
        <time>2015-07-08T09:27:50.000Z</time>
      </trkpt>
      <trkpt lat="47.40219" lon="6.68639">
        <ele>500</ele>
        <time>2015-07-08T09:27:51.000Z</time>
      </trkpt>
      <trkpt lat="47.40216" lon="6.68635">
        <ele>500</ele>
        <time>2015-07-08T09:27:52.000Z</time>
      </trkpt>
      <trkpt lat="47.40213" lon="6.6863">
        <ele>500</ele>
        <time>2015-07-08T09:27:53.000Z</time>
      </trkpt>
      <trkpt lat="47.4021" lon="6.68626">
        <ele>500</ele>
        <time>2015-07-08T09:27:54.000Z</time>
      </trkpt>
      <trkpt lat="47.40207" lon="6.68621">
        <ele>500</ele>
        <time>2015-07-08T09:27:55.000Z</time>
      </trkpt>
      <trkpt lat="47.40204" lon="6.68616">
        <ele>500</ele>
        <time>2015-07-08T09:27:56.000Z</time>
      </trkpt>
      <trkpt lat="47.40201" lon="6.68612">
        <ele>500</ele>
        <time>2015-07-08T09:27:57.000Z</time>
      </trkpt>
      <trkpt lat="47.40198" lon="6.68607">
        <ele>500</ele>
        <time>2015-07-08T09:27:58.000Z</time>
      </trkpt>
      <trkpt lat="47.40194" lon="6.68602">
        <ele>500</ele>
        <time>2015-07-08T09:27:59.000Z</time>
      </trkpt>
      <trkpt lat="47.40191" lon="6.68596">
        <ele>500</ele>
        <time>2015-07-08T09:28:00.000Z</time>
      </trkpt>
      <trkpt lat="47.40188" lon="6.68591">
        <ele>499</ele>
        <time>2015-07-08T09:28:01.000Z</time>
      </trkpt>
      <trkpt lat="47.40184" lon="6.68586">
        <ele>499</ele>
        <time>2015-07-08T09:28:02.000Z</time>
      </trkpt>
      <trkpt lat="47.4018" lon="6.68581">
        <ele>499</ele>
        <time>2015-07-08T09:28:03.000Z</time>
      </trkpt>
      <trkpt lat="47.40177" lon="6.68576">
        <ele>499</ele>
        <time>2015-07-08T09:28:04.000Z</time>
      </trkpt>
      <trkpt lat="47.40174" lon="6.6857">
        <ele>499</ele>
        <time>2015-07-08T09:28:05.000Z</time>
      </trkpt>
      <trkpt lat="47.40171" lon="6.68564">
        <ele>499</ele>
        <time>2015-07-08T09:28:06.000Z</time>
      </trkpt>
      <trkpt lat="47.40167" lon="6.68558">
        <ele>499</ele>
        <time>2015-07-08T09:28:07.000Z</time>
      </trkpt>
      <trkpt lat="47.40164" lon="6.68552">
        <ele>499</ele>
        <time>2015-07-08T09:28:08.000Z</time>
      </trkpt>
      <trkpt lat="47.4016" lon="6.68546">
        <ele>499</ele>
        <time>2015-07-08T09:28:09.000Z</time>
      </trkpt>
      <trkpt lat="47.40157" lon="6.68541">
        <ele>499</ele>
        <time>2015-07-08T09:28:10.000Z</time>
      </trkpt>
      <trkpt lat="47.40153" lon="6.68535">
        <ele>499</ele>
        <time>2015-07-08T09:28:11.000Z</time>
      </trkpt>
      <trkpt lat="47.4015" lon="6.6853">
        <ele>499</ele>
        <time>2015-07-08T09:28:12.000Z</time>
      </trkpt>
      <trkpt lat="47.40146" lon="6.68524">
        <ele>499</ele>
        <time>2015-07-08T09:28:13.000Z</time>
      </trkpt>
      <trkpt lat="47.40143" lon="6.68518">
        <ele>499</ele>
        <time>2015-07-08T09:28:14.000Z</time>
      </trkpt>
      <trkpt lat="47.4014" lon="6.68513">
        <ele>499</ele>
        <time>2015-07-08T09:28:15.000Z</time>
      </trkpt>
      <trkpt lat="47.40136" lon="6.68506">
        <ele>499</ele>
        <time>2015-07-08T09:28:16.000Z</time>
      </trkpt>
      <trkpt lat="47.40132" lon="6.685">
        <ele>499</ele>
        <time>2015-07-08T09:28:17.000Z</time>
      </trkpt>
      <trkpt lat="47.40129" lon="6.68494">
        <ele>499</ele>
        <time>2015-07-08T09:28:18.000Z</time>
      </trkpt>
      <trkpt lat="47.40125" lon="6.68487">
        <ele>499</ele>
        <time>2015-07-08T09:28:19.000Z</time>
      </trkpt>
      <trkpt lat="47.40121" lon="6.6848">
        <ele>499</ele>
        <time>2015-07-08T09:28:20.000Z</time>
      </trkpt>
      <trkpt lat="47.40118" lon="6.68474">
        <ele>499</ele>
        <time>2015-07-08T09:28:21.000Z</time>
      </trkpt>
      <trkpt lat="47.40114" lon="6.68467">
        <ele>499</ele>
        <time>2015-07-08T09:28:22.000Z</time>
      </trkpt>
      <trkpt lat="47.40111" lon="6.68461">
        <ele>498</ele>
        <time>2015-07-08T09:28:23.000Z</time>
      </trkpt>
      <trkpt lat="47.40107" lon="6.68454">
        <ele>498</ele>
        <time>2015-07-08T09:28:24.000Z</time>
      </trkpt>
      <trkpt lat="47.40104" lon="6.68447">
        <ele>498</ele>
        <time>2015-07-08T09:28:25.000Z</time>
      </trkpt>
      <trkpt lat="47.40101" lon="6.6844">
        <ele>498</ele>
        <time>2015-07-08T09:28:26.000Z</time>
      </trkpt>
      <trkpt lat="47.40098" lon="6.68434">
        <ele>498</ele>
        <time>2015-07-08T09:28:27.000Z</time>
      </trkpt>
      <trkpt lat="47.40095" lon="6.68427">
        <ele>498</ele>
        <time>2015-07-08T09:28:28.000Z</time>
      </trkpt>
      <trkpt lat="47.40091" lon="6.68421">
        <ele>498</ele>
        <time>2015-07-08T09:28:29.000Z</time>
      </trkpt>
      <trkpt lat="47.40088" lon="6.68414">
        <ele>498</ele>
        <time>2015-07-08T09:28:30.000Z</time>
      </trkpt>
      <trkpt lat="47.40085" lon="6.68408">
        <ele>498</ele>
        <time>2015-07-08T09:28:31.000Z</time>
      </trkpt>
      <trkpt lat="47.40082" lon="6.68402">
        <ele>498</ele>
        <time>2015-07-08T09:28:32.000Z</time>
      </trkpt>
      <trkpt lat="47.40079" lon="6.68396">
        <ele>498</ele>
        <time>2015-07-08T09:28:33.000Z</time>
      </trkpt>
      <trkpt lat="47.40076" lon="6.68389">
        <ele>498</ele>
        <time>2015-07-08T09:28:34.000Z</time>
      </trkpt>
      <trkpt lat="47.40073" lon="6.68383">
        <ele>498</ele>
        <time>2015-07-08T09:28:35.000Z</time>
      </trkpt>
      <trkpt lat="47.4007" lon="6.68377">
        <ele>498</ele>
        <time>2015-07-08T09:28:36.000Z</time>
      </trkpt>
      <trkpt lat="47.40067" lon="6.68371">
        <ele>498</ele>
        <time>2015-07-08T09:28:37.000Z</time>
      </trkpt>
      <trkpt lat="47.40064" lon="6.68365">
        <ele>498</ele>
        <time>2015-07-08T09:28:38.000Z</time>
      </trkpt>
      <trkpt lat="47.40061" lon="6.68358">
        <ele>498</ele>
        <time>2015-07-08T09:28:39.000Z</time>
      </trkpt>
      <trkpt lat="47.40059" lon="6.68353">
        <ele>498</ele>
        <time>2015-07-08T09:28:40.000Z</time>
      </trkpt>
      <trkpt lat="47.40056" lon="6.68347">
        <ele>498</ele>
        <time>2015-07-08T09:28:41.000Z</time>
      </trkpt>
      <trkpt lat="47.40053" lon="6.68341">
        <ele>498</ele>
        <time>2015-07-08T09:28:42.000Z</time>
      </trkpt>
      <trkpt lat="47.4005" lon="6.68335">
        <ele>499</ele>
        <time>2015-07-08T09:28:43.000Z</time>
      </trkpt>
      <trkpt lat="47.40048" lon="6.68329">
        <ele>499</ele>
        <time>2015-07-08T09:28:44.000Z</time>
      </trkpt>
      <trkpt lat="47.40045" lon="6.68324">
        <ele>499</ele>
        <time>2015-07-08T09:28:45.000Z</time>
      </trkpt>
      <trkpt lat="47.40042" lon="6.68318">
        <ele>499</ele>
        <time>2015-07-08T09:28:46.000Z</time>
      </trkpt>
      <trkpt lat="47.4004" lon="6.68312">
        <ele>499</ele>
        <time>2015-07-08T09:28:47.000Z</time>
      </trkpt>
      <trkpt lat="47.40037" lon="6.68307">
        <ele>499</ele>
        <time>2015-07-08T09:28:48.000Z</time>
      </trkpt>
      <trkpt lat="47.40034" lon="6.68302">
        <ele>499</ele>
        <time>2015-07-08T09:28:49.000Z</time>
      </trkpt>
      <trkpt lat="47.40031" lon="6.68296">
        <ele>500</ele>
        <time>2015-07-08T09:28:50.000Z</time>
      </trkpt>
      <trkpt lat="47.40028" lon="6.68291">
        <ele>500</ele>
        <time>2015-07-08T09:28:51.000Z</time>
      </trkpt>
      <trkpt lat="47.40025" lon="6.68286">
        <ele>500</ele>
        <time>2015-07-08T09:28:52.000Z</time>
      </trkpt>
      <trkpt lat="47.40022" lon="6.6828">
        <ele>500</ele>
        <time>2015-07-08T09:28:53.000Z</time>
      </trkpt>
      <trkpt lat="47.40019" lon="6.68275">
        <ele>500</ele>
        <time>2015-07-08T09:28:54.000Z</time>
      </trkpt>
      <trkpt lat="47.40016" lon="6.6827">
        <ele>500</ele>
        <time>2015-07-08T09:28:55.000Z</time>
      </trkpt>
      <trkpt lat="47.40013" lon="6.68265">
        <ele>501</ele>
        <time>2015-07-08T09:28:56.000Z</time>
      </trkpt>
      <trkpt lat="47.4001" lon="6.6826">
        <ele>501</ele>
        <time>2015-07-08T09:28:57.000Z</time>
      </trkpt>
      <trkpt lat="47.40007" lon="6.68255">
        <ele>501</ele>
        <time>2015-07-08T09:28:58.000Z</time>
      </trkpt>
      <trkpt lat="47.40004" lon="6.6825">
        <ele>501</ele>
        <time>2015-07-08T09:28:59.000Z</time>
      </trkpt>
      <trkpt lat="47.40002" lon="6.68245">
        <ele>501</ele>
        <time>2015-07-08T09:29:00.000Z</time>
      </trkpt>
      <trkpt lat="47.39998" lon="6.6824">
        <ele>501</ele>
        <time>2015-07-08T09:29:01.000Z</time>
      </trkpt>
      <trkpt lat="47.39995" lon="6.68235">
        <ele>501</ele>
        <time>2015-07-08T09:29:02.000Z</time>
      </trkpt>
      <trkpt lat="47.39992" lon="6.68231">
        <ele>501</ele>
        <time>2015-07-08T09:29:03.000Z</time>
      </trkpt>
      <trkpt lat="47.39989" lon="6.68226">
        <ele>501</ele>
        <time>2015-07-08T09:29:04.000Z</time>
      </trkpt>
      <trkpt lat="47.39985" lon="6.68221">
        <ele>501</ele>
        <time>2015-07-08T09:29:05.000Z</time>
      </trkpt>
      <trkpt lat="47.39982" lon="6.68216">
        <ele>501</ele>
        <time>2015-07-08T09:29:06.000Z</time>
      </trkpt>
      <trkpt lat="47.39979" lon="6.68212">
        <ele>501</ele>
        <time>2015-07-08T09:29:07.000Z</time>
      </trkpt>
      <trkpt lat="47.39976" lon="6.68206">
        <ele>501</ele>
        <time>2015-07-08T09:29:08.000Z</time>
      </trkpt>
      <trkpt lat="47.39973" lon="6.68201">
        <ele>501</ele>
        <time>2015-07-08T09:29:09.000Z</time>
      </trkpt>
      <trkpt lat="47.39969" lon="6.68195">
        <ele>502</ele>
        <time>2015-07-08T09:29:10.000Z</time>
      </trkpt>
      <trkpt lat="47.39967" lon="6.68189">
        <ele>502</ele>
        <time>2015-07-08T09:29:11.000Z</time>
      </trkpt>
      <trkpt lat="47.39965" lon="6.68182">
        <ele>502</ele>
        <time>2015-07-08T09:29:12.000Z</time>
      </trkpt>
      <trkpt lat="47.39964" lon="6.68174">
        <ele>502</ele>
        <time>2015-07-08T09:29:13.000Z</time>
      </trkpt>
      <trkpt lat="47.39963" lon="6.68167">
        <ele>502</ele>
        <time>2015-07-08T09:29:14.000Z</time>
      </trkpt>
      <trkpt lat="47.39963" lon="6.6816">
        <ele>502</ele>
        <time>2015-07-08T09:29:15.000Z</time>
      </trkpt>
      <trkpt lat="47.39964" lon="6.68152">
        <ele>502</ele>
        <time>2015-07-08T09:29:16.000Z</time>
      </trkpt>
      <trkpt lat="47.39965" lon="6.68145">
        <ele>503</ele>
        <time>2015-07-08T09:29:17.000Z</time>
      </trkpt>
      <trkpt lat="47.39966" lon="6.68138">
        <ele>503</ele>
        <time>2015-07-08T09:29:18.000Z</time>
      </trkpt>
      <trkpt lat="47.39968" lon="6.68132">
        <ele>503</ele>
        <time>2015-07-08T09:29:19.000Z</time>
      </trkpt>
      <trkpt lat="47.39971" lon="6.68125">
        <ele>503</ele>
        <time>2015-07-08T09:29:20.000Z</time>
      </trkpt>
      <trkpt lat="47.39973" lon="6.68117">
        <ele>503</ele>
        <time>2015-07-08T09:29:21.000Z</time>
      </trkpt>
      <trkpt lat="47.39975" lon="6.6811">
        <ele>503</ele>
        <time>2015-07-08T09:29:22.000Z</time>
      </trkpt>
      <trkpt lat="47.39977" lon="6.68102">
        <ele>503</ele>
        <time>2015-07-08T09:29:23.000Z</time>
      </trkpt>
      <trkpt lat="47.39979" lon="6.68094">
        <ele>503</ele>
        <time>2015-07-08T09:29:24.000Z</time>
      </trkpt>
      <trkpt lat="47.39982" lon="6.68086">
        <ele>503</ele>
        <time>2015-07-08T09:29:25.000Z</time>
      </trkpt>
      <trkpt lat="47.39984" lon="6.68077">
        <ele>503</ele>
        <time>2015-07-08T09:29:26.000Z</time>
      </trkpt>
      <trkpt lat="47.39986" lon="6.68069">
        <ele>503</ele>
        <time>2015-07-08T09:29:27.000Z</time>
      </trkpt>
      <trkpt lat="47.39989" lon="6.68061">
        <ele>503</ele>
        <time>2015-07-08T09:29:28.000Z</time>
      </trkpt>
      <trkpt lat="47.39991" lon="6.68052">
        <ele>503</ele>
        <time>2015-07-08T09:29:29.000Z</time>
      </trkpt>
      <trkpt lat="47.39994" lon="6.68045">
        <ele>503</ele>
        <time>2015-07-08T09:29:30.000Z</time>
      </trkpt>
      <trkpt lat="47.39997" lon="6.68037">
        <ele>503</ele>
        <time>2015-07-08T09:29:31.000Z</time>
      </trkpt>
      <trkpt lat="47.4" lon="6.68029">
        <ele>503</ele>
        <time>2015-07-08T09:29:32.000Z</time>
      </trkpt>
      <trkpt lat="47.40004" lon="6.68022">
        <ele>503</ele>
        <time>2015-07-08T09:29:33.000Z</time>
      </trkpt>
      <trkpt lat="47.40008" lon="6.68016">
        <ele>503</ele>
        <time>2015-07-08T09:29:34.000Z</time>
      </trkpt>
      <trkpt lat="47.40014" lon="6.68011">
        <ele>504</ele>
        <time>2015-07-08T09:29:35.000Z</time>
      </trkpt>
      <trkpt lat="47.40019" lon="6.68008">
        <ele>504</ele>
        <time>2015-07-08T09:29:36.000Z</time>
      </trkpt>
      <trkpt lat="47.40024" lon="6.68006">
        <ele>504</ele>
        <time>2015-07-08T09:29:37.000Z</time>
      </trkpt>
      <trkpt lat="47.40029" lon="6.68005">
        <ele>505</ele>
        <time>2015-07-08T09:29:38.000Z</time>
      </trkpt>
      <trkpt lat="47.40034" lon="6.68005">
        <ele>505</ele>
        <time>2015-07-08T09:29:39.000Z</time>
      </trkpt>
      <trkpt lat="47.40038" lon="6.68005">
        <ele>505</ele>
        <time>2015-07-08T09:29:40.000Z</time>
      </trkpt>
      <trkpt lat="47.40043" lon="6.68005">
        <ele>506</ele>
        <time>2015-07-08T09:29:41.000Z</time>
      </trkpt>
      <trkpt lat="47.40047" lon="6.68004">
        <ele>506</ele>
        <time>2015-07-08T09:29:42.000Z</time>
      </trkpt>
      <trkpt lat="47.40052" lon="6.68003">
        <ele>506</ele>
        <time>2015-07-08T09:29:43.000Z</time>
      </trkpt>
      <trkpt lat="47.40056" lon="6.68002">
        <ele>506</ele>
        <time>2015-07-08T09:29:44.000Z</time>
      </trkpt>
      <trkpt lat="47.4006" lon="6.68001">
        <ele>506</ele>
        <time>2015-07-08T09:29:45.000Z</time>
      </trkpt>
      <trkpt lat="47.40064" lon="6.67999">
        <ele>507</ele>
        <time>2015-07-08T09:29:46.000Z</time>
      </trkpt>
      <trkpt lat="47.40069" lon="6.67997">
        <ele>507</ele>
        <time>2015-07-08T09:29:47.000Z</time>
      </trkpt>
      <trkpt lat="47.40073" lon="6.67995">
        <ele>507</ele>
        <time>2015-07-08T09:29:48.000Z</time>
      </trkpt>
      <trkpt lat="47.40076" lon="6.67993">
        <ele>507</ele>
        <time>2015-07-08T09:29:49.000Z</time>
      </trkpt>
      <trkpt lat="47.4008" lon="6.67991">
        <ele>508</ele>
        <time>2015-07-08T09:29:50.000Z</time>
      </trkpt>
      <trkpt lat="47.40084" lon="6.67989">
        <ele>508</ele>
        <time>2015-07-08T09:29:51.000Z</time>
      </trkpt>
      <trkpt lat="47.40087" lon="6.67986">
        <ele>508</ele>
        <time>2015-07-08T09:29:52.000Z</time>
      </trkpt>
      <trkpt lat="47.40091" lon="6.67983">
        <ele>508</ele>
        <time>2015-07-08T09:29:53.000Z</time>
      </trkpt>
      <trkpt lat="47.40094" lon="6.6798">
        <ele>509</ele>
        <time>2015-07-08T09:29:54.000Z</time>
      </trkpt>
      <trkpt lat="47.40097" lon="6.67977">
        <ele>509</ele>
        <time>2015-07-08T09:29:55.000Z</time>
      </trkpt>
      <trkpt lat="47.401" lon="6.67973">
        <ele>509</ele>
        <time>2015-07-08T09:29:56.000Z</time>
      </trkpt>
      <trkpt lat="47.40103" lon="6.67969">
        <ele>509</ele>
        <time>2015-07-08T09:29:57.000Z</time>
      </trkpt>
      <trkpt lat="47.40106" lon="6.67965">
        <ele>509</ele>
        <time>2015-07-08T09:29:58.000Z</time>
      </trkpt>
      <trkpt lat="47.40109" lon="6.67961">
        <ele>509</ele>
        <time>2015-07-08T09:29:59.000Z</time>
      </trkpt>
      <trkpt lat="47.40111" lon="6.67957">
        <ele>509</ele>
        <time>2015-07-08T09:30:00.000Z</time>
      </trkpt>
      <trkpt lat="47.40114" lon="6.67952">
        <ele>510</ele>
        <time>2015-07-08T09:30:01.000Z</time>
      </trkpt>
      <trkpt lat="47.40115" lon="6.67947">
        <ele>510</ele>
        <time>2015-07-08T09:30:02.000Z</time>
      </trkpt>
      <trkpt lat="47.40117" lon="6.67942">
        <ele>510</ele>
        <time>2015-07-08T09:30:03.000Z</time>
      </trkpt>
      <trkpt lat="47.40119" lon="6.67937">
        <ele>510</ele>
        <time>2015-07-08T09:30:04.000Z</time>
      </trkpt>
      <trkpt lat="47.4012" lon="6.67931">
        <ele>510</ele>
        <time>2015-07-08T09:30:05.000Z</time>
      </trkpt>
      <trkpt lat="47.40121" lon="6.67926">
        <ele>510</ele>
        <time>2015-07-08T09:30:06.000Z</time>
      </trkpt>
      <trkpt lat="47.40122" lon="6.67921">
        <ele>510</ele>
        <time>2015-07-08T09:30:07.000Z</time>
      </trkpt>
      <trkpt lat="47.40123" lon="6.67915">
        <ele>510</ele>
        <time>2015-07-08T09:30:08.000Z</time>
      </trkpt>
      <trkpt lat="47.40124" lon="6.67909">
        <ele>511</ele>
        <time>2015-07-08T09:30:09.000Z</time>
      </trkpt>
      <trkpt lat="47.40125" lon="6.67903">
        <ele>511</ele>
        <time>2015-07-08T09:30:10.000Z</time>
      </trkpt>
      <trkpt lat="47.40125" lon="6.67897">
        <ele>511</ele>
        <time>2015-07-08T09:30:11.000Z</time>
      </trkpt>
      <trkpt lat="47.40125" lon="6.6789">
        <ele>511</ele>
        <time>2015-07-08T09:30:12.000Z</time>
      </trkpt>
      <trkpt lat="47.40126" lon="6.67884">
        <ele>512</ele>
        <time>2015-07-08T09:30:13.000Z</time>
      </trkpt>
      <trkpt lat="47.40126" lon="6.67878">
        <ele>512</ele>
        <time>2015-07-08T09:30:14.000Z</time>
      </trkpt>
      <trkpt lat="47.40125" lon="6.67872">
        <ele>512</ele>
        <time>2015-07-08T09:30:15.000Z</time>
      </trkpt>
      <trkpt lat="47.40125" lon="6.67866">
        <ele>512</ele>
        <time>2015-07-08T09:30:16.000Z</time>
      </trkpt>
      <trkpt lat="47.40124" lon="6.6786">
        <ele>513</ele>
        <time>2015-07-08T09:30:17.000Z</time>
      </trkpt>
      <trkpt lat="47.40123" lon="6.67853">
        <ele>513</ele>
        <time>2015-07-08T09:30:18.000Z</time>
      </trkpt>
      <trkpt lat="47.40123" lon="6.67847">
        <ele>513</ele>
        <time>2015-07-08T09:30:19.000Z</time>
      </trkpt>
      <trkpt lat="47.40122" lon="6.67841">
        <ele>513</ele>
        <time>2015-07-08T09:30:20.000Z</time>
      </trkpt>
      <trkpt lat="47.40121" lon="6.67835">
        <ele>513</ele>
        <time>2015-07-08T09:30:21.000Z</time>
      </trkpt>
      <trkpt lat="47.4012" lon="6.67829">
        <ele>513</ele>
        <time>2015-07-08T09:30:22.000Z</time>
      </trkpt>
      <trkpt lat="47.40118" lon="6.67823">
        <ele>513</ele>
        <time>2015-07-08T09:30:23.000Z</time>
      </trkpt>
      <trkpt lat="47.40117" lon="6.67816">
        <ele>513</ele>
        <time>2015-07-08T09:30:24.000Z</time>
      </trkpt>
      <trkpt lat="47.40115" lon="6.6781">
        <ele>514</ele>
        <time>2015-07-08T09:30:25.000Z</time>
      </trkpt>
      <trkpt lat="47.40113" lon="6.67804">
        <ele>514</ele>
        <time>2015-07-08T09:30:26.000Z</time>
      </trkpt>
      <trkpt lat="47.40112" lon="6.67798">
        <ele>514</ele>
        <time>2015-07-08T09:30:27.000Z</time>
      </trkpt>
      <trkpt lat="47.4011" lon="6.67792">
        <ele>514</ele>
        <time>2015-07-08T09:30:28.000Z</time>
      </trkpt>
      <trkpt lat="47.40109" lon="6.67786">
        <ele>514</ele>
        <time>2015-07-08T09:30:29.000Z</time>
      </trkpt>
      <trkpt lat="47.40107" lon="6.67779">
        <ele>514</ele>
        <time>2015-07-08T09:30:30.000Z</time>
      </trkpt>
      <trkpt lat="47.40105" lon="6.67773">
        <ele>514</ele>
        <time>2015-07-08T09:30:31.000Z</time>
      </trkpt>
      <trkpt lat="47.40103" lon="6.67767">
        <ele>514</ele>
        <time>2015-07-08T09:30:32.000Z</time>
      </trkpt>
      <trkpt lat="47.40102" lon="6.67761">
        <ele>514</ele>
        <time>2015-07-08T09:30:33.000Z</time>
      </trkpt>
      <trkpt lat="47.401" lon="6.67755">
        <ele>514</ele>
        <time>2015-07-08T09:30:34.000Z</time>
      </trkpt>
      <trkpt lat="47.40098" lon="6.67749">
        <ele>514</ele>
        <time>2015-07-08T09:30:35.000Z</time>
      </trkpt>
      <trkpt lat="47.40097" lon="6.67743">
        <ele>514</ele>
        <time>2015-07-08T09:30:36.000Z</time>
      </trkpt>
      <trkpt lat="47.40095" lon="6.67737">
        <ele>515</ele>
        <time>2015-07-08T09:30:37.000Z</time>
      </trkpt>
      <trkpt lat="47.40094" lon="6.6773">
        <ele>515</ele>
        <time>2015-07-08T09:30:38.000Z</time>
      </trkpt>
      <trkpt lat="47.40092" lon="6.67724">
        <ele>515</ele>
        <time>2015-07-08T09:30:39.000Z</time>
      </trkpt>
      <trkpt lat="47.4009" lon="6.67718">
        <ele>515</ele>
        <time>2015-07-08T09:30:40.000Z</time>
      </trkpt>
      <trkpt lat="47.40088" lon="6.67712">
        <ele>515</ele>
        <time>2015-07-08T09:30:41.000Z</time>
      </trkpt>
      <trkpt lat="47.40086" lon="6.67706">
        <ele>515</ele>
        <time>2015-07-08T09:30:42.000Z</time>
      </trkpt>
      <trkpt lat="47.40084" lon="6.677">
        <ele>515</ele>
        <time>2015-07-08T09:30:43.000Z</time>
      </trkpt>
      <trkpt lat="47.40082" lon="6.67693">
        <ele>515</ele>
        <time>2015-07-08T09:30:44.000Z</time>
      </trkpt>
      <trkpt lat="47.4008" lon="6.67687">
        <ele>515</ele>
        <time>2015-07-08T09:30:45.000Z</time>
      </trkpt>
      <trkpt lat="47.40079" lon="6.6768">
        <ele>515</ele>
        <time>2015-07-08T09:30:46.000Z</time>
      </trkpt>
      <trkpt lat="47.40077" lon="6.67674">
        <ele>515</ele>
        <time>2015-07-08T09:30:47.000Z</time>
      </trkpt>
      <trkpt lat="47.40075" lon="6.67667">
        <ele>515</ele>
        <time>2015-07-08T09:30:48.000Z</time>
      </trkpt>
      <trkpt lat="47.40073" lon="6.67661">
        <ele>515</ele>
        <time>2015-07-08T09:30:49.000Z</time>
      </trkpt>
      <trkpt lat="47.40071" lon="6.67655">
        <ele>515</ele>
        <time>2015-07-08T09:30:50.000Z</time>
      </trkpt>
      <trkpt lat="47.40069" lon="6.67649">
        <ele>515</ele>
        <time>2015-07-08T09:30:51.000Z</time>
      </trkpt>
      <trkpt lat="47.40066" lon="6.67643">
        <ele>515</ele>
        <time>2015-07-08T09:30:52.000Z</time>
      </trkpt>
      <trkpt lat="47.40063" lon="6.67637">
        <ele>515</ele>
        <time>2015-07-08T09:30:53.000Z</time>
      </trkpt>
      <trkpt lat="47.4006" lon="6.67631">
        <ele>515</ele>
        <time>2015-07-08T09:30:54.000Z</time>
      </trkpt>
      <trkpt lat="47.40057" lon="6.67626">
        <ele>515</ele>
        <time>2015-07-08T09:30:55.000Z</time>
      </trkpt>
      <trkpt lat="47.40053" lon="6.67621">
        <ele>515</ele>
        <time>2015-07-08T09:30:56.000Z</time>
      </trkpt>
      <trkpt lat="47.40049" lon="6.67616">
        <ele>515</ele>
        <time>2015-07-08T09:30:57.000Z</time>
      </trkpt>
      <trkpt lat="47.40045" lon="6.67612">
        <ele>515</ele>
        <time>2015-07-08T09:30:58.000Z</time>
      </trkpt>
      <trkpt lat="47.40041" lon="6.67608">
        <ele>515</ele>
        <time>2015-07-08T09:30:59.000Z</time>
      </trkpt>
      <trkpt lat="47.40037" lon="6.67604">
        <ele>515</ele>
        <time>2015-07-08T09:31:00.000Z</time>
      </trkpt>
      <trkpt lat="47.40033" lon="6.676">
        <ele>515</ele>
        <time>2015-07-08T09:31:01.000Z</time>
      </trkpt>
      <trkpt lat="47.40029" lon="6.67596">
        <ele>515</ele>
        <time>2015-07-08T09:31:02.000Z</time>
      </trkpt>
      <trkpt lat="47.40025" lon="6.67593">
        <ele>515</ele>
        <time>2015-07-08T09:31:03.000Z</time>
      </trkpt>
      <trkpt lat="47.40021" lon="6.67589">
        <ele>515</ele>
        <time>2015-07-08T09:31:04.000Z</time>
      </trkpt>
      <trkpt lat="47.40017" lon="6.67586">
        <ele>515</ele>
        <time>2015-07-08T09:31:05.000Z</time>
      </trkpt>
      <trkpt lat="47.40013" lon="6.67582">
        <ele>515</ele>
        <time>2015-07-08T09:31:06.000Z</time>
      </trkpt>
      <trkpt lat="47.40009" lon="6.67578">
        <ele>516</ele>
        <time>2015-07-08T09:31:07.000Z</time>
      </trkpt>
      <trkpt lat="47.40005" lon="6.67574">
        <ele>516</ele>
        <time>2015-07-08T09:31:08.000Z</time>
      </trkpt>
      <trkpt lat="47.40001" lon="6.6757">
        <ele>516</ele>
        <time>2015-07-08T09:31:09.000Z</time>
      </trkpt>
      <trkpt lat="47.39996" lon="6.67566">
        <ele>516</ele>
        <time>2015-07-08T09:31:10.000Z</time>
      </trkpt>
      <trkpt lat="47.39992" lon="6.67561">
        <ele>516</ele>
        <time>2015-07-08T09:31:11.000Z</time>
      </trkpt>
      <trkpt lat="47.39987" lon="6.67557">
        <ele>516</ele>
        <time>2015-07-08T09:31:12.000Z</time>
      </trkpt>
      <trkpt lat="47.39983" lon="6.67553">
        <ele>516</ele>
        <time>2015-07-08T09:31:13.000Z</time>
      </trkpt>
      <trkpt lat="47.39979" lon="6.67549">
        <ele>516</ele>
        <time>2015-07-08T09:31:14.000Z</time>
      </trkpt>
      <trkpt lat="47.39975" lon="6.67545">
        <ele>516</ele>
        <time>2015-07-08T09:31:15.000Z</time>
      </trkpt>
      <trkpt lat="47.3997" lon="6.67542">
        <ele>516</ele>
        <time>2015-07-08T09:31:16.000Z</time>
      </trkpt>
      <trkpt lat="47.39967" lon="6.67538">
        <ele>516</ele>
        <time>2015-07-08T09:31:17.000Z</time>
      </trkpt>
      <trkpt lat="47.39963" lon="6.67534">
        <ele>516</ele>
        <time>2015-07-08T09:31:18.000Z</time>
      </trkpt>
      <trkpt lat="47.39959" lon="6.6753">
        <ele>516</ele>
        <time>2015-07-08T09:31:19.000Z</time>
      </trkpt>
      <trkpt lat="47.39955" lon="6.67525">
        <ele>516</ele>
        <time>2015-07-08T09:31:20.000Z</time>
      </trkpt>
      <trkpt lat="47.39952" lon="6.67521">
        <ele>516</ele>
        <time>2015-07-08T09:31:21.000Z</time>
      </trkpt>
      <trkpt lat="47.39948" lon="6.67517">
        <ele>516</ele>
        <time>2015-07-08T09:31:22.000Z</time>
      </trkpt>
      <trkpt lat="47.39944" lon="6.67513">
        <ele>516</ele>
        <time>2015-07-08T09:31:23.000Z</time>
      </trkpt>
      <trkpt lat="47.3994" lon="6.67509">
        <ele>516</ele>
        <time>2015-07-08T09:31:24.000Z</time>
      </trkpt>
      <trkpt lat="47.39936" lon="6.67505">
        <ele>516</ele>
        <time>2015-07-08T09:31:25.000Z</time>
      </trkpt>
      <trkpt lat="47.39932" lon="6.67501">
        <ele>516</ele>
        <time>2015-07-08T09:31:26.000Z</time>
      </trkpt>
      <trkpt lat="47.39928" lon="6.67497">
        <ele>517</ele>
        <time>2015-07-08T09:31:27.000Z</time>
      </trkpt>
      <trkpt lat="47.39924" lon="6.67494">
        <ele>517</ele>
        <time>2015-07-08T09:31:28.000Z</time>
      </trkpt>
      <trkpt lat="47.3992" lon="6.67491">
        <ele>517</ele>
        <time>2015-07-08T09:31:29.000Z</time>
      </trkpt>
      <trkpt lat="47.39916" lon="6.67488">
        <ele>517</ele>
        <time>2015-07-08T09:31:30.000Z</time>
      </trkpt>
      <trkpt lat="47.39912" lon="6.67485">
        <ele>517</ele>
        <time>2015-07-08T09:31:31.000Z</time>
      </trkpt>
      <trkpt lat="47.39908" lon="6.67483">
        <ele>517</ele>
        <time>2015-07-08T09:31:32.000Z</time>
      </trkpt>
      <trkpt lat="47.39904" lon="6.67481">
        <ele>517</ele>
        <time>2015-07-08T09:31:33.000Z</time>
      </trkpt>
      <trkpt lat="47.39899" lon="6.67479">
        <ele>517</ele>
        <time>2015-07-08T09:31:34.000Z</time>
      </trkpt>
      <trkpt lat="47.39895" lon="6.67477">
        <ele>517</ele>
        <time>2015-07-08T09:31:35.000Z</time>
      </trkpt>
      <trkpt lat="47.39892" lon="6.67475">
        <ele>518</ele>
        <time>2015-07-08T09:31:36.000Z</time>
      </trkpt>
      <trkpt lat="47.39888" lon="6.67473">
        <ele>518</ele>
        <time>2015-07-08T09:31:37.000Z</time>
      </trkpt>
      <trkpt lat="47.39884" lon="6.67471">
        <ele>518</ele>
        <time>2015-07-08T09:31:38.000Z</time>
      </trkpt>
      <trkpt lat="47.3988" lon="6.67469">
        <ele>518</ele>
        <time>2015-07-08T09:31:39.000Z</time>
      </trkpt>
      <trkpt lat="47.39876" lon="6.67467">
        <ele>518</ele>
        <time>2015-07-08T09:31:40.000Z</time>
      </trkpt>
      <trkpt lat="47.39871" lon="6.67464">
        <ele>518</ele>
        <time>2015-07-08T09:31:41.000Z</time>
      </trkpt>
      <trkpt lat="47.39867" lon="6.67461">
        <ele>518</ele>
        <time>2015-07-08T09:31:42.000Z</time>
      </trkpt>
      <trkpt lat="47.39864" lon="6.67457">
        <ele>518</ele>
        <time>2015-07-08T09:31:43.000Z</time>
      </trkpt>
      <trkpt lat="47.3986" lon="6.67453">
        <ele>519</ele>
        <time>2015-07-08T09:31:44.000Z</time>
      </trkpt>
      <trkpt lat="47.39856" lon="6.67449">
        <ele>519</ele>
        <time>2015-07-08T09:31:45.000Z</time>
      </trkpt>
      <trkpt lat="47.39853" lon="6.67445">
        <ele>519</ele>
        <time>2015-07-08T09:31:46.000Z</time>
      </trkpt>
      <trkpt lat="47.3985" lon="6.6744">
        <ele>519</ele>
        <time>2015-07-08T09:31:47.000Z</time>
      </trkpt>
      <trkpt lat="47.39847" lon="6.67435">
        <ele>519</ele>
        <time>2015-07-08T09:31:48.000Z</time>
      </trkpt>
      <trkpt lat="47.39845" lon="6.6743">
        <ele>519</ele>
        <time>2015-07-08T09:31:49.000Z</time>
      </trkpt>
      <trkpt lat="47.39842" lon="6.67424">
        <ele>519</ele>
        <time>2015-07-08T09:31:50.000Z</time>
      </trkpt>
      <trkpt lat="47.39839" lon="6.67419">
        <ele>519</ele>
        <time>2015-07-08T09:31:51.000Z</time>
      </trkpt>
      <trkpt lat="47.39837" lon="6.67413">
        <ele>519</ele>
        <time>2015-07-08T09:31:52.000Z</time>
      </trkpt>
      <trkpt lat="47.39834" lon="6.67408">
        <ele>519</ele>
        <time>2015-07-08T09:31:53.000Z</time>
      </trkpt>
      <trkpt lat="47.39832" lon="6.67402">
        <ele>519</ele>
        <time>2015-07-08T09:31:54.000Z</time>
      </trkpt>
      <trkpt lat="47.39829" lon="6.67396">
        <ele>519</ele>
        <time>2015-07-08T09:31:55.000Z</time>
      </trkpt>
      <trkpt lat="47.39827" lon="6.6739">
        <ele>519</ele>
        <time>2015-07-08T09:31:56.000Z</time>
      </trkpt>
      <trkpt lat="47.39824" lon="6.67384">
        <ele>519</ele>
        <time>2015-07-08T09:31:57.000Z</time>
      </trkpt>
      <trkpt lat="47.39822" lon="6.67378">
        <ele>519</ele>
        <time>2015-07-08T09:31:58.000Z</time>
      </trkpt>
      <trkpt lat="47.39819" lon="6.67371">
        <ele>519</ele>
        <time>2015-07-08T09:31:59.000Z</time>
      </trkpt>
      <trkpt lat="47.39816" lon="6.67365">
        <ele>519</ele>
        <time>2015-07-08T09:32:00.000Z</time>
      </trkpt>
      <trkpt lat="47.39813" lon="6.67359">
        <ele>519</ele>
        <time>2015-07-08T09:32:01.000Z</time>
      </trkpt>
      <trkpt lat="47.3981" lon="6.67353">
        <ele>519</ele>
        <time>2015-07-08T09:32:02.000Z</time>
      </trkpt>
      <trkpt lat="47.39807" lon="6.67347">
        <ele>519</ele>
        <time>2015-07-08T09:32:03.000Z</time>
      </trkpt>
      <trkpt lat="47.39804" lon="6.67342">
        <ele>519</ele>
        <time>2015-07-08T09:32:04.000Z</time>
      </trkpt>
      <trkpt lat="47.398" lon="6.67337">
        <ele>520</ele>
        <time>2015-07-08T09:32:05.000Z</time>
      </trkpt>
      <trkpt lat="47.39797" lon="6.67332">
        <ele>520</ele>
        <time>2015-07-08T09:32:06.000Z</time>
      </trkpt>
      <trkpt lat="47.39793" lon="6.67327">
        <ele>520</ele>
        <time>2015-07-08T09:32:07.000Z</time>
      </trkpt>
      <trkpt lat="47.3979" lon="6.67322">
        <ele>520</ele>
        <time>2015-07-08T09:32:08.000Z</time>
      </trkpt>
      <trkpt lat="47.39786" lon="6.67317">
        <ele>521</ele>
        <time>2015-07-08T09:32:09.000Z</time>
      </trkpt>
      <trkpt lat="47.39782" lon="6.67312">
        <ele>521</ele>
        <time>2015-07-08T09:32:10.000Z</time>
      </trkpt>
      <trkpt lat="47.39779" lon="6.67307">
        <ele>521</ele>
        <time>2015-07-08T09:32:11.000Z</time>
      </trkpt>
      <trkpt lat="47.39775" lon="6.67303">
        <ele>521</ele>
        <time>2015-07-08T09:32:12.000Z</time>
      </trkpt>
      <trkpt lat="47.39771" lon="6.67298">
        <ele>522</ele>
        <time>2015-07-08T09:32:13.000Z</time>
      </trkpt>
      <trkpt lat="47.39767" lon="6.67294">
        <ele>522</ele>
        <time>2015-07-08T09:32:14.000Z</time>
      </trkpt>
      <trkpt lat="47.39764" lon="6.6729">
        <ele>522</ele>
        <time>2015-07-08T09:32:15.000Z</time>
      </trkpt>
      <trkpt lat="47.3976" lon="6.67286">
        <ele>522</ele>
        <time>2015-07-08T09:32:16.000Z</time>
      </trkpt>
      <trkpt lat="47.39756" lon="6.67282">
        <ele>523</ele>
        <time>2015-07-08T09:32:17.000Z</time>
      </trkpt>
      <trkpt lat="47.39753" lon="6.67278">
        <ele>523</ele>
        <time>2015-07-08T09:32:18.000Z</time>
      </trkpt>
      <trkpt lat="47.39749" lon="6.67275">
        <ele>523</ele>
        <time>2015-07-08T09:32:19.000Z</time>
      </trkpt>
      <trkpt lat="47.39746" lon="6.67272">
        <ele>524</ele>
        <time>2015-07-08T09:32:20.000Z</time>
      </trkpt>
      <trkpt lat="47.39743" lon="6.67269">
        <ele>524</ele>
        <time>2015-07-08T09:32:21.000Z</time>
      </trkpt>
      <trkpt lat="47.3974" lon="6.67266">
        <ele>524</ele>
        <time>2015-07-08T09:32:22.000Z</time>
      </trkpt>
      <trkpt lat="47.39736" lon="6.67263">
        <ele>525</ele>
        <time>2015-07-08T09:32:23.000Z</time>
      </trkpt>
      <trkpt lat="47.39733" lon="6.6726">
        <ele>525</ele>
        <time>2015-07-08T09:32:24.000Z</time>
      </trkpt>
      <trkpt lat="47.39729" lon="6.67256">
        <ele>525</ele>
        <time>2015-07-08T09:32:25.000Z</time>
      </trkpt>
      <trkpt lat="47.39726" lon="6.67253">
        <ele>525</ele>
        <time>2015-07-08T09:32:26.000Z</time>
      </trkpt>
      <trkpt lat="47.39722" lon="6.67249">
        <ele>526</ele>
        <time>2015-07-08T09:32:27.000Z</time>
      </trkpt>
      <trkpt lat="47.39719" lon="6.67246">
        <ele>526</ele>
        <time>2015-07-08T09:32:28.000Z</time>
      </trkpt>
      <trkpt lat="47.39715" lon="6.67243">
        <ele>526</ele>
        <time>2015-07-08T09:32:29.000Z</time>
      </trkpt>
      <trkpt lat="47.39712" lon="6.6724">
        <ele>527</ele>
        <time>2015-07-08T09:32:30.000Z</time>
      </trkpt>
      <trkpt lat="47.39709" lon="6.67236">
        <ele>527</ele>
        <time>2015-07-08T09:32:31.000Z</time>
      </trkpt>
      <trkpt lat="47.39706" lon="6.67234">
        <ele>527</ele>
        <time>2015-07-08T09:32:32.000Z</time>
      </trkpt>
      <trkpt lat="47.39702" lon="6.67231">
        <ele>528</ele>
        <time>2015-07-08T09:32:33.000Z</time>
      </trkpt>
      <trkpt lat="47.397" lon="6.67229">
        <ele>528</ele>
        <time>2015-07-08T09:32:34.000Z</time>
      </trkpt>
      <trkpt lat="47.39697" lon="6.67226">
        <ele>528</ele>
        <time>2015-07-08T09:32:35.000Z</time>
      </trkpt>
      <trkpt lat="47.39694" lon="6.67224">
        <ele>529</ele>
        <time>2015-07-08T09:32:36.000Z</time>
      </trkpt>
      <trkpt lat="47.39691" lon="6.67222">
        <ele>529</ele>
        <time>2015-07-08T09:32:37.000Z</time>
      </trkpt>
      <trkpt lat="47.39689" lon="6.6722">
        <ele>530</ele>
        <time>2015-07-08T09:32:38.000Z</time>
      </trkpt>
      <trkpt lat="47.39686" lon="6.67217">
        <ele>530</ele>
        <time>2015-07-08T09:32:39.000Z</time>
      </trkpt>
      <trkpt lat="47.39684" lon="6.67214">
        <ele>530</ele>
        <time>2015-07-08T09:32:40.000Z</time>
      </trkpt>
      <trkpt lat="47.39682" lon="6.67213">
        <ele>531</ele>
        <time>2015-07-08T09:32:41.000Z</time>
      </trkpt>
      <trkpt lat="47.3968" lon="6.67211">
        <ele>531</ele>
        <time>2015-07-08T09:32:42.000Z</time>
      </trkpt>
      <trkpt lat="47.39678" lon="6.67209">
        <ele>531</ele>
        <time>2015-07-08T09:32:43.000Z</time>
      </trkpt>
      <trkpt lat="47.39677" lon="6.67207">
        <ele>531</ele>
        <time>2015-07-08T09:32:44.000Z</time>
      </trkpt>
      <trkpt lat="47.39676" lon="6.67206">
        <ele>531</ele>
        <time>2015-07-08T09:32:45.000Z</time>
      </trkpt>
      <trkpt lat="47.39675" lon="6.67204">
        <ele>531</ele>
        <time>2015-07-08T09:32:46.000Z</time>
      </trkpt>
      <trkpt lat="47.39673" lon="6.67203">
        <ele>532</ele>
        <time>2015-07-08T09:32:47.000Z</time>
      </trkpt>
      <trkpt lat="47.39672" lon="6.67202">
        <ele>532</ele>
        <time>2015-07-08T09:32:48.000Z</time>
      </trkpt>
      <trkpt lat="47.39671" lon="6.67202">
        <ele>532</ele>
        <time>2015-07-08T09:32:49.000Z</time>
      </trkpt>
      <trkpt lat="47.3967" lon="6.67202">
        <ele>532</ele>
        <time>2015-07-08T09:32:50.000Z</time>
      </trkpt>
      <trkpt lat="47.39669" lon="6.67202">
        <ele>532</ele>
        <time>2015-07-08T09:32:51.000Z</time>
      </trkpt>
      <trkpt lat="47.39669" lon="6.67203">
        <ele>532</ele>
        <time>2015-07-08T09:32:52.000Z</time>
      </trkpt>
      <trkpt lat="47.3967" lon="6.67204">
        <ele>532</ele>
        <time>2015-07-08T09:32:53.000Z</time>
      </trkpt>
      <trkpt lat="47.39671" lon="6.67205">
        <ele>532</ele>
        <time>2015-07-08T09:32:54.000Z</time>
      </trkpt>
      <trkpt lat="47.39673" lon="6.67206">
        <ele>532</ele>
        <time>2015-07-08T09:32:55.000Z</time>
      </trkpt>
      <trkpt lat="47.39675" lon="6.67207">
        <ele>532</ele>
        <time>2015-07-08T09:32:56.000Z</time>
      </trkpt>
      <trkpt lat="47.39677" lon="6.67209">
        <ele>532</ele>
        <time>2015-07-08T09:32:57.000Z</time>
      </trkpt>
      <trkpt lat="47.3968" lon="6.67212">
        <ele>532</ele>
        <time>2015-07-08T09:32:58.000Z</time>
      </trkpt>
      <trkpt lat="47.39684" lon="6.67216">
        <ele>532</ele>
        <time>2015-07-08T09:32:59.000Z</time>
      </trkpt>
      <trkpt lat="47.39688" lon="6.6722">
        <ele>532</ele>
        <time>2015-07-08T09:33:00.000Z</time>
      </trkpt>
      <trkpt lat="47.39693" lon="6.67224">
        <ele>531</ele>
        <time>2015-07-08T09:33:01.000Z</time>
      </trkpt>
      <trkpt lat="47.39698" lon="6.67229">
        <ele>531</ele>
        <time>2015-07-08T09:33:02.000Z</time>
      </trkpt>
      <trkpt lat="47.39705" lon="6.67234">
        <ele>531</ele>
        <time>2015-07-08T09:33:03.000Z</time>
      </trkpt>
      <trkpt lat="47.39711" lon="6.6724">
        <ele>530</ele>
        <time>2015-07-08T09:33:04.000Z</time>
      </trkpt>
      <trkpt lat="47.39719" lon="6.67246">
        <ele>529</ele>
        <time>2015-07-08T09:33:05.000Z</time>
      </trkpt>
      <trkpt lat="47.39726" lon="6.67253">
        <ele>529</ele>
        <time>2015-07-08T09:33:06.000Z</time>
      </trkpt>
      <trkpt lat="47.39734" lon="6.67261">
        <ele>528</ele>
        <time>2015-07-08T09:33:07.000Z</time>
      </trkpt>
      <trkpt lat="47.39742" lon="6.67269">
        <ele>527</ele>
        <time>2015-07-08T09:33:08.000Z</time>
      </trkpt>
      <trkpt lat="47.3975" lon="6.67278">
        <ele>527</ele>
        <time>2015-07-08T09:33:09.000Z</time>
      </trkpt>
      <trkpt lat="47.39759" lon="6.67287">
        <ele>526</ele>
        <time>2015-07-08T09:33:10.000Z</time>
      </trkpt>
      <trkpt lat="47.39767" lon="6.67296">
        <ele>525</ele>
        <time>2015-07-08T09:33:11.000Z</time>
      </trkpt>
      <trkpt lat="47.39776" lon="6.67305">
        <ele>525</ele>
        <time>2015-07-08T09:33:12.000Z</time>
      </trkpt>
      <trkpt lat="47.39785" lon="6.67315">
        <ele>524</ele>
        <time>2015-07-08T09:33:13.000Z</time>
      </trkpt>
      <trkpt lat="47.39793" lon="6.67326">
        <ele>523</ele>
        <time>2015-07-08T09:33:14.000Z</time>
      </trkpt>
      <trkpt lat="47.39802" lon="6.67338">
        <ele>523</ele>
        <time>2015-07-08T09:33:15.000Z</time>
      </trkpt>
      <trkpt lat="47.3981" lon="6.67351">
        <ele>522</ele>
        <time>2015-07-08T09:33:16.000Z</time>
      </trkpt>
      <trkpt lat="47.39817" lon="6.67365">
        <ele>522</ele>
        <time>2015-07-08T09:33:17.000Z</time>
      </trkpt>
      <trkpt lat="47.39823" lon="6.6738">
        <ele>522</ele>
        <time>2015-07-08T09:33:18.000Z</time>
      </trkpt>
      <trkpt lat="47.39829" lon="6.67395">
        <ele>521</ele>
        <time>2015-07-08T09:33:19.000Z</time>
      </trkpt>
      <trkpt lat="47.39836" lon="6.67409">
        <ele>521</ele>
        <time>2015-07-08T09:33:20.000Z</time>
      </trkpt>
      <trkpt lat="47.39842" lon="6.67423">
        <ele>521</ele>
        <time>2015-07-08T09:33:21.000Z</time>
      </trkpt>
      <trkpt lat="47.39849" lon="6.67437">
        <ele>521</ele>
        <time>2015-07-08T09:33:22.000Z</time>
      </trkpt>
      <trkpt lat="47.39857" lon="6.67449">
        <ele>521</ele>
        <time>2015-07-08T09:33:23.000Z</time>
      </trkpt>
      <trkpt lat="47.39865" lon="6.67459">
        <ele>520</ele>
        <time>2015-07-08T09:33:24.000Z</time>
      </trkpt>
      <trkpt lat="47.39875" lon="6.67467">
        <ele>520</ele>
        <time>2015-07-08T09:33:25.000Z</time>
      </trkpt>
      <trkpt lat="47.39885" lon="6.67474">
        <ele>520</ele>
        <time>2015-07-08T09:33:26.000Z</time>
      </trkpt>
      <trkpt lat="47.39895" lon="6.67479">
        <ele>520</ele>
        <time>2015-07-08T09:33:27.000Z</time>
      </trkpt>
      <trkpt lat="47.39906" lon="6.67485">
        <ele>519</ele>
        <time>2015-07-08T09:33:28.000Z</time>
      </trkpt>
      <trkpt lat="47.39916" lon="6.67492">
        <ele>519</ele>
        <time>2015-07-08T09:33:29.000Z</time>
      </trkpt>
      <trkpt lat="47.39926" lon="6.67501">
        <ele>519</ele>
        <time>2015-07-08T09:33:30.000Z</time>
      </trkpt>
      <trkpt lat="47.39936" lon="6.67509">
        <ele>518</ele>
        <time>2015-07-08T09:33:31.000Z</time>
      </trkpt>
      <trkpt lat="47.39946" lon="6.67519">
        <ele>518</ele>
        <time>2015-07-08T09:33:32.000Z</time>
      </trkpt>
      <trkpt lat="47.39955" lon="6.67529">
        <ele>518</ele>
        <time>2015-07-08T09:33:33.000Z</time>
      </trkpt>
      <trkpt lat="47.39965" lon="6.67539">
        <ele>518</ele>
        <time>2015-07-08T09:33:34.000Z</time>
      </trkpt>
      <trkpt lat="47.39974" lon="6.67549">
        <ele>517</ele>
        <time>2015-07-08T09:33:35.000Z</time>
      </trkpt>
      <trkpt lat="47.39984" lon="6.67559">
        <ele>517</ele>
        <time>2015-07-08T09:33:36.000Z</time>
      </trkpt>
      <trkpt lat="47.39994" lon="6.67567">
        <ele>517</ele>
        <time>2015-07-08T09:33:37.000Z</time>
      </trkpt>
      <trkpt lat="47.40004" lon="6.67576">
        <ele>517</ele>
        <time>2015-07-08T09:33:38.000Z</time>
      </trkpt>
      <trkpt lat="47.40014" lon="6.67584">
        <ele>516</ele>
        <time>2015-07-08T09:33:39.000Z</time>
      </trkpt>
      <trkpt lat="47.40024" lon="6.67593">
        <ele>516</ele>
        <time>2015-07-08T09:33:40.000Z</time>
      </trkpt>
      <trkpt lat="47.40033" lon="6.67602">
        <ele>516</ele>
        <time>2015-07-08T09:33:41.000Z</time>
      </trkpt>
      <trkpt lat="47.40043" lon="6.67612">
        <ele>516</ele>
        <time>2015-07-08T09:33:42.000Z</time>
      </trkpt>
      <trkpt lat="47.40052" lon="6.67622">
        <ele>516</ele>
        <time>2015-07-08T09:33:43.000Z</time>
      </trkpt>
      <trkpt lat="47.40059" lon="6.67634">
        <ele>515</ele>
        <time>2015-07-08T09:33:44.000Z</time>
      </trkpt>
      <trkpt lat="47.40066" lon="6.67647">
        <ele>515</ele>
        <time>2015-07-08T09:33:45.000Z</time>
      </trkpt>
      <trkpt lat="47.40072" lon="6.67661">
        <ele>515</ele>
        <time>2015-07-08T09:33:46.000Z</time>
      </trkpt>
      <trkpt lat="47.40076" lon="6.67675">
        <ele>515</ele>
        <time>2015-07-08T09:33:47.000Z</time>
      </trkpt>
      <trkpt lat="47.40081" lon="6.6769">
        <ele>515</ele>
        <time>2015-07-08T09:33:48.000Z</time>
      </trkpt>
      <trkpt lat="47.40085" lon="6.67704">
        <ele>515</ele>
        <time>2015-07-08T09:33:49.000Z</time>
      </trkpt>
      <trkpt lat="47.4009" lon="6.67719">
        <ele>515</ele>
        <time>2015-07-08T09:33:50.000Z</time>
      </trkpt>
      <trkpt lat="47.40094" lon="6.67733">
        <ele>515</ele>
        <time>2015-07-08T09:33:51.000Z</time>
      </trkpt>
      <trkpt lat="47.40098" lon="6.67748">
        <ele>514</ele>
        <time>2015-07-08T09:33:52.000Z</time>
      </trkpt>
      <trkpt lat="47.40102" lon="6.67762">
        <ele>514</ele>
        <time>2015-07-08T09:33:53.000Z</time>
      </trkpt>
      <trkpt lat="47.40106" lon="6.67776">
        <ele>514</ele>
        <time>2015-07-08T09:33:54.000Z</time>
      </trkpt>
      <trkpt lat="47.4011" lon="6.6779">
        <ele>514</ele>
        <time>2015-07-08T09:33:55.000Z</time>
      </trkpt>
      <trkpt lat="47.40113" lon="6.67805">
        <ele>514</ele>
        <time>2015-07-08T09:33:56.000Z</time>
      </trkpt>
      <trkpt lat="47.40116" lon="6.67819">
        <ele>514</ele>
        <time>2015-07-08T09:33:57.000Z</time>
      </trkpt>
      <trkpt lat="47.4012" lon="6.67834">
        <ele>513</ele>
        <time>2015-07-08T09:33:58.000Z</time>
      </trkpt>
      <trkpt lat="47.40123" lon="6.67848">
        <ele>513</ele>
        <time>2015-07-08T09:33:59.000Z</time>
      </trkpt>
      <trkpt lat="47.40125" lon="6.67864">
        <ele>513</ele>
        <time>2015-07-08T09:34:00.000Z</time>
      </trkpt>
      <trkpt lat="47.40126" lon="6.67879">
        <ele>512</ele>
        <time>2015-07-08T09:34:01.000Z</time>
      </trkpt>
      <trkpt lat="47.40126" lon="6.67895">
        <ele>512</ele>
        <time>2015-07-08T09:34:02.000Z</time>
      </trkpt>
      <trkpt lat="47.40125" lon="6.67911">
        <ele>511</ele>
        <time>2015-07-08T09:34:03.000Z</time>
      </trkpt>
      <trkpt lat="47.40122" lon="6.67926">
        <ele>511</ele>
        <time>2015-07-08T09:34:04.000Z</time>
      </trkpt>
      <trkpt lat="47.40118" lon="6.6794">
        <ele>510</ele>
        <time>2015-07-08T09:34:05.000Z</time>
      </trkpt>
      <trkpt lat="47.40113" lon="6.67954">
        <ele>510</ele>
        <time>2015-07-08T09:34:06.000Z</time>
      </trkpt>
      <trkpt lat="47.40107" lon="6.67967">
        <ele>510</ele>
        <time>2015-07-08T09:34:07.000Z</time>
      </trkpt>
      <trkpt lat="47.40099" lon="6.67978">
        <ele>509</ele>
        <time>2015-07-08T09:34:08.000Z</time>
      </trkpt>
      <trkpt lat="47.40091" lon="6.67987">
        <ele>509</ele>
        <time>2015-07-08T09:34:09.000Z</time>
      </trkpt>
      <trkpt lat="47.40081" lon="6.67994">
        <ele>509</ele>
        <time>2015-07-08T09:34:10.000Z</time>
      </trkpt>
      <trkpt lat="47.40072" lon="6.67999">
        <ele>508</ele>
        <time>2015-07-08T09:34:11.000Z</time>
      </trkpt>
      <trkpt lat="47.40061" lon="6.68003">
        <ele>508</ele>
        <time>2015-07-08T09:34:12.000Z</time>
      </trkpt>
      <trkpt lat="47.4005" lon="6.68006">
        <ele>508</ele>
        <time>2015-07-08T09:34:13.000Z</time>
      </trkpt>
      <trkpt lat="47.40039" lon="6.68007">
        <ele>507</ele>
        <time>2015-07-08T09:34:14.000Z</time>
      </trkpt>
      <trkpt lat="47.40028" lon="6.68008">
        <ele>507</ele>
        <time>2015-07-08T09:34:15.000Z</time>
      </trkpt>
      <trkpt lat="47.40016" lon="6.68014">
        <ele>506</ele>
        <time>2015-07-08T09:34:16.000Z</time>
      </trkpt>
      <trkpt lat="47.40006" lon="6.68022">
        <ele>505</ele>
        <time>2015-07-08T09:34:17.000Z</time>
      </trkpt>
      <trkpt lat="47.39998" lon="6.68033">
        <ele>505</ele>
        <time>2015-07-08T09:34:18.000Z</time>
      </trkpt>
      <trkpt lat="47.39992" lon="6.68046">
        <ele>505</ele>
        <time>2015-07-08T09:34:19.000Z</time>
      </trkpt>
      <trkpt lat="47.39988" lon="6.68059">
        <ele>505</ele>
        <time>2015-07-08T09:34:20.000Z</time>
      </trkpt>
      <trkpt lat="47.39984" lon="6.68073">
        <ele>505</ele>
        <time>2015-07-08T09:34:21.000Z</time>
      </trkpt>
      <trkpt lat="47.3998" lon="6.68087">
        <ele>505</ele>
        <time>2015-07-08T09:34:22.000Z</time>
      </trkpt>
      <trkpt lat="47.39977" lon="6.681">
        <ele>505</ele>
        <time>2015-07-08T09:34:23.000Z</time>
      </trkpt>
      <trkpt lat="47.39973" lon="6.68112">
        <ele>505</ele>
        <time>2015-07-08T09:34:24.000Z</time>
      </trkpt>
      <trkpt lat="47.3997" lon="6.68124">
        <ele>505</ele>
        <time>2015-07-08T09:34:25.000Z</time>
      </trkpt>
      <trkpt lat="47.39966" lon="6.68136">
        <ele>506</ele>
        <time>2015-07-08T09:34:26.000Z</time>
      </trkpt>
      <trkpt lat="47.39963" lon="6.68147">
        <ele>506</ele>
        <time>2015-07-08T09:34:27.000Z</time>
      </trkpt>
      <trkpt lat="47.39961" lon="6.68159">
        <ele>506</ele>
        <time>2015-07-08T09:34:28.000Z</time>
      </trkpt>
      <trkpt lat="47.39961" lon="6.68171">
        <ele>506</ele>
        <time>2015-07-08T09:34:29.000Z</time>
      </trkpt>
      <trkpt lat="47.39962" lon="6.68182">
        <ele>506</ele>
        <time>2015-07-08T09:34:30.000Z</time>
      </trkpt>
      <trkpt lat="47.39965" lon="6.68193">
        <ele>505</ele>
        <time>2015-07-08T09:34:31.000Z</time>
      </trkpt>
      <trkpt lat="47.39969" lon="6.68202">
        <ele>505</ele>
        <time>2015-07-08T09:34:32.000Z</time>
      </trkpt>
      <trkpt lat="47.39974" lon="6.68211">
        <ele>505</ele>
        <time>2015-07-08T09:34:33.000Z</time>
      </trkpt>
      <trkpt lat="47.3998" lon="6.68219">
        <ele>505</ele>
        <time>2015-07-08T09:34:34.000Z</time>
      </trkpt>
      <trkpt lat="47.39986" lon="6.68228">
        <ele>505</ele>
        <time>2015-07-08T09:34:35.000Z</time>
      </trkpt>
      <trkpt lat="47.39991" lon="6.68236">
        <ele>505</ele>
        <time>2015-07-08T09:34:36.000Z</time>
      </trkpt>
      <trkpt lat="47.39997" lon="6.68244">
        <ele>505</ele>
        <time>2015-07-08T09:34:37.000Z</time>
      </trkpt>
      <trkpt lat="47.40002" lon="6.68253">
        <ele>505</ele>
        <time>2015-07-08T09:34:38.000Z</time>
      </trkpt>
      <trkpt lat="47.40008" lon="6.68262">
        <ele>504</ele>
        <time>2015-07-08T09:34:39.000Z</time>
      </trkpt>
      <trkpt lat="47.40013" lon="6.68271">
        <ele>504</ele>
        <time>2015-07-08T09:34:40.000Z</time>
      </trkpt>
      <trkpt lat="47.40019" lon="6.68281">
        <ele>504</ele>
        <time>2015-07-08T09:34:41.000Z</time>
      </trkpt>
      <trkpt lat="47.40025" lon="6.68291">
        <ele>503</ele>
        <time>2015-07-08T09:34:42.000Z</time>
      </trkpt>
      <trkpt lat="47.4003" lon="6.68301">
        <ele>503</ele>
        <time>2015-07-08T09:34:43.000Z</time>
      </trkpt>
      <trkpt lat="47.40036" lon="6.68312">
        <ele>503</ele>
        <time>2015-07-08T09:34:44.000Z</time>
      </trkpt>
      <trkpt lat="47.40042" lon="6.68322">
        <ele>502</ele>
        <time>2015-07-08T09:34:45.000Z</time>
      </trkpt>
      <trkpt lat="47.40048" lon="6.68334">
        <ele>502</ele>
        <time>2015-07-08T09:34:46.000Z</time>
      </trkpt>
      <trkpt lat="47.40053" lon="6.68346">
        <ele>502</ele>
        <time>2015-07-08T09:34:47.000Z</time>
      </trkpt>
      <trkpt lat="47.40059" lon="6.68357">
        <ele>501</ele>
        <time>2015-07-08T09:34:48.000Z</time>
      </trkpt>
      <trkpt lat="47.40065" lon="6.68369">
        <ele>501</ele>
        <time>2015-07-08T09:34:49.000Z</time>
      </trkpt>
      <trkpt lat="47.4007" lon="6.68381">
        <ele>501</ele>
        <time>2015-07-08T09:34:50.000Z</time>
      </trkpt>
      <trkpt lat="47.40076" lon="6.68393">
        <ele>501</ele>
        <time>2015-07-08T09:34:51.000Z</time>
      </trkpt>
      <trkpt lat="47.40082" lon="6.68404">
        <ele>501</ele>
        <time>2015-07-08T09:34:52.000Z</time>
      </trkpt>
      <trkpt lat="47.40088" lon="6.68416">
        <ele>501</ele>
        <time>2015-07-08T09:34:53.000Z</time>
      </trkpt>
      <trkpt lat="47.40093" lon="6.68427">
        <ele>501</ele>
        <time>2015-07-08T09:34:54.000Z</time>
      </trkpt>
      <trkpt lat="47.40099" lon="6.68438">
        <ele>501</ele>
        <time>2015-07-08T09:34:55.000Z</time>
      </trkpt>
      <trkpt lat="47.40104" lon="6.68449">
        <ele>501</ele>
        <time>2015-07-08T09:34:56.000Z</time>
      </trkpt>
      <trkpt lat="47.4011" lon="6.6846">
        <ele>501</ele>
        <time>2015-07-08T09:34:57.000Z</time>
      </trkpt>
      <trkpt lat="47.40115" lon="6.6847">
        <ele>501</ele>
        <time>2015-07-08T09:34:58.000Z</time>
      </trkpt>
      <trkpt lat="47.4012" lon="6.6848">
        <ele>501</ele>
        <time>2015-07-08T09:34:59.000Z</time>
      </trkpt>
      <trkpt lat="47.40126" lon="6.6849">
        <ele>501</ele>
        <time>2015-07-08T09:35:00.000Z</time>
      </trkpt>
      <trkpt lat="47.40132" lon="6.685">
        <ele>501</ele>
        <time>2015-07-08T09:35:01.000Z</time>
      </trkpt>
      <trkpt lat="47.40137" lon="6.6851">
        <ele>501</ele>
        <time>2015-07-08T09:35:02.000Z</time>
      </trkpt>
      <trkpt lat="47.40143" lon="6.6852">
        <ele>501</ele>
        <time>2015-07-08T09:35:03.000Z</time>
      </trkpt>
      <trkpt lat="47.40149" lon="6.68529">
        <ele>501</ele>
        <time>2015-07-08T09:35:04.000Z</time>
      </trkpt>
      <trkpt lat="47.40154" lon="6.68539">
        <ele>501</ele>
        <time>2015-07-08T09:35:05.000Z</time>
      </trkpt>
      <trkpt lat="47.4016" lon="6.68548">
        <ele>501</ele>
        <time>2015-07-08T09:35:06.000Z</time>
      </trkpt>
      <trkpt lat="47.40165" lon="6.68557">
        <ele>501</ele>
        <time>2015-07-08T09:35:07.000Z</time>
      </trkpt>
      <trkpt lat="47.40171" lon="6.68566">
        <ele>501</ele>
        <time>2015-07-08T09:35:08.000Z</time>
      </trkpt>
      <trkpt lat="47.40176" lon="6.68574">
        <ele>501</ele>
        <time>2015-07-08T09:35:09.000Z</time>
      </trkpt>
      <trkpt lat="47.40182" lon="6.68583">
        <ele>501</ele>
        <time>2015-07-08T09:35:10.000Z</time>
      </trkpt>
      <trkpt lat="47.40187" lon="6.68592">
        <ele>501</ele>
        <time>2015-07-08T09:35:11.000Z</time>
      </trkpt>
      <trkpt lat="47.40192" lon="6.68601">
        <ele>501</ele>
        <time>2015-07-08T09:35:12.000Z</time>
      </trkpt>
      <trkpt lat="47.40198" lon="6.6861">
        <ele>501</ele>
        <time>2015-07-08T09:35:13.000Z</time>
      </trkpt>
      <trkpt lat="47.40203" lon="6.68618">
        <ele>501</ele>
        <time>2015-07-08T09:35:14.000Z</time>
      </trkpt>
      <trkpt lat="47.40209" lon="6.68627">
        <ele>502</ele>
        <time>2015-07-08T09:35:15.000Z</time>
      </trkpt>
      <trkpt lat="47.40214" lon="6.68635">
        <ele>502</ele>
        <time>2015-07-08T09:35:16.000Z</time>
      </trkpt>
      <trkpt lat="47.4022" lon="6.68643">
        <ele>501</ele>
        <time>2015-07-08T09:35:17.000Z</time>
      </trkpt>
      <trkpt lat="47.40225" lon="6.68652">
        <ele>501</ele>
        <time>2015-07-08T09:35:18.000Z</time>
      </trkpt>
      <trkpt lat="47.4023" lon="6.6866">
        <ele>501</ele>
        <time>2015-07-08T09:35:19.000Z</time>
      </trkpt>
      <trkpt lat="47.40235" lon="6.68668">
        <ele>501</ele>
        <time>2015-07-08T09:35:20.000Z</time>
      </trkpt>
      <trkpt lat="47.4024" lon="6.68675">
        <ele>501</ele>
        <time>2015-07-08T09:35:21.000Z</time>
      </trkpt>
      <trkpt lat="47.40244" lon="6.68681">
        <ele>501</ele>
        <time>2015-07-08T09:35:22.000Z</time>
      </trkpt>
      <trkpt lat="47.40247" lon="6.68687">
        <ele>501</ele>
        <time>2015-07-08T09:35:23.000Z</time>
      </trkpt>
      <trkpt lat="47.40251" lon="6.68692">
        <ele>501</ele>
        <time>2015-07-08T09:35:24.000Z</time>
      </trkpt>
      <trkpt lat="47.40254" lon="6.68696">
        <ele>501</ele>
        <time>2015-07-08T09:35:25.000Z</time>
      </trkpt>
      <trkpt lat="47.40256" lon="6.687">
        <ele>501</ele>
        <time>2015-07-08T09:35:26.000Z</time>
      </trkpt>
      <trkpt lat="47.40258" lon="6.68703">
        <ele>501</ele>
        <time>2015-07-08T09:35:27.000Z</time>
      </trkpt>
      <trkpt lat="47.4026" lon="6.68705">
        <ele>501</ele>
        <time>2015-07-08T09:35:28.000Z</time>
      </trkpt>
      <trkpt lat="47.40261" lon="6.68707">
        <ele>501</ele>
        <time>2015-07-08T09:35:29.000Z</time>
      </trkpt>
      <trkpt lat="47.40262" lon="6.68708">
        <ele>501</ele>
        <time>2015-07-08T09:35:30.000Z</time>
      </trkpt>
      <trkpt lat="47.40262" lon="6.68708">
        <ele>501</ele>
        <time>2015-07-08T09:35:31.000Z</time>
      </trkpt>
      <trkpt lat="47.40262" lon="6.68707">
        <ele>501</ele>
        <time>2015-07-08T09:35:32.000Z</time>
      </trkpt>
      <trkpt lat="47.40262" lon="6.68707">
        <ele>501</ele>
        <time>2015-07-08T09:35:33.000Z</time>
      </trkpt>
      <trkpt lat="47.40262" lon="6.68707">
        <ele>501</ele>
        <time>2015-07-08T09:35:34.000Z</time>
      </trkpt>
      <trkpt lat="47.40262" lon="6.68707">
        <ele>501</ele>
        <time>2015-07-08T09:35:35.000Z</time>
      </trkpt>
      <trkpt lat="47.40262" lon="6.68708">
        <ele>501</ele>
        <time>2015-07-08T09:35:36.000Z</time>
      </trkpt>
      <trkpt lat="47.40262" lon="6.68708">
        <ele>500</ele>
        <time>2015-07-08T09:35:37.000Z</time>
      </trkpt>
      <trkpt lat="47.40262" lon="6.68708">
        <ele>500</ele>
        <time>2015-07-08T09:35:38.000Z</time>
      </trkpt>
      <trkpt lat="47.40262" lon="6.68708">
        <ele>500</ele>
        <time>2015-07-08T09:35:39.000Z</time>
      </trkpt>
      <trkpt lat="47.40262" lon="6.68708">
        <ele>500</ele>
        <time>2015-07-08T09:35:40.000Z</time>
      </trkpt>
      <trkpt lat="47.40262" lon="6.68707">
        <ele>500</ele>
        <time>2015-07-08T09:35:41.000Z</time>
      </trkpt>
      <trkpt lat="47.40262" lon="6.68707">
        <ele>500</ele>
        <time>2015-07-08T09:35:42.000Z</time>
      </trkpt>
      <trkpt lat="47.40262" lon="6.68707">
        <ele>500</ele>
        <time>2015-07-08T09:35:43.000Z</time>
      </trkpt>
      <trkpt lat="47.40262" lon="6.68707">
        <ele>500</ele>
        <time>2015-07-08T09:35:44.000Z</time>
      </trkpt>
      <trkpt lat="47.40262" lon="6.68707">
        <ele>500</ele>
        <time>2015-07-08T09:35:45.000Z</time>
      </trkpt>
      <trkpt lat="47.40262" lon="6.68707">
        <ele>500</ele>
        <time>2015-07-08T09:35:46.000Z</time>
      </trkpt>
      <trkpt lat="47.40262" lon="6.68707">
        <ele>500</ele>
        <time>2015-07-08T09:35:47.000Z</time>
      </trkpt>
      <trkpt lat="47.40262" lon="6.68707">
        <ele>500</ele>
        <time>2015-07-08T09:35:48.000Z</time>
      </trkpt>
      <trkpt lat="47.40262" lon="6.68707">
        <ele>500</ele>
        <time>2015-07-08T09:35:49.000Z</time>
      </trkpt>
      <trkpt lat="47.40262" lon="6.68707">
        <ele>500</ele>
        <time>2015-07-08T09:35:50.000Z</time>
      </trkpt>
      <trkpt lat="47.40262" lon="6.68707">
        <ele>500</ele>
        <time>2015-07-08T09:35:51.000Z</time>
      </trkpt>
      <trkpt lat="47.40262" lon="6.68707">
        <ele>500</ele>
        <time>2015-07-08T09:35:52.000Z</time>
      </trkpt>
      <trkpt lat="47.40262" lon="6.68707">
        <ele>500</ele>
        <time>2015-07-08T09:35:53.000Z</time>
      </trkpt>
      <trkpt lat="47.40262" lon="6.68707">
        <ele>500</ele>
        <time>2015-07-08T09:35:54.000Z</time>
      </trkpt>
      <trkpt lat="47.40262" lon="6.68707">
        <ele>500</ele>
        <time>2015-07-08T09:35:55.000Z</time>
      </trkpt>
      <trkpt lat="47.40262" lon="6.68707">
        <ele>500</ele>
        <time>2015-07-08T09:35:56.000Z</time>
      </trkpt>
      <trkpt lat="47.40262" lon="6.68707">
        <ele>500</ele>
        <time>2015-07-08T09:35:57.000Z</time>
      </trkpt>
      <trkpt lat="47.40262" lon="6.68707">
        <ele>500</ele>
        <time>2015-07-08T09:35:58.000Z</time>
      </trkpt>
      <trkpt lat="47.40262" lon="6.68706">
        <ele>500</ele>
        <time>2015-07-08T09:35:59.000Z</time>
      </trkpt>
      <trkpt lat="47.40262" lon="6.68706">
        <ele>500</ele>
        <time>2015-07-08T09:36:00.000Z</time>
      </trkpt>
      <trkpt lat="47.40262" lon="6.68706">
        <ele>500</ele>
        <time>2015-07-08T09:36:01.000Z</time>
      </trkpt>
      <trkpt lat="47.40262" lon="6.68706">
        <ele>500</ele>
        <time>2015-07-08T09:36:02.000Z</time>
      </trkpt>
      <trkpt lat="47.40262" lon="6.68706">
        <ele>500</ele>
        <time>2015-07-08T09:36:03.000Z</time>
      </trkpt>
      <trkpt lat="47.40262" lon="6.68706">
        <ele>500</ele>
        <time>2015-07-08T09:36:04.000Z</time>
      </trkpt>
      <trkpt lat="47.40262" lon="6.68706">
        <ele>500</ele>
        <time>2015-07-08T09:36:05.000Z</time>
      </trkpt>
      <trkpt lat="47.40262" lon="6.68706">
        <ele>500</ele>
        <time>2015-07-08T09:36:06.000Z</time>
      </trkpt>
      <trkpt lat="47.40262" lon="6.68706">
        <ele>500</ele>
        <time>2015-07-08T09:36:07.000Z</time>
      </trkpt>
      <trkpt lat="47.40262" lon="6.68706">
        <ele>500</ele>
        <time>2015-07-08T09:36:08.000Z</time>
      </trkpt>
      <trkpt lat="47.40262" lon="6.68706">
        <ele>500</ele>
        <time>2015-07-08T09:36:09.000Z</time>
      </trkpt>
      <trkpt lat="47.40262" lon="6.68706">
        <ele>500</ele>
        <time>2015-07-08T09:36:10.000Z</time>
      </trkpt>
      <trkpt lat="47.40262" lon="6.68706">
        <ele>500</ele>
        <time>2015-07-08T09:36:11.000Z</time>
      </trkpt>
      <trkpt lat="47.40262" lon="6.68706">
        <ele>500</ele>
        <time>2015-07-08T09:36:12.000Z</time>
      </trkpt>
      <trkpt lat="47.40262" lon="6.68706">
        <ele>500</ele>
        <time>2015-07-08T09:36:13.000Z</time>
      </trkpt>
      <trkpt lat="47.40262" lon="6.68706">
        <ele>500</ele>
        <time>2015-07-08T09:36:14.000Z</time>
      </trkpt>
      <trkpt lat="47.40262" lon="6.68706">
        <ele>500</ele>
        <time>2015-07-08T09:36:15.000Z</time>
      </trkpt>
      <trkpt lat="47.40262" lon="6.68706">
        <ele>500</ele>
        <time>2015-07-08T09:36:16.000Z</time>
      </trkpt>
      <trkpt lat="47.40262" lon="6.68706">
        <ele>500</ele>
        <time>2015-07-08T09:36:17.000Z</time>
      </trkpt>
      <trkpt lat="47.40262" lon="6.68705">
        <ele>500</ele>
        <time>2015-07-08T09:36:18.000Z</time>
      </trkpt>
      <trkpt lat="47.40262" lon="6.68706">
        <ele>500</ele>
        <time>2015-07-08T09:36:19.000Z</time>
      </trkpt>
      <trkpt lat="47.40262" lon="6.68706">
        <ele>500</ele>
        <time>2015-07-08T09:36:20.000Z</time>
      </trkpt>
      <trkpt lat="47.40262" lon="6.68706">
        <ele>500</ele>
        <time>2015-07-08T09:36:21.000Z</time>
      </trkpt>
      <trkpt lat="47.40262" lon="6.68706">
        <ele>500</ele>
        <time>2015-07-08T09:36:22.000Z</time>
      </trkpt>
      <trkpt lat="47.40262" lon="6.68706">
        <ele>500</ele>
        <time>2015-07-08T09:36:23.000Z</time>
      </trkpt>
      <trkpt lat="47.40262" lon="6.68706">
        <ele>500</ele>
        <time>2015-07-08T09:36:24.000Z</time>
      </trkpt>
      <trkpt lat="47.40262" lon="6.68706">
        <ele>500</ele>
        <time>2015-07-08T09:36:25.000Z</time>
      </trkpt>
      <trkpt lat="47.40262" lon="6.68706">
        <ele>500</ele>
        <time>2015-07-08T09:36:26.000Z</time>
      </trkpt>
      <trkpt lat="47.40262" lon="6.68706">
        <ele>500</ele>
        <time>2015-07-08T09:36:27.000Z</time>
      </trkpt>
      <trkpt lat="47.40262" lon="6.68706">
        <ele>500</ele>
        <time>2015-07-08T09:36:28.000Z</time>
      </trkpt>
      <trkpt lat="47.40262" lon="6.68706">
        <ele>500</ele>
        <time>2015-07-08T09:36:29.000Z</time>
      </trkpt>
      <trkpt lat="47.40262" lon="6.68706">
        <ele>500</ele>
        <time>2015-07-08T09:36:30.000Z</time>
      </trkpt>
      <trkpt lat="47.40262" lon="6.68706">
        <ele>500</ele>
        <time>2015-07-08T09:36:31.000Z</time>
      </trkpt>
      <trkpt lat="47.40262" lon="6.68706">
        <ele>500</ele>
        <time>2015-07-08T09:36:32.000Z</time>
      </trkpt>
      <trkpt lat="47.40262" lon="6.68706">
        <ele>500</ele>
        <time>2015-07-08T09:36:33.000Z</time>
      </trkpt>
      <trkpt lat="47.40262" lon="6.68705">
        <ele>500</ele>
        <time>2015-07-08T09:36:34.000Z</time>
      </trkpt>
      <trkpt lat="47.40262" lon="6.68705">
        <ele>500</ele>
        <time>2015-07-08T09:36:35.000Z</time>
      </trkpt>
      <trkpt lat="47.40262" lon="6.68705">
        <ele>500</ele>
        <time>2015-07-08T09:36:36.000Z</time>
      </trkpt>
      <trkpt lat="47.40262" lon="6.68705">
        <ele>500</ele>
        <time>2015-07-08T09:36:37.000Z</time>
      </trkpt>
      <trkpt lat="47.40262" lon="6.68706">
        <ele>500</ele>
        <time>2015-07-08T09:36:38.000Z</time>
      </trkpt>
      <trkpt lat="47.40262" lon="6.68706">
        <ele>500</ele>
        <time>2015-07-08T09:36:39.000Z</time>
      </trkpt>
      <trkpt lat="47.40262" lon="6.68706">
        <ele>500</ele>
        <time>2015-07-08T09:36:40.000Z</time>
      </trkpt>
      <trkpt lat="47.40262" lon="6.68706">
        <ele>500</ele>
        <time>2015-07-08T09:36:41.000Z</time>
      </trkpt>
      <trkpt lat="47.40262" lon="6.68706">
        <ele>500</ele>
        <time>2015-07-08T09:36:42.000Z</time>
      </trkpt>
      <trkpt lat="47.40262" lon="6.68706">
        <ele>500</ele>
        <time>2015-07-08T09:36:43.000Z</time>
      </trkpt>
      <trkpt lat="47.40262" lon="6.68706">
        <ele>500</ele>
        <time>2015-07-08T09:36:44.000Z</time>
      </trkpt>
      <trkpt lat="47.40262" lon="6.68706">
        <ele>500</ele>
        <time>2015-07-08T09:36:45.000Z</time>
      </trkpt>
      <trkpt lat="47.40262" lon="6.68706">
        <ele>500</ele>
        <time>2015-07-08T09:36:46.000Z</time>
      </trkpt>
      <trkpt lat="47.40262" lon="6.68706">
        <ele>500</ele>
        <time>2015-07-08T09:36:47.000Z</time>
      </trkpt>
      <trkpt lat="47.40262" lon="6.68706">
        <ele>500</ele>
        <time>2015-07-08T09:36:48.000Z</time>
      </trkpt>
      <trkpt lat="47.40262" lon="6.68707">
        <ele>500</ele>
        <time>2015-07-08T09:36:49.000Z</time>
      </trkpt>
      <trkpt lat="47.40262" lon="6.68707">
        <ele>500</ele>
        <time>2015-07-08T09:36:50.000Z</time>
      </trkpt>
      <trkpt lat="47.40262" lon="6.68707">
        <ele>500</ele>
        <time>2015-07-08T09:36:51.000Z</time>
      </trkpt>
      <trkpt lat="47.40262" lon="6.68707">
        <ele>500</ele>
        <time>2015-07-08T09:36:52.000Z</time>
      </trkpt>
      <trkpt lat="47.40262" lon="6.68707">
        <ele>500</ele>
        <time>2015-07-08T09:36:53.000Z</time>
      </trkpt>
      <trkpt lat="47.40262" lon="6.68706">
        <ele>500</ele>
        <time>2015-07-08T09:36:54.000Z</time>
      </trkpt>
      <trkpt lat="47.40262" lon="6.68706">
        <ele>501</ele>
        <time>2015-07-08T09:36:55.000Z</time>
      </trkpt>
      <trkpt lat="47.40262" lon="6.68706">
        <ele>501</ele>
        <time>2015-07-08T09:36:56.000Z</time>
      </trkpt>
      <trkpt lat="47.40262" lon="6.68706">
        <ele>501</ele>
        <time>2015-07-08T09:36:57.000Z</time>
      </trkpt>
      <trkpt lat="47.40262" lon="6.68706">
        <ele>501</ele>
        <time>2015-07-08T09:36:58.000Z</time>
      </trkpt>
      <trkpt lat="47.40262" lon="6.68707">
        <ele>501</ele>
        <time>2015-07-08T09:36:59.000Z</time>
      </trkpt>
      <trkpt lat="47.40263" lon="6.68707">
        <ele>501</ele>
        <time>2015-07-08T09:37:00.000Z</time>
      </trkpt>
      <trkpt lat="47.40263" lon="6.68707">
        <ele>501</ele>
        <time>2015-07-08T09:37:01.000Z</time>
      </trkpt>
      <trkpt lat="47.40263" lon="6.68707">
        <ele>501</ele>
        <time>2015-07-08T09:37:02.000Z</time>
      </trkpt>
      <trkpt lat="47.40263" lon="6.68707">
        <ele>501</ele>
        <time>2015-07-08T09:37:03.000Z</time>
      </trkpt>
      <trkpt lat="47.40263" lon="6.68707">
        <ele>501</ele>
        <time>2015-07-08T09:37:04.000Z</time>
      </trkpt>
      <trkpt lat="47.40263" lon="6.68707">
        <ele>501</ele>
        <time>2015-07-08T09:37:05.000Z</time>
      </trkpt>
      <trkpt lat="47.40263" lon="6.68707">
        <ele>501</ele>
        <time>2015-07-08T09:37:06.000Z</time>
      </trkpt>
      <trkpt lat="47.40263" lon="6.68707">
        <ele>501</ele>
        <time>2015-07-08T09:37:07.000Z</time>
      </trkpt>
      <trkpt lat="47.40263" lon="6.68707">
        <ele>501</ele>
        <time>2015-07-08T09:37:08.000Z</time>
      </trkpt>
      <trkpt lat="47.40263" lon="6.68707">
        <ele>501</ele>
        <time>2015-07-08T09:37:09.000Z</time>
      </trkpt>
      <trkpt lat="47.40263" lon="6.68708">
        <ele>501</ele>
        <time>2015-07-08T09:37:10.000Z</time>
      </trkpt>
      <trkpt lat="47.40263" lon="6.68708">
        <ele>501</ele>
        <time>2015-07-08T09:37:11.000Z</time>
      </trkpt>
      <trkpt lat="47.40263" lon="6.68708">
        <ele>501</ele>
        <time>2015-07-08T09:37:12.000Z</time>
      </trkpt>
      <trkpt lat="47.40263" lon="6.68707">
        <ele>501</ele>
        <time>2015-07-08T09:37:13.000Z</time>
      </trkpt>
      <trkpt lat="47.40263" lon="6.68707">
        <ele>501</ele>
        <time>2015-07-08T09:37:14.000Z</time>
      </trkpt>
      <trkpt lat="47.40263" lon="6.68707">
        <ele>501</ele>
        <time>2015-07-08T09:37:15.000Z</time>
      </trkpt>
      <trkpt lat="47.40263" lon="6.68707">
        <ele>501</ele>
        <time>2015-07-08T09:37:16.000Z</time>
      </trkpt>
      <trkpt lat="47.40263" lon="6.68707">
        <ele>501</ele>
        <time>2015-07-08T09:37:17.000Z</time>
      </trkpt>
      <trkpt lat="47.40263" lon="6.68707">
        <ele>501</ele>
        <time>2015-07-08T09:37:18.000Z</time>
      </trkpt>
      <trkpt lat="47.40263" lon="6.68707">
        <ele>501</ele>
        <time>2015-07-08T09:37:19.000Z</time>
      </trkpt>
      <trkpt lat="47.40263" lon="6.68707">
        <ele>501</ele>
        <time>2015-07-08T09:37:20.000Z</time>
      </trkpt>
      <trkpt lat="47.40263" lon="6.68707">
        <ele>501</ele>
        <time>2015-07-08T09:37:21.000Z</time>
      </trkpt>
      <trkpt lat="47.40263" lon="6.68707">
        <ele>501</ele>
        <time>2015-07-08T09:37:22.000Z</time>
      </trkpt>
      <trkpt lat="47.40263" lon="6.68707">
        <ele>501</ele>
        <time>2015-07-08T09:37:23.000Z</time>
      </trkpt>
      <trkpt lat="47.40263" lon="6.68706">
        <ele>501</ele>
        <time>2015-07-08T09:37:24.000Z</time>
      </trkpt>
      <trkpt lat="47.40264" lon="6.68707">
        <ele>502</ele>
        <time>2015-07-08T09:37:25.000Z</time>
      </trkpt>
      <trkpt lat="47.40265" lon="6.68707">
        <ele>502</ele>
        <time>2015-07-08T09:37:26.000Z</time>
      </trkpt>
      <trkpt lat="47.40265" lon="6.68707">
        <ele>502</ele>
        <time>2015-07-08T09:37:27.000Z</time>
      </trkpt>
      <trkpt lat="47.40265" lon="6.68707">
        <ele>502</ele>
        <time>2015-07-08T09:37:28.000Z</time>
      </trkpt>
      <trkpt lat="47.40265" lon="6.68707">
        <ele>502</ele>
        <time>2015-07-08T09:37:29.000Z</time>
      </trkpt>
      <trkpt lat="47.40265" lon="6.68707">
        <ele>502</ele>
        <time>2015-07-08T09:37:30.000Z</time>
      </trkpt>
      <trkpt lat="47.40265" lon="6.68707">
        <ele>502</ele>
        <time>2015-07-08T09:37:31.000Z</time>
      </trkpt>
      <trkpt lat="47.40265" lon="6.68707">
        <ele>502</ele>
        <time>2015-07-08T09:37:32.000Z</time>
      </trkpt>
      <trkpt lat="47.40265" lon="6.68707">
        <ele>502</ele>
        <time>2015-07-08T09:37:33.000Z</time>
      </trkpt>
      <trkpt lat="47.40265" lon="6.68707">
        <ele>502</ele>
        <time>2015-07-08T09:37:34.000Z</time>
      </trkpt>
      <trkpt lat="47.40265" lon="6.68707">
        <ele>502</ele>
        <time>2015-07-08T09:37:35.000Z</time>
      </trkpt>
      <trkpt lat="47.40265" lon="6.68707">
        <ele>502</ele>
        <time>2015-07-08T09:37:36.000Z</time>
      </trkpt>
      <trkpt lat="47.40265" lon="6.68707">
        <ele>502</ele>
        <time>2015-07-08T09:37:37.000Z</time>
      </trkpt>
      <trkpt lat="47.40265" lon="6.68707">
        <ele>502</ele>
        <time>2015-07-08T09:37:38.000Z</time>
      </trkpt>
      <trkpt lat="47.40265" lon="6.68707">
        <ele>502</ele>
        <time>2015-07-08T09:37:39.000Z</time>
      </trkpt>
      <trkpt lat="47.40265" lon="6.68707">
        <ele>502</ele>
        <time>2015-07-08T09:37:40.000Z</time>
      </trkpt>
      <trkpt lat="47.40265" lon="6.68707">
        <ele>502</ele>
        <time>2015-07-08T09:37:41.000Z</time>
      </trkpt>
      <trkpt lat="47.40265" lon="6.68707">
        <ele>502</ele>
        <time>2015-07-08T09:37:42.000Z</time>
      </trkpt>
      <trkpt lat="47.40265" lon="6.68707">
        <ele>502</ele>
        <time>2015-07-08T09:37:43.000Z</time>
      </trkpt>
      <trkpt lat="47.40265" lon="6.68707">
        <ele>502</ele>
        <time>2015-07-08T09:37:44.000Z</time>
      </trkpt>
      <trkpt lat="47.40265" lon="6.68707">
        <ele>502</ele>
        <time>2015-07-08T09:37:45.000Z</time>
      </trkpt>
      <trkpt lat="47.40265" lon="6.68707">
        <ele>502</ele>
        <time>2015-07-08T09:37:46.000Z</time>
      </trkpt>
      <trkpt lat="47.40265" lon="6.68707">
        <ele>502</ele>
        <time>2015-07-08T09:37:47.000Z</time>
      </trkpt>
      <trkpt lat="47.40265" lon="6.68707">
        <ele>502</ele>
        <time>2015-07-08T09:37:48.000Z</time>
      </trkpt>
      <trkpt lat="47.40265" lon="6.68707">
        <ele>502</ele>
        <time>2015-07-08T09:37:49.000Z</time>
      </trkpt>
      <trkpt lat="47.40265" lon="6.68707">
        <ele>502</ele>
        <time>2015-07-08T09:37:50.000Z</time>
      </trkpt>
      <trkpt lat="47.40265" lon="6.68707">
        <ele>502</ele>
        <time>2015-07-08T09:37:51.000Z</time>
      </trkpt>
      <trkpt lat="47.40265" lon="6.68707">
        <ele>502</ele>
        <time>2015-07-08T09:37:52.000Z</time>
      </trkpt>
      <trkpt lat="47.40265" lon="6.68707">
        <ele>502</ele>
        <time>2015-07-08T09:37:53.000Z</time>
      </trkpt>
      <trkpt lat="47.40265" lon="6.68707">
        <ele>502</ele>
        <time>2015-07-08T09:37:54.000Z</time>
      </trkpt>
      <trkpt lat="47.40265" lon="6.68707">
        <ele>502</ele>
        <time>2015-07-08T09:37:55.000Z</time>
      </trkpt>
      <trkpt lat="47.40265" lon="6.68707">
        <ele>502</ele>
        <time>2015-07-08T09:37:56.000Z</time>
      </trkpt>
      <trkpt lat="47.40265" lon="6.68707">
        <ele>502</ele>
        <time>2015-07-08T09:37:57.000Z</time>
      </trkpt>
      <trkpt lat="47.40265" lon="6.68707">
        <ele>502</ele>
        <time>2015-07-08T09:37:58.000Z</time>
      </trkpt>
      <trkpt lat="47.40265" lon="6.68707">
        <ele>502</ele>
        <time>2015-07-08T09:37:59.000Z</time>
      </trkpt>
      <trkpt lat="47.40265" lon="6.68707">
        <ele>502</ele>
        <time>2015-07-08T09:38:00.000Z</time>
      </trkpt>
      <trkpt lat="47.40265" lon="6.68707">
        <ele>502</ele>
        <time>2015-07-08T09:38:01.000Z</time>
      </trkpt>
      <trkpt lat="47.40265" lon="6.68707">
        <ele>502</ele>
        <time>2015-07-08T09:38:02.000Z</time>
      </trkpt>
      <trkpt lat="47.40265" lon="6.68707">
        <ele>502</ele>
        <time>2015-07-08T09:38:03.000Z</time>
      </trkpt>
      <trkpt lat="47.40265" lon="6.68707">
        <ele>502</ele>
        <time>2015-07-08T09:38:04.000Z</time>
      </trkpt>
      <trkpt lat="47.40265" lon="6.68707">
        <ele>502</ele>
        <time>2015-07-08T09:38:05.000Z</time>
      </trkpt>
      <trkpt lat="47.40265" lon="6.68707">
        <ele>502</ele>
        <time>2015-07-08T09:38:06.000Z</time>
      </trkpt>
      <trkpt lat="47.40265" lon="6.68707">
        <ele>502</ele>
        <time>2015-07-08T09:38:07.000Z</time>
      </trkpt>
      <trkpt lat="47.40265" lon="6.68707">
        <ele>502</ele>
        <time>2015-07-08T09:38:08.000Z</time>
      </trkpt>
      <trkpt lat="47.40265" lon="6.68707">
        <ele>502</ele>
        <time>2015-07-08T09:38:09.000Z</time>
      </trkpt>
      <trkpt lat="47.40265" lon="6.68707">
        <ele>502</ele>
        <time>2015-07-08T09:38:10.000Z</time>
      </trkpt>
      <trkpt lat="47.40265" lon="6.68707">
        <ele>502</ele>
        <time>2015-07-08T09:38:11.000Z</time>
      </trkpt>
      <trkpt lat="47.40265" lon="6.68707">
        <ele>502</ele>
        <time>2015-07-08T09:38:12.000Z</time>
      </trkpt>
      <trkpt lat="47.40265" lon="6.68707">
        <ele>502</ele>
        <time>2015-07-08T09:38:13.000Z</time>
      </trkpt>
      <trkpt lat="47.40265" lon="6.68707">
        <ele>502</ele>
        <time>2015-07-08T09:38:14.000Z</time>
      </trkpt>
      <trkpt lat="47.40265" lon="6.68707">
        <ele>502</ele>
        <time>2015-07-08T09:38:15.000Z</time>
      </trkpt>
      <trkpt lat="47.40265" lon="6.68707">
        <ele>502</ele>
        <time>2015-07-08T09:38:16.000Z</time>
      </trkpt>
      <trkpt lat="47.40265" lon="6.68707">
        <ele>502</ele>
        <time>2015-07-08T09:38:17.000Z</time>
      </trkpt>
      <trkpt lat="47.40265" lon="6.68707">
        <ele>502</ele>
        <time>2015-07-08T09:38:18.000Z</time>
      </trkpt>
      <trkpt lat="47.40264" lon="6.68707">
        <ele>502</ele>
        <time>2015-07-08T09:38:19.000Z</time>
      </trkpt>
      <trkpt lat="47.40264" lon="6.68707">
        <ele>502</ele>
        <time>2015-07-08T09:38:20.000Z</time>
      </trkpt>
      <trkpt lat="47.40264" lon="6.68707">
        <ele>502</ele>
        <time>2015-07-08T09:38:21.000Z</time>
      </trkpt>
      <trkpt lat="47.40264" lon="6.68706">
        <ele>502</ele>
        <time>2015-07-08T09:38:22.000Z</time>
      </trkpt>
      <trkpt lat="47.40264" lon="6.68707">
        <ele>502</ele>
        <time>2015-07-08T09:38:23.000Z</time>
      </trkpt>
      <trkpt lat="47.40265" lon="6.68707">
        <ele>502</ele>
        <time>2015-07-08T09:38:24.000Z</time>
      </trkpt>
      <trkpt lat="47.40264" lon="6.68708">
        <ele>502</ele>
        <time>2015-07-08T09:38:25.000Z</time>
      </trkpt>
      <trkpt lat="47.40264" lon="6.68709">
        <ele>502</ele>
        <time>2015-07-08T09:38:26.000Z</time>
      </trkpt>
      <trkpt lat="47.40264" lon="6.68709">
        <ele>502</ele>
        <time>2015-07-08T09:38:27.000Z</time>
      </trkpt>
      <trkpt lat="47.40264" lon="6.68709">
        <ele>502</ele>
        <time>2015-07-08T09:38:28.000Z</time>
      </trkpt>
      <trkpt lat="47.40264" lon="6.68709">
        <ele>502</ele>
        <time>2015-07-08T09:38:29.000Z</time>
      </trkpt>
      <trkpt lat="47.40264" lon="6.68709">
        <ele>502</ele>
        <time>2015-07-08T09:38:30.000Z</time>
      </trkpt>
      <trkpt lat="47.40265" lon="6.6871">
        <ele>502</ele>
        <time>2015-07-08T09:38:31.000Z</time>
      </trkpt>
      <trkpt lat="47.40266" lon="6.68711">
        <ele>502</ele>
        <time>2015-07-08T09:38:32.000Z</time>
      </trkpt>
      <trkpt lat="47.40267" lon="6.68711">
        <ele>502</ele>
        <time>2015-07-08T09:38:33.000Z</time>
      </trkpt>
      <trkpt lat="47.40268" lon="6.68712">
        <ele>502</ele>
        <time>2015-07-08T09:38:34.000Z</time>
      </trkpt>
      <trkpt lat="47.40269" lon="6.68712">
        <ele>502</ele>
        <time>2015-07-08T09:38:35.000Z</time>
      </trkpt>
      <trkpt lat="47.4027" lon="6.68713">
        <ele>502</ele>
        <time>2015-07-08T09:38:36.000Z</time>
      </trkpt>
      <trkpt lat="47.40272" lon="6.68714">
        <ele>502</ele>
        <time>2015-07-08T09:38:37.000Z</time>
      </trkpt>
      <trkpt lat="47.40273" lon="6.68716">
        <ele>502</ele>
        <time>2015-07-08T09:38:38.000Z</time>
      </trkpt>
      <trkpt lat="47.40275" lon="6.68717">
        <ele>502</ele>
        <time>2015-07-08T09:38:39.000Z</time>
      </trkpt>
      <trkpt lat="47.40278" lon="6.68718">
        <ele>502</ele>
        <time>2015-07-08T09:38:40.000Z</time>
      </trkpt>
      <trkpt lat="47.4028" lon="6.6872">
        <ele>502</ele>
        <time>2015-07-08T09:38:41.000Z</time>
      </trkpt>
      <trkpt lat="47.40284" lon="6.68721">
        <ele>502</ele>
        <time>2015-07-08T09:38:42.000Z</time>
      </trkpt>
      <trkpt lat="47.40288" lon="6.68723">
        <ele>502</ele>
        <time>2015-07-08T09:38:43.000Z</time>
      </trkpt>
      <trkpt lat="47.40292" lon="6.68725">
        <ele>501</ele>
        <time>2015-07-08T09:38:44.000Z</time>
      </trkpt>
      <trkpt lat="47.40296" lon="6.68726">
        <ele>501</ele>
        <time>2015-07-08T09:38:45.000Z</time>
      </trkpt>
      <trkpt lat="47.403" lon="6.68728">
        <ele>501</ele>
        <time>2015-07-08T09:38:46.000Z</time>
      </trkpt>
      <trkpt lat="47.40304" lon="6.6873">
        <ele>501</ele>
        <time>2015-07-08T09:38:47.000Z</time>
      </trkpt>
      <trkpt lat="47.40309" lon="6.68732">
        <ele>501</ele>
        <time>2015-07-08T09:38:48.000Z</time>
      </trkpt>
      <trkpt lat="47.40314" lon="6.68734">
        <ele>501</ele>
        <time>2015-07-08T09:38:49.000Z</time>
      </trkpt>
      <trkpt lat="47.40319" lon="6.68736">
        <ele>501</ele>
        <time>2015-07-08T09:38:50.000Z</time>
      </trkpt>
      <trkpt lat="47.40324" lon="6.68739">
        <ele>500</ele>
        <time>2015-07-08T09:38:51.000Z</time>
      </trkpt>
      <trkpt lat="47.40329" lon="6.68741">
        <ele>500</ele>
        <time>2015-07-08T09:38:52.000Z</time>
      </trkpt>
      <trkpt lat="47.40335" lon="6.68743">
        <ele>500</ele>
        <time>2015-07-08T09:38:53.000Z</time>
      </trkpt>
      <trkpt lat="47.40341" lon="6.68745">
        <ele>500</ele>
        <time>2015-07-08T09:38:54.000Z</time>
      </trkpt>
      <trkpt lat="47.40347" lon="6.68747">
        <ele>500</ele>
        <time>2015-07-08T09:38:55.000Z</time>
      </trkpt>
      <trkpt lat="47.40353" lon="6.68749">
        <ele>499</ele>
        <time>2015-07-08T09:38:56.000Z</time>
      </trkpt>
      <trkpt lat="47.40359" lon="6.68752">
        <ele>499</ele>
        <time>2015-07-08T09:38:57.000Z</time>
      </trkpt>
      <trkpt lat="47.40366" lon="6.68755">
        <ele>499</ele>
        <time>2015-07-08T09:38:58.000Z</time>
      </trkpt>
      <trkpt lat="47.40373" lon="6.68757">
        <ele>498</ele>
        <time>2015-07-08T09:38:59.000Z</time>
      </trkpt>
      <trkpt lat="47.4038" lon="6.68759">
        <ele>498</ele>
        <time>2015-07-08T09:39:00.000Z</time>
      </trkpt>
      <trkpt lat="47.40387" lon="6.68762">
        <ele>497</ele>
        <time>2015-07-08T09:39:01.000Z</time>
      </trkpt>
      <trkpt lat="47.40395" lon="6.68765">
        <ele>497</ele>
        <time>2015-07-08T09:39:02.000Z</time>
      </trkpt>
      <trkpt lat="47.40403" lon="6.68767">
        <ele>496</ele>
        <time>2015-07-08T09:39:03.000Z</time>
      </trkpt>
      <trkpt lat="47.40411" lon="6.6877">
        <ele>495</ele>
        <time>2015-07-08T09:39:04.000Z</time>
      </trkpt>
      <trkpt lat="47.40419" lon="6.68773">
        <ele>494</ele>
        <time>2015-07-08T09:39:05.000Z</time>
      </trkpt>
      <trkpt lat="47.40428" lon="6.68777">
        <ele>494</ele>
        <time>2015-07-08T09:39:06.000Z</time>
      </trkpt>
      <trkpt lat="47.40436" lon="6.68782">
        <ele>493</ele>
        <time>2015-07-08T09:39:07.000Z</time>
      </trkpt>
      <trkpt lat="47.40445" lon="6.68788">
        <ele>492</ele>
        <time>2015-07-08T09:39:08.000Z</time>
      </trkpt>
      <trkpt lat="47.40453" lon="6.68794">
        <ele>491</ele>
        <time>2015-07-08T09:39:09.000Z</time>
      </trkpt>
      <trkpt lat="47.40462" lon="6.68801">
        <ele>490</ele>
        <time>2015-07-08T09:39:10.000Z</time>
      </trkpt>
      <trkpt lat="47.40471" lon="6.68809">
        <ele>489</ele>
        <time>2015-07-08T09:39:11.000Z</time>
      </trkpt>
      <trkpt lat="47.40481" lon="6.68818">
        <ele>488</ele>
        <time>2015-07-08T09:39:12.000Z</time>
      </trkpt>
      <trkpt lat="47.4049" lon="6.68827">
        <ele>486</ele>
        <time>2015-07-08T09:39:13.000Z</time>
      </trkpt>
      <trkpt lat="47.40499" lon="6.68836">
        <ele>485</ele>
        <time>2015-07-08T09:39:14.000Z</time>
      </trkpt>
      <trkpt lat="47.40509" lon="6.68846">
        <ele>484</ele>
        <time>2015-07-08T09:39:15.000Z</time>
      </trkpt>
      <trkpt lat="47.40519" lon="6.68856">
        <ele>482</ele>
        <time>2015-07-08T09:39:16.000Z</time>
      </trkpt>
      <trkpt lat="47.40529" lon="6.68867">
        <ele>481</ele>
        <time>2015-07-08T09:39:17.000Z</time>
      </trkpt>
      <trkpt lat="47.40539" lon="6.68878">
        <ele>480</ele>
        <time>2015-07-08T09:39:18.000Z</time>
      </trkpt>
      <trkpt lat="47.40548" lon="6.68891">
        <ele>479</ele>
        <time>2015-07-08T09:39:19.000Z</time>
      </trkpt>
      <trkpt lat="47.40557" lon="6.68904">
        <ele>478</ele>
        <time>2015-07-08T09:39:20.000Z</time>
      </trkpt>
      <trkpt lat="47.40566" lon="6.6892">
        <ele>477</ele>
        <time>2015-07-08T09:39:21.000Z</time>
      </trkpt>
      <trkpt lat="47.40574" lon="6.68935">
        <ele>476</ele>
        <time>2015-07-08T09:39:22.000Z</time>
      </trkpt>
      <trkpt lat="47.40582" lon="6.68951">
        <ele>475</ele>
        <time>2015-07-08T09:39:23.000Z</time>
      </trkpt>
      <trkpt lat="47.4059" lon="6.68967">
        <ele>474</ele>
        <time>2015-07-08T09:39:24.000Z</time>
      </trkpt>
      <trkpt lat="47.40598" lon="6.68982">
        <ele>473</ele>
        <time>2015-07-08T09:39:25.000Z</time>
      </trkpt>
      <trkpt lat="47.40605" lon="6.68997">
        <ele>472</ele>
        <time>2015-07-08T09:39:26.000Z</time>
      </trkpt>
      <trkpt lat="47.40613" lon="6.69013">
        <ele>472</ele>
        <time>2015-07-08T09:39:27.000Z</time>
      </trkpt>
      <trkpt lat="47.40621" lon="6.69029">
        <ele>471</ele>
        <time>2015-07-08T09:39:28.000Z</time>
      </trkpt>
      <trkpt lat="47.40629" lon="6.69044">
        <ele>471</ele>
        <time>2015-07-08T09:39:29.000Z</time>
      </trkpt>
      <trkpt lat="47.40637" lon="6.6906">
        <ele>470</ele>
        <time>2015-07-08T09:39:30.000Z</time>
      </trkpt>
      <trkpt lat="47.40644" lon="6.69076">
        <ele>470</ele>
        <time>2015-07-08T09:39:31.000Z</time>
      </trkpt>
      <trkpt lat="47.40652" lon="6.69092">
        <ele>469</ele>
        <time>2015-07-08T09:39:32.000Z</time>
      </trkpt>
      <trkpt lat="47.40659" lon="6.69107">
        <ele>468</ele>
        <time>2015-07-08T09:39:33.000Z</time>
      </trkpt>
      <trkpt lat="47.40666" lon="6.69119">
        <ele>467</ele>
        <time>2015-07-08T09:39:34.000Z</time>
      </trkpt>
      <trkpt lat="47.40674" lon="6.6913">
        <ele>467</ele>
        <time>2015-07-08T09:39:35.000Z</time>
      </trkpt>
      <trkpt lat="47.40682" lon="6.69139">
        <ele>466</ele>
        <time>2015-07-08T09:39:36.000Z</time>
      </trkpt>
      <trkpt lat="47.40691" lon="6.69145">
        <ele>465</ele>
        <time>2015-07-08T09:39:37.000Z</time>
      </trkpt>
      <trkpt lat="47.40701" lon="6.69147">
        <ele>465</ele>
        <time>2015-07-08T09:39:38.000Z</time>
      </trkpt>
      <trkpt lat="47.40712" lon="6.69144">
        <ele>464</ele>
        <time>2015-07-08T09:39:39.000Z</time>
      </trkpt>
      <trkpt lat="47.40724" lon="6.69139">
        <ele>464</ele>
        <time>2015-07-08T09:39:40.000Z</time>
      </trkpt>
      <trkpt lat="47.40735" lon="6.69133">
        <ele>464</ele>
        <time>2015-07-08T09:39:41.000Z</time>
      </trkpt>
      <trkpt lat="47.40746" lon="6.69126">
        <ele>464</ele>
        <time>2015-07-08T09:39:42.000Z</time>
      </trkpt>
      <trkpt lat="47.40757" lon="6.69119">
        <ele>464</ele>
        <time>2015-07-08T09:39:43.000Z</time>
      </trkpt>
      <trkpt lat="47.40768" lon="6.69113">
        <ele>464</ele>
        <time>2015-07-08T09:39:44.000Z</time>
      </trkpt>
      <trkpt lat="47.40778" lon="6.69106">
        <ele>463</ele>
        <time>2015-07-08T09:39:45.000Z</time>
      </trkpt>
      <trkpt lat="47.40789" lon="6.69099">
        <ele>463</ele>
        <time>2015-07-08T09:39:46.000Z</time>
      </trkpt>
      <trkpt lat="47.408" lon="6.69092">
        <ele>463</ele>
        <time>2015-07-08T09:39:47.000Z</time>
      </trkpt>
      <trkpt lat="47.4081" lon="6.69086">
        <ele>463</ele>
        <time>2015-07-08T09:39:48.000Z</time>
      </trkpt>
      <trkpt lat="47.40821" lon="6.69079">
        <ele>463</ele>
        <time>2015-07-08T09:39:49.000Z</time>
      </trkpt>
      <trkpt lat="47.40831" lon="6.69072">
        <ele>463</ele>
        <time>2015-07-08T09:39:50.000Z</time>
      </trkpt>
      <trkpt lat="47.40842" lon="6.69066">
        <ele>463</ele>
        <time>2015-07-08T09:39:51.000Z</time>
      </trkpt>
      <trkpt lat="47.40852" lon="6.6906">
        <ele>463</ele>
        <time>2015-07-08T09:39:52.000Z</time>
      </trkpt>
      <trkpt lat="47.40862" lon="6.69054">
        <ele>463</ele>
        <time>2015-07-08T09:39:53.000Z</time>
      </trkpt>
      <trkpt lat="47.40872" lon="6.69049">
        <ele>463</ele>
        <time>2015-07-08T09:39:54.000Z</time>
      </trkpt>
      <trkpt lat="47.40882" lon="6.69045">
        <ele>463</ele>
        <time>2015-07-08T09:39:55.000Z</time>
      </trkpt>
      <trkpt lat="47.40892" lon="6.69041">
        <ele>463</ele>
        <time>2015-07-08T09:39:56.000Z</time>
      </trkpt>
      <trkpt lat="47.40903" lon="6.69038">
        <ele>464</ele>
        <time>2015-07-08T09:39:57.000Z</time>
      </trkpt>
      <trkpt lat="47.40914" lon="6.69034">
        <ele>464</ele>
        <time>2015-07-08T09:39:58.000Z</time>
      </trkpt>
      <trkpt lat="47.40925" lon="6.69029">
        <ele>464</ele>
        <time>2015-07-08T09:39:59.000Z</time>
      </trkpt>
      <trkpt lat="47.40936" lon="6.69025">
        <ele>465</ele>
        <time>2015-07-08T09:40:00.000Z</time>
      </trkpt>
      <trkpt lat="47.40947" lon="6.6902">
        <ele>465</ele>
        <time>2015-07-08T09:40:01.000Z</time>
      </trkpt>
      <trkpt lat="47.40958" lon="6.69015">
        <ele>465</ele>
        <time>2015-07-08T09:40:02.000Z</time>
      </trkpt>
      <trkpt lat="47.4097" lon="6.69011">
        <ele>465</ele>
        <time>2015-07-08T09:40:03.000Z</time>
      </trkpt>
      <trkpt lat="47.40982" lon="6.69006">
        <ele>464</ele>
        <time>2015-07-08T09:40:04.000Z</time>
      </trkpt>
      <trkpt lat="47.40994" lon="6.69002">
        <ele>464</ele>
        <time>2015-07-08T09:40:05.000Z</time>
      </trkpt>
      <trkpt lat="47.41007" lon="6.68998">
        <ele>463</ele>
        <time>2015-07-08T09:40:06.000Z</time>
      </trkpt>
      <trkpt lat="47.41019" lon="6.68993">
        <ele>462</ele>
        <time>2015-07-08T09:40:07.000Z</time>
      </trkpt>
      <trkpt lat="47.41031" lon="6.68989">
        <ele>462</ele>
        <time>2015-07-08T09:40:08.000Z</time>
      </trkpt>
      <trkpt lat="47.41043" lon="6.68985">
        <ele>461</ele>
        <time>2015-07-08T09:40:09.000Z</time>
      </trkpt>
      <trkpt lat="47.41056" lon="6.6898">
        <ele>460</ele>
        <time>2015-07-08T09:40:10.000Z</time>
      </trkpt>
      <trkpt lat="47.41068" lon="6.68975">
        <ele>459</ele>
        <time>2015-07-08T09:40:11.000Z</time>
      </trkpt>
      <trkpt lat="47.4108" lon="6.68968">
        <ele>458</ele>
        <time>2015-07-08T09:40:12.000Z</time>
      </trkpt>
      <trkpt lat="47.41092" lon="6.68961">
        <ele>457</ele>
        <time>2015-07-08T09:40:13.000Z</time>
      </trkpt>
      <trkpt lat="47.41103" lon="6.68953">
        <ele>456</ele>
        <time>2015-07-08T09:40:14.000Z</time>
      </trkpt>
      <trkpt lat="47.41115" lon="6.68945">
        <ele>455</ele>
        <time>2015-07-08T09:40:15.000Z</time>
      </trkpt>
      <trkpt lat="47.41126" lon="6.68935">
        <ele>454</ele>
        <time>2015-07-08T09:40:16.000Z</time>
      </trkpt>
      <trkpt lat="47.41136" lon="6.68924">
        <ele>453</ele>
        <time>2015-07-08T09:40:17.000Z</time>
      </trkpt>
      <trkpt lat="47.41144" lon="6.6891">
        <ele>451</ele>
        <time>2015-07-08T09:40:18.000Z</time>
      </trkpt>
      <trkpt lat="47.41149" lon="6.68895">
        <ele>450</ele>
        <time>2015-07-08T09:40:19.000Z</time>
      </trkpt>
      <trkpt lat="47.41151" lon="6.68878">
        <ele>449</ele>
        <time>2015-07-08T09:40:20.000Z</time>
      </trkpt>
      <trkpt lat="47.41152" lon="6.68861">
        <ele>448</ele>
        <time>2015-07-08T09:40:21.000Z</time>
      </trkpt>
      <trkpt lat="47.41155" lon="6.68844">
        <ele>446</ele>
        <time>2015-07-08T09:40:22.000Z</time>
      </trkpt>
      <trkpt lat="47.41159" lon="6.68827">
        <ele>445</ele>
        <time>2015-07-08T09:40:23.000Z</time>
      </trkpt>
      <trkpt lat="47.41165" lon="6.68813">
        <ele>444</ele>
        <time>2015-07-08T09:40:24.000Z</time>
      </trkpt>
      <trkpt lat="47.41173" lon="6.688">
        <ele>443</ele>
        <time>2015-07-08T09:40:25.000Z</time>
      </trkpt>
      <trkpt lat="47.41183" lon="6.68789">
        <ele>442</ele>
        <time>2015-07-08T09:40:26.000Z</time>
      </trkpt>
      <trkpt lat="47.41193" lon="6.68778">
        <ele>441</ele>
        <time>2015-07-08T09:40:27.000Z</time>
      </trkpt>
      <trkpt lat="47.41203" lon="6.68768">
        <ele>440</ele>
        <time>2015-07-08T09:40:28.000Z</time>
      </trkpt>
      <trkpt lat="47.41214" lon="6.68757">
        <ele>439</ele>
        <time>2015-07-08T09:40:29.000Z</time>
      </trkpt>
      <trkpt lat="47.41225" lon="6.68746">
        <ele>438</ele>
        <time>2015-07-08T09:40:30.000Z</time>
      </trkpt>
      <trkpt lat="47.41235" lon="6.68735">
        <ele>436</ele>
        <time>2015-07-08T09:40:31.000Z</time>
      </trkpt>
      <trkpt lat="47.41246" lon="6.68724">
        <ele>435</ele>
        <time>2015-07-08T09:40:32.000Z</time>
      </trkpt>
      <trkpt lat="47.41256" lon="6.68714">
        <ele>435</ele>
        <time>2015-07-08T09:40:33.000Z</time>
      </trkpt>
      <trkpt lat="47.41266" lon="6.68706">
        <ele>434</ele>
        <time>2015-07-08T09:40:34.000Z</time>
      </trkpt>
      <trkpt lat="47.41276" lon="6.68704">
        <ele>433</ele>
        <time>2015-07-08T09:40:35.000Z</time>
      </trkpt>
      <trkpt lat="47.41286" lon="6.68706">
        <ele>432</ele>
        <time>2015-07-08T09:40:36.000Z</time>
      </trkpt>
      <trkpt lat="47.41295" lon="6.68714">
        <ele>431</ele>
        <time>2015-07-08T09:40:37.000Z</time>
      </trkpt>
      <trkpt lat="47.41302" lon="6.68725">
        <ele>430</ele>
        <time>2015-07-08T09:40:38.000Z</time>
      </trkpt>
      <trkpt lat="47.41308" lon="6.68738">
        <ele>429</ele>
        <time>2015-07-08T09:40:39.000Z</time>
      </trkpt>
      <trkpt lat="47.41313" lon="6.68753">
        <ele>428</ele>
        <time>2015-07-08T09:40:40.000Z</time>
      </trkpt>
      <trkpt lat="47.41318" lon="6.68767">
        <ele>427</ele>
        <time>2015-07-08T09:40:41.000Z</time>
      </trkpt>
      <trkpt lat="47.41324" lon="6.68782">
        <ele>427</ele>
        <time>2015-07-08T09:40:42.000Z</time>
      </trkpt>
      <trkpt lat="47.41331" lon="6.68796">
        <ele>426</ele>
        <time>2015-07-08T09:40:43.000Z</time>
      </trkpt>
      <trkpt lat="47.41339" lon="6.68807">
        <ele>426</ele>
        <time>2015-07-08T09:40:44.000Z</time>
      </trkpt>
      <trkpt lat="47.41349" lon="6.68816">
        <ele>425</ele>
        <time>2015-07-08T09:40:45.000Z</time>
      </trkpt>
      <trkpt lat="47.4136" lon="6.68821">
        <ele>425</ele>
        <time>2015-07-08T09:40:46.000Z</time>
      </trkpt>
      <trkpt lat="47.41372" lon="6.68825">
        <ele>424</ele>
        <time>2015-07-08T09:40:47.000Z</time>
      </trkpt>
      <trkpt lat="47.41383" lon="6.68829">
        <ele>424</ele>
        <time>2015-07-08T09:40:48.000Z</time>
      </trkpt>
      <trkpt lat="47.41395" lon="6.68832">
        <ele>423</ele>
        <time>2015-07-08T09:40:49.000Z</time>
      </trkpt>
      <trkpt lat="47.41407" lon="6.68835">
        <ele>422</ele>
        <time>2015-07-08T09:40:50.000Z</time>
      </trkpt>
      <trkpt lat="47.41419" lon="6.68836">
        <ele>422</ele>
        <time>2015-07-08T09:40:51.000Z</time>
      </trkpt>
      <trkpt lat="47.41431" lon="6.68834">
        <ele>421</ele>
        <time>2015-07-08T09:40:52.000Z</time>
      </trkpt>
      <trkpt lat="47.41442" lon="6.68828">
        <ele>420</ele>
        <time>2015-07-08T09:40:53.000Z</time>
      </trkpt>
      <trkpt lat="47.41452" lon="6.68818">
        <ele>419</ele>
        <time>2015-07-08T09:40:54.000Z</time>
      </trkpt>
      <trkpt lat="47.4146" lon="6.68804">
        <ele>418</ele>
        <time>2015-07-08T09:40:55.000Z</time>
      </trkpt>
      <trkpt lat="47.41466" lon="6.68788">
        <ele>418</ele>
        <time>2015-07-08T09:40:56.000Z</time>
      </trkpt>
      <trkpt lat="47.41472" lon="6.68773">
        <ele>417</ele>
        <time>2015-07-08T09:40:57.000Z</time>
      </trkpt>
      <trkpt lat="47.4148" lon="6.6876">
        <ele>416</ele>
        <time>2015-07-08T09:40:58.000Z</time>
      </trkpt>
      <trkpt lat="47.41489" lon="6.68752">
        <ele>415</ele>
        <time>2015-07-08T09:40:59.000Z</time>
      </trkpt>
      <trkpt lat="47.41499" lon="6.68749">
        <ele>415</ele>
        <time>2015-07-08T09:41:00.000Z</time>
      </trkpt>
      <trkpt lat="47.41509" lon="6.6875">
        <ele>415</ele>
        <time>2015-07-08T09:41:01.000Z</time>
      </trkpt>
      <trkpt lat="47.4152" lon="6.68753">
        <ele>414</ele>
        <time>2015-07-08T09:41:02.000Z</time>
      </trkpt>
      <trkpt lat="47.41531" lon="6.68755">
        <ele>414</ele>
        <time>2015-07-08T09:41:03.000Z</time>
      </trkpt>
      <trkpt lat="47.41542" lon="6.68757">
        <ele>413</ele>
        <time>2015-07-08T09:41:04.000Z</time>
      </trkpt>
      <trkpt lat="47.41553" lon="6.68759">
        <ele>412</ele>
        <time>2015-07-08T09:41:05.000Z</time>
      </trkpt>
      <trkpt lat="47.41565" lon="6.68762">
        <ele>412</ele>
        <time>2015-07-08T09:41:06.000Z</time>
      </trkpt>
      <trkpt lat="47.41576" lon="6.68766">
        <ele>411</ele>
        <time>2015-07-08T09:41:07.000Z</time>
      </trkpt>
      <trkpt lat="47.41588" lon="6.68769">
        <ele>411</ele>
        <time>2015-07-08T09:41:08.000Z</time>
      </trkpt>
      <trkpt lat="47.416" lon="6.68773">
        <ele>411</ele>
        <time>2015-07-08T09:41:09.000Z</time>
      </trkpt>
      <trkpt lat="47.41612" lon="6.68777">
        <ele>410</ele>
        <time>2015-07-08T09:41:10.000Z</time>
      </trkpt>
      <trkpt lat="47.41624" lon="6.68779">
        <ele>410</ele>
        <time>2015-07-08T09:41:11.000Z</time>
      </trkpt>
      <trkpt lat="47.41636" lon="6.68779">
        <ele>410</ele>
        <time>2015-07-08T09:41:12.000Z</time>
      </trkpt>
      <trkpt lat="47.41648" lon="6.68779">
        <ele>410</ele>
        <time>2015-07-08T09:41:13.000Z</time>
      </trkpt>
      <trkpt lat="47.41661" lon="6.68778">
        <ele>409</ele>
        <time>2015-07-08T09:41:14.000Z</time>
      </trkpt>
      <trkpt lat="47.41673" lon="6.68778">
        <ele>409</ele>
        <time>2015-07-08T09:41:15.000Z</time>
      </trkpt>
      <trkpt lat="47.41686" lon="6.68779">
        <ele>409</ele>
        <time>2015-07-08T09:41:16.000Z</time>
      </trkpt>
      <trkpt lat="47.41699" lon="6.6878">
        <ele>409</ele>
        <time>2015-07-08T09:41:17.000Z</time>
      </trkpt>
      <trkpt lat="47.41712" lon="6.68782">
        <ele>409</ele>
        <time>2015-07-08T09:41:18.000Z</time>
      </trkpt>
      <trkpt lat="47.41725" lon="6.68782">
        <ele>409</ele>
        <time>2015-07-08T09:41:19.000Z</time>
      </trkpt>
      <trkpt lat="47.41739" lon="6.68779">
        <ele>409</ele>
        <time>2015-07-08T09:41:20.000Z</time>
      </trkpt>
      <trkpt lat="47.41752" lon="6.68775">
        <ele>408</ele>
        <time>2015-07-08T09:41:21.000Z</time>
      </trkpt>
      <trkpt lat="47.41764" lon="6.68772">
        <ele>408</ele>
        <time>2015-07-08T09:41:22.000Z</time>
      </trkpt>
      <trkpt lat="47.41777" lon="6.68771">
        <ele>408</ele>
        <time>2015-07-08T09:41:23.000Z</time>
      </trkpt>
      <trkpt lat="47.4179" lon="6.68772">
        <ele>407</ele>
        <time>2015-07-08T09:41:24.000Z</time>
      </trkpt>
      <trkpt lat="47.41803" lon="6.68773">
        <ele>407</ele>
        <time>2015-07-08T09:41:25.000Z</time>
      </trkpt>
      <trkpt lat="47.41816" lon="6.68776">
        <ele>407</ele>
        <time>2015-07-08T09:41:26.000Z</time>
      </trkpt>
      <trkpt lat="47.4183" lon="6.68778">
        <ele>406</ele>
        <time>2015-07-08T09:41:27.000Z</time>
      </trkpt>
      <trkpt lat="47.41844" lon="6.6878">
        <ele>405</ele>
        <time>2015-07-08T09:41:28.000Z</time>
      </trkpt>
      <trkpt lat="47.41857" lon="6.68783">
        <ele>405</ele>
        <time>2015-07-08T09:41:29.000Z</time>
      </trkpt>
      <trkpt lat="47.41871" lon="6.68785">
        <ele>404</ele>
        <time>2015-07-08T09:41:30.000Z</time>
      </trkpt>
      <trkpt lat="47.41885" lon="6.68788">
        <ele>403</ele>
        <time>2015-07-08T09:41:31.000Z</time>
      </trkpt>
      <trkpt lat="47.41899" lon="6.68791">
        <ele>402</ele>
        <time>2015-07-08T09:41:32.000Z</time>
      </trkpt>
      <trkpt lat="47.41913" lon="6.68795">
        <ele>402</ele>
        <time>2015-07-08T09:41:33.000Z</time>
      </trkpt>
      <trkpt lat="47.41927" lon="6.68801">
        <ele>401</ele>
        <time>2015-07-08T09:41:34.000Z</time>
      </trkpt>
      <trkpt lat="47.4194" lon="6.68808">
        <ele>400</ele>
        <time>2015-07-08T09:41:35.000Z</time>
      </trkpt>
      <trkpt lat="47.41953" lon="6.68815">
        <ele>399</ele>
        <time>2015-07-08T09:41:36.000Z</time>
      </trkpt>
      <trkpt lat="47.41966" lon="6.68824">
        <ele>397</ele>
        <time>2015-07-08T09:41:37.000Z</time>
      </trkpt>
      <trkpt lat="47.41979" lon="6.68831">
        <ele>395</ele>
        <time>2015-07-08T09:41:38.000Z</time>
      </trkpt>
      <trkpt lat="47.41992" lon="6.68837">
        <ele>394</ele>
        <time>2015-07-08T09:41:39.000Z</time>
      </trkpt>
      <trkpt lat="47.42005" lon="6.68842">
        <ele>392</ele>
        <time>2015-07-08T09:41:40.000Z</time>
      </trkpt>
      <trkpt lat="47.42018" lon="6.68844">
        <ele>390</ele>
        <time>2015-07-08T09:41:41.000Z</time>
      </trkpt>
      <trkpt lat="47.42032" lon="6.68842">
        <ele>389</ele>
        <time>2015-07-08T09:41:42.000Z</time>
      </trkpt>
      <trkpt lat="47.42045" lon="6.68839">
        <ele>387</ele>
        <time>2015-07-08T09:41:43.000Z</time>
      </trkpt>
      <trkpt lat="47.42058" lon="6.68836">
        <ele>386</ele>
        <time>2015-07-08T09:41:44.000Z</time>
      </trkpt>
      <trkpt lat="47.42072" lon="6.68835">
        <ele>384</ele>
        <time>2015-07-08T09:41:45.000Z</time>
      </trkpt>
      <trkpt lat="47.42086" lon="6.68836">
        <ele>383</ele>
        <time>2015-07-08T09:41:46.000Z</time>
      </trkpt>
      <trkpt lat="47.42101" lon="6.68836">
        <ele>381</ele>
        <time>2015-07-08T09:41:47.000Z</time>
      </trkpt>
      <trkpt lat="47.42115" lon="6.68834">
        <ele>380</ele>
        <time>2015-07-08T09:41:48.000Z</time>
      </trkpt>
      <trkpt lat="47.42128" lon="6.68829">
        <ele>378</ele>
        <time>2015-07-08T09:41:49.000Z</time>
      </trkpt>
      <trkpt lat="47.42142" lon="6.68825">
        <ele>376</ele>
        <time>2015-07-08T09:41:50.000Z</time>
      </trkpt>
      <trkpt lat="47.42156" lon="6.68823">
        <ele>375</ele>
        <time>2015-07-08T09:41:51.000Z</time>
      </trkpt>
      <trkpt lat="47.4217" lon="6.68821">
        <ele>373</ele>
        <time>2015-07-08T09:41:52.000Z</time>
      </trkpt>
      <trkpt lat="47.42183" lon="6.68821">
        <ele>372</ele>
        <time>2015-07-08T09:41:53.000Z</time>
      </trkpt>
      <trkpt lat="47.42196" lon="6.68825">
        <ele>370</ele>
        <time>2015-07-08T09:41:54.000Z</time>
      </trkpt>
      <trkpt lat="47.42208" lon="6.68832">
        <ele>369</ele>
        <time>2015-07-08T09:41:55.000Z</time>
      </trkpt>
      <trkpt lat="47.4222" lon="6.6884">
        <ele>368</ele>
        <time>2015-07-08T09:41:56.000Z</time>
      </trkpt>
      <trkpt lat="47.42232" lon="6.68851">
        <ele>367</ele>
        <time>2015-07-08T09:41:57.000Z</time>
      </trkpt>
      <trkpt lat="47.42244" lon="6.68861">
        <ele>366</ele>
        <time>2015-07-08T09:41:58.000Z</time>
      </trkpt>
      <trkpt lat="47.42256" lon="6.68872">
        <ele>365</ele>
        <time>2015-07-08T09:41:59.000Z</time>
      </trkpt>
      <trkpt lat="47.42268" lon="6.68883">
        <ele>364</ele>
        <time>2015-07-08T09:42:00.000Z</time>
      </trkpt>
      <trkpt lat="47.4228" lon="6.68894">
        <ele>363</ele>
        <time>2015-07-08T09:42:01.000Z</time>
      </trkpt>
      <trkpt lat="47.42291" lon="6.68906">
        <ele>362</ele>
        <time>2015-07-08T09:42:02.000Z</time>
      </trkpt>
      <trkpt lat="47.42303" lon="6.68919">
        <ele>361</ele>
        <time>2015-07-08T09:42:03.000Z</time>
      </trkpt>
      <trkpt lat="47.42314" lon="6.68933">
        <ele>360</ele>
        <time>2015-07-08T09:42:04.000Z</time>
      </trkpt>
      <trkpt lat="47.42324" lon="6.68947">
        <ele>359</ele>
        <time>2015-07-08T09:42:05.000Z</time>
      </trkpt>
      <trkpt lat="47.42334" lon="6.68963">
        <ele>357</ele>
        <time>2015-07-08T09:42:06.000Z</time>
      </trkpt>
      <trkpt lat="47.42344" lon="6.68978">
        <ele>356</ele>
        <time>2015-07-08T09:42:07.000Z</time>
      </trkpt>
      <trkpt lat="47.42354" lon="6.68992">
        <ele>355</ele>
        <time>2015-07-08T09:42:08.000Z</time>
      </trkpt>
      <trkpt lat="47.42363" lon="6.69005">
        <ele>354</ele>
        <time>2015-07-08T09:42:09.000Z</time>
      </trkpt>
      <trkpt lat="47.42372" lon="6.69017">
        <ele>353</ele>
        <time>2015-07-08T09:42:10.000Z</time>
      </trkpt>
      <trkpt lat="47.42381" lon="6.69025">
        <ele>352</ele>
        <time>2015-07-08T09:42:11.000Z</time>
      </trkpt>
      <trkpt lat="47.42391" lon="6.69031">
        <ele>351</ele>
        <time>2015-07-08T09:42:12.000Z</time>
      </trkpt>
      <trkpt lat="47.42401" lon="6.69035">
        <ele>350</ele>
        <time>2015-07-08T09:42:13.000Z</time>
      </trkpt>
      <trkpt lat="47.4241" lon="6.69035">
        <ele>350</ele>
        <time>2015-07-08T09:42:14.000Z</time>
      </trkpt>
      <trkpt lat="47.42418" lon="6.69034">
        <ele>349</ele>
        <time>2015-07-08T09:42:15.000Z</time>
      </trkpt>
      <trkpt lat="47.42427" lon="6.69032">
        <ele>349</ele>
        <time>2015-07-08T09:42:16.000Z</time>
      </trkpt>
      <trkpt lat="47.42435" lon="6.69031">
        <ele>348</ele>
        <time>2015-07-08T09:42:17.000Z</time>
      </trkpt>
      <trkpt lat="47.42442" lon="6.6903">
        <ele>348</ele>
        <time>2015-07-08T09:42:18.000Z</time>
      </trkpt>
      <trkpt lat="47.42448" lon="6.6903">
        <ele>348</ele>
        <time>2015-07-08T09:42:19.000Z</time>
      </trkpt>
      <trkpt lat="47.42454" lon="6.69031">
        <ele>348</ele>
        <time>2015-07-08T09:42:20.000Z</time>
      </trkpt>
      <trkpt lat="47.42458" lon="6.69031">
        <ele>348</ele>
        <time>2015-07-08T09:42:21.000Z</time>
      </trkpt>
      <trkpt lat="47.42461" lon="6.69033">
        <ele>348</ele>
        <time>2015-07-08T09:42:22.000Z</time>
      </trkpt>
      <trkpt lat="47.42463" lon="6.69034">
        <ele>348</ele>
        <time>2015-07-08T09:42:23.000Z</time>
      </trkpt>
      <trkpt lat="47.42463" lon="6.69034">
        <ele>348</ele>
        <time>2015-07-08T09:42:24.000Z</time>
      </trkpt>
      <trkpt lat="47.42464" lon="6.69034">
        <ele>348</ele>
        <time>2015-07-08T09:42:25.000Z</time>
      </trkpt>
      <trkpt lat="47.42465" lon="6.69035">
        <ele>348</ele>
        <time>2015-07-08T09:42:26.000Z</time>
      </trkpt>
      <trkpt lat="47.42467" lon="6.69036">
        <ele>349</ele>
        <time>2015-07-08T09:42:27.000Z</time>
      </trkpt>
      <trkpt lat="47.42468" lon="6.69035">
        <ele>349</ele>
        <time>2015-07-08T09:42:28.000Z</time>
      </trkpt>
      <trkpt lat="47.42469" lon="6.69033">
        <ele>349</ele>
        <time>2015-07-08T09:42:29.000Z</time>
      </trkpt>
      <trkpt lat="47.4247" lon="6.69031">
        <ele>349</ele>
        <time>2015-07-08T09:42:30.000Z</time>
      </trkpt>
      <trkpt lat="47.4247" lon="6.69028">
        <ele>349</ele>
        <time>2015-07-08T09:42:31.000Z</time>
      </trkpt>
      <trkpt lat="47.42471" lon="6.69024">
        <ele>349</ele>
        <time>2015-07-08T09:42:32.000Z</time>
      </trkpt>
      <trkpt lat="47.42471" lon="6.6902">
        <ele>349</ele>
        <time>2015-07-08T09:42:33.000Z</time>
      </trkpt>
      <trkpt lat="47.42471" lon="6.69016">
        <ele>349</ele>
        <time>2015-07-08T09:42:34.000Z</time>
      </trkpt>
      <trkpt lat="47.42472" lon="6.69012">
        <ele>349</ele>
        <time>2015-07-08T09:42:35.000Z</time>
      </trkpt>
      <trkpt lat="47.42472" lon="6.69008">
        <ele>350</ele>
        <time>2015-07-08T09:42:36.000Z</time>
      </trkpt>
      <trkpt lat="47.42473" lon="6.69004">
        <ele>350</ele>
        <time>2015-07-08T09:42:37.000Z</time>
      </trkpt>
      <trkpt lat="47.42474" lon="6.68999">
        <ele>350</ele>
        <time>2015-07-08T09:42:38.000Z</time>
      </trkpt>
      <trkpt lat="47.42476" lon="6.68993">
        <ele>350</ele>
        <time>2015-07-08T09:42:39.000Z</time>
      </trkpt>
      <trkpt lat="47.42477" lon="6.68987">
        <ele>351</ele>
        <time>2015-07-08T09:42:40.000Z</time>
      </trkpt>
      <trkpt lat="47.42479" lon="6.6898">
        <ele>351</ele>
        <time>2015-07-08T09:42:41.000Z</time>
      </trkpt>
      <trkpt lat="47.4248" lon="6.68973">
        <ele>351</ele>
        <time>2015-07-08T09:42:42.000Z</time>
      </trkpt>
      <trkpt lat="47.42481" lon="6.68966">
        <ele>352</ele>
        <time>2015-07-08T09:42:43.000Z</time>
      </trkpt>
      <trkpt lat="47.42482" lon="6.68959">
        <ele>352</ele>
        <time>2015-07-08T09:42:44.000Z</time>
      </trkpt>
      <trkpt lat="47.42484" lon="6.68951">
        <ele>353</ele>
        <time>2015-07-08T09:42:45.000Z</time>
      </trkpt>
      <trkpt lat="47.42485" lon="6.68945">
        <ele>353</ele>
        <time>2015-07-08T09:42:46.000Z</time>
      </trkpt>
      <trkpt lat="47.42486" lon="6.68938">
        <ele>353</ele>
        <time>2015-07-08T09:42:47.000Z</time>
      </trkpt>
      <trkpt lat="47.42487" lon="6.68931">
        <ele>354</ele>
        <time>2015-07-08T09:42:48.000Z</time>
      </trkpt>
      <trkpt lat="47.42488" lon="6.68925">
        <ele>354</ele>
        <time>2015-07-08T09:42:49.000Z</time>
      </trkpt>
      <trkpt lat="47.42489" lon="6.6892">
        <ele>354</ele>
        <time>2015-07-08T09:42:50.000Z</time>
      </trkpt>
      <trkpt lat="47.4249" lon="6.68915">
        <ele>355</ele>
        <time>2015-07-08T09:42:51.000Z</time>
      </trkpt>
      <trkpt lat="47.42491" lon="6.6891">
        <ele>355</ele>
        <time>2015-07-08T09:42:52.000Z</time>
      </trkpt>
      <trkpt lat="47.42492" lon="6.68906">
        <ele>355</ele>
        <time>2015-07-08T09:42:53.000Z</time>
      </trkpt>
      <trkpt lat="47.42493" lon="6.68901">
        <ele>356</ele>
        <time>2015-07-08T09:42:54.000Z</time>
      </trkpt>
      <trkpt lat="47.42494" lon="6.68897">
        <ele>356</ele>
        <time>2015-07-08T09:42:55.000Z</time>
      </trkpt>
      <trkpt lat="47.42495" lon="6.68892">
        <ele>356</ele>
        <time>2015-07-08T09:42:56.000Z</time>
      </trkpt>
      <trkpt lat="47.42496" lon="6.68888">
        <ele>356</ele>
        <time>2015-07-08T09:42:57.000Z</time>
      </trkpt>
      <trkpt lat="47.42497" lon="6.68883">
        <ele>357</ele>
        <time>2015-07-08T09:42:58.000Z</time>
      </trkpt>
      <trkpt lat="47.42498" lon="6.68879">
        <ele>357</ele>
        <time>2015-07-08T09:42:59.000Z</time>
      </trkpt>
      <trkpt lat="47.42499" lon="6.68874">
        <ele>357</ele>
        <time>2015-07-08T09:43:00.000Z</time>
      </trkpt>
      <trkpt lat="47.425" lon="6.6887">
        <ele>357</ele>
        <time>2015-07-08T09:43:01.000Z</time>
      </trkpt>
      <trkpt lat="47.42501" lon="6.68866">
        <ele>357</ele>
        <time>2015-07-08T09:43:02.000Z</time>
      </trkpt>
      <trkpt lat="47.42502" lon="6.68862">
        <ele>358</ele>
        <time>2015-07-08T09:43:03.000Z</time>
      </trkpt>
      <trkpt lat="47.42503" lon="6.68858">
        <ele>358</ele>
        <time>2015-07-08T09:43:04.000Z</time>
      </trkpt>
      <trkpt lat="47.42504" lon="6.68854">
        <ele>358</ele>
        <time>2015-07-08T09:43:05.000Z</time>
      </trkpt>
      <trkpt lat="47.42504" lon="6.68851">
        <ele>358</ele>
        <time>2015-07-08T09:43:06.000Z</time>
      </trkpt>
      <trkpt lat="47.42505" lon="6.68847">
        <ele>358</ele>
        <time>2015-07-08T09:43:07.000Z</time>
      </trkpt>
      <trkpt lat="47.42506" lon="6.68843">
        <ele>359</ele>
        <time>2015-07-08T09:43:08.000Z</time>
      </trkpt>
      <trkpt lat="47.42506" lon="6.68839">
        <ele>359</ele>
        <time>2015-07-08T09:43:09.000Z</time>
      </trkpt>
      <trkpt lat="47.42507" lon="6.68834">
        <ele>359</ele>
        <time>2015-07-08T09:43:10.000Z</time>
      </trkpt>
      <trkpt lat="47.42508" lon="6.6883">
        <ele>359</ele>
        <time>2015-07-08T09:43:11.000Z</time>
      </trkpt>
      <trkpt lat="47.42509" lon="6.68826">
        <ele>359</ele>
        <time>2015-07-08T09:43:12.000Z</time>
      </trkpt>
      <trkpt lat="47.4251" lon="6.68821">
        <ele>359</ele>
        <time>2015-07-08T09:43:13.000Z</time>
      </trkpt>
      <trkpt lat="47.42511" lon="6.68816">
        <ele>360</ele>
        <time>2015-07-08T09:43:14.000Z</time>
      </trkpt>
      <trkpt lat="47.42512" lon="6.68812">
        <ele>360</ele>
        <time>2015-07-08T09:43:15.000Z</time>
      </trkpt>
      <trkpt lat="47.42513" lon="6.68807">
        <ele>360</ele>
        <time>2015-07-08T09:43:16.000Z</time>
      </trkpt>
      <trkpt lat="47.42513" lon="6.68802">
        <ele>360</ele>
        <time>2015-07-08T09:43:17.000Z</time>
      </trkpt>
      <trkpt lat="47.42514" lon="6.68796">
        <ele>360</ele>
        <time>2015-07-08T09:43:18.000Z</time>
      </trkpt>
      <trkpt lat="47.42515" lon="6.68791">
        <ele>361</ele>
        <time>2015-07-08T09:43:19.000Z</time>
      </trkpt>
      <trkpt lat="47.42516" lon="6.68785">
        <ele>361</ele>
        <time>2015-07-08T09:43:20.000Z</time>
      </trkpt>
      <trkpt lat="47.42516" lon="6.68778">
        <ele>361</ele>
        <time>2015-07-08T09:43:21.000Z</time>
      </trkpt>
      <trkpt lat="47.42516" lon="6.68772">
        <ele>361</ele>
        <time>2015-07-08T09:43:22.000Z</time>
      </trkpt>
      <trkpt lat="47.42516" lon="6.68765">
        <ele>362</ele>
        <time>2015-07-08T09:43:23.000Z</time>
      </trkpt>
      <trkpt lat="47.42515" lon="6.68759">
        <ele>362</ele>
        <time>2015-07-08T09:43:24.000Z</time>
      </trkpt>
      <trkpt lat="47.42514" lon="6.68752">
        <ele>362</ele>
        <time>2015-07-08T09:43:25.000Z</time>
      </trkpt>
      <trkpt lat="47.42513" lon="6.68746">
        <ele>362</ele>
        <time>2015-07-08T09:43:26.000Z</time>
      </trkpt>
      <trkpt lat="47.42511" lon="6.68739">
        <ele>363</ele>
        <time>2015-07-08T09:43:27.000Z</time>
      </trkpt>
      <trkpt lat="47.4251" lon="6.68733">
        <ele>363</ele>
        <time>2015-07-08T09:43:28.000Z</time>
      </trkpt>
      <trkpt lat="47.42508" lon="6.68727">
        <ele>363</ele>
        <time>2015-07-08T09:43:29.000Z</time>
      </trkpt>
      <trkpt lat="47.42506" lon="6.6872">
        <ele>363</ele>
        <time>2015-07-08T09:43:30.000Z</time>
      </trkpt>
      <trkpt lat="47.42505" lon="6.68715">
        <ele>363</ele>
        <time>2015-07-08T09:43:31.000Z</time>
      </trkpt>
      <trkpt lat="47.42503" lon="6.68708">
        <ele>364</ele>
        <time>2015-07-08T09:43:32.000Z</time>
      </trkpt>
      <trkpt lat="47.42502" lon="6.68703">
        <ele>364</ele>
        <time>2015-07-08T09:43:33.000Z</time>
      </trkpt>
      <trkpt lat="47.425" lon="6.68697">
        <ele>364</ele>
        <time>2015-07-08T09:43:34.000Z</time>
      </trkpt>
      <trkpt lat="47.42499" lon="6.68693">
        <ele>364</ele>
        <time>2015-07-08T09:43:35.000Z</time>
      </trkpt>
      <trkpt lat="47.42497" lon="6.68689">
        <ele>365</ele>
        <time>2015-07-08T09:43:36.000Z</time>
      </trkpt>
      <trkpt lat="47.42496" lon="6.68686">
        <ele>365</ele>
        <time>2015-07-08T09:43:37.000Z</time>
      </trkpt>
      <trkpt lat="47.42495" lon="6.68683">
        <ele>365</ele>
        <time>2015-07-08T09:43:38.000Z</time>
      </trkpt>
      <trkpt lat="47.42494" lon="6.68681">
        <ele>365</ele>
        <time>2015-07-08T09:43:39.000Z</time>
      </trkpt>
      <trkpt lat="47.42493" lon="6.68678">
        <ele>365</ele>
        <time>2015-07-08T09:43:40.000Z</time>
      </trkpt>
      <trkpt lat="47.42493" lon="6.68675">
        <ele>366</ele>
        <time>2015-07-08T09:43:41.000Z</time>
      </trkpt>
      <trkpt lat="47.42492" lon="6.68672">
        <ele>366</ele>
        <time>2015-07-08T09:43:42.000Z</time>
      </trkpt>
      <trkpt lat="47.42491" lon="6.68669">
        <ele>366</ele>
        <time>2015-07-08T09:43:43.000Z</time>
      </trkpt>
      <trkpt lat="47.4249" lon="6.68666">
        <ele>366</ele>
        <time>2015-07-08T09:43:44.000Z</time>
      </trkpt>
      <trkpt lat="47.42488" lon="6.68665">
        <ele>367</ele>
        <time>2015-07-08T09:43:45.000Z</time>
      </trkpt>
      <trkpt lat="47.42486" lon="6.68664">
        <ele>367</ele>
        <time>2015-07-08T09:43:46.000Z</time>
      </trkpt>
      <trkpt lat="47.42484" lon="6.68664">
        <ele>367</ele>
        <time>2015-07-08T09:43:47.000Z</time>
      </trkpt>
      <trkpt lat="47.42483" lon="6.68664">
        <ele>367</ele>
        <time>2015-07-08T09:43:48.000Z</time>
      </trkpt>
      <trkpt lat="47.42482" lon="6.68665">
        <ele>367</ele>
        <time>2015-07-08T09:43:49.000Z</time>
      </trkpt>
      <trkpt lat="47.42481" lon="6.68666">
        <ele>367</ele>
        <time>2015-07-08T09:43:50.000Z</time>
      </trkpt>
      <trkpt lat="47.4248" lon="6.68667">
        <ele>367</ele>
        <time>2015-07-08T09:43:51.000Z</time>
      </trkpt>
      <trkpt lat="47.4248" lon="6.68669">
        <ele>367</ele>
        <time>2015-07-08T09:43:52.000Z</time>
      </trkpt>
      <trkpt lat="47.42479" lon="6.6867">
        <ele>366</ele>
        <time>2015-07-08T09:43:53.000Z</time>
      </trkpt>
      <trkpt lat="47.42479" lon="6.6867">
        <ele>366</ele>
        <time>2015-07-08T09:43:54.000Z</time>
      </trkpt>
      <trkpt lat="47.42479" lon="6.6867">
        <ele>366</ele>
        <time>2015-07-08T09:43:55.000Z</time>
      </trkpt>
      <trkpt lat="47.42479" lon="6.6867">
        <ele>366</ele>
        <time>2015-07-08T09:43:56.000Z</time>
      </trkpt>
      <trkpt lat="47.42479" lon="6.6867">
        <ele>366</ele>
        <time>2015-07-08T09:43:57.000Z</time>
      </trkpt>
      <trkpt lat="47.42479" lon="6.6867">
        <ele>366</ele>
        <time>2015-07-08T09:43:58.000Z</time>
      </trkpt>
      <trkpt lat="47.42479" lon="6.68669">
        <ele>366</ele>
        <time>2015-07-08T09:43:59.000Z</time>
      </trkpt>
      <trkpt lat="47.42479" lon="6.68669">
        <ele>366</ele>
        <time>2015-07-08T09:44:00.000Z</time>
      </trkpt>
      <trkpt lat="47.42479" lon="6.68669">
        <ele>366</ele>
        <time>2015-07-08T09:44:01.000Z</time>
      </trkpt>
      <trkpt lat="47.42479" lon="6.68669">
        <ele>366</ele>
        <time>2015-07-08T09:44:02.000Z</time>
      </trkpt>
      <trkpt lat="47.42479" lon="6.68669">
        <ele>366</ele>
        <time>2015-07-08T09:44:03.000Z</time>
      </trkpt>
      <trkpt lat="47.42479" lon="6.68669">
        <ele>366</ele>
        <time>2015-07-08T09:44:04.000Z</time>
      </trkpt>
      <trkpt lat="47.42479" lon="6.68669">
        <ele>366</ele>
        <time>2015-07-08T09:44:05.000Z</time>
      </trkpt>
      <trkpt lat="47.42479" lon="6.68669">
        <ele>366</ele>
        <time>2015-07-08T09:44:06.000Z</time>
      </trkpt>
      <trkpt lat="47.42479" lon="6.68669">
        <ele>366</ele>
        <time>2015-07-08T09:44:07.000Z</time>
      </trkpt>
      <trkpt lat="47.42479" lon="6.68669">
        <ele>366</ele>
        <time>2015-07-08T09:44:08.000Z</time>
      </trkpt>
      <trkpt lat="47.42479" lon="6.6867">
        <ele>366</ele>
        <time>2015-07-08T09:44:09.000Z</time>
      </trkpt>
      <trkpt lat="47.42479" lon="6.6867">
        <ele>366</ele>
        <time>2015-07-08T09:44:10.000Z</time>
      </trkpt>
      <trkpt lat="47.42479" lon="6.6867">
        <ele>366</ele>
        <time>2015-07-08T09:44:11.000Z</time>
      </trkpt>
      <trkpt lat="47.42479" lon="6.6867">
        <ele>366</ele>
        <time>2015-07-08T09:44:12.000Z</time>
      </trkpt>
      <trkpt lat="47.42479" lon="6.6867">
        <ele>366</ele>
        <time>2015-07-08T09:44:13.000Z</time>
      </trkpt>
      <trkpt lat="47.42479" lon="6.6867">
        <ele>366</ele>
        <time>2015-07-08T09:44:14.000Z</time>
      </trkpt>
      <trkpt lat="47.42479" lon="6.6867">
        <ele>366</ele>
        <time>2015-07-08T09:44:15.000Z</time>
      </trkpt>
      <trkpt lat="47.42479" lon="6.6867">
        <ele>366</ele>
        <time>2015-07-08T09:44:16.000Z</time>
      </trkpt>
      <trkpt lat="47.42479" lon="6.68669">
        <ele>366</ele>
        <time>2015-07-08T09:44:17.000Z</time>
      </trkpt>
      <trkpt lat="47.42479" lon="6.68669">
        <ele>366</ele>
        <time>2015-07-08T09:44:18.000Z</time>
      </trkpt>
      <trkpt lat="47.42479" lon="6.68669">
        <ele>366</ele>
        <time>2015-07-08T09:44:19.000Z</time>
      </trkpt>
      <trkpt lat="47.42479" lon="6.68669">
        <ele>366</ele>
        <time>2015-07-08T09:44:20.000Z</time>
      </trkpt>
      <trkpt lat="47.42479" lon="6.68669">
        <ele>366</ele>
        <time>2015-07-08T09:44:21.000Z</time>
      </trkpt>
      <trkpt lat="47.42479" lon="6.68669">
        <ele>366</ele>
        <time>2015-07-08T09:44:22.000Z</time>
      </trkpt>
      <trkpt lat="47.42479" lon="6.68669">
        <ele>366</ele>
        <time>2015-07-08T09:44:23.000Z</time>
      </trkpt>
      <trkpt lat="47.42479" lon="6.68669">
        <ele>366</ele>
        <time>2015-07-08T09:44:24.000Z</time>
      </trkpt>
      <trkpt lat="47.42479" lon="6.68669">
        <ele>366</ele>
        <time>2015-07-08T09:44:25.000Z</time>
      </trkpt>
      <trkpt lat="47.42479" lon="6.68669">
        <ele>366</ele>
        <time>2015-07-08T09:44:26.000Z</time>
      </trkpt>
      <trkpt lat="47.42479" lon="6.68669">
        <ele>366</ele>
        <time>2015-07-08T09:44:27.000Z</time>
      </trkpt>
      <trkpt lat="47.42479" lon="6.68669">
        <ele>366</ele>
        <time>2015-07-08T09:44:28.000Z</time>
      </trkpt>
      <trkpt lat="47.42479" lon="6.68669">
        <ele>366</ele>
        <time>2015-07-08T09:44:29.000Z</time>
      </trkpt>
      <trkpt lat="47.42479" lon="6.68669">
        <ele>366</ele>
        <time>2015-07-08T09:44:30.000Z</time>
      </trkpt>
      <trkpt lat="47.42479" lon="6.68669">
        <ele>366</ele>
        <time>2015-07-08T09:44:31.000Z</time>
      </trkpt>
      <trkpt lat="47.42479" lon="6.68669">
        <ele>366</ele>
        <time>2015-07-08T09:44:32.000Z</time>
      </trkpt>
      <trkpt lat="47.42479" lon="6.68669">
        <ele>366</ele>
        <time>2015-07-08T09:44:33.000Z</time>
      </trkpt>
      <trkpt lat="47.42479" lon="6.68669">
        <ele>366</ele>
        <time>2015-07-08T09:44:34.000Z</time>
      </trkpt>
      <trkpt lat="47.42479" lon="6.68669">
        <ele>366</ele>
        <time>2015-07-08T09:44:35.000Z</time>
      </trkpt>
      <trkpt lat="47.42479" lon="6.6867">
        <ele>366</ele>
        <time>2015-07-08T09:44:36.000Z</time>
      </trkpt>
      <trkpt lat="47.42478" lon="6.68671">
        <ele>366</ele>
        <time>2015-07-08T09:44:37.000Z</time>
      </trkpt>
      <trkpt lat="47.42477" lon="6.68674">
        <ele>366</ele>
        <time>2015-07-08T09:44:38.000Z</time>
      </trkpt>
      <trkpt lat="47.42475" lon="6.68676">
        <ele>366</ele>
        <time>2015-07-08T09:44:39.000Z</time>
      </trkpt>
      <trkpt lat="47.42472" lon="6.68678">
        <ele>366</ele>
        <time>2015-07-08T09:44:40.000Z</time>
      </trkpt>
      <trkpt lat="47.42469" lon="6.68677">
        <ele>366</ele>
        <time>2015-07-08T09:44:41.000Z</time>
      </trkpt>
      <trkpt lat="47.42465" lon="6.68675">
        <ele>365</ele>
        <time>2015-07-08T09:44:42.000Z</time>
      </trkpt>
      <trkpt lat="47.42462" lon="6.68671">
        <ele>365</ele>
        <time>2015-07-08T09:44:43.000Z</time>
      </trkpt>
      <trkpt lat="47.42458" lon="6.68666">
        <ele>365</ele>
        <time>2015-07-08T09:44:44.000Z</time>
      </trkpt>
      <trkpt lat="47.42455" lon="6.6866">
        <ele>365</ele>
        <time>2015-07-08T09:44:45.000Z</time>
      </trkpt>
      <trkpt lat="47.4245" lon="6.68654">
        <ele>364</ele>
        <time>2015-07-08T09:44:46.000Z</time>
      </trkpt>
      <trkpt lat="47.42446" lon="6.68648">
        <ele>364</ele>
        <time>2015-07-08T09:44:47.000Z</time>
      </trkpt>
      <trkpt lat="47.42441" lon="6.68641">
        <ele>364</ele>
        <time>2015-07-08T09:44:48.000Z</time>
      </trkpt>
      <trkpt lat="47.42436" lon="6.68634">
        <ele>363</ele>
        <time>2015-07-08T09:44:49.000Z</time>
      </trkpt>
      <trkpt lat="47.4243" lon="6.68627">
        <ele>363</ele>
        <time>2015-07-08T09:44:50.000Z</time>
      </trkpt>
      <trkpt lat="47.42423" lon="6.68619">
        <ele>362</ele>
        <time>2015-07-08T09:44:51.000Z</time>
      </trkpt>
      <trkpt lat="47.42417" lon="6.68611">
        <ele>361</ele>
        <time>2015-07-08T09:44:52.000Z</time>
      </trkpt>
      <trkpt lat="47.4241" lon="6.68603">
        <ele>361</ele>
        <time>2015-07-08T09:44:53.000Z</time>
      </trkpt>
      <trkpt lat="47.42404" lon="6.68593">
        <ele>360</ele>
        <time>2015-07-08T09:44:54.000Z</time>
      </trkpt>
      <trkpt lat="47.42397" lon="6.68583">
        <ele>359</ele>
        <time>2015-07-08T09:44:55.000Z</time>
      </trkpt>
      <trkpt lat="47.42391" lon="6.68572">
        <ele>359</ele>
        <time>2015-07-08T09:44:56.000Z</time>
      </trkpt>
      <trkpt lat="47.42385" lon="6.6856">
        <ele>358</ele>
        <time>2015-07-08T09:44:57.000Z</time>
      </trkpt>
      <trkpt lat="47.42379" lon="6.68547">
        <ele>357</ele>
        <time>2015-07-08T09:44:58.000Z</time>
      </trkpt>
      <trkpt lat="47.42374" lon="6.68534">
        <ele>356</ele>
        <time>2015-07-08T09:44:59.000Z</time>
      </trkpt>
      <trkpt lat="47.42368" lon="6.6852">
        <ele>355</ele>
        <time>2015-07-08T09:45:00.000Z</time>
      </trkpt>
      <trkpt lat="47.42363" lon="6.68506">
        <ele>354</ele>
        <time>2015-07-08T09:45:01.000Z</time>
      </trkpt>
      <trkpt lat="47.42359" lon="6.68491">
        <ele>354</ele>
        <time>2015-07-08T09:45:02.000Z</time>
      </trkpt>
      <trkpt lat="47.42354" lon="6.68476">
        <ele>353</ele>
        <time>2015-07-08T09:45:03.000Z</time>
      </trkpt>
      <trkpt lat="47.42351" lon="6.6846">
        <ele>352</ele>
        <time>2015-07-08T09:45:04.000Z</time>
      </trkpt>
      <trkpt lat="47.42348" lon="6.68443">
        <ele>352</ele>
        <time>2015-07-08T09:45:05.000Z</time>
      </trkpt>
      <trkpt lat="47.42346" lon="6.68427">
        <ele>351</ele>
        <time>2015-07-08T09:45:06.000Z</time>
      </trkpt>
      <trkpt lat="47.42344" lon="6.6841">
        <ele>351</ele>
        <time>2015-07-08T09:45:07.000Z</time>
      </trkpt>
      <trkpt lat="47.42343" lon="6.68393">
        <ele>350</ele>
        <time>2015-07-08T09:45:08.000Z</time>
      </trkpt>
      <trkpt lat="47.42341" lon="6.68376">
        <ele>350</ele>
        <time>2015-07-08T09:45:09.000Z</time>
      </trkpt>
      <trkpt lat="47.42341" lon="6.68359">
        <ele>349</ele>
        <time>2015-07-08T09:45:10.000Z</time>
      </trkpt>
      <trkpt lat="47.42341" lon="6.68342">
        <ele>349</ele>
        <time>2015-07-08T09:45:11.000Z</time>
      </trkpt>
      <trkpt lat="47.42341" lon="6.68326">
        <ele>349</ele>
        <time>2015-07-08T09:45:12.000Z</time>
      </trkpt>
      <trkpt lat="47.42342" lon="6.6831">
        <ele>349</ele>
        <time>2015-07-08T09:45:13.000Z</time>
      </trkpt>
      <trkpt lat="47.42344" lon="6.68294">
        <ele>349</ele>
        <time>2015-07-08T09:45:14.000Z</time>
      </trkpt>
      <trkpt lat="47.42347" lon="6.68278">
        <ele>349</ele>
        <time>2015-07-08T09:45:15.000Z</time>
      </trkpt>
      <trkpt lat="47.4235" lon="6.68263">
        <ele>349</ele>
        <time>2015-07-08T09:45:16.000Z</time>
      </trkpt>
      <trkpt lat="47.42353" lon="6.68249">
        <ele>349</ele>
        <time>2015-07-08T09:45:17.000Z</time>
      </trkpt>
      <trkpt lat="47.42355" lon="6.68234">
        <ele>349</ele>
        <time>2015-07-08T09:45:18.000Z</time>
      </trkpt>
      <trkpt lat="47.42357" lon="6.6822">
        <ele>349</ele>
        <time>2015-07-08T09:45:19.000Z</time>
      </trkpt>
      <trkpt lat="47.4236" lon="6.68207">
        <ele>350</ele>
        <time>2015-07-08T09:45:20.000Z</time>
      </trkpt>
      <trkpt lat="47.42362" lon="6.68194">
        <ele>350</ele>
        <time>2015-07-08T09:45:21.000Z</time>
      </trkpt>
      <trkpt lat="47.42364" lon="6.6818">
        <ele>350</ele>
        <time>2015-07-08T09:45:22.000Z</time>
      </trkpt>
      <trkpt lat="47.42366" lon="6.68167">
        <ele>350</ele>
        <time>2015-07-08T09:45:23.000Z</time>
      </trkpt>
      <trkpt lat="47.42368" lon="6.68155">
        <ele>350</ele>
        <time>2015-07-08T09:45:24.000Z</time>
      </trkpt>
      <trkpt lat="47.4237" lon="6.68142">
        <ele>351</ele>
        <time>2015-07-08T09:45:25.000Z</time>
      </trkpt>
      <trkpt lat="47.42372" lon="6.6813">
        <ele>351</ele>
        <time>2015-07-08T09:45:26.000Z</time>
      </trkpt>
      <trkpt lat="47.42374" lon="6.68118">
        <ele>351</ele>
        <time>2015-07-08T09:45:27.000Z</time>
      </trkpt>
      <trkpt lat="47.42376" lon="6.68107">
        <ele>352</ele>
        <time>2015-07-08T09:45:28.000Z</time>
      </trkpt>
      <trkpt lat="47.42378" lon="6.68095">
        <ele>352</ele>
        <time>2015-07-08T09:45:29.000Z</time>
      </trkpt>
      <trkpt lat="47.4238" lon="6.68084">
        <ele>352</ele>
        <time>2015-07-08T09:45:30.000Z</time>
      </trkpt>
      <trkpt lat="47.42382" lon="6.68073">
        <ele>352</ele>
        <time>2015-07-08T09:45:31.000Z</time>
      </trkpt>
      <trkpt lat="47.42384" lon="6.68062">
        <ele>353</ele>
        <time>2015-07-08T09:45:32.000Z</time>
      </trkpt>
      <trkpt lat="47.42386" lon="6.68051">
        <ele>353</ele>
        <time>2015-07-08T09:45:33.000Z</time>
      </trkpt>
      <trkpt lat="47.42388" lon="6.68041">
        <ele>353</ele>
        <time>2015-07-08T09:45:34.000Z</time>
      </trkpt>
      <trkpt lat="47.4239" lon="6.6803">
        <ele>353</ele>
        <time>2015-07-08T09:45:35.000Z</time>
      </trkpt>
      <trkpt lat="47.42392" lon="6.6802">
        <ele>353</ele>
        <time>2015-07-08T09:45:36.000Z</time>
      </trkpt>
      <trkpt lat="47.42393" lon="6.68009">
        <ele>353</ele>
        <time>2015-07-08T09:45:37.000Z</time>
      </trkpt>
      <trkpt lat="47.42395" lon="6.67998">
        <ele>353</ele>
        <time>2015-07-08T09:45:38.000Z</time>
      </trkpt>
      <trkpt lat="47.42397" lon="6.67987">
        <ele>353</ele>
        <time>2015-07-08T09:45:39.000Z</time>
      </trkpt>
      <trkpt lat="47.42398" lon="6.67975">
        <ele>353</ele>
        <time>2015-07-08T09:45:40.000Z</time>
      </trkpt>
      <trkpt lat="47.42399" lon="6.67963">
        <ele>353</ele>
        <time>2015-07-08T09:45:41.000Z</time>
      </trkpt>
      <trkpt lat="47.424" lon="6.67952">
        <ele>353</ele>
        <time>2015-07-08T09:45:42.000Z</time>
      </trkpt>
      <trkpt lat="47.42402" lon="6.6794">
        <ele>353</ele>
        <time>2015-07-08T09:45:43.000Z</time>
      </trkpt>
      <trkpt lat="47.42402" lon="6.67928">
        <ele>353</ele>
        <time>2015-07-08T09:45:44.000Z</time>
      </trkpt>
      <trkpt lat="47.42403" lon="6.67916">
        <ele>353</ele>
        <time>2015-07-08T09:45:45.000Z</time>
      </trkpt>
      <trkpt lat="47.42403" lon="6.67904">
        <ele>353</ele>
        <time>2015-07-08T09:45:46.000Z</time>
      </trkpt>
      <trkpt lat="47.42403" lon="6.67893">
        <ele>353</ele>
        <time>2015-07-08T09:45:47.000Z</time>
      </trkpt>
      <trkpt lat="47.42404" lon="6.67881">
        <ele>353</ele>
        <time>2015-07-08T09:45:48.000Z</time>
      </trkpt>
      <trkpt lat="47.42405" lon="6.6787">
        <ele>353</ele>
        <time>2015-07-08T09:45:49.000Z</time>
      </trkpt>
      <trkpt lat="47.42405" lon="6.67858">
        <ele>353</ele>
        <time>2015-07-08T09:45:50.000Z</time>
      </trkpt>
      <trkpt lat="47.42406" lon="6.67846">
        <ele>353</ele>
        <time>2015-07-08T09:45:51.000Z</time>
      </trkpt>
      <trkpt lat="47.42408" lon="6.67835">
        <ele>353</ele>
        <time>2015-07-08T09:45:52.000Z</time>
      </trkpt>
      <trkpt lat="47.42409" lon="6.67823">
        <ele>353</ele>
        <time>2015-07-08T09:45:53.000Z</time>
      </trkpt>
      <trkpt lat="47.42411" lon="6.67811">
        <ele>353</ele>
        <time>2015-07-08T09:45:54.000Z</time>
      </trkpt>
      <trkpt lat="47.42414" lon="6.67799">
        <ele>352</ele>
        <time>2015-07-08T09:45:55.000Z</time>
      </trkpt>
      <trkpt lat="47.42416" lon="6.67787">
        <ele>352</ele>
        <time>2015-07-08T09:45:56.000Z</time>
      </trkpt>
      <trkpt lat="47.42419" lon="6.67775">
        <ele>352</ele>
        <time>2015-07-08T09:45:57.000Z</time>
      </trkpt>
      <trkpt lat="47.42422" lon="6.67763">
        <ele>352</ele>
        <time>2015-07-08T09:45:58.000Z</time>
      </trkpt>
      <trkpt lat="47.42425" lon="6.67751">
        <ele>352</ele>
        <time>2015-07-08T09:45:59.000Z</time>
      </trkpt>
      <trkpt lat="47.42428" lon="6.67739">
        <ele>351</ele>
        <time>2015-07-08T09:46:00.000Z</time>
      </trkpt>
      <trkpt lat="47.42431" lon="6.67726">
        <ele>351</ele>
        <time>2015-07-08T09:46:01.000Z</time>
      </trkpt>
      <trkpt lat="47.42434" lon="6.67713">
        <ele>350</ele>
        <time>2015-07-08T09:46:02.000Z</time>
      </trkpt>
      <trkpt lat="47.42438" lon="6.67699">
        <ele>350</ele>
        <time>2015-07-08T09:46:03.000Z</time>
      </trkpt>
      <trkpt lat="47.42442" lon="6.67685">
        <ele>349</ele>
        <time>2015-07-08T09:46:04.000Z</time>
      </trkpt>
      <trkpt lat="47.42445" lon="6.67671">
        <ele>349</ele>
        <time>2015-07-08T09:46:05.000Z</time>
      </trkpt>
      <trkpt lat="47.42449" lon="6.67658">
        <ele>348</ele>
        <time>2015-07-08T09:46:06.000Z</time>
      </trkpt>
      <trkpt lat="47.42452" lon="6.67644">
        <ele>348</ele>
        <time>2015-07-08T09:46:07.000Z</time>
      </trkpt>
      <trkpt lat="47.42456" lon="6.6763">
        <ele>347</ele>
        <time>2015-07-08T09:46:08.000Z</time>
      </trkpt>
      <trkpt lat="47.42459" lon="6.67616">
        <ele>347</ele>
        <time>2015-07-08T09:46:09.000Z</time>
      </trkpt>
      <trkpt lat="47.42464" lon="6.67602">
        <ele>346</ele>
        <time>2015-07-08T09:46:10.000Z</time>
      </trkpt>
      <trkpt lat="47.42468" lon="6.67588">
        <ele>346</ele>
        <time>2015-07-08T09:46:11.000Z</time>
      </trkpt>
      <trkpt lat="47.42473" lon="6.67574">
        <ele>345</ele>
        <time>2015-07-08T09:46:12.000Z</time>
      </trkpt>
      <trkpt lat="47.42479" lon="6.6756">
        <ele>345</ele>
        <time>2015-07-08T09:46:13.000Z</time>
      </trkpt>
      <trkpt lat="47.42485" lon="6.67547">
        <ele>344</ele>
        <time>2015-07-08T09:46:14.000Z</time>
      </trkpt>
      <trkpt lat="47.42491" lon="6.67533">
        <ele>344</ele>
        <time>2015-07-08T09:46:15.000Z</time>
      </trkpt>
      <trkpt lat="47.42497" lon="6.6752">
        <ele>343</ele>
        <time>2015-07-08T09:46:16.000Z</time>
      </trkpt>
      <trkpt lat="47.42502" lon="6.67506">
        <ele>343</ele>
        <time>2015-07-08T09:46:17.000Z</time>
      </trkpt>
      <trkpt lat="47.42508" lon="6.67492">
        <ele>342</ele>
        <time>2015-07-08T09:46:18.000Z</time>
      </trkpt>
      <trkpt lat="47.42514" lon="6.67479">
        <ele>342</ele>
        <time>2015-07-08T09:46:19.000Z</time>
      </trkpt>
      <trkpt lat="47.4252" lon="6.67465">
        <ele>341</ele>
        <time>2015-07-08T09:46:20.000Z</time>
      </trkpt>
      <trkpt lat="47.42526" lon="6.67451">
        <ele>341</ele>
        <time>2015-07-08T09:46:21.000Z</time>
      </trkpt>
      <trkpt lat="47.42532" lon="6.67438">
        <ele>340</ele>
        <time>2015-07-08T09:46:22.000Z</time>
      </trkpt>
      <trkpt lat="47.42538" lon="6.67425">
        <ele>340</ele>
        <time>2015-07-08T09:46:23.000Z</time>
      </trkpt>
      <trkpt lat="47.42545" lon="6.67412">
        <ele>340</ele>
        <time>2015-07-08T09:46:24.000Z</time>
      </trkpt>
      <trkpt lat="47.42551" lon="6.67399">
        <ele>339</ele>
        <time>2015-07-08T09:46:25.000Z</time>
      </trkpt>
      <trkpt lat="47.42557" lon="6.67387">
        <ele>339</ele>
        <time>2015-07-08T09:46:26.000Z</time>
      </trkpt>
      <trkpt lat="47.42563" lon="6.67376">
        <ele>339</ele>
        <time>2015-07-08T09:46:27.000Z</time>
      </trkpt>
      <trkpt lat="47.42569" lon="6.67364">
        <ele>339</ele>
        <time>2015-07-08T09:46:28.000Z</time>
      </trkpt>
      <trkpt lat="47.42575" lon="6.67353">
        <ele>339</ele>
        <time>2015-07-08T09:46:29.000Z</time>
      </trkpt>
      <trkpt lat="47.42581" lon="6.67341">
        <ele>338</ele>
        <time>2015-07-08T09:46:30.000Z</time>
      </trkpt>
      <trkpt lat="47.42587" lon="6.67329">
        <ele>338</ele>
        <time>2015-07-08T09:46:31.000Z</time>
      </trkpt>
      <trkpt lat="47.42592" lon="6.67317">
        <ele>338</ele>
        <time>2015-07-08T09:46:32.000Z</time>
      </trkpt>
      <trkpt lat="47.42597" lon="6.67304">
        <ele>338</ele>
        <time>2015-07-08T09:46:33.000Z</time>
      </trkpt>
      <trkpt lat="47.42602" lon="6.67291">
        <ele>337</ele>
        <time>2015-07-08T09:46:34.000Z</time>
      </trkpt>
      <trkpt lat="47.42606" lon="6.67278">
        <ele>337</ele>
        <time>2015-07-08T09:46:35.000Z</time>
      </trkpt>
      <trkpt lat="47.4261" lon="6.67265">
        <ele>337</ele>
        <time>2015-07-08T09:46:36.000Z</time>
      </trkpt>
      <trkpt lat="47.42614" lon="6.67253">
        <ele>337</ele>
        <time>2015-07-08T09:46:37.000Z</time>
      </trkpt>
      <trkpt lat="47.42618" lon="6.6724">
        <ele>336</ele>
        <time>2015-07-08T09:46:38.000Z</time>
      </trkpt>
      <trkpt lat="47.42621" lon="6.67227">
        <ele>336</ele>
        <time>2015-07-08T09:46:39.000Z</time>
      </trkpt>
      <trkpt lat="47.42624" lon="6.67215">
        <ele>336</ele>
        <time>2015-07-08T09:46:40.000Z</time>
      </trkpt>
      <trkpt lat="47.42628" lon="6.67202">
        <ele>336</ele>
        <time>2015-07-08T09:46:41.000Z</time>
      </trkpt>
      <trkpt lat="47.42631" lon="6.6719">
        <ele>335</ele>
        <time>2015-07-08T09:46:42.000Z</time>
      </trkpt>
      <trkpt lat="47.42635" lon="6.67177">
        <ele>335</ele>
        <time>2015-07-08T09:46:43.000Z</time>
      </trkpt>
      <trkpt lat="47.42639" lon="6.67163">
        <ele>335</ele>
        <time>2015-07-08T09:46:44.000Z</time>
      </trkpt>
      <trkpt lat="47.42643" lon="6.6715">
        <ele>334</ele>
        <time>2015-07-08T09:46:45.000Z</time>
      </trkpt>
      <trkpt lat="47.42648" lon="6.67136">
        <ele>334</ele>
        <time>2015-07-08T09:46:46.000Z</time>
      </trkpt>
      <trkpt lat="47.42654" lon="6.67122">
        <ele>333</ele>
        <time>2015-07-08T09:46:47.000Z</time>
      </trkpt>
      <trkpt lat="47.4266" lon="6.67109">
        <ele>333</ele>
        <time>2015-07-08T09:46:48.000Z</time>
      </trkpt>
      <trkpt lat="47.42667" lon="6.67097">
        <ele>332</ele>
        <time>2015-07-08T09:46:49.000Z</time>
      </trkpt>
      <trkpt lat="47.42674" lon="6.67084">
        <ele>332</ele>
        <time>2015-07-08T09:46:50.000Z</time>
      </trkpt>
      <trkpt lat="47.42681" lon="6.67071">
        <ele>331</ele>
        <time>2015-07-08T09:46:51.000Z</time>
      </trkpt>
      <trkpt lat="47.42687" lon="6.67058">
        <ele>331</ele>
        <time>2015-07-08T09:46:52.000Z</time>
      </trkpt>
      <trkpt lat="47.42693" lon="6.67045">
        <ele>331</ele>
        <time>2015-07-08T09:46:53.000Z</time>
      </trkpt>
      <trkpt lat="47.42699" lon="6.67031">
        <ele>330</ele>
        <time>2015-07-08T09:46:54.000Z</time>
      </trkpt>
      <trkpt lat="47.42704" lon="6.67018">
        <ele>330</ele>
        <time>2015-07-08T09:46:55.000Z</time>
      </trkpt>
      <trkpt lat="47.42708" lon="6.67004">
        <ele>330</ele>
        <time>2015-07-08T09:46:56.000Z</time>
      </trkpt>
      <trkpt lat="47.42712" lon="6.6699">
        <ele>330</ele>
        <time>2015-07-08T09:46:57.000Z</time>
      </trkpt>
      <trkpt lat="47.42716" lon="6.66976">
        <ele>330</ele>
        <time>2015-07-08T09:46:58.000Z</time>
      </trkpt>
      <trkpt lat="47.42719" lon="6.66961">
        <ele>329</ele>
        <time>2015-07-08T09:46:59.000Z</time>
      </trkpt>
      <trkpt lat="47.42722" lon="6.66946">
        <ele>329</ele>
        <time>2015-07-08T09:47:00.000Z</time>
      </trkpt>
      <trkpt lat="47.42724" lon="6.6693">
        <ele>330</ele>
        <time>2015-07-08T09:47:01.000Z</time>
      </trkpt>
      <trkpt lat="47.42726" lon="6.66915">
        <ele>330</ele>
        <time>2015-07-08T09:47:02.000Z</time>
      </trkpt>
      <trkpt lat="47.42727" lon="6.669">
        <ele>330</ele>
        <time>2015-07-08T09:47:03.000Z</time>
      </trkpt>
      <trkpt lat="47.42729" lon="6.66884">
        <ele>331</ele>
        <time>2015-07-08T09:47:04.000Z</time>
      </trkpt>
      <trkpt lat="47.42731" lon="6.66869">
        <ele>331</ele>
        <time>2015-07-08T09:47:05.000Z</time>
      </trkpt>
      <trkpt lat="47.42733" lon="6.66854">
        <ele>331</ele>
        <time>2015-07-08T09:47:06.000Z</time>
      </trkpt>
      <trkpt lat="47.42736" lon="6.66838">
        <ele>331</ele>
        <time>2015-07-08T09:47:07.000Z</time>
      </trkpt>
      <trkpt lat="47.42738" lon="6.66823">
        <ele>331</ele>
        <time>2015-07-08T09:47:08.000Z</time>
      </trkpt>
      <trkpt lat="47.4274" lon="6.66807">
        <ele>331</ele>
        <time>2015-07-08T09:47:09.000Z</time>
      </trkpt>
      <trkpt lat="47.42742" lon="6.66791">
        <ele>331</ele>
        <time>2015-07-08T09:47:10.000Z</time>
      </trkpt>
      <trkpt lat="47.42745" lon="6.66775">
        <ele>331</ele>
        <time>2015-07-08T09:47:11.000Z</time>
      </trkpt>
      <trkpt lat="47.42748" lon="6.6676">
        <ele>331</ele>
        <time>2015-07-08T09:47:12.000Z</time>
      </trkpt>
      <trkpt lat="47.42751" lon="6.66744">
        <ele>331</ele>
        <time>2015-07-08T09:47:13.000Z</time>
      </trkpt>
      <trkpt lat="47.42755" lon="6.6673">
        <ele>331</ele>
        <time>2015-07-08T09:47:14.000Z</time>
      </trkpt>
      <trkpt lat="47.42761" lon="6.66715">
        <ele>331</ele>
        <time>2015-07-08T09:47:15.000Z</time>
      </trkpt>
      <trkpt lat="47.42766" lon="6.66702">
        <ele>331</ele>
        <time>2015-07-08T09:47:16.000Z</time>
      </trkpt>
      <trkpt lat="47.42772" lon="6.66689">
        <ele>330</ele>
        <time>2015-07-08T09:47:17.000Z</time>
      </trkpt>
      <trkpt lat="47.42779" lon="6.66676">
        <ele>330</ele>
        <time>2015-07-08T09:47:18.000Z</time>
      </trkpt>
      <trkpt lat="47.42786" lon="6.66664">
        <ele>330</ele>
        <time>2015-07-08T09:47:19.000Z</time>
      </trkpt>
      <trkpt lat="47.42793" lon="6.66652">
        <ele>330</ele>
        <time>2015-07-08T09:47:20.000Z</time>
      </trkpt>
      <trkpt lat="47.42802" lon="6.66642">
        <ele>329</ele>
        <time>2015-07-08T09:47:21.000Z</time>
      </trkpt>
      <trkpt lat="47.4281" lon="6.66632">
        <ele>329</ele>
        <time>2015-07-08T09:47:22.000Z</time>
      </trkpt>
      <trkpt lat="47.42819" lon="6.66623">
        <ele>329</ele>
        <time>2015-07-08T09:47:23.000Z</time>
      </trkpt>
      <trkpt lat="47.42828" lon="6.66615">
        <ele>329</ele>
        <time>2015-07-08T09:47:24.000Z</time>
      </trkpt>
      <trkpt lat="47.42837" lon="6.66607">
        <ele>328</ele>
        <time>2015-07-08T09:47:25.000Z</time>
      </trkpt>
      <trkpt lat="47.42846" lon="6.66601">
        <ele>328</ele>
        <time>2015-07-08T09:47:26.000Z</time>
      </trkpt>
      <trkpt lat="47.42855" lon="6.66596">
        <ele>328</ele>
        <time>2015-07-08T09:47:27.000Z</time>
      </trkpt>
      <trkpt lat="47.42865" lon="6.66591">
        <ele>328</ele>
        <time>2015-07-08T09:47:28.000Z</time>
      </trkpt>
      <trkpt lat="47.42874" lon="6.66587">
        <ele>328</ele>
        <time>2015-07-08T09:47:29.000Z</time>
      </trkpt>
      <trkpt lat="47.42883" lon="6.66583">
        <ele>328</ele>
        <time>2015-07-08T09:47:30.000Z</time>
      </trkpt>
      <trkpt lat="47.42892" lon="6.66579">
        <ele>328</ele>
        <time>2015-07-08T09:47:31.000Z</time>
      </trkpt>
      <trkpt lat="47.42901" lon="6.66575">
        <ele>328</ele>
        <time>2015-07-08T09:47:32.000Z</time>
      </trkpt>
      <trkpt lat="47.42909" lon="6.66572">
        <ele>328</ele>
        <time>2015-07-08T09:47:33.000Z</time>
      </trkpt>
      <trkpt lat="47.42917" lon="6.66569">
        <ele>328</ele>
        <time>2015-07-08T09:47:34.000Z</time>
      </trkpt>
      <trkpt lat="47.42925" lon="6.66566">
        <ele>328</ele>
        <time>2015-07-08T09:47:35.000Z</time>
      </trkpt>
      <trkpt lat="47.42932" lon="6.66563">
        <ele>328</ele>
        <time>2015-07-08T09:47:36.000Z</time>
      </trkpt>
      <trkpt lat="47.42939" lon="6.6656">
        <ele>328</ele>
        <time>2015-07-08T09:47:37.000Z</time>
      </trkpt>
      <trkpt lat="47.42946" lon="6.66557">
        <ele>328</ele>
        <time>2015-07-08T09:47:38.000Z</time>
      </trkpt>
      <trkpt lat="47.42952" lon="6.66554">
        <ele>328</ele>
        <time>2015-07-08T09:47:39.000Z</time>
      </trkpt>
      <trkpt lat="47.42959" lon="6.66551">
        <ele>329</ele>
        <time>2015-07-08T09:47:40.000Z</time>
      </trkpt>
      <trkpt lat="47.42965" lon="6.66548">
        <ele>329</ele>
        <time>2015-07-08T09:47:41.000Z</time>
      </trkpt>
      <trkpt lat="47.42971" lon="6.66546">
        <ele>329</ele>
        <time>2015-07-08T09:47:42.000Z</time>
      </trkpt>
      <trkpt lat="47.42978" lon="6.66543">
        <ele>329</ele>
        <time>2015-07-08T09:47:43.000Z</time>
      </trkpt>
      <trkpt lat="47.42984" lon="6.6654">
        <ele>329</ele>
        <time>2015-07-08T09:47:44.000Z</time>
      </trkpt>
      <trkpt lat="47.42991" lon="6.66537">
        <ele>329</ele>
        <time>2015-07-08T09:47:45.000Z</time>
      </trkpt>
      <trkpt lat="47.42998" lon="6.66534">
        <ele>329</ele>
        <time>2015-07-08T09:47:46.000Z</time>
      </trkpt>
      <trkpt lat="47.43005" lon="6.66532">
        <ele>329</ele>
        <time>2015-07-08T09:47:47.000Z</time>
      </trkpt>
      <trkpt lat="47.43012" lon="6.66529">
        <ele>329</ele>
        <time>2015-07-08T09:47:48.000Z</time>
      </trkpt>
      <trkpt lat="47.43019" lon="6.66525">
        <ele>329</ele>
        <time>2015-07-08T09:47:49.000Z</time>
      </trkpt>
      <trkpt lat="47.43027" lon="6.66522">
        <ele>329</ele>
        <time>2015-07-08T09:47:50.000Z</time>
      </trkpt>
      <trkpt lat="47.43033" lon="6.66518">
        <ele>329</ele>
        <time>2015-07-08T09:47:51.000Z</time>
      </trkpt>
      <trkpt lat="47.4304" lon="6.66515">
        <ele>329</ele>
        <time>2015-07-08T09:47:52.000Z</time>
      </trkpt>
      <trkpt lat="47.43047" lon="6.66511">
        <ele>329</ele>
        <time>2015-07-08T09:47:53.000Z</time>
      </trkpt>
      <trkpt lat="47.43055" lon="6.66507">
        <ele>329</ele>
        <time>2015-07-08T09:47:54.000Z</time>
      </trkpt>
      <trkpt lat="47.43063" lon="6.66503">
        <ele>329</ele>
        <time>2015-07-08T09:47:55.000Z</time>
      </trkpt>
      <trkpt lat="47.43071" lon="6.66499">
        <ele>330</ele>
        <time>2015-07-08T09:47:56.000Z</time>
      </trkpt>
      <trkpt lat="47.4308" lon="6.66495">
        <ele>330</ele>
        <time>2015-07-08T09:47:57.000Z</time>
      </trkpt>
      <trkpt lat="47.43089" lon="6.6649">
        <ele>330</ele>
        <time>2015-07-08T09:47:58.000Z</time>
      </trkpt>
      <trkpt lat="47.43098" lon="6.66486">
        <ele>329</ele>
        <time>2015-07-08T09:47:59.000Z</time>
      </trkpt>
      <trkpt lat="47.43108" lon="6.66481">
        <ele>329</ele>
        <time>2015-07-08T09:48:00.000Z</time>
      </trkpt>
      <trkpt lat="47.43117" lon="6.66476">
        <ele>329</ele>
        <time>2015-07-08T09:48:01.000Z</time>
      </trkpt>
      <trkpt lat="47.43127" lon="6.66471">
        <ele>329</ele>
        <time>2015-07-08T09:48:02.000Z</time>
      </trkpt>
      <trkpt lat="47.43137" lon="6.66467">
        <ele>329</ele>
        <time>2015-07-08T09:48:03.000Z</time>
      </trkpt>
      <trkpt lat="47.43147" lon="6.66462">
        <ele>329</ele>
        <time>2015-07-08T09:48:04.000Z</time>
      </trkpt>
      <trkpt lat="47.43157" lon="6.66458">
        <ele>329</ele>
        <time>2015-07-08T09:48:05.000Z</time>
      </trkpt>
      <trkpt lat="47.43167" lon="6.66453">
        <ele>329</ele>
        <time>2015-07-08T09:48:06.000Z</time>
      </trkpt>
      <trkpt lat="47.43176" lon="6.66449">
        <ele>329</ele>
        <time>2015-07-08T09:48:07.000Z</time>
      </trkpt>
      <trkpt lat="47.43186" lon="6.66444">
        <ele>329</ele>
        <time>2015-07-08T09:48:08.000Z</time>
      </trkpt>
      <trkpt lat="47.43196" lon="6.6644">
        <ele>329</ele>
        <time>2015-07-08T09:48:09.000Z</time>
      </trkpt>
      <trkpt lat="47.43206" lon="6.66436">
        <ele>329</ele>
        <time>2015-07-08T09:48:10.000Z</time>
      </trkpt>
      <trkpt lat="47.43216" lon="6.66432">
        <ele>328</ele>
        <time>2015-07-08T09:48:11.000Z</time>
      </trkpt>
      <trkpt lat="47.43225" lon="6.66428">
        <ele>328</ele>
        <time>2015-07-08T09:48:12.000Z</time>
      </trkpt>
      <trkpt lat="47.43234" lon="6.66423">
        <ele>328</ele>
        <time>2015-07-08T09:48:13.000Z</time>
      </trkpt>
      <trkpt lat="47.43243" lon="6.66418">
        <ele>328</ele>
        <time>2015-07-08T09:48:14.000Z</time>
      </trkpt>
      <trkpt lat="47.43252" lon="6.66413">
        <ele>328</ele>
        <time>2015-07-08T09:48:15.000Z</time>
      </trkpt>
      <trkpt lat="47.43261" lon="6.66407">
        <ele>328</ele>
        <time>2015-07-08T09:48:16.000Z</time>
      </trkpt>
      <trkpt lat="47.4327" lon="6.66401">
        <ele>328</ele>
        <time>2015-07-08T09:48:17.000Z</time>
      </trkpt>
      <trkpt lat="47.43279" lon="6.66395">
        <ele>328</ele>
        <time>2015-07-08T09:48:18.000Z</time>
      </trkpt>
      <trkpt lat="47.43288" lon="6.66389">
        <ele>327</ele>
        <time>2015-07-08T09:48:19.000Z</time>
      </trkpt>
      <trkpt lat="47.43297" lon="6.66382">
        <ele>327</ele>
        <time>2015-07-08T09:48:20.000Z</time>
      </trkpt>
      <trkpt lat="47.43306" lon="6.66375">
        <ele>327</ele>
        <time>2015-07-08T09:48:21.000Z</time>
      </trkpt>
      <trkpt lat="47.43315" lon="6.66368">
        <ele>327</ele>
        <time>2015-07-08T09:48:22.000Z</time>
      </trkpt>
      <trkpt lat="47.43324" lon="6.66361">
        <ele>327</ele>
        <time>2015-07-08T09:48:23.000Z</time>
      </trkpt>
      <trkpt lat="47.43333" lon="6.66354">
        <ele>326</ele>
        <time>2015-07-08T09:48:24.000Z</time>
      </trkpt>
      <trkpt lat="47.43342" lon="6.66346">
        <ele>326</ele>
        <time>2015-07-08T09:48:25.000Z</time>
      </trkpt>
      <trkpt lat="47.43351" lon="6.66339">
        <ele>326</ele>
        <time>2015-07-08T09:48:26.000Z</time>
      </trkpt>
      <trkpt lat="47.4336" lon="6.66332">
        <ele>326</ele>
        <time>2015-07-08T09:48:27.000Z</time>
      </trkpt>
      <trkpt lat="47.43369" lon="6.66325">
        <ele>326</ele>
        <time>2015-07-08T09:48:28.000Z</time>
      </trkpt>
      <trkpt lat="47.43378" lon="6.66317">
        <ele>326</ele>
        <time>2015-07-08T09:48:29.000Z</time>
      </trkpt>
      <trkpt lat="47.43386" lon="6.6631">
        <ele>326</ele>
        <time>2015-07-08T09:48:30.000Z</time>
      </trkpt>
      <trkpt lat="47.43394" lon="6.66302">
        <ele>326</ele>
        <time>2015-07-08T09:48:31.000Z</time>
      </trkpt>
      <trkpt lat="47.43403" lon="6.66295">
        <ele>326</ele>
        <time>2015-07-08T09:48:32.000Z</time>
      </trkpt>
      <trkpt lat="47.4341" lon="6.66287">
        <ele>326</ele>
        <time>2015-07-08T09:48:33.000Z</time>
      </trkpt>
      <trkpt lat="47.43417" lon="6.6628">
        <ele>326</ele>
        <time>2015-07-08T09:48:34.000Z</time>
      </trkpt>
      <trkpt lat="47.43424" lon="6.66273">
        <ele>326</ele>
        <time>2015-07-08T09:48:35.000Z</time>
      </trkpt>
      <trkpt lat="47.4343" lon="6.66266">
        <ele>326</ele>
        <time>2015-07-08T09:48:36.000Z</time>
      </trkpt>
      <trkpt lat="47.43436" lon="6.66259">
        <ele>327</ele>
        <time>2015-07-08T09:48:37.000Z</time>
      </trkpt>
      <trkpt lat="47.43441" lon="6.66252">
        <ele>327</ele>
        <time>2015-07-08T09:48:38.000Z</time>
      </trkpt>
      <trkpt lat="47.43446" lon="6.66245">
        <ele>327</ele>
        <time>2015-07-08T09:48:39.000Z</time>
      </trkpt>
      <trkpt lat="47.43452" lon="6.66237">
        <ele>327</ele>
        <time>2015-07-08T09:48:40.000Z</time>
      </trkpt>
      <trkpt lat="47.43457" lon="6.6623">
        <ele>327</ele>
        <time>2015-07-08T09:48:41.000Z</time>
      </trkpt>
      <trkpt lat="47.43462" lon="6.66222">
        <ele>327</ele>
        <time>2015-07-08T09:48:42.000Z</time>
      </trkpt>
      <trkpt lat="47.43467" lon="6.66214">
        <ele>327</ele>
        <time>2015-07-08T09:48:43.000Z</time>
      </trkpt>
      <trkpt lat="47.43473" lon="6.66206">
        <ele>327</ele>
        <time>2015-07-08T09:48:44.000Z</time>
      </trkpt>
      <trkpt lat="47.43478" lon="6.66198">
        <ele>327</ele>
        <time>2015-07-08T09:48:45.000Z</time>
      </trkpt>
      <trkpt lat="47.43484" lon="6.66189">
        <ele>327</ele>
        <time>2015-07-08T09:48:46.000Z</time>
      </trkpt>
      <trkpt lat="47.43489" lon="6.66181">
        <ele>327</ele>
        <time>2015-07-08T09:48:47.000Z</time>
      </trkpt>
      <trkpt lat="47.43495" lon="6.66171">
        <ele>327</ele>
        <time>2015-07-08T09:48:48.000Z</time>
      </trkpt>
      <trkpt lat="47.435" lon="6.66162">
        <ele>327</ele>
        <time>2015-07-08T09:48:49.000Z</time>
      </trkpt>
      <trkpt lat="47.43505" lon="6.66152">
        <ele>327</ele>
        <time>2015-07-08T09:48:50.000Z</time>
      </trkpt>
      <trkpt lat="47.4351" lon="6.66143">
        <ele>327</ele>
        <time>2015-07-08T09:48:51.000Z</time>
      </trkpt>
      <trkpt lat="47.43515" lon="6.66133">
        <ele>327</ele>
        <time>2015-07-08T09:48:52.000Z</time>
      </trkpt>
      <trkpt lat="47.4352" lon="6.66124">
        <ele>327</ele>
        <time>2015-07-08T09:48:53.000Z</time>
      </trkpt>
      <trkpt lat="47.43525" lon="6.66114">
        <ele>327</ele>
        <time>2015-07-08T09:48:54.000Z</time>
      </trkpt>
      <trkpt lat="47.4353" lon="6.66105">
        <ele>327</ele>
        <time>2015-07-08T09:48:55.000Z</time>
      </trkpt>
      <trkpt lat="47.43534" lon="6.66095">
        <ele>327</ele>
        <time>2015-07-08T09:48:56.000Z</time>
      </trkpt>
      <trkpt lat="47.43539" lon="6.66085">
        <ele>327</ele>
        <time>2015-07-08T09:48:57.000Z</time>
      </trkpt>
      <trkpt lat="47.43544" lon="6.66075">
        <ele>327</ele>
        <time>2015-07-08T09:48:58.000Z</time>
      </trkpt>
      <trkpt lat="47.43549" lon="6.66065">
        <ele>327</ele>
        <time>2015-07-08T09:48:59.000Z</time>
      </trkpt>
      <trkpt lat="47.43554" lon="6.66055">
        <ele>326</ele>
        <time>2015-07-08T09:49:00.000Z</time>
      </trkpt>
      <trkpt lat="47.43559" lon="6.66045">
        <ele>326</ele>
        <time>2015-07-08T09:49:01.000Z</time>
      </trkpt>
      <trkpt lat="47.43564" lon="6.66035">
        <ele>326</ele>
        <time>2015-07-08T09:49:02.000Z</time>
      </trkpt>
      <trkpt lat="47.43569" lon="6.66025">
        <ele>326</ele>
        <time>2015-07-08T09:49:03.000Z</time>
      </trkpt>
      <trkpt lat="47.43574" lon="6.66015">
        <ele>326</ele>
        <time>2015-07-08T09:49:04.000Z</time>
      </trkpt>
      <trkpt lat="47.43579" lon="6.66006">
        <ele>326</ele>
        <time>2015-07-08T09:49:05.000Z</time>
      </trkpt>
      <trkpt lat="47.43584" lon="6.65996">
        <ele>325</ele>
        <time>2015-07-08T09:49:06.000Z</time>
      </trkpt>
      <trkpt lat="47.43589" lon="6.65987">
        <ele>325</ele>
        <time>2015-07-08T09:49:07.000Z</time>
      </trkpt>
      <trkpt lat="47.43594" lon="6.65977">
        <ele>325</ele>
        <time>2015-07-08T09:49:08.000Z</time>
      </trkpt>
      <trkpt lat="47.43598" lon="6.65966">
        <ele>325</ele>
        <time>2015-07-08T09:49:09.000Z</time>
      </trkpt>
      <trkpt lat="47.43603" lon="6.65956">
        <ele>325</ele>
        <time>2015-07-08T09:49:10.000Z</time>
      </trkpt>
      <trkpt lat="47.43609" lon="6.65945">
        <ele>324</ele>
        <time>2015-07-08T09:49:11.000Z</time>
      </trkpt>
      <trkpt lat="47.43614" lon="6.65934">
        <ele>324</ele>
        <time>2015-07-08T09:49:12.000Z</time>
      </trkpt>
      <trkpt lat="47.4362" lon="6.65923">
        <ele>324</ele>
        <time>2015-07-08T09:49:13.000Z</time>
      </trkpt>
      <trkpt lat="47.43626" lon="6.65912">
        <ele>324</ele>
        <time>2015-07-08T09:49:14.000Z</time>
      </trkpt>
      <trkpt lat="47.43632" lon="6.659">
        <ele>324</ele>
        <time>2015-07-08T09:49:15.000Z</time>
      </trkpt>
      <trkpt lat="47.43638" lon="6.65888">
        <ele>323</ele>
        <time>2015-07-08T09:49:16.000Z</time>
      </trkpt>
      <trkpt lat="47.43644" lon="6.65877">
        <ele>323</ele>
        <time>2015-07-08T09:49:17.000Z</time>
      </trkpt>
      <trkpt lat="47.43649" lon="6.65866">
        <ele>323</ele>
        <time>2015-07-08T09:49:18.000Z</time>
      </trkpt>
      <trkpt lat="47.43655" lon="6.65855">
        <ele>323</ele>
        <time>2015-07-08T09:49:19.000Z</time>
      </trkpt>
      <trkpt lat="47.43661" lon="6.65844">
        <ele>323</ele>
        <time>2015-07-08T09:49:20.000Z</time>
      </trkpt>
      <trkpt lat="47.43667" lon="6.65833">
        <ele>322</ele>
        <time>2015-07-08T09:49:21.000Z</time>
      </trkpt>
      <trkpt lat="47.43673" lon="6.65822">
        <ele>322</ele>
        <time>2015-07-08T09:49:22.000Z</time>
      </trkpt>
      <trkpt lat="47.43678" lon="6.65811">
        <ele>322</ele>
        <time>2015-07-08T09:49:23.000Z</time>
      </trkpt>
      <trkpt lat="47.43684" lon="6.658">
        <ele>322</ele>
        <time>2015-07-08T09:49:24.000Z</time>
      </trkpt>
      <trkpt lat="47.43689" lon="6.65789">
        <ele>322</ele>
        <time>2015-07-08T09:49:25.000Z</time>
      </trkpt>
      <trkpt lat="47.43695" lon="6.65778">
        <ele>321</ele>
        <time>2015-07-08T09:49:26.000Z</time>
      </trkpt>
      <trkpt lat="47.43701" lon="6.65767">
        <ele>321</ele>
        <time>2015-07-08T09:49:27.000Z</time>
      </trkpt>
      <trkpt lat="47.43706" lon="6.65756">
        <ele>321</ele>
        <time>2015-07-08T09:49:28.000Z</time>
      </trkpt>
      <trkpt lat="47.43712" lon="6.65745">
        <ele>321</ele>
        <time>2015-07-08T09:49:29.000Z</time>
      </trkpt>
      <trkpt lat="47.43717" lon="6.65734">
        <ele>321</ele>
        <time>2015-07-08T09:49:30.000Z</time>
      </trkpt>
      <trkpt lat="47.43723" lon="6.65723">
        <ele>320</ele>
        <time>2015-07-08T09:49:31.000Z</time>
      </trkpt>
      <trkpt lat="47.43729" lon="6.65711">
        <ele>320</ele>
        <time>2015-07-08T09:49:32.000Z</time>
      </trkpt>
      <trkpt lat="47.43735" lon="6.657">
        <ele>320</ele>
        <time>2015-07-08T09:49:33.000Z</time>
      </trkpt>
      <trkpt lat="47.4374" lon="6.65689">
        <ele>320</ele>
        <time>2015-07-08T09:49:34.000Z</time>
      </trkpt>
      <trkpt lat="47.43746" lon="6.65678">
        <ele>320</ele>
        <time>2015-07-08T09:49:35.000Z</time>
      </trkpt>
      <trkpt lat="47.43752" lon="6.65667">
        <ele>319</ele>
        <time>2015-07-08T09:49:36.000Z</time>
      </trkpt>
      <trkpt lat="47.43758" lon="6.65656">
        <ele>319</ele>
        <time>2015-07-08T09:49:37.000Z</time>
      </trkpt>
      <trkpt lat="47.43763" lon="6.65645">
        <ele>319</ele>
        <time>2015-07-08T09:49:38.000Z</time>
      </trkpt>
      <trkpt lat="47.43769" lon="6.65634">
        <ele>319</ele>
        <time>2015-07-08T09:49:39.000Z</time>
      </trkpt>
      <trkpt lat="47.43774" lon="6.65624">
        <ele>319</ele>
        <time>2015-07-08T09:49:40.000Z</time>
      </trkpt>
      <trkpt lat="47.4378" lon="6.65613">
        <ele>319</ele>
        <time>2015-07-08T09:49:41.000Z</time>
      </trkpt>
      <trkpt lat="47.43786" lon="6.65603">
        <ele>318</ele>
        <time>2015-07-08T09:49:42.000Z</time>
      </trkpt>
      <trkpt lat="47.43791" lon="6.65592">
        <ele>318</ele>
        <time>2015-07-08T09:49:43.000Z</time>
      </trkpt>
      <trkpt lat="47.43797" lon="6.65581">
        <ele>318</ele>
        <time>2015-07-08T09:49:44.000Z</time>
      </trkpt>
      <trkpt lat="47.43803" lon="6.65571">
        <ele>318</ele>
        <time>2015-07-08T09:49:45.000Z</time>
      </trkpt>
      <trkpt lat="47.43809" lon="6.65561">
        <ele>318</ele>
        <time>2015-07-08T09:49:46.000Z</time>
      </trkpt>
      <trkpt lat="47.43816" lon="6.6555">
        <ele>318</ele>
        <time>2015-07-08T09:49:47.000Z</time>
      </trkpt>
      <trkpt lat="47.43822" lon="6.65539">
        <ele>318</ele>
        <time>2015-07-08T09:49:48.000Z</time>
      </trkpt>
      <trkpt lat="47.43828" lon="6.65528">
        <ele>317</ele>
        <time>2015-07-08T09:49:49.000Z</time>
      </trkpt>
      <trkpt lat="47.43835" lon="6.65516">
        <ele>317</ele>
        <time>2015-07-08T09:49:50.000Z</time>
      </trkpt>
      <trkpt lat="47.43841" lon="6.65505">
        <ele>317</ele>
        <time>2015-07-08T09:49:51.000Z</time>
      </trkpt>
      <trkpt lat="47.43848" lon="6.65494">
        <ele>316</ele>
        <time>2015-07-08T09:49:52.000Z</time>
      </trkpt>
      <trkpt lat="47.43854" lon="6.65483">
        <ele>316</ele>
        <time>2015-07-08T09:49:53.000Z</time>
      </trkpt>
      <trkpt lat="47.43861" lon="6.65472">
        <ele>316</ele>
        <time>2015-07-08T09:49:54.000Z</time>
      </trkpt>
      <trkpt lat="47.43868" lon="6.65462">
        <ele>316</ele>
        <time>2015-07-08T09:49:55.000Z</time>
      </trkpt>
      <trkpt lat="47.43875" lon="6.65451">
        <ele>315</ele>
        <time>2015-07-08T09:49:56.000Z</time>
      </trkpt>
      <trkpt lat="47.43881" lon="6.65441">
        <ele>315</ele>
        <time>2015-07-08T09:49:57.000Z</time>
      </trkpt>
      <trkpt lat="47.43888" lon="6.6543">
        <ele>315</ele>
        <time>2015-07-08T09:49:58.000Z</time>
      </trkpt>
      <trkpt lat="47.43895" lon="6.6542">
        <ele>315</ele>
        <time>2015-07-08T09:49:59.000Z</time>
      </trkpt>
      <trkpt lat="47.43902" lon="6.6541">
        <ele>315</ele>
        <time>2015-07-08T09:50:00.000Z</time>
      </trkpt>
      <trkpt lat="47.43908" lon="6.65399">
        <ele>314</ele>
        <time>2015-07-08T09:50:01.000Z</time>
      </trkpt>
      <trkpt lat="47.43915" lon="6.65389">
        <ele>314</ele>
        <time>2015-07-08T09:50:02.000Z</time>
      </trkpt>
      <trkpt lat="47.43922" lon="6.65378">
        <ele>314</ele>
        <time>2015-07-08T09:50:03.000Z</time>
      </trkpt>
      <trkpt lat="47.43928" lon="6.65367">
        <ele>314</ele>
        <time>2015-07-08T09:50:04.000Z</time>
      </trkpt>
      <trkpt lat="47.43935" lon="6.65357">
        <ele>313</ele>
        <time>2015-07-08T09:50:05.000Z</time>
      </trkpt>
      <trkpt lat="47.43942" lon="6.65346">
        <ele>313</ele>
        <time>2015-07-08T09:50:06.000Z</time>
      </trkpt>
      <trkpt lat="47.4395" lon="6.65336">
        <ele>313</ele>
        <time>2015-07-08T09:50:07.000Z</time>
      </trkpt>
      <trkpt lat="47.43957" lon="6.65327">
        <ele>313</ele>
        <time>2015-07-08T09:50:08.000Z</time>
      </trkpt>
      <trkpt lat="47.43965" lon="6.65318">
        <ele>313</ele>
        <time>2015-07-08T09:50:09.000Z</time>
      </trkpt>
      <trkpt lat="47.43973" lon="6.65309">
        <ele>313</ele>
        <time>2015-07-08T09:50:10.000Z</time>
      </trkpt>
      <trkpt lat="47.43981" lon="6.65301">
        <ele>313</ele>
        <time>2015-07-08T09:50:11.000Z</time>
      </trkpt>
      <trkpt lat="47.43989" lon="6.65294">
        <ele>312</ele>
        <time>2015-07-08T09:50:12.000Z</time>
      </trkpt>
      <trkpt lat="47.43997" lon="6.65287">
        <ele>312</ele>
        <time>2015-07-08T09:50:13.000Z</time>
      </trkpt>
      <trkpt lat="47.44006" lon="6.6528">
        <ele>312</ele>
        <time>2015-07-08T09:50:14.000Z</time>
      </trkpt>
      <trkpt lat="47.44013" lon="6.65274">
        <ele>312</ele>
        <time>2015-07-08T09:50:15.000Z</time>
      </trkpt>
      <trkpt lat="47.44021" lon="6.65267">
        <ele>312</ele>
        <time>2015-07-08T09:50:16.000Z</time>
      </trkpt>
      <trkpt lat="47.44028" lon="6.65259">
        <ele>312</ele>
        <time>2015-07-08T09:50:17.000Z</time>
      </trkpt>
      <trkpt lat="47.44034" lon="6.65252">
        <ele>312</ele>
        <time>2015-07-08T09:50:18.000Z</time>
      </trkpt>
      <trkpt lat="47.4404" lon="6.65245">
        <ele>312</ele>
        <time>2015-07-08T09:50:19.000Z</time>
      </trkpt>
      <trkpt lat="47.44046" lon="6.65238">
        <ele>312</ele>
        <time>2015-07-08T09:50:20.000Z</time>
      </trkpt>
      <trkpt lat="47.44051" lon="6.65231">
        <ele>312</ele>
        <time>2015-07-08T09:50:21.000Z</time>
      </trkpt>
      <trkpt lat="47.44056" lon="6.65224">
        <ele>312</ele>
        <time>2015-07-08T09:50:22.000Z</time>
      </trkpt>
      <trkpt lat="47.44061" lon="6.65217">
        <ele>312</ele>
        <time>2015-07-08T09:50:23.000Z</time>
      </trkpt>
      <trkpt lat="47.44066" lon="6.6521">
        <ele>312</ele>
        <time>2015-07-08T09:50:24.000Z</time>
      </trkpt>
      <trkpt lat="47.44071" lon="6.65203">
        <ele>313</ele>
        <time>2015-07-08T09:50:25.000Z</time>
      </trkpt>
      <trkpt lat="47.44075" lon="6.65195">
        <ele>313</ele>
        <time>2015-07-08T09:50:26.000Z</time>
      </trkpt>
      <trkpt lat="47.44079" lon="6.65187">
        <ele>313</ele>
        <time>2015-07-08T09:50:27.000Z</time>
      </trkpt>
      <trkpt lat="47.44084" lon="6.65179">
        <ele>313</ele>
        <time>2015-07-08T09:50:28.000Z</time>
      </trkpt>
      <trkpt lat="47.44088" lon="6.65171">
        <ele>313</ele>
        <time>2015-07-08T09:50:29.000Z</time>
      </trkpt>
      <trkpt lat="47.44092" lon="6.65162">
        <ele>313</ele>
        <time>2015-07-08T09:50:30.000Z</time>
      </trkpt>
      <trkpt lat="47.44096" lon="6.65153">
        <ele>313</ele>
        <time>2015-07-08T09:50:31.000Z</time>
      </trkpt>
      <trkpt lat="47.441" lon="6.65144">
        <ele>313</ele>
        <time>2015-07-08T09:50:32.000Z</time>
      </trkpt>
      <trkpt lat="47.44103" lon="6.65135">
        <ele>313</ele>
        <time>2015-07-08T09:50:33.000Z</time>
      </trkpt>
      <trkpt lat="47.44107" lon="6.65125">
        <ele>313</ele>
        <time>2015-07-08T09:50:34.000Z</time>
      </trkpt>
      <trkpt lat="47.44111" lon="6.65114">
        <ele>313</ele>
        <time>2015-07-08T09:50:35.000Z</time>
      </trkpt>
      <trkpt lat="47.44114" lon="6.65104">
        <ele>313</ele>
        <time>2015-07-08T09:50:36.000Z</time>
      </trkpt>
      <trkpt lat="47.44117" lon="6.65092">
        <ele>313</ele>
        <time>2015-07-08T09:50:37.000Z</time>
      </trkpt>
      <trkpt lat="47.4412" lon="6.6508">
        <ele>313</ele>
        <time>2015-07-08T09:50:38.000Z</time>
      </trkpt>
      <trkpt lat="47.44123" lon="6.65068">
        <ele>313</ele>
        <time>2015-07-08T09:50:39.000Z</time>
      </trkpt>
      <trkpt lat="47.44126" lon="6.65056">
        <ele>313</ele>
        <time>2015-07-08T09:50:40.000Z</time>
      </trkpt>
      <trkpt lat="47.4413" lon="6.65043">
        <ele>312</ele>
        <time>2015-07-08T09:50:41.000Z</time>
      </trkpt>
      <trkpt lat="47.44133" lon="6.6503">
        <ele>312</ele>
        <time>2015-07-08T09:50:42.000Z</time>
      </trkpt>
      <trkpt lat="47.44136" lon="6.65017">
        <ele>312</ele>
        <time>2015-07-08T09:50:43.000Z</time>
      </trkpt>
      <trkpt lat="47.44139" lon="6.65004">
        <ele>313</ele>
        <time>2015-07-08T09:50:44.000Z</time>
      </trkpt>
      <trkpt lat="47.44142" lon="6.64991">
        <ele>313</ele>
        <time>2015-07-08T09:50:45.000Z</time>
      </trkpt>
      <trkpt lat="47.44145" lon="6.64979">
        <ele>313</ele>
        <time>2015-07-08T09:50:46.000Z</time>
      </trkpt>
      <trkpt lat="47.44148" lon="6.64966">
        <ele>313</ele>
        <time>2015-07-08T09:50:47.000Z</time>
      </trkpt>
      <trkpt lat="47.44151" lon="6.64954">
        <ele>313</ele>
        <time>2015-07-08T09:50:48.000Z</time>
      </trkpt>
      <trkpt lat="47.44154" lon="6.64943">
        <ele>313</ele>
        <time>2015-07-08T09:50:49.000Z</time>
      </trkpt>
      <trkpt lat="47.44157" lon="6.64932">
        <ele>314</ele>
        <time>2015-07-08T09:50:50.000Z</time>
      </trkpt>
      <trkpt lat="47.44159" lon="6.64921">
        <ele>314</ele>
        <time>2015-07-08T09:50:51.000Z</time>
      </trkpt>
      <trkpt lat="47.4416" lon="6.64909">
        <ele>314</ele>
        <time>2015-07-08T09:50:52.000Z</time>
      </trkpt>
      <trkpt lat="47.44159" lon="6.64898">
        <ele>314</ele>
        <time>2015-07-08T09:50:53.000Z</time>
      </trkpt>
      <trkpt lat="47.44156" lon="6.64887">
        <ele>314</ele>
        <time>2015-07-08T09:50:54.000Z</time>
      </trkpt>
      <trkpt lat="47.44152" lon="6.64876">
        <ele>314</ele>
        <time>2015-07-08T09:50:55.000Z</time>
      </trkpt>
      <trkpt lat="47.44147" lon="6.64867">
        <ele>314</ele>
        <time>2015-07-08T09:50:56.000Z</time>
      </trkpt>
      <trkpt lat="47.44143" lon="6.64857">
        <ele>314</ele>
        <time>2015-07-08T09:50:57.000Z</time>
      </trkpt>
      <trkpt lat="47.44141" lon="6.64846">
        <ele>314</ele>
        <time>2015-07-08T09:50:58.000Z</time>
      </trkpt>
      <trkpt lat="47.44141" lon="6.64835">
        <ele>314</ele>
        <time>2015-07-08T09:50:59.000Z</time>
      </trkpt>
      <trkpt lat="47.44142" lon="6.64824">
        <ele>314</ele>
        <time>2015-07-08T09:51:00.000Z</time>
      </trkpt>
      <trkpt lat="47.44143" lon="6.64812">
        <ele>314</ele>
        <time>2015-07-08T09:51:01.000Z</time>
      </trkpt>
      <trkpt lat="47.44145" lon="6.648">
        <ele>314</ele>
        <time>2015-07-08T09:51:02.000Z</time>
      </trkpt>
      <trkpt lat="47.44146" lon="6.64789">
        <ele>314</ele>
        <time>2015-07-08T09:51:03.000Z</time>
      </trkpt>
      <trkpt lat="47.44147" lon="6.64777">
        <ele>314</ele>
        <time>2015-07-08T09:51:04.000Z</time>
      </trkpt>
      <trkpt lat="47.44148" lon="6.64766">
        <ele>314</ele>
        <time>2015-07-08T09:51:05.000Z</time>
      </trkpt>
      <trkpt lat="47.44149" lon="6.64756">
        <ele>314</ele>
        <time>2015-07-08T09:51:06.000Z</time>
      </trkpt>
      <trkpt lat="47.44151" lon="6.64745">
        <ele>314</ele>
        <time>2015-07-08T09:51:07.000Z</time>
      </trkpt>
      <trkpt lat="47.44153" lon="6.64735">
        <ele>314</ele>
        <time>2015-07-08T09:51:08.000Z</time>
      </trkpt>
      <trkpt lat="47.44154" lon="6.64725">
        <ele>314</ele>
        <time>2015-07-08T09:51:09.000Z</time>
      </trkpt>
      <trkpt lat="47.44156" lon="6.64715">
        <ele>314</ele>
        <time>2015-07-08T09:51:10.000Z</time>
      </trkpt>
      <trkpt lat="47.44158" lon="6.64705">
        <ele>314</ele>
        <time>2015-07-08T09:51:11.000Z</time>
      </trkpt>
      <trkpt lat="47.44159" lon="6.64695">
        <ele>314</ele>
        <time>2015-07-08T09:51:12.000Z</time>
      </trkpt>
      <trkpt lat="47.44161" lon="6.64685">
        <ele>315</ele>
        <time>2015-07-08T09:51:13.000Z</time>
      </trkpt>
      <trkpt lat="47.44163" lon="6.64675">
        <ele>315</ele>
        <time>2015-07-08T09:51:14.000Z</time>
      </trkpt>
      <trkpt lat="47.44164" lon="6.64665">
        <ele>315</ele>
        <time>2015-07-08T09:51:15.000Z</time>
      </trkpt>
      <trkpt lat="47.44166" lon="6.64655">
        <ele>315</ele>
        <time>2015-07-08T09:51:16.000Z</time>
      </trkpt>
      <trkpt lat="47.44168" lon="6.64646">
        <ele>315</ele>
        <time>2015-07-08T09:51:17.000Z</time>
      </trkpt>
      <trkpt lat="47.44169" lon="6.64636">
        <ele>315</ele>
        <time>2015-07-08T09:51:18.000Z</time>
      </trkpt>
      <trkpt lat="47.4417" lon="6.64626">
        <ele>315</ele>
        <time>2015-07-08T09:51:19.000Z</time>
      </trkpt>
      <trkpt lat="47.44171" lon="6.64617">
        <ele>315</ele>
        <time>2015-07-08T09:51:20.000Z</time>
      </trkpt>
      <trkpt lat="47.44171" lon="6.64607">
        <ele>315</ele>
        <time>2015-07-08T09:51:21.000Z</time>
      </trkpt>
      <trkpt lat="47.44171" lon="6.64597">
        <ele>315</ele>
        <time>2015-07-08T09:51:22.000Z</time>
      </trkpt>
      <trkpt lat="47.4417" lon="6.64587">
        <ele>315</ele>
        <time>2015-07-08T09:51:23.000Z</time>
      </trkpt>
      <trkpt lat="47.44169" lon="6.64578">
        <ele>315</ele>
        <time>2015-07-08T09:51:24.000Z</time>
      </trkpt>
      <trkpt lat="47.44169" lon="6.64568">
        <ele>315</ele>
        <time>2015-07-08T09:51:25.000Z</time>
      </trkpt>
      <trkpt lat="47.44168" lon="6.64558">
        <ele>315</ele>
        <time>2015-07-08T09:51:26.000Z</time>
      </trkpt>
      <trkpt lat="47.44168" lon="6.64548">
        <ele>315</ele>
        <time>2015-07-08T09:51:27.000Z</time>
      </trkpt>
      <trkpt lat="47.44167" lon="6.64538">
        <ele>315</ele>
        <time>2015-07-08T09:51:28.000Z</time>
      </trkpt>
      <trkpt lat="47.44166" lon="6.64527">
        <ele>315</ele>
        <time>2015-07-08T09:51:29.000Z</time>
      </trkpt>
      <trkpt lat="47.44166" lon="6.64517">
        <ele>314</ele>
        <time>2015-07-08T09:51:30.000Z</time>
      </trkpt>
      <trkpt lat="47.44166" lon="6.64507">
        <ele>314</ele>
        <time>2015-07-08T09:51:31.000Z</time>
      </trkpt>
      <trkpt lat="47.44165" lon="6.64496">
        <ele>314</ele>
        <time>2015-07-08T09:51:32.000Z</time>
      </trkpt>
      <trkpt lat="47.44164" lon="6.64486">
        <ele>314</ele>
        <time>2015-07-08T09:51:33.000Z</time>
      </trkpt>
      <trkpt lat="47.44163" lon="6.64476">
        <ele>314</ele>
        <time>2015-07-08T09:51:34.000Z</time>
      </trkpt>
      <trkpt lat="47.44163" lon="6.64465">
        <ele>314</ele>
        <time>2015-07-08T09:51:35.000Z</time>
      </trkpt>
      <trkpt lat="47.44163" lon="6.64455">
        <ele>314</ele>
        <time>2015-07-08T09:51:36.000Z</time>
      </trkpt>
      <trkpt lat="47.44163" lon="6.64444">
        <ele>314</ele>
        <time>2015-07-08T09:51:37.000Z</time>
      </trkpt>
      <trkpt lat="47.44164" lon="6.64433">
        <ele>314</ele>
        <time>2015-07-08T09:51:38.000Z</time>
      </trkpt>
      <trkpt lat="47.44166" lon="6.64423">
        <ele>314</ele>
        <time>2015-07-08T09:51:39.000Z</time>
      </trkpt>
      <trkpt lat="47.44168" lon="6.64413">
        <ele>314</ele>
        <time>2015-07-08T09:51:40.000Z</time>
      </trkpt>
      <trkpt lat="47.4417" lon="6.64403">
        <ele>314</ele>
        <time>2015-07-08T09:51:41.000Z</time>
      </trkpt>
      <trkpt lat="47.44173" lon="6.64394">
        <ele>314</ele>
        <time>2015-07-08T09:51:42.000Z</time>
      </trkpt>
      <trkpt lat="47.44175" lon="6.64385">
        <ele>314</ele>
        <time>2015-07-08T09:51:43.000Z</time>
      </trkpt>
      <trkpt lat="47.44177" lon="6.64375">
        <ele>314</ele>
        <time>2015-07-08T09:51:44.000Z</time>
      </trkpt>
      <trkpt lat="47.44179" lon="6.64366">
        <ele>314</ele>
        <time>2015-07-08T09:51:45.000Z</time>
      </trkpt>
      <trkpt lat="47.4418" lon="6.64357">
        <ele>314</ele>
        <time>2015-07-08T09:51:46.000Z</time>
      </trkpt>
      <trkpt lat="47.44181" lon="6.64347">
        <ele>314</ele>
        <time>2015-07-08T09:51:47.000Z</time>
      </trkpt>
      <trkpt lat="47.44181" lon="6.64338">
        <ele>314</ele>
        <time>2015-07-08T09:51:48.000Z</time>
      </trkpt>
      <trkpt lat="47.44181" lon="6.64328">
        <ele>314</ele>
        <time>2015-07-08T09:51:49.000Z</time>
      </trkpt>
      <trkpt lat="47.4418" lon="6.64319">
        <ele>314</ele>
        <time>2015-07-08T09:51:50.000Z</time>
      </trkpt>
      <trkpt lat="47.4418" lon="6.6431">
        <ele>314</ele>
        <time>2015-07-08T09:51:51.000Z</time>
      </trkpt>
      <trkpt lat="47.4418" lon="6.64301">
        <ele>314</ele>
        <time>2015-07-08T09:51:52.000Z</time>
      </trkpt>
      <trkpt lat="47.4418" lon="6.64292">
        <ele>314</ele>
        <time>2015-07-08T09:51:53.000Z</time>
      </trkpt>
      <trkpt lat="47.44179" lon="6.64283">
        <ele>314</ele>
        <time>2015-07-08T09:51:54.000Z</time>
      </trkpt>
      <trkpt lat="47.44179" lon="6.64274">
        <ele>313</ele>
        <time>2015-07-08T09:51:55.000Z</time>
      </trkpt>
      <trkpt lat="47.44179" lon="6.64264">
        <ele>313</ele>
        <time>2015-07-08T09:51:56.000Z</time>
      </trkpt>
      <trkpt lat="47.44179" lon="6.64254">
        <ele>313</ele>
        <time>2015-07-08T09:51:57.000Z</time>
      </trkpt>
      <trkpt lat="47.44179" lon="6.64245">
        <ele>313</ele>
        <time>2015-07-08T09:51:58.000Z</time>
      </trkpt>
      <trkpt lat="47.44179" lon="6.64235">
        <ele>313</ele>
        <time>2015-07-08T09:51:59.000Z</time>
      </trkpt>
      <trkpt lat="47.44179" lon="6.64226">
        <ele>313</ele>
        <time>2015-07-08T09:52:00.000Z</time>
      </trkpt>
      <trkpt lat="47.4418" lon="6.64217">
        <ele>313</ele>
        <time>2015-07-08T09:52:01.000Z</time>
      </trkpt>
      <trkpt lat="47.44181" lon="6.64208">
        <ele>313</ele>
        <time>2015-07-08T09:52:02.000Z</time>
      </trkpt>
      <trkpt lat="47.44181" lon="6.64198">
        <ele>313</ele>
        <time>2015-07-08T09:52:03.000Z</time>
      </trkpt>
      <trkpt lat="47.44182" lon="6.64189">
        <ele>312</ele>
        <time>2015-07-08T09:52:04.000Z</time>
      </trkpt>
      <trkpt lat="47.44182" lon="6.64179">
        <ele>312</ele>
        <time>2015-07-08T09:52:05.000Z</time>
      </trkpt>
      <trkpt lat="47.44183" lon="6.64168">
        <ele>312</ele>
        <time>2015-07-08T09:52:06.000Z</time>
      </trkpt>
      <trkpt lat="47.44183" lon="6.64158">
        <ele>312</ele>
        <time>2015-07-08T09:52:07.000Z</time>
      </trkpt>
      <trkpt lat="47.44183" lon="6.64147">
        <ele>312</ele>
        <time>2015-07-08T09:52:08.000Z</time>
      </trkpt>
      <trkpt lat="47.44183" lon="6.64137">
        <ele>312</ele>
        <time>2015-07-08T09:52:09.000Z</time>
      </trkpt>
      <trkpt lat="47.44182" lon="6.64126">
        <ele>312</ele>
        <time>2015-07-08T09:52:10.000Z</time>
      </trkpt>
      <trkpt lat="47.4418" lon="6.64116">
        <ele>312</ele>
        <time>2015-07-08T09:52:11.000Z</time>
      </trkpt>
      <trkpt lat="47.44179" lon="6.64106">
        <ele>312</ele>
        <time>2015-07-08T09:52:12.000Z</time>
      </trkpt>
      <trkpt lat="47.44176" lon="6.64096">
        <ele>312</ele>
        <time>2015-07-08T09:52:13.000Z</time>
      </trkpt>
      <trkpt lat="47.44174" lon="6.64086">
        <ele>312</ele>
        <time>2015-07-08T09:52:14.000Z</time>
      </trkpt>
      <trkpt lat="47.44171" lon="6.64077">
        <ele>312</ele>
        <time>2015-07-08T09:52:15.000Z</time>
      </trkpt>
      <trkpt lat="47.44168" lon="6.64068">
        <ele>312</ele>
        <time>2015-07-08T09:52:16.000Z</time>
      </trkpt>
      <trkpt lat="47.44165" lon="6.64059">
        <ele>311</ele>
        <time>2015-07-08T09:52:17.000Z</time>
      </trkpt>
      <trkpt lat="47.44162" lon="6.6405">
        <ele>311</ele>
        <time>2015-07-08T09:52:18.000Z</time>
      </trkpt>
      <trkpt lat="47.4416" lon="6.64041">
        <ele>311</ele>
        <time>2015-07-08T09:52:19.000Z</time>
      </trkpt>
      <trkpt lat="47.44157" lon="6.64031">
        <ele>311</ele>
        <time>2015-07-08T09:52:20.000Z</time>
      </trkpt>
      <trkpt lat="47.44155" lon="6.64021">
        <ele>311</ele>
        <time>2015-07-08T09:52:21.000Z</time>
      </trkpt>
      <trkpt lat="47.44154" lon="6.64011">
        <ele>311</ele>
        <time>2015-07-08T09:52:22.000Z</time>
      </trkpt>
      <trkpt lat="47.44153" lon="6.64001">
        <ele>310</ele>
        <time>2015-07-08T09:52:23.000Z</time>
      </trkpt>
      <trkpt lat="47.44152" lon="6.63991">
        <ele>310</ele>
        <time>2015-07-08T09:52:24.000Z</time>
      </trkpt>
      <trkpt lat="47.44151" lon="6.6398">
        <ele>310</ele>
        <time>2015-07-08T09:52:25.000Z</time>
      </trkpt>
      <trkpt lat="47.4415" lon="6.6397">
        <ele>310</ele>
        <time>2015-07-08T09:52:26.000Z</time>
      </trkpt>
      <trkpt lat="47.44149" lon="6.63959">
        <ele>310</ele>
        <time>2015-07-08T09:52:27.000Z</time>
      </trkpt>
      <trkpt lat="47.44148" lon="6.63949">
        <ele>309</ele>
        <time>2015-07-08T09:52:28.000Z</time>
      </trkpt>
      <trkpt lat="47.44148" lon="6.63938">
        <ele>309</ele>
        <time>2015-07-08T09:52:29.000Z</time>
      </trkpt>
      <trkpt lat="47.44147" lon="6.63928">
        <ele>309</ele>
        <time>2015-07-08T09:52:30.000Z</time>
      </trkpt>
      <trkpt lat="47.44146" lon="6.63918">
        <ele>309</ele>
        <time>2015-07-08T09:52:31.000Z</time>
      </trkpt>
      <trkpt lat="47.44145" lon="6.63907">
        <ele>309</ele>
        <time>2015-07-08T09:52:32.000Z</time>
      </trkpt>
      <trkpt lat="47.44144" lon="6.63897">
        <ele>309</ele>
        <time>2015-07-08T09:52:33.000Z</time>
      </trkpt>
      <trkpt lat="47.44144" lon="6.63887">
        <ele>309</ele>
        <time>2015-07-08T09:52:34.000Z</time>
      </trkpt>
      <trkpt lat="47.44143" lon="6.63877">
        <ele>309</ele>
        <time>2015-07-08T09:52:35.000Z</time>
      </trkpt>
      <trkpt lat="47.44142" lon="6.63866">
        <ele>309</ele>
        <time>2015-07-08T09:52:36.000Z</time>
      </trkpt>
      <trkpt lat="47.44141" lon="6.63856">
        <ele>309</ele>
        <time>2015-07-08T09:52:37.000Z</time>
      </trkpt>
      <trkpt lat="47.44141" lon="6.63845">
        <ele>309</ele>
        <time>2015-07-08T09:52:38.000Z</time>
      </trkpt>
      <trkpt lat="47.4414" lon="6.63835">
        <ele>309</ele>
        <time>2015-07-08T09:52:39.000Z</time>
      </trkpt>
      <trkpt lat="47.44139" lon="6.63823">
        <ele>309</ele>
        <time>2015-07-08T09:52:40.000Z</time>
      </trkpt>
      <trkpt lat="47.44138" lon="6.63812">
        <ele>309</ele>
        <time>2015-07-08T09:52:41.000Z</time>
      </trkpt>
      <trkpt lat="47.44138" lon="6.63801">
        <ele>309</ele>
        <time>2015-07-08T09:52:42.000Z</time>
      </trkpt>
      <trkpt lat="47.44137" lon="6.6379">
        <ele>309</ele>
        <time>2015-07-08T09:52:43.000Z</time>
      </trkpt>
      <trkpt lat="47.44135" lon="6.63778">
        <ele>309</ele>
        <time>2015-07-08T09:52:44.000Z</time>
      </trkpt>
      <trkpt lat="47.44134" lon="6.63767">
        <ele>309</ele>
        <time>2015-07-08T09:52:45.000Z</time>
      </trkpt>
      <trkpt lat="47.44133" lon="6.63756">
        <ele>308</ele>
        <time>2015-07-08T09:52:46.000Z</time>
      </trkpt>
      <trkpt lat="47.44131" lon="6.63745">
        <ele>308</ele>
        <time>2015-07-08T09:52:47.000Z</time>
      </trkpt>
      <trkpt lat="47.44129" lon="6.63734">
        <ele>308</ele>
        <time>2015-07-08T09:52:48.000Z</time>
      </trkpt>
      <trkpt lat="47.44128" lon="6.63723">
        <ele>308</ele>
        <time>2015-07-08T09:52:49.000Z</time>
      </trkpt>
      <trkpt lat="47.44126" lon="6.63712">
        <ele>308</ele>
        <time>2015-07-08T09:52:50.000Z</time>
      </trkpt>
      <trkpt lat="47.44125" lon="6.63701">
        <ele>308</ele>
        <time>2015-07-08T09:52:51.000Z</time>
      </trkpt>
      <trkpt lat="47.44123" lon="6.63691">
        <ele>308</ele>
        <time>2015-07-08T09:52:52.000Z</time>
      </trkpt>
      <trkpt lat="47.44122" lon="6.63681">
        <ele>308</ele>
        <time>2015-07-08T09:52:53.000Z</time>
      </trkpt>
      <trkpt lat="47.4412" lon="6.6367">
        <ele>308</ele>
        <time>2015-07-08T09:52:54.000Z</time>
      </trkpt>
      <trkpt lat="47.44118" lon="6.6366">
        <ele>308</ele>
        <time>2015-07-08T09:52:55.000Z</time>
      </trkpt>
      <trkpt lat="47.44116" lon="6.6365">
        <ele>308</ele>
        <time>2015-07-08T09:52:56.000Z</time>
      </trkpt>
      <trkpt lat="47.44115" lon="6.6364">
        <ele>308</ele>
        <time>2015-07-08T09:52:57.000Z</time>
      </trkpt>
      <trkpt lat="47.44114" lon="6.6363">
        <ele>308</ele>
        <time>2015-07-08T09:52:58.000Z</time>
      </trkpt>
      <trkpt lat="47.44113" lon="6.63621">
        <ele>308</ele>
        <time>2015-07-08T09:52:59.000Z</time>
      </trkpt>
      <trkpt lat="47.44112" lon="6.63612">
        <ele>308</ele>
        <time>2015-07-08T09:53:00.000Z</time>
      </trkpt>
      <trkpt lat="47.44111" lon="6.63603">
        <ele>308</ele>
        <time>2015-07-08T09:53:01.000Z</time>
      </trkpt>
      <trkpt lat="47.4411" lon="6.63594">
        <ele>308</ele>
        <time>2015-07-08T09:53:02.000Z</time>
      </trkpt>
      <trkpt lat="47.44109" lon="6.63585">
        <ele>308</ele>
        <time>2015-07-08T09:53:03.000Z</time>
      </trkpt>
      <trkpt lat="47.44108" lon="6.63577">
        <ele>307</ele>
        <time>2015-07-08T09:53:04.000Z</time>
      </trkpt>
      <trkpt lat="47.44106" lon="6.63568">
        <ele>307</ele>
        <time>2015-07-08T09:53:05.000Z</time>
      </trkpt>
      <trkpt lat="47.44105" lon="6.63559">
        <ele>307</ele>
        <time>2015-07-08T09:53:06.000Z</time>
      </trkpt>
      <trkpt lat="47.44104" lon="6.63549">
        <ele>307</ele>
        <time>2015-07-08T09:53:07.000Z</time>
      </trkpt>
      <trkpt lat="47.44102" lon="6.6354">
        <ele>307</ele>
        <time>2015-07-08T09:53:08.000Z</time>
      </trkpt>
      <trkpt lat="47.44101" lon="6.63531">
        <ele>307</ele>
        <time>2015-07-08T09:53:09.000Z</time>
      </trkpt>
      <trkpt lat="47.441" lon="6.63521">
        <ele>307</ele>
        <time>2015-07-08T09:53:10.000Z</time>
      </trkpt>
      <trkpt lat="47.44099" lon="6.63512">
        <ele>307</ele>
        <time>2015-07-08T09:53:11.000Z</time>
      </trkpt>
      <trkpt lat="47.44098" lon="6.63502">
        <ele>307</ele>
        <time>2015-07-08T09:53:12.000Z</time>
      </trkpt>
      <trkpt lat="47.44097" lon="6.63492">
        <ele>307</ele>
        <time>2015-07-08T09:53:13.000Z</time>
      </trkpt>
      <trkpt lat="47.44096" lon="6.63482">
        <ele>307</ele>
        <time>2015-07-08T09:53:14.000Z</time>
      </trkpt>
      <trkpt lat="47.44096" lon="6.63473">
        <ele>307</ele>
        <time>2015-07-08T09:53:15.000Z</time>
      </trkpt>
      <trkpt lat="47.44095" lon="6.63463">
        <ele>307</ele>
        <time>2015-07-08T09:53:16.000Z</time>
      </trkpt>
      <trkpt lat="47.44095" lon="6.63454">
        <ele>307</ele>
        <time>2015-07-08T09:53:17.000Z</time>
      </trkpt>
      <trkpt lat="47.44095" lon="6.63444">
        <ele>307</ele>
        <time>2015-07-08T09:53:18.000Z</time>
      </trkpt>
      <trkpt lat="47.44094" lon="6.63435">
        <ele>307</ele>
        <time>2015-07-08T09:53:19.000Z</time>
      </trkpt>
      <trkpt lat="47.44094" lon="6.63426">
        <ele>307</ele>
        <time>2015-07-08T09:53:20.000Z</time>
      </trkpt>
      <trkpt lat="47.44093" lon="6.63417">
        <ele>307</ele>
        <time>2015-07-08T09:53:21.000Z</time>
      </trkpt>
      <trkpt lat="47.44093" lon="6.63407">
        <ele>307</ele>
        <time>2015-07-08T09:53:22.000Z</time>
      </trkpt>
      <trkpt lat="47.44092" lon="6.63398">
        <ele>307</ele>
        <time>2015-07-08T09:53:23.000Z</time>
      </trkpt>
      <trkpt lat="47.44092" lon="6.63389">
        <ele>307</ele>
        <time>2015-07-08T09:53:24.000Z</time>
      </trkpt>
      <trkpt lat="47.44091" lon="6.6338">
        <ele>307</ele>
        <time>2015-07-08T09:53:25.000Z</time>
      </trkpt>
      <trkpt lat="47.4409" lon="6.63372">
        <ele>307</ele>
        <time>2015-07-08T09:53:26.000Z</time>
      </trkpt>
      <trkpt lat="47.44088" lon="6.63364">
        <ele>307</ele>
        <time>2015-07-08T09:53:27.000Z</time>
      </trkpt>
      <trkpt lat="47.44086" lon="6.63356">
        <ele>307</ele>
        <time>2015-07-08T09:53:28.000Z</time>
      </trkpt>
      <trkpt lat="47.44084" lon="6.63348">
        <ele>307</ele>
        <time>2015-07-08T09:53:29.000Z</time>
      </trkpt>
      <trkpt lat="47.44081" lon="6.63341">
        <ele>307</ele>
        <time>2015-07-08T09:53:30.000Z</time>
      </trkpt>
      <trkpt lat="47.44079" lon="6.63334">
        <ele>307</ele>
        <time>2015-07-08T09:53:31.000Z</time>
      </trkpt>
      <trkpt lat="47.44076" lon="6.63327">
        <ele>307</ele>
        <time>2015-07-08T09:53:32.000Z</time>
      </trkpt>
      <trkpt lat="47.44074" lon="6.6332">
        <ele>307</ele>
        <time>2015-07-08T09:53:33.000Z</time>
      </trkpt>
      <trkpt lat="47.44071" lon="6.63312">
        <ele>307</ele>
        <time>2015-07-08T09:53:34.000Z</time>
      </trkpt>
      <trkpt lat="47.44069" lon="6.63304">
        <ele>307</ele>
        <time>2015-07-08T09:53:35.000Z</time>
      </trkpt>
      <trkpt lat="47.44066" lon="6.63296">
        <ele>306</ele>
        <time>2015-07-08T09:53:36.000Z</time>
      </trkpt>
      <trkpt lat="47.44063" lon="6.63288">
        <ele>306</ele>
        <time>2015-07-08T09:53:37.000Z</time>
      </trkpt>
      <trkpt lat="47.4406" lon="6.6328">
        <ele>306</ele>
        <time>2015-07-08T09:53:38.000Z</time>
      </trkpt>
      <trkpt lat="47.44057" lon="6.63272">
        <ele>306</ele>
        <time>2015-07-08T09:53:39.000Z</time>
      </trkpt>
      <trkpt lat="47.44053" lon="6.63264">
        <ele>305</ele>
        <time>2015-07-08T09:53:40.000Z</time>
      </trkpt>
      <trkpt lat="47.44048" lon="6.63256">
        <ele>305</ele>
        <time>2015-07-08T09:53:41.000Z</time>
      </trkpt>
      <trkpt lat="47.44043" lon="6.63249">
        <ele>304</ele>
        <time>2015-07-08T09:53:42.000Z</time>
      </trkpt>
      <trkpt lat="47.44036" lon="6.63243">
        <ele>304</ele>
        <time>2015-07-08T09:53:43.000Z</time>
      </trkpt>
      <trkpt lat="47.4403" lon="6.63237">
        <ele>303</ele>
        <time>2015-07-08T09:53:44.000Z</time>
      </trkpt>
      <trkpt lat="47.44023" lon="6.63232">
        <ele>303</ele>
        <time>2015-07-08T09:53:45.000Z</time>
      </trkpt>
      <trkpt lat="47.44016" lon="6.63227">
        <ele>303</ele>
        <time>2015-07-08T09:53:46.000Z</time>
      </trkpt>
      <trkpt lat="47.4401" lon="6.63221">
        <ele>302</ele>
        <time>2015-07-08T09:53:47.000Z</time>
      </trkpt>
      <trkpt lat="47.44003" lon="6.63214">
        <ele>302</ele>
        <time>2015-07-08T09:53:48.000Z</time>
      </trkpt>
      <trkpt lat="47.43998" lon="6.63206">
        <ele>302</ele>
        <time>2015-07-08T09:53:49.000Z</time>
      </trkpt>
      <trkpt lat="47.43993" lon="6.63198">
        <ele>302</ele>
        <time>2015-07-08T09:53:50.000Z</time>
      </trkpt>
      <trkpt lat="47.43988" lon="6.63189">
        <ele>302</ele>
        <time>2015-07-08T09:53:51.000Z</time>
      </trkpt>
      <trkpt lat="47.43983" lon="6.63181">
        <ele>302</ele>
        <time>2015-07-08T09:53:52.000Z</time>
      </trkpt>
      <trkpt lat="47.43979" lon="6.63173">
        <ele>301</ele>
        <time>2015-07-08T09:53:53.000Z</time>
      </trkpt>
      <trkpt lat="47.43975" lon="6.63165">
        <ele>301</ele>
        <time>2015-07-08T09:53:54.000Z</time>
      </trkpt>
      <trkpt lat="47.4397" lon="6.63157">
        <ele>301</ele>
        <time>2015-07-08T09:53:55.000Z</time>
      </trkpt>
      <trkpt lat="47.43966" lon="6.63148">
        <ele>301</ele>
        <time>2015-07-08T09:53:56.000Z</time>
      </trkpt>
      <trkpt lat="47.43963" lon="6.63138">
        <ele>301</ele>
        <time>2015-07-08T09:53:57.000Z</time>
      </trkpt>
      <trkpt lat="47.4396" lon="6.63128">
        <ele>301</ele>
        <time>2015-07-08T09:53:58.000Z</time>
      </trkpt>
      <trkpt lat="47.43959" lon="6.63117">
        <ele>301</ele>
        <time>2015-07-08T09:53:59.000Z</time>
      </trkpt>
      <trkpt lat="47.43959" lon="6.63105">
        <ele>301</ele>
        <time>2015-07-08T09:54:00.000Z</time>
      </trkpt>
      <trkpt lat="47.43958" lon="6.63094">
        <ele>300</ele>
        <time>2015-07-08T09:54:01.000Z</time>
      </trkpt>
      <trkpt lat="47.43958" lon="6.63083">
        <ele>300</ele>
        <time>2015-07-08T09:54:02.000Z</time>
      </trkpt>
      <trkpt lat="47.43957" lon="6.63072">
        <ele>300</ele>
        <time>2015-07-08T09:54:03.000Z</time>
      </trkpt>
      <trkpt lat="47.43956" lon="6.6306">
        <ele>300</ele>
        <time>2015-07-08T09:54:04.000Z</time>
      </trkpt>
      <trkpt lat="47.43955" lon="6.6305">
        <ele>300</ele>
        <time>2015-07-08T09:54:05.000Z</time>
      </trkpt>
      <trkpt lat="47.43953" lon="6.63039">
        <ele>301</ele>
        <time>2015-07-08T09:54:06.000Z</time>
      </trkpt>
      <trkpt lat="47.43952" lon="6.63029">
        <ele>301</ele>
        <time>2015-07-08T09:54:07.000Z</time>
      </trkpt>
      <trkpt lat="47.4395" lon="6.63018">
        <ele>301</ele>
        <time>2015-07-08T09:54:08.000Z</time>
      </trkpt>
      <trkpt lat="47.43949" lon="6.63009">
        <ele>301</ele>
        <time>2015-07-08T09:54:09.000Z</time>
      </trkpt>
      <trkpt lat="47.43946" lon="6.62999">
        <ele>301</ele>
        <time>2015-07-08T09:54:10.000Z</time>
      </trkpt>
      <trkpt lat="47.43943" lon="6.62991">
        <ele>301</ele>
        <time>2015-07-08T09:54:11.000Z</time>
      </trkpt>
      <trkpt lat="47.43939" lon="6.62983">
        <ele>300</ele>
        <time>2015-07-08T09:54:12.000Z</time>
      </trkpt>
      <trkpt lat="47.43935" lon="6.62975">
        <ele>300</ele>
        <time>2015-07-08T09:54:13.000Z</time>
      </trkpt>
      <trkpt lat="47.43929" lon="6.62969">
        <ele>300</ele>
        <time>2015-07-08T09:54:14.000Z</time>
      </trkpt>
      <trkpt lat="47.43923" lon="6.62963">
        <ele>300</ele>
        <time>2015-07-08T09:54:15.000Z</time>
      </trkpt>
      <trkpt lat="47.43917" lon="6.62957">
        <ele>300</ele>
        <time>2015-07-08T09:54:16.000Z</time>
      </trkpt>
      <trkpt lat="47.43912" lon="6.6295">
        <ele>300</ele>
        <time>2015-07-08T09:54:17.000Z</time>
      </trkpt>
      <trkpt lat="47.43907" lon="6.62942">
        <ele>300</ele>
        <time>2015-07-08T09:54:18.000Z</time>
      </trkpt>
      <trkpt lat="47.43903" lon="6.62935">
        <ele>300</ele>
        <time>2015-07-08T09:54:19.000Z</time>
      </trkpt>
      <trkpt lat="47.439" lon="6.62929">
        <ele>300</ele>
        <time>2015-07-08T09:54:20.000Z</time>
      </trkpt>
      <trkpt lat="47.43898" lon="6.62924">
        <ele>300</ele>
        <time>2015-07-08T09:54:21.000Z</time>
      </trkpt>
      <trkpt lat="47.43896" lon="6.6292">
        <ele>300</ele>
        <time>2015-07-08T09:54:22.000Z</time>
      </trkpt>
      <trkpt lat="47.43894" lon="6.62916">
        <ele>300</ele>
        <time>2015-07-08T09:54:23.000Z</time>
      </trkpt>
      <trkpt lat="47.43894" lon="6.62912">
        <ele>300</ele>
        <time>2015-07-08T09:54:24.000Z</time>
      </trkpt>
      <trkpt lat="47.43896" lon="6.62908">
        <ele>300</ele>
        <time>2015-07-08T09:54:25.000Z</time>
      </trkpt>
      <trkpt lat="47.43898" lon="6.62905">
        <ele>300</ele>
        <time>2015-07-08T09:54:26.000Z</time>
      </trkpt>
      <trkpt lat="47.43901" lon="6.629">
        <ele>300</ele>
        <time>2015-07-08T09:54:27.000Z</time>
      </trkpt>
      <trkpt lat="47.43904" lon="6.62895">
        <ele>300</ele>
        <time>2015-07-08T09:54:28.000Z</time>
      </trkpt>
      <trkpt lat="47.43908" lon="6.62891">
        <ele>300</ele>
        <time>2015-07-08T09:54:29.000Z</time>
      </trkpt>
      <trkpt lat="47.43911" lon="6.62886">
        <ele>300</ele>
        <time>2015-07-08T09:54:30.000Z</time>
      </trkpt>
      <trkpt lat="47.43915" lon="6.62881">
        <ele>300</ele>
        <time>2015-07-08T09:54:31.000Z</time>
      </trkpt>
      <trkpt lat="47.43919" lon="6.62875">
        <ele>300</ele>
        <time>2015-07-08T09:54:32.000Z</time>
      </trkpt>
      <trkpt lat="47.43923" lon="6.6287">
        <ele>300</ele>
        <time>2015-07-08T09:54:33.000Z</time>
      </trkpt>
      <trkpt lat="47.43926" lon="6.62864">
        <ele>300</ele>
        <time>2015-07-08T09:54:34.000Z</time>
      </trkpt>
      <trkpt lat="47.4393" lon="6.62859">
        <ele>300</ele>
        <time>2015-07-08T09:54:35.000Z</time>
      </trkpt>
      <trkpt lat="47.43933" lon="6.62854">
        <ele>300</ele>
        <time>2015-07-08T09:54:36.000Z</time>
      </trkpt>
      <trkpt lat="47.43936" lon="6.62849">
        <ele>300</ele>
        <time>2015-07-08T09:54:37.000Z</time>
      </trkpt>
      <trkpt lat="47.43938" lon="6.62844">
        <ele>300</ele>
        <time>2015-07-08T09:54:38.000Z</time>
      </trkpt>
      <trkpt lat="47.4394" lon="6.62841">
        <ele>300</ele>
        <time>2015-07-08T09:54:39.000Z</time>
      </trkpt>
      <trkpt lat="47.43943" lon="6.62837">
        <ele>300</ele>
        <time>2015-07-08T09:54:40.000Z</time>
      </trkpt>
      <trkpt lat="47.43944" lon="6.62834">
        <ele>300</ele>
        <time>2015-07-08T09:54:41.000Z</time>
      </trkpt>
      <trkpt lat="47.43946" lon="6.6283">
        <ele>300</ele>
        <time>2015-07-08T09:54:42.000Z</time>
      </trkpt>
      <trkpt lat="47.43947" lon="6.62827">
        <ele>300</ele>
        <time>2015-07-08T09:54:43.000Z</time>
      </trkpt>
      <trkpt lat="47.43948" lon="6.62824">
        <ele>300</ele>
        <time>2015-07-08T09:54:44.000Z</time>
      </trkpt>
      <trkpt lat="47.43948" lon="6.62821">
        <ele>301</ele>
        <time>2015-07-08T09:54:45.000Z</time>
      </trkpt>
      <trkpt lat="47.43948" lon="6.62818">
        <ele>301</ele>
        <time>2015-07-08T09:54:46.000Z</time>
      </trkpt>
      <trkpt lat="47.43948" lon="6.62815">
        <ele>301</ele>
        <time>2015-07-08T09:54:47.000Z</time>
      </trkpt>
      <trkpt lat="47.43947" lon="6.62813">
        <ele>301</ele>
        <time>2015-07-08T09:54:48.000Z</time>
      </trkpt>
      <trkpt lat="47.43946" lon="6.62811">
        <ele>301</ele>
        <time>2015-07-08T09:54:49.000Z</time>
      </trkpt>
      <trkpt lat="47.43944" lon="6.62811">
        <ele>301</ele>
        <time>2015-07-08T09:54:50.000Z</time>
      </trkpt>
      <trkpt lat="47.43942" lon="6.62811">
        <ele>301</ele>
        <time>2015-07-08T09:54:51.000Z</time>
      </trkpt>
      <trkpt lat="47.4394" lon="6.62813">
        <ele>301</ele>
        <time>2015-07-08T09:54:52.000Z</time>
      </trkpt>
      <trkpt lat="47.43936" lon="6.62813">
        <ele>301</ele>
        <time>2015-07-08T09:54:53.000Z</time>
      </trkpt>
      <trkpt lat="47.43932" lon="6.62814">
        <ele>301</ele>
        <time>2015-07-08T09:54:54.000Z</time>
      </trkpt>
      <trkpt lat="47.43928" lon="6.62815">
        <ele>301</ele>
        <time>2015-07-08T09:54:55.000Z</time>
      </trkpt>
      <trkpt lat="47.43924" lon="6.62817">
        <ele>301</ele>
        <time>2015-07-08T09:54:56.000Z</time>
      </trkpt>
      <trkpt lat="47.4392" lon="6.62818">
        <ele>301</ele>
        <time>2015-07-08T09:54:57.000Z</time>
      </trkpt>
      <trkpt lat="47.43916" lon="6.6282">
        <ele>301</ele>
        <time>2015-07-08T09:54:58.000Z</time>
      </trkpt>
      <trkpt lat="47.43912" lon="6.62822">
        <ele>301</ele>
        <time>2015-07-08T09:54:59.000Z</time>
      </trkpt>
      <trkpt lat="47.43907" lon="6.62825">
        <ele>300</ele>
        <time>2015-07-08T09:55:00.000Z</time>
      </trkpt>
      <trkpt lat="47.43902" lon="6.62827">
        <ele>300</ele>
        <time>2015-07-08T09:55:01.000Z</time>
      </trkpt>
      <trkpt lat="47.43898" lon="6.6283">
        <ele>300</ele>
        <time>2015-07-08T09:55:02.000Z</time>
      </trkpt>
      <trkpt lat="47.43893" lon="6.62833">
        <ele>300</ele>
        <time>2015-07-08T09:55:03.000Z</time>
      </trkpt>
      <trkpt lat="47.43888" lon="6.62836">
        <ele>300</ele>
        <time>2015-07-08T09:55:04.000Z</time>
      </trkpt>
      <trkpt lat="47.43883" lon="6.62839">
        <ele>300</ele>
        <time>2015-07-08T09:55:05.000Z</time>
      </trkpt>
      <trkpt lat="47.43879" lon="6.62842">
        <ele>300</ele>
        <time>2015-07-08T09:55:06.000Z</time>
      </trkpt>
      <trkpt lat="47.43874" lon="6.62845">
        <ele>300</ele>
        <time>2015-07-08T09:55:07.000Z</time>
      </trkpt>
      <trkpt lat="47.43869" lon="6.62847">
        <ele>300</ele>
        <time>2015-07-08T09:55:08.000Z</time>
      </trkpt>
      <trkpt lat="47.43864" lon="6.62849">
        <ele>300</ele>
        <time>2015-07-08T09:55:09.000Z</time>
      </trkpt>
      <trkpt lat="47.43859" lon="6.62852">
        <ele>301</ele>
        <time>2015-07-08T09:55:10.000Z</time>
      </trkpt>
      <trkpt lat="47.43854" lon="6.62855">
        <ele>301</ele>
        <time>2015-07-08T09:55:11.000Z</time>
      </trkpt>
      <trkpt lat="47.43849" lon="6.62858">
        <ele>301</ele>
        <time>2015-07-08T09:55:12.000Z</time>
      </trkpt>
      <trkpt lat="47.43844" lon="6.62861">
        <ele>301</ele>
        <time>2015-07-08T09:55:13.000Z</time>
      </trkpt>
      <trkpt lat="47.43839" lon="6.62864">
        <ele>301</ele>
        <time>2015-07-08T09:55:14.000Z</time>
      </trkpt>
      <trkpt lat="47.43836" lon="6.62868">
        <ele>301</ele>
        <time>2015-07-08T09:55:15.000Z</time>
      </trkpt>
      <trkpt lat="47.43832" lon="6.62871">
        <ele>301</ele>
        <time>2015-07-08T09:55:16.000Z</time>
      </trkpt>
      <trkpt lat="47.43829" lon="6.62874">
        <ele>301</ele>
        <time>2015-07-08T09:55:17.000Z</time>
      </trkpt>
      <trkpt lat="47.43827" lon="6.62877">
        <ele>301</ele>
        <time>2015-07-08T09:55:18.000Z</time>
      </trkpt>
      <trkpt lat="47.43824" lon="6.6288">
        <ele>301</ele>
        <time>2015-07-08T09:55:19.000Z</time>
      </trkpt>
      <trkpt lat="47.43822" lon="6.62882">
        <ele>302</ele>
        <time>2015-07-08T09:55:20.000Z</time>
      </trkpt>
      <trkpt lat="47.4382" lon="6.62884">
        <ele>302</ele>
        <time>2015-07-08T09:55:21.000Z</time>
      </trkpt>
      <trkpt lat="47.43818" lon="6.62886">
        <ele>302</ele>
        <time>2015-07-08T09:55:22.000Z</time>
      </trkpt>
      <trkpt lat="47.43817" lon="6.62888">
        <ele>302</ele>
        <time>2015-07-08T09:55:23.000Z</time>
      </trkpt>
      <trkpt lat="47.43815" lon="6.62889">
        <ele>302</ele>
        <time>2015-07-08T09:55:24.000Z</time>
      </trkpt>
      <trkpt lat="47.43813" lon="6.62891">
        <ele>302</ele>
        <time>2015-07-08T09:55:25.000Z</time>
      </trkpt>
      <trkpt lat="47.43811" lon="6.62892">
        <ele>302</ele>
        <time>2015-07-08T09:55:26.000Z</time>
      </trkpt>
      <trkpt lat="47.43808" lon="6.62894">
        <ele>302</ele>
        <time>2015-07-08T09:55:27.000Z</time>
      </trkpt>
      <trkpt lat="47.43804" lon="6.62897">
        <ele>302</ele>
        <time>2015-07-08T09:55:28.000Z</time>
      </trkpt>
      <trkpt lat="47.43799" lon="6.62899">
        <ele>301</ele>
        <time>2015-07-08T09:55:29.000Z</time>
      </trkpt>
      <trkpt lat="47.43793" lon="6.62902">
        <ele>301</ele>
        <time>2015-07-08T09:55:30.000Z</time>
      </trkpt>
      <trkpt lat="47.43787" lon="6.62906">
        <ele>301</ele>
        <time>2015-07-08T09:55:31.000Z</time>
      </trkpt>
      <trkpt lat="47.4378" lon="6.6291">
        <ele>301</ele>
        <time>2015-07-08T09:55:32.000Z</time>
      </trkpt>
      <trkpt lat="47.43773" lon="6.62914">
        <ele>301</ele>
        <time>2015-07-08T09:55:33.000Z</time>
      </trkpt>
      <trkpt lat="47.43767" lon="6.62918">
        <ele>301</ele>
        <time>2015-07-08T09:55:34.000Z</time>
      </trkpt>
      <trkpt lat="47.4376" lon="6.62922">
        <ele>301</ele>
        <time>2015-07-08T09:55:35.000Z</time>
      </trkpt>
      <trkpt lat="47.43754" lon="6.62927">
        <ele>300</ele>
        <time>2015-07-08T09:55:36.000Z</time>
      </trkpt>
      <trkpt lat="47.43748" lon="6.62931">
        <ele>300</ele>
        <time>2015-07-08T09:55:37.000Z</time>
      </trkpt>
      <trkpt lat="47.43742" lon="6.62935">
        <ele>300</ele>
        <time>2015-07-08T09:55:38.000Z</time>
      </trkpt>
      <trkpt lat="47.43736" lon="6.62939">
        <ele>301</ele>
        <time>2015-07-08T09:55:39.000Z</time>
      </trkpt>
      <trkpt lat="47.4373" lon="6.62943">
        <ele>301</ele>
        <time>2015-07-08T09:55:40.000Z</time>
      </trkpt>
      <trkpt lat="47.43724" lon="6.62947">
        <ele>301</ele>
        <time>2015-07-08T09:55:41.000Z</time>
      </trkpt>
      <trkpt lat="47.43718" lon="6.62951">
        <ele>301</ele>
        <time>2015-07-08T09:55:42.000Z</time>
      </trkpt>
      <trkpt lat="47.43713" lon="6.62954">
        <ele>301</ele>
        <time>2015-07-08T09:55:43.000Z</time>
      </trkpt>
      <trkpt lat="47.43708" lon="6.62958">
        <ele>301</ele>
        <time>2015-07-08T09:55:44.000Z</time>
      </trkpt>
      <trkpt lat="47.43702" lon="6.62961">
        <ele>300</ele>
        <time>2015-07-08T09:55:45.000Z</time>
      </trkpt>
      <trkpt lat="47.43697" lon="6.62964">
        <ele>300</ele>
        <time>2015-07-08T09:55:46.000Z</time>
      </trkpt>
      <trkpt lat="47.43693" lon="6.62967">
        <ele>300</ele>
        <time>2015-07-08T09:55:47.000Z</time>
      </trkpt>
      <trkpt lat="47.43688" lon="6.6297">
        <ele>300</ele>
        <time>2015-07-08T09:55:48.000Z</time>
      </trkpt>
      <trkpt lat="47.43684" lon="6.62973">
        <ele>300</ele>
        <time>2015-07-08T09:55:49.000Z</time>
      </trkpt>
      <trkpt lat="47.43679" lon="6.62976">
        <ele>300</ele>
        <time>2015-07-08T09:55:50.000Z</time>
      </trkpt>
      <trkpt lat="47.43675" lon="6.62978">
        <ele>300</ele>
        <time>2015-07-08T09:55:51.000Z</time>
      </trkpt>
      <trkpt lat="47.43671" lon="6.62981">
        <ele>300</ele>
        <time>2015-07-08T09:55:52.000Z</time>
      </trkpt>
      <trkpt lat="47.43666" lon="6.62984">
        <ele>300</ele>
        <time>2015-07-08T09:55:53.000Z</time>
      </trkpt>
      <trkpt lat="47.43662" lon="6.62986">
        <ele>300</ele>
        <time>2015-07-08T09:55:54.000Z</time>
      </trkpt>
      <trkpt lat="47.43657" lon="6.62989">
        <ele>300</ele>
        <time>2015-07-08T09:55:55.000Z</time>
      </trkpt>
      <trkpt lat="47.43653" lon="6.62991">
        <ele>300</ele>
        <time>2015-07-08T09:55:56.000Z</time>
      </trkpt>
      <trkpt lat="47.43649" lon="6.62993">
        <ele>300</ele>
        <time>2015-07-08T09:55:57.000Z</time>
      </trkpt>
      <trkpt lat="47.43645" lon="6.62996">
        <ele>300</ele>
        <time>2015-07-08T09:55:58.000Z</time>
      </trkpt>
      <trkpt lat="47.43641" lon="6.62998">
        <ele>300</ele>
        <time>2015-07-08T09:55:59.000Z</time>
      </trkpt>
      <trkpt lat="47.43637" lon="6.63001">
        <ele>300</ele>
        <time>2015-07-08T09:56:00.000Z</time>
      </trkpt>
      <trkpt lat="47.43633" lon="6.63004">
        <ele>300</ele>
        <time>2015-07-08T09:56:01.000Z</time>
      </trkpt>
      <trkpt lat="47.43628" lon="6.63006">
        <ele>300</ele>
        <time>2015-07-08T09:56:02.000Z</time>
      </trkpt>
      <trkpt lat="47.43624" lon="6.63009">
        <ele>300</ele>
        <time>2015-07-08T09:56:03.000Z</time>
      </trkpt>
      <trkpt lat="47.4362" lon="6.63012">
        <ele>300</ele>
        <time>2015-07-08T09:56:04.000Z</time>
      </trkpt>
      <trkpt lat="47.43616" lon="6.63014">
        <ele>300</ele>
        <time>2015-07-08T09:56:05.000Z</time>
      </trkpt>
      <trkpt lat="47.43612" lon="6.63017">
        <ele>300</ele>
        <time>2015-07-08T09:56:06.000Z</time>
      </trkpt>
      <trkpt lat="47.43608" lon="6.63019">
        <ele>300</ele>
        <time>2015-07-08T09:56:07.000Z</time>
      </trkpt>
      <trkpt lat="47.43604" lon="6.63022">
        <ele>300</ele>
        <time>2015-07-08T09:56:08.000Z</time>
      </trkpt>
      <trkpt lat="47.436" lon="6.63025">
        <ele>300</ele>
        <time>2015-07-08T09:56:09.000Z</time>
      </trkpt>
      <trkpt lat="47.43597" lon="6.63027">
        <ele>300</ele>
        <time>2015-07-08T09:56:10.000Z</time>
      </trkpt>
      <trkpt lat="47.43593" lon="6.6303">
        <ele>300</ele>
        <time>2015-07-08T09:56:11.000Z</time>
      </trkpt>
      <trkpt lat="47.43589" lon="6.63033">
        <ele>300</ele>
        <time>2015-07-08T09:56:12.000Z</time>
      </trkpt>
      <trkpt lat="47.43585" lon="6.63036">
        <ele>300</ele>
        <time>2015-07-08T09:56:13.000Z</time>
      </trkpt>
      <trkpt lat="47.43582" lon="6.63039">
        <ele>300</ele>
        <time>2015-07-08T09:56:14.000Z</time>
      </trkpt>
      <trkpt lat="47.43578" lon="6.63042">
        <ele>300</ele>
        <time>2015-07-08T09:56:15.000Z</time>
      </trkpt>
      <trkpt lat="47.43574" lon="6.63044">
        <ele>300</ele>
        <time>2015-07-08T09:56:16.000Z</time>
      </trkpt>
      <trkpt lat="47.43572" lon="6.63045">
        <ele>300</ele>
        <time>2015-07-08T09:56:17.000Z</time>
      </trkpt>
      <trkpt lat="47.4357" lon="6.63047">
        <ele>300</ele>
        <time>2015-07-08T09:56:18.000Z</time>
      </trkpt>
      <trkpt lat="47.43569" lon="6.63047">
        <ele>300</ele>
        <time>2015-07-08T09:56:19.000Z</time>
      </trkpt>
      <trkpt lat="47.43569" lon="6.63047">
        <ele>300</ele>
        <time>2015-07-08T09:56:20.000Z</time>
      </trkpt>
      <trkpt lat="47.43568" lon="6.63047">
        <ele>300</ele>
        <time>2015-07-08T09:56:21.000Z</time>
      </trkpt>
      <trkpt lat="47.43568" lon="6.63047">
        <ele>300</ele>
        <time>2015-07-08T09:56:22.000Z</time>
      </trkpt>
      <trkpt lat="47.43568" lon="6.63048">
        <ele>300</ele>
        <time>2015-07-08T09:56:23.000Z</time>
      </trkpt>
      <trkpt lat="47.43568" lon="6.63048">
        <ele>300</ele>
        <time>2015-07-08T09:56:24.000Z</time>
      </trkpt>
      <trkpt lat="47.43568" lon="6.63048">
        <ele>300</ele>
        <time>2015-07-08T09:56:25.000Z</time>
      </trkpt>
      <trkpt lat="47.43568" lon="6.63048">
        <ele>300</ele>
        <time>2015-07-08T09:56:26.000Z</time>
      </trkpt>
      <trkpt lat="47.43568" lon="6.63047">
        <ele>300</ele>
        <time>2015-07-08T09:56:27.000Z</time>
      </trkpt>
      <trkpt lat="47.43567" lon="6.63047">
        <ele>300</ele>
        <time>2015-07-08T09:56:28.000Z</time>
      </trkpt>
      <trkpt lat="47.43567" lon="6.63048">
        <ele>300</ele>
        <time>2015-07-08T09:56:29.000Z</time>
      </trkpt>
      <trkpt lat="47.43567" lon="6.63048">
        <ele>300</ele>
        <time>2015-07-08T09:56:30.000Z</time>
      </trkpt>
      <trkpt lat="47.43568" lon="6.63047">
        <ele>300</ele>
        <time>2015-07-08T09:56:31.000Z</time>
      </trkpt>
      <trkpt lat="47.43569" lon="6.63047">
        <ele>300</ele>
        <time>2015-07-08T09:56:32.000Z</time>
      </trkpt>
      <trkpt lat="47.43571" lon="6.63045">
        <ele>300</ele>
        <time>2015-07-08T09:56:33.000Z</time>
      </trkpt>
      <trkpt lat="47.43573" lon="6.63044">
        <ele>300</ele>
        <time>2015-07-08T09:56:34.000Z</time>
      </trkpt>
      <trkpt lat="47.43575" lon="6.63043">
        <ele>300</ele>
        <time>2015-07-08T09:56:35.000Z</time>
      </trkpt>
      <trkpt lat="47.43577" lon="6.63042">
        <ele>300</ele>
        <time>2015-07-08T09:56:36.000Z</time>
      </trkpt>
      <trkpt lat="47.43577" lon="6.63041">
        <ele>300</ele>
        <time>2015-07-08T09:56:37.000Z</time>
      </trkpt>
      <trkpt lat="47.43576" lon="6.6304">
        <ele>301</ele>
        <time>2015-07-08T09:56:38.000Z</time>
      </trkpt>
      <trkpt lat="47.43575" lon="6.63041">
        <ele>301</ele>
        <time>2015-07-08T09:56:39.000Z</time>
      </trkpt>
      <trkpt lat="47.43574" lon="6.63042">
        <ele>301</ele>
        <time>2015-07-08T09:56:40.000Z</time>
      </trkpt>
      <trkpt lat="47.43572" lon="6.63044">
        <ele>301</ele>
        <time>2015-07-08T09:56:41.000Z</time>
      </trkpt>
      <trkpt lat="47.4357" lon="6.63045">
        <ele>301</ele>
        <time>2015-07-08T09:56:42.000Z</time>
      </trkpt>
      <trkpt lat="47.43569" lon="6.63046">
        <ele>301</ele>
        <time>2015-07-08T09:56:43.000Z</time>
      </trkpt>
      <trkpt lat="47.43567" lon="6.63048">
        <ele>301</ele>
        <time>2015-07-08T09:56:44.000Z</time>
      </trkpt>
      <trkpt lat="47.43565" lon="6.6305">
        <ele>301</ele>
        <time>2015-07-08T09:56:45.000Z</time>
      </trkpt>
      <trkpt lat="47.43563" lon="6.63051">
        <ele>301</ele>
        <time>2015-07-08T09:56:46.000Z</time>
      </trkpt>
      <trkpt lat="47.4356" lon="6.63052">
        <ele>301</ele>
        <time>2015-07-08T09:56:47.000Z</time>
      </trkpt>
      <trkpt lat="47.43559" lon="6.63053">
        <ele>301</ele>
        <time>2015-07-08T09:56:48.000Z</time>
      </trkpt>
      <trkpt lat="47.43557" lon="6.63054">
        <ele>301</ele>
        <time>2015-07-08T09:56:49.000Z</time>
      </trkpt>
      <trkpt lat="47.43556" lon="6.63055">
        <ele>301</ele>
        <time>2015-07-08T09:56:50.000Z</time>
      </trkpt>
      <trkpt lat="47.43555" lon="6.63055">
        <ele>301</ele>
        <time>2015-07-08T09:56:51.000Z</time>
      </trkpt>
      <trkpt lat="47.43555" lon="6.63055">
        <ele>301</ele>
        <time>2015-07-08T09:56:52.000Z</time>
      </trkpt>
      <trkpt lat="47.43555" lon="6.63055">
        <ele>301</ele>
        <time>2015-07-08T09:56:53.000Z</time>
      </trkpt>
      <trkpt lat="47.43555" lon="6.63055">
        <ele>301</ele>
        <time>2015-07-08T09:56:54.000Z</time>
      </trkpt>
      <trkpt lat="47.43555" lon="6.63055">
        <ele>301</ele>
        <time>2015-07-08T09:56:55.000Z</time>
      </trkpt>
      <trkpt lat="47.43555" lon="6.63055">
        <ele>301</ele>
        <time>2015-07-08T09:56:56.000Z</time>
      </trkpt>
      <trkpt lat="47.43554" lon="6.63055">
        <ele>301</ele>
        <time>2015-07-08T09:56:57.000Z</time>
      </trkpt>
      <trkpt lat="47.43552" lon="6.63057">
        <ele>301</ele>
        <time>2015-07-08T09:56:58.000Z</time>
      </trkpt>
      <trkpt lat="47.43551" lon="6.63058">
        <ele>301</ele>
        <time>2015-07-08T09:56:59.000Z</time>
      </trkpt>
      <trkpt lat="47.43549" lon="6.63059">
        <ele>301</ele>
        <time>2015-07-08T09:57:00.000Z</time>
      </trkpt>
      <trkpt lat="47.43548" lon="6.6306">
        <ele>301</ele>
        <time>2015-07-08T09:57:01.000Z</time>
      </trkpt>
      <trkpt lat="47.43546" lon="6.63061">
        <ele>301</ele>
        <time>2015-07-08T09:57:02.000Z</time>
      </trkpt>
      <trkpt lat="47.43544" lon="6.63062">
        <ele>301</ele>
        <time>2015-07-08T09:57:03.000Z</time>
      </trkpt>
      <trkpt lat="47.43542" lon="6.63064">
        <ele>301</ele>
        <time>2015-07-08T09:57:04.000Z</time>
      </trkpt>
      <trkpt lat="47.43539" lon="6.63065">
        <ele>301</ele>
        <time>2015-07-08T09:57:05.000Z</time>
      </trkpt>
      <trkpt lat="47.43536" lon="6.63067">
        <ele>301</ele>
        <time>2015-07-08T09:57:06.000Z</time>
      </trkpt>
      <trkpt lat="47.43532" lon="6.63069">
        <ele>301</ele>
        <time>2015-07-08T09:57:07.000Z</time>
      </trkpt>
      <trkpt lat="47.43529" lon="6.63071">
        <ele>301</ele>
        <time>2015-07-08T09:57:08.000Z</time>
      </trkpt>
      <trkpt lat="47.43525" lon="6.63074">
        <ele>301</ele>
        <time>2015-07-08T09:57:09.000Z</time>
      </trkpt>
      <trkpt lat="47.4352" lon="6.63077">
        <ele>301</ele>
        <time>2015-07-08T09:57:10.000Z</time>
      </trkpt>
      <trkpt lat="47.43516" lon="6.63079">
        <ele>300</ele>
        <time>2015-07-08T09:57:11.000Z</time>
      </trkpt>
      <trkpt lat="47.43511" lon="6.63082">
        <ele>300</ele>
        <time>2015-07-08T09:57:12.000Z</time>
      </trkpt>
      <trkpt lat="47.43507" lon="6.63085">
        <ele>300</ele>
        <time>2015-07-08T09:57:13.000Z</time>
      </trkpt>
      <trkpt lat="47.43501" lon="6.63088">
        <ele>300</ele>
        <time>2015-07-08T09:57:14.000Z</time>
      </trkpt>
      <trkpt lat="47.43496" lon="6.63091">
        <ele>300</ele>
        <time>2015-07-08T09:57:15.000Z</time>
      </trkpt>
      <trkpt lat="47.43491" lon="6.63094">
        <ele>300</ele>
        <time>2015-07-08T09:57:16.000Z</time>
      </trkpt>
      <trkpt lat="47.43486" lon="6.63097">
        <ele>300</ele>
        <time>2015-07-08T09:57:17.000Z</time>
      </trkpt>
      <trkpt lat="47.4348" lon="6.631">
        <ele>300</ele>
        <time>2015-07-08T09:57:18.000Z</time>
      </trkpt>
      <trkpt lat="47.43475" lon="6.63103">
        <ele>299</ele>
        <time>2015-07-08T09:57:19.000Z</time>
      </trkpt>
      <trkpt lat="47.43469" lon="6.63106">
        <ele>299</ele>
        <time>2015-07-08T09:57:20.000Z</time>
      </trkpt>
      <trkpt lat="47.43463" lon="6.63109">
        <ele>299</ele>
        <time>2015-07-08T09:57:21.000Z</time>
      </trkpt>
      <trkpt lat="47.43458" lon="6.63112">
        <ele>299</ele>
        <time>2015-07-08T09:57:22.000Z</time>
      </trkpt>
      <trkpt lat="47.43452" lon="6.63115">
        <ele>299</ele>
        <time>2015-07-08T09:57:23.000Z</time>
      </trkpt>
      <trkpt lat="47.43446" lon="6.63118">
        <ele>299</ele>
        <time>2015-07-08T09:57:24.000Z</time>
      </trkpt>
      <trkpt lat="47.4344" lon="6.63121">
        <ele>299</ele>
        <time>2015-07-08T09:57:25.000Z</time>
      </trkpt>
      <trkpt lat="47.43434" lon="6.63124">
        <ele>299</ele>
        <time>2015-07-08T09:57:26.000Z</time>
      </trkpt>
      <trkpt lat="47.43428" lon="6.63126">
        <ele>299</ele>
        <time>2015-07-08T09:57:27.000Z</time>
      </trkpt>
      <trkpt lat="47.43422" lon="6.63129">
        <ele>299</ele>
        <time>2015-07-08T09:57:28.000Z</time>
      </trkpt>
      <trkpt lat="47.43416" lon="6.63132">
        <ele>299</ele>
        <time>2015-07-08T09:57:29.000Z</time>
      </trkpt>
      <trkpt lat="47.4341" lon="6.63135">
        <ele>299</ele>
        <time>2015-07-08T09:57:30.000Z</time>
      </trkpt>
      <trkpt lat="47.43403" lon="6.63137">
        <ele>299</ele>
        <time>2015-07-08T09:57:31.000Z</time>
      </trkpt>
      <trkpt lat="47.43397" lon="6.6314">
        <ele>299</ele>
        <time>2015-07-08T09:57:32.000Z</time>
      </trkpt>
      <trkpt lat="47.4339" lon="6.63142">
        <ele>299</ele>
        <time>2015-07-08T09:57:33.000Z</time>
      </trkpt>
      <trkpt lat="47.43384" lon="6.63144">
        <ele>299</ele>
        <time>2015-07-08T09:57:34.000Z</time>
      </trkpt>
      <trkpt lat="47.43377" lon="6.63147">
        <ele>299</ele>
        <time>2015-07-08T09:57:35.000Z</time>
      </trkpt>
      <trkpt lat="47.43371" lon="6.63149">
        <ele>299</ele>
        <time>2015-07-08T09:57:36.000Z</time>
      </trkpt>
      <trkpt lat="47.43365" lon="6.63151">
        <ele>299</ele>
        <time>2015-07-08T09:57:37.000Z</time>
      </trkpt>
      <trkpt lat="47.43359" lon="6.63153">
        <ele>299</ele>
        <time>2015-07-08T09:57:38.000Z</time>
      </trkpt>
      <trkpt lat="47.43353" lon="6.63155">
        <ele>299</ele>
        <time>2015-07-08T09:57:39.000Z</time>
      </trkpt>
      <trkpt lat="47.43346" lon="6.63157">
        <ele>299</ele>
        <time>2015-07-08T09:57:40.000Z</time>
      </trkpt>
      <trkpt lat="47.4334" lon="6.63158">
        <ele>299</ele>
        <time>2015-07-08T09:57:41.000Z</time>
      </trkpt>
      <trkpt lat="47.43334" lon="6.6316">
        <ele>300</ele>
        <time>2015-07-08T09:57:42.000Z</time>
      </trkpt>
      <trkpt lat="47.43328" lon="6.63161">
        <ele>300</ele>
        <time>2015-07-08T09:57:43.000Z</time>
      </trkpt>
      <trkpt lat="47.43322" lon="6.63163">
        <ele>300</ele>
        <time>2015-07-08T09:57:44.000Z</time>
      </trkpt>
      <trkpt lat="47.43316" lon="6.63164">
        <ele>300</ele>
        <time>2015-07-08T09:57:45.000Z</time>
      </trkpt>
      <trkpt lat="47.4331" lon="6.63166">
        <ele>300</ele>
        <time>2015-07-08T09:57:46.000Z</time>
      </trkpt>
      <trkpt lat="47.43303" lon="6.63167">
        <ele>300</ele>
        <time>2015-07-08T09:57:47.000Z</time>
      </trkpt>
      <trkpt lat="47.43297" lon="6.63168">
        <ele>300</ele>
        <time>2015-07-08T09:57:48.000Z</time>
      </trkpt>
      <trkpt lat="47.43291" lon="6.63169">
        <ele>300</ele>
        <time>2015-07-08T09:57:49.000Z</time>
      </trkpt>
      <trkpt lat="47.43284" lon="6.6317">
        <ele>300</ele>
        <time>2015-07-08T09:57:50.000Z</time>
      </trkpt>
      <trkpt lat="47.43278" lon="6.63171">
        <ele>300</ele>
        <time>2015-07-08T09:57:51.000Z</time>
      </trkpt>
      <trkpt lat="47.43272" lon="6.63172">
        <ele>300</ele>
        <time>2015-07-08T09:57:52.000Z</time>
      </trkpt>
      <trkpt lat="47.43266" lon="6.63172">
        <ele>300</ele>
        <time>2015-07-08T09:57:53.000Z</time>
      </trkpt>
      <trkpt lat="47.43259" lon="6.63173">
        <ele>300</ele>
        <time>2015-07-08T09:57:54.000Z</time>
      </trkpt>
      <trkpt lat="47.43253" lon="6.63174">
        <ele>300</ele>
        <time>2015-07-08T09:57:55.000Z</time>
      </trkpt>
      <trkpt lat="47.43248" lon="6.63174">
        <ele>300</ele>
        <time>2015-07-08T09:57:56.000Z</time>
      </trkpt>
      <trkpt lat="47.43242" lon="6.63174">
        <ele>300</ele>
        <time>2015-07-08T09:57:57.000Z</time>
      </trkpt>
      <trkpt lat="47.43236" lon="6.63175">
        <ele>300</ele>
        <time>2015-07-08T09:57:58.000Z</time>
      </trkpt>
      <trkpt lat="47.4323" lon="6.63175">
        <ele>300</ele>
        <time>2015-07-08T09:57:59.000Z</time>
      </trkpt>
      <trkpt lat="47.43224" lon="6.63175">
        <ele>300</ele>
        <time>2015-07-08T09:58:00.000Z</time>
      </trkpt>
      <trkpt lat="47.43219" lon="6.63175">
        <ele>300</ele>
        <time>2015-07-08T09:58:01.000Z</time>
      </trkpt>
      <trkpt lat="47.43213" lon="6.63175">
        <ele>300</ele>
        <time>2015-07-08T09:58:02.000Z</time>
      </trkpt>
      <trkpt lat="47.43208" lon="6.63175">
        <ele>300</ele>
        <time>2015-07-08T09:58:03.000Z</time>
      </trkpt>
      <trkpt lat="47.43203" lon="6.63175">
        <ele>300</ele>
        <time>2015-07-08T09:58:04.000Z</time>
      </trkpt>
      <trkpt lat="47.43198" lon="6.63174">
        <ele>301</ele>
        <time>2015-07-08T09:58:05.000Z</time>
      </trkpt>
      <trkpt lat="47.43192" lon="6.63174">
        <ele>301</ele>
        <time>2015-07-08T09:58:06.000Z</time>
      </trkpt>
      <trkpt lat="47.43187" lon="6.63174">
        <ele>301</ele>
        <time>2015-07-08T09:58:07.000Z</time>
      </trkpt>
      <trkpt lat="47.43183" lon="6.63174">
        <ele>301</ele>
        <time>2015-07-08T09:58:08.000Z</time>
      </trkpt>
      <trkpt lat="47.43178" lon="6.63173">
        <ele>301</ele>
        <time>2015-07-08T09:58:09.000Z</time>
      </trkpt>
      <trkpt lat="47.43174" lon="6.63172">
        <ele>300</ele>
        <time>2015-07-08T09:58:10.000Z</time>
      </trkpt>
      <trkpt lat="47.4317" lon="6.63172">
        <ele>300</ele>
        <time>2015-07-08T09:58:11.000Z</time>
      </trkpt>
      <trkpt lat="47.43165" lon="6.63171">
        <ele>300</ele>
        <time>2015-07-08T09:58:12.000Z</time>
      </trkpt>
      <trkpt lat="47.43161" lon="6.63171">
        <ele>300</ele>
        <time>2015-07-08T09:58:13.000Z</time>
      </trkpt>
      <trkpt lat="47.43156" lon="6.6317">
        <ele>300</ele>
        <time>2015-07-08T09:58:14.000Z</time>
      </trkpt>
      <trkpt lat="47.43152" lon="6.63169">
        <ele>300</ele>
        <time>2015-07-08T09:58:15.000Z</time>
      </trkpt>
      <trkpt lat="47.43147" lon="6.63168">
        <ele>300</ele>
        <time>2015-07-08T09:58:16.000Z</time>
      </trkpt>
      <trkpt lat="47.43141" lon="6.63167">
        <ele>300</ele>
        <time>2015-07-08T09:58:17.000Z</time>
      </trkpt>
      <trkpt lat="47.43136" lon="6.63165">
        <ele>300</ele>
        <time>2015-07-08T09:58:18.000Z</time>
      </trkpt>
      <trkpt lat="47.4313" lon="6.63164">
        <ele>300</ele>
        <time>2015-07-08T09:58:19.000Z</time>
      </trkpt>
      <trkpt lat="47.43124" lon="6.63162">
        <ele>300</ele>
        <time>2015-07-08T09:58:20.000Z</time>
      </trkpt>
      <trkpt lat="47.43118" lon="6.6316">
        <ele>300</ele>
        <time>2015-07-08T09:58:21.000Z</time>
      </trkpt>
      <trkpt lat="47.43112" lon="6.63158">
        <ele>300</ele>
        <time>2015-07-08T09:58:22.000Z</time>
      </trkpt>
      <trkpt lat="47.43105" lon="6.63156">
        <ele>300</ele>
        <time>2015-07-08T09:58:23.000Z</time>
      </trkpt>
      <trkpt lat="47.43099" lon="6.63153">
        <ele>300</ele>
        <time>2015-07-08T09:58:24.000Z</time>
      </trkpt>
      <trkpt lat="47.43093" lon="6.63151">
        <ele>300</ele>
        <time>2015-07-08T09:58:25.000Z</time>
      </trkpt>
      <trkpt lat="47.43086" lon="6.63149">
        <ele>300</ele>
        <time>2015-07-08T09:58:26.000Z</time>
      </trkpt>
      <trkpt lat="47.43079" lon="6.63146">
        <ele>300</ele>
        <time>2015-07-08T09:58:27.000Z</time>
      </trkpt>
      <trkpt lat="47.43073" lon="6.63144">
        <ele>300</ele>
        <time>2015-07-08T09:58:28.000Z</time>
      </trkpt>
      <trkpt lat="47.43066" lon="6.63142">
        <ele>300</ele>
        <time>2015-07-08T09:58:29.000Z</time>
      </trkpt>
      <trkpt lat="47.4306" lon="6.6314">
        <ele>300</ele>
        <time>2015-07-08T09:58:30.000Z</time>
      </trkpt>
      <trkpt lat="47.43053" lon="6.63137">
        <ele>300</ele>
        <time>2015-07-08T09:58:31.000Z</time>
      </trkpt>
      <trkpt lat="47.43047" lon="6.63135">
        <ele>300</ele>
        <time>2015-07-08T09:58:32.000Z</time>
      </trkpt>
      <trkpt lat="47.43041" lon="6.63133">
        <ele>300</ele>
        <time>2015-07-08T09:58:33.000Z</time>
      </trkpt>
      <trkpt lat="47.43035" lon="6.6313">
        <ele>300</ele>
        <time>2015-07-08T09:58:34.000Z</time>
      </trkpt>
      <trkpt lat="47.43029" lon="6.63128">
        <ele>300</ele>
        <time>2015-07-08T09:58:35.000Z</time>
      </trkpt>
      <trkpt lat="47.43023" lon="6.63125">
        <ele>300</ele>
        <time>2015-07-08T09:58:36.000Z</time>
      </trkpt>
      <trkpt lat="47.43018" lon="6.63122">
        <ele>300</ele>
        <time>2015-07-08T09:58:37.000Z</time>
      </trkpt>
      <trkpt lat="47.43012" lon="6.63119">
        <ele>300</ele>
        <time>2015-07-08T09:58:38.000Z</time>
      </trkpt>
      <trkpt lat="47.43006" lon="6.63115">
        <ele>300</ele>
        <time>2015-07-08T09:58:39.000Z</time>
      </trkpt>
      <trkpt lat="47.43001" lon="6.63111">
        <ele>300</ele>
        <time>2015-07-08T09:58:40.000Z</time>
      </trkpt>
      <trkpt lat="47.42994" lon="6.63107">
        <ele>300</ele>
        <time>2015-07-08T09:58:41.000Z</time>
      </trkpt>
      <trkpt lat="47.42988" lon="6.63102">
        <ele>299</ele>
        <time>2015-07-08T09:58:42.000Z</time>
      </trkpt>
      <trkpt lat="47.42982" lon="6.63098">
        <ele>299</ele>
        <time>2015-07-08T09:58:43.000Z</time>
      </trkpt>
      <trkpt lat="47.42976" lon="6.63094">
        <ele>299</ele>
        <time>2015-07-08T09:58:44.000Z</time>
      </trkpt>
      <trkpt lat="47.4297" lon="6.63089">
        <ele>299</ele>
        <time>2015-07-08T09:58:45.000Z</time>
      </trkpt>
      <trkpt lat="47.42964" lon="6.63085">
        <ele>299</ele>
        <time>2015-07-08T09:58:46.000Z</time>
      </trkpt>
      <trkpt lat="47.42958" lon="6.6308">
        <ele>299</ele>
        <time>2015-07-08T09:58:47.000Z</time>
      </trkpt>
      <trkpt lat="47.42952" lon="6.63075">
        <ele>299</ele>
        <time>2015-07-08T09:58:48.000Z</time>
      </trkpt>
      <trkpt lat="47.42946" lon="6.6307">
        <ele>299</ele>
        <time>2015-07-08T09:58:49.000Z</time>
      </trkpt>
      <trkpt lat="47.42941" lon="6.63066">
        <ele>299</ele>
        <time>2015-07-08T09:58:50.000Z</time>
      </trkpt>
      <trkpt lat="47.42935" lon="6.63061">
        <ele>299</ele>
        <time>2015-07-08T09:58:51.000Z</time>
      </trkpt>
      <trkpt lat="47.42929" lon="6.63057">
        <ele>299</ele>
        <time>2015-07-08T09:58:52.000Z</time>
      </trkpt>
      <trkpt lat="47.42924" lon="6.63052">
        <ele>299</ele>
        <time>2015-07-08T09:58:53.000Z</time>
      </trkpt>
      <trkpt lat="47.42918" lon="6.63047">
        <ele>299</ele>
        <time>2015-07-08T09:58:54.000Z</time>
      </trkpt>
      <trkpt lat="47.42912" lon="6.63043">
        <ele>299</ele>
        <time>2015-07-08T09:58:55.000Z</time>
      </trkpt>
      <trkpt lat="47.42907" lon="6.63038">
        <ele>299</ele>
        <time>2015-07-08T09:58:56.000Z</time>
      </trkpt>
      <trkpt lat="47.42901" lon="6.63033">
        <ele>299</ele>
        <time>2015-07-08T09:58:57.000Z</time>
      </trkpt>
      <trkpt lat="47.42896" lon="6.63028">
        <ele>299</ele>
        <time>2015-07-08T09:58:58.000Z</time>
      </trkpt>
      <trkpt lat="47.4289" lon="6.63023">
        <ele>299</ele>
        <time>2015-07-08T09:58:59.000Z</time>
      </trkpt>
      <trkpt lat="47.42885" lon="6.63018">
        <ele>299</ele>
        <time>2015-07-08T09:59:00.000Z</time>
      </trkpt>
      <trkpt lat="47.4288" lon="6.63013">
        <ele>299</ele>
        <time>2015-07-08T09:59:01.000Z</time>
      </trkpt>
      <trkpt lat="47.42875" lon="6.63008">
        <ele>299</ele>
        <time>2015-07-08T09:59:02.000Z</time>
      </trkpt>
      <trkpt lat="47.42869" lon="6.63002">
        <ele>299</ele>
        <time>2015-07-08T09:59:03.000Z</time>
      </trkpt>
      <trkpt lat="47.42864" lon="6.62996">
        <ele>299</ele>
        <time>2015-07-08T09:59:04.000Z</time>
      </trkpt>
      <trkpt lat="47.42858" lon="6.62991">
        <ele>299</ele>
        <time>2015-07-08T09:59:05.000Z</time>
      </trkpt>
      <trkpt lat="47.42853" lon="6.62985">
        <ele>299</ele>
        <time>2015-07-08T09:59:06.000Z</time>
      </trkpt>
      <trkpt lat="47.42848" lon="6.62979">
        <ele>299</ele>
        <time>2015-07-08T09:59:07.000Z</time>
      </trkpt>
      <trkpt lat="47.42843" lon="6.62973">
        <ele>299</ele>
        <time>2015-07-08T09:59:08.000Z</time>
      </trkpt>
      <trkpt lat="47.42838" lon="6.62967">
        <ele>299</ele>
        <time>2015-07-08T09:59:09.000Z</time>
      </trkpt>
      <trkpt lat="47.42833" lon="6.62961">
        <ele>299</ele>
        <time>2015-07-08T09:59:10.000Z</time>
      </trkpt>
      <trkpt lat="47.42828" lon="6.62955">
        <ele>299</ele>
        <time>2015-07-08T09:59:11.000Z</time>
      </trkpt>
      <trkpt lat="47.42824" lon="6.6295">
        <ele>299</ele>
        <time>2015-07-08T09:59:12.000Z</time>
      </trkpt>
      <trkpt lat="47.42819" lon="6.62944">
        <ele>299</ele>
        <time>2015-07-08T09:59:13.000Z</time>
      </trkpt>
      <trkpt lat="47.42815" lon="6.62939">
        <ele>298</ele>
        <time>2015-07-08T09:59:14.000Z</time>
      </trkpt>
      <trkpt lat="47.42811" lon="6.62934">
        <ele>298</ele>
        <time>2015-07-08T09:59:15.000Z</time>
      </trkpt>
      <trkpt lat="47.42807" lon="6.62928">
        <ele>298</ele>
        <time>2015-07-08T09:59:16.000Z</time>
      </trkpt>
      <trkpt lat="47.42803" lon="6.62922">
        <ele>298</ele>
        <time>2015-07-08T09:59:17.000Z</time>
      </trkpt>
      <trkpt lat="47.42799" lon="6.62916">
        <ele>298</ele>
        <time>2015-07-08T09:59:18.000Z</time>
      </trkpt>
      <trkpt lat="47.42796" lon="6.6291">
        <ele>298</ele>
        <time>2015-07-08T09:59:19.000Z</time>
      </trkpt>
      <trkpt lat="47.42792" lon="6.62904">
        <ele>298</ele>
        <time>2015-07-08T09:59:20.000Z</time>
      </trkpt>
      <trkpt lat="47.42788" lon="6.62898">
        <ele>298</ele>
        <time>2015-07-08T09:59:21.000Z</time>
      </trkpt>
      <trkpt lat="47.42785" lon="6.62892">
        <ele>298</ele>
        <time>2015-07-08T09:59:22.000Z</time>
      </trkpt>
      <trkpt lat="47.42781" lon="6.62886">
        <ele>298</ele>
        <time>2015-07-08T09:59:23.000Z</time>
      </trkpt>
      <trkpt lat="47.42778" lon="6.6288">
        <ele>298</ele>
        <time>2015-07-08T09:59:24.000Z</time>
      </trkpt>
      <trkpt lat="47.42775" lon="6.62874">
        <ele>298</ele>
        <time>2015-07-08T09:59:25.000Z</time>
      </trkpt>
      <trkpt lat="47.42771" lon="6.62867">
        <ele>298</ele>
        <time>2015-07-08T09:59:26.000Z</time>
      </trkpt>
      <trkpt lat="47.42768" lon="6.62861">
        <ele>298</ele>
        <time>2015-07-08T09:59:27.000Z</time>
      </trkpt>
      <trkpt lat="47.42765" lon="6.62854">
        <ele>298</ele>
        <time>2015-07-08T09:59:28.000Z</time>
      </trkpt>
      <trkpt lat="47.42761" lon="6.62848">
        <ele>298</ele>
        <time>2015-07-08T09:59:29.000Z</time>
      </trkpt>
      <trkpt lat="47.42758" lon="6.62841">
        <ele>298</ele>
        <time>2015-07-08T09:59:30.000Z</time>
      </trkpt>
      <trkpt lat="47.42755" lon="6.62834">
        <ele>298</ele>
        <time>2015-07-08T09:59:31.000Z</time>
      </trkpt>
      <trkpt lat="47.42751" lon="6.62827">
        <ele>298</ele>
        <time>2015-07-08T09:59:32.000Z</time>
      </trkpt>
      <trkpt lat="47.42748" lon="6.6282">
        <ele>298</ele>
        <time>2015-07-08T09:59:33.000Z</time>
      </trkpt>
      <trkpt lat="47.42745" lon="6.62813">
        <ele>298</ele>
        <time>2015-07-08T09:59:34.000Z</time>
      </trkpt>
      <trkpt lat="47.42742" lon="6.62806">
        <ele>298</ele>
        <time>2015-07-08T09:59:35.000Z</time>
      </trkpt>
      <trkpt lat="47.42739" lon="6.62799">
        <ele>299</ele>
        <time>2015-07-08T09:59:36.000Z</time>
      </trkpt>
      <trkpt lat="47.42736" lon="6.62793">
        <ele>299</ele>
        <time>2015-07-08T09:59:37.000Z</time>
      </trkpt>
      <trkpt lat="47.42734" lon="6.62786">
        <ele>299</ele>
        <time>2015-07-08T09:59:38.000Z</time>
      </trkpt>
      <trkpt lat="47.42731" lon="6.6278">
        <ele>299</ele>
        <time>2015-07-08T09:59:39.000Z</time>
      </trkpt>
      <trkpt lat="47.42729" lon="6.62774">
        <ele>299</ele>
        <time>2015-07-08T09:59:40.000Z</time>
      </trkpt>
      <trkpt lat="47.42727" lon="6.62768">
        <ele>299</ele>
        <time>2015-07-08T09:59:41.000Z</time>
      </trkpt>
      <trkpt lat="47.42724" lon="6.62761">
        <ele>299</ele>
        <time>2015-07-08T09:59:42.000Z</time>
      </trkpt>
      <trkpt lat="47.42722" lon="6.62755">
        <ele>299</ele>
        <time>2015-07-08T09:59:43.000Z</time>
      </trkpt>
      <trkpt lat="47.4272" lon="6.62748">
        <ele>299</ele>
        <time>2015-07-08T09:59:44.000Z</time>
      </trkpt>
      <trkpt lat="47.42717" lon="6.62741">
        <ele>299</ele>
        <time>2015-07-08T09:59:45.000Z</time>
      </trkpt>
      <trkpt lat="47.42714" lon="6.62733">
        <ele>299</ele>
        <time>2015-07-08T09:59:46.000Z</time>
      </trkpt>
      <trkpt lat="47.42711" lon="6.62725">
        <ele>299</ele>
        <time>2015-07-08T09:59:47.000Z</time>
      </trkpt>
      <trkpt lat="47.42709" lon="6.62717">
        <ele>299</ele>
        <time>2015-07-08T09:59:48.000Z</time>
      </trkpt>
      <trkpt lat="47.42706" lon="6.62708">
        <ele>299</ele>
        <time>2015-07-08T09:59:49.000Z</time>
      </trkpt>
      <trkpt lat="47.42704" lon="6.627">
        <ele>299</ele>
        <time>2015-07-08T09:59:50.000Z</time>
      </trkpt>
      <trkpt lat="47.42701" lon="6.62692">
        <ele>299</ele>
        <time>2015-07-08T09:59:51.000Z</time>
      </trkpt>
      <trkpt lat="47.42698" lon="6.62683">
        <ele>299</ele>
        <time>2015-07-08T09:59:52.000Z</time>
      </trkpt>
      <trkpt lat="47.42696" lon="6.62674">
        <ele>300</ele>
        <time>2015-07-08T09:59:53.000Z</time>
      </trkpt>
      <trkpt lat="47.42693" lon="6.62665">
        <ele>300</ele>
        <time>2015-07-08T09:59:54.000Z</time>
      </trkpt>
      <trkpt lat="47.42691" lon="6.62656">
        <ele>300</ele>
        <time>2015-07-08T09:59:55.000Z</time>
      </trkpt>
      <trkpt lat="47.42689" lon="6.62646">
        <ele>300</ele>
        <time>2015-07-08T09:59:56.000Z</time>
      </trkpt>
      <trkpt lat="47.42686" lon="6.62637">
        <ele>300</ele>
        <time>2015-07-08T09:59:57.000Z</time>
      </trkpt>
      <trkpt lat="47.42684" lon="6.62627">
        <ele>300</ele>
        <time>2015-07-08T09:59:58.000Z</time>
      </trkpt>
      <trkpt lat="47.42682" lon="6.62617">
        <ele>300</ele>
        <time>2015-07-08T09:59:59.000Z</time>
      </trkpt>
      <trkpt lat="47.42679" lon="6.62608">
        <ele>300</ele>
        <time>2015-07-08T10:00:00.000Z</time>
      </trkpt>
      <trkpt lat="47.42677" lon="6.62598">
        <ele>300</ele>
        <time>2015-07-08T10:00:01.000Z</time>
      </trkpt>
      <trkpt lat="47.42675" lon="6.62588">
        <ele>300</ele>
        <time>2015-07-08T10:00:02.000Z</time>
      </trkpt>
      <trkpt lat="47.42673" lon="6.62578">
        <ele>300</ele>
        <time>2015-07-08T10:00:03.000Z</time>
      </trkpt>
      <trkpt lat="47.42671" lon="6.62568">
        <ele>300</ele>
        <time>2015-07-08T10:00:04.000Z</time>
      </trkpt>
      <trkpt lat="47.42669" lon="6.62559">
        <ele>300</ele>
        <time>2015-07-08T10:00:05.000Z</time>
      </trkpt>
      <trkpt lat="47.42667" lon="6.62549">
        <ele>300</ele>
        <time>2015-07-08T10:00:06.000Z</time>
      </trkpt>
      <trkpt lat="47.42665" lon="6.62539">
        <ele>300</ele>
        <time>2015-07-08T10:00:07.000Z</time>
      </trkpt>
      <trkpt lat="47.42663" lon="6.62529">
        <ele>300</ele>
        <time>2015-07-08T10:00:08.000Z</time>
      </trkpt>
      <trkpt lat="47.42661" lon="6.62519">
        <ele>300</ele>
        <time>2015-07-08T10:00:09.000Z</time>
      </trkpt>
      <trkpt lat="47.4266" lon="6.62509">
        <ele>300</ele>
        <time>2015-07-08T10:00:10.000Z</time>
      </trkpt>
      <trkpt lat="47.42658" lon="6.62499">
        <ele>300</ele>
        <time>2015-07-08T10:00:11.000Z</time>
      </trkpt>
      <trkpt lat="47.42656" lon="6.62489">
        <ele>300</ele>
        <time>2015-07-08T10:00:12.000Z</time>
      </trkpt>
      <trkpt lat="47.42654" lon="6.62479">
        <ele>300</ele>
        <time>2015-07-08T10:00:13.000Z</time>
      </trkpt>
      <trkpt lat="47.42653" lon="6.62469">
        <ele>300</ele>
        <time>2015-07-08T10:00:14.000Z</time>
      </trkpt>
      <trkpt lat="47.42651" lon="6.62459">
        <ele>300</ele>
        <time>2015-07-08T10:00:15.000Z</time>
      </trkpt>
      <trkpt lat="47.4265" lon="6.62449">
        <ele>300</ele>
        <time>2015-07-08T10:00:16.000Z</time>
      </trkpt>
      <trkpt lat="47.42648" lon="6.62439">
        <ele>300</ele>
        <time>2015-07-08T10:00:17.000Z</time>
      </trkpt>
      <trkpt lat="47.42647" lon="6.62429">
        <ele>300</ele>
        <time>2015-07-08T10:00:18.000Z</time>
      </trkpt>
      <trkpt lat="47.42645" lon="6.62419">
        <ele>300</ele>
        <time>2015-07-08T10:00:19.000Z</time>
      </trkpt>
      <trkpt lat="47.42644" lon="6.62409">
        <ele>300</ele>
        <time>2015-07-08T10:00:20.000Z</time>
      </trkpt>
      <trkpt lat="47.42643" lon="6.62399">
        <ele>300</ele>
        <time>2015-07-08T10:00:21.000Z</time>
      </trkpt>
      <trkpt lat="47.42641" lon="6.62389">
        <ele>300</ele>
        <time>2015-07-08T10:00:22.000Z</time>
      </trkpt>
      <trkpt lat="47.4264" lon="6.62379">
        <ele>300</ele>
        <time>2015-07-08T10:00:23.000Z</time>
      </trkpt>
      <trkpt lat="47.42639" lon="6.6237">
        <ele>301</ele>
        <time>2015-07-08T10:00:24.000Z</time>
      </trkpt>
      <trkpt lat="47.42638" lon="6.6236">
        <ele>301</ele>
        <time>2015-07-08T10:00:25.000Z</time>
      </trkpt>
      <trkpt lat="47.42637" lon="6.6235">
        <ele>301</ele>
        <time>2015-07-08T10:00:26.000Z</time>
      </trkpt>
      <trkpt lat="47.42636" lon="6.6234">
        <ele>301</ele>
        <time>2015-07-08T10:00:27.000Z</time>
      </trkpt>
      <trkpt lat="47.42634" lon="6.6233">
        <ele>301</ele>
        <time>2015-07-08T10:00:28.000Z</time>
      </trkpt>
      <trkpt lat="47.42634" lon="6.6232">
        <ele>301</ele>
        <time>2015-07-08T10:00:29.000Z</time>
      </trkpt>
      <trkpt lat="47.42633" lon="6.6231">
        <ele>301</ele>
        <time>2015-07-08T10:00:30.000Z</time>
      </trkpt>
      <trkpt lat="47.42632" lon="6.623">
        <ele>301</ele>
        <time>2015-07-08T10:00:31.000Z</time>
      </trkpt>
      <trkpt lat="47.42631" lon="6.6229">
        <ele>301</ele>
        <time>2015-07-08T10:00:32.000Z</time>
      </trkpt>
      <trkpt lat="47.4263" lon="6.6228">
        <ele>301</ele>
        <time>2015-07-08T10:00:33.000Z</time>
      </trkpt>
      <trkpt lat="47.4263" lon="6.6227">
        <ele>301</ele>
        <time>2015-07-08T10:00:34.000Z</time>
      </trkpt>
      <trkpt lat="47.42629" lon="6.6226">
        <ele>301</ele>
        <time>2015-07-08T10:00:35.000Z</time>
      </trkpt>
      <trkpt lat="47.42628" lon="6.62249">
        <ele>301</ele>
        <time>2015-07-08T10:00:36.000Z</time>
      </trkpt>
      <trkpt lat="47.42627" lon="6.62238">
        <ele>301</ele>
        <time>2015-07-08T10:00:37.000Z</time>
      </trkpt>
      <trkpt lat="47.42627" lon="6.62227">
        <ele>301</ele>
        <time>2015-07-08T10:00:38.000Z</time>
      </trkpt>
      <trkpt lat="47.42626" lon="6.62216">
        <ele>301</ele>
        <time>2015-07-08T10:00:39.000Z</time>
      </trkpt>
      <trkpt lat="47.42626" lon="6.62206">
        <ele>301</ele>
        <time>2015-07-08T10:00:40.000Z</time>
      </trkpt>
      <trkpt lat="47.42625" lon="6.62196">
        <ele>301</ele>
        <time>2015-07-08T10:00:41.000Z</time>
      </trkpt>
      <trkpt lat="47.42624" lon="6.62186">
        <ele>301</ele>
        <time>2015-07-08T10:00:42.000Z</time>
      </trkpt>
      <trkpt lat="47.42623" lon="6.62177">
        <ele>301</ele>
        <time>2015-07-08T10:00:43.000Z</time>
      </trkpt>
      <trkpt lat="47.42623" lon="6.62167">
        <ele>301</ele>
        <time>2015-07-08T10:00:44.000Z</time>
      </trkpt>
      <trkpt lat="47.42622" lon="6.62158">
        <ele>301</ele>
        <time>2015-07-08T10:00:45.000Z</time>
      </trkpt>
      <trkpt lat="47.42622" lon="6.62148">
        <ele>301</ele>
        <time>2015-07-08T10:00:46.000Z</time>
      </trkpt>
      <trkpt lat="47.42622" lon="6.62138">
        <ele>301</ele>
        <time>2015-07-08T10:00:47.000Z</time>
      </trkpt>
      <trkpt lat="47.42621" lon="6.62129">
        <ele>301</ele>
        <time>2015-07-08T10:00:48.000Z</time>
      </trkpt>
      <trkpt lat="47.42621" lon="6.62119">
        <ele>301</ele>
        <time>2015-07-08T10:00:49.000Z</time>
      </trkpt>
      <trkpt lat="47.42621" lon="6.62109">
        <ele>301</ele>
        <time>2015-07-08T10:00:50.000Z</time>
      </trkpt>
      <trkpt lat="47.42621" lon="6.621">
        <ele>301</ele>
        <time>2015-07-08T10:00:51.000Z</time>
      </trkpt>
      <trkpt lat="47.42621" lon="6.6209">
        <ele>301</ele>
        <time>2015-07-08T10:00:52.000Z</time>
      </trkpt>
      <trkpt lat="47.42621" lon="6.6208">
        <ele>301</ele>
        <time>2015-07-08T10:00:53.000Z</time>
      </trkpt>
      <trkpt lat="47.42621" lon="6.6207">
        <ele>301</ele>
        <time>2015-07-08T10:00:54.000Z</time>
      </trkpt>
      <trkpt lat="47.42621" lon="6.6206">
        <ele>301</ele>
        <time>2015-07-08T10:00:55.000Z</time>
      </trkpt>
      <trkpt lat="47.42621" lon="6.62051">
        <ele>301</ele>
        <time>2015-07-08T10:00:56.000Z</time>
      </trkpt>
      <trkpt lat="47.42621" lon="6.62041">
        <ele>301</ele>
        <time>2015-07-08T10:00:57.000Z</time>
      </trkpt>
      <trkpt lat="47.42621" lon="6.62032">
        <ele>301</ele>
        <time>2015-07-08T10:00:58.000Z</time>
      </trkpt>
      <trkpt lat="47.42622" lon="6.62022">
        <ele>301</ele>
        <time>2015-07-08T10:00:59.000Z</time>
      </trkpt>
      <trkpt lat="47.42622" lon="6.62013">
        <ele>301</ele>
        <time>2015-07-08T10:01:00.000Z</time>
      </trkpt>
      <trkpt lat="47.42623" lon="6.62003">
        <ele>301</ele>
        <time>2015-07-08T10:01:01.000Z</time>
      </trkpt>
      <trkpt lat="47.42623" lon="6.61994">
        <ele>301</ele>
        <time>2015-07-08T10:01:02.000Z</time>
      </trkpt>
      <trkpt lat="47.42624" lon="6.61984">
        <ele>301</ele>
        <time>2015-07-08T10:01:03.000Z</time>
      </trkpt>
      <trkpt lat="47.42625" lon="6.61975">
        <ele>301</ele>
        <time>2015-07-08T10:01:04.000Z</time>
      </trkpt>
      <trkpt lat="47.42626" lon="6.61965">
        <ele>301</ele>
        <time>2015-07-08T10:01:05.000Z</time>
      </trkpt>
      <trkpt lat="47.42626" lon="6.61955">
        <ele>301</ele>
        <time>2015-07-08T10:01:06.000Z</time>
      </trkpt>
      <trkpt lat="47.42627" lon="6.61946">
        <ele>301</ele>
        <time>2015-07-08T10:01:07.000Z</time>
      </trkpt>
      <trkpt lat="47.42628" lon="6.61936">
        <ele>301</ele>
        <time>2015-07-08T10:01:08.000Z</time>
      </trkpt>
      <trkpt lat="47.42629" lon="6.61926">
        <ele>301</ele>
        <time>2015-07-08T10:01:09.000Z</time>
      </trkpt>
      <trkpt lat="47.4263" lon="6.61917">
        <ele>301</ele>
        <time>2015-07-08T10:01:10.000Z</time>
      </trkpt>
      <trkpt lat="47.42631" lon="6.61908">
        <ele>301</ele>
        <time>2015-07-08T10:01:11.000Z</time>
      </trkpt>
      <trkpt lat="47.42633" lon="6.61899">
        <ele>301</ele>
        <time>2015-07-08T10:01:12.000Z</time>
      </trkpt>
      <trkpt lat="47.42634" lon="6.6189">
        <ele>301</ele>
        <time>2015-07-08T10:01:13.000Z</time>
      </trkpt>
      <trkpt lat="47.42635" lon="6.61881">
        <ele>301</ele>
        <time>2015-07-08T10:01:14.000Z</time>
      </trkpt>
      <trkpt lat="47.42636" lon="6.61872">
        <ele>301</ele>
        <time>2015-07-08T10:01:15.000Z</time>
      </trkpt>
      <trkpt lat="47.42637" lon="6.61864">
        <ele>301</ele>
        <time>2015-07-08T10:01:16.000Z</time>
      </trkpt>
      <trkpt lat="47.42639" lon="6.61855">
        <ele>301</ele>
        <time>2015-07-08T10:01:17.000Z</time>
      </trkpt>
      <trkpt lat="47.4264" lon="6.61846">
        <ele>301</ele>
        <time>2015-07-08T10:01:18.000Z</time>
      </trkpt>
      <trkpt lat="47.42642" lon="6.61837">
        <ele>301</ele>
        <time>2015-07-08T10:01:19.000Z</time>
      </trkpt>
      <trkpt lat="47.42643" lon="6.61828">
        <ele>301</ele>
        <time>2015-07-08T10:01:20.000Z</time>
      </trkpt>
      <trkpt lat="47.42644" lon="6.61818">
        <ele>301</ele>
        <time>2015-07-08T10:01:21.000Z</time>
      </trkpt>
      <trkpt lat="47.42646" lon="6.61809">
        <ele>300</ele>
        <time>2015-07-08T10:01:22.000Z</time>
      </trkpt>
      <trkpt lat="47.42648" lon="6.618">
        <ele>300</ele>
        <time>2015-07-08T10:01:23.000Z</time>
      </trkpt>
      <trkpt lat="47.42649" lon="6.61791">
        <ele>300</ele>
        <time>2015-07-08T10:01:24.000Z</time>
      </trkpt>
      <trkpt lat="47.42651" lon="6.61782">
        <ele>300</ele>
        <time>2015-07-08T10:01:25.000Z</time>
      </trkpt>
      <trkpt lat="47.42653" lon="6.61772">
        <ele>300</ele>
        <time>2015-07-08T10:01:26.000Z</time>
      </trkpt>
      <trkpt lat="47.42655" lon="6.61763">
        <ele>300</ele>
        <time>2015-07-08T10:01:27.000Z</time>
      </trkpt>
      <trkpt lat="47.42657" lon="6.61754">
        <ele>300</ele>
        <time>2015-07-08T10:01:28.000Z</time>
      </trkpt>
      <trkpt lat="47.42659" lon="6.61745">
        <ele>300</ele>
        <time>2015-07-08T10:01:29.000Z</time>
      </trkpt>
      <trkpt lat="47.42661" lon="6.61735">
        <ele>300</ele>
        <time>2015-07-08T10:01:30.000Z</time>
      </trkpt>
      <trkpt lat="47.42663" lon="6.61726">
        <ele>300</ele>
        <time>2015-07-08T10:01:31.000Z</time>
      </trkpt>
      <trkpt lat="47.42665" lon="6.61717">
        <ele>300</ele>
        <time>2015-07-08T10:01:32.000Z</time>
      </trkpt>
      <trkpt lat="47.42667" lon="6.61708">
        <ele>300</ele>
        <time>2015-07-08T10:01:33.000Z</time>
      </trkpt>
      <trkpt lat="47.42669" lon="6.61698">
        <ele>300</ele>
        <time>2015-07-08T10:01:34.000Z</time>
      </trkpt>
      <trkpt lat="47.42671" lon="6.61689">
        <ele>299</ele>
        <time>2015-07-08T10:01:35.000Z</time>
      </trkpt>
      <trkpt lat="47.42673" lon="6.6168">
        <ele>299</ele>
        <time>2015-07-08T10:01:36.000Z</time>
      </trkpt>
      <trkpt lat="47.42675" lon="6.61671">
        <ele>299</ele>
        <time>2015-07-08T10:01:37.000Z</time>
      </trkpt>
      <trkpt lat="47.42678" lon="6.61661">
        <ele>299</ele>
        <time>2015-07-08T10:01:38.000Z</time>
      </trkpt>
      <trkpt lat="47.4268" lon="6.61652">
        <ele>299</ele>
        <time>2015-07-08T10:01:39.000Z</time>
      </trkpt>
      <trkpt lat="47.42682" lon="6.61643">
        <ele>299</ele>
        <time>2015-07-08T10:01:40.000Z</time>
      </trkpt>
      <trkpt lat="47.42684" lon="6.61634">
        <ele>299</ele>
        <time>2015-07-08T10:01:41.000Z</time>
      </trkpt>
      <trkpt lat="47.42686" lon="6.61624">
        <ele>299</ele>
        <time>2015-07-08T10:01:42.000Z</time>
      </trkpt>
      <trkpt lat="47.42689" lon="6.61615">
        <ele>299</ele>
        <time>2015-07-08T10:01:43.000Z</time>
      </trkpt>
      <trkpt lat="47.42691" lon="6.61606">
        <ele>299</ele>
        <time>2015-07-08T10:01:44.000Z</time>
      </trkpt>
      <trkpt lat="47.42693" lon="6.61597">
        <ele>299</ele>
        <time>2015-07-08T10:01:45.000Z</time>
      </trkpt>
      <trkpt lat="47.42696" lon="6.61587">
        <ele>299</ele>
        <time>2015-07-08T10:01:46.000Z</time>
      </trkpt>
      <trkpt lat="47.42698" lon="6.61578">
        <ele>299</ele>
        <time>2015-07-08T10:01:47.000Z</time>
      </trkpt>
      <trkpt lat="47.42701" lon="6.61568">
        <ele>299</ele>
        <time>2015-07-08T10:01:48.000Z</time>
      </trkpt>
      <trkpt lat="47.42703" lon="6.61559">
        <ele>299</ele>
        <time>2015-07-08T10:01:49.000Z</time>
      </trkpt>
      <trkpt lat="47.42706" lon="6.61549">
        <ele>299</ele>
        <time>2015-07-08T10:01:50.000Z</time>
      </trkpt>
      <trkpt lat="47.42708" lon="6.61539">
        <ele>299</ele>
        <time>2015-07-08T10:01:51.000Z</time>
      </trkpt>
      <trkpt lat="47.42711" lon="6.6153">
        <ele>299</ele>
        <time>2015-07-08T10:01:52.000Z</time>
      </trkpt>
      <trkpt lat="47.42713" lon="6.6152">
        <ele>299</ele>
        <time>2015-07-08T10:01:53.000Z</time>
      </trkpt>
      <trkpt lat="47.42716" lon="6.61511">
        <ele>299</ele>
        <time>2015-07-08T10:01:54.000Z</time>
      </trkpt>
      <trkpt lat="47.42719" lon="6.61502">
        <ele>299</ele>
        <time>2015-07-08T10:01:55.000Z</time>
      </trkpt>
      <trkpt lat="47.42722" lon="6.61493">
        <ele>299</ele>
        <time>2015-07-08T10:01:56.000Z</time>
      </trkpt>
      <trkpt lat="47.42725" lon="6.61484">
        <ele>299</ele>
        <time>2015-07-08T10:01:57.000Z</time>
      </trkpt>
      <trkpt lat="47.42727" lon="6.61476">
        <ele>299</ele>
        <time>2015-07-08T10:01:58.000Z</time>
      </trkpt>
      <trkpt lat="47.4273" lon="6.61467">
        <ele>299</ele>
        <time>2015-07-08T10:01:59.000Z</time>
      </trkpt>
      <trkpt lat="47.42732" lon="6.61459">
        <ele>299</ele>
        <time>2015-07-08T10:02:00.000Z</time>
      </trkpt>
      <trkpt lat="47.42734" lon="6.61452">
        <ele>299</ele>
        <time>2015-07-08T10:02:01.000Z</time>
      </trkpt>
      <trkpt lat="47.42736" lon="6.61445">
        <ele>299</ele>
        <time>2015-07-08T10:02:02.000Z</time>
      </trkpt>
      <trkpt lat="47.42738" lon="6.61438">
        <ele>299</ele>
        <time>2015-07-08T10:02:03.000Z</time>
      </trkpt>
      <trkpt lat="47.4274" lon="6.61432">
        <ele>299</ele>
        <time>2015-07-08T10:02:04.000Z</time>
      </trkpt>
      <trkpt lat="47.42742" lon="6.61426">
        <ele>299</ele>
        <time>2015-07-08T10:02:05.000Z</time>
      </trkpt>
      <trkpt lat="47.42744" lon="6.61421">
        <ele>299</ele>
        <time>2015-07-08T10:02:06.000Z</time>
      </trkpt>
      <trkpt lat="47.42746" lon="6.61416">
        <ele>299</ele>
        <time>2015-07-08T10:02:07.000Z</time>
      </trkpt>
      <trkpt lat="47.42747" lon="6.61411">
        <ele>299</ele>
        <time>2015-07-08T10:02:08.000Z</time>
      </trkpt>
      <trkpt lat="47.42749" lon="6.61406">
        <ele>299</ele>
        <time>2015-07-08T10:02:09.000Z</time>
      </trkpt>
      <trkpt lat="47.42749" lon="6.61403">
        <ele>299</ele>
        <time>2015-07-08T10:02:10.000Z</time>
      </trkpt>
      <trkpt lat="47.4275" lon="6.614">
        <ele>300</ele>
        <time>2015-07-08T10:02:11.000Z</time>
      </trkpt>
      <trkpt lat="47.4275" lon="6.61399">
        <ele>300</ele>
        <time>2015-07-08T10:02:12.000Z</time>
      </trkpt>
      <trkpt lat="47.4275" lon="6.61399">
        <ele>300</ele>
        <time>2015-07-08T10:02:13.000Z</time>
      </trkpt>
      <trkpt lat="47.4275" lon="6.61399">
        <ele>300</ele>
        <time>2015-07-08T10:02:14.000Z</time>
      </trkpt>
      <trkpt lat="47.4275" lon="6.61398">
        <ele>300</ele>
        <time>2015-07-08T10:02:15.000Z</time>
      </trkpt>
      <trkpt lat="47.4275" lon="6.61398">
        <ele>300</ele>
        <time>2015-07-08T10:02:16.000Z</time>
      </trkpt>
      <trkpt lat="47.4275" lon="6.61398">
        <ele>300</ele>
        <time>2015-07-08T10:02:17.000Z</time>
      </trkpt>
      <trkpt lat="47.4275" lon="6.61398">
        <ele>300</ele>
        <time>2015-07-08T10:02:18.000Z</time>
      </trkpt>
      <trkpt lat="47.4275" lon="6.61398">
        <ele>300</ele>
        <time>2015-07-08T10:02:19.000Z</time>
      </trkpt>
      <trkpt lat="47.4275" lon="6.61398">
        <ele>301</ele>
        <time>2015-07-08T10:02:20.000Z</time>
      </trkpt>
      <trkpt lat="47.42749" lon="6.61398">
        <ele>301</ele>
        <time>2015-07-08T10:02:21.000Z</time>
      </trkpt>
      <trkpt lat="47.42749" lon="6.61398">
        <ele>301</ele>
        <time>2015-07-08T10:02:22.000Z</time>
      </trkpt>
      <trkpt lat="47.42749" lon="6.61398">
        <ele>301</ele>
        <time>2015-07-08T10:02:23.000Z</time>
      </trkpt>
      <trkpt lat="47.42749" lon="6.61398">
        <ele>301</ele>
        <time>2015-07-08T10:02:24.000Z</time>
      </trkpt>
      <trkpt lat="47.42749" lon="6.61399">
        <ele>301</ele>
        <time>2015-07-08T10:02:25.000Z</time>
      </trkpt>
      <trkpt lat="47.42749" lon="6.61399">
        <ele>301</ele>
        <time>2015-07-08T10:02:26.000Z</time>
      </trkpt>
      <trkpt lat="47.42749" lon="6.61398">
        <ele>301</ele>
        <time>2015-07-08T10:02:27.000Z</time>
      </trkpt>
      <trkpt lat="47.42749" lon="6.61399">
        <ele>301</ele>
        <time>2015-07-08T10:02:28.000Z</time>
      </trkpt>
      <trkpt lat="47.42749" lon="6.61399">
        <ele>302</ele>
        <time>2015-07-08T10:02:29.000Z</time>
      </trkpt>
      <trkpt lat="47.42749" lon="6.61399">
        <ele>302</ele>
        <time>2015-07-08T10:02:30.000Z</time>
      </trkpt>
      <trkpt lat="47.42749" lon="6.61399">
        <ele>302</ele>
        <time>2015-07-08T10:02:31.000Z</time>
      </trkpt>
      <trkpt lat="47.42749" lon="6.61399">
        <ele>302</ele>
        <time>2015-07-08T10:02:32.000Z</time>
      </trkpt>
      <trkpt lat="47.42749" lon="6.61399">
        <ele>302</ele>
        <time>2015-07-08T10:02:33.000Z</time>
      </trkpt>
      <trkpt lat="47.42749" lon="6.61399">
        <ele>302</ele>
        <time>2015-07-08T10:02:34.000Z</time>
      </trkpt>
      <trkpt lat="47.42749" lon="6.61399">
        <ele>302</ele>
        <time>2015-07-08T10:02:35.000Z</time>
      </trkpt>
      <trkpt lat="47.42749" lon="6.61399">
        <ele>302</ele>
        <time>2015-07-08T10:02:36.000Z</time>
      </trkpt>
      <trkpt lat="47.42749" lon="6.61399">
        <ele>302</ele>
        <time>2015-07-08T10:02:37.000Z</time>
      </trkpt>
      <trkpt lat="47.42749" lon="6.61399">
        <ele>302</ele>
        <time>2015-07-08T10:02:38.000Z</time>
      </trkpt>
      <trkpt lat="47.42749" lon="6.61399">
        <ele>302</ele>
        <time>2015-07-08T10:02:39.000Z</time>
      </trkpt>
      <trkpt lat="47.42749" lon="6.61399">
        <ele>302</ele>
        <time>2015-07-08T10:02:40.000Z</time>
      </trkpt>
      <trkpt lat="47.42749" lon="6.61398">
        <ele>302</ele>
        <time>2015-07-08T10:02:41.000Z</time>
      </trkpt>
      <trkpt lat="47.4275" lon="6.61398">
        <ele>302</ele>
        <time>2015-07-08T10:02:42.000Z</time>
      </trkpt>
      <trkpt lat="47.4275" lon="6.61397">
        <ele>302</ele>
        <time>2015-07-08T10:02:43.000Z</time>
      </trkpt>
      <trkpt lat="47.42751" lon="6.61395">
        <ele>302</ele>
        <time>2015-07-08T10:02:44.000Z</time>
      </trkpt>
      <trkpt lat="47.42752" lon="6.61393">
        <ele>302</ele>
        <time>2015-07-08T10:02:45.000Z</time>
      </trkpt>
      <trkpt lat="47.42753" lon="6.61391">
        <ele>302</ele>
        <time>2015-07-08T10:02:46.000Z</time>
      </trkpt>
      <trkpt lat="47.42754" lon="6.61389">
        <ele>302</ele>
        <time>2015-07-08T10:02:47.000Z</time>
      </trkpt>
      <trkpt lat="47.42754" lon="6.61387">
        <ele>302</ele>
        <time>2015-07-08T10:02:48.000Z</time>
      </trkpt>
      <trkpt lat="47.42755" lon="6.61385">
        <ele>303</ele>
        <time>2015-07-08T10:02:49.000Z</time>
      </trkpt>
      <trkpt lat="47.42756" lon="6.61383">
        <ele>303</ele>
        <time>2015-07-08T10:02:50.000Z</time>
      </trkpt>
      <trkpt lat="47.42757" lon="6.61381">
        <ele>303</ele>
        <time>2015-07-08T10:02:51.000Z</time>
      </trkpt>
      <trkpt lat="47.42757" lon="6.61379">
        <ele>303</ele>
        <time>2015-07-08T10:02:52.000Z</time>
      </trkpt>
      <trkpt lat="47.42758" lon="6.61377">
        <ele>303</ele>
        <time>2015-07-08T10:02:53.000Z</time>
      </trkpt>
      <trkpt lat="47.42759" lon="6.61375">
        <ele>303</ele>
        <time>2015-07-08T10:02:54.000Z</time>
      </trkpt>
      <trkpt lat="47.4276" lon="6.61372">
        <ele>303</ele>
        <time>2015-07-08T10:02:55.000Z</time>
      </trkpt>
      <trkpt lat="47.42761" lon="6.6137">
        <ele>303</ele>
        <time>2015-07-08T10:02:56.000Z</time>
      </trkpt>
      <trkpt lat="47.42762" lon="6.61367">
        <ele>304</ele>
        <time>2015-07-08T10:02:57.000Z</time>
      </trkpt>
      <trkpt lat="47.42763" lon="6.61363">
        <ele>304</ele>
        <time>2015-07-08T10:02:58.000Z</time>
      </trkpt>
      <trkpt lat="47.42764" lon="6.6136">
        <ele>304</ele>
        <time>2015-07-08T10:02:59.000Z</time>
      </trkpt>
      <trkpt lat="47.42765" lon="6.61357">
        <ele>304</ele>
        <time>2015-07-08T10:03:00.000Z</time>
      </trkpt>
      <trkpt lat="47.42766" lon="6.61354">
        <ele>304</ele>
        <time>2015-07-08T10:03:01.000Z</time>
      </trkpt>
      <trkpt lat="47.42767" lon="6.61351">
        <ele>304</ele>
        <time>2015-07-08T10:03:02.000Z</time>
      </trkpt>
      <trkpt lat="47.42769" lon="6.61348">
        <ele>304</ele>
        <time>2015-07-08T10:03:03.000Z</time>
      </trkpt>
      <trkpt lat="47.4277" lon="6.61345">
        <ele>305</ele>
        <time>2015-07-08T10:03:04.000Z</time>
      </trkpt>
      <trkpt lat="47.42771" lon="6.61342">
        <ele>305</ele>
        <time>2015-07-08T10:03:05.000Z</time>
      </trkpt>
      <trkpt lat="47.42772" lon="6.61338">
        <ele>305</ele>
        <time>2015-07-08T10:03:06.000Z</time>
      </trkpt>
      <trkpt lat="47.42774" lon="6.61335">
        <ele>305</ele>
        <time>2015-07-08T10:03:07.000Z</time>
      </trkpt>
      <trkpt lat="47.42775" lon="6.61331">
        <ele>305</ele>
        <time>2015-07-08T10:03:08.000Z</time>
      </trkpt>
      <trkpt lat="47.42776" lon="6.61328">
        <ele>304</ele>
        <time>2015-07-08T10:03:09.000Z</time>
      </trkpt>
      <trkpt lat="47.42777" lon="6.61325">
        <ele>304</ele>
        <time>2015-07-08T10:03:10.000Z</time>
      </trkpt>
      <trkpt lat="47.42778" lon="6.61322">
        <ele>304</ele>
        <time>2015-07-08T10:03:11.000Z</time>
      </trkpt>
      <trkpt lat="47.42779" lon="6.61319">
        <ele>304</ele>
        <time>2015-07-08T10:03:12.000Z</time>
      </trkpt>
      <trkpt lat="47.4278" lon="6.61316">
        <ele>304</ele>
        <time>2015-07-08T10:03:13.000Z</time>
      </trkpt>
      <trkpt lat="47.42781" lon="6.61313">
        <ele>304</ele>
        <time>2015-07-08T10:03:14.000Z</time>
      </trkpt>
      <trkpt lat="47.42782" lon="6.6131">
        <ele>304</ele>
        <time>2015-07-08T10:03:15.000Z</time>
      </trkpt>
      <trkpt lat="47.42783" lon="6.61307">
        <ele>304</ele>
        <time>2015-07-08T10:03:16.000Z</time>
      </trkpt>
      <trkpt lat="47.42784" lon="6.61303">
        <ele>304</ele>
        <time>2015-07-08T10:03:17.000Z</time>
      </trkpt>
      <trkpt lat="47.42785" lon="6.613">
        <ele>304</ele>
        <time>2015-07-08T10:03:18.000Z</time>
      </trkpt>
      <trkpt lat="47.42786" lon="6.61298">
        <ele>304</ele>
        <time>2015-07-08T10:03:19.000Z</time>
      </trkpt>
      <trkpt lat="47.42787" lon="6.61296">
        <ele>304</ele>
        <time>2015-07-08T10:03:20.000Z</time>
      </trkpt>
      <trkpt lat="47.42787" lon="6.61294">
        <ele>304</ele>
        <time>2015-07-08T10:03:21.000Z</time>
      </trkpt>
      <trkpt lat="47.42788" lon="6.61293">
        <ele>304</ele>
        <time>2015-07-08T10:03:22.000Z</time>
      </trkpt>
      <trkpt lat="47.42789" lon="6.61292">
        <ele>304</ele>
        <time>2015-07-08T10:03:23.000Z</time>
      </trkpt>
      <trkpt lat="47.4279" lon="6.61291">
        <ele>304</ele>
        <time>2015-07-08T10:03:24.000Z</time>
      </trkpt>
      <trkpt lat="47.4279" lon="6.61291">
        <ele>304</ele>
        <time>2015-07-08T10:03:25.000Z</time>
      </trkpt>
      <trkpt lat="47.42791" lon="6.61291">
        <ele>304</ele>
        <time>2015-07-08T10:03:26.000Z</time>
      </trkpt>
      <trkpt lat="47.42791" lon="6.61291">
        <ele>303</ele>
        <time>2015-07-08T10:03:27.000Z</time>
      </trkpt>
      <trkpt lat="47.42791" lon="6.61291">
        <ele>303</ele>
        <time>2015-07-08T10:03:28.000Z</time>
      </trkpt>
      <trkpt lat="47.42791" lon="6.61291">
        <ele>303</ele>
        <time>2015-07-08T10:03:29.000Z</time>
      </trkpt>
      <trkpt lat="47.42791" lon="6.61291">
        <ele>303</ele>
        <time>2015-07-08T10:03:30.000Z</time>
      </trkpt>
      <trkpt lat="47.42791" lon="6.61291">
        <ele>303</ele>
        <time>2015-07-08T10:03:31.000Z</time>
      </trkpt>
      <trkpt lat="47.42792" lon="6.61292">
        <ele>303</ele>
        <time>2015-07-08T10:03:32.000Z</time>
      </trkpt>
      <trkpt lat="47.42793" lon="6.61292">
        <ele>303</ele>
        <time>2015-07-08T10:03:33.000Z</time>
      </trkpt>
      <trkpt lat="47.42795" lon="6.61293">
        <ele>303</ele>
        <time>2015-07-08T10:03:34.000Z</time>
      </trkpt>
      <trkpt lat="47.42797" lon="6.61294">
        <ele>302</ele>
        <time>2015-07-08T10:03:35.000Z</time>
      </trkpt>
      <trkpt lat="47.42799" lon="6.61295">
        <ele>302</ele>
        <time>2015-07-08T10:03:36.000Z</time>
      </trkpt>
      <trkpt lat="47.42802" lon="6.61297">
        <ele>302</ele>
        <time>2015-07-08T10:03:37.000Z</time>
      </trkpt>
      <trkpt lat="47.42805" lon="6.613">
        <ele>302</ele>
        <time>2015-07-08T10:03:38.000Z</time>
      </trkpt>
      <trkpt lat="47.42808" lon="6.61302">
        <ele>302</ele>
        <time>2015-07-08T10:03:39.000Z</time>
      </trkpt>
      <trkpt lat="47.42812" lon="6.61302">
        <ele>301</ele>
        <time>2015-07-08T10:03:40.000Z</time>
      </trkpt>
      <trkpt lat="47.42816" lon="6.61299">
        <ele>301</ele>
        <time>2015-07-08T10:03:41.000Z</time>
      </trkpt>
      <trkpt lat="47.42819" lon="6.61293">
        <ele>300</ele>
        <time>2015-07-08T10:03:42.000Z</time>
      </trkpt>
      <trkpt lat="47.42821" lon="6.61285">
        <ele>300</ele>
        <time>2015-07-08T10:03:43.000Z</time>
      </trkpt>
      <trkpt lat="47.42823" lon="6.61275">
        <ele>299</ele>
        <time>2015-07-08T10:03:44.000Z</time>
      </trkpt>
      <trkpt lat="47.42826" lon="6.61264">
        <ele>299</ele>
        <time>2015-07-08T10:03:45.000Z</time>
      </trkpt>
      <trkpt lat="47.42829" lon="6.61254">
        <ele>299</ele>
        <time>2015-07-08T10:03:46.000Z</time>
      </trkpt>
      <trkpt lat="47.42833" lon="6.61243">
        <ele>298</ele>
        <time>2015-07-08T10:03:47.000Z</time>
      </trkpt>
      <trkpt lat="47.42837" lon="6.61232">
        <ele>298</ele>
        <time>2015-07-08T10:03:48.000Z</time>
      </trkpt>
      <trkpt lat="47.42841" lon="6.61221">
        <ele>298</ele>
        <time>2015-07-08T10:03:49.000Z</time>
      </trkpt>
      <trkpt lat="47.42845" lon="6.6121">
        <ele>298</ele>
        <time>2015-07-08T10:03:50.000Z</time>
      </trkpt>
      <trkpt lat="47.42849" lon="6.61198">
        <ele>298</ele>
        <time>2015-07-08T10:03:51.000Z</time>
      </trkpt>
      <trkpt lat="47.42853" lon="6.61188">
        <ele>298</ele>
        <time>2015-07-08T10:03:52.000Z</time>
      </trkpt>
      <trkpt lat="47.42857" lon="6.61177">
        <ele>298</ele>
        <time>2015-07-08T10:03:53.000Z</time>
      </trkpt>
      <trkpt lat="47.42861" lon="6.61167">
        <ele>298</ele>
        <time>2015-07-08T10:03:54.000Z</time>
      </trkpt>
      <trkpt lat="47.42865" lon="6.61156">
        <ele>298</ele>
        <time>2015-07-08T10:03:55.000Z</time>
      </trkpt>
      <trkpt lat="47.42869" lon="6.61146">
        <ele>298</ele>
        <time>2015-07-08T10:03:56.000Z</time>
      </trkpt>
      <trkpt lat="47.42873" lon="6.61136">
        <ele>298</ele>
        <time>2015-07-08T10:03:57.000Z</time>
      </trkpt>
      <trkpt lat="47.42877" lon="6.61126">
        <ele>298</ele>
        <time>2015-07-08T10:03:58.000Z</time>
      </trkpt>
      <trkpt lat="47.42881" lon="6.61116">
        <ele>298</ele>
        <time>2015-07-08T10:03:59.000Z</time>
      </trkpt>
      <trkpt lat="47.42885" lon="6.61106">
        <ele>298</ele>
        <time>2015-07-08T10:04:00.000Z</time>
      </trkpt>
      <trkpt lat="47.42889" lon="6.61096">
        <ele>298</ele>
        <time>2015-07-08T10:04:01.000Z</time>
      </trkpt>
      <trkpt lat="47.42893" lon="6.61087">
        <ele>298</ele>
        <time>2015-07-08T10:04:02.000Z</time>
      </trkpt>
      <trkpt lat="47.42897" lon="6.61077">
        <ele>298</ele>
        <time>2015-07-08T10:04:03.000Z</time>
      </trkpt>
      <trkpt lat="47.42901" lon="6.61067">
        <ele>298</ele>
        <time>2015-07-08T10:04:04.000Z</time>
      </trkpt>
      <trkpt lat="47.42904" lon="6.61057">
        <ele>298</ele>
        <time>2015-07-08T10:04:05.000Z</time>
      </trkpt>
      <trkpt lat="47.42909" lon="6.61047">
        <ele>298</ele>
        <time>2015-07-08T10:04:06.000Z</time>
      </trkpt>
      <trkpt lat="47.42913" lon="6.61037">
        <ele>298</ele>
        <time>2015-07-08T10:04:07.000Z</time>
      </trkpt>
      <trkpt lat="47.42917" lon="6.61027">
        <ele>298</ele>
        <time>2015-07-08T10:04:08.000Z</time>
      </trkpt>
      <trkpt lat="47.42921" lon="6.61017">
        <ele>298</ele>
        <time>2015-07-08T10:04:09.000Z</time>
      </trkpt>
      <trkpt lat="47.42925" lon="6.61007">
        <ele>298</ele>
        <time>2015-07-08T10:04:10.000Z</time>
      </trkpt>
      <trkpt lat="47.42929" lon="6.60998">
        <ele>298</ele>
        <time>2015-07-08T10:04:11.000Z</time>
      </trkpt>
      <trkpt lat="47.42933" lon="6.60988">
        <ele>298</ele>
        <time>2015-07-08T10:04:12.000Z</time>
      </trkpt>
      <trkpt lat="47.42938" lon="6.60978">
        <ele>298</ele>
        <time>2015-07-08T10:04:13.000Z</time>
      </trkpt>
      <trkpt lat="47.42942" lon="6.60968">
        <ele>298</ele>
        <time>2015-07-08T10:04:14.000Z</time>
      </trkpt>
      <trkpt lat="47.42946" lon="6.60958">
        <ele>298</ele>
        <time>2015-07-08T10:04:15.000Z</time>
      </trkpt>
      <trkpt lat="47.42951" lon="6.60948">
        <ele>299</ele>
        <time>2015-07-08T10:04:16.000Z</time>
      </trkpt>
      <trkpt lat="47.42955" lon="6.60938">
        <ele>299</ele>
        <time>2015-07-08T10:04:17.000Z</time>
      </trkpt>
      <trkpt lat="47.42959" lon="6.60928">
        <ele>299</ele>
        <time>2015-07-08T10:04:18.000Z</time>
      </trkpt>
      <trkpt lat="47.42964" lon="6.60918">
        <ele>299</ele>
        <time>2015-07-08T10:04:19.000Z</time>
      </trkpt>
      <trkpt lat="47.42968" lon="6.60908">
        <ele>299</ele>
        <time>2015-07-08T10:04:20.000Z</time>
      </trkpt>
      <trkpt lat="47.42973" lon="6.60898">
        <ele>299</ele>
        <time>2015-07-08T10:04:21.000Z</time>
      </trkpt>
      <trkpt lat="47.42977" lon="6.60888">
        <ele>299</ele>
        <time>2015-07-08T10:04:22.000Z</time>
      </trkpt>
      <trkpt lat="47.42981" lon="6.60878">
        <ele>299</ele>
        <time>2015-07-08T10:04:23.000Z</time>
      </trkpt>
      <trkpt lat="47.42986" lon="6.60868">
        <ele>299</ele>
        <time>2015-07-08T10:04:24.000Z</time>
      </trkpt>
      <trkpt lat="47.4299" lon="6.60858">
        <ele>299</ele>
        <time>2015-07-08T10:04:25.000Z</time>
      </trkpt>
      <trkpt lat="47.42994" lon="6.60848">
        <ele>299</ele>
        <time>2015-07-08T10:04:26.000Z</time>
      </trkpt>
      <trkpt lat="47.42998" lon="6.60838">
        <ele>299</ele>
        <time>2015-07-08T10:04:27.000Z</time>
      </trkpt>
      <trkpt lat="47.43003" lon="6.60828">
        <ele>299</ele>
        <time>2015-07-08T10:04:28.000Z</time>
      </trkpt>
      <trkpt lat="47.43007" lon="6.60818">
        <ele>299</ele>
        <time>2015-07-08T10:04:29.000Z</time>
      </trkpt>
      <trkpt lat="47.43011" lon="6.60808">
        <ele>299</ele>
        <time>2015-07-08T10:04:30.000Z</time>
      </trkpt>
      <trkpt lat="47.43016" lon="6.60798">
        <ele>299</ele>
        <time>2015-07-08T10:04:31.000Z</time>
      </trkpt>
      <trkpt lat="47.4302" lon="6.60788">
        <ele>299</ele>
        <time>2015-07-08T10:04:32.000Z</time>
      </trkpt>
      <trkpt lat="47.43024" lon="6.60778">
        <ele>299</ele>
        <time>2015-07-08T10:04:33.000Z</time>
      </trkpt>
      <trkpt lat="47.43029" lon="6.60768">
        <ele>299</ele>
        <time>2015-07-08T10:04:34.000Z</time>
      </trkpt>
      <trkpt lat="47.43034" lon="6.60757">
        <ele>299</ele>
        <time>2015-07-08T10:04:35.000Z</time>
      </trkpt>
      <trkpt lat="47.43038" lon="6.60747">
        <ele>299</ele>
        <time>2015-07-08T10:04:36.000Z</time>
      </trkpt>
      <trkpt lat="47.43043" lon="6.60737">
        <ele>299</ele>
        <time>2015-07-08T10:04:37.000Z</time>
      </trkpt>
      <trkpt lat="47.43048" lon="6.60727">
        <ele>299</ele>
        <time>2015-07-08T10:04:38.000Z</time>
      </trkpt>
      <trkpt lat="47.43052" lon="6.60717">
        <ele>299</ele>
        <time>2015-07-08T10:04:39.000Z</time>
      </trkpt>
      <trkpt lat="47.43057" lon="6.60707">
        <ele>299</ele>
        <time>2015-07-08T10:04:40.000Z</time>
      </trkpt>
      <trkpt lat="47.43061" lon="6.60697">
        <ele>299</ele>
        <time>2015-07-08T10:04:41.000Z</time>
      </trkpt>
      <trkpt lat="47.43065" lon="6.60687">
        <ele>299</ele>
        <time>2015-07-08T10:04:42.000Z</time>
      </trkpt>
      <trkpt lat="47.4307" lon="6.60677">
        <ele>299</ele>
        <time>2015-07-08T10:04:43.000Z</time>
      </trkpt>
      <trkpt lat="47.43074" lon="6.60668">
        <ele>299</ele>
        <time>2015-07-08T10:04:44.000Z</time>
      </trkpt>
      <trkpt lat="47.43079" lon="6.60658">
        <ele>299</ele>
        <time>2015-07-08T10:04:45.000Z</time>
      </trkpt>
      <trkpt lat="47.43083" lon="6.60649">
        <ele>299</ele>
        <time>2015-07-08T10:04:46.000Z</time>
      </trkpt>
      <trkpt lat="47.43087" lon="6.60639">
        <ele>299</ele>
        <time>2015-07-08T10:04:47.000Z</time>
      </trkpt>
      <trkpt lat="47.43092" lon="6.6063">
        <ele>299</ele>
        <time>2015-07-08T10:04:48.000Z</time>
      </trkpt>
      <trkpt lat="47.43096" lon="6.6062">
        <ele>298</ele>
        <time>2015-07-08T10:04:49.000Z</time>
      </trkpt>
      <trkpt lat="47.431" lon="6.60611">
        <ele>298</ele>
        <time>2015-07-08T10:04:50.000Z</time>
      </trkpt>
      <trkpt lat="47.43104" lon="6.60601">
        <ele>298</ele>
        <time>2015-07-08T10:04:51.000Z</time>
      </trkpt>
      <trkpt lat="47.43109" lon="6.60592">
        <ele>298</ele>
        <time>2015-07-08T10:04:52.000Z</time>
      </trkpt>
      <trkpt lat="47.43113" lon="6.60582">
        <ele>298</ele>
        <time>2015-07-08T10:04:53.000Z</time>
      </trkpt>
      <trkpt lat="47.43117" lon="6.60573">
        <ele>298</ele>
        <time>2015-07-08T10:04:54.000Z</time>
      </trkpt>
      <trkpt lat="47.43121" lon="6.60563">
        <ele>298</ele>
        <time>2015-07-08T10:04:55.000Z</time>
      </trkpt>
      <trkpt lat="47.43125" lon="6.60554">
        <ele>298</ele>
        <time>2015-07-08T10:04:56.000Z</time>
      </trkpt>
      <trkpt lat="47.43129" lon="6.60544">
        <ele>298</ele>
        <time>2015-07-08T10:04:57.000Z</time>
      </trkpt>
      <trkpt lat="47.43134" lon="6.60535">
        <ele>298</ele>
        <time>2015-07-08T10:04:58.000Z</time>
      </trkpt>
      <trkpt lat="47.43138" lon="6.60525">
        <ele>298</ele>
        <time>2015-07-08T10:04:59.000Z</time>
      </trkpt>
      <trkpt lat="47.43142" lon="6.60515">
        <ele>298</ele>
        <time>2015-07-08T10:05:00.000Z</time>
      </trkpt>
      <trkpt lat="47.43147" lon="6.60505">
        <ele>298</ele>
        <time>2015-07-08T10:05:01.000Z</time>
      </trkpt>
      <trkpt lat="47.43151" lon="6.60495">
        <ele>298</ele>
        <time>2015-07-08T10:05:02.000Z</time>
      </trkpt>
      <trkpt lat="47.43155" lon="6.60485">
        <ele>298</ele>
        <time>2015-07-08T10:05:03.000Z</time>
      </trkpt>
      <trkpt lat="47.4316" lon="6.60475">
        <ele>298</ele>
        <time>2015-07-08T10:05:04.000Z</time>
      </trkpt>
      <trkpt lat="47.43164" lon="6.60465">
        <ele>298</ele>
        <time>2015-07-08T10:05:05.000Z</time>
      </trkpt>
      <trkpt lat="47.43168" lon="6.60455">
        <ele>298</ele>
        <time>2015-07-08T10:05:06.000Z</time>
      </trkpt>
      <trkpt lat="47.43173" lon="6.60445">
        <ele>298</ele>
        <time>2015-07-08T10:05:07.000Z</time>
      </trkpt>
      <trkpt lat="47.43177" lon="6.60436">
        <ele>298</ele>
        <time>2015-07-08T10:05:08.000Z</time>
      </trkpt>
      <trkpt lat="47.43181" lon="6.60426">
        <ele>298</ele>
        <time>2015-07-08T10:05:09.000Z</time>
      </trkpt>
      <trkpt lat="47.43185" lon="6.60417">
        <ele>298</ele>
        <time>2015-07-08T10:05:10.000Z</time>
      </trkpt>
      <trkpt lat="47.43189" lon="6.60407">
        <ele>298</ele>
        <time>2015-07-08T10:05:11.000Z</time>
      </trkpt>
      <trkpt lat="47.43193" lon="6.60398">
        <ele>298</ele>
        <time>2015-07-08T10:05:12.000Z</time>
      </trkpt>
      <trkpt lat="47.43198" lon="6.60388">
        <ele>298</ele>
        <time>2015-07-08T10:05:13.000Z</time>
      </trkpt>
      <trkpt lat="47.43202" lon="6.60379">
        <ele>298</ele>
        <time>2015-07-08T10:05:14.000Z</time>
      </trkpt>
      <trkpt lat="47.43206" lon="6.6037">
        <ele>298</ele>
        <time>2015-07-08T10:05:15.000Z</time>
      </trkpt>
      <trkpt lat="47.4321" lon="6.6036">
        <ele>297</ele>
        <time>2015-07-08T10:05:16.000Z</time>
      </trkpt>
      <trkpt lat="47.43215" lon="6.60351">
        <ele>297</ele>
        <time>2015-07-08T10:05:17.000Z</time>
      </trkpt>
      <trkpt lat="47.43219" lon="6.60342">
        <ele>297</ele>
        <time>2015-07-08T10:05:18.000Z</time>
      </trkpt>
      <trkpt lat="47.43223" lon="6.60332">
        <ele>297</ele>
        <time>2015-07-08T10:05:19.000Z</time>
      </trkpt>
      <trkpt lat="47.43227" lon="6.60323">
        <ele>297</ele>
        <time>2015-07-08T10:05:20.000Z</time>
      </trkpt>
      <trkpt lat="47.43231" lon="6.60314">
        <ele>296</ele>
        <time>2015-07-08T10:05:21.000Z</time>
      </trkpt>
      <trkpt lat="47.43236" lon="6.60305">
        <ele>296</ele>
        <time>2015-07-08T10:05:22.000Z</time>
      </trkpt>
      <trkpt lat="47.4324" lon="6.60295">
        <ele>296</ele>
        <time>2015-07-08T10:05:23.000Z</time>
      </trkpt>
      <trkpt lat="47.43244" lon="6.60286">
        <ele>296</ele>
        <time>2015-07-08T10:05:24.000Z</time>
      </trkpt>
      <trkpt lat="47.43248" lon="6.60277">
        <ele>296</ele>
        <time>2015-07-08T10:05:25.000Z</time>
      </trkpt>
      <trkpt lat="47.43252" lon="6.60268">
        <ele>296</ele>
        <time>2015-07-08T10:05:26.000Z</time>
      </trkpt>
      <trkpt lat="47.43255" lon="6.60259">
        <ele>296</ele>
        <time>2015-07-08T10:05:27.000Z</time>
      </trkpt>
      <trkpt lat="47.43259" lon="6.6025">
        <ele>296</ele>
        <time>2015-07-08T10:05:28.000Z</time>
      </trkpt>
      <trkpt lat="47.43263" lon="6.60241">
        <ele>296</ele>
        <time>2015-07-08T10:05:29.000Z</time>
      </trkpt>
      <trkpt lat="47.43267" lon="6.60233">
        <ele>296</ele>
        <time>2015-07-08T10:05:30.000Z</time>
      </trkpt>
      <trkpt lat="47.4327" lon="6.60225">
        <ele>296</ele>
        <time>2015-07-08T10:05:31.000Z</time>
      </trkpt>
      <trkpt lat="47.43274" lon="6.60217">
        <ele>296</ele>
        <time>2015-07-08T10:05:32.000Z</time>
      </trkpt>
      <trkpt lat="47.43277" lon="6.60209">
        <ele>296</ele>
        <time>2015-07-08T10:05:33.000Z</time>
      </trkpt>
      <trkpt lat="47.4328" lon="6.60202">
        <ele>296</ele>
        <time>2015-07-08T10:05:34.000Z</time>
      </trkpt>
      <trkpt lat="47.43284" lon="6.60195">
        <ele>296</ele>
        <time>2015-07-08T10:05:35.000Z</time>
      </trkpt>
      <trkpt lat="47.43287" lon="6.60188">
        <ele>296</ele>
        <time>2015-07-08T10:05:36.000Z</time>
      </trkpt>
      <trkpt lat="47.4329" lon="6.60181">
        <ele>296</ele>
        <time>2015-07-08T10:05:37.000Z</time>
      </trkpt>
      <trkpt lat="47.43293" lon="6.60174">
        <ele>296</ele>
        <time>2015-07-08T10:05:38.000Z</time>
      </trkpt>
      <trkpt lat="47.43297" lon="6.60166">
        <ele>296</ele>
        <time>2015-07-08T10:05:39.000Z</time>
      </trkpt>
      <trkpt lat="47.433" lon="6.6016">
        <ele>296</ele>
        <time>2015-07-08T10:05:40.000Z</time>
      </trkpt>
      <trkpt lat="47.43303" lon="6.60153">
        <ele>296</ele>
        <time>2015-07-08T10:05:41.000Z</time>
      </trkpt>
      <trkpt lat="47.43306" lon="6.60146">
        <ele>297</ele>
        <time>2015-07-08T10:05:42.000Z</time>
      </trkpt>
      <trkpt lat="47.43309" lon="6.60139">
        <ele>297</ele>
        <time>2015-07-08T10:05:43.000Z</time>
      </trkpt>
      <trkpt lat="47.43312" lon="6.60132">
        <ele>297</ele>
        <time>2015-07-08T10:05:44.000Z</time>
      </trkpt>
      <trkpt lat="47.43314" lon="6.60125">
        <ele>298</ele>
        <time>2015-07-08T10:05:45.000Z</time>
      </trkpt>
      <trkpt lat="47.43317" lon="6.60118">
        <ele>298</ele>
        <time>2015-07-08T10:05:46.000Z</time>
      </trkpt>
      <trkpt lat="47.4332" lon="6.60112">
        <ele>298</ele>
        <time>2015-07-08T10:05:47.000Z</time>
      </trkpt>
      <trkpt lat="47.43323" lon="6.60106">
        <ele>299</ele>
        <time>2015-07-08T10:05:48.000Z</time>
      </trkpt>
      <trkpt lat="47.43326" lon="6.601">
        <ele>299</ele>
        <time>2015-07-08T10:05:49.000Z</time>
      </trkpt>
      <trkpt lat="47.43329" lon="6.60094">
        <ele>299</ele>
        <time>2015-07-08T10:05:50.000Z</time>
      </trkpt>
      <trkpt lat="47.43333" lon="6.60089">
        <ele>300</ele>
        <time>2015-07-08T10:05:51.000Z</time>
      </trkpt>
      <trkpt lat="47.43335" lon="6.60084">
        <ele>300</ele>
        <time>2015-07-08T10:05:52.000Z</time>
      </trkpt>
      <trkpt lat="47.43338" lon="6.6008">
        <ele>300</ele>
        <time>2015-07-08T10:05:53.000Z</time>
      </trkpt>
      <trkpt lat="47.4334" lon="6.60076">
        <ele>301</ele>
        <time>2015-07-08T10:05:54.000Z</time>
      </trkpt>
      <trkpt lat="47.43342" lon="6.60073">
        <ele>301</ele>
        <time>2015-07-08T10:05:55.000Z</time>
      </trkpt>
      <trkpt lat="47.43344" lon="6.6007">
        <ele>301</ele>
        <time>2015-07-08T10:05:56.000Z</time>
      </trkpt>
      <trkpt lat="47.43345" lon="6.60068">
        <ele>301</ele>
        <time>2015-07-08T10:05:57.000Z</time>
      </trkpt>
      <trkpt lat="47.43347" lon="6.60065">
        <ele>302</ele>
        <time>2015-07-08T10:05:58.000Z</time>
      </trkpt>
      <trkpt lat="47.43348" lon="6.60063">
        <ele>302</ele>
        <time>2015-07-08T10:05:59.000Z</time>
      </trkpt>
      <trkpt lat="47.4335" lon="6.6006">
        <ele>302</ele>
        <time>2015-07-08T10:06:00.000Z</time>
      </trkpt>
      <trkpt lat="47.43351" lon="6.60059">
        <ele>302</ele>
        <time>2015-07-08T10:06:01.000Z</time>
      </trkpt>
      <trkpt lat="47.43352" lon="6.60057">
        <ele>302</ele>
        <time>2015-07-08T10:06:02.000Z</time>
      </trkpt>
      <trkpt lat="47.43354" lon="6.60055">
        <ele>302</ele>
        <time>2015-07-08T10:06:03.000Z</time>
      </trkpt>
      <trkpt lat="47.43355" lon="6.60053">
        <ele>302</ele>
        <time>2015-07-08T10:06:04.000Z</time>
      </trkpt>
      <trkpt lat="47.43357" lon="6.60051">
        <ele>302</ele>
        <time>2015-07-08T10:06:05.000Z</time>
      </trkpt>
      <trkpt lat="47.43359" lon="6.6005">
        <ele>302</ele>
        <time>2015-07-08T10:06:06.000Z</time>
      </trkpt>
      <trkpt lat="47.4336" lon="6.60048">
        <ele>302</ele>
        <time>2015-07-08T10:06:07.000Z</time>
      </trkpt>
      <trkpt lat="47.43362" lon="6.60045">
        <ele>302</ele>
        <time>2015-07-08T10:06:08.000Z</time>
      </trkpt>
      <trkpt lat="47.43365" lon="6.60043">
        <ele>302</ele>
        <time>2015-07-08T10:06:09.000Z</time>
      </trkpt>
      <trkpt lat="47.43367" lon="6.6004">
        <ele>302</ele>
        <time>2015-07-08T10:06:10.000Z</time>
      </trkpt>
      <trkpt lat="47.43369" lon="6.60036">
        <ele>302</ele>
        <time>2015-07-08T10:06:11.000Z</time>
      </trkpt>
      <trkpt lat="47.43372" lon="6.60032">
        <ele>302</ele>
        <time>2015-07-08T10:06:12.000Z</time>
      </trkpt>
      <trkpt lat="47.43376" lon="6.60028">
        <ele>302</ele>
        <time>2015-07-08T10:06:13.000Z</time>
      </trkpt>
      <trkpt lat="47.4338" lon="6.60024">
        <ele>303</ele>
        <time>2015-07-08T10:06:14.000Z</time>
      </trkpt>
      <trkpt lat="47.43385" lon="6.6002">
        <ele>303</ele>
        <time>2015-07-08T10:06:15.000Z</time>
      </trkpt>
      <trkpt lat="47.43389" lon="6.60015">
        <ele>303</ele>
        <time>2015-07-08T10:06:16.000Z</time>
      </trkpt>
      <trkpt lat="47.43394" lon="6.60011">
        <ele>303</ele>
        <time>2015-07-08T10:06:17.000Z</time>
      </trkpt>
      <trkpt lat="47.43399" lon="6.60007">
        <ele>303</ele>
        <time>2015-07-08T10:06:18.000Z</time>
      </trkpt>
      <trkpt lat="47.43405" lon="6.60004">
        <ele>303</ele>
        <time>2015-07-08T10:06:19.000Z</time>
      </trkpt>
      <trkpt lat="47.4341" lon="6.60001">
        <ele>303</ele>
        <time>2015-07-08T10:06:20.000Z</time>
      </trkpt>
      <trkpt lat="47.43415" lon="6.59998">
        <ele>303</ele>
        <time>2015-07-08T10:06:21.000Z</time>
      </trkpt>
      <trkpt lat="47.43421" lon="6.59995">
        <ele>303</ele>
        <time>2015-07-08T10:06:22.000Z</time>
      </trkpt>
      <trkpt lat="47.43426" lon="6.59992">
        <ele>303</ele>
        <time>2015-07-08T10:06:23.000Z</time>
      </trkpt>
      <trkpt lat="47.43432" lon="6.59989">
        <ele>303</ele>
        <time>2015-07-08T10:06:24.000Z</time>
      </trkpt>
      <trkpt lat="47.43438" lon="6.59987">
        <ele>303</ele>
        <time>2015-07-08T10:06:25.000Z</time>
      </trkpt>
      <trkpt lat="47.43444" lon="6.59984">
        <ele>302</ele>
        <time>2015-07-08T10:06:26.000Z</time>
      </trkpt>
      <trkpt lat="47.4345" lon="6.59981">
        <ele>302</ele>
        <time>2015-07-08T10:06:27.000Z</time>
      </trkpt>
      <trkpt lat="47.43456" lon="6.59978">
        <ele>302</ele>
        <time>2015-07-08T10:06:28.000Z</time>
      </trkpt>
      <trkpt lat="47.43461" lon="6.59976">
        <ele>302</ele>
        <time>2015-07-08T10:06:29.000Z</time>
      </trkpt>
      <trkpt lat="47.43466" lon="6.59973">
        <ele>302</ele>
        <time>2015-07-08T10:06:30.000Z</time>
      </trkpt>
      <trkpt lat="47.43471" lon="6.5997">
        <ele>302</ele>
        <time>2015-07-08T10:06:31.000Z</time>
      </trkpt>
      <trkpt lat="47.43476" lon="6.59968">
        <ele>302</ele>
        <time>2015-07-08T10:06:32.000Z</time>
      </trkpt>
      <trkpt lat="47.43481" lon="6.59965">
        <ele>302</ele>
        <time>2015-07-08T10:06:33.000Z</time>
      </trkpt>
      <trkpt lat="47.43486" lon="6.59963">
        <ele>302</ele>
        <time>2015-07-08T10:06:34.000Z</time>
      </trkpt>
      <trkpt lat="47.43491" lon="6.59961">
        <ele>301</ele>
        <time>2015-07-08T10:06:35.000Z</time>
      </trkpt>
      <trkpt lat="47.43496" lon="6.59958">
        <ele>301</ele>
        <time>2015-07-08T10:06:36.000Z</time>
      </trkpt>
      <trkpt lat="47.43502" lon="6.59955">
        <ele>301</ele>
        <time>2015-07-08T10:06:37.000Z</time>
      </trkpt>
      <trkpt lat="47.43507" lon="6.59953">
        <ele>301</ele>
        <time>2015-07-08T10:06:38.000Z</time>
      </trkpt>
      <trkpt lat="47.43512" lon="6.5995">
        <ele>301</ele>
        <time>2015-07-08T10:06:39.000Z</time>
      </trkpt>
      <trkpt lat="47.43517" lon="6.59947">
        <ele>301</ele>
        <time>2015-07-08T10:06:40.000Z</time>
      </trkpt>
      <trkpt lat="47.43522" lon="6.59945">
        <ele>300</ele>
        <time>2015-07-08T10:06:41.000Z</time>
      </trkpt>
      <trkpt lat="47.43526" lon="6.59943">
        <ele>300</ele>
        <time>2015-07-08T10:06:42.000Z</time>
      </trkpt>
      <trkpt lat="47.43531" lon="6.59941">
        <ele>300</ele>
        <time>2015-07-08T10:06:43.000Z</time>
      </trkpt>
      <trkpt lat="47.43537" lon="6.59938">
        <ele>300</ele>
        <time>2015-07-08T10:06:44.000Z</time>
      </trkpt>
      <trkpt lat="47.43544" lon="6.59936">
        <ele>300</ele>
        <time>2015-07-08T10:06:45.000Z</time>
      </trkpt>
      <trkpt lat="47.4355" lon="6.59933">
        <ele>300</ele>
        <time>2015-07-08T10:06:46.000Z</time>
      </trkpt>
      <trkpt lat="47.43557" lon="6.5993">
        <ele>300</ele>
        <time>2015-07-08T10:06:47.000Z</time>
      </trkpt>
      <trkpt lat="47.43563" lon="6.59926">
        <ele>300</ele>
        <time>2015-07-08T10:06:48.000Z</time>
      </trkpt>
      <trkpt lat="47.4357" lon="6.59923">
        <ele>300</ele>
        <time>2015-07-08T10:06:49.000Z</time>
      </trkpt>
      <trkpt lat="47.43576" lon="6.59921">
        <ele>300</ele>
        <time>2015-07-08T10:06:50.000Z</time>
      </trkpt>
      <trkpt lat="47.43582" lon="6.59918">
        <ele>300</ele>
        <time>2015-07-08T10:06:51.000Z</time>
      </trkpt>
      <trkpt lat="47.43589" lon="6.59916">
        <ele>300</ele>
        <time>2015-07-08T10:06:52.000Z</time>
      </trkpt>
      <trkpt lat="47.43597" lon="6.59913">
        <ele>300</ele>
        <time>2015-07-08T10:06:53.000Z</time>
      </trkpt>
      <trkpt lat="47.43606" lon="6.59909">
        <ele>300</ele>
        <time>2015-07-08T10:06:54.000Z</time>
      </trkpt>
      <trkpt lat="47.43613" lon="6.59906">
        <ele>301</ele>
        <time>2015-07-08T10:06:55.000Z</time>
      </trkpt>
      <trkpt lat="47.43619" lon="6.59904">
        <ele>301</ele>
        <time>2015-07-08T10:06:56.000Z</time>
      </trkpt>
      <trkpt lat="47.43624" lon="6.59901">
        <ele>301</ele>
        <time>2015-07-08T10:06:57.000Z</time>
      </trkpt>
      <trkpt lat="47.43627" lon="6.59899">
        <ele>301</ele>
        <time>2015-07-08T10:06:58.000Z</time>
      </trkpt>
      <trkpt lat="47.43631" lon="6.59898">
        <ele>301</ele>
        <time>2015-07-08T10:06:59.000Z</time>
      </trkpt>
      <trkpt lat="47.43634" lon="6.59896">
        <ele>301</ele>
        <time>2015-07-08T10:07:00.000Z</time>
      </trkpt>
      <trkpt lat="47.43637" lon="6.59894">
        <ele>301</ele>
        <time>2015-07-08T10:07:01.000Z</time>
      </trkpt>
      <trkpt lat="47.43639" lon="6.59892">
        <ele>301</ele>
        <time>2015-07-08T10:07:02.000Z</time>
      </trkpt>
      <trkpt lat="47.43641" lon="6.59891">
        <ele>301</ele>
        <time>2015-07-08T10:07:03.000Z</time>
      </trkpt>
      <trkpt lat="47.43644" lon="6.59889">
        <ele>302</ele>
        <time>2015-07-08T10:07:04.000Z</time>
      </trkpt>
      <trkpt lat="47.43647" lon="6.59888">
        <ele>302</ele>
        <time>2015-07-08T10:07:05.000Z</time>
      </trkpt>
      <trkpt lat="47.4365" lon="6.59886">
        <ele>302</ele>
        <time>2015-07-08T10:07:06.000Z</time>
      </trkpt>
      <trkpt lat="47.43654" lon="6.59884">
        <ele>302</ele>
        <time>2015-07-08T10:07:07.000Z</time>
      </trkpt>
      <trkpt lat="47.43657" lon="6.59882">
        <ele>302</ele>
        <time>2015-07-08T10:07:08.000Z</time>
      </trkpt>
      <trkpt lat="47.43661" lon="6.5988">
        <ele>302</ele>
        <time>2015-07-08T10:07:09.000Z</time>
      </trkpt>
      <trkpt lat="47.43664" lon="6.59878">
        <ele>302</ele>
        <time>2015-07-08T10:07:10.000Z</time>
      </trkpt>
      <trkpt lat="47.43668" lon="6.59876">
        <ele>302</ele>
        <time>2015-07-08T10:07:11.000Z</time>
      </trkpt>
      <trkpt lat="47.43671" lon="6.59874">
        <ele>302</ele>
        <time>2015-07-08T10:07:12.000Z</time>
      </trkpt>
      <trkpt lat="47.43675" lon="6.59872">
        <ele>303</ele>
        <time>2015-07-08T10:07:13.000Z</time>
      </trkpt>
      <trkpt lat="47.43679" lon="6.5987">
        <ele>303</ele>
        <time>2015-07-08T10:07:14.000Z</time>
      </trkpt>
      <trkpt lat="47.43683" lon="6.59868">
        <ele>303</ele>
        <time>2015-07-08T10:07:15.000Z</time>
      </trkpt>
      <trkpt lat="47.43688" lon="6.59866">
        <ele>303</ele>
        <time>2015-07-08T10:07:16.000Z</time>
      </trkpt>
      <trkpt lat="47.43691" lon="6.59864">
        <ele>303</ele>
        <time>2015-07-08T10:07:17.000Z</time>
      </trkpt>
      <trkpt lat="47.43695" lon="6.59863">
        <ele>303</ele>
        <time>2015-07-08T10:07:18.000Z</time>
      </trkpt>
      <trkpt lat="47.43698" lon="6.59861">
        <ele>303</ele>
        <time>2015-07-08T10:07:19.000Z</time>
      </trkpt>
      <trkpt lat="47.43702" lon="6.5986">
        <ele>303</ele>
        <time>2015-07-08T10:07:20.000Z</time>
      </trkpt>
      <trkpt lat="47.43705" lon="6.59859">
        <ele>303</ele>
        <time>2015-07-08T10:07:21.000Z</time>
      </trkpt>
      <trkpt lat="47.43708" lon="6.59858">
        <ele>303</ele>
        <time>2015-07-08T10:07:22.000Z</time>
      </trkpt>
      <trkpt lat="47.43712" lon="6.59857">
        <ele>303</ele>
        <time>2015-07-08T10:07:23.000Z</time>
      </trkpt>
      <trkpt lat="47.43715" lon="6.59855">
        <ele>303</ele>
        <time>2015-07-08T10:07:24.000Z</time>
      </trkpt>
      <trkpt lat="47.43719" lon="6.59854">
        <ele>303</ele>
        <time>2015-07-08T10:07:25.000Z</time>
      </trkpt>
      <trkpt lat="47.43723" lon="6.59852">
        <ele>302</ele>
        <time>2015-07-08T10:07:26.000Z</time>
      </trkpt>
      <trkpt lat="47.43727" lon="6.5985">
        <ele>302</ele>
        <time>2015-07-08T10:07:27.000Z</time>
      </trkpt>
      <trkpt lat="47.43732" lon="6.59849">
        <ele>302</ele>
        <time>2015-07-08T10:07:28.000Z</time>
      </trkpt>
      <trkpt lat="47.43737" lon="6.59847">
        <ele>302</ele>
        <time>2015-07-08T10:07:29.000Z</time>
      </trkpt>
      <trkpt lat="47.43742" lon="6.59845">
        <ele>302</ele>
        <time>2015-07-08T10:07:30.000Z</time>
      </trkpt>
      <trkpt lat="47.43747" lon="6.59844">
        <ele>302</ele>
        <time>2015-07-08T10:07:31.000Z</time>
      </trkpt>
      <trkpt lat="47.43752" lon="6.59842">
        <ele>301</ele>
        <time>2015-07-08T10:07:32.000Z</time>
      </trkpt>
      <trkpt lat="47.43757" lon="6.5984">
        <ele>301</ele>
        <time>2015-07-08T10:07:33.000Z</time>
      </trkpt>
      <trkpt lat="47.43763" lon="6.59839">
        <ele>301</ele>
        <time>2015-07-08T10:07:34.000Z</time>
      </trkpt>
      <trkpt lat="47.43768" lon="6.59837">
        <ele>301</ele>
        <time>2015-07-08T10:07:35.000Z</time>
      </trkpt>
      <trkpt lat="47.43774" lon="6.59835">
        <ele>301</ele>
        <time>2015-07-08T10:07:36.000Z</time>
      </trkpt>
      <trkpt lat="47.43779" lon="6.59834">
        <ele>301</ele>
        <time>2015-07-08T10:07:37.000Z</time>
      </trkpt>
      <trkpt lat="47.43783" lon="6.59832">
        <ele>300</ele>
        <time>2015-07-08T10:07:38.000Z</time>
      </trkpt>
      <trkpt lat="47.43788" lon="6.59831">
        <ele>300</ele>
        <time>2015-07-08T10:07:39.000Z</time>
      </trkpt>
      <trkpt lat="47.43793" lon="6.59829">
        <ele>300</ele>
        <time>2015-07-08T10:07:40.000Z</time>
      </trkpt>
      <trkpt lat="47.43799" lon="6.59828">
        <ele>300</ele>
        <time>2015-07-08T10:07:41.000Z</time>
      </trkpt>
      <trkpt lat="47.43804" lon="6.59827">
        <ele>300</ele>
        <time>2015-07-08T10:07:42.000Z</time>
      </trkpt>
      <trkpt lat="47.4381" lon="6.59825">
        <ele>300</ele>
        <time>2015-07-08T10:07:43.000Z</time>
      </trkpt>
      <trkpt lat="47.43815" lon="6.59824">
        <ele>300</ele>
        <time>2015-07-08T10:07:44.000Z</time>
      </trkpt>
      <trkpt lat="47.4382" lon="6.59823">
        <ele>299</ele>
        <time>2015-07-08T10:07:45.000Z</time>
      </trkpt>
      <trkpt lat="47.43825" lon="6.59822">
        <ele>299</ele>
        <time>2015-07-08T10:07:46.000Z</time>
      </trkpt>
      <trkpt lat="47.4383" lon="6.59821">
        <ele>299</ele>
        <time>2015-07-08T10:07:47.000Z</time>
      </trkpt>
      <trkpt lat="47.43835" lon="6.59819">
        <ele>299</ele>
        <time>2015-07-08T10:07:48.000Z</time>
      </trkpt>
      <trkpt lat="47.4384" lon="6.59818">
        <ele>299</ele>
        <time>2015-07-08T10:07:49.000Z</time>
      </trkpt>
      <trkpt lat="47.43845" lon="6.59817">
        <ele>299</ele>
        <time>2015-07-08T10:07:50.000Z</time>
      </trkpt>
      <trkpt lat="47.4385" lon="6.59816">
        <ele>299</ele>
        <time>2015-07-08T10:07:51.000Z</time>
      </trkpt>
      <trkpt lat="47.43855" lon="6.59814">
        <ele>299</ele>
        <time>2015-07-08T10:07:52.000Z</time>
      </trkpt>
      <trkpt lat="47.43861" lon="6.59813">
        <ele>299</ele>
        <time>2015-07-08T10:07:53.000Z</time>
      </trkpt>
      <trkpt lat="47.43866" lon="6.59812">
        <ele>298</ele>
        <time>2015-07-08T10:07:54.000Z</time>
      </trkpt>
      <trkpt lat="47.43872" lon="6.5981">
        <ele>298</ele>
        <time>2015-07-08T10:07:55.000Z</time>
      </trkpt>
      <trkpt lat="47.43878" lon="6.59809">
        <ele>298</ele>
        <time>2015-07-08T10:07:56.000Z</time>
      </trkpt>
      <trkpt lat="47.43884" lon="6.59808">
        <ele>298</ele>
        <time>2015-07-08T10:07:57.000Z</time>
      </trkpt>
      <trkpt lat="47.4389" lon="6.59807">
        <ele>298</ele>
        <time>2015-07-08T10:07:58.000Z</time>
      </trkpt>
      <trkpt lat="47.43897" lon="6.59806">
        <ele>298</ele>
        <time>2015-07-08T10:07:59.000Z</time>
      </trkpt>
      <trkpt lat="47.43903" lon="6.59805">
        <ele>298</ele>
        <time>2015-07-08T10:08:00.000Z</time>
      </trkpt>
      <trkpt lat="47.43909" lon="6.59804">
        <ele>298</ele>
        <time>2015-07-08T10:08:01.000Z</time>
      </trkpt>
      <trkpt lat="47.43915" lon="6.59803">
        <ele>298</ele>
        <time>2015-07-08T10:08:02.000Z</time>
      </trkpt>
      <trkpt lat="47.43921" lon="6.59801">
        <ele>298</ele>
        <time>2015-07-08T10:08:03.000Z</time>
      </trkpt>
      <trkpt lat="47.43927" lon="6.59801">
        <ele>297</ele>
        <time>2015-07-08T10:08:04.000Z</time>
      </trkpt>
      <trkpt lat="47.43933" lon="6.59799">
        <ele>297</ele>
        <time>2015-07-08T10:08:05.000Z</time>
      </trkpt>
      <trkpt lat="47.43939" lon="6.59798">
        <ele>297</ele>
        <time>2015-07-08T10:08:06.000Z</time>
      </trkpt>
      <trkpt lat="47.43945" lon="6.59797">
        <ele>297</ele>
        <time>2015-07-08T10:08:07.000Z</time>
      </trkpt>
      <trkpt lat="47.43951" lon="6.59796">
        <ele>297</ele>
        <time>2015-07-08T10:08:08.000Z</time>
      </trkpt>
      <trkpt lat="47.43957" lon="6.59795">
        <ele>297</ele>
        <time>2015-07-08T10:08:09.000Z</time>
      </trkpt>
      <trkpt lat="47.43964" lon="6.59794">
        <ele>297</ele>
        <time>2015-07-08T10:08:10.000Z</time>
      </trkpt>
      <trkpt lat="47.4397" lon="6.59792">
        <ele>297</ele>
        <time>2015-07-08T10:08:11.000Z</time>
      </trkpt>
      <trkpt lat="47.43976" lon="6.59791">
        <ele>297</ele>
        <time>2015-07-08T10:08:12.000Z</time>
      </trkpt>
      <trkpt lat="47.43982" lon="6.5979">
        <ele>297</ele>
        <time>2015-07-08T10:08:13.000Z</time>
      </trkpt>
      <trkpt lat="47.43988" lon="6.59789">
        <ele>297</ele>
        <time>2015-07-08T10:08:14.000Z</time>
      </trkpt>
      <trkpt lat="47.43995" lon="6.59788">
        <ele>298</ele>
        <time>2015-07-08T10:08:15.000Z</time>
      </trkpt>
      <trkpt lat="47.44001" lon="6.59787">
        <ele>298</ele>
        <time>2015-07-08T10:08:16.000Z</time>
      </trkpt>
      <trkpt lat="47.44007" lon="6.59786">
        <ele>298</ele>
        <time>2015-07-08T10:08:17.000Z</time>
      </trkpt>
      <trkpt lat="47.44013" lon="6.59785">
        <ele>298</ele>
        <time>2015-07-08T10:08:18.000Z</time>
      </trkpt>
      <trkpt lat="47.44019" lon="6.59784">
        <ele>298</ele>
        <time>2015-07-08T10:08:19.000Z</time>
      </trkpt>
      <trkpt lat="47.44025" lon="6.59783">
        <ele>298</ele>
        <time>2015-07-08T10:08:20.000Z</time>
      </trkpt>
      <trkpt lat="47.44031" lon="6.59782">
        <ele>298</ele>
        <time>2015-07-08T10:08:21.000Z</time>
      </trkpt>
      <trkpt lat="47.44038" lon="6.59781">
        <ele>298</ele>
        <time>2015-07-08T10:08:22.000Z</time>
      </trkpt>
      <trkpt lat="47.44044" lon="6.5978">
        <ele>298</ele>
        <time>2015-07-08T10:08:23.000Z</time>
      </trkpt>
      <trkpt lat="47.4405" lon="6.59779">
        <ele>298</ele>
        <time>2015-07-08T10:08:24.000Z</time>
      </trkpt>
      <trkpt lat="47.44056" lon="6.59778">
        <ele>298</ele>
        <time>2015-07-08T10:08:25.000Z</time>
      </trkpt>
      <trkpt lat="47.44062" lon="6.59777">
        <ele>298</ele>
        <time>2015-07-08T10:08:26.000Z</time>
      </trkpt>
      <trkpt lat="47.44069" lon="6.59776">
        <ele>298</ele>
        <time>2015-07-08T10:08:27.000Z</time>
      </trkpt>
      <trkpt lat="47.44075" lon="6.59775">
        <ele>298</ele>
        <time>2015-07-08T10:08:28.000Z</time>
      </trkpt>
      <trkpt lat="47.44082" lon="6.59774">
        <ele>298</ele>
        <time>2015-07-08T10:08:29.000Z</time>
      </trkpt>
      <trkpt lat="47.44088" lon="6.59772">
        <ele>298</ele>
        <time>2015-07-08T10:08:30.000Z</time>
      </trkpt>
      <trkpt lat="47.44095" lon="6.59771">
        <ele>298</ele>
        <time>2015-07-08T10:08:31.000Z</time>
      </trkpt>
      <trkpt lat="47.44101" lon="6.5977">
        <ele>298</ele>
        <time>2015-07-08T10:08:32.000Z</time>
      </trkpt>
      <trkpt lat="47.44107" lon="6.59769">
        <ele>298</ele>
        <time>2015-07-08T10:08:33.000Z</time>
      </trkpt>
      <trkpt lat="47.44113" lon="6.59768">
        <ele>298</ele>
        <time>2015-07-08T10:08:34.000Z</time>
      </trkpt>
      <trkpt lat="47.44119" lon="6.59767">
        <ele>298</ele>
        <time>2015-07-08T10:08:35.000Z</time>
      </trkpt>
      <trkpt lat="47.44125" lon="6.59765">
        <ele>298</ele>
        <time>2015-07-08T10:08:36.000Z</time>
      </trkpt>
      <trkpt lat="47.4413" lon="6.59765">
        <ele>298</ele>
        <time>2015-07-08T10:08:37.000Z</time>
      </trkpt>
      <trkpt lat="47.44136" lon="6.59764">
        <ele>298</ele>
        <time>2015-07-08T10:08:38.000Z</time>
      </trkpt>
      <trkpt lat="47.44142" lon="6.59763">
        <ele>298</ele>
        <time>2015-07-08T10:08:39.000Z</time>
      </trkpt>
      <trkpt lat="47.44147" lon="6.59762">
        <ele>298</ele>
        <time>2015-07-08T10:08:40.000Z</time>
      </trkpt>
      <trkpt lat="47.44153" lon="6.59761">
        <ele>298</ele>
        <time>2015-07-08T10:08:41.000Z</time>
      </trkpt>
      <trkpt lat="47.44158" lon="6.5976">
        <ele>298</ele>
        <time>2015-07-08T10:08:42.000Z</time>
      </trkpt>
      <trkpt lat="47.44163" lon="6.59758">
        <ele>298</ele>
        <time>2015-07-08T10:08:43.000Z</time>
      </trkpt>
      <trkpt lat="47.44168" lon="6.59757">
        <ele>298</ele>
        <time>2015-07-08T10:08:44.000Z</time>
      </trkpt>
      <trkpt lat="47.44172" lon="6.59757">
        <ele>299</ele>
        <time>2015-07-08T10:08:45.000Z</time>
      </trkpt>
      <trkpt lat="47.44177" lon="6.59756">
        <ele>299</ele>
        <time>2015-07-08T10:08:46.000Z</time>
      </trkpt>
      <trkpt lat="47.44182" lon="6.59755">
        <ele>299</ele>
        <time>2015-07-08T10:08:47.000Z</time>
      </trkpt>
      <trkpt lat="47.44187" lon="6.59754">
        <ele>299</ele>
        <time>2015-07-08T10:08:48.000Z</time>
      </trkpt>
      <trkpt lat="47.44192" lon="6.59753">
        <ele>299</ele>
        <time>2015-07-08T10:08:49.000Z</time>
      </trkpt>
      <trkpt lat="47.44198" lon="6.59752">
        <ele>299</ele>
        <time>2015-07-08T10:08:50.000Z</time>
      </trkpt>
      <trkpt lat="47.44203" lon="6.59751">
        <ele>299</ele>
        <time>2015-07-08T10:08:51.000Z</time>
      </trkpt>
      <trkpt lat="47.44208" lon="6.5975">
        <ele>299</ele>
        <time>2015-07-08T10:08:52.000Z</time>
      </trkpt>
      <trkpt lat="47.44214" lon="6.59749">
        <ele>299</ele>
        <time>2015-07-08T10:08:53.000Z</time>
      </trkpt>
      <trkpt lat="47.44219" lon="6.59748">
        <ele>299</ele>
        <time>2015-07-08T10:08:54.000Z</time>
      </trkpt>
      <trkpt lat="47.44225" lon="6.59747">
        <ele>299</ele>
        <time>2015-07-08T10:08:55.000Z</time>
      </trkpt>
      <trkpt lat="47.4423" lon="6.59746">
        <ele>299</ele>
        <time>2015-07-08T10:08:56.000Z</time>
      </trkpt>
      <trkpt lat="47.44236" lon="6.59745">
        <ele>299</ele>
        <time>2015-07-08T10:08:57.000Z</time>
      </trkpt>
      <trkpt lat="47.44242" lon="6.59744">
        <ele>299</ele>
        <time>2015-07-08T10:08:58.000Z</time>
      </trkpt>
      <trkpt lat="47.44249" lon="6.59742">
        <ele>299</ele>
        <time>2015-07-08T10:08:59.000Z</time>
      </trkpt>
      <trkpt lat="47.44255" lon="6.59741">
        <ele>299</ele>
        <time>2015-07-08T10:09:00.000Z</time>
      </trkpt>
      <trkpt lat="47.4426" lon="6.5974">
        <ele>299</ele>
        <time>2015-07-08T10:09:01.000Z</time>
      </trkpt>
      <trkpt lat="47.44266" lon="6.59739">
        <ele>299</ele>
        <time>2015-07-08T10:09:02.000Z</time>
      </trkpt>
      <trkpt lat="47.44271" lon="6.59738">
        <ele>299</ele>
        <time>2015-07-08T10:09:03.000Z</time>
      </trkpt>
      <trkpt lat="47.44276" lon="6.59737">
        <ele>299</ele>
        <time>2015-07-08T10:09:04.000Z</time>
      </trkpt>
      <trkpt lat="47.44281" lon="6.59737">
        <ele>299</ele>
        <time>2015-07-08T10:09:05.000Z</time>
      </trkpt>
      <trkpt lat="47.44288" lon="6.59735">
        <ele>299</ele>
        <time>2015-07-08T10:09:06.000Z</time>
      </trkpt>
      <trkpt lat="47.44294" lon="6.59734">
        <ele>299</ele>
        <time>2015-07-08T10:09:07.000Z</time>
      </trkpt>
      <trkpt lat="47.44301" lon="6.59733">
        <ele>299</ele>
        <time>2015-07-08T10:09:08.000Z</time>
      </trkpt>
      <trkpt lat="47.44308" lon="6.59732">
        <ele>299</ele>
        <time>2015-07-08T10:09:09.000Z</time>
      </trkpt>
      <trkpt lat="47.44314" lon="6.5973">
        <ele>298</ele>
        <time>2015-07-08T10:09:10.000Z</time>
      </trkpt>
      <trkpt lat="47.44321" lon="6.59729">
        <ele>298</ele>
        <time>2015-07-08T10:09:11.000Z</time>
      </trkpt>
      <trkpt lat="47.44327" lon="6.59729">
        <ele>298</ele>
        <time>2015-07-08T10:09:12.000Z</time>
      </trkpt>
      <trkpt lat="47.44333" lon="6.59728">
        <ele>298</ele>
        <time>2015-07-08T10:09:13.000Z</time>
      </trkpt>
      <trkpt lat="47.4434" lon="6.59727">
        <ele>298</ele>
        <time>2015-07-08T10:09:14.000Z</time>
      </trkpt>
      <trkpt lat="47.44347" lon="6.59726">
        <ele>298</ele>
        <time>2015-07-08T10:09:15.000Z</time>
      </trkpt>
      <trkpt lat="47.44354" lon="6.59725">
        <ele>298</ele>
        <time>2015-07-08T10:09:16.000Z</time>
      </trkpt>
      <trkpt lat="47.4436" lon="6.59724">
        <ele>298</ele>
        <time>2015-07-08T10:09:17.000Z</time>
      </trkpt>
      <trkpt lat="47.44367" lon="6.59723">
        <ele>298</ele>
        <time>2015-07-08T10:09:18.000Z</time>
      </trkpt>
      <trkpt lat="47.44374" lon="6.59722">
        <ele>298</ele>
        <time>2015-07-08T10:09:19.000Z</time>
      </trkpt>
      <trkpt lat="47.44381" lon="6.59721">
        <ele>298</ele>
        <time>2015-07-08T10:09:20.000Z</time>
      </trkpt>
      <trkpt lat="47.44387" lon="6.5972">
        <ele>298</ele>
        <time>2015-07-08T10:09:21.000Z</time>
      </trkpt>
      <trkpt lat="47.44394" lon="6.5972">
        <ele>298</ele>
        <time>2015-07-08T10:09:22.000Z</time>
      </trkpt>
      <trkpt lat="47.444" lon="6.59719">
        <ele>298</ele>
        <time>2015-07-08T10:09:23.000Z</time>
      </trkpt>
      <trkpt lat="47.44406" lon="6.59719">
        <ele>298</ele>
        <time>2015-07-08T10:09:24.000Z</time>
      </trkpt>
      <trkpt lat="47.44413" lon="6.59719">
        <ele>298</ele>
        <time>2015-07-08T10:09:25.000Z</time>
      </trkpt>
      <trkpt lat="47.44419" lon="6.59719">
        <ele>298</ele>
        <time>2015-07-08T10:09:26.000Z</time>
      </trkpt>
      <trkpt lat="47.44426" lon="6.59719">
        <ele>298</ele>
        <time>2015-07-08T10:09:27.000Z</time>
      </trkpt>
      <trkpt lat="47.44432" lon="6.59719">
        <ele>298</ele>
        <time>2015-07-08T10:09:28.000Z</time>
      </trkpt>
      <trkpt lat="47.44438" lon="6.59718">
        <ele>298</ele>
        <time>2015-07-08T10:09:29.000Z</time>
      </trkpt>
      <trkpt lat="47.44445" lon="6.59718">
        <ele>297</ele>
        <time>2015-07-08T10:09:30.000Z</time>
      </trkpt>
      <trkpt lat="47.44451" lon="6.59717">
        <ele>297</ele>
        <time>2015-07-08T10:09:31.000Z</time>
      </trkpt>
      <trkpt lat="47.44456" lon="6.59717">
        <ele>297</ele>
        <time>2015-07-08T10:09:32.000Z</time>
      </trkpt>
      <trkpt lat="47.44462" lon="6.59717">
        <ele>297</ele>
        <time>2015-07-08T10:09:33.000Z</time>
      </trkpt>
      <trkpt lat="47.44468" lon="6.59716">
        <ele>297</ele>
        <time>2015-07-08T10:09:34.000Z</time>
      </trkpt>
      <trkpt lat="47.44474" lon="6.59716">
        <ele>297</ele>
        <time>2015-07-08T10:09:35.000Z</time>
      </trkpt>
      <trkpt lat="47.44479" lon="6.59716">
        <ele>297</ele>
        <time>2015-07-08T10:09:36.000Z</time>
      </trkpt>
      <trkpt lat="47.44485" lon="6.59716">
        <ele>297</ele>
        <time>2015-07-08T10:09:37.000Z</time>
      </trkpt>
      <trkpt lat="47.44491" lon="6.59716">
        <ele>297</ele>
        <time>2015-07-08T10:09:38.000Z</time>
      </trkpt>
      <trkpt lat="47.44496" lon="6.59716">
        <ele>296</ele>
        <time>2015-07-08T10:09:39.000Z</time>
      </trkpt>
      <trkpt lat="47.44502" lon="6.59716">
        <ele>296</ele>
        <time>2015-07-08T10:09:40.000Z</time>
      </trkpt>
      <trkpt lat="47.44507" lon="6.59715">
        <ele>296</ele>
        <time>2015-07-08T10:09:41.000Z</time>
      </trkpt>
      <trkpt lat="47.44512" lon="6.59715">
        <ele>296</ele>
        <time>2015-07-08T10:09:42.000Z</time>
      </trkpt>
      <trkpt lat="47.44517" lon="6.59714">
        <ele>296</ele>
        <time>2015-07-08T10:09:43.000Z</time>
      </trkpt>
      <trkpt lat="47.44522" lon="6.59714">
        <ele>296</ele>
        <time>2015-07-08T10:09:44.000Z</time>
      </trkpt>
      <trkpt lat="47.44527" lon="6.59714">
        <ele>296</ele>
        <time>2015-07-08T10:09:45.000Z</time>
      </trkpt>
      <trkpt lat="47.44532" lon="6.59714">
        <ele>296</ele>
        <time>2015-07-08T10:09:46.000Z</time>
      </trkpt>
      <trkpt lat="47.44537" lon="6.59713">
        <ele>296</ele>
        <time>2015-07-08T10:09:47.000Z</time>
      </trkpt>
      <trkpt lat="47.44542" lon="6.59713">
        <ele>296</ele>
        <time>2015-07-08T10:09:48.000Z</time>
      </trkpt>
      <trkpt lat="47.44546" lon="6.59713">
        <ele>296</ele>
        <time>2015-07-08T10:09:49.000Z</time>
      </trkpt>
      <trkpt lat="47.44551" lon="6.59713">
        <ele>296</ele>
        <time>2015-07-08T10:09:50.000Z</time>
      </trkpt>
      <trkpt lat="47.44556" lon="6.59713">
        <ele>296</ele>
        <time>2015-07-08T10:09:51.000Z</time>
      </trkpt>
      <trkpt lat="47.44561" lon="6.59713">
        <ele>296</ele>
        <time>2015-07-08T10:09:52.000Z</time>
      </trkpt>
      <trkpt lat="47.44565" lon="6.59713">
        <ele>296</ele>
        <time>2015-07-08T10:09:53.000Z</time>
      </trkpt>
      <trkpt lat="47.4457" lon="6.59713">
        <ele>296</ele>
        <time>2015-07-08T10:09:54.000Z</time>
      </trkpt>
      <trkpt lat="47.44575" lon="6.59714">
        <ele>296</ele>
        <time>2015-07-08T10:09:55.000Z</time>
      </trkpt>
      <trkpt lat="47.4458" lon="6.59714">
        <ele>296</ele>
        <time>2015-07-08T10:09:56.000Z</time>
      </trkpt>
      <trkpt lat="47.44585" lon="6.59714">
        <ele>296</ele>
        <time>2015-07-08T10:09:57.000Z</time>
      </trkpt>
      <trkpt lat="47.44591" lon="6.59714">
        <ele>296</ele>
        <time>2015-07-08T10:09:58.000Z</time>
      </trkpt>
      <trkpt lat="47.44596" lon="6.59715">
        <ele>297</ele>
        <time>2015-07-08T10:09:59.000Z</time>
      </trkpt>
      <trkpt lat="47.44602" lon="6.59716">
        <ele>297</ele>
        <time>2015-07-08T10:10:00.000Z</time>
      </trkpt>
      <trkpt lat="47.44608" lon="6.59717">
        <ele>297</ele>
        <time>2015-07-08T10:10:01.000Z</time>
      </trkpt>
      <trkpt lat="47.44614" lon="6.59717">
        <ele>297</ele>
        <time>2015-07-08T10:10:02.000Z</time>
      </trkpt>
      <trkpt lat="47.4462" lon="6.59718">
        <ele>297</ele>
        <time>2015-07-08T10:10:03.000Z</time>
      </trkpt>
      <trkpt lat="47.44626" lon="6.59718">
        <ele>297</ele>
        <time>2015-07-08T10:10:04.000Z</time>
      </trkpt>
      <trkpt lat="47.44631" lon="6.59719">
        <ele>297</ele>
        <time>2015-07-08T10:10:05.000Z</time>
      </trkpt>
      <trkpt lat="47.44637" lon="6.59719">
        <ele>297</ele>
        <time>2015-07-08T10:10:06.000Z</time>
      </trkpt>
      <trkpt lat="47.44643" lon="6.59719">
        <ele>297</ele>
        <time>2015-07-08T10:10:07.000Z</time>
      </trkpt>
      <trkpt lat="47.44649" lon="6.59719">
        <ele>297</ele>
        <time>2015-07-08T10:10:08.000Z</time>
      </trkpt>
      <trkpt lat="47.44654" lon="6.5972">
        <ele>297</ele>
        <time>2015-07-08T10:10:09.000Z</time>
      </trkpt>
      <trkpt lat="47.4466" lon="6.5972">
        <ele>297</ele>
        <time>2015-07-08T10:10:10.000Z</time>
      </trkpt>
      <trkpt lat="47.44666" lon="6.5972">
        <ele>297</ele>
        <time>2015-07-08T10:10:11.000Z</time>
      </trkpt>
      <trkpt lat="47.44672" lon="6.5972">
        <ele>297</ele>
        <time>2015-07-08T10:10:12.000Z</time>
      </trkpt>
      <trkpt lat="47.44677" lon="6.5972">
        <ele>297</ele>
        <time>2015-07-08T10:10:13.000Z</time>
      </trkpt>
      <trkpt lat="47.44683" lon="6.59719">
        <ele>297</ele>
        <time>2015-07-08T10:10:14.000Z</time>
      </trkpt>
      <trkpt lat="47.44689" lon="6.59719">
        <ele>297</ele>
        <time>2015-07-08T10:10:15.000Z</time>
      </trkpt>
      <trkpt lat="47.44695" lon="6.59718">
        <ele>297</ele>
        <time>2015-07-08T10:10:16.000Z</time>
      </trkpt>
      <trkpt lat="47.44701" lon="6.59717">
        <ele>297</ele>
        <time>2015-07-08T10:10:17.000Z</time>
      </trkpt>
      <trkpt lat="47.44707" lon="6.59716">
        <ele>297</ele>
        <time>2015-07-08T10:10:18.000Z</time>
      </trkpt>
      <trkpt lat="47.44714" lon="6.59715">
        <ele>297</ele>
        <time>2015-07-08T10:10:19.000Z</time>
      </trkpt>
      <trkpt lat="47.4472" lon="6.59713">
        <ele>297</ele>
        <time>2015-07-08T10:10:20.000Z</time>
      </trkpt>
      <trkpt lat="47.44726" lon="6.59711">
        <ele>297</ele>
        <time>2015-07-08T10:10:21.000Z</time>
      </trkpt>
      <trkpt lat="47.44732" lon="6.5971">
        <ele>297</ele>
        <time>2015-07-08T10:10:22.000Z</time>
      </trkpt>
      <trkpt lat="47.44738" lon="6.59708">
        <ele>297</ele>
        <time>2015-07-08T10:10:23.000Z</time>
      </trkpt>
      <trkpt lat="47.44745" lon="6.59706">
        <ele>297</ele>
        <time>2015-07-08T10:10:24.000Z</time>
      </trkpt>
      <trkpt lat="47.44751" lon="6.59704">
        <ele>297</ele>
        <time>2015-07-08T10:10:25.000Z</time>
      </trkpt>
      <trkpt lat="47.44757" lon="6.59702">
        <ele>297</ele>
        <time>2015-07-08T10:10:26.000Z</time>
      </trkpt>
      <trkpt lat="47.44764" lon="6.597">
        <ele>297</ele>
        <time>2015-07-08T10:10:27.000Z</time>
      </trkpt>
      <trkpt lat="47.4477" lon="6.59698">
        <ele>297</ele>
        <time>2015-07-08T10:10:28.000Z</time>
      </trkpt>
      <trkpt lat="47.44777" lon="6.59695">
        <ele>297</ele>
        <time>2015-07-08T10:10:29.000Z</time>
      </trkpt>
      <trkpt lat="47.44783" lon="6.59693">
        <ele>297</ele>
        <time>2015-07-08T10:10:30.000Z</time>
      </trkpt>
      <trkpt lat="47.4479" lon="6.5969">
        <ele>297</ele>
        <time>2015-07-08T10:10:31.000Z</time>
      </trkpt>
      <trkpt lat="47.44796" lon="6.59688">
        <ele>297</ele>
        <time>2015-07-08T10:10:32.000Z</time>
      </trkpt>
      <trkpt lat="47.44803" lon="6.59685">
        <ele>297</ele>
        <time>2015-07-08T10:10:33.000Z</time>
      </trkpt>
      <trkpt lat="47.44809" lon="6.59682">
        <ele>297</ele>
        <time>2015-07-08T10:10:34.000Z</time>
      </trkpt>
      <trkpt lat="47.44815" lon="6.5968">
        <ele>297</ele>
        <time>2015-07-08T10:10:35.000Z</time>
      </trkpt>
      <trkpt lat="47.44821" lon="6.59677">
        <ele>297</ele>
        <time>2015-07-08T10:10:36.000Z</time>
      </trkpt>
      <trkpt lat="47.44827" lon="6.59675">
        <ele>297</ele>
        <time>2015-07-08T10:10:37.000Z</time>
      </trkpt>
      <trkpt lat="47.44833" lon="6.59672">
        <ele>297</ele>
        <time>2015-07-08T10:10:38.000Z</time>
      </trkpt>
      <trkpt lat="47.44838" lon="6.59668">
        <ele>297</ele>
        <time>2015-07-08T10:10:39.000Z</time>
      </trkpt>
      <trkpt lat="47.44844" lon="6.59665">
        <ele>297</ele>
        <time>2015-07-08T10:10:40.000Z</time>
      </trkpt>
      <trkpt lat="47.4485" lon="6.59662">
        <ele>297</ele>
        <time>2015-07-08T10:10:41.000Z</time>
      </trkpt>
      <trkpt lat="47.44855" lon="6.59659">
        <ele>297</ele>
        <time>2015-07-08T10:10:42.000Z</time>
      </trkpt>
      <trkpt lat="47.44861" lon="6.59656">
        <ele>297</ele>
        <time>2015-07-08T10:10:43.000Z</time>
      </trkpt>
      <trkpt lat="47.44867" lon="6.59653">
        <ele>297</ele>
        <time>2015-07-08T10:10:44.000Z</time>
      </trkpt>
      <trkpt lat="47.44872" lon="6.59649">
        <ele>297</ele>
        <time>2015-07-08T10:10:45.000Z</time>
      </trkpt>
      <trkpt lat="47.44877" lon="6.59646">
        <ele>298</ele>
        <time>2015-07-08T10:10:46.000Z</time>
      </trkpt>
      <trkpt lat="47.44883" lon="6.59642">
        <ele>298</ele>
        <time>2015-07-08T10:10:47.000Z</time>
      </trkpt>
      <trkpt lat="47.44888" lon="6.59639">
        <ele>298</ele>
        <time>2015-07-08T10:10:48.000Z</time>
      </trkpt>
      <trkpt lat="47.44894" lon="6.59635">
        <ele>298</ele>
        <time>2015-07-08T10:10:49.000Z</time>
      </trkpt>
      <trkpt lat="47.44899" lon="6.59632">
        <ele>298</ele>
        <time>2015-07-08T10:10:50.000Z</time>
      </trkpt>
      <trkpt lat="47.44904" lon="6.59628">
        <ele>298</ele>
        <time>2015-07-08T10:10:51.000Z</time>
      </trkpt>
      <trkpt lat="47.44909" lon="6.59624">
        <ele>299</ele>
        <time>2015-07-08T10:10:52.000Z</time>
      </trkpt>
      <trkpt lat="47.44914" lon="6.5962">
        <ele>299</ele>
        <time>2015-07-08T10:10:53.000Z</time>
      </trkpt>
      <trkpt lat="47.4492" lon="6.59617">
        <ele>299</ele>
        <time>2015-07-08T10:10:54.000Z</time>
      </trkpt>
      <trkpt lat="47.44925" lon="6.59613">
        <ele>299</ele>
        <time>2015-07-08T10:10:55.000Z</time>
      </trkpt>
      <trkpt lat="47.4493" lon="6.59609">
        <ele>299</ele>
        <time>2015-07-08T10:10:56.000Z</time>
      </trkpt>
      <trkpt lat="47.44935" lon="6.59605">
        <ele>299</ele>
        <time>2015-07-08T10:10:57.000Z</time>
      </trkpt>
      <trkpt lat="47.4494" lon="6.59602">
        <ele>300</ele>
        <time>2015-07-08T10:10:58.000Z</time>
      </trkpt>
      <trkpt lat="47.44945" lon="6.59598">
        <ele>300</ele>
        <time>2015-07-08T10:10:59.000Z</time>
      </trkpt>
      <trkpt lat="47.44951" lon="6.59594">
        <ele>300</ele>
        <time>2015-07-08T10:11:00.000Z</time>
      </trkpt>
      <trkpt lat="47.44956" lon="6.5959">
        <ele>300</ele>
        <time>2015-07-08T10:11:01.000Z</time>
      </trkpt>
      <trkpt lat="47.44961" lon="6.59586">
        <ele>300</ele>
        <time>2015-07-08T10:11:02.000Z</time>
      </trkpt>
      <trkpt lat="47.44966" lon="6.59583">
        <ele>300</ele>
        <time>2015-07-08T10:11:03.000Z</time>
      </trkpt>
      <trkpt lat="47.44971" lon="6.59579">
        <ele>300</ele>
        <time>2015-07-08T10:11:04.000Z</time>
      </trkpt>
      <trkpt lat="47.44976" lon="6.59575">
        <ele>300</ele>
        <time>2015-07-08T10:11:05.000Z</time>
      </trkpt>
      <trkpt lat="47.44982" lon="6.59571">
        <ele>300</ele>
        <time>2015-07-08T10:11:06.000Z</time>
      </trkpt>
      <trkpt lat="47.44987" lon="6.59567">
        <ele>300</ele>
        <time>2015-07-08T10:11:07.000Z</time>
      </trkpt>
      <trkpt lat="47.44992" lon="6.59563">
        <ele>300</ele>
        <time>2015-07-08T10:11:08.000Z</time>
      </trkpt>
      <trkpt lat="47.44997" lon="6.59559">
        <ele>300</ele>
        <time>2015-07-08T10:11:09.000Z</time>
      </trkpt>
      <trkpt lat="47.45002" lon="6.59555">
        <ele>300</ele>
        <time>2015-07-08T10:11:10.000Z</time>
      </trkpt>
      <trkpt lat="47.45008" lon="6.59551">
        <ele>300</ele>
        <time>2015-07-08T10:11:11.000Z</time>
      </trkpt>
      <trkpt lat="47.45013" lon="6.59547">
        <ele>300</ele>
        <time>2015-07-08T10:11:12.000Z</time>
      </trkpt>
      <trkpt lat="47.45018" lon="6.59543">
        <ele>300</ele>
        <time>2015-07-08T10:11:13.000Z</time>
      </trkpt>
      <trkpt lat="47.45023" lon="6.59539">
        <ele>300</ele>
        <time>2015-07-08T10:11:14.000Z</time>
      </trkpt>
      <trkpt lat="47.45028" lon="6.59535">
        <ele>300</ele>
        <time>2015-07-08T10:11:15.000Z</time>
      </trkpt>
      <trkpt lat="47.45033" lon="6.5953">
        <ele>300</ele>
        <time>2015-07-08T10:11:16.000Z</time>
      </trkpt>
      <trkpt lat="47.45039" lon="6.59526">
        <ele>300</ele>
        <time>2015-07-08T10:11:17.000Z</time>
      </trkpt>
      <trkpt lat="47.45044" lon="6.59522">
        <ele>300</ele>
        <time>2015-07-08T10:11:18.000Z</time>
      </trkpt>
      <trkpt lat="47.45049" lon="6.59517">
        <ele>300</ele>
        <time>2015-07-08T10:11:19.000Z</time>
      </trkpt>
      <trkpt lat="47.45054" lon="6.59513">
        <ele>300</ele>
        <time>2015-07-08T10:11:20.000Z</time>
      </trkpt>
      <trkpt lat="47.45059" lon="6.59508">
        <ele>300</ele>
        <time>2015-07-08T10:11:21.000Z</time>
      </trkpt>
      <trkpt lat="47.45064" lon="6.59504">
        <ele>300</ele>
        <time>2015-07-08T10:11:22.000Z</time>
      </trkpt>
      <trkpt lat="47.45069" lon="6.59499">
        <ele>299</ele>
        <time>2015-07-08T10:11:23.000Z</time>
      </trkpt>
      <trkpt lat="47.45074" lon="6.59495">
        <ele>299</ele>
        <time>2015-07-08T10:11:24.000Z</time>
      </trkpt>
      <trkpt lat="47.45078" lon="6.5949">
        <ele>299</ele>
        <time>2015-07-08T10:11:25.000Z</time>
      </trkpt>
      <trkpt lat="47.45082" lon="6.59485">
        <ele>299</ele>
        <time>2015-07-08T10:11:26.000Z</time>
      </trkpt>
      <trkpt lat="47.45086" lon="6.59481">
        <ele>299</ele>
        <time>2015-07-08T10:11:27.000Z</time>
      </trkpt>
      <trkpt lat="47.4509" lon="6.59476">
        <ele>299</ele>
        <time>2015-07-08T10:11:28.000Z</time>
      </trkpt>
      <trkpt lat="47.45093" lon="6.59472">
        <ele>298</ele>
        <time>2015-07-08T10:11:29.000Z</time>
      </trkpt>
      <trkpt lat="47.45096" lon="6.59467">
        <ele>298</ele>
        <time>2015-07-08T10:11:30.000Z</time>
      </trkpt>
      <trkpt lat="47.45099" lon="6.59461">
        <ele>298</ele>
        <time>2015-07-08T10:11:31.000Z</time>
      </trkpt>
      <trkpt lat="47.45102" lon="6.59454">
        <ele>297</ele>
        <time>2015-07-08T10:11:32.000Z</time>
      </trkpt>
      <trkpt lat="47.45105" lon="6.59447">
        <ele>297</ele>
        <time>2015-07-08T10:11:33.000Z</time>
      </trkpt>
      <trkpt lat="47.45108" lon="6.5944">
        <ele>297</ele>
        <time>2015-07-08T10:11:34.000Z</time>
      </trkpt>
      <trkpt lat="47.45112" lon="6.59434">
        <ele>296</ele>
        <time>2015-07-08T10:11:35.000Z</time>
      </trkpt>
      <trkpt lat="47.45115" lon="6.59428">
        <ele>296</ele>
        <time>2015-07-08T10:11:36.000Z</time>
      </trkpt>
      <trkpt lat="47.4512" lon="6.59424">
        <ele>296</ele>
        <time>2015-07-08T10:11:37.000Z</time>
      </trkpt>
      <trkpt lat="47.45125" lon="6.5942">
        <ele>295</ele>
        <time>2015-07-08T10:11:38.000Z</time>
      </trkpt>
      <trkpt lat="47.4513" lon="6.59415">
        <ele>295</ele>
        <time>2015-07-08T10:11:39.000Z</time>
      </trkpt>
      <trkpt lat="47.45134" lon="6.59409">
        <ele>295</ele>
        <time>2015-07-08T10:11:40.000Z</time>
      </trkpt>
      <trkpt lat="47.45139" lon="6.59402">
        <ele>295</ele>
        <time>2015-07-08T10:11:41.000Z</time>
      </trkpt>
      <trkpt lat="47.45143" lon="6.59395">
        <ele>294</ele>
        <time>2015-07-08T10:11:42.000Z</time>
      </trkpt>
      <trkpt lat="47.45148" lon="6.59387">
        <ele>294</ele>
        <time>2015-07-08T10:11:43.000Z</time>
      </trkpt>
      <trkpt lat="47.45152" lon="6.59378">
        <ele>294</ele>
        <time>2015-07-08T10:11:44.000Z</time>
      </trkpt>
      <trkpt lat="47.45156" lon="6.59369">
        <ele>294</ele>
        <time>2015-07-08T10:11:45.000Z</time>
      </trkpt>
      <trkpt lat="47.4516" lon="6.59361">
        <ele>294</ele>
        <time>2015-07-08T10:11:46.000Z</time>
      </trkpt>
      <trkpt lat="47.45163" lon="6.59352">
        <ele>294</ele>
        <time>2015-07-08T10:11:47.000Z</time>
      </trkpt>
      <trkpt lat="47.45167" lon="6.59344">
        <ele>294</ele>
        <time>2015-07-08T10:11:48.000Z</time>
      </trkpt>
      <trkpt lat="47.45171" lon="6.59335">
        <ele>294</ele>
        <time>2015-07-08T10:11:49.000Z</time>
      </trkpt>
      <trkpt lat="47.45174" lon="6.59326">
        <ele>294</ele>
        <time>2015-07-08T10:11:50.000Z</time>
      </trkpt>
      <trkpt lat="47.45178" lon="6.59316">
        <ele>294</ele>
        <time>2015-07-08T10:11:51.000Z</time>
      </trkpt>
      <trkpt lat="47.45181" lon="6.59307">
        <ele>294</ele>
        <time>2015-07-08T10:11:52.000Z</time>
      </trkpt>
      <trkpt lat="47.45184" lon="6.59297">
        <ele>294</ele>
        <time>2015-07-08T10:11:53.000Z</time>
      </trkpt>
      <trkpt lat="47.45186" lon="6.59287">
        <ele>294</ele>
        <time>2015-07-08T10:11:54.000Z</time>
      </trkpt>
      <trkpt lat="47.45189" lon="6.59277">
        <ele>294</ele>
        <time>2015-07-08T10:11:55.000Z</time>
      </trkpt>
      <trkpt lat="47.45192" lon="6.59267">
        <ele>294</ele>
        <time>2015-07-08T10:11:56.000Z</time>
      </trkpt>
      <trkpt lat="47.45194" lon="6.59256">
        <ele>294</ele>
        <time>2015-07-08T10:11:57.000Z</time>
      </trkpt>
      <trkpt lat="47.45196" lon="6.59246">
        <ele>294</ele>
        <time>2015-07-08T10:11:58.000Z</time>
      </trkpt>
      <trkpt lat="47.45199" lon="6.59236">
        <ele>294</ele>
        <time>2015-07-08T10:11:59.000Z</time>
      </trkpt>
      <trkpt lat="47.45201" lon="6.59226">
        <ele>294</ele>
        <time>2015-07-08T10:12:00.000Z</time>
      </trkpt>
      <trkpt lat="47.45203" lon="6.59215">
        <ele>294</ele>
        <time>2015-07-08T10:12:01.000Z</time>
      </trkpt>
      <trkpt lat="47.45205" lon="6.59204">
        <ele>294</ele>
        <time>2015-07-08T10:12:02.000Z</time>
      </trkpt>
      <trkpt lat="47.45207" lon="6.59194">
        <ele>294</ele>
        <time>2015-07-08T10:12:03.000Z</time>
      </trkpt>
      <trkpt lat="47.45208" lon="6.59183">
        <ele>294</ele>
        <time>2015-07-08T10:12:04.000Z</time>
      </trkpt>
      <trkpt lat="47.4521" lon="6.59173">
        <ele>294</ele>
        <time>2015-07-08T10:12:05.000Z</time>
      </trkpt>
      <trkpt lat="47.45212" lon="6.59162">
        <ele>294</ele>
        <time>2015-07-08T10:12:06.000Z</time>
      </trkpt>
      <trkpt lat="47.45213" lon="6.59152">
        <ele>294</ele>
        <time>2015-07-08T10:12:07.000Z</time>
      </trkpt>
      <trkpt lat="47.45215" lon="6.59141">
        <ele>294</ele>
        <time>2015-07-08T10:12:08.000Z</time>
      </trkpt>
      <trkpt lat="47.45216" lon="6.59131">
        <ele>294</ele>
        <time>2015-07-08T10:12:09.000Z</time>
      </trkpt>
      <trkpt lat="47.45217" lon="6.5912">
        <ele>294</ele>
        <time>2015-07-08T10:12:10.000Z</time>
      </trkpt>
      <trkpt lat="47.45218" lon="6.59109">
        <ele>294</ele>
        <time>2015-07-08T10:12:11.000Z</time>
      </trkpt>
      <trkpt lat="47.45219" lon="6.59099">
        <ele>294</ele>
        <time>2015-07-08T10:12:12.000Z</time>
      </trkpt>
      <trkpt lat="47.4522" lon="6.59089">
        <ele>294</ele>
        <time>2015-07-08T10:12:13.000Z</time>
      </trkpt>
      <trkpt lat="47.45221" lon="6.59078">
        <ele>294</ele>
        <time>2015-07-08T10:12:14.000Z</time>
      </trkpt>
      <trkpt lat="47.45221" lon="6.59068">
        <ele>294</ele>
        <time>2015-07-08T10:12:15.000Z</time>
      </trkpt>
      <trkpt lat="47.45221" lon="6.59059">
        <ele>294</ele>
        <time>2015-07-08T10:12:16.000Z</time>
      </trkpt>
      <trkpt lat="47.45221" lon="6.59049">
        <ele>294</ele>
        <time>2015-07-08T10:12:17.000Z</time>
      </trkpt>
      <trkpt lat="47.4522" lon="6.59039">
        <ele>294</ele>
        <time>2015-07-08T10:12:18.000Z</time>
      </trkpt>
      <trkpt lat="47.45221" lon="6.5903">
        <ele>294</ele>
        <time>2015-07-08T10:12:19.000Z</time>
      </trkpt>
      <trkpt lat="47.45221" lon="6.59021">
        <ele>294</ele>
        <time>2015-07-08T10:12:20.000Z</time>
      </trkpt>
      <trkpt lat="47.45221" lon="6.59012">
        <ele>295</ele>
        <time>2015-07-08T10:12:21.000Z</time>
      </trkpt>
      <trkpt lat="47.45222" lon="6.59004">
        <ele>295</ele>
        <time>2015-07-08T10:12:22.000Z</time>
      </trkpt>
      <trkpt lat="47.45224" lon="6.58996">
        <ele>295</ele>
        <time>2015-07-08T10:12:23.000Z</time>
      </trkpt>
      <trkpt lat="47.45226" lon="6.58989">
        <ele>295</ele>
        <time>2015-07-08T10:12:24.000Z</time>
      </trkpt>
      <trkpt lat="47.45228" lon="6.58982">
        <ele>295</ele>
        <time>2015-07-08T10:12:25.000Z</time>
      </trkpt>
      <trkpt lat="47.45229" lon="6.58975">
        <ele>295</ele>
        <time>2015-07-08T10:12:26.000Z</time>
      </trkpt>
      <trkpt lat="47.4523" lon="6.58968">
        <ele>295</ele>
        <time>2015-07-08T10:12:27.000Z</time>
      </trkpt>
      <trkpt lat="47.45231" lon="6.58962">
        <ele>295</ele>
        <time>2015-07-08T10:12:28.000Z</time>
      </trkpt>
      <trkpt lat="47.45231" lon="6.58955">
        <ele>295</ele>
        <time>2015-07-08T10:12:29.000Z</time>
      </trkpt>
      <trkpt lat="47.45231" lon="6.58949">
        <ele>295</ele>
        <time>2015-07-08T10:12:30.000Z</time>
      </trkpt>
      <trkpt lat="47.4523" lon="6.58942">
        <ele>296</ele>
        <time>2015-07-08T10:12:31.000Z</time>
      </trkpt>
      <trkpt lat="47.45228" lon="6.58936">
        <ele>296</ele>
        <time>2015-07-08T10:12:32.000Z</time>
      </trkpt>
      <trkpt lat="47.45226" lon="6.5893">
        <ele>296</ele>
        <time>2015-07-08T10:12:33.000Z</time>
      </trkpt>
      <trkpt lat="47.45223" lon="6.58924">
        <ele>296</ele>
        <time>2015-07-08T10:12:34.000Z</time>
      </trkpt>
      <trkpt lat="47.45221" lon="6.58919">
        <ele>296</ele>
        <time>2015-07-08T10:12:35.000Z</time>
      </trkpt>
      <trkpt lat="47.45218" lon="6.58915">
        <ele>296</ele>
        <time>2015-07-08T10:12:36.000Z</time>
      </trkpt>
      <trkpt lat="47.45216" lon="6.5891">
        <ele>296</ele>
        <time>2015-07-08T10:12:37.000Z</time>
      </trkpt>
      <trkpt lat="47.45214" lon="6.58905">
        <ele>296</ele>
        <time>2015-07-08T10:12:38.000Z</time>
      </trkpt>
      <trkpt lat="47.45212" lon="6.58901">
        <ele>296</ele>
        <time>2015-07-08T10:12:39.000Z</time>
      </trkpt>
      <trkpt lat="47.4521" lon="6.58896">
        <ele>297</ele>
        <time>2015-07-08T10:12:40.000Z</time>
      </trkpt>
      <trkpt lat="47.45208" lon="6.58891">
        <ele>297</ele>
        <time>2015-07-08T10:12:41.000Z</time>
      </trkpt>
      <trkpt lat="47.45206" lon="6.58886">
        <ele>297</ele>
        <time>2015-07-08T10:12:42.000Z</time>
      </trkpt>
      <trkpt lat="47.45204" lon="6.58881">
        <ele>297</ele>
        <time>2015-07-08T10:12:43.000Z</time>
      </trkpt>
      <trkpt lat="47.45202" lon="6.58876">
        <ele>297</ele>
        <time>2015-07-08T10:12:44.000Z</time>
      </trkpt>
      <trkpt lat="47.45201" lon="6.58872">
        <ele>297</ele>
        <time>2015-07-08T10:12:45.000Z</time>
      </trkpt>
      <trkpt lat="47.45199" lon="6.58867">
        <ele>297</ele>
        <time>2015-07-08T10:12:46.000Z</time>
      </trkpt>
      <trkpt lat="47.45198" lon="6.58862">
        <ele>297</ele>
        <time>2015-07-08T10:12:47.000Z</time>
      </trkpt>
      <trkpt lat="47.45196" lon="6.58857">
        <ele>297</ele>
        <time>2015-07-08T10:12:48.000Z</time>
      </trkpt>
      <trkpt lat="47.45195" lon="6.58852">
        <ele>297</ele>
        <time>2015-07-08T10:12:49.000Z</time>
      </trkpt>
      <trkpt lat="47.45193" lon="6.58847">
        <ele>297</ele>
        <time>2015-07-08T10:12:50.000Z</time>
      </trkpt>
      <trkpt lat="47.45192" lon="6.58842">
        <ele>297</ele>
        <time>2015-07-08T10:12:51.000Z</time>
      </trkpt>
      <trkpt lat="47.4519" lon="6.58837">
        <ele>297</ele>
        <time>2015-07-08T10:12:52.000Z</time>
      </trkpt>
      <trkpt lat="47.45189" lon="6.58832">
        <ele>298</ele>
        <time>2015-07-08T10:12:53.000Z</time>
      </trkpt>
      <trkpt lat="47.45187" lon="6.58826">
        <ele>298</ele>
        <time>2015-07-08T10:12:54.000Z</time>
      </trkpt>
      <trkpt lat="47.45186" lon="6.58821">
        <ele>298</ele>
        <time>2015-07-08T10:12:55.000Z</time>
      </trkpt>
      <trkpt lat="47.45184" lon="6.58816">
        <ele>298</ele>
        <time>2015-07-08T10:12:56.000Z</time>
      </trkpt>
      <trkpt lat="47.45183" lon="6.58811">
        <ele>298</ele>
        <time>2015-07-08T10:12:57.000Z</time>
      </trkpt>
      <trkpt lat="47.45181" lon="6.58805">
        <ele>298</ele>
        <time>2015-07-08T10:12:58.000Z</time>
      </trkpt>
      <trkpt lat="47.45179" lon="6.588">
        <ele>298</ele>
        <time>2015-07-08T10:12:59.000Z</time>
      </trkpt>
      <trkpt lat="47.45178" lon="6.58795">
        <ele>298</ele>
        <time>2015-07-08T10:13:00.000Z</time>
      </trkpt>
      <trkpt lat="47.45176" lon="6.5879">
        <ele>298</ele>
        <time>2015-07-08T10:13:01.000Z</time>
      </trkpt>
      <trkpt lat="47.45174" lon="6.58785">
        <ele>298</ele>
        <time>2015-07-08T10:13:02.000Z</time>
      </trkpt>
      <trkpt lat="47.45173" lon="6.5878">
        <ele>298</ele>
        <time>2015-07-08T10:13:03.000Z</time>
      </trkpt>
      <trkpt lat="47.45171" lon="6.58775">
        <ele>298</ele>
        <time>2015-07-08T10:13:04.000Z</time>
      </trkpt>
      <trkpt lat="47.4517" lon="6.58769">
        <ele>298</ele>
        <time>2015-07-08T10:13:05.000Z</time>
      </trkpt>
      <trkpt lat="47.45168" lon="6.58763">
        <ele>298</ele>
        <time>2015-07-08T10:13:06.000Z</time>
      </trkpt>
      <trkpt lat="47.45167" lon="6.58758">
        <ele>298</ele>
        <time>2015-07-08T10:13:07.000Z</time>
      </trkpt>
      <trkpt lat="47.45165" lon="6.58751">
        <ele>298</ele>
        <time>2015-07-08T10:13:08.000Z</time>
      </trkpt>
      <trkpt lat="47.45164" lon="6.58745">
        <ele>298</ele>
        <time>2015-07-08T10:13:09.000Z</time>
      </trkpt>
      <trkpt lat="47.45162" lon="6.58739">
        <ele>298</ele>
        <time>2015-07-08T10:13:10.000Z</time>
      </trkpt>
      <trkpt lat="47.4516" lon="6.58734">
        <ele>298</ele>
        <time>2015-07-08T10:13:11.000Z</time>
      </trkpt>
      <trkpt lat="47.45158" lon="6.58728">
        <ele>298</ele>
        <time>2015-07-08T10:13:12.000Z</time>
      </trkpt>
      <trkpt lat="47.45156" lon="6.58723">
        <ele>298</ele>
        <time>2015-07-08T10:13:13.000Z</time>
      </trkpt>
      <trkpt lat="47.45154" lon="6.58717">
        <ele>298</ele>
        <time>2015-07-08T10:13:14.000Z</time>
      </trkpt>
      <trkpt lat="47.45152" lon="6.58711">
        <ele>298</ele>
        <time>2015-07-08T10:13:15.000Z</time>
      </trkpt>
      <trkpt lat="47.4515" lon="6.58706">
        <ele>298</ele>
        <time>2015-07-08T10:13:16.000Z</time>
      </trkpt>
      <trkpt lat="47.45148" lon="6.587">
        <ele>298</ele>
        <time>2015-07-08T10:13:17.000Z</time>
      </trkpt>
      <trkpt lat="47.45146" lon="6.58693">
        <ele>298</ele>
        <time>2015-07-08T10:13:18.000Z</time>
      </trkpt>
      <trkpt lat="47.45144" lon="6.58687">
        <ele>298</ele>
        <time>2015-07-08T10:13:19.000Z</time>
      </trkpt>
      <trkpt lat="47.45142" lon="6.5868">
        <ele>298</ele>
        <time>2015-07-08T10:13:20.000Z</time>
      </trkpt>
      <trkpt lat="47.4514" lon="6.58674">
        <ele>298</ele>
        <time>2015-07-08T10:13:21.000Z</time>
      </trkpt>
      <trkpt lat="47.45138" lon="6.58667">
        <ele>297</ele>
        <time>2015-07-08T10:13:22.000Z</time>
      </trkpt>
      <trkpt lat="47.45136" lon="6.5866">
        <ele>297</ele>
        <time>2015-07-08T10:13:23.000Z</time>
      </trkpt>
      <trkpt lat="47.45134" lon="6.58654">
        <ele>297</ele>
        <time>2015-07-08T10:13:24.000Z</time>
      </trkpt>
      <trkpt lat="47.45132" lon="6.58647">
        <ele>297</ele>
        <time>2015-07-08T10:13:25.000Z</time>
      </trkpt>
      <trkpt lat="47.4513" lon="6.5864">
        <ele>297</ele>
        <time>2015-07-08T10:13:26.000Z</time>
      </trkpt>
      <trkpt lat="47.45127" lon="6.58634">
        <ele>297</ele>
        <time>2015-07-08T10:13:27.000Z</time>
      </trkpt>
      <trkpt lat="47.45125" lon="6.58627">
        <ele>297</ele>
        <time>2015-07-08T10:13:28.000Z</time>
      </trkpt>
      <trkpt lat="47.45123" lon="6.5862">
        <ele>297</ele>
        <time>2015-07-08T10:13:29.000Z</time>
      </trkpt>
      <trkpt lat="47.45121" lon="6.58614">
        <ele>297</ele>
        <time>2015-07-08T10:13:30.000Z</time>
      </trkpt>
      <trkpt lat="47.45118" lon="6.58607">
        <ele>297</ele>
        <time>2015-07-08T10:13:31.000Z</time>
      </trkpt>
      <trkpt lat="47.45116" lon="6.58601">
        <ele>297</ele>
        <time>2015-07-08T10:13:32.000Z</time>
      </trkpt>
      <trkpt lat="47.45113" lon="6.58594">
        <ele>297</ele>
        <time>2015-07-08T10:13:33.000Z</time>
      </trkpt>
      <trkpt lat="47.45111" lon="6.58587">
        <ele>297</ele>
        <time>2015-07-08T10:13:34.000Z</time>
      </trkpt>
      <trkpt lat="47.45108" lon="6.58581">
        <ele>297</ele>
        <time>2015-07-08T10:13:35.000Z</time>
      </trkpt>
      <trkpt lat="47.45106" lon="6.58575">
        <ele>298</ele>
        <time>2015-07-08T10:13:36.000Z</time>
      </trkpt>
      <trkpt lat="47.45104" lon="6.58569">
        <ele>298</ele>
        <time>2015-07-08T10:13:37.000Z</time>
      </trkpt>
      <trkpt lat="47.45101" lon="6.58563">
        <ele>298</ele>
        <time>2015-07-08T10:13:38.000Z</time>
      </trkpt>
      <trkpt lat="47.45099" lon="6.58557">
        <ele>298</ele>
        <time>2015-07-08T10:13:39.000Z</time>
      </trkpt>
      <trkpt lat="47.45096" lon="6.5855">
        <ele>298</ele>
        <time>2015-07-08T10:13:40.000Z</time>
      </trkpt>
      <trkpt lat="47.45093" lon="6.58544">
        <ele>298</ele>
        <time>2015-07-08T10:13:41.000Z</time>
      </trkpt>
      <trkpt lat="47.45091" lon="6.58537">
        <ele>298</ele>
        <time>2015-07-08T10:13:42.000Z</time>
      </trkpt>
      <trkpt lat="47.45088" lon="6.5853">
        <ele>298</ele>
        <time>2015-07-08T10:13:43.000Z</time>
      </trkpt>
      <trkpt lat="47.45085" lon="6.58523">
        <ele>298</ele>
        <time>2015-07-08T10:13:44.000Z</time>
      </trkpt>
      <trkpt lat="47.45082" lon="6.58516">
        <ele>298</ele>
        <time>2015-07-08T10:13:45.000Z</time>
      </trkpt>
      <trkpt lat="47.45079" lon="6.5851">
        <ele>298</ele>
        <time>2015-07-08T10:13:46.000Z</time>
      </trkpt>
      <trkpt lat="47.45077" lon="6.58503">
        <ele>298</ele>
        <time>2015-07-08T10:13:47.000Z</time>
      </trkpt>
      <trkpt lat="47.45073" lon="6.58497">
        <ele>298</ele>
        <time>2015-07-08T10:13:48.000Z</time>
      </trkpt>
      <trkpt lat="47.4507" lon="6.58491">
        <ele>298</ele>
        <time>2015-07-08T10:13:49.000Z</time>
      </trkpt>
      <trkpt lat="47.45067" lon="6.58485">
        <ele>298</ele>
        <time>2015-07-08T10:13:50.000Z</time>
      </trkpt>
      <trkpt lat="47.45064" lon="6.58479">
        <ele>298</ele>
        <time>2015-07-08T10:13:51.000Z</time>
      </trkpt>
      <trkpt lat="47.45061" lon="6.58473">
        <ele>298</ele>
        <time>2015-07-08T10:13:52.000Z</time>
      </trkpt>
      <trkpt lat="47.45058" lon="6.58466">
        <ele>298</ele>
        <time>2015-07-08T10:13:53.000Z</time>
      </trkpt>
      <trkpt lat="47.45055" lon="6.5846">
        <ele>298</ele>
        <time>2015-07-08T10:13:54.000Z</time>
      </trkpt>
      <trkpt lat="47.45052" lon="6.58454">
        <ele>298</ele>
        <time>2015-07-08T10:13:55.000Z</time>
      </trkpt>
      <trkpt lat="47.45049" lon="6.58448">
        <ele>298</ele>
        <time>2015-07-08T10:13:56.000Z</time>
      </trkpt>
      <trkpt lat="47.45046" lon="6.58442">
        <ele>298</ele>
        <time>2015-07-08T10:13:57.000Z</time>
      </trkpt>
      <trkpt lat="47.45043" lon="6.58436">
        <ele>298</ele>
        <time>2015-07-08T10:13:58.000Z</time>
      </trkpt>
      <trkpt lat="47.4504" lon="6.58431">
        <ele>298</ele>
        <time>2015-07-08T10:13:59.000Z</time>
      </trkpt>
      <trkpt lat="47.45036" lon="6.58425">
        <ele>298</ele>
        <time>2015-07-08T10:14:00.000Z</time>
      </trkpt>
      <trkpt lat="47.45033" lon="6.5842">
        <ele>297</ele>
        <time>2015-07-08T10:14:01.000Z</time>
      </trkpt>
      <trkpt lat="47.45029" lon="6.58414">
        <ele>297</ele>
        <time>2015-07-08T10:14:02.000Z</time>
      </trkpt>
      <trkpt lat="47.45026" lon="6.58408">
        <ele>297</ele>
        <time>2015-07-08T10:14:03.000Z</time>
      </trkpt>
      <trkpt lat="47.45023" lon="6.58402">
        <ele>297</ele>
        <time>2015-07-08T10:14:04.000Z</time>
      </trkpt>
      <trkpt lat="47.45019" lon="6.58396">
        <ele>297</ele>
        <time>2015-07-08T10:14:05.000Z</time>
      </trkpt>
      <trkpt lat="47.45016" lon="6.58391">
        <ele>297</ele>
        <time>2015-07-08T10:14:06.000Z</time>
      </trkpt>
      <trkpt lat="47.45012" lon="6.58385">
        <ele>297</ele>
        <time>2015-07-08T10:14:07.000Z</time>
      </trkpt>
      <trkpt lat="47.45009" lon="6.5838">
        <ele>297</ele>
        <time>2015-07-08T10:14:08.000Z</time>
      </trkpt>
      <trkpt lat="47.45006" lon="6.58375">
        <ele>297</ele>
        <time>2015-07-08T10:14:09.000Z</time>
      </trkpt>
      <trkpt lat="47.45002" lon="6.58369">
        <ele>297</ele>
        <time>2015-07-08T10:14:10.000Z</time>
      </trkpt>
      <trkpt lat="47.44999" lon="6.58364">
        <ele>297</ele>
        <time>2015-07-08T10:14:11.000Z</time>
      </trkpt>
      <trkpt lat="47.44995" lon="6.58358">
        <ele>297</ele>
        <time>2015-07-08T10:14:12.000Z</time>
      </trkpt>
      <trkpt lat="47.44992" lon="6.58353">
        <ele>297</ele>
        <time>2015-07-08T10:14:13.000Z</time>
      </trkpt>
      <trkpt lat="47.44989" lon="6.58347">
        <ele>297</ele>
        <time>2015-07-08T10:14:14.000Z</time>
      </trkpt>
      <trkpt lat="47.44986" lon="6.58342">
        <ele>297</ele>
        <time>2015-07-08T10:14:15.000Z</time>
      </trkpt>
      <trkpt lat="47.44982" lon="6.58337">
        <ele>297</ele>
        <time>2015-07-08T10:14:16.000Z</time>
      </trkpt>
      <trkpt lat="47.44978" lon="6.58331">
        <ele>297</ele>
        <time>2015-07-08T10:14:17.000Z</time>
      </trkpt>
      <trkpt lat="47.44975" lon="6.58325">
        <ele>297</ele>
        <time>2015-07-08T10:14:18.000Z</time>
      </trkpt>
      <trkpt lat="47.44972" lon="6.5832">
        <ele>297</ele>
        <time>2015-07-08T10:14:19.000Z</time>
      </trkpt>
      <trkpt lat="47.44968" lon="6.58316">
        <ele>297</ele>
        <time>2015-07-08T10:14:20.000Z</time>
      </trkpt>
      <trkpt lat="47.44964" lon="6.58311">
        <ele>297</ele>
        <time>2015-07-08T10:14:21.000Z</time>
      </trkpt>
      <trkpt lat="47.44961" lon="6.58307">
        <ele>297</ele>
        <time>2015-07-08T10:14:22.000Z</time>
      </trkpt>
      <trkpt lat="47.44957" lon="6.58302">
        <ele>297</ele>
        <time>2015-07-08T10:14:23.000Z</time>
      </trkpt>
      <trkpt lat="47.44953" lon="6.58298">
        <ele>297</ele>
        <time>2015-07-08T10:14:24.000Z</time>
      </trkpt>
      <trkpt lat="47.4495" lon="6.58294">
        <ele>297</ele>
        <time>2015-07-08T10:14:25.000Z</time>
      </trkpt>
      <trkpt lat="47.44947" lon="6.58289">
        <ele>296</ele>
        <time>2015-07-08T10:14:26.000Z</time>
      </trkpt>
      <trkpt lat="47.44943" lon="6.58285">
        <ele>296</ele>
        <time>2015-07-08T10:14:27.000Z</time>
      </trkpt>
      <trkpt lat="47.4494" lon="6.5828">
        <ele>296</ele>
        <time>2015-07-08T10:14:28.000Z</time>
      </trkpt>
      <trkpt lat="47.44936" lon="6.58275">
        <ele>296</ele>
        <time>2015-07-08T10:14:29.000Z</time>
      </trkpt>
      <trkpt lat="47.44933" lon="6.5827">
        <ele>296</ele>
        <time>2015-07-08T10:14:30.000Z</time>
      </trkpt>
      <trkpt lat="47.44929" lon="6.58265">
        <ele>296</ele>
        <time>2015-07-08T10:14:31.000Z</time>
      </trkpt>
      <trkpt lat="47.44926" lon="6.5826">
        <ele>296</ele>
        <time>2015-07-08T10:14:32.000Z</time>
      </trkpt>
      <trkpt lat="47.44922" lon="6.58256">
        <ele>296</ele>
        <time>2015-07-08T10:14:33.000Z</time>
      </trkpt>
      <trkpt lat="47.44919" lon="6.58251">
        <ele>297</ele>
        <time>2015-07-08T10:14:34.000Z</time>
      </trkpt>
      <trkpt lat="47.44916" lon="6.58247">
        <ele>297</ele>
        <time>2015-07-08T10:14:35.000Z</time>
      </trkpt>
      <trkpt lat="47.44913" lon="6.58242">
        <ele>297</ele>
        <time>2015-07-08T10:14:36.000Z</time>
      </trkpt>
      <trkpt lat="47.44911" lon="6.58239">
        <ele>297</ele>
        <time>2015-07-08T10:14:37.000Z</time>
      </trkpt>
      <trkpt lat="47.44909" lon="6.58235">
        <ele>297</ele>
        <time>2015-07-08T10:14:38.000Z</time>
      </trkpt>
      <trkpt lat="47.44907" lon="6.58232">
        <ele>297</ele>
        <time>2015-07-08T10:14:39.000Z</time>
      </trkpt>
      <trkpt lat="47.44906" lon="6.58229">
        <ele>297</ele>
        <time>2015-07-08T10:14:40.000Z</time>
      </trkpt>
      <trkpt lat="47.44906" lon="6.58226">
        <ele>297</ele>
        <time>2015-07-08T10:14:41.000Z</time>
      </trkpt>
      <trkpt lat="47.44905" lon="6.58224">
        <ele>297</ele>
        <time>2015-07-08T10:14:42.000Z</time>
      </trkpt>
      <trkpt lat="47.44904" lon="6.58222">
        <ele>297</ele>
        <time>2015-07-08T10:14:43.000Z</time>
      </trkpt>
      <trkpt lat="47.44903" lon="6.58221">
        <ele>297</ele>
        <time>2015-07-08T10:14:44.000Z</time>
      </trkpt>
      <trkpt lat="47.44903" lon="6.58221">
        <ele>297</ele>
        <time>2015-07-08T10:14:45.000Z</time>
      </trkpt>
      <trkpt lat="47.44903" lon="6.5822">
        <ele>297</ele>
        <time>2015-07-08T10:14:46.000Z</time>
      </trkpt>
      <trkpt lat="47.44902" lon="6.5822">
        <ele>297</ele>
        <time>2015-07-08T10:14:47.000Z</time>
      </trkpt>
      <trkpt lat="47.44902" lon="6.5822">
        <ele>297</ele>
        <time>2015-07-08T10:14:48.000Z</time>
      </trkpt>
      <trkpt lat="47.44902" lon="6.5822">
        <ele>297</ele>
        <time>2015-07-08T10:14:49.000Z</time>
      </trkpt>
      <trkpt lat="47.44902" lon="6.5822">
        <ele>297</ele>
        <time>2015-07-08T10:14:50.000Z</time>
      </trkpt>
      <trkpt lat="47.44902" lon="6.58219">
        <ele>297</ele>
        <time>2015-07-08T10:14:51.000Z</time>
      </trkpt>
      <trkpt lat="47.44901" lon="6.58218">
        <ele>297</ele>
        <time>2015-07-08T10:14:52.000Z</time>
      </trkpt>
      <trkpt lat="47.449" lon="6.58216">
        <ele>297</ele>
        <time>2015-07-08T10:14:53.000Z</time>
      </trkpt>
      <trkpt lat="47.44898" lon="6.58215">
        <ele>297</ele>
        <time>2015-07-08T10:14:54.000Z</time>
      </trkpt>
      <trkpt lat="47.44897" lon="6.58215">
        <ele>297</ele>
        <time>2015-07-08T10:14:55.000Z</time>
      </trkpt>
      <trkpt lat="47.44897" lon="6.58215">
        <ele>297</ele>
        <time>2015-07-08T10:14:56.000Z</time>
      </trkpt>
      <trkpt lat="47.44897" lon="6.58215">
        <ele>297</ele>
        <time>2015-07-08T10:14:57.000Z</time>
      </trkpt>
      <trkpt lat="47.44897" lon="6.58215">
        <ele>297</ele>
        <time>2015-07-08T10:14:58.000Z</time>
      </trkpt>
      <trkpt lat="47.44897" lon="6.58215">
        <ele>297</ele>
        <time>2015-07-08T10:14:59.000Z</time>
      </trkpt>
      <trkpt lat="47.44897" lon="6.58215">
        <ele>297</ele>
        <time>2015-07-08T10:15:00.000Z</time>
      </trkpt>
      <trkpt lat="47.44897" lon="6.58215">
        <ele>297</ele>
        <time>2015-07-08T10:15:01.000Z</time>
      </trkpt>
      <trkpt lat="47.44897" lon="6.58215">
        <ele>297</ele>
        <time>2015-07-08T10:15:02.000Z</time>
      </trkpt>
      <trkpt lat="47.44897" lon="6.58215">
        <ele>297</ele>
        <time>2015-07-08T10:15:03.000Z</time>
      </trkpt>
      <trkpt lat="47.44897" lon="6.58215">
        <ele>297</ele>
        <time>2015-07-08T10:15:04.000Z</time>
      </trkpt>
      <trkpt lat="47.44896" lon="6.58216">
        <ele>297</ele>
        <time>2015-07-08T10:15:05.000Z</time>
      </trkpt>
      <trkpt lat="47.44896" lon="6.58217">
        <ele>297</ele>
        <time>2015-07-08T10:15:06.000Z</time>
      </trkpt>
      <trkpt lat="47.44895" lon="6.58219">
        <ele>298</ele>
        <time>2015-07-08T10:15:07.000Z</time>
      </trkpt>
      <trkpt lat="47.44894" lon="6.58221">
        <ele>298</ele>
        <time>2015-07-08T10:15:08.000Z</time>
      </trkpt>
      <trkpt lat="47.44892" lon="6.58223">
        <ele>298</ele>
        <time>2015-07-08T10:15:09.000Z</time>
      </trkpt>
      <trkpt lat="47.44891" lon="6.58226">
        <ele>298</ele>
        <time>2015-07-08T10:15:10.000Z</time>
      </trkpt>
      <trkpt lat="47.44889" lon="6.58229">
        <ele>298</ele>
        <time>2015-07-08T10:15:11.000Z</time>
      </trkpt>
      <trkpt lat="47.44887" lon="6.58232">
        <ele>298</ele>
        <time>2015-07-08T10:15:12.000Z</time>
      </trkpt>
      <trkpt lat="47.44885" lon="6.58237">
        <ele>297</ele>
        <time>2015-07-08T10:15:13.000Z</time>
      </trkpt>
      <trkpt lat="47.44881" lon="6.58241">
        <ele>297</ele>
        <time>2015-07-08T10:15:14.000Z</time>
      </trkpt>
      <trkpt lat="47.44878" lon="6.58246">
        <ele>297</ele>
        <time>2015-07-08T10:15:15.000Z</time>
      </trkpt>
      <trkpt lat="47.44874" lon="6.58251">
        <ele>297</ele>
        <time>2015-07-08T10:15:16.000Z</time>
      </trkpt>
      <trkpt lat="47.4487" lon="6.58257">
        <ele>297</ele>
        <time>2015-07-08T10:15:17.000Z</time>
      </trkpt>
      <trkpt lat="47.44866" lon="6.58262">
        <ele>297</ele>
        <time>2015-07-08T10:15:18.000Z</time>
      </trkpt>
      <trkpt lat="47.44862" lon="6.58267">
        <ele>297</ele>
        <time>2015-07-08T10:15:19.000Z</time>
      </trkpt>
      <trkpt lat="47.44858" lon="6.58273">
        <ele>297</ele>
        <time>2015-07-08T10:15:20.000Z</time>
      </trkpt>
      <trkpt lat="47.44854" lon="6.58278">
        <ele>297</ele>
        <time>2015-07-08T10:15:21.000Z</time>
      </trkpt>
      <trkpt lat="47.44851" lon="6.58283">
        <ele>297</ele>
        <time>2015-07-08T10:15:22.000Z</time>
      </trkpt>
      <trkpt lat="47.44848" lon="6.58287">
        <ele>297</ele>
        <time>2015-07-08T10:15:23.000Z</time>
      </trkpt>
      <trkpt lat="47.44846" lon="6.58291">
        <ele>297</ele>
        <time>2015-07-08T10:15:24.000Z</time>
      </trkpt>
      <trkpt lat="47.44843" lon="6.58296">
        <ele>297</ele>
        <time>2015-07-08T10:15:25.000Z</time>
      </trkpt>
      <trkpt lat="47.4484" lon="6.58301">
        <ele>297</ele>
        <time>2015-07-08T10:15:26.000Z</time>
      </trkpt>
      <trkpt lat="47.44837" lon="6.58306">
        <ele>297</ele>
        <time>2015-07-08T10:15:27.000Z</time>
      </trkpt>
      <trkpt lat="47.44834" lon="6.58311">
        <ele>297</ele>
        <time>2015-07-08T10:15:28.000Z</time>
      </trkpt>
      <trkpt lat="47.44831" lon="6.58316">
        <ele>297</ele>
        <time>2015-07-08T10:15:29.000Z</time>
      </trkpt>
      <trkpt lat="47.44828" lon="6.58321">
        <ele>297</ele>
        <time>2015-07-08T10:15:30.000Z</time>
      </trkpt>
      <trkpt lat="47.44825" lon="6.58325">
        <ele>297</ele>
        <time>2015-07-08T10:15:31.000Z</time>
      </trkpt>
      <trkpt lat="47.44822" lon="6.5833">
        <ele>296</ele>
        <time>2015-07-08T10:15:32.000Z</time>
      </trkpt>
      <trkpt lat="47.44819" lon="6.58335">
        <ele>296</ele>
        <time>2015-07-08T10:15:33.000Z</time>
      </trkpt>
      <trkpt lat="47.44817" lon="6.5834">
        <ele>296</ele>
        <time>2015-07-08T10:15:34.000Z</time>
      </trkpt>
      <trkpt lat="47.44816" lon="6.58345">
        <ele>296</ele>
        <time>2015-07-08T10:15:35.000Z</time>
      </trkpt>
      <trkpt lat="47.44817" lon="6.58351">
        <ele>296</ele>
        <time>2015-07-08T10:15:36.000Z</time>
      </trkpt>
      <trkpt lat="47.44819" lon="6.58356">
        <ele>296</ele>
        <time>2015-07-08T10:15:37.000Z</time>
      </trkpt>
      <trkpt lat="47.44822" lon="6.5836">
        <ele>296</ele>
        <time>2015-07-08T10:15:38.000Z</time>
      </trkpt>
      <trkpt lat="47.44825" lon="6.58363">
        <ele>296</ele>
        <time>2015-07-08T10:15:39.000Z</time>
      </trkpt>
      <trkpt lat="47.44829" lon="6.58367">
        <ele>296</ele>
        <time>2015-07-08T10:15:40.000Z</time>
      </trkpt>
      <trkpt lat="47.44832" lon="6.58372">
        <ele>296</ele>
        <time>2015-07-08T10:15:41.000Z</time>
      </trkpt>
      <trkpt lat="47.44835" lon="6.58377">
        <ele>296</ele>
        <time>2015-07-08T10:15:42.000Z</time>
      </trkpt>
      <trkpt lat="47.44837" lon="6.58382">
        <ele>296</ele>
        <time>2015-07-08T10:15:43.000Z</time>
      </trkpt>
      <trkpt lat="47.4484" lon="6.58388">
        <ele>296</ele>
        <time>2015-07-08T10:15:44.000Z</time>
      </trkpt>
      <trkpt lat="47.44842" lon="6.58393">
        <ele>296</ele>
        <time>2015-07-08T10:15:45.000Z</time>
      </trkpt>
      <trkpt lat="47.44844" lon="6.58398">
        <ele>296</ele>
        <time>2015-07-08T10:15:46.000Z</time>
      </trkpt>
      <trkpt lat="47.44846" lon="6.58403">
        <ele>296</ele>
        <time>2015-07-08T10:15:47.000Z</time>
      </trkpt>
      <trkpt lat="47.44847" lon="6.58408">
        <ele>296</ele>
        <time>2015-07-08T10:15:48.000Z</time>
      </trkpt>
      <trkpt lat="47.44848" lon="6.58414">
        <ele>296</ele>
        <time>2015-07-08T10:15:49.000Z</time>
      </trkpt>
      <trkpt lat="47.44849" lon="6.5842">
        <ele>296</ele>
        <time>2015-07-08T10:15:50.000Z</time>
      </trkpt>
      <trkpt lat="47.44849" lon="6.58427">
        <ele>296</ele>
        <time>2015-07-08T10:15:51.000Z</time>
      </trkpt>
      <trkpt lat="47.4485" lon="6.58433">
        <ele>296</ele>
        <time>2015-07-08T10:15:52.000Z</time>
      </trkpt>
      <trkpt lat="47.4485" lon="6.58439">
        <ele>296</ele>
        <time>2015-07-08T10:15:53.000Z</time>
      </trkpt>
      <trkpt lat="47.44851" lon="6.58446">
        <ele>296</ele>
        <time>2015-07-08T10:15:54.000Z</time>
      </trkpt>
      <trkpt lat="47.44851" lon="6.58452">
        <ele>296</ele>
        <time>2015-07-08T10:15:55.000Z</time>
      </trkpt>
      <trkpt lat="47.44851" lon="6.58459">
        <ele>296</ele>
        <time>2015-07-08T10:15:56.000Z</time>
      </trkpt>
      <trkpt lat="47.4485" lon="6.58465">
        <ele>296</ele>
        <time>2015-07-08T10:15:57.000Z</time>
      </trkpt>
      <trkpt lat="47.44848" lon="6.5847">
        <ele>296</ele>
        <time>2015-07-08T10:15:58.000Z</time>
      </trkpt>
      <trkpt lat="47.44846" lon="6.58475">
        <ele>296</ele>
        <time>2015-07-08T10:15:59.000Z</time>
      </trkpt>
      <trkpt lat="47.44843" lon="6.58479">
        <ele>296</ele>
        <time>2015-07-08T10:16:00.000Z</time>
      </trkpt>
      <trkpt lat="47.44841" lon="6.58483">
        <ele>296</ele>
        <time>2015-07-08T10:16:01.000Z</time>
      </trkpt>
      <trkpt lat="47.44838" lon="6.58487">
        <ele>296</ele>
        <time>2015-07-08T10:16:02.000Z</time>
      </trkpt>
      <trkpt lat="47.44835" lon="6.5849">
        <ele>296</ele>
        <time>2015-07-08T10:16:03.000Z</time>
      </trkpt>
      <trkpt lat="47.44833" lon="6.58493">
        <ele>296</ele>
        <time>2015-07-08T10:16:04.000Z</time>
      </trkpt>
      <trkpt lat="47.4483" lon="6.58497">
        <ele>296</ele>
        <time>2015-07-08T10:16:05.000Z</time>
      </trkpt>
      <trkpt lat="47.44826" lon="6.585">
        <ele>297</ele>
        <time>2015-07-08T10:16:06.000Z</time>
      </trkpt>
      <trkpt lat="47.44823" lon="6.58503">
        <ele>297</ele>
        <time>2015-07-08T10:16:07.000Z</time>
      </trkpt>
      <trkpt lat="47.4482" lon="6.58506">
        <ele>297</ele>
        <time>2015-07-08T10:16:08.000Z</time>
      </trkpt>
      <trkpt lat="47.44817" lon="6.58509">
        <ele>297</ele>
        <time>2015-07-08T10:16:09.000Z</time>
      </trkpt>
      <trkpt lat="47.44814" lon="6.58513">
        <ele>297</ele>
        <time>2015-07-08T10:16:10.000Z</time>
      </trkpt>
      <trkpt lat="47.4481" lon="6.58516">
        <ele>297</ele>
        <time>2015-07-08T10:16:11.000Z</time>
      </trkpt>
      <trkpt lat="47.44807" lon="6.58519">
        <ele>297</ele>
        <time>2015-07-08T10:16:12.000Z</time>
      </trkpt>
      <trkpt lat="47.44804" lon="6.58522">
        <ele>297</ele>
        <time>2015-07-08T10:16:13.000Z</time>
      </trkpt>
      <trkpt lat="47.44802" lon="6.58525">
        <ele>297</ele>
        <time>2015-07-08T10:16:14.000Z</time>
      </trkpt>
      <trkpt lat="47.44799" lon="6.58528">
        <ele>298</ele>
        <time>2015-07-08T10:16:15.000Z</time>
      </trkpt>
      <trkpt lat="47.44796" lon="6.5853">
        <ele>298</ele>
        <time>2015-07-08T10:16:16.000Z</time>
      </trkpt>
      <trkpt lat="47.44794" lon="6.58533">
        <ele>298</ele>
        <time>2015-07-08T10:16:17.000Z</time>
      </trkpt>
      <trkpt lat="47.4479" lon="6.58536">
        <ele>298</ele>
        <time>2015-07-08T10:16:18.000Z</time>
      </trkpt>
      <trkpt lat="47.44787" lon="6.58539">
        <ele>298</ele>
        <time>2015-07-08T10:16:19.000Z</time>
      </trkpt>
      <trkpt lat="47.44784" lon="6.58542">
        <ele>298</ele>
        <time>2015-07-08T10:16:20.000Z</time>
      </trkpt>
      <trkpt lat="47.44781" lon="6.58545">
        <ele>298</ele>
        <time>2015-07-08T10:16:21.000Z</time>
      </trkpt>
      <trkpt lat="47.44778" lon="6.58548">
        <ele>299</ele>
        <time>2015-07-08T10:16:22.000Z</time>
      </trkpt>
      <trkpt lat="47.44775" lon="6.58551">
        <ele>299</ele>
        <time>2015-07-08T10:16:23.000Z</time>
      </trkpt>
      <trkpt lat="47.44772" lon="6.58554">
        <ele>299</ele>
        <time>2015-07-08T10:16:24.000Z</time>
      </trkpt>
      <trkpt lat="47.44768" lon="6.58557">
        <ele>299</ele>
        <time>2015-07-08T10:16:25.000Z</time>
      </trkpt>
      <trkpt lat="47.44764" lon="6.5856">
        <ele>299</ele>
        <time>2015-07-08T10:16:26.000Z</time>
      </trkpt>
      <trkpt lat="47.4476" lon="6.58564">
        <ele>299</ele>
        <time>2015-07-08T10:16:27.000Z</time>
      </trkpt>
      <trkpt lat="47.44756" lon="6.58568">
        <ele>299</ele>
        <time>2015-07-08T10:16:28.000Z</time>
      </trkpt>
      <trkpt lat="47.44752" lon="6.58572">
        <ele>299</ele>
        <time>2015-07-08T10:16:29.000Z</time>
      </trkpt>
      <trkpt lat="47.44748" lon="6.58577">
        <ele>299</ele>
        <time>2015-07-08T10:16:30.000Z</time>
      </trkpt>
      <trkpt lat="47.44744" lon="6.58581">
        <ele>299</ele>
        <time>2015-07-08T10:16:31.000Z</time>
      </trkpt>
      <trkpt lat="47.44739" lon="6.58587">
        <ele>300</ele>
        <time>2015-07-08T10:16:32.000Z</time>
      </trkpt>
      <trkpt lat="47.44735" lon="6.58592">
        <ele>300</ele>
        <time>2015-07-08T10:16:33.000Z</time>
      </trkpt>
      <trkpt lat="47.44731" lon="6.58598">
        <ele>300</ele>
        <time>2015-07-08T10:16:34.000Z</time>
      </trkpt>
      <trkpt lat="47.44727" lon="6.58604">
        <ele>300</ele>
        <time>2015-07-08T10:16:35.000Z</time>
      </trkpt>
      <trkpt lat="47.44723" lon="6.5861">
        <ele>300</ele>
        <time>2015-07-08T10:16:36.000Z</time>
      </trkpt>
      <trkpt lat="47.44719" lon="6.58617">
        <ele>300</ele>
        <time>2015-07-08T10:16:37.000Z</time>
      </trkpt>
      <trkpt lat="47.44715" lon="6.58623">
        <ele>300</ele>
        <time>2015-07-08T10:16:38.000Z</time>
      </trkpt>
      <trkpt lat="47.44711" lon="6.5863">
        <ele>300</ele>
        <time>2015-07-08T10:16:39.000Z</time>
      </trkpt>
      <trkpt lat="47.44707" lon="6.58638">
        <ele>300</ele>
        <time>2015-07-08T10:16:40.000Z</time>
      </trkpt>
      <trkpt lat="47.44703" lon="6.58646">
        <ele>301</ele>
        <time>2015-07-08T10:16:41.000Z</time>
      </trkpt>
      <trkpt lat="47.44698" lon="6.58653">
        <ele>301</ele>
        <time>2015-07-08T10:16:42.000Z</time>
      </trkpt>
      <trkpt lat="47.44695" lon="6.58661">
        <ele>301</ele>
        <time>2015-07-08T10:16:43.000Z</time>
      </trkpt>
      <trkpt lat="47.44691" lon="6.58668">
        <ele>301</ele>
        <time>2015-07-08T10:16:44.000Z</time>
      </trkpt>
      <trkpt lat="47.44687" lon="6.58675">
        <ele>302</ele>
        <time>2015-07-08T10:16:45.000Z</time>
      </trkpt>
      <trkpt lat="47.44684" lon="6.58682">
        <ele>302</ele>
        <time>2015-07-08T10:16:46.000Z</time>
      </trkpt>
      <trkpt lat="47.4468" lon="6.58688">
        <ele>302</ele>
        <time>2015-07-08T10:16:47.000Z</time>
      </trkpt>
      <trkpt lat="47.44677" lon="6.58695">
        <ele>303</ele>
        <time>2015-07-08T10:16:48.000Z</time>
      </trkpt>
      <trkpt lat="47.44674" lon="6.58702">
        <ele>303</ele>
        <time>2015-07-08T10:16:49.000Z</time>
      </trkpt>
      <trkpt lat="47.44671" lon="6.58708">
        <ele>303</ele>
        <time>2015-07-08T10:16:50.000Z</time>
      </trkpt>
      <trkpt lat="47.44667" lon="6.58714">
        <ele>303</ele>
        <time>2015-07-08T10:16:51.000Z</time>
      </trkpt>
      <trkpt lat="47.44664" lon="6.58719">
        <ele>304</ele>
        <time>2015-07-08T10:16:52.000Z</time>
      </trkpt>
      <trkpt lat="47.4466" lon="6.58725">
        <ele>304</ele>
        <time>2015-07-08T10:16:53.000Z</time>
      </trkpt>
      <trkpt lat="47.44657" lon="6.5873">
        <ele>304</ele>
        <time>2015-07-08T10:16:54.000Z</time>
      </trkpt>
      <trkpt lat="47.44653" lon="6.58735">
        <ele>304</ele>
        <time>2015-07-08T10:16:55.000Z</time>
      </trkpt>
      <trkpt lat="47.4465" lon="6.58739">
        <ele>304</ele>
        <time>2015-07-08T10:16:56.000Z</time>
      </trkpt>
      <trkpt lat="47.44647" lon="6.58744">
        <ele>304</ele>
        <time>2015-07-08T10:16:57.000Z</time>
      </trkpt>
      <trkpt lat="47.44643" lon="6.58748">
        <ele>305</ele>
        <time>2015-07-08T10:16:58.000Z</time>
      </trkpt>
      <trkpt lat="47.44639" lon="6.58753">
        <ele>305</ele>
        <time>2015-07-08T10:16:59.000Z</time>
      </trkpt>
      <trkpt lat="47.44636" lon="6.58757">
        <ele>305</ele>
        <time>2015-07-08T10:17:00.000Z</time>
      </trkpt>
      <trkpt lat="47.44633" lon="6.58762">
        <ele>305</ele>
        <time>2015-07-08T10:17:01.000Z</time>
      </trkpt>
      <trkpt lat="47.44629" lon="6.58767">
        <ele>305</ele>
        <time>2015-07-08T10:17:02.000Z</time>
      </trkpt>
      <trkpt lat="47.44626" lon="6.58772">
        <ele>305</ele>
        <time>2015-07-08T10:17:03.000Z</time>
      </trkpt>
      <trkpt lat="47.44623" lon="6.58777">
        <ele>305</ele>
        <time>2015-07-08T10:17:04.000Z</time>
      </trkpt>
      <trkpt lat="47.4462" lon="6.58783">
        <ele>305</ele>
        <time>2015-07-08T10:17:05.000Z</time>
      </trkpt>
      <trkpt lat="47.44618" lon="6.58789">
        <ele>305</ele>
        <time>2015-07-08T10:17:06.000Z</time>
      </trkpt>
      <trkpt lat="47.44615" lon="6.58795">
        <ele>305</ele>
        <time>2015-07-08T10:17:07.000Z</time>
      </trkpt>
      <trkpt lat="47.44612" lon="6.58801">
        <ele>305</ele>
        <time>2015-07-08T10:17:08.000Z</time>
      </trkpt>
      <trkpt lat="47.4461" lon="6.58807">
        <ele>306</ele>
        <time>2015-07-08T10:17:09.000Z</time>
      </trkpt>
      <trkpt lat="47.44607" lon="6.58813">
        <ele>306</ele>
        <time>2015-07-08T10:17:10.000Z</time>
      </trkpt>
      <trkpt lat="47.44604" lon="6.5882">
        <ele>306</ele>
        <time>2015-07-08T10:17:11.000Z</time>
      </trkpt>
      <trkpt lat="47.44602" lon="6.58827">
        <ele>306</ele>
        <time>2015-07-08T10:17:12.000Z</time>
      </trkpt>
      <trkpt lat="47.446" lon="6.58834">
        <ele>306</ele>
        <time>2015-07-08T10:17:13.000Z</time>
      </trkpt>
      <trkpt lat="47.44597" lon="6.58841">
        <ele>306</ele>
        <time>2015-07-08T10:17:14.000Z</time>
      </trkpt>
      <trkpt lat="47.44595" lon="6.58848">
        <ele>306</ele>
        <time>2015-07-08T10:17:15.000Z</time>
      </trkpt>
      <trkpt lat="47.44592" lon="6.58855">
        <ele>306</ele>
        <time>2015-07-08T10:17:16.000Z</time>
      </trkpt>
      <trkpt lat="47.44589" lon="6.58861">
        <ele>307</ele>
        <time>2015-07-08T10:17:17.000Z</time>
      </trkpt>
      <trkpt lat="47.44586" lon="6.58868">
        <ele>307</ele>
        <time>2015-07-08T10:17:18.000Z</time>
      </trkpt>
      <trkpt lat="47.44583" lon="6.58875">
        <ele>307</ele>
        <time>2015-07-08T10:17:19.000Z</time>
      </trkpt>
      <trkpt lat="47.4458" lon="6.58882">
        <ele>307</ele>
        <time>2015-07-08T10:17:20.000Z</time>
      </trkpt>
      <trkpt lat="47.44577" lon="6.58888">
        <ele>307</ele>
        <time>2015-07-08T10:17:21.000Z</time>
      </trkpt>
      <trkpt lat="47.44573" lon="6.58894">
        <ele>307</ele>
        <time>2015-07-08T10:17:22.000Z</time>
      </trkpt>
      <trkpt lat="47.44569" lon="6.589">
        <ele>307</ele>
        <time>2015-07-08T10:17:23.000Z</time>
      </trkpt>
      <trkpt lat="47.44565" lon="6.58905">
        <ele>307</ele>
        <time>2015-07-08T10:17:24.000Z</time>
      </trkpt>
      <trkpt lat="47.44561" lon="6.5891">
        <ele>307</ele>
        <time>2015-07-08T10:17:25.000Z</time>
      </trkpt>
      <trkpt lat="47.44557" lon="6.58915">
        <ele>307</ele>
        <time>2015-07-08T10:17:26.000Z</time>
      </trkpt>
      <trkpt lat="47.44553" lon="6.5892">
        <ele>307</ele>
        <time>2015-07-08T10:17:27.000Z</time>
      </trkpt>
      <trkpt lat="47.44548" lon="6.58925">
        <ele>307</ele>
        <time>2015-07-08T10:17:28.000Z</time>
      </trkpt>
      <trkpt lat="47.44544" lon="6.5893">
        <ele>307</ele>
        <time>2015-07-08T10:17:29.000Z</time>
      </trkpt>
      <trkpt lat="47.44539" lon="6.58933">
        <ele>307</ele>
        <time>2015-07-08T10:17:30.000Z</time>
      </trkpt>
      <trkpt lat="47.44534" lon="6.58937">
        <ele>307</ele>
        <time>2015-07-08T10:17:31.000Z</time>
      </trkpt>
      <trkpt lat="47.4453" lon="6.5894">
        <ele>307</ele>
        <time>2015-07-08T10:17:32.000Z</time>
      </trkpt>
      <trkpt lat="47.44525" lon="6.58943">
        <ele>307</ele>
        <time>2015-07-08T10:17:33.000Z</time>
      </trkpt>
      <trkpt lat="47.4452" lon="6.58946">
        <ele>308</ele>
        <time>2015-07-08T10:17:34.000Z</time>
      </trkpt>
      <trkpt lat="47.44515" lon="6.58948">
        <ele>308</ele>
        <time>2015-07-08T10:17:35.000Z</time>
      </trkpt>
      <trkpt lat="47.4451" lon="6.58951">
        <ele>308</ele>
        <time>2015-07-08T10:17:36.000Z</time>
      </trkpt>
      <trkpt lat="47.44505" lon="6.58953">
        <ele>308</ele>
        <time>2015-07-08T10:17:37.000Z</time>
      </trkpt>
      <trkpt lat="47.445" lon="6.58955">
        <ele>308</ele>
        <time>2015-07-08T10:17:38.000Z</time>
      </trkpt>
      <trkpt lat="47.44495" lon="6.58956">
        <ele>308</ele>
        <time>2015-07-08T10:17:39.000Z</time>
      </trkpt>
      <trkpt lat="47.4449" lon="6.58959">
        <ele>308</ele>
        <time>2015-07-08T10:17:40.000Z</time>
      </trkpt>
      <trkpt lat="47.44486" lon="6.58962">
        <ele>308</ele>
        <time>2015-07-08T10:17:41.000Z</time>
      </trkpt>
      <trkpt lat="47.44481" lon="6.58966">
        <ele>308</ele>
        <time>2015-07-08T10:17:42.000Z</time>
      </trkpt>
      <trkpt lat="47.44477" lon="6.5897">
        <ele>309</ele>
        <time>2015-07-08T10:17:43.000Z</time>
      </trkpt>
      <trkpt lat="47.44473" lon="6.58974">
        <ele>309</ele>
        <time>2015-07-08T10:17:44.000Z</time>
      </trkpt>
      <trkpt lat="47.44469" lon="6.58978">
        <ele>309</ele>
        <time>2015-07-08T10:17:45.000Z</time>
      </trkpt>
      <trkpt lat="47.44465" lon="6.58983">
        <ele>309</ele>
        <time>2015-07-08T10:17:46.000Z</time>
      </trkpt>
      <trkpt lat="47.44461" lon="6.58987">
        <ele>309</ele>
        <time>2015-07-08T10:17:47.000Z</time>
      </trkpt>
      <trkpt lat="47.44457" lon="6.58993">
        <ele>309</ele>
        <time>2015-07-08T10:17:48.000Z</time>
      </trkpt>
      <trkpt lat="47.44454" lon="6.58998">
        <ele>309</ele>
        <time>2015-07-08T10:17:49.000Z</time>
      </trkpt>
      <trkpt lat="47.44451" lon="6.59004">
        <ele>309</ele>
        <time>2015-07-08T10:17:50.000Z</time>
      </trkpt>
      <trkpt lat="47.44448" lon="6.5901">
        <ele>310</ele>
        <time>2015-07-08T10:17:51.000Z</time>
      </trkpt>
      <trkpt lat="47.44445" lon="6.59017">
        <ele>310</ele>
        <time>2015-07-08T10:17:52.000Z</time>
      </trkpt>
      <trkpt lat="47.44442" lon="6.59023">
        <ele>310</ele>
        <time>2015-07-08T10:17:53.000Z</time>
      </trkpt>
      <trkpt lat="47.44439" lon="6.59029">
        <ele>310</ele>
        <time>2015-07-08T10:17:54.000Z</time>
      </trkpt>
      <trkpt lat="47.44436" lon="6.59035">
        <ele>311</ele>
        <time>2015-07-08T10:17:55.000Z</time>
      </trkpt>
      <trkpt lat="47.44434" lon="6.59042">
        <ele>311</ele>
        <time>2015-07-08T10:17:56.000Z</time>
      </trkpt>
      <trkpt lat="47.44431" lon="6.59048">
        <ele>311</ele>
        <time>2015-07-08T10:17:57.000Z</time>
      </trkpt>
      <trkpt lat="47.44428" lon="6.59054">
        <ele>311</ele>
        <time>2015-07-08T10:17:58.000Z</time>
      </trkpt>
      <trkpt lat="47.44425" lon="6.5906">
        <ele>311</ele>
        <time>2015-07-08T10:17:59.000Z</time>
      </trkpt>
      <trkpt lat="47.44422" lon="6.59066">
        <ele>312</ele>
        <time>2015-07-08T10:18:00.000Z</time>
      </trkpt>
      <trkpt lat="47.44419" lon="6.59072">
        <ele>312</ele>
        <time>2015-07-08T10:18:01.000Z</time>
      </trkpt>
      <trkpt lat="47.44416" lon="6.59077">
        <ele>312</ele>
        <time>2015-07-08T10:18:02.000Z</time>
      </trkpt>
      <trkpt lat="47.44413" lon="6.59083">
        <ele>312</ele>
        <time>2015-07-08T10:18:03.000Z</time>
      </trkpt>
      <trkpt lat="47.44411" lon="6.59088">
        <ele>312</ele>
        <time>2015-07-08T10:18:04.000Z</time>
      </trkpt>
      <trkpt lat="47.44408" lon="6.59094">
        <ele>312</ele>
        <time>2015-07-08T10:18:05.000Z</time>
      </trkpt>
      <trkpt lat="47.44405" lon="6.591">
        <ele>312</ele>
        <time>2015-07-08T10:18:06.000Z</time>
      </trkpt>
      <trkpt lat="47.44401" lon="6.59105">
        <ele>313</ele>
        <time>2015-07-08T10:18:07.000Z</time>
      </trkpt>
      <trkpt lat="47.44398" lon="6.59111">
        <ele>313</ele>
        <time>2015-07-08T10:18:08.000Z</time>
      </trkpt>
      <trkpt lat="47.44395" lon="6.59116">
        <ele>313</ele>
        <time>2015-07-08T10:18:09.000Z</time>
      </trkpt>
      <trkpt lat="47.44392" lon="6.59122">
        <ele>313</ele>
        <time>2015-07-08T10:18:10.000Z</time>
      </trkpt>
      <trkpt lat="47.44389" lon="6.59127">
        <ele>313</ele>
        <time>2015-07-08T10:18:11.000Z</time>
      </trkpt>
      <trkpt lat="47.44386" lon="6.59132">
        <ele>313</ele>
        <time>2015-07-08T10:18:12.000Z</time>
      </trkpt>
      <trkpt lat="47.44383" lon="6.59137">
        <ele>313</ele>
        <time>2015-07-08T10:18:13.000Z</time>
      </trkpt>
      <trkpt lat="47.4438" lon="6.59142">
        <ele>314</ele>
        <time>2015-07-08T10:18:14.000Z</time>
      </trkpt>
      <trkpt lat="47.44378" lon="6.59147">
        <ele>314</ele>
        <time>2015-07-08T10:18:15.000Z</time>
      </trkpt>
      <trkpt lat="47.44375" lon="6.59151">
        <ele>314</ele>
        <time>2015-07-08T10:18:16.000Z</time>
      </trkpt>
      <trkpt lat="47.44373" lon="6.59155">
        <ele>314</ele>
        <time>2015-07-08T10:18:17.000Z</time>
      </trkpt>
      <trkpt lat="47.4437" lon="6.59158">
        <ele>314</ele>
        <time>2015-07-08T10:18:18.000Z</time>
      </trkpt>
      <trkpt lat="47.44368" lon="6.59162">
        <ele>314</ele>
        <time>2015-07-08T10:18:19.000Z</time>
      </trkpt>
      <trkpt lat="47.44367" lon="6.59164">
        <ele>314</ele>
        <time>2015-07-08T10:18:20.000Z</time>
      </trkpt>
      <trkpt lat="47.44365" lon="6.59167">
        <ele>314</ele>
        <time>2015-07-08T10:18:21.000Z</time>
      </trkpt>
      <trkpt lat="47.44363" lon="6.59168">
        <ele>315</ele>
        <time>2015-07-08T10:18:22.000Z</time>
      </trkpt>
      <trkpt lat="47.44361" lon="6.59168">
        <ele>315</ele>
        <time>2015-07-08T10:18:23.000Z</time>
      </trkpt>
      <trkpt lat="47.4436" lon="6.59169">
        <ele>315</ele>
        <time>2015-07-08T10:18:24.000Z</time>
      </trkpt>
      <trkpt lat="47.44359" lon="6.5917">
        <ele>315</ele>
        <time>2015-07-08T10:18:25.000Z</time>
      </trkpt>
      <trkpt lat="47.44357" lon="6.59171">
        <ele>315</ele>
        <time>2015-07-08T10:18:26.000Z</time>
      </trkpt>
      <trkpt lat="47.44357" lon="6.59173">
        <ele>315</ele>
        <time>2015-07-08T10:18:27.000Z</time>
      </trkpt>
      <trkpt lat="47.44356" lon="6.59174">
        <ele>315</ele>
        <time>2015-07-08T10:18:28.000Z</time>
      </trkpt>
      <trkpt lat="47.44355" lon="6.59176">
        <ele>315</ele>
        <time>2015-07-08T10:18:29.000Z</time>
      </trkpt>
      <trkpt lat="47.44355" lon="6.59177">
        <ele>315</ele>
        <time>2015-07-08T10:18:30.000Z</time>
      </trkpt>
      <trkpt lat="47.44354" lon="6.59178">
        <ele>315</ele>
        <time>2015-07-08T10:18:31.000Z</time>
      </trkpt>
      <trkpt lat="47.44353" lon="6.59179">
        <ele>316</ele>
        <time>2015-07-08T10:18:32.000Z</time>
      </trkpt>
      <trkpt lat="47.44351" lon="6.5918">
        <ele>316</ele>
        <time>2015-07-08T10:18:33.000Z</time>
      </trkpt>
      <trkpt lat="47.4435" lon="6.59181">
        <ele>316</ele>
        <time>2015-07-08T10:18:34.000Z</time>
      </trkpt>
      <trkpt lat="47.4435" lon="6.59183">
        <ele>316</ele>
        <time>2015-07-08T10:18:35.000Z</time>
      </trkpt>
      <trkpt lat="47.44349" lon="6.59184">
        <ele>316</ele>
        <time>2015-07-08T10:18:36.000Z</time>
      </trkpt>
      <trkpt lat="47.44348" lon="6.59186">
        <ele>316</ele>
        <time>2015-07-08T10:18:37.000Z</time>
      </trkpt>
      <trkpt lat="47.44347" lon="6.59187">
        <ele>316</ele>
        <time>2015-07-08T10:18:38.000Z</time>
      </trkpt>
      <trkpt lat="47.44347" lon="6.59187">
        <ele>316</ele>
        <time>2015-07-08T10:18:39.000Z</time>
      </trkpt>
      <trkpt lat="47.44347" lon="6.59188">
        <ele>316</ele>
        <time>2015-07-08T10:18:40.000Z</time>
      </trkpt>
      <trkpt lat="47.44347" lon="6.59188">
        <ele>316</ele>
        <time>2015-07-08T10:18:41.000Z</time>
      </trkpt>
      <trkpt lat="47.44347" lon="6.59188">
        <ele>316</ele>
        <time>2015-07-08T10:18:42.000Z</time>
      </trkpt>
    </trkseg>
  </trk>
</gpx>